<?xml version="1.0" encoding="UTF-8" standalone="no" ?>
<gpx xmlns="http://www.topografix.com/GPX/1/1" xmlns:xsi="http://www.w3.org/2001/XMLSchema-instance" xsi:schemaLocation="http://www.topografix.com/GPX/1/1 http://www.topografix.com/GPX/1/1/gpx.xsd" version="1.1" creator="VisuGPX - https://www.visugpx.com">
  <metadata>
    <name>Champagnat Cyclisme</name>
  </metadata>
  <trk>
    <name><![CDATA[Champagnat Cyclisme]]></name>
    <trkseg>
      <trkpt lat="46.48264" lon="5.36825">
        <ele>263.60000610352</ele>
        <time>2021-04-05T11:01:29.000Z</time>
      </trkpt>
      <trkpt lat="46.48254" lon="5.36815">
        <ele>262.79998779297</ele>
        <time>2021-04-05T11:01:30.000Z</time>
      </trkpt>
      <trkpt lat="46.48244" lon="5.36806">
        <ele>261</ele>
        <time>2021-04-05T11:01:31.000Z</time>
      </trkpt>
      <trkpt lat="46.48223" lon="5.36789">
        <ele>259</ele>
        <time>2021-04-05T11:01:33.000Z</time>
      </trkpt>
      <trkpt lat="46.48213" lon="5.3678">
        <ele>257.60000610352</ele>
        <time>2021-04-05T11:01:34.000Z</time>
      </trkpt>
      <trkpt lat="46.48203" lon="5.36772">
        <ele>256.60000610352</ele>
        <time>2021-04-05T11:01:35.000Z</time>
      </trkpt>
      <trkpt lat="46.48193" lon="5.36764">
        <ele>255.39999389648</ele>
        <time>2021-04-05T11:01:36.000Z</time>
      </trkpt>
      <trkpt lat="46.48173" lon="5.36747">
        <ele>253.80000305176</ele>
        <time>2021-04-05T11:01:38.000Z</time>
      </trkpt>
      <trkpt lat="46.48153" lon="5.36732">
        <ele>252.39999389648</ele>
        <time>2021-04-05T11:01:40.000Z</time>
      </trkpt>
      <trkpt lat="46.48134" lon="5.36717">
        <ele>250.80000305176</ele>
        <time>2021-04-05T11:01:42.000Z</time>
      </trkpt>
      <trkpt lat="46.48125" lon="5.36711">
        <ele>250.19999694824</ele>
        <time>2021-04-05T11:01:43.000Z</time>
      </trkpt>
      <trkpt lat="46.48118" lon="5.36705">
        <ele>249.80000305176</ele>
        <time>2021-04-05T11:01:44.000Z</time>
      </trkpt>
      <trkpt lat="46.48112" lon="5.36698">
        <ele>249.39999389648</ele>
        <time>2021-04-05T11:01:45.000Z</time>
      </trkpt>
      <trkpt lat="46.4811" lon="5.3669">
        <ele>249</ele>
        <time>2021-04-05T11:01:46.000Z</time>
      </trkpt>
      <trkpt lat="46.48111" lon="5.36681">
        <ele>248.60000610352</ele>
        <time>2021-04-05T11:01:47.000Z</time>
      </trkpt>
      <trkpt lat="46.48116" lon="5.36674">
        <ele>248.19999694824</ele>
        <time>2021-04-05T11:01:48.000Z</time>
      </trkpt>
      <trkpt lat="46.48122" lon="5.36668">
        <ele>247.80000305176</ele>
        <time>2021-04-05T11:01:49.000Z</time>
      </trkpt>
      <trkpt lat="46.48128" lon="5.36661">
        <ele>247.60000610352</ele>
        <time>2021-04-05T11:01:50.000Z</time>
      </trkpt>
      <trkpt lat="46.48135" lon="5.36655">
        <ele>247.39999389648</ele>
        <time>2021-04-05T11:01:51.000Z</time>
      </trkpt>
      <trkpt lat="46.48148" lon="5.36641">
        <ele>247.19999694824</ele>
        <time>2021-04-05T11:01:53.000Z</time>
      </trkpt>
      <trkpt lat="46.48162" lon="5.36626">
        <ele>247</ele>
        <time>2021-04-05T11:01:55.000Z</time>
      </trkpt>
      <trkpt lat="46.48186" lon="5.3661">
        <ele>246.80000305176</ele>
        <time>2021-04-05T11:01:58.000Z</time>
      </trkpt>
      <trkpt lat="46.48195" lon="5.36607">
        <ele>246.19999694824</ele>
        <time>2021-04-05T11:01:59.000Z</time>
      </trkpt>
      <trkpt lat="46.48204" lon="5.36604">
        <ele>245.80000305176</ele>
        <time>2021-04-05T11:02:00.000Z</time>
      </trkpt>
      <trkpt lat="46.48211" lon="5.36599">
        <ele>245.39999389648</ele>
        <time>2021-04-05T11:02:01.000Z</time>
      </trkpt>
      <trkpt lat="46.48216" lon="5.3659">
        <ele>245.19999694824</ele>
        <time>2021-04-05T11:02:02.000Z</time>
      </trkpt>
      <trkpt lat="46.4822" lon="5.3658">
        <ele>245.19999694824</ele>
        <time>2021-04-05T11:02:03.000Z</time>
      </trkpt>
      <trkpt lat="46.48223" lon="5.36569">
        <ele>244.80000305176</ele>
        <time>2021-04-05T11:02:04.000Z</time>
      </trkpt>
      <trkpt lat="46.48233" lon="5.36552">
        <ele>244.60000610352</ele>
        <time>2021-04-05T11:02:06.000Z</time>
      </trkpt>
      <trkpt lat="46.48246" lon="5.36538">
        <ele>244.60000610352</ele>
        <time>2021-04-05T11:02:08.000Z</time>
      </trkpt>
      <trkpt lat="46.4826" lon="5.36525">
        <ele>244.39999389648</ele>
        <time>2021-04-05T11:02:10.000Z</time>
      </trkpt>
      <trkpt lat="46.48273" lon="5.36511">
        <ele>244.19999694824</ele>
        <time>2021-04-05T11:02:12.000Z</time>
      </trkpt>
      <trkpt lat="46.48287" lon="5.36497">
        <ele>243.80000305176</ele>
        <time>2021-04-05T11:02:14.000Z</time>
      </trkpt>
      <trkpt lat="46.483" lon="5.36482">
        <ele>243.19999694824</ele>
        <time>2021-04-05T11:02:16.000Z</time>
      </trkpt>
      <trkpt lat="46.48307" lon="5.36474">
        <ele>243.19999694824</ele>
        <time>2021-04-05T11:02:17.000Z</time>
      </trkpt>
      <trkpt lat="46.48314" lon="5.36467">
        <ele>243</ele>
        <time>2021-04-05T11:02:18.000Z</time>
      </trkpt>
      <trkpt lat="46.48321" lon="5.36459">
        <ele>242.80000305176</ele>
        <time>2021-04-05T11:02:19.000Z</time>
      </trkpt>
      <trkpt lat="46.48328" lon="5.36452">
        <ele>242.39999389648</ele>
        <time>2021-04-05T11:02:20.000Z</time>
      </trkpt>
      <trkpt lat="46.48342" lon="5.36436">
        <ele>242</ele>
        <time>2021-04-05T11:02:22.000Z</time>
      </trkpt>
      <trkpt lat="46.48349" lon="5.36429">
        <ele>242</ele>
        <time>2021-04-05T11:02:23.000Z</time>
      </trkpt>
      <trkpt lat="46.48356" lon="5.36421">
        <ele>241.60000610352</ele>
        <time>2021-04-05T11:02:24.000Z</time>
      </trkpt>
      <trkpt lat="46.48371" lon="5.36405">
        <ele>241.39999389648</ele>
        <time>2021-04-05T11:02:26.000Z</time>
      </trkpt>
      <trkpt lat="46.48385" lon="5.3639">
        <ele>240.39999389648</ele>
        <time>2021-04-05T11:02:28.000Z</time>
      </trkpt>
      <trkpt lat="46.484" lon="5.36375">
        <ele>239.80000305176</ele>
        <time>2021-04-05T11:02:30.000Z</time>
      </trkpt>
      <trkpt lat="46.48415" lon="5.36363">
        <ele>239.19999694824</ele>
        <time>2021-04-05T11:02:32.000Z</time>
      </trkpt>
      <trkpt lat="46.48423" lon="5.36358">
        <ele>239</ele>
        <time>2021-04-05T11:02:33.000Z</time>
      </trkpt>
      <trkpt lat="46.48431" lon="5.36355">
        <ele>239</ele>
        <time>2021-04-05T11:02:34.000Z</time>
      </trkpt>
      <trkpt lat="46.48448" lon="5.3635">
        <ele>238.19999694824</ele>
        <time>2021-04-05T11:02:36.000Z</time>
      </trkpt>
      <trkpt lat="46.48456" lon="5.36349">
        <ele>238</ele>
        <time>2021-04-05T11:02:37.000Z</time>
      </trkpt>
      <trkpt lat="46.48465" lon="5.36347">
        <ele>238</ele>
        <time>2021-04-05T11:02:38.000Z</time>
      </trkpt>
      <trkpt lat="46.48473" lon="5.36346">
        <ele>237.80000305176</ele>
        <time>2021-04-05T11:02:39.000Z</time>
      </trkpt>
      <trkpt lat="46.48482" lon="5.36345">
        <ele>237.60000610352</ele>
        <time>2021-04-05T11:02:40.000Z</time>
      </trkpt>
      <trkpt lat="46.48498" lon="5.36342">
        <ele>237.60000610352</ele>
        <time>2021-04-05T11:02:42.000Z</time>
      </trkpt>
      <trkpt lat="46.48514" lon="5.36339">
        <ele>237.60000610352</ele>
        <time>2021-04-05T11:02:44.000Z</time>
      </trkpt>
      <trkpt lat="46.4853" lon="5.36337">
        <ele>237.60000610352</ele>
        <time>2021-04-05T11:02:46.000Z</time>
      </trkpt>
      <trkpt lat="46.48547" lon="5.36334">
        <ele>237.60000610352</ele>
        <time>2021-04-05T11:02:48.000Z</time>
      </trkpt>
      <trkpt lat="46.48563" lon="5.36331">
        <ele>237.60000610352</ele>
        <time>2021-04-05T11:02:50.000Z</time>
      </trkpt>
      <trkpt lat="46.4858" lon="5.36328">
        <ele>237.60000610352</ele>
        <time>2021-04-05T11:02:52.000Z</time>
      </trkpt>
      <trkpt lat="46.48598" lon="5.36325">
        <ele>237.60000610352</ele>
        <time>2021-04-05T11:02:54.000Z</time>
      </trkpt>
      <trkpt lat="46.48607" lon="5.36324">
        <ele>237.60000610352</ele>
        <time>2021-04-05T11:02:55.000Z</time>
      </trkpt>
      <trkpt lat="46.48617" lon="5.3632">
        <ele>237.60000610352</ele>
        <time>2021-04-05T11:02:56.000Z</time>
      </trkpt>
      <trkpt lat="46.48625" lon="5.36312">
        <ele>237.60000610352</ele>
        <time>2021-04-05T11:02:57.000Z</time>
      </trkpt>
      <trkpt lat="46.48631" lon="5.36301">
        <ele>237.39999389648</ele>
        <time>2021-04-05T11:02:58.000Z</time>
      </trkpt>
      <trkpt lat="46.48636" lon="5.36288">
        <ele>237.19999694824</ele>
        <time>2021-04-05T11:02:59.000Z</time>
      </trkpt>
      <trkpt lat="46.48639" lon="5.36274">
        <ele>236.80000305176</ele>
        <time>2021-04-05T11:03:00.000Z</time>
      </trkpt>
      <trkpt lat="46.48642" lon="5.36245">
        <ele>236</ele>
        <time>2021-04-05T11:03:02.000Z</time>
      </trkpt>
      <trkpt lat="46.48644" lon="5.36231">
        <ele>235.60000610352</ele>
        <time>2021-04-05T11:03:03.000Z</time>
      </trkpt>
      <trkpt lat="46.48645" lon="5.36216">
        <ele>235</ele>
        <time>2021-04-05T11:03:04.000Z</time>
      </trkpt>
      <trkpt lat="46.48646" lon="5.36202">
        <ele>234.39999389648</ele>
        <time>2021-04-05T11:03:05.000Z</time>
      </trkpt>
      <trkpt lat="46.48647" lon="5.36188">
        <ele>233.39999389648</ele>
        <time>2021-04-05T11:03:06.000Z</time>
      </trkpt>
      <trkpt lat="46.48648" lon="5.36174">
        <ele>232.39999389648</ele>
        <time>2021-04-05T11:03:07.000Z</time>
      </trkpt>
      <trkpt lat="46.48649" lon="5.3616">
        <ele>231.60000610352</ele>
        <time>2021-04-05T11:03:08.000Z</time>
      </trkpt>
      <trkpt lat="46.4865" lon="5.36146">
        <ele>231</ele>
        <time>2021-04-05T11:03:09.000Z</time>
      </trkpt>
      <trkpt lat="46.48652" lon="5.36133">
        <ele>230.39999389648</ele>
        <time>2021-04-05T11:03:10.000Z</time>
      </trkpt>
      <trkpt lat="46.48655" lon="5.3612">
        <ele>230.19999694824</ele>
        <time>2021-04-05T11:03:11.000Z</time>
      </trkpt>
      <trkpt lat="46.48657" lon="5.36108">
        <ele>230</ele>
        <time>2021-04-05T11:03:12.000Z</time>
      </trkpt>
      <trkpt lat="46.4866" lon="5.36095">
        <ele>229.80000305176</ele>
        <time>2021-04-05T11:03:13.000Z</time>
      </trkpt>
      <trkpt lat="46.48663" lon="5.36084">
        <ele>229.80000305176</ele>
        <time>2021-04-05T11:03:14.000Z</time>
      </trkpt>
      <trkpt lat="46.48668" lon="5.36062">
        <ele>229.60000610352</ele>
        <time>2021-04-05T11:03:16.000Z</time>
      </trkpt>
      <trkpt lat="46.4867" lon="5.36051">
        <ele>229.60000610352</ele>
        <time>2021-04-05T11:03:17.000Z</time>
      </trkpt>
      <trkpt lat="46.48672" lon="5.36041">
        <ele>229.60000610352</ele>
        <time>2021-04-05T11:03:18.000Z</time>
      </trkpt>
      <trkpt lat="46.48675" lon="5.36022">
        <ele>229.60000610352</ele>
        <time>2021-04-05T11:03:20.000Z</time>
      </trkpt>
      <trkpt lat="46.48678" lon="5.36005">
        <ele>229.60000610352</ele>
        <time>2021-04-05T11:03:22.000Z</time>
      </trkpt>
      <trkpt lat="46.4868" lon="5.35987">
        <ele>229.60000610352</ele>
        <time>2021-04-05T11:03:24.000Z</time>
      </trkpt>
      <trkpt lat="46.48682" lon="5.35969">
        <ele>230.60000610352</ele>
        <time>2021-04-05T11:03:26.000Z</time>
      </trkpt>
      <trkpt lat="46.48683" lon="5.3596">
        <ele>231</ele>
        <time>2021-04-05T11:03:27.000Z</time>
      </trkpt>
      <trkpt lat="46.48684" lon="5.3595">
        <ele>231.39999389648</ele>
        <time>2021-04-05T11:03:28.000Z</time>
      </trkpt>
      <trkpt lat="46.48687" lon="5.3593">
        <ele>232</ele>
        <time>2021-04-05T11:03:30.000Z</time>
      </trkpt>
      <trkpt lat="46.48692" lon="5.35911">
        <ele>232.39999389648</ele>
        <time>2021-04-05T11:03:32.000Z</time>
      </trkpt>
      <trkpt lat="46.48695" lon="5.35901">
        <ele>232.39999389648</ele>
        <time>2021-04-05T11:03:33.000Z</time>
      </trkpt>
      <trkpt lat="46.48698" lon="5.35892">
        <ele>232.39999389648</ele>
        <time>2021-04-05T11:03:34.000Z</time>
      </trkpt>
      <trkpt lat="46.48706" lon="5.35872">
        <ele>232.39999389648</ele>
        <time>2021-04-05T11:03:36.000Z</time>
      </trkpt>
      <trkpt lat="46.48714" lon="5.35852">
        <ele>232.39999389648</ele>
        <time>2021-04-05T11:03:38.000Z</time>
      </trkpt>
      <trkpt lat="46.48723" lon="5.35832">
        <ele>232.39999389648</ele>
        <time>2021-04-05T11:03:40.000Z</time>
      </trkpt>
      <trkpt lat="46.48731" lon="5.35812">
        <ele>232</ele>
        <time>2021-04-05T11:03:42.000Z</time>
      </trkpt>
      <trkpt lat="46.4874" lon="5.35792">
        <ele>231.60000610352</ele>
        <time>2021-04-05T11:03:44.000Z</time>
      </trkpt>
      <trkpt lat="46.48749" lon="5.35772">
        <ele>230.80000305176</ele>
        <time>2021-04-05T11:03:46.000Z</time>
      </trkpt>
      <trkpt lat="46.48753" lon="5.35762">
        <ele>230.39999389648</ele>
        <time>2021-04-05T11:03:47.000Z</time>
      </trkpt>
      <trkpt lat="46.48757" lon="5.35752">
        <ele>230.19999694824</ele>
        <time>2021-04-05T11:03:48.000Z</time>
      </trkpt>
      <trkpt lat="46.48766" lon="5.35732">
        <ele>230</ele>
        <time>2021-04-05T11:03:50.000Z</time>
      </trkpt>
      <trkpt lat="46.48771" lon="5.35722">
        <ele>229.60000610352</ele>
        <time>2021-04-05T11:03:51.000Z</time>
      </trkpt>
      <trkpt lat="46.48775" lon="5.35712">
        <ele>229.60000610352</ele>
        <time>2021-04-05T11:03:52.000Z</time>
      </trkpt>
      <trkpt lat="46.48784" lon="5.35693">
        <ele>229.19999694824</ele>
        <time>2021-04-05T11:03:54.000Z</time>
      </trkpt>
      <trkpt lat="46.48788" lon="5.35684">
        <ele>229.19999694824</ele>
        <time>2021-04-05T11:03:55.000Z</time>
      </trkpt>
      <trkpt lat="46.48792" lon="5.35675">
        <ele>229.19999694824</ele>
        <time>2021-04-05T11:03:56.000Z</time>
      </trkpt>
      <trkpt lat="46.48799" lon="5.35657">
        <ele>229.19999694824</ele>
        <time>2021-04-05T11:03:58.000Z</time>
      </trkpt>
      <trkpt lat="46.48807" lon="5.35639">
        <ele>229.19999694824</ele>
        <time>2021-04-05T11:04:00.000Z</time>
      </trkpt>
      <trkpt lat="46.48814" lon="5.3562">
        <ele>229.19999694824</ele>
        <time>2021-04-05T11:04:02.000Z</time>
      </trkpt>
      <trkpt lat="46.48818" lon="5.35611">
        <ele>229.19999694824</ele>
        <time>2021-04-05T11:04:03.000Z</time>
      </trkpt>
      <trkpt lat="46.48822" lon="5.35602">
        <ele>229.19999694824</ele>
        <time>2021-04-05T11:04:04.000Z</time>
      </trkpt>
      <trkpt lat="46.48829" lon="5.35585">
        <ele>229.39999389648</ele>
        <time>2021-04-05T11:04:06.000Z</time>
      </trkpt>
      <trkpt lat="46.48837" lon="5.35567">
        <ele>229.39999389648</ele>
        <time>2021-04-05T11:04:08.000Z</time>
      </trkpt>
      <trkpt lat="46.48841" lon="5.35559">
        <ele>229.39999389648</ele>
        <time>2021-04-05T11:04:09.000Z</time>
      </trkpt>
      <trkpt lat="46.48844" lon="5.35551">
        <ele>229.39999389648</ele>
        <time>2021-04-05T11:04:10.000Z</time>
      </trkpt>
      <trkpt lat="46.48851" lon="5.35535">
        <ele>229.60000610352</ele>
        <time>2021-04-05T11:04:12.000Z</time>
      </trkpt>
      <trkpt lat="46.48859" lon="5.35517">
        <ele>229.60000610352</ele>
        <time>2021-04-05T11:04:14.000Z</time>
      </trkpt>
      <trkpt lat="46.48866" lon="5.355">
        <ele>229.60000610352</ele>
        <time>2021-04-05T11:04:16.000Z</time>
      </trkpt>
      <trkpt lat="46.48874" lon="5.35483">
        <ele>229.80000305176</ele>
        <time>2021-04-05T11:04:18.000Z</time>
      </trkpt>
      <trkpt lat="46.48881" lon="5.35464">
        <ele>229.80000305176</ele>
        <time>2021-04-05T11:04:20.000Z</time>
      </trkpt>
      <trkpt lat="46.48889" lon="5.35447">
        <ele>229.80000305176</ele>
        <time>2021-04-05T11:04:22.000Z</time>
      </trkpt>
      <trkpt lat="46.48893" lon="5.35438">
        <ele>229.80000305176</ele>
        <time>2021-04-05T11:04:23.000Z</time>
      </trkpt>
      <trkpt lat="46.48897" lon="5.35429">
        <ele>229.80000305176</ele>
        <time>2021-04-05T11:04:24.000Z</time>
      </trkpt>
      <trkpt lat="46.48906" lon="5.3541">
        <ele>229.80000305176</ele>
        <time>2021-04-05T11:04:26.000Z</time>
      </trkpt>
      <trkpt lat="46.48915" lon="5.3539">
        <ele>229.80000305176</ele>
        <time>2021-04-05T11:04:28.000Z</time>
      </trkpt>
      <trkpt lat="46.48924" lon="5.35371">
        <ele>229.80000305176</ele>
        <time>2021-04-05T11:04:30.000Z</time>
      </trkpt>
      <trkpt lat="46.48933" lon="5.35351">
        <ele>229.80000305176</ele>
        <time>2021-04-05T11:04:32.000Z</time>
      </trkpt>
      <trkpt lat="46.48941" lon="5.35331">
        <ele>229.60000610352</ele>
        <time>2021-04-05T11:04:34.000Z</time>
      </trkpt>
      <trkpt lat="46.4895" lon="5.35313">
        <ele>229.19999694824</ele>
        <time>2021-04-05T11:04:36.000Z</time>
      </trkpt>
      <trkpt lat="46.48958" lon="5.35294">
        <ele>228.80000305176</ele>
        <time>2021-04-05T11:04:38.000Z</time>
      </trkpt>
      <trkpt lat="46.48962" lon="5.35285">
        <ele>228.60000610352</ele>
        <time>2021-04-05T11:04:39.000Z</time>
      </trkpt>
      <trkpt lat="46.48966" lon="5.35276">
        <ele>228.60000610352</ele>
        <time>2021-04-05T11:04:40.000Z</time>
      </trkpt>
      <trkpt lat="46.48973" lon="5.35258">
        <ele>228.60000610352</ele>
        <time>2021-04-05T11:04:42.000Z</time>
      </trkpt>
      <trkpt lat="46.48981" lon="5.35241">
        <ele>228.60000610352</ele>
        <time>2021-04-05T11:04:44.000Z</time>
      </trkpt>
      <trkpt lat="46.48988" lon="5.35225">
        <ele>228.60000610352</ele>
        <time>2021-04-05T11:04:46.000Z</time>
      </trkpt>
      <trkpt lat="46.48995" lon="5.35209">
        <ele>228.80000305176</ele>
        <time>2021-04-05T11:04:48.000Z</time>
      </trkpt>
      <trkpt lat="46.49001" lon="5.35193">
        <ele>229</ele>
        <time>2021-04-05T11:04:50.000Z</time>
      </trkpt>
      <trkpt lat="46.49007" lon="5.35178">
        <ele>229.19999694824</ele>
        <time>2021-04-05T11:04:52.000Z</time>
      </trkpt>
      <trkpt lat="46.49013" lon="5.35162">
        <ele>229.60000610352</ele>
        <time>2021-04-05T11:04:54.000Z</time>
      </trkpt>
      <trkpt lat="46.4902" lon="5.35147">
        <ele>230.19999694824</ele>
        <time>2021-04-05T11:04:56.000Z</time>
      </trkpt>
      <trkpt lat="46.49026" lon="5.35131">
        <ele>230.60000610352</ele>
        <time>2021-04-05T11:04:58.000Z</time>
      </trkpt>
      <trkpt lat="46.49033" lon="5.35113">
        <ele>231</ele>
        <time>2021-04-05T11:05:00.000Z</time>
      </trkpt>
      <trkpt lat="46.49035" lon="5.35104">
        <ele>231</ele>
        <time>2021-04-05T11:05:01.000Z</time>
      </trkpt>
      <trkpt lat="46.49037" lon="5.35095">
        <ele>231</ele>
        <time>2021-04-05T11:05:02.000Z</time>
      </trkpt>
      <trkpt lat="46.4904" lon="5.35085">
        <ele>231</ele>
        <time>2021-04-05T11:05:03.000Z</time>
      </trkpt>
      <trkpt lat="46.49042" lon="5.35075">
        <ele>231</ele>
        <time>2021-04-05T11:05:04.000Z</time>
      </trkpt>
      <trkpt lat="46.49047" lon="5.35055">
        <ele>231</ele>
        <time>2021-04-05T11:05:06.000Z</time>
      </trkpt>
      <trkpt lat="46.49051" lon="5.35034">
        <ele>231</ele>
        <time>2021-04-05T11:05:08.000Z</time>
      </trkpt>
      <trkpt lat="46.49055" lon="5.35012">
        <ele>231</ele>
        <time>2021-04-05T11:05:10.000Z</time>
      </trkpt>
      <trkpt lat="46.4906" lon="5.3499">
        <ele>230.80000305176</ele>
        <time>2021-04-05T11:05:12.000Z</time>
      </trkpt>
      <trkpt lat="46.49064" lon="5.34967">
        <ele>230.39999389648</ele>
        <time>2021-04-05T11:05:14.000Z</time>
      </trkpt>
      <trkpt lat="46.49069" lon="5.34944">
        <ele>229.80000305176</ele>
        <time>2021-04-05T11:05:16.000Z</time>
      </trkpt>
      <trkpt lat="46.49072" lon="5.34932">
        <ele>229.39999389648</ele>
        <time>2021-04-05T11:05:17.000Z</time>
      </trkpt>
      <trkpt lat="46.49074" lon="5.3492">
        <ele>229.19999694824</ele>
        <time>2021-04-05T11:05:18.000Z</time>
      </trkpt>
      <trkpt lat="46.49077" lon="5.34908">
        <ele>228.80000305176</ele>
        <time>2021-04-05T11:05:19.000Z</time>
      </trkpt>
      <trkpt lat="46.49079" lon="5.34896">
        <ele>228.60000610352</ele>
        <time>2021-04-05T11:05:20.000Z</time>
      </trkpt>
      <trkpt lat="46.49081" lon="5.34884">
        <ele>228.39999389648</ele>
        <time>2021-04-05T11:05:21.000Z</time>
      </trkpt>
      <trkpt lat="46.49083" lon="5.34871">
        <ele>228.19999694824</ele>
        <time>2021-04-05T11:05:22.000Z</time>
      </trkpt>
      <trkpt lat="46.49087" lon="5.34846">
        <ele>228</ele>
        <time>2021-04-05T11:05:24.000Z</time>
      </trkpt>
      <trkpt lat="46.49092" lon="5.34821">
        <ele>228</ele>
        <time>2021-04-05T11:05:26.000Z</time>
      </trkpt>
      <trkpt lat="46.49094" lon="5.34809">
        <ele>227.60000610352</ele>
        <time>2021-04-05T11:05:27.000Z</time>
      </trkpt>
      <trkpt lat="46.491" lon="5.34772">
        <ele>227.19999694824</ele>
        <time>2021-04-05T11:05:30.000Z</time>
      </trkpt>
      <trkpt lat="46.49105" lon="5.34748">
        <ele>226.60000610352</ele>
        <time>2021-04-05T11:05:32.000Z</time>
      </trkpt>
      <trkpt lat="46.49108" lon="5.34736">
        <ele>226.39999389648</ele>
        <time>2021-04-05T11:05:33.000Z</time>
      </trkpt>
      <trkpt lat="46.49111" lon="5.34724">
        <ele>225.80000305176</ele>
        <time>2021-04-05T11:05:34.000Z</time>
      </trkpt>
      <trkpt lat="46.49117" lon="5.34699">
        <ele>225.60000610352</ele>
        <time>2021-04-05T11:05:36.000Z</time>
      </trkpt>
      <trkpt lat="46.49121" lon="5.34674">
        <ele>225</ele>
        <time>2021-04-05T11:05:38.000Z</time>
      </trkpt>
      <trkpt lat="46.49123" lon="5.34662">
        <ele>224.60000610352</ele>
        <time>2021-04-05T11:05:39.000Z</time>
      </trkpt>
      <trkpt lat="46.49126" lon="5.3465">
        <ele>224.39999389648</ele>
        <time>2021-04-05T11:05:40.000Z</time>
      </trkpt>
      <trkpt lat="46.4913" lon="5.34626">
        <ele>224.19999694824</ele>
        <time>2021-04-05T11:05:42.000Z</time>
      </trkpt>
      <trkpt lat="46.49133" lon="5.34605">
        <ele>224.19999694824</ele>
        <time>2021-04-05T11:05:44.000Z</time>
      </trkpt>
      <trkpt lat="46.49135" lon="5.34595">
        <ele>224.19999694824</ele>
        <time>2021-04-05T11:05:45.000Z</time>
      </trkpt>
      <trkpt lat="46.49139" lon="5.34575">
        <ele>224.19999694824</ele>
        <time>2021-04-05T11:05:47.000Z</time>
      </trkpt>
      <trkpt lat="46.49143" lon="5.34553">
        <ele>224.19999694824</ele>
        <time>2021-04-05T11:05:49.000Z</time>
      </trkpt>
      <trkpt lat="46.49148" lon="5.34529">
        <ele>224.60000610352</ele>
        <time>2021-04-05T11:05:51.000Z</time>
      </trkpt>
      <trkpt lat="46.4915" lon="5.34517">
        <ele>224.60000610352</ele>
        <time>2021-04-05T11:05:52.000Z</time>
      </trkpt>
      <trkpt lat="46.49154" lon="5.34494">
        <ele>224.80000305176</ele>
        <time>2021-04-05T11:05:54.000Z</time>
      </trkpt>
      <trkpt lat="46.49159" lon="5.3447">
        <ele>224.80000305176</ele>
        <time>2021-04-05T11:05:56.000Z</time>
      </trkpt>
      <trkpt lat="46.49163" lon="5.34447">
        <ele>224.80000305176</ele>
        <time>2021-04-05T11:05:58.000Z</time>
      </trkpt>
      <trkpt lat="46.49165" lon="5.34436">
        <ele>224.80000305176</ele>
        <time>2021-04-05T11:05:59.000Z</time>
      </trkpt>
      <trkpt lat="46.49169" lon="5.34414">
        <ele>224.60000610352</ele>
        <time>2021-04-05T11:06:01.000Z</time>
      </trkpt>
      <trkpt lat="46.49171" lon="5.34404">
        <ele>224.39999389648</ele>
        <time>2021-04-05T11:06:02.000Z</time>
      </trkpt>
      <trkpt lat="46.49175" lon="5.34384">
        <ele>224.19999694824</ele>
        <time>2021-04-05T11:06:04.000Z</time>
      </trkpt>
      <trkpt lat="46.49178" lon="5.34365">
        <ele>224.19999694824</ele>
        <time>2021-04-05T11:06:06.000Z</time>
      </trkpt>
      <trkpt lat="46.49181" lon="5.34349">
        <ele>224</ele>
        <time>2021-04-05T11:06:08.000Z</time>
      </trkpt>
      <trkpt lat="46.49184" lon="5.34332">
        <ele>224</ele>
        <time>2021-04-05T11:06:10.000Z</time>
      </trkpt>
      <trkpt lat="46.49186" lon="5.34324">
        <ele>224.19999694824</ele>
        <time>2021-04-05T11:06:11.000Z</time>
      </trkpt>
      <trkpt lat="46.49187" lon="5.34315">
        <ele>224.60000610352</ele>
        <time>2021-04-05T11:06:12.000Z</time>
      </trkpt>
      <trkpt lat="46.49191" lon="5.34296">
        <ele>225.19999694824</ele>
        <time>2021-04-05T11:06:14.000Z</time>
      </trkpt>
      <trkpt lat="46.49196" lon="5.34276">
        <ele>225.39999389648</ele>
        <time>2021-04-05T11:06:16.000Z</time>
      </trkpt>
      <trkpt lat="46.49198" lon="5.34266">
        <ele>225.39999389648</ele>
        <time>2021-04-05T11:06:17.000Z</time>
      </trkpt>
      <trkpt lat="46.492" lon="5.34256">
        <ele>225.39999389648</ele>
        <time>2021-04-05T11:06:18.000Z</time>
      </trkpt>
      <trkpt lat="46.49202" lon="5.34246">
        <ele>225.60000610352</ele>
        <time>2021-04-05T11:06:19.000Z</time>
      </trkpt>
      <trkpt lat="46.49204" lon="5.34235">
        <ele>225.60000610352</ele>
        <time>2021-04-05T11:06:20.000Z</time>
      </trkpt>
      <trkpt lat="46.49208" lon="5.34215">
        <ele>225.60000610352</ele>
        <time>2021-04-05T11:06:22.000Z</time>
      </trkpt>
      <trkpt lat="46.49212" lon="5.34194">
        <ele>225.19999694824</ele>
        <time>2021-04-05T11:06:24.000Z</time>
      </trkpt>
      <trkpt lat="46.49214" lon="5.34183">
        <ele>225</ele>
        <time>2021-04-05T11:06:25.000Z</time>
      </trkpt>
      <trkpt lat="46.49216" lon="5.34173">
        <ele>225</ele>
        <time>2021-04-05T11:06:26.000Z</time>
      </trkpt>
      <trkpt lat="46.4922" lon="5.34153">
        <ele>224.80000305176</ele>
        <time>2021-04-05T11:06:28.000Z</time>
      </trkpt>
      <trkpt lat="46.49223" lon="5.34133">
        <ele>224.80000305176</ele>
        <time>2021-04-05T11:06:30.000Z</time>
      </trkpt>
      <trkpt lat="46.49226" lon="5.34115">
        <ele>224.80000305176</ele>
        <time>2021-04-05T11:06:32.000Z</time>
      </trkpt>
      <trkpt lat="46.49228" lon="5.34099">
        <ele>224.80000305176</ele>
        <time>2021-04-05T11:06:34.000Z</time>
      </trkpt>
      <trkpt lat="46.49231" lon="5.34084">
        <ele>225</ele>
        <time>2021-04-05T11:06:36.000Z</time>
      </trkpt>
      <trkpt lat="46.49233" lon="5.34071">
        <ele>225</ele>
        <time>2021-04-05T11:06:38.000Z</time>
      </trkpt>
      <trkpt lat="46.49234" lon="5.34064">
        <ele>225.19999694824</ele>
        <time>2021-04-05T11:06:39.000Z</time>
      </trkpt>
      <trkpt lat="46.49235" lon="5.34057">
        <ele>225.19999694824</ele>
        <time>2021-04-05T11:06:40.000Z</time>
      </trkpt>
      <trkpt lat="46.49238" lon="5.34043">
        <ele>225.80000305176</ele>
        <time>2021-04-05T11:06:42.000Z</time>
      </trkpt>
      <trkpt lat="46.49241" lon="5.34027">
        <ele>226</ele>
        <time>2021-04-05T11:06:44.000Z</time>
      </trkpt>
      <trkpt lat="46.49245" lon="5.34009">
        <ele>227</ele>
        <time>2021-04-05T11:06:46.000Z</time>
      </trkpt>
      <trkpt lat="46.49249" lon="5.33992">
        <ele>227.60000610352</ele>
        <time>2021-04-05T11:06:48.000Z</time>
      </trkpt>
      <trkpt lat="46.49253" lon="5.33974">
        <ele>227.80000305176</ele>
        <time>2021-04-05T11:06:50.000Z</time>
      </trkpt>
      <trkpt lat="46.49257" lon="5.33956">
        <ele>228</ele>
        <time>2021-04-05T11:06:52.000Z</time>
      </trkpt>
      <trkpt lat="46.4926" lon="5.33937">
        <ele>228</ele>
        <time>2021-04-05T11:06:54.000Z</time>
      </trkpt>
      <trkpt lat="46.49264" lon="5.33919">
        <ele>228</ele>
        <time>2021-04-05T11:06:56.000Z</time>
      </trkpt>
      <trkpt lat="46.49268" lon="5.33901">
        <ele>228</ele>
        <time>2021-04-05T11:06:58.000Z</time>
      </trkpt>
      <trkpt lat="46.49271" lon="5.33884">
        <ele>227.80000305176</ele>
        <time>2021-04-05T11:07:00.000Z</time>
      </trkpt>
      <trkpt lat="46.49274" lon="5.33867">
        <ele>227.39999389648</ele>
        <time>2021-04-05T11:07:02.000Z</time>
      </trkpt>
      <trkpt lat="46.49278" lon="5.33849">
        <ele>227.39999389648</ele>
        <time>2021-04-05T11:07:04.000Z</time>
      </trkpt>
      <trkpt lat="46.49281" lon="5.33832">
        <ele>227.39999389648</ele>
        <time>2021-04-05T11:07:06.000Z</time>
      </trkpt>
      <trkpt lat="46.49285" lon="5.33814">
        <ele>227.39999389648</ele>
        <time>2021-04-05T11:07:08.000Z</time>
      </trkpt>
      <trkpt lat="46.49289" lon="5.33795">
        <ele>227.39999389648</ele>
        <time>2021-04-05T11:07:10.000Z</time>
      </trkpt>
      <trkpt lat="46.49293" lon="5.33776">
        <ele>227.60000610352</ele>
        <time>2021-04-05T11:07:12.000Z</time>
      </trkpt>
      <trkpt lat="46.49297" lon="5.33757">
        <ele>227.60000610352</ele>
        <time>2021-04-05T11:07:14.000Z</time>
      </trkpt>
      <trkpt lat="46.49299" lon="5.33747">
        <ele>227.60000610352</ele>
        <time>2021-04-05T11:07:15.000Z</time>
      </trkpt>
      <trkpt lat="46.49301" lon="5.33717">
        <ele>227.60000610352</ele>
        <time>2021-04-05T11:07:18.000Z</time>
      </trkpt>
      <trkpt lat="46.49303" lon="5.33696">
        <ele>227.60000610352</ele>
        <time>2021-04-05T11:07:20.000Z</time>
      </trkpt>
      <trkpt lat="46.49304" lon="5.33675">
        <ele>227.19999694824</ele>
        <time>2021-04-05T11:07:22.000Z</time>
      </trkpt>
      <trkpt lat="46.49305" lon="5.33654">
        <ele>226.60000610352</ele>
        <time>2021-04-05T11:07:24.000Z</time>
      </trkpt>
      <trkpt lat="46.49306" lon="5.33632">
        <ele>226.60000610352</ele>
        <time>2021-04-05T11:07:26.000Z</time>
      </trkpt>
      <trkpt lat="46.49308" lon="5.33611">
        <ele>226.39999389648</ele>
        <time>2021-04-05T11:07:28.000Z</time>
      </trkpt>
      <trkpt lat="46.49312" lon="5.33591">
        <ele>226.19999694824</ele>
        <time>2021-04-05T11:07:30.000Z</time>
      </trkpt>
      <trkpt lat="46.49315" lon="5.33581">
        <ele>226</ele>
        <time>2021-04-05T11:07:31.000Z</time>
      </trkpt>
      <trkpt lat="46.49317" lon="5.33571">
        <ele>226</ele>
        <time>2021-04-05T11:07:32.000Z</time>
      </trkpt>
      <trkpt lat="46.49319" lon="5.3355">
        <ele>225.80000305176</ele>
        <time>2021-04-05T11:07:34.000Z</time>
      </trkpt>
      <trkpt lat="46.49319" lon="5.33529">
        <ele>225.80000305176</ele>
        <time>2021-04-05T11:07:36.000Z</time>
      </trkpt>
      <trkpt lat="46.49318" lon="5.33519">
        <ele>225.80000305176</ele>
        <time>2021-04-05T11:07:37.000Z</time>
      </trkpt>
      <trkpt lat="46.49314" lon="5.33488">
        <ele>225.80000305176</ele>
        <time>2021-04-05T11:07:40.000Z</time>
      </trkpt>
      <trkpt lat="46.49311" lon="5.33468">
        <ele>225.80000305176</ele>
        <time>2021-04-05T11:07:42.000Z</time>
      </trkpt>
      <trkpt lat="46.4931" lon="5.33458">
        <ele>225.80000305176</ele>
        <time>2021-04-05T11:07:43.000Z</time>
      </trkpt>
      <trkpt lat="46.49307" lon="5.33437">
        <ele>225.80000305176</ele>
        <time>2021-04-05T11:07:45.000Z</time>
      </trkpt>
      <trkpt lat="46.49303" lon="5.33417">
        <ele>225.80000305176</ele>
        <time>2021-04-05T11:07:47.000Z</time>
      </trkpt>
      <trkpt lat="46.49299" lon="5.33397">
        <ele>225.80000305176</ele>
        <time>2021-04-05T11:07:49.000Z</time>
      </trkpt>
      <trkpt lat="46.49295" lon="5.33376">
        <ele>225.80000305176</ele>
        <time>2021-04-05T11:07:51.000Z</time>
      </trkpt>
      <trkpt lat="46.4929" lon="5.33354">
        <ele>225.80000305176</ele>
        <time>2021-04-05T11:07:53.000Z</time>
      </trkpt>
      <trkpt lat="46.49286" lon="5.33333">
        <ele>225.80000305176</ele>
        <time>2021-04-05T11:07:55.000Z</time>
      </trkpt>
      <trkpt lat="46.49281" lon="5.33312">
        <ele>225.80000305176</ele>
        <time>2021-04-05T11:07:57.000Z</time>
      </trkpt>
      <trkpt lat="46.49278" lon="5.3329">
        <ele>225.39999389648</ele>
        <time>2021-04-05T11:07:59.000Z</time>
      </trkpt>
      <trkpt lat="46.49274" lon="5.33269">
        <ele>224.80000305176</ele>
        <time>2021-04-05T11:08:01.000Z</time>
      </trkpt>
      <trkpt lat="46.4927" lon="5.33247">
        <ele>224.60000610352</ele>
        <time>2021-04-05T11:08:03.000Z</time>
      </trkpt>
      <trkpt lat="46.49263" lon="5.33226">
        <ele>224.19999694824</ele>
        <time>2021-04-05T11:08:05.000Z</time>
      </trkpt>
      <trkpt lat="46.49259" lon="5.33216">
        <ele>224</ele>
        <time>2021-04-05T11:08:06.000Z</time>
      </trkpt>
      <trkpt lat="46.49255" lon="5.33206">
        <ele>224</ele>
        <time>2021-04-05T11:08:07.000Z</time>
      </trkpt>
      <trkpt lat="46.49243" lon="5.33189">
        <ele>223.80000305176</ele>
        <time>2021-04-05T11:08:09.000Z</time>
      </trkpt>
      <trkpt lat="46.49229" lon="5.33177">
        <ele>223.60000610352</ele>
        <time>2021-04-05T11:08:11.000Z</time>
      </trkpt>
      <trkpt lat="46.49222" lon="5.33172">
        <ele>223.39999389648</ele>
        <time>2021-04-05T11:08:12.000Z</time>
      </trkpt>
      <trkpt lat="46.49214" lon="5.33167">
        <ele>223</ele>
        <time>2021-04-05T11:08:13.000Z</time>
      </trkpt>
      <trkpt lat="46.492" lon="5.33155">
        <ele>222.60000610352</ele>
        <time>2021-04-05T11:08:15.000Z</time>
      </trkpt>
      <trkpt lat="46.49185" lon="5.33143">
        <ele>222.19999694824</ele>
        <time>2021-04-05T11:08:17.000Z</time>
      </trkpt>
      <trkpt lat="46.49172" lon="5.3313">
        <ele>222</ele>
        <time>2021-04-05T11:08:19.000Z</time>
      </trkpt>
      <trkpt lat="46.49166" lon="5.33122">
        <ele>222</ele>
        <time>2021-04-05T11:08:20.000Z</time>
      </trkpt>
      <trkpt lat="46.4916" lon="5.33113">
        <ele>221.60000610352</ele>
        <time>2021-04-05T11:08:21.000Z</time>
      </trkpt>
      <trkpt lat="46.49152" lon="5.33093">
        <ele>221.19999694824</ele>
        <time>2021-04-05T11:08:23.000Z</time>
      </trkpt>
      <trkpt lat="46.49149" lon="5.33083">
        <ele>221</ele>
        <time>2021-04-05T11:08:24.000Z</time>
      </trkpt>
      <trkpt lat="46.49146" lon="5.33073">
        <ele>221</ele>
        <time>2021-04-05T11:08:25.000Z</time>
      </trkpt>
      <trkpt lat="46.49141" lon="5.33053">
        <ele>221</ele>
        <time>2021-04-05T11:08:27.000Z</time>
      </trkpt>
      <trkpt lat="46.49137" lon="5.33033">
        <ele>220.80000305176</ele>
        <time>2021-04-05T11:08:29.000Z</time>
      </trkpt>
      <trkpt lat="46.49135" lon="5.33023">
        <ele>220.80000305176</ele>
        <time>2021-04-05T11:08:30.000Z</time>
      </trkpt>
      <trkpt lat="46.49134" lon="5.33012">
        <ele>220.80000305176</ele>
        <time>2021-04-05T11:08:31.000Z</time>
      </trkpt>
      <trkpt lat="46.49131" lon="5.32991">
        <ele>220.80000305176</ele>
        <time>2021-04-05T11:08:33.000Z</time>
      </trkpt>
      <trkpt lat="46.49128" lon="5.32968">
        <ele>220.80000305176</ele>
        <time>2021-04-05T11:08:35.000Z</time>
      </trkpt>
      <trkpt lat="46.49128" lon="5.32957">
        <ele>220.80000305176</ele>
        <time>2021-04-05T11:08:36.000Z</time>
      </trkpt>
      <trkpt lat="46.49127" lon="5.32945">
        <ele>220.60000610352</ele>
        <time>2021-04-05T11:08:37.000Z</time>
      </trkpt>
      <trkpt lat="46.49126" lon="5.32923">
        <ele>220.39999389648</ele>
        <time>2021-04-05T11:08:39.000Z</time>
      </trkpt>
      <trkpt lat="46.49128" lon="5.3289">
        <ele>220.19999694824</ele>
        <time>2021-04-05T11:08:42.000Z</time>
      </trkpt>
      <trkpt lat="46.49133" lon="5.3287">
        <ele>219.80000305176</ele>
        <time>2021-04-05T11:08:44.000Z</time>
      </trkpt>
      <trkpt lat="46.49136" lon="5.3286">
        <ele>219.60000610352</ele>
        <time>2021-04-05T11:08:45.000Z</time>
      </trkpt>
      <trkpt lat="46.49139" lon="5.3285">
        <ele>219.19999694824</ele>
        <time>2021-04-05T11:08:46.000Z</time>
      </trkpt>
      <trkpt lat="46.49143" lon="5.32828">
        <ele>219</ele>
        <time>2021-04-05T11:08:48.000Z</time>
      </trkpt>
      <trkpt lat="46.49144" lon="5.32808">
        <ele>219</ele>
        <time>2021-04-05T11:08:50.000Z</time>
      </trkpt>
      <trkpt lat="46.49143" lon="5.32788">
        <ele>219</ele>
        <time>2021-04-05T11:08:52.000Z</time>
      </trkpt>
      <trkpt lat="46.49141" lon="5.32779">
        <ele>219</ele>
        <time>2021-04-05T11:08:53.000Z</time>
      </trkpt>
      <trkpt lat="46.4914" lon="5.32769">
        <ele>219</ele>
        <time>2021-04-05T11:08:54.000Z</time>
      </trkpt>
      <trkpt lat="46.49138" lon="5.3276">
        <ele>219</ele>
        <time>2021-04-05T11:08:55.000Z</time>
      </trkpt>
      <trkpt lat="46.49137" lon="5.32751">
        <ele>219.19999694824</ele>
        <time>2021-04-05T11:08:56.000Z</time>
      </trkpt>
      <trkpt lat="46.49133" lon="5.32734">
        <ele>219.60000610352</ele>
        <time>2021-04-05T11:08:58.000Z</time>
      </trkpt>
      <trkpt lat="46.4913" lon="5.32725">
        <ele>219.80000305176</ele>
        <time>2021-04-05T11:08:59.000Z</time>
      </trkpt>
      <trkpt lat="46.49126" lon="5.32716">
        <ele>220</ele>
        <time>2021-04-05T11:09:00.000Z</time>
      </trkpt>
      <trkpt lat="46.49122" lon="5.32708">
        <ele>220</ele>
        <time>2021-04-05T11:09:01.000Z</time>
      </trkpt>
      <trkpt lat="46.49117" lon="5.32701">
        <ele>220</ele>
        <time>2021-04-05T11:09:02.000Z</time>
      </trkpt>
      <trkpt lat="46.4911" lon="5.32696">
        <ele>220.19999694824</ele>
        <time>2021-04-05T11:09:03.000Z</time>
      </trkpt>
      <trkpt lat="46.49103" lon="5.32694">
        <ele>220.19999694824</ele>
        <time>2021-04-05T11:09:04.000Z</time>
      </trkpt>
      <trkpt lat="46.49088" lon="5.32696">
        <ele>220.19999694824</ele>
        <time>2021-04-05T11:09:06.000Z</time>
      </trkpt>
      <trkpt lat="46.49071" lon="5.327">
        <ele>220.19999694824</ele>
        <time>2021-04-05T11:09:08.000Z</time>
      </trkpt>
      <trkpt lat="46.49054" lon="5.32703">
        <ele>219.80000305176</ele>
        <time>2021-04-05T11:09:10.000Z</time>
      </trkpt>
      <trkpt lat="46.49036" lon="5.32706">
        <ele>219.60000610352</ele>
        <time>2021-04-05T11:09:12.000Z</time>
      </trkpt>
      <trkpt lat="46.49027" lon="5.32707">
        <ele>219.39999389648</ele>
        <time>2021-04-05T11:09:13.000Z</time>
      </trkpt>
      <trkpt lat="46.49008" lon="5.3271">
        <ele>218.60000610352</ele>
        <time>2021-04-05T11:09:15.000Z</time>
      </trkpt>
      <trkpt lat="46.48998" lon="5.3271">
        <ele>218.19999694824</ele>
        <time>2021-04-05T11:09:16.000Z</time>
      </trkpt>
      <trkpt lat="46.48978" lon="5.32709">
        <ele>216.60000610352</ele>
        <time>2021-04-05T11:09:18.000Z</time>
      </trkpt>
      <trkpt lat="46.48968" lon="5.32707">
        <ele>215.80000305176</ele>
        <time>2021-04-05T11:09:19.000Z</time>
      </trkpt>
      <trkpt lat="46.48959" lon="5.32701">
        <ele>215.19999694824</ele>
        <time>2021-04-05T11:09:20.000Z</time>
      </trkpt>
      <trkpt lat="46.48942" lon="5.32684">
        <ele>214.39999389648</ele>
        <time>2021-04-05T11:09:22.000Z</time>
      </trkpt>
      <trkpt lat="46.48934" lon="5.32673">
        <ele>214</ele>
        <time>2021-04-05T11:09:23.000Z</time>
      </trkpt>
      <trkpt lat="46.48926" lon="5.32662">
        <ele>213.60000610352</ele>
        <time>2021-04-05T11:09:24.000Z</time>
      </trkpt>
      <trkpt lat="46.4892" lon="5.32631">
        <ele>212</ele>
        <time>2021-04-05T11:09:26.000Z</time>
      </trkpt>
      <trkpt lat="46.48925" lon="5.326">
        <ele>210.60000610352</ele>
        <time>2021-04-05T11:09:28.000Z</time>
      </trkpt>
      <trkpt lat="46.48939" lon="5.32576">
        <ele>208.80000305176</ele>
        <time>2021-04-05T11:09:30.000Z</time>
      </trkpt>
      <trkpt lat="46.48946" lon="5.32565">
        <ele>207.80000305176</ele>
        <time>2021-04-05T11:09:31.000Z</time>
      </trkpt>
      <trkpt lat="46.48952" lon="5.32552">
        <ele>206.80000305176</ele>
        <time>2021-04-05T11:09:32.000Z</time>
      </trkpt>
      <trkpt lat="46.48955" lon="5.32539">
        <ele>206</ele>
        <time>2021-04-05T11:09:33.000Z</time>
      </trkpt>
      <trkpt lat="46.48955" lon="5.32525">
        <ele>204.80000305176</ele>
        <time>2021-04-05T11:09:34.000Z</time>
      </trkpt>
      <trkpt lat="46.48953" lon="5.32511">
        <ele>203.80000305176</ele>
        <time>2021-04-05T11:09:35.000Z</time>
      </trkpt>
      <trkpt lat="46.4895" lon="5.32497">
        <ele>203</ele>
        <time>2021-04-05T11:09:36.000Z</time>
      </trkpt>
      <trkpt lat="46.48946" lon="5.32485">
        <ele>202.60000610352</ele>
        <time>2021-04-05T11:09:37.000Z</time>
      </trkpt>
      <trkpt lat="46.48942" lon="5.32473">
        <ele>202.19999694824</ele>
        <time>2021-04-05T11:09:38.000Z</time>
      </trkpt>
      <trkpt lat="46.48935" lon="5.32448">
        <ele>202</ele>
        <time>2021-04-05T11:09:40.000Z</time>
      </trkpt>
      <trkpt lat="46.48928" lon="5.32424">
        <ele>201.80000305176</ele>
        <time>2021-04-05T11:09:42.000Z</time>
      </trkpt>
      <trkpt lat="46.48921" lon="5.32402">
        <ele>201.80000305176</ele>
        <time>2021-04-05T11:09:44.000Z</time>
      </trkpt>
      <trkpt lat="46.48918" lon="5.32392">
        <ele>201.80000305176</ele>
        <time>2021-04-05T11:09:45.000Z</time>
      </trkpt>
      <trkpt lat="46.48915" lon="5.32382">
        <ele>201.80000305176</ele>
        <time>2021-04-05T11:09:46.000Z</time>
      </trkpt>
      <trkpt lat="46.48908" lon="5.32361">
        <ele>201.80000305176</ele>
        <time>2021-04-05T11:09:48.000Z</time>
      </trkpt>
      <trkpt lat="46.48902" lon="5.32342">
        <ele>202</ele>
        <time>2021-04-05T11:09:50.000Z</time>
      </trkpt>
      <trkpt lat="46.48898" lon="5.32334">
        <ele>202</ele>
        <time>2021-04-05T11:09:51.000Z</time>
      </trkpt>
      <trkpt lat="46.48894" lon="5.32326">
        <ele>202</ele>
        <time>2021-04-05T11:09:52.000Z</time>
      </trkpt>
      <trkpt lat="46.48886" lon="5.32313">
        <ele>202</ele>
        <time>2021-04-05T11:09:54.000Z</time>
      </trkpt>
      <trkpt lat="46.48879" lon="5.32301">
        <ele>202.19999694824</ele>
        <time>2021-04-05T11:09:56.000Z</time>
      </trkpt>
      <trkpt lat="46.48876" lon="5.32296">
        <ele>202.19999694824</ele>
        <time>2021-04-05T11:09:57.000Z</time>
      </trkpt>
      <trkpt lat="46.48872" lon="5.32292">
        <ele>202.39999389648</ele>
        <time>2021-04-05T11:09:58.000Z</time>
      </trkpt>
      <trkpt lat="46.48866" lon="5.32283">
        <ele>203</ele>
        <time>2021-04-05T11:10:00.000Z</time>
      </trkpt>
      <trkpt lat="46.48863" lon="5.32279">
        <ele>203.60000610352</ele>
        <time>2021-04-05T11:10:01.000Z</time>
      </trkpt>
      <trkpt lat="46.4886" lon="5.32274">
        <ele>204.39999389648</ele>
        <time>2021-04-05T11:10:02.000Z</time>
      </trkpt>
      <trkpt lat="46.48857" lon="5.3227">
        <ele>205.19999694824</ele>
        <time>2021-04-05T11:10:03.000Z</time>
      </trkpt>
      <trkpt lat="46.48854" lon="5.32266">
        <ele>205.80000305176</ele>
        <time>2021-04-05T11:10:04.000Z</time>
      </trkpt>
      <trkpt lat="46.48851" lon="5.32262">
        <ele>206.19999694824</ele>
        <time>2021-04-05T11:10:05.000Z</time>
      </trkpt>
      <trkpt lat="46.48849" lon="5.32258">
        <ele>206.80000305176</ele>
        <time>2021-04-05T11:10:06.000Z</time>
      </trkpt>
      <trkpt lat="46.48846" lon="5.32253">
        <ele>207.39999389648</ele>
        <time>2021-04-05T11:10:07.000Z</time>
      </trkpt>
      <trkpt lat="46.48843" lon="5.32249">
        <ele>207.80000305176</ele>
        <time>2021-04-05T11:10:08.000Z</time>
      </trkpt>
      <trkpt lat="46.48839" lon="5.32239">
        <ele>208.39999389648</ele>
        <time>2021-04-05T11:10:10.000Z</time>
      </trkpt>
      <trkpt lat="46.48837" lon="5.32233">
        <ele>209</ele>
        <time>2021-04-05T11:10:11.000Z</time>
      </trkpt>
      <trkpt lat="46.48835" lon="5.32227">
        <ele>209.39999389648</ele>
        <time>2021-04-05T11:10:12.000Z</time>
      </trkpt>
      <trkpt lat="46.48833" lon="5.3222">
        <ele>209.80000305176</ele>
        <time>2021-04-05T11:10:13.000Z</time>
      </trkpt>
      <trkpt lat="46.48831" lon="5.32213">
        <ele>210.19999694824</ele>
        <time>2021-04-05T11:10:14.000Z</time>
      </trkpt>
      <trkpt lat="46.48829" lon="5.32197">
        <ele>210.39999389648</ele>
        <time>2021-04-05T11:10:16.000Z</time>
      </trkpt>
      <trkpt lat="46.48827" lon="5.32179">
        <ele>210.60000610352</ele>
        <time>2021-04-05T11:10:18.000Z</time>
      </trkpt>
      <trkpt lat="46.48825" lon="5.32161">
        <ele>210.60000610352</ele>
        <time>2021-04-05T11:10:20.000Z</time>
      </trkpt>
      <trkpt lat="46.48825" lon="5.32141">
        <ele>210.60000610352</ele>
        <time>2021-04-05T11:10:22.000Z</time>
      </trkpt>
      <trkpt lat="46.48827" lon="5.32121">
        <ele>210.60000610352</ele>
        <time>2021-04-05T11:10:24.000Z</time>
      </trkpt>
      <trkpt lat="46.4883" lon="5.32101">
        <ele>209.60000610352</ele>
        <time>2021-04-05T11:10:26.000Z</time>
      </trkpt>
      <trkpt lat="46.48832" lon="5.32091">
        <ele>209.39999389648</ele>
        <time>2021-04-05T11:10:27.000Z</time>
      </trkpt>
      <trkpt lat="46.48834" lon="5.32081">
        <ele>209.19999694824</ele>
        <time>2021-04-05T11:10:28.000Z</time>
      </trkpt>
      <trkpt lat="46.48838" lon="5.32061">
        <ele>208.80000305176</ele>
        <time>2021-04-05T11:10:30.000Z</time>
      </trkpt>
      <trkpt lat="46.4884" lon="5.32051">
        <ele>208.60000610352</ele>
        <time>2021-04-05T11:10:31.000Z</time>
      </trkpt>
      <trkpt lat="46.48841" lon="5.32041">
        <ele>208.39999389648</ele>
        <time>2021-04-05T11:10:32.000Z</time>
      </trkpt>
      <trkpt lat="46.48845" lon="5.3202">
        <ele>207.80000305176</ele>
        <time>2021-04-05T11:10:34.000Z</time>
      </trkpt>
      <trkpt lat="46.48848" lon="5.32">
        <ele>207.39999389648</ele>
        <time>2021-04-05T11:10:36.000Z</time>
      </trkpt>
      <trkpt lat="46.48848" lon="5.3199">
        <ele>207.19999694824</ele>
        <time>2021-04-05T11:10:37.000Z</time>
      </trkpt>
      <trkpt lat="46.48849" lon="5.31979">
        <ele>207</ele>
        <time>2021-04-05T11:10:38.000Z</time>
      </trkpt>
      <trkpt lat="46.48848" lon="5.31958">
        <ele>206.60000610352</ele>
        <time>2021-04-05T11:10:40.000Z</time>
      </trkpt>
      <trkpt lat="46.48847" lon="5.31936">
        <ele>206.39999389648</ele>
        <time>2021-04-05T11:10:42.000Z</time>
      </trkpt>
      <trkpt lat="46.48846" lon="5.31925">
        <ele>206.39999389648</ele>
        <time>2021-04-05T11:10:43.000Z</time>
      </trkpt>
      <trkpt lat="46.48845" lon="5.31914">
        <ele>206.19999694824</ele>
        <time>2021-04-05T11:10:44.000Z</time>
      </trkpt>
      <trkpt lat="46.48842" lon="5.31892">
        <ele>205.80000305176</ele>
        <time>2021-04-05T11:10:46.000Z</time>
      </trkpt>
      <trkpt lat="46.4884" lon="5.31882">
        <ele>205.60000610352</ele>
        <time>2021-04-05T11:10:47.000Z</time>
      </trkpt>
      <trkpt lat="46.48837" lon="5.31872">
        <ele>205.39999389648</ele>
        <time>2021-04-05T11:10:48.000Z</time>
      </trkpt>
      <trkpt lat="46.48832" lon="5.31864">
        <ele>205.39999389648</ele>
        <time>2021-04-05T11:10:49.000Z</time>
      </trkpt>
      <trkpt lat="46.48827" lon="5.31857">
        <ele>205.39999389648</ele>
        <time>2021-04-05T11:10:50.000Z</time>
      </trkpt>
      <trkpt lat="46.48813" lon="5.31849">
        <ele>205</ele>
        <time>2021-04-05T11:10:52.000Z</time>
      </trkpt>
      <trkpt lat="46.48806" lon="5.31846">
        <ele>205</ele>
        <time>2021-04-05T11:10:53.000Z</time>
      </trkpt>
      <trkpt lat="46.48799" lon="5.31842">
        <ele>204.80000305176</ele>
        <time>2021-04-05T11:10:54.000Z</time>
      </trkpt>
      <trkpt lat="46.48787" lon="5.3183">
        <ele>204.60000610352</ele>
        <time>2021-04-05T11:10:56.000Z</time>
      </trkpt>
      <trkpt lat="46.48782" lon="5.31811">
        <ele>204.60000610352</ele>
        <time>2021-04-05T11:10:58.000Z</time>
      </trkpt>
      <trkpt lat="46.48781" lon="5.31801">
        <ele>204.60000610352</ele>
        <time>2021-04-05T11:10:59.000Z</time>
      </trkpt>
      <trkpt lat="46.48781" lon="5.31791">
        <ele>204.60000610352</ele>
        <time>2021-04-05T11:11:00.000Z</time>
      </trkpt>
      <trkpt lat="46.48779" lon="5.31772">
        <ele>204.60000610352</ele>
        <time>2021-04-05T11:11:02.000Z</time>
      </trkpt>
      <trkpt lat="46.48779" lon="5.31752">
        <ele>204.60000610352</ele>
        <time>2021-04-05T11:11:04.000Z</time>
      </trkpt>
      <trkpt lat="46.48777" lon="5.31733">
        <ele>204.80000305176</ele>
        <time>2021-04-05T11:11:06.000Z</time>
      </trkpt>
      <trkpt lat="46.48772" lon="5.31715">
        <ele>205</ele>
        <time>2021-04-05T11:11:08.000Z</time>
      </trkpt>
      <trkpt lat="46.48767" lon="5.31708">
        <ele>205.19999694824</ele>
        <time>2021-04-05T11:11:09.000Z</time>
      </trkpt>
      <trkpt lat="46.48763" lon="5.31701">
        <ele>205.39999389648</ele>
        <time>2021-04-05T11:11:10.000Z</time>
      </trkpt>
      <trkpt lat="46.48755" lon="5.3169">
        <ele>205.39999389648</ele>
        <time>2021-04-05T11:11:12.000Z</time>
      </trkpt>
      <trkpt lat="46.48746" lon="5.31679">
        <ele>205.60000610352</ele>
        <time>2021-04-05T11:11:14.000Z</time>
      </trkpt>
      <trkpt lat="46.48742" lon="5.31673">
        <ele>205.80000305176</ele>
        <time>2021-04-05T11:11:15.000Z</time>
      </trkpt>
      <trkpt lat="46.48738" lon="5.31668">
        <ele>205.80000305176</ele>
        <time>2021-04-05T11:11:16.000Z</time>
      </trkpt>
      <trkpt lat="46.48731" lon="5.31657">
        <ele>206</ele>
        <time>2021-04-05T11:11:18.000Z</time>
      </trkpt>
      <trkpt lat="46.48723" lon="5.31646">
        <ele>206.19999694824</ele>
        <time>2021-04-05T11:11:20.000Z</time>
      </trkpt>
      <trkpt lat="46.48719" lon="5.31641">
        <ele>206.19999694824</ele>
        <time>2021-04-05T11:11:21.000Z</time>
      </trkpt>
      <trkpt lat="46.48715" lon="5.31637">
        <ele>206.39999389648</ele>
        <time>2021-04-05T11:11:22.000Z</time>
      </trkpt>
      <trkpt lat="46.48707" lon="5.31627">
        <ele>206.60000610352</ele>
        <time>2021-04-05T11:11:24.000Z</time>
      </trkpt>
      <trkpt lat="46.48699" lon="5.31614">
        <ele>206.60000610352</ele>
        <time>2021-04-05T11:11:26.000Z</time>
      </trkpt>
      <trkpt lat="46.48689" lon="5.31602">
        <ele>206.60000610352</ele>
        <time>2021-04-05T11:11:28.000Z</time>
      </trkpt>
      <trkpt lat="46.48681" lon="5.3159">
        <ele>206.60000610352</ele>
        <time>2021-04-05T11:11:30.000Z</time>
      </trkpt>
      <trkpt lat="46.48671" lon="5.31578">
        <ele>206.60000610352</ele>
        <time>2021-04-05T11:11:32.000Z</time>
      </trkpt>
      <trkpt lat="46.48662" lon="5.31567">
        <ele>206.39999389648</ele>
        <time>2021-04-05T11:11:34.000Z</time>
      </trkpt>
      <trkpt lat="46.48653" lon="5.31554">
        <ele>206.19999694824</ele>
        <time>2021-04-05T11:11:36.000Z</time>
      </trkpt>
      <trkpt lat="46.48644" lon="5.31542">
        <ele>206.19999694824</ele>
        <time>2021-04-05T11:11:38.000Z</time>
      </trkpt>
      <trkpt lat="46.48639" lon="5.31536">
        <ele>206.19999694824</ele>
        <time>2021-04-05T11:11:39.000Z</time>
      </trkpt>
      <trkpt lat="46.48635" lon="5.31529">
        <ele>206</ele>
        <time>2021-04-05T11:11:40.000Z</time>
      </trkpt>
      <trkpt lat="46.48628" lon="5.31513">
        <ele>206</ele>
        <time>2021-04-05T11:11:42.000Z</time>
      </trkpt>
      <trkpt lat="46.48626" lon="5.31504">
        <ele>206</ele>
        <time>2021-04-05T11:11:43.000Z</time>
      </trkpt>
      <trkpt lat="46.48624" lon="5.31496">
        <ele>206</ele>
        <time>2021-04-05T11:11:44.000Z</time>
      </trkpt>
      <trkpt lat="46.48622" lon="5.31477">
        <ele>206</ele>
        <time>2021-04-05T11:11:46.000Z</time>
      </trkpt>
      <trkpt lat="46.48621" lon="5.31468">
        <ele>206</ele>
        <time>2021-04-05T11:11:47.000Z</time>
      </trkpt>
      <trkpt lat="46.48619" lon="5.31458">
        <ele>206</ele>
        <time>2021-04-05T11:11:48.000Z</time>
      </trkpt>
      <trkpt lat="46.48614" lon="5.31439">
        <ele>206</ele>
        <time>2021-04-05T11:11:50.000Z</time>
      </trkpt>
      <trkpt lat="46.48611" lon="5.31431">
        <ele>206</ele>
        <time>2021-04-05T11:11:51.000Z</time>
      </trkpt>
      <trkpt lat="46.48608" lon="5.31425">
        <ele>206</ele>
        <time>2021-04-05T11:11:52.000Z</time>
      </trkpt>
      <trkpt lat="46.48601" lon="5.31414">
        <ele>206</ele>
        <time>2021-04-05T11:11:54.000Z</time>
      </trkpt>
      <trkpt lat="46.48597" lon="5.31409">
        <ele>206</ele>
        <time>2021-04-05T11:11:55.000Z</time>
      </trkpt>
      <trkpt lat="46.48593" lon="5.31405">
        <ele>206</ele>
        <time>2021-04-05T11:11:56.000Z</time>
      </trkpt>
      <trkpt lat="46.48585" lon="5.31396">
        <ele>206.60000610352</ele>
        <time>2021-04-05T11:11:58.000Z</time>
      </trkpt>
      <trkpt lat="46.48578" lon="5.31386">
        <ele>207.39999389648</ele>
        <time>2021-04-05T11:12:00.000Z</time>
      </trkpt>
      <trkpt lat="46.48575" lon="5.31381">
        <ele>208</ele>
        <time>2021-04-05T11:12:01.000Z</time>
      </trkpt>
      <trkpt lat="46.48572" lon="5.31375">
        <ele>208.19999694824</ele>
        <time>2021-04-05T11:12:02.000Z</time>
      </trkpt>
      <trkpt lat="46.4857" lon="5.31369">
        <ele>208.60000610352</ele>
        <time>2021-04-05T11:12:03.000Z</time>
      </trkpt>
      <trkpt lat="46.48567" lon="5.31363">
        <ele>208.80000305176</ele>
        <time>2021-04-05T11:12:04.000Z</time>
      </trkpt>
      <trkpt lat="46.48564" lon="5.3135">
        <ele>209.39999389648</ele>
        <time>2021-04-05T11:12:06.000Z</time>
      </trkpt>
      <trkpt lat="46.48563" lon="5.31344">
        <ele>209.60000610352</ele>
        <time>2021-04-05T11:12:07.000Z</time>
      </trkpt>
      <trkpt lat="46.48563" lon="5.31338">
        <ele>210</ele>
        <time>2021-04-05T11:12:08.000Z</time>
      </trkpt>
      <trkpt lat="46.48561" lon="5.31326">
        <ele>210.60000610352</ele>
        <time>2021-04-05T11:12:10.000Z</time>
      </trkpt>
      <trkpt lat="46.4856" lon="5.3132">
        <ele>210.80000305176</ele>
        <time>2021-04-05T11:12:11.000Z</time>
      </trkpt>
      <trkpt lat="46.48559" lon="5.31313">
        <ele>211</ele>
        <time>2021-04-05T11:12:12.000Z</time>
      </trkpt>
      <trkpt lat="46.48558" lon="5.31299">
        <ele>211.80000305176</ele>
        <time>2021-04-05T11:12:14.000Z</time>
      </trkpt>
      <trkpt lat="46.48557" lon="5.31291">
        <ele>212.19999694824</ele>
        <time>2021-04-05T11:12:15.000Z</time>
      </trkpt>
      <trkpt lat="46.48556" lon="5.31283">
        <ele>212.39999389648</ele>
        <time>2021-04-05T11:12:16.000Z</time>
      </trkpt>
      <trkpt lat="46.48554" lon="5.31268">
        <ele>212.80000305176</ele>
        <time>2021-04-05T11:12:18.000Z</time>
      </trkpt>
      <trkpt lat="46.48554" lon="5.31261">
        <ele>213</ele>
        <time>2021-04-05T11:12:19.000Z</time>
      </trkpt>
      <trkpt lat="46.48555" lon="5.31253">
        <ele>213</ele>
        <time>2021-04-05T11:12:20.000Z</time>
      </trkpt>
      <trkpt lat="46.48556" lon="5.31246">
        <ele>213.19999694824</ele>
        <time>2021-04-05T11:12:21.000Z</time>
      </trkpt>
      <trkpt lat="46.48557" lon="5.31238">
        <ele>213.19999694824</ele>
        <time>2021-04-05T11:12:22.000Z</time>
      </trkpt>
      <trkpt lat="46.48562" lon="5.31225">
        <ele>213.39999389648</ele>
        <time>2021-04-05T11:12:24.000Z</time>
      </trkpt>
      <trkpt lat="46.48567" lon="5.31213">
        <ele>213.39999389648</ele>
        <time>2021-04-05T11:12:26.000Z</time>
      </trkpt>
      <trkpt lat="46.48573" lon="5.31202">
        <ele>213.60000610352</ele>
        <time>2021-04-05T11:12:28.000Z</time>
      </trkpt>
      <trkpt lat="46.48578" lon="5.3119">
        <ele>213.60000610352</ele>
        <time>2021-04-05T11:12:30.000Z</time>
      </trkpt>
      <trkpt lat="46.48584" lon="5.31178">
        <ele>213.80000305176</ele>
        <time>2021-04-05T11:12:32.000Z</time>
      </trkpt>
      <trkpt lat="46.48587" lon="5.31173">
        <ele>214.19999694824</ele>
        <time>2021-04-05T11:12:33.000Z</time>
      </trkpt>
      <trkpt lat="46.4859" lon="5.31167">
        <ele>214.60000610352</ele>
        <time>2021-04-05T11:12:34.000Z</time>
      </trkpt>
      <trkpt lat="46.48595" lon="5.31155">
        <ele>215</ele>
        <time>2021-04-05T11:12:36.000Z</time>
      </trkpt>
      <trkpt lat="46.48601" lon="5.31143">
        <ele>215.19999694824</ele>
        <time>2021-04-05T11:12:38.000Z</time>
      </trkpt>
      <trkpt lat="46.48604" lon="5.31137">
        <ele>215.19999694824</ele>
        <time>2021-04-05T11:12:39.000Z</time>
      </trkpt>
      <trkpt lat="46.48606" lon="5.31132">
        <ele>215.39999389648</ele>
        <time>2021-04-05T11:12:40.000Z</time>
      </trkpt>
      <trkpt lat="46.48612" lon="5.3112">
        <ele>216</ele>
        <time>2021-04-05T11:12:42.000Z</time>
      </trkpt>
      <trkpt lat="46.48618" lon="5.31108">
        <ele>216.19999694824</ele>
        <time>2021-04-05T11:12:44.000Z</time>
      </trkpt>
      <trkpt lat="46.48621" lon="5.31102">
        <ele>216.39999389648</ele>
        <time>2021-04-05T11:12:45.000Z</time>
      </trkpt>
      <trkpt lat="46.48623" lon="5.31096">
        <ele>216.39999389648</ele>
        <time>2021-04-05T11:12:46.000Z</time>
      </trkpt>
      <trkpt lat="46.48626" lon="5.31091">
        <ele>216.60000610352</ele>
        <time>2021-04-05T11:12:47.000Z</time>
      </trkpt>
      <trkpt lat="46.48629" lon="5.31085">
        <ele>216.80000305176</ele>
        <time>2021-04-05T11:12:48.000Z</time>
      </trkpt>
      <trkpt lat="46.48634" lon="5.31073">
        <ele>217.60000610352</ele>
        <time>2021-04-05T11:12:50.000Z</time>
      </trkpt>
      <trkpt lat="46.4864" lon="5.31062">
        <ele>217.60000610352</ele>
        <time>2021-04-05T11:12:52.000Z</time>
      </trkpt>
      <trkpt lat="46.48646" lon="5.3105">
        <ele>217.80000305176</ele>
        <time>2021-04-05T11:12:54.000Z</time>
      </trkpt>
      <trkpt lat="46.48651" lon="5.31039">
        <ele>218.39999389648</ele>
        <time>2021-04-05T11:12:56.000Z</time>
      </trkpt>
      <trkpt lat="46.48654" lon="5.31033">
        <ele>218.60000610352</ele>
        <time>2021-04-05T11:12:57.000Z</time>
      </trkpt>
      <trkpt lat="46.48657" lon="5.31027">
        <ele>218.80000305176</ele>
        <time>2021-04-05T11:12:58.000Z</time>
      </trkpt>
      <trkpt lat="46.48662" lon="5.31016">
        <ele>219</ele>
        <time>2021-04-05T11:13:00.000Z</time>
      </trkpt>
      <trkpt lat="46.48668" lon="5.31004">
        <ele>219</ele>
        <time>2021-04-05T11:13:02.000Z</time>
      </trkpt>
      <trkpt lat="46.48674" lon="5.30993">
        <ele>219.19999694824</ele>
        <time>2021-04-05T11:13:04.000Z</time>
      </trkpt>
      <trkpt lat="46.4868" lon="5.3098">
        <ele>219.80000305176</ele>
        <time>2021-04-05T11:13:06.000Z</time>
      </trkpt>
      <trkpt lat="46.48686" lon="5.30967">
        <ele>220</ele>
        <time>2021-04-05T11:13:08.000Z</time>
      </trkpt>
      <trkpt lat="46.48689" lon="5.3096">
        <ele>220</ele>
        <time>2021-04-05T11:13:09.000Z</time>
      </trkpt>
      <trkpt lat="46.48693" lon="5.30953">
        <ele>220</ele>
        <time>2021-04-05T11:13:10.000Z</time>
      </trkpt>
      <trkpt lat="46.487" lon="5.30939">
        <ele>220</ele>
        <time>2021-04-05T11:13:12.000Z</time>
      </trkpt>
      <trkpt lat="46.48709" lon="5.30924">
        <ele>220</ele>
        <time>2021-04-05T11:13:14.000Z</time>
      </trkpt>
      <trkpt lat="46.4872" lon="5.30909">
        <ele>220</ele>
        <time>2021-04-05T11:13:16.000Z</time>
      </trkpt>
      <trkpt lat="46.48723" lon="5.30898">
        <ele>220</ele>
        <time>2021-04-05T11:13:17.000Z</time>
      </trkpt>
      <trkpt lat="46.48724" lon="5.30887">
        <ele>220</ele>
        <time>2021-04-05T11:13:18.000Z</time>
      </trkpt>
      <trkpt lat="46.4872" lon="5.30866">
        <ele>219.39999389648</ele>
        <time>2021-04-05T11:13:20.000Z</time>
      </trkpt>
      <trkpt lat="46.4871" lon="5.3085">
        <ele>218.60000610352</ele>
        <time>2021-04-05T11:13:22.000Z</time>
      </trkpt>
      <trkpt lat="46.48704" lon="5.30844">
        <ele>218</ele>
        <time>2021-04-05T11:13:23.000Z</time>
      </trkpt>
      <trkpt lat="46.48697" lon="5.30839">
        <ele>217.39999389648</ele>
        <time>2021-04-05T11:13:24.000Z</time>
      </trkpt>
      <trkpt lat="46.4869" lon="5.30834">
        <ele>216.60000610352</ele>
        <time>2021-04-05T11:13:25.000Z</time>
      </trkpt>
      <trkpt lat="46.48683" lon="5.30829">
        <ele>216</ele>
        <time>2021-04-05T11:13:26.000Z</time>
      </trkpt>
      <trkpt lat="46.48675" lon="5.30825">
        <ele>215.60000610352</ele>
        <time>2021-04-05T11:13:27.000Z</time>
      </trkpt>
      <trkpt lat="46.48668" lon="5.3082">
        <ele>215.19999694824</ele>
        <time>2021-04-05T11:13:28.000Z</time>
      </trkpt>
      <trkpt lat="46.48653" lon="5.30811">
        <ele>214.60000610352</ele>
        <time>2021-04-05T11:13:30.000Z</time>
      </trkpt>
      <trkpt lat="46.4863" lon="5.30796">
        <ele>214</ele>
        <time>2021-04-05T11:13:33.000Z</time>
      </trkpt>
      <trkpt lat="46.48622" lon="5.3079">
        <ele>213.80000305176</ele>
        <time>2021-04-05T11:13:34.000Z</time>
      </trkpt>
      <trkpt lat="46.48615" lon="5.30785">
        <ele>213.60000610352</ele>
        <time>2021-04-05T11:13:35.000Z</time>
      </trkpt>
      <trkpt lat="46.48602" lon="5.30775">
        <ele>213.19999694824</ele>
        <time>2021-04-05T11:13:37.000Z</time>
      </trkpt>
      <trkpt lat="46.4859" lon="5.30765">
        <ele>213</ele>
        <time>2021-04-05T11:13:39.000Z</time>
      </trkpt>
      <trkpt lat="46.4858" lon="5.30755">
        <ele>213</ele>
        <time>2021-04-05T11:13:41.000Z</time>
      </trkpt>
      <trkpt lat="46.4857" lon="5.30745">
        <ele>213</ele>
        <time>2021-04-05T11:13:43.000Z</time>
      </trkpt>
      <trkpt lat="46.48562" lon="5.30733">
        <ele>213</ele>
        <time>2021-04-05T11:13:45.000Z</time>
      </trkpt>
      <trkpt lat="46.48556" lon="5.30718">
        <ele>213.60000610352</ele>
        <time>2021-04-05T11:13:47.000Z</time>
      </trkpt>
      <trkpt lat="46.48551" lon="5.30703">
        <ele>214.60000610352</ele>
        <time>2021-04-05T11:13:49.000Z</time>
      </trkpt>
      <trkpt lat="46.4855" lon="5.30696">
        <ele>215</ele>
        <time>2021-04-05T11:13:50.000Z</time>
      </trkpt>
      <trkpt lat="46.48548" lon="5.30689">
        <ele>215.39999389648</ele>
        <time>2021-04-05T11:13:51.000Z</time>
      </trkpt>
      <trkpt lat="46.48545" lon="5.30675">
        <ele>215.80000305176</ele>
        <time>2021-04-05T11:13:53.000Z</time>
      </trkpt>
      <trkpt lat="46.48545" lon="5.30668">
        <ele>216</ele>
        <time>2021-04-05T11:13:54.000Z</time>
      </trkpt>
      <trkpt lat="46.48545" lon="5.30661">
        <ele>216.19999694824</ele>
        <time>2021-04-05T11:13:55.000Z</time>
      </trkpt>
      <trkpt lat="46.48546" lon="5.30647">
        <ele>216.39999389648</ele>
        <time>2021-04-05T11:13:57.000Z</time>
      </trkpt>
      <trkpt lat="46.48548" lon="5.30633">
        <ele>217.19999694824</ele>
        <time>2021-04-05T11:13:59.000Z</time>
      </trkpt>
      <trkpt lat="46.48549" lon="5.3062">
        <ele>217.80000305176</ele>
        <time>2021-04-05T11:14:01.000Z</time>
      </trkpt>
      <trkpt lat="46.48549" lon="5.30613">
        <ele>218.39999389648</ele>
        <time>2021-04-05T11:14:02.000Z</time>
      </trkpt>
      <trkpt lat="46.4855" lon="5.30606">
        <ele>218.80000305176</ele>
        <time>2021-04-05T11:14:03.000Z</time>
      </trkpt>
      <trkpt lat="46.48551" lon="5.30593">
        <ele>219.60000610352</ele>
        <time>2021-04-05T11:14:05.000Z</time>
      </trkpt>
      <trkpt lat="46.48553" lon="5.30581">
        <ele>219.80000305176</ele>
        <time>2021-04-05T11:14:07.000Z</time>
      </trkpt>
      <trkpt lat="46.48555" lon="5.30569">
        <ele>220</ele>
        <time>2021-04-05T11:14:09.000Z</time>
      </trkpt>
      <trkpt lat="46.48557" lon="5.30556">
        <ele>220.39999389648</ele>
        <time>2021-04-05T11:14:11.000Z</time>
      </trkpt>
      <trkpt lat="46.48558" lon="5.30542">
        <ele>220.60000610352</ele>
        <time>2021-04-05T11:14:13.000Z</time>
      </trkpt>
      <trkpt lat="46.4856" lon="5.30529">
        <ele>221.19999694824</ele>
        <time>2021-04-05T11:14:15.000Z</time>
      </trkpt>
      <trkpt lat="46.48561" lon="5.30522">
        <ele>221.60000610352</ele>
        <time>2021-04-05T11:14:16.000Z</time>
      </trkpt>
      <trkpt lat="46.48561" lon="5.30515">
        <ele>221.80000305176</ele>
        <time>2021-04-05T11:14:17.000Z</time>
      </trkpt>
      <trkpt lat="46.48557" lon="5.30502">
        <ele>222</ele>
        <time>2021-04-05T11:14:19.000Z</time>
      </trkpt>
      <trkpt lat="46.48548" lon="5.30499">
        <ele>222</ele>
        <time>2021-04-05T11:14:21.000Z</time>
      </trkpt>
      <trkpt lat="46.48543" lon="5.305">
        <ele>222</ele>
        <time>2021-04-05T11:14:22.000Z</time>
      </trkpt>
      <trkpt lat="46.48538" lon="5.30502">
        <ele>222.19999694824</ele>
        <time>2021-04-05T11:14:23.000Z</time>
      </trkpt>
      <trkpt lat="46.48533" lon="5.30506">
        <ele>222.19999694824</ele>
        <time>2021-04-05T11:14:24.000Z</time>
      </trkpt>
      <trkpt lat="46.48528" lon="5.30508">
        <ele>222.19999694824</ele>
        <time>2021-04-05T11:14:25.000Z</time>
      </trkpt>
      <trkpt lat="46.48518" lon="5.30516">
        <ele>222.19999694824</ele>
        <time>2021-04-05T11:14:27.000Z</time>
      </trkpt>
      <trkpt lat="46.48508" lon="5.30524">
        <ele>222.60000610352</ele>
        <time>2021-04-05T11:14:29.000Z</time>
      </trkpt>
      <trkpt lat="46.48503" lon="5.30528">
        <ele>222.60000610352</ele>
        <time>2021-04-05T11:14:30.000Z</time>
      </trkpt>
      <trkpt lat="46.48498" lon="5.30532">
        <ele>222.80000305176</ele>
        <time>2021-04-05T11:14:31.000Z</time>
      </trkpt>
      <trkpt lat="46.48488" lon="5.30542">
        <ele>222.80000305176</ele>
        <time>2021-04-05T11:14:33.000Z</time>
      </trkpt>
      <trkpt lat="46.48477" lon="5.30552">
        <ele>222.80000305176</ele>
        <time>2021-04-05T11:14:35.000Z</time>
      </trkpt>
      <trkpt lat="46.48466" lon="5.30563">
        <ele>222.80000305176</ele>
        <time>2021-04-05T11:14:37.000Z</time>
      </trkpt>
      <trkpt lat="46.48449" lon="5.30577">
        <ele>222.80000305176</ele>
        <time>2021-04-05T11:14:40.000Z</time>
      </trkpt>
      <trkpt lat="46.48438" lon="5.30587">
        <ele>222.60000610352</ele>
        <time>2021-04-05T11:14:42.000Z</time>
      </trkpt>
      <trkpt lat="46.48426" lon="5.30597">
        <ele>222.19999694824</ele>
        <time>2021-04-05T11:14:44.000Z</time>
      </trkpt>
      <trkpt lat="46.48415" lon="5.30608">
        <ele>221.80000305176</ele>
        <time>2021-04-05T11:14:46.000Z</time>
      </trkpt>
      <trkpt lat="46.48403" lon="5.3062">
        <ele>221.60000610352</ele>
        <time>2021-04-05T11:14:48.000Z</time>
      </trkpt>
      <trkpt lat="46.48391" lon="5.30631">
        <ele>221.60000610352</ele>
        <time>2021-04-05T11:14:50.000Z</time>
      </trkpt>
      <trkpt lat="46.48378" lon="5.30643">
        <ele>221.39999389648</ele>
        <time>2021-04-05T11:14:52.000Z</time>
      </trkpt>
      <trkpt lat="46.48366" lon="5.30655">
        <ele>221.19999694824</ele>
        <time>2021-04-05T11:14:54.000Z</time>
      </trkpt>
      <trkpt lat="46.48354" lon="5.30666">
        <ele>221</ele>
        <time>2021-04-05T11:14:56.000Z</time>
      </trkpt>
      <trkpt lat="46.48342" lon="5.30677">
        <ele>220.80000305176</ele>
        <time>2021-04-05T11:14:58.000Z</time>
      </trkpt>
      <trkpt lat="46.48329" lon="5.30686">
        <ele>220.60000610352</ele>
        <time>2021-04-05T11:15:00.000Z</time>
      </trkpt>
      <trkpt lat="46.48322" lon="5.30689">
        <ele>220.60000610352</ele>
        <time>2021-04-05T11:15:01.000Z</time>
      </trkpt>
      <trkpt lat="46.48315" lon="5.30691">
        <ele>220.60000610352</ele>
        <time>2021-04-05T11:15:02.000Z</time>
      </trkpt>
      <trkpt lat="46.48301" lon="5.30693">
        <ele>220.19999694824</ele>
        <time>2021-04-05T11:15:04.000Z</time>
      </trkpt>
      <trkpt lat="46.48288" lon="5.30692">
        <ele>220</ele>
        <time>2021-04-05T11:15:06.000Z</time>
      </trkpt>
      <trkpt lat="46.48281" lon="5.3069">
        <ele>220</ele>
        <time>2021-04-05T11:15:07.000Z</time>
      </trkpt>
      <trkpt lat="46.48275" lon="5.30688">
        <ele>220</ele>
        <time>2021-04-05T11:15:08.000Z</time>
      </trkpt>
      <trkpt lat="46.48268" lon="5.30687">
        <ele>220</ele>
        <time>2021-04-05T11:15:09.000Z</time>
      </trkpt>
      <trkpt lat="46.48262" lon="5.30685">
        <ele>220</ele>
        <time>2021-04-05T11:15:10.000Z</time>
      </trkpt>
      <trkpt lat="46.48249" lon="5.30682">
        <ele>220</ele>
        <time>2021-04-05T11:15:12.000Z</time>
      </trkpt>
      <trkpt lat="46.48237" lon="5.3068">
        <ele>220</ele>
        <time>2021-04-05T11:15:14.000Z</time>
      </trkpt>
      <trkpt lat="46.48225" lon="5.30679">
        <ele>220</ele>
        <time>2021-04-05T11:15:16.000Z</time>
      </trkpt>
      <trkpt lat="46.48215" lon="5.3068">
        <ele>220.19999694824</ele>
        <time>2021-04-05T11:15:18.000Z</time>
      </trkpt>
      <trkpt lat="46.48204" lon="5.30683">
        <ele>220.60000610352</ele>
        <time>2021-04-05T11:15:20.000Z</time>
      </trkpt>
      <trkpt lat="46.48199" lon="5.30685">
        <ele>220.80000305176</ele>
        <time>2021-04-05T11:15:21.000Z</time>
      </trkpt>
      <trkpt lat="46.48193" lon="5.30688">
        <ele>221</ele>
        <time>2021-04-05T11:15:22.000Z</time>
      </trkpt>
      <trkpt lat="46.48183" lon="5.30694">
        <ele>221.39999389648</ele>
        <time>2021-04-05T11:15:24.000Z</time>
      </trkpt>
      <trkpt lat="46.48173" lon="5.307">
        <ele>221.80000305176</ele>
        <time>2021-04-05T11:15:26.000Z</time>
      </trkpt>
      <trkpt lat="46.48162" lon="5.30706">
        <ele>222.39999389648</ele>
        <time>2021-04-05T11:15:28.000Z</time>
      </trkpt>
      <trkpt lat="46.48157" lon="5.30709">
        <ele>222.60000610352</ele>
        <time>2021-04-05T11:15:29.000Z</time>
      </trkpt>
      <trkpt lat="46.48152" lon="5.30711">
        <ele>222.80000305176</ele>
        <time>2021-04-05T11:15:30.000Z</time>
      </trkpt>
      <trkpt lat="46.48147" lon="5.30714">
        <ele>223.19999694824</ele>
        <time>2021-04-05T11:15:31.000Z</time>
      </trkpt>
      <trkpt lat="46.48141" lon="5.30717">
        <ele>223.39999389648</ele>
        <time>2021-04-05T11:15:32.000Z</time>
      </trkpt>
      <trkpt lat="46.4813" lon="5.30724">
        <ele>223.80000305176</ele>
        <time>2021-04-05T11:15:34.000Z</time>
      </trkpt>
      <trkpt lat="46.48119" lon="5.3073">
        <ele>224</ele>
        <time>2021-04-05T11:15:36.000Z</time>
      </trkpt>
      <trkpt lat="46.48113" lon="5.30733">
        <ele>224.19999694824</ele>
        <time>2021-04-05T11:15:37.000Z</time>
      </trkpt>
      <trkpt lat="46.48108" lon="5.30736">
        <ele>224.19999694824</ele>
        <time>2021-04-05T11:15:38.000Z</time>
      </trkpt>
      <trkpt lat="46.48097" lon="5.30742">
        <ele>224.39999389648</ele>
        <time>2021-04-05T11:15:40.000Z</time>
      </trkpt>
      <trkpt lat="46.48086" lon="5.30748">
        <ele>224.39999389648</ele>
        <time>2021-04-05T11:15:42.000Z</time>
      </trkpt>
      <trkpt lat="46.48075" lon="5.30755">
        <ele>224.60000610352</ele>
        <time>2021-04-05T11:15:44.000Z</time>
      </trkpt>
      <trkpt lat="46.48063" lon="5.30761">
        <ele>224.80000305176</ele>
        <time>2021-04-05T11:15:46.000Z</time>
      </trkpt>
      <trkpt lat="46.48051" lon="5.30768">
        <ele>225</ele>
        <time>2021-04-05T11:15:48.000Z</time>
      </trkpt>
      <trkpt lat="46.48045" lon="5.30771">
        <ele>225</ele>
        <time>2021-04-05T11:15:49.000Z</time>
      </trkpt>
      <trkpt lat="46.48039" lon="5.30775">
        <ele>225</ele>
        <time>2021-04-05T11:15:50.000Z</time>
      </trkpt>
      <trkpt lat="46.48026" lon="5.30782">
        <ele>225</ele>
        <time>2021-04-05T11:15:52.000Z</time>
      </trkpt>
      <trkpt lat="46.48013" lon="5.30789">
        <ele>225</ele>
        <time>2021-04-05T11:15:54.000Z</time>
      </trkpt>
      <trkpt lat="46.47999" lon="5.30797">
        <ele>224.60000610352</ele>
        <time>2021-04-05T11:15:56.000Z</time>
      </trkpt>
      <trkpt lat="46.47992" lon="5.30801">
        <ele>224.39999389648</ele>
        <time>2021-04-05T11:15:57.000Z</time>
      </trkpt>
      <trkpt lat="46.47985" lon="5.30805">
        <ele>224.19999694824</ele>
        <time>2021-04-05T11:15:58.000Z</time>
      </trkpt>
      <trkpt lat="46.47971" lon="5.30811">
        <ele>223.80000305176</ele>
        <time>2021-04-05T11:16:00.000Z</time>
      </trkpt>
      <trkpt lat="46.47956" lon="5.30815">
        <ele>223.60000610352</ele>
        <time>2021-04-05T11:16:02.000Z</time>
      </trkpt>
      <trkpt lat="46.47948" lon="5.30816">
        <ele>223.19999694824</ele>
        <time>2021-04-05T11:16:03.000Z</time>
      </trkpt>
      <trkpt lat="46.47941" lon="5.30816">
        <ele>222.80000305176</ele>
        <time>2021-04-05T11:16:04.000Z</time>
      </trkpt>
      <trkpt lat="46.47928" lon="5.30815">
        <ele>222.60000610352</ele>
        <time>2021-04-05T11:16:06.000Z</time>
      </trkpt>
      <trkpt lat="46.47916" lon="5.30813">
        <ele>222.60000610352</ele>
        <time>2021-04-05T11:16:08.000Z</time>
      </trkpt>
      <trkpt lat="46.47906" lon="5.30809">
        <ele>222.60000610352</ele>
        <time>2021-04-05T11:16:10.000Z</time>
      </trkpt>
      <trkpt lat="46.47896" lon="5.30806">
        <ele>222.60000610352</ele>
        <time>2021-04-05T11:16:12.000Z</time>
      </trkpt>
      <trkpt lat="46.47887" lon="5.30802">
        <ele>222.80000305176</ele>
        <time>2021-04-05T11:16:14.000Z</time>
      </trkpt>
      <trkpt lat="46.47877" lon="5.308">
        <ele>223.60000610352</ele>
        <time>2021-04-05T11:16:16.000Z</time>
      </trkpt>
      <trkpt lat="46.47868" lon="5.30798">
        <ele>224.39999389648</ele>
        <time>2021-04-05T11:16:18.000Z</time>
      </trkpt>
      <trkpt lat="46.47859" lon="5.30798">
        <ele>225.19999694824</ele>
        <time>2021-04-05T11:16:20.000Z</time>
      </trkpt>
      <trkpt lat="46.47854" lon="5.30799">
        <ele>225.60000610352</ele>
        <time>2021-04-05T11:16:21.000Z</time>
      </trkpt>
      <trkpt lat="46.4785" lon="5.30799">
        <ele>226.19999694824</ele>
        <time>2021-04-05T11:16:22.000Z</time>
      </trkpt>
      <trkpt lat="46.47846" lon="5.30801">
        <ele>226.80000305176</ele>
        <time>2021-04-05T11:16:23.000Z</time>
      </trkpt>
      <trkpt lat="46.47841" lon="5.30802">
        <ele>227.60000610352</ele>
        <time>2021-04-05T11:16:24.000Z</time>
      </trkpt>
      <trkpt lat="46.47837" lon="5.30805">
        <ele>228</ele>
        <time>2021-04-05T11:16:25.000Z</time>
      </trkpt>
      <trkpt lat="46.47833" lon="5.30807">
        <ele>228.19999694824</ele>
        <time>2021-04-05T11:16:26.000Z</time>
      </trkpt>
      <trkpt lat="46.4783" lon="5.3081">
        <ele>228.39999389648</ele>
        <time>2021-04-05T11:16:27.000Z</time>
      </trkpt>
      <trkpt lat="46.47826" lon="5.30814">
        <ele>228.60000610352</ele>
        <time>2021-04-05T11:16:28.000Z</time>
      </trkpt>
      <trkpt lat="46.47822" lon="5.30817">
        <ele>228.80000305176</ele>
        <time>2021-04-05T11:16:29.000Z</time>
      </trkpt>
      <trkpt lat="46.47819" lon="5.30821">
        <ele>229</ele>
        <time>2021-04-05T11:16:30.000Z</time>
      </trkpt>
      <trkpt lat="46.47815" lon="5.30825">
        <ele>229.60000610352</ele>
        <time>2021-04-05T11:16:31.000Z</time>
      </trkpt>
      <trkpt lat="46.47812" lon="5.3083">
        <ele>230</ele>
        <time>2021-04-05T11:16:32.000Z</time>
      </trkpt>
      <trkpt lat="46.47809" lon="5.30834">
        <ele>230.19999694824</ele>
        <time>2021-04-05T11:16:33.000Z</time>
      </trkpt>
      <trkpt lat="46.47805" lon="5.30839">
        <ele>230.80000305176</ele>
        <time>2021-04-05T11:16:34.000Z</time>
      </trkpt>
      <trkpt lat="46.47799" lon="5.3085">
        <ele>231.19999694824</ele>
        <time>2021-04-05T11:16:36.000Z</time>
      </trkpt>
      <trkpt lat="46.47796" lon="5.30855">
        <ele>231.39999389648</ele>
        <time>2021-04-05T11:16:37.000Z</time>
      </trkpt>
      <trkpt lat="46.47793" lon="5.30861">
        <ele>231.60000610352</ele>
        <time>2021-04-05T11:16:38.000Z</time>
      </trkpt>
      <trkpt lat="46.47786" lon="5.30871">
        <ele>231.80000305176</ele>
        <time>2021-04-05T11:16:40.000Z</time>
      </trkpt>
      <trkpt lat="46.47778" lon="5.30882">
        <ele>232</ele>
        <time>2021-04-05T11:16:42.000Z</time>
      </trkpt>
      <trkpt lat="46.47774" lon="5.30887">
        <ele>232</ele>
        <time>2021-04-05T11:16:43.000Z</time>
      </trkpt>
      <trkpt lat="46.47769" lon="5.30892">
        <ele>232</ele>
        <time>2021-04-05T11:16:44.000Z</time>
      </trkpt>
      <trkpt lat="46.47757" lon="5.309">
        <ele>232</ele>
        <time>2021-04-05T11:16:46.000Z</time>
      </trkpt>
      <trkpt lat="46.47744" lon="5.30906">
        <ele>232</ele>
        <time>2021-04-05T11:16:48.000Z</time>
      </trkpt>
      <trkpt lat="46.47729" lon="5.30907">
        <ele>232</ele>
        <time>2021-04-05T11:16:50.000Z</time>
      </trkpt>
      <trkpt lat="46.47721" lon="5.30906">
        <ele>232</ele>
        <time>2021-04-05T11:16:51.000Z</time>
      </trkpt>
      <trkpt lat="46.47713" lon="5.30904">
        <ele>231.80000305176</ele>
        <time>2021-04-05T11:16:52.000Z</time>
      </trkpt>
      <trkpt lat="46.47697" lon="5.30899">
        <ele>231.19999694824</ele>
        <time>2021-04-05T11:16:54.000Z</time>
      </trkpt>
      <trkpt lat="46.47682" lon="5.30893">
        <ele>230</ele>
        <time>2021-04-05T11:16:56.000Z</time>
      </trkpt>
      <trkpt lat="46.47674" lon="5.3089">
        <ele>229.39999389648</ele>
        <time>2021-04-05T11:16:57.000Z</time>
      </trkpt>
      <trkpt lat="46.47666" lon="5.30889">
        <ele>228.80000305176</ele>
        <time>2021-04-05T11:16:58.000Z</time>
      </trkpt>
      <trkpt lat="46.47659" lon="5.30888">
        <ele>227.60000610352</ele>
        <time>2021-04-05T11:16:59.000Z</time>
      </trkpt>
      <trkpt lat="46.47651" lon="5.30889">
        <ele>226.39999389648</ele>
        <time>2021-04-05T11:17:00.000Z</time>
      </trkpt>
      <trkpt lat="46.47643" lon="5.30891">
        <ele>225.60000610352</ele>
        <time>2021-04-05T11:17:01.000Z</time>
      </trkpt>
      <trkpt lat="46.47635" lon="5.30894">
        <ele>225</ele>
        <time>2021-04-05T11:17:02.000Z</time>
      </trkpt>
      <trkpt lat="46.47619" lon="5.30901">
        <ele>224.19999694824</ele>
        <time>2021-04-05T11:17:04.000Z</time>
      </trkpt>
      <trkpt lat="46.47604" lon="5.30908">
        <ele>224</ele>
        <time>2021-04-05T11:17:06.000Z</time>
      </trkpt>
      <trkpt lat="46.47588" lon="5.30915">
        <ele>223.80000305176</ele>
        <time>2021-04-05T11:17:08.000Z</time>
      </trkpt>
      <trkpt lat="46.4758" lon="5.30918">
        <ele>223.60000610352</ele>
        <time>2021-04-05T11:17:09.000Z</time>
      </trkpt>
      <trkpt lat="46.47572" lon="5.30922">
        <ele>223.60000610352</ele>
        <time>2021-04-05T11:17:10.000Z</time>
      </trkpt>
      <trkpt lat="46.47556" lon="5.30929">
        <ele>223.19999694824</ele>
        <time>2021-04-05T11:17:12.000Z</time>
      </trkpt>
      <trkpt lat="46.47541" lon="5.30938">
        <ele>223</ele>
        <time>2021-04-05T11:17:14.000Z</time>
      </trkpt>
      <trkpt lat="46.47526" lon="5.30948">
        <ele>222.60000610352</ele>
        <time>2021-04-05T11:17:16.000Z</time>
      </trkpt>
      <trkpt lat="46.47511" lon="5.30958">
        <ele>222</ele>
        <time>2021-04-05T11:17:18.000Z</time>
      </trkpt>
      <trkpt lat="46.47503" lon="5.30962">
        <ele>221.80000305176</ele>
        <time>2021-04-05T11:17:19.000Z</time>
      </trkpt>
      <trkpt lat="46.47496" lon="5.30967">
        <ele>221.60000610352</ele>
        <time>2021-04-05T11:17:20.000Z</time>
      </trkpt>
      <trkpt lat="46.47481" lon="5.30977">
        <ele>221.19999694824</ele>
        <time>2021-04-05T11:17:22.000Z</time>
      </trkpt>
      <trkpt lat="46.47467" lon="5.30986">
        <ele>220.80000305176</ele>
        <time>2021-04-05T11:17:24.000Z</time>
      </trkpt>
      <trkpt lat="46.4746" lon="5.30991">
        <ele>220.80000305176</ele>
        <time>2021-04-05T11:17:25.000Z</time>
      </trkpt>
      <trkpt lat="46.47453" lon="5.30995">
        <ele>220.60000610352</ele>
        <time>2021-04-05T11:17:26.000Z</time>
      </trkpt>
      <trkpt lat="46.47447" lon="5.31">
        <ele>220.60000610352</ele>
        <time>2021-04-05T11:17:27.000Z</time>
      </trkpt>
      <trkpt lat="46.4744" lon="5.31004">
        <ele>220.60000610352</ele>
        <time>2021-04-05T11:17:28.000Z</time>
      </trkpt>
      <trkpt lat="46.47428" lon="5.31012">
        <ele>220.60000610352</ele>
        <time>2021-04-05T11:17:30.000Z</time>
      </trkpt>
      <trkpt lat="46.47417" lon="5.31019">
        <ele>220.60000610352</ele>
        <time>2021-04-05T11:17:32.000Z</time>
      </trkpt>
      <trkpt lat="46.47412" lon="5.31022">
        <ele>220.60000610352</ele>
        <time>2021-04-05T11:17:33.000Z</time>
      </trkpt>
      <trkpt lat="46.47406" lon="5.31026">
        <ele>220.60000610352</ele>
        <time>2021-04-05T11:17:34.000Z</time>
      </trkpt>
      <trkpt lat="46.47396" lon="5.31033">
        <ele>220.60000610352</ele>
        <time>2021-04-05T11:17:36.000Z</time>
      </trkpt>
      <trkpt lat="46.47386" lon="5.31039">
        <ele>221</ele>
        <time>2021-04-05T11:17:38.000Z</time>
      </trkpt>
      <trkpt lat="46.47381" lon="5.31042">
        <ele>222</ele>
        <time>2021-04-05T11:17:39.000Z</time>
      </trkpt>
      <trkpt lat="46.47377" lon="5.31045">
        <ele>222.19999694824</ele>
        <time>2021-04-05T11:17:40.000Z</time>
      </trkpt>
      <trkpt lat="46.47367" lon="5.31052">
        <ele>222.80000305176</ele>
        <time>2021-04-05T11:17:42.000Z</time>
      </trkpt>
      <trkpt lat="46.47362" lon="5.31055">
        <ele>223.19999694824</ele>
        <time>2021-04-05T11:17:43.000Z</time>
      </trkpt>
      <trkpt lat="46.47358" lon="5.31059">
        <ele>223.60000610352</ele>
        <time>2021-04-05T11:17:44.000Z</time>
      </trkpt>
      <trkpt lat="46.47349" lon="5.31065">
        <ele>224.19999694824</ele>
        <time>2021-04-05T11:17:46.000Z</time>
      </trkpt>
      <trkpt lat="46.47341" lon="5.31072">
        <ele>225</ele>
        <time>2021-04-05T11:17:48.000Z</time>
      </trkpt>
      <trkpt lat="46.47337" lon="5.31075">
        <ele>225.19999694824</ele>
        <time>2021-04-05T11:17:49.000Z</time>
      </trkpt>
      <trkpt lat="46.47332" lon="5.31078">
        <ele>225.39999389648</ele>
        <time>2021-04-05T11:17:50.000Z</time>
      </trkpt>
      <trkpt lat="46.47329" lon="5.31083">
        <ele>225.80000305176</ele>
        <time>2021-04-05T11:17:51.000Z</time>
      </trkpt>
      <trkpt lat="46.47325" lon="5.31087">
        <ele>226</ele>
        <time>2021-04-05T11:17:52.000Z</time>
      </trkpt>
      <trkpt lat="46.47318" lon="5.31097">
        <ele>226.39999389648</ele>
        <time>2021-04-05T11:17:54.000Z</time>
      </trkpt>
      <trkpt lat="46.47309" lon="5.31106">
        <ele>227</ele>
        <time>2021-04-05T11:17:56.000Z</time>
      </trkpt>
      <trkpt lat="46.47301" lon="5.31116">
        <ele>227.19999694824</ele>
        <time>2021-04-05T11:17:58.000Z</time>
      </trkpt>
      <trkpt lat="46.47293" lon="5.31127">
        <ele>227.39999389648</ele>
        <time>2021-04-05T11:18:00.000Z</time>
      </trkpt>
      <trkpt lat="46.47286" lon="5.31137">
        <ele>227.39999389648</ele>
        <time>2021-04-05T11:18:02.000Z</time>
      </trkpt>
      <trkpt lat="46.47278" lon="5.31147">
        <ele>227.39999389648</ele>
        <time>2021-04-05T11:18:04.000Z</time>
      </trkpt>
      <trkpt lat="46.4727" lon="5.31159">
        <ele>227.60000610352</ele>
        <time>2021-04-05T11:18:06.000Z</time>
      </trkpt>
      <trkpt lat="46.47263" lon="5.31171">
        <ele>227.80000305176</ele>
        <time>2021-04-05T11:18:08.000Z</time>
      </trkpt>
      <trkpt lat="46.4726" lon="5.31175">
        <ele>227.60000610352</ele>
        <time>2021-04-05T11:18:09.000Z</time>
      </trkpt>
      <trkpt lat="46.47257" lon="5.3118">
        <ele>227.60000610352</ele>
        <time>2021-04-05T11:18:10.000Z</time>
      </trkpt>
      <trkpt lat="46.4725" lon="5.3119">
        <ele>227.80000305176</ele>
        <time>2021-04-05T11:18:12.000Z</time>
      </trkpt>
      <trkpt lat="46.47242" lon="5.312">
        <ele>227.80000305176</ele>
        <time>2021-04-05T11:18:14.000Z</time>
      </trkpt>
      <trkpt lat="46.47238" lon="5.31205">
        <ele>227.80000305176</ele>
        <time>2021-04-05T11:18:15.000Z</time>
      </trkpt>
      <trkpt lat="46.47235" lon="5.3121">
        <ele>227.80000305176</ele>
        <time>2021-04-05T11:18:16.000Z</time>
      </trkpt>
      <trkpt lat="46.47228" lon="5.3122">
        <ele>227.80000305176</ele>
        <time>2021-04-05T11:18:18.000Z</time>
      </trkpt>
      <trkpt lat="46.47221" lon="5.31231">
        <ele>227.80000305176</ele>
        <time>2021-04-05T11:18:20.000Z</time>
      </trkpt>
      <trkpt lat="46.47214" lon="5.31241">
        <ele>228</ele>
        <time>2021-04-05T11:18:22.000Z</time>
      </trkpt>
      <trkpt lat="46.47207" lon="5.31253">
        <ele>228.19999694824</ele>
        <time>2021-04-05T11:18:24.000Z</time>
      </trkpt>
      <trkpt lat="46.472" lon="5.31264">
        <ele>228.19999694824</ele>
        <time>2021-04-05T11:18:26.000Z</time>
      </trkpt>
      <trkpt lat="46.47196" lon="5.31269">
        <ele>228.39999389648</ele>
        <time>2021-04-05T11:18:27.000Z</time>
      </trkpt>
      <trkpt lat="46.47193" lon="5.31275">
        <ele>228.39999389648</ele>
        <time>2021-04-05T11:18:28.000Z</time>
      </trkpt>
      <trkpt lat="46.47189" lon="5.31281">
        <ele>228.39999389648</ele>
        <time>2021-04-05T11:18:29.000Z</time>
      </trkpt>
      <trkpt lat="46.47185" lon="5.31288">
        <ele>228.60000610352</ele>
        <time>2021-04-05T11:18:30.000Z</time>
      </trkpt>
      <trkpt lat="46.47176" lon="5.31301">
        <ele>228.60000610352</ele>
        <time>2021-04-05T11:18:32.000Z</time>
      </trkpt>
      <trkpt lat="46.47167" lon="5.31315">
        <ele>228.80000305176</ele>
        <time>2021-04-05T11:18:34.000Z</time>
      </trkpt>
      <trkpt lat="46.47159" lon="5.31328">
        <ele>229</ele>
        <time>2021-04-05T11:18:36.000Z</time>
      </trkpt>
      <trkpt lat="46.4715" lon="5.31343">
        <ele>229.39999389648</ele>
        <time>2021-04-05T11:18:38.000Z</time>
      </trkpt>
      <trkpt lat="46.47136" lon="5.31365">
        <ele>229.60000610352</ele>
        <time>2021-04-05T11:18:41.000Z</time>
      </trkpt>
      <trkpt lat="46.47126" lon="5.31379">
        <ele>229.80000305176</ele>
        <time>2021-04-05T11:18:43.000Z</time>
      </trkpt>
      <trkpt lat="46.4711" lon="5.31401">
        <ele>229.80000305176</ele>
        <time>2021-04-05T11:18:46.000Z</time>
      </trkpt>
      <trkpt lat="46.471" lon="5.31414">
        <ele>229.60000610352</ele>
        <time>2021-04-05T11:18:48.000Z</time>
      </trkpt>
      <trkpt lat="46.47089" lon="5.31427">
        <ele>229.60000610352</ele>
        <time>2021-04-05T11:18:50.000Z</time>
      </trkpt>
      <trkpt lat="46.47079" lon="5.31441">
        <ele>229.60000610352</ele>
        <time>2021-04-05T11:18:52.000Z</time>
      </trkpt>
      <trkpt lat="46.47074" lon="5.31449">
        <ele>229.60000610352</ele>
        <time>2021-04-05T11:18:53.000Z</time>
      </trkpt>
      <trkpt lat="46.47069" lon="5.31457">
        <ele>229.60000610352</ele>
        <time>2021-04-05T11:18:54.000Z</time>
      </trkpt>
      <trkpt lat="46.47059" lon="5.3147">
        <ele>229.39999389648</ele>
        <time>2021-04-05T11:18:56.000Z</time>
      </trkpt>
      <trkpt lat="46.47048" lon="5.31485">
        <ele>229.39999389648</ele>
        <time>2021-04-05T11:18:58.000Z</time>
      </trkpt>
      <trkpt lat="46.47029" lon="5.31508">
        <ele>229.39999389648</ele>
        <time>2021-04-05T11:19:01.000Z</time>
      </trkpt>
      <trkpt lat="46.47016" lon="5.31524">
        <ele>229.39999389648</ele>
        <time>2021-04-05T11:19:03.000Z</time>
      </trkpt>
      <trkpt lat="46.47006" lon="5.31536">
        <ele>229.39999389648</ele>
        <time>2021-04-05T11:19:05.000Z</time>
      </trkpt>
      <trkpt lat="46.46997" lon="5.31547">
        <ele>229.60000610352</ele>
        <time>2021-04-05T11:19:07.000Z</time>
      </trkpt>
      <trkpt lat="46.46992" lon="5.31553">
        <ele>229.60000610352</ele>
        <time>2021-04-05T11:19:08.000Z</time>
      </trkpt>
      <trkpt lat="46.46986" lon="5.31559">
        <ele>229.60000610352</ele>
        <time>2021-04-05T11:19:09.000Z</time>
      </trkpt>
      <trkpt lat="46.46977" lon="5.3157">
        <ele>229.80000305176</ele>
        <time>2021-04-05T11:19:11.000Z</time>
      </trkpt>
      <trkpt lat="46.46968" lon="5.31582">
        <ele>230</ele>
        <time>2021-04-05T11:19:13.000Z</time>
      </trkpt>
      <trkpt lat="46.46962" lon="5.31587">
        <ele>230.19999694824</ele>
        <time>2021-04-05T11:19:14.000Z</time>
      </trkpt>
      <trkpt lat="46.46957" lon="5.31593">
        <ele>230.39999389648</ele>
        <time>2021-04-05T11:19:15.000Z</time>
      </trkpt>
      <trkpt lat="46.46948" lon="5.31603">
        <ele>230.60000610352</ele>
        <time>2021-04-05T11:19:17.000Z</time>
      </trkpt>
      <trkpt lat="46.46939" lon="5.31613">
        <ele>230.60000610352</ele>
        <time>2021-04-05T11:19:19.000Z</time>
      </trkpt>
      <trkpt lat="46.46929" lon="5.31624">
        <ele>230.60000610352</ele>
        <time>2021-04-05T11:19:21.000Z</time>
      </trkpt>
      <trkpt lat="46.46919" lon="5.31635">
        <ele>231</ele>
        <time>2021-04-05T11:19:23.000Z</time>
      </trkpt>
      <trkpt lat="46.46915" lon="5.3164">
        <ele>231</ele>
        <time>2021-04-05T11:19:24.000Z</time>
      </trkpt>
      <trkpt lat="46.4691" lon="5.31646">
        <ele>231</ele>
        <time>2021-04-05T11:19:25.000Z</time>
      </trkpt>
      <trkpt lat="46.469" lon="5.31658">
        <ele>231.19999694824</ele>
        <time>2021-04-05T11:19:27.000Z</time>
      </trkpt>
      <trkpt lat="46.4689" lon="5.31671">
        <ele>231.19999694824</ele>
        <time>2021-04-05T11:19:29.000Z</time>
      </trkpt>
      <trkpt lat="46.46879" lon="5.31685">
        <ele>231.19999694824</ele>
        <time>2021-04-05T11:19:31.000Z</time>
      </trkpt>
      <trkpt lat="46.46868" lon="5.31699">
        <ele>231.19999694824</ele>
        <time>2021-04-05T11:19:33.000Z</time>
      </trkpt>
      <trkpt lat="46.46862" lon="5.31706">
        <ele>231.19999694824</ele>
        <time>2021-04-05T11:19:34.000Z</time>
      </trkpt>
      <trkpt lat="46.4685" lon="5.31722">
        <ele>231</ele>
        <time>2021-04-05T11:19:36.000Z</time>
      </trkpt>
      <trkpt lat="46.46844" lon="5.3173">
        <ele>231</ele>
        <time>2021-04-05T11:19:37.000Z</time>
      </trkpt>
      <trkpt lat="46.46832" lon="5.31745">
        <ele>230.60000610352</ele>
        <time>2021-04-05T11:19:39.000Z</time>
      </trkpt>
      <trkpt lat="46.46815" lon="5.31767">
        <ele>230</ele>
        <time>2021-04-05T11:19:42.000Z</time>
      </trkpt>
      <trkpt lat="46.46809" lon="5.31774">
        <ele>229.80000305176</ele>
        <time>2021-04-05T11:19:43.000Z</time>
      </trkpt>
      <trkpt lat="46.46792" lon="5.31797">
        <ele>229.19999694824</ele>
        <time>2021-04-05T11:19:46.000Z</time>
      </trkpt>
      <trkpt lat="46.4678" lon="5.31813">
        <ele>229.19999694824</ele>
        <time>2021-04-05T11:19:48.000Z</time>
      </trkpt>
      <trkpt lat="46.46767" lon="5.31828">
        <ele>229</ele>
        <time>2021-04-05T11:19:50.000Z</time>
      </trkpt>
      <trkpt lat="46.46755" lon="5.31843">
        <ele>229</ele>
        <time>2021-04-05T11:19:52.000Z</time>
      </trkpt>
      <trkpt lat="46.46742" lon="5.31857">
        <ele>229</ele>
        <time>2021-04-05T11:19:54.000Z</time>
      </trkpt>
      <trkpt lat="46.46728" lon="5.31869">
        <ele>228.80000305176</ele>
        <time>2021-04-05T11:19:56.000Z</time>
      </trkpt>
      <trkpt lat="46.46721" lon="5.31875">
        <ele>228.80000305176</ele>
        <time>2021-04-05T11:19:57.000Z</time>
      </trkpt>
      <trkpt lat="46.46714" lon="5.3188">
        <ele>228.80000305176</ele>
        <time>2021-04-05T11:19:58.000Z</time>
      </trkpt>
      <trkpt lat="46.467" lon="5.31891">
        <ele>228.80000305176</ele>
        <time>2021-04-05T11:20:00.000Z</time>
      </trkpt>
      <trkpt lat="46.46681" lon="5.31906">
        <ele>228.80000305176</ele>
        <time>2021-04-05T11:20:03.000Z</time>
      </trkpt>
      <trkpt lat="46.46668" lon="5.31916">
        <ele>228.80000305176</ele>
        <time>2021-04-05T11:20:05.000Z</time>
      </trkpt>
      <trkpt lat="46.46657" lon="5.31927">
        <ele>228.80000305176</ele>
        <time>2021-04-05T11:20:07.000Z</time>
      </trkpt>
      <trkpt lat="46.46646" lon="5.31938">
        <ele>228.80000305176</ele>
        <time>2021-04-05T11:20:09.000Z</time>
      </trkpt>
      <trkpt lat="46.46636" lon="5.31951">
        <ele>229</ele>
        <time>2021-04-05T11:20:11.000Z</time>
      </trkpt>
      <trkpt lat="46.46627" lon="5.31965">
        <ele>229.19999694824</ele>
        <time>2021-04-05T11:20:13.000Z</time>
      </trkpt>
      <trkpt lat="46.46619" lon="5.31979">
        <ele>229.80000305176</ele>
        <time>2021-04-05T11:20:15.000Z</time>
      </trkpt>
      <trkpt lat="46.4661" lon="5.31993">
        <ele>230.39999389648</ele>
        <time>2021-04-05T11:20:17.000Z</time>
      </trkpt>
      <trkpt lat="46.46602" lon="5.32008">
        <ele>230.60000610352</ele>
        <time>2021-04-05T11:20:19.000Z</time>
      </trkpt>
      <trkpt lat="46.46598" lon="5.32016">
        <ele>230.60000610352</ele>
        <time>2021-04-05T11:20:20.000Z</time>
      </trkpt>
      <trkpt lat="46.46594" lon="5.32023">
        <ele>230.60000610352</ele>
        <time>2021-04-05T11:20:21.000Z</time>
      </trkpt>
      <trkpt lat="46.46585" lon="5.32039">
        <ele>230.60000610352</ele>
        <time>2021-04-05T11:20:23.000Z</time>
      </trkpt>
      <trkpt lat="46.46576" lon="5.32055">
        <ele>230.60000610352</ele>
        <time>2021-04-05T11:20:25.000Z</time>
      </trkpt>
      <trkpt lat="46.46568" lon="5.32071">
        <ele>230.80000305176</ele>
        <time>2021-04-05T11:20:27.000Z</time>
      </trkpt>
      <trkpt lat="46.46559" lon="5.32087">
        <ele>230.60000610352</ele>
        <time>2021-04-05T11:20:29.000Z</time>
      </trkpt>
      <trkpt lat="46.46554" lon="5.32095">
        <ele>230.60000610352</ele>
        <time>2021-04-05T11:20:30.000Z</time>
      </trkpt>
      <trkpt lat="46.4655" lon="5.32103">
        <ele>230.60000610352</ele>
        <time>2021-04-05T11:20:31.000Z</time>
      </trkpt>
      <trkpt lat="46.46541" lon="5.32119">
        <ele>230.60000610352</ele>
        <time>2021-04-05T11:20:33.000Z</time>
      </trkpt>
      <trkpt lat="46.46532" lon="5.32135">
        <ele>230.60000610352</ele>
        <time>2021-04-05T11:20:35.000Z</time>
      </trkpt>
      <trkpt lat="46.46523" lon="5.32151">
        <ele>230.39999389648</ele>
        <time>2021-04-05T11:20:37.000Z</time>
      </trkpt>
      <trkpt lat="46.46515" lon="5.32167">
        <ele>230.39999389648</ele>
        <time>2021-04-05T11:20:39.000Z</time>
      </trkpt>
      <trkpt lat="46.4651" lon="5.32175">
        <ele>230.39999389648</ele>
        <time>2021-04-05T11:20:40.000Z</time>
      </trkpt>
      <trkpt lat="46.46506" lon="5.32183">
        <ele>230.39999389648</ele>
        <time>2021-04-05T11:20:41.000Z</time>
      </trkpt>
      <trkpt lat="46.46498" lon="5.32198">
        <ele>230.39999389648</ele>
        <time>2021-04-05T11:20:43.000Z</time>
      </trkpt>
      <trkpt lat="46.4649" lon="5.32214">
        <ele>230.39999389648</ele>
        <time>2021-04-05T11:20:45.000Z</time>
      </trkpt>
      <trkpt lat="46.46481" lon="5.32229">
        <ele>230.39999389648</ele>
        <time>2021-04-05T11:20:47.000Z</time>
      </trkpt>
      <trkpt lat="46.46473" lon="5.32243">
        <ele>230.60000610352</ele>
        <time>2021-04-05T11:20:49.000Z</time>
      </trkpt>
      <trkpt lat="46.46469" lon="5.32251">
        <ele>230.60000610352</ele>
        <time>2021-04-05T11:20:50.000Z</time>
      </trkpt>
      <trkpt lat="46.46461" lon="5.32266">
        <ele>230.60000610352</ele>
        <time>2021-04-05T11:20:52.000Z</time>
      </trkpt>
      <trkpt lat="46.46453" lon="5.32281">
        <ele>230.80000305176</ele>
        <time>2021-04-05T11:20:54.000Z</time>
      </trkpt>
      <trkpt lat="46.46445" lon="5.32296">
        <ele>230.80000305176</ele>
        <time>2021-04-05T11:20:56.000Z</time>
      </trkpt>
      <trkpt lat="46.46433" lon="5.32318">
        <ele>231</ele>
        <time>2021-04-05T11:20:59.000Z</time>
      </trkpt>
      <trkpt lat="46.46425" lon="5.32333">
        <ele>231</ele>
        <time>2021-04-05T11:21:01.000Z</time>
      </trkpt>
      <trkpt lat="46.46421" lon="5.32341">
        <ele>231.19999694824</ele>
        <time>2021-04-05T11:21:02.000Z</time>
      </trkpt>
      <trkpt lat="46.46413" lon="5.32355">
        <ele>231.19999694824</ele>
        <time>2021-04-05T11:21:04.000Z</time>
      </trkpt>
      <trkpt lat="46.46401" lon="5.32377">
        <ele>231.19999694824</ele>
        <time>2021-04-05T11:21:07.000Z</time>
      </trkpt>
      <trkpt lat="46.46393" lon="5.32391">
        <ele>231.19999694824</ele>
        <time>2021-04-05T11:21:09.000Z</time>
      </trkpt>
      <trkpt lat="46.46389" lon="5.32398">
        <ele>231.39999389648</ele>
        <time>2021-04-05T11:21:10.000Z</time>
      </trkpt>
      <trkpt lat="46.46386" lon="5.32406">
        <ele>231.39999389648</ele>
        <time>2021-04-05T11:21:11.000Z</time>
      </trkpt>
      <trkpt lat="46.4638" lon="5.32423">
        <ele>231.39999389648</ele>
        <time>2021-04-05T11:21:13.000Z</time>
      </trkpt>
      <trkpt lat="46.46374" lon="5.32439">
        <ele>231.39999389648</ele>
        <time>2021-04-05T11:21:15.000Z</time>
      </trkpt>
      <trkpt lat="46.46368" lon="5.32456">
        <ele>231.39999389648</ele>
        <time>2021-04-05T11:21:17.000Z</time>
      </trkpt>
      <trkpt lat="46.46361" lon="5.32472">
        <ele>231.39999389648</ele>
        <time>2021-04-05T11:21:19.000Z</time>
      </trkpt>
      <trkpt lat="46.46358" lon="5.32481">
        <ele>231.19999694824</ele>
        <time>2021-04-05T11:21:20.000Z</time>
      </trkpt>
      <trkpt lat="46.46352" lon="5.32497">
        <ele>231.19999694824</ele>
        <time>2021-04-05T11:21:22.000Z</time>
      </trkpt>
      <trkpt lat="46.46342" lon="5.32522">
        <ele>231.19999694824</ele>
        <time>2021-04-05T11:21:25.000Z</time>
      </trkpt>
      <trkpt lat="46.46335" lon="5.32539">
        <ele>231.19999694824</ele>
        <time>2021-04-05T11:21:27.000Z</time>
      </trkpt>
      <trkpt lat="46.46332" lon="5.32549">
        <ele>231.19999694824</ele>
        <time>2021-04-05T11:21:28.000Z</time>
      </trkpt>
      <trkpt lat="46.46325" lon="5.32577">
        <ele>231</ele>
        <time>2021-04-05T11:21:31.000Z</time>
      </trkpt>
      <trkpt lat="46.46322" lon="5.32598">
        <ele>231</ele>
        <time>2021-04-05T11:21:33.000Z</time>
      </trkpt>
      <trkpt lat="46.4632" lon="5.32608">
        <ele>230.80000305176</ele>
        <time>2021-04-05T11:21:34.000Z</time>
      </trkpt>
      <trkpt lat="46.4632" lon="5.32628">
        <ele>230.80000305176</ele>
        <time>2021-04-05T11:21:36.000Z</time>
      </trkpt>
      <trkpt lat="46.4632" lon="5.32648">
        <ele>230.80000305176</ele>
        <time>2021-04-05T11:21:38.000Z</time>
      </trkpt>
      <trkpt lat="46.4632" lon="5.32679">
        <ele>230.60000610352</ele>
        <time>2021-04-05T11:21:41.000Z</time>
      </trkpt>
      <trkpt lat="46.46321" lon="5.327">
        <ele>230.60000610352</ele>
        <time>2021-04-05T11:21:43.000Z</time>
      </trkpt>
      <trkpt lat="46.46321" lon="5.3272">
        <ele>230.60000610352</ele>
        <time>2021-04-05T11:21:45.000Z</time>
      </trkpt>
      <trkpt lat="46.46321" lon="5.3274">
        <ele>230.60000610352</ele>
        <time>2021-04-05T11:21:47.000Z</time>
      </trkpt>
      <trkpt lat="46.4632" lon="5.3275">
        <ele>230.60000610352</ele>
        <time>2021-04-05T11:21:48.000Z</time>
      </trkpt>
      <trkpt lat="46.46319" lon="5.3276">
        <ele>230.60000610352</ele>
        <time>2021-04-05T11:21:49.000Z</time>
      </trkpt>
      <trkpt lat="46.46317" lon="5.3277">
        <ele>230.60000610352</ele>
        <time>2021-04-05T11:21:50.000Z</time>
      </trkpt>
      <trkpt lat="46.46314" lon="5.32779">
        <ele>230.60000610352</ele>
        <time>2021-04-05T11:21:51.000Z</time>
      </trkpt>
      <trkpt lat="46.46308" lon="5.32797">
        <ele>230.80000305176</ele>
        <time>2021-04-05T11:21:53.000Z</time>
      </trkpt>
      <trkpt lat="46.46299" lon="5.32812">
        <ele>231</ele>
        <time>2021-04-05T11:21:55.000Z</time>
      </trkpt>
      <trkpt lat="46.46294" lon="5.32819">
        <ele>231</ele>
        <time>2021-04-05T11:21:56.000Z</time>
      </trkpt>
      <trkpt lat="46.46289" lon="5.32827">
        <ele>231</ele>
        <time>2021-04-05T11:21:57.000Z</time>
      </trkpt>
      <trkpt lat="46.46284" lon="5.32833">
        <ele>231.19999694824</ele>
        <time>2021-04-05T11:21:58.000Z</time>
      </trkpt>
      <trkpt lat="46.46279" lon="5.32839">
        <ele>231.19999694824</ele>
        <time>2021-04-05T11:21:59.000Z</time>
      </trkpt>
      <trkpt lat="46.46268" lon="5.32852">
        <ele>231.60000610352</ele>
        <time>2021-04-05T11:22:01.000Z</time>
      </trkpt>
      <trkpt lat="46.46253" lon="5.32874">
        <ele>231.60000610352</ele>
        <time>2021-04-05T11:22:04.000Z</time>
      </trkpt>
      <trkpt lat="46.46243" lon="5.32889">
        <ele>231.60000610352</ele>
        <time>2021-04-05T11:22:06.000Z</time>
      </trkpt>
      <trkpt lat="46.46233" lon="5.32905">
        <ele>231.39999389648</ele>
        <time>2021-04-05T11:22:08.000Z</time>
      </trkpt>
      <trkpt lat="46.46223" lon="5.3292">
        <ele>231.39999389648</ele>
        <time>2021-04-05T11:22:10.000Z</time>
      </trkpt>
      <trkpt lat="46.46212" lon="5.32935">
        <ele>231</ele>
        <time>2021-04-05T11:22:12.000Z</time>
      </trkpt>
      <trkpt lat="46.46201" lon="5.32948">
        <ele>230.80000305176</ele>
        <time>2021-04-05T11:22:14.000Z</time>
      </trkpt>
      <trkpt lat="46.46195" lon="5.32953">
        <ele>230.80000305176</ele>
        <time>2021-04-05T11:22:15.000Z</time>
      </trkpt>
      <trkpt lat="46.46183" lon="5.32962">
        <ele>230.60000610352</ele>
        <time>2021-04-05T11:22:17.000Z</time>
      </trkpt>
      <trkpt lat="46.46177" lon="5.32966">
        <ele>230.39999389648</ele>
        <time>2021-04-05T11:22:18.000Z</time>
      </trkpt>
      <trkpt lat="46.46171" lon="5.3297">
        <ele>230.39999389648</ele>
        <time>2021-04-05T11:22:19.000Z</time>
      </trkpt>
      <trkpt lat="46.46159" lon="5.32976">
        <ele>230.39999389648</ele>
        <time>2021-04-05T11:22:21.000Z</time>
      </trkpt>
      <trkpt lat="46.46149" lon="5.32983">
        <ele>230.19999694824</ele>
        <time>2021-04-05T11:22:23.000Z</time>
      </trkpt>
      <trkpt lat="46.46138" lon="5.32989">
        <ele>230.19999694824</ele>
        <time>2021-04-05T11:22:25.000Z</time>
      </trkpt>
      <trkpt lat="46.46128" lon="5.32995">
        <ele>230.39999389648</ele>
        <time>2021-04-05T11:22:27.000Z</time>
      </trkpt>
      <trkpt lat="46.46119" lon="5.33">
        <ele>230.39999389648</ele>
        <time>2021-04-05T11:22:29.000Z</time>
      </trkpt>
      <trkpt lat="46.46109" lon="5.33005">
        <ele>230.60000610352</ele>
        <time>2021-04-05T11:22:31.000Z</time>
      </trkpt>
      <trkpt lat="46.46105" lon="5.33007">
        <ele>230.80000305176</ele>
        <time>2021-04-05T11:22:32.000Z</time>
      </trkpt>
      <trkpt lat="46.461" lon="5.3301">
        <ele>231.19999694824</ele>
        <time>2021-04-05T11:22:33.000Z</time>
      </trkpt>
      <trkpt lat="46.46095" lon="5.33013">
        <ele>231.60000610352</ele>
        <time>2021-04-05T11:22:34.000Z</time>
      </trkpt>
      <trkpt lat="46.4608" lon="5.33024">
        <ele>231.80000305176</ele>
        <time>2021-04-05T11:22:37.000Z</time>
      </trkpt>
      <trkpt lat="46.46074" lon="5.33029">
        <ele>231.80000305176</ele>
        <time>2021-04-05T11:22:38.000Z</time>
      </trkpt>
      <trkpt lat="46.46069" lon="5.33034">
        <ele>232</ele>
        <time>2021-04-05T11:22:39.000Z</time>
      </trkpt>
      <trkpt lat="46.46058" lon="5.33045">
        <ele>232</ele>
        <time>2021-04-05T11:22:41.000Z</time>
      </trkpt>
      <trkpt lat="46.46047" lon="5.33055">
        <ele>232.19999694824</ele>
        <time>2021-04-05T11:22:43.000Z</time>
      </trkpt>
      <trkpt lat="46.46036" lon="5.33066">
        <ele>232.19999694824</ele>
        <time>2021-04-05T11:22:45.000Z</time>
      </trkpt>
      <trkpt lat="46.46024" lon="5.33077">
        <ele>232.19999694824</ele>
        <time>2021-04-05T11:22:47.000Z</time>
      </trkpt>
      <trkpt lat="46.46018" lon="5.33082">
        <ele>232.19999694824</ele>
        <time>2021-04-05T11:22:48.000Z</time>
      </trkpt>
      <trkpt lat="46.46012" lon="5.33088">
        <ele>232.19999694824</ele>
        <time>2021-04-05T11:22:49.000Z</time>
      </trkpt>
      <trkpt lat="46.46001" lon="5.331">
        <ele>232.39999389648</ele>
        <time>2021-04-05T11:22:51.000Z</time>
      </trkpt>
      <trkpt lat="46.4599" lon="5.33111">
        <ele>232.39999389648</ele>
        <time>2021-04-05T11:22:53.000Z</time>
      </trkpt>
      <trkpt lat="46.45979" lon="5.33123">
        <ele>232.39999389648</ele>
        <time>2021-04-05T11:22:55.000Z</time>
      </trkpt>
      <trkpt lat="46.45967" lon="5.33134">
        <ele>232.39999389648</ele>
        <time>2021-04-05T11:22:57.000Z</time>
      </trkpt>
      <trkpt lat="46.45956" lon="5.33146">
        <ele>232.39999389648</ele>
        <time>2021-04-05T11:22:59.000Z</time>
      </trkpt>
      <trkpt lat="46.45945" lon="5.33158">
        <ele>232.39999389648</ele>
        <time>2021-04-05T11:23:01.000Z</time>
      </trkpt>
      <trkpt lat="46.45935" lon="5.33169">
        <ele>232.60000610352</ele>
        <time>2021-04-05T11:23:03.000Z</time>
      </trkpt>
      <trkpt lat="46.45924" lon="5.33181">
        <ele>232.80000305176</ele>
        <time>2021-04-05T11:23:05.000Z</time>
      </trkpt>
      <trkpt lat="46.45914" lon="5.33193">
        <ele>233.19999694824</ele>
        <time>2021-04-05T11:23:07.000Z</time>
      </trkpt>
      <trkpt lat="46.45903" lon="5.33204">
        <ele>233.39999389648</ele>
        <time>2021-04-05T11:23:09.000Z</time>
      </trkpt>
      <trkpt lat="46.45898" lon="5.3321">
        <ele>233.60000610352</ele>
        <time>2021-04-05T11:23:10.000Z</time>
      </trkpt>
      <trkpt lat="46.45892" lon="5.33216">
        <ele>233.60000610352</ele>
        <time>2021-04-05T11:23:11.000Z</time>
      </trkpt>
      <trkpt lat="46.45887" lon="5.33222">
        <ele>233.80000305176</ele>
        <time>2021-04-05T11:23:12.000Z</time>
      </trkpt>
      <trkpt lat="46.45882" lon="5.33228">
        <ele>233.80000305176</ele>
        <time>2021-04-05T11:23:13.000Z</time>
      </trkpt>
      <trkpt lat="46.45872" lon="5.33241">
        <ele>233.80000305176</ele>
        <time>2021-04-05T11:23:15.000Z</time>
      </trkpt>
      <trkpt lat="46.45862" lon="5.33254">
        <ele>234</ele>
        <time>2021-04-05T11:23:17.000Z</time>
      </trkpt>
      <trkpt lat="46.45853" lon="5.33269">
        <ele>234</ele>
        <time>2021-04-05T11:23:19.000Z</time>
      </trkpt>
      <trkpt lat="46.45844" lon="5.33284">
        <ele>234.19999694824</ele>
        <time>2021-04-05T11:23:21.000Z</time>
      </trkpt>
      <trkpt lat="46.45836" lon="5.33299">
        <ele>234.19999694824</ele>
        <time>2021-04-05T11:23:23.000Z</time>
      </trkpt>
      <trkpt lat="46.45828" lon="5.33315">
        <ele>234.39999389648</ele>
        <time>2021-04-05T11:23:25.000Z</time>
      </trkpt>
      <trkpt lat="46.4582" lon="5.3333">
        <ele>234.60000610352</ele>
        <time>2021-04-05T11:23:27.000Z</time>
      </trkpt>
      <trkpt lat="46.45816" lon="5.33338">
        <ele>234.60000610352</ele>
        <time>2021-04-05T11:23:28.000Z</time>
      </trkpt>
      <trkpt lat="46.45812" lon="5.33346">
        <ele>234.60000610352</ele>
        <time>2021-04-05T11:23:29.000Z</time>
      </trkpt>
      <trkpt lat="46.45804" lon="5.33362">
        <ele>234.80000305176</ele>
        <time>2021-04-05T11:23:31.000Z</time>
      </trkpt>
      <trkpt lat="46.45796" lon="5.33378">
        <ele>234.80000305176</ele>
        <time>2021-04-05T11:23:33.000Z</time>
      </trkpt>
      <trkpt lat="46.45788" lon="5.33394">
        <ele>234.80000305176</ele>
        <time>2021-04-05T11:23:35.000Z</time>
      </trkpt>
      <trkpt lat="46.45781" lon="5.3341">
        <ele>234.80000305176</ele>
        <time>2021-04-05T11:23:37.000Z</time>
      </trkpt>
      <trkpt lat="46.45774" lon="5.33425">
        <ele>235</ele>
        <time>2021-04-05T11:23:39.000Z</time>
      </trkpt>
      <trkpt lat="46.45768" lon="5.33441">
        <ele>235</ele>
        <time>2021-04-05T11:23:41.000Z</time>
      </trkpt>
      <trkpt lat="46.45761" lon="5.33456">
        <ele>235</ele>
        <time>2021-04-05T11:23:43.000Z</time>
      </trkpt>
      <trkpt lat="46.45754" lon="5.33472">
        <ele>235</ele>
        <time>2021-04-05T11:23:45.000Z</time>
      </trkpt>
      <trkpt lat="46.45748" lon="5.33488">
        <ele>235</ele>
        <time>2021-04-05T11:23:47.000Z</time>
      </trkpt>
      <trkpt lat="46.45741" lon="5.33504">
        <ele>235</ele>
        <time>2021-04-05T11:23:49.000Z</time>
      </trkpt>
      <trkpt lat="46.45738" lon="5.33512">
        <ele>235.19999694824</ele>
        <time>2021-04-05T11:23:50.000Z</time>
      </trkpt>
      <trkpt lat="46.45728" lon="5.33536">
        <ele>235.19999694824</ele>
        <time>2021-04-05T11:23:53.000Z</time>
      </trkpt>
      <trkpt lat="46.45723" lon="5.33552">
        <ele>235.19999694824</ele>
        <time>2021-04-05T11:23:55.000Z</time>
      </trkpt>
      <trkpt lat="46.45716" lon="5.33566">
        <ele>235.19999694824</ele>
        <time>2021-04-05T11:23:57.000Z</time>
      </trkpt>
      <trkpt lat="46.45713" lon="5.33572">
        <ele>235.19999694824</ele>
        <time>2021-04-05T11:23:58.000Z</time>
      </trkpt>
      <trkpt lat="46.4571" lon="5.33578">
        <ele>235.39999389648</ele>
        <time>2021-04-05T11:23:59.000Z</time>
      </trkpt>
      <trkpt lat="46.45705" lon="5.33591">
        <ele>236</ele>
        <time>2021-04-05T11:24:01.000Z</time>
      </trkpt>
      <trkpt lat="46.45697" lon="5.33611">
        <ele>236.80000305176</ele>
        <time>2021-04-05T11:24:04.000Z</time>
      </trkpt>
      <trkpt lat="46.45693" lon="5.33618">
        <ele>237</ele>
        <time>2021-04-05T11:24:05.000Z</time>
      </trkpt>
      <trkpt lat="46.4569" lon="5.33625">
        <ele>237.19999694824</ele>
        <time>2021-04-05T11:24:06.000Z</time>
      </trkpt>
      <trkpt lat="46.45684" lon="5.3364">
        <ele>237.80000305176</ele>
        <time>2021-04-05T11:24:08.000Z</time>
      </trkpt>
      <trkpt lat="46.45678" lon="5.33656">
        <ele>238.19999694824</ele>
        <time>2021-04-05T11:24:10.000Z</time>
      </trkpt>
      <trkpt lat="46.45675" lon="5.33663">
        <ele>238.39999389648</ele>
        <time>2021-04-05T11:24:11.000Z</time>
      </trkpt>
      <trkpt lat="46.45672" lon="5.3367">
        <ele>238.60000610352</ele>
        <time>2021-04-05T11:24:12.000Z</time>
      </trkpt>
      <trkpt lat="46.45667" lon="5.33685">
        <ele>238.80000305176</ele>
        <time>2021-04-05T11:24:14.000Z</time>
      </trkpt>
      <trkpt lat="46.45661" lon="5.337">
        <ele>239</ele>
        <time>2021-04-05T11:24:16.000Z</time>
      </trkpt>
      <trkpt lat="46.45655" lon="5.33715">
        <ele>239.19999694824</ele>
        <time>2021-04-05T11:24:18.000Z</time>
      </trkpt>
      <trkpt lat="46.45652" lon="5.33722">
        <ele>239.39999389648</ele>
        <time>2021-04-05T11:24:19.000Z</time>
      </trkpt>
      <trkpt lat="46.45649" lon="5.33729">
        <ele>239.39999389648</ele>
        <time>2021-04-05T11:24:20.000Z</time>
      </trkpt>
      <trkpt lat="46.45644" lon="5.33742">
        <ele>239.80000305176</ele>
        <time>2021-04-05T11:24:22.000Z</time>
      </trkpt>
      <trkpt lat="46.45638" lon="5.33755">
        <ele>240</ele>
        <time>2021-04-05T11:24:24.000Z</time>
      </trkpt>
      <trkpt lat="46.45632" lon="5.33768">
        <ele>240.19999694824</ele>
        <time>2021-04-05T11:24:26.000Z</time>
      </trkpt>
      <trkpt lat="46.45627" lon="5.33782">
        <ele>240.39999389648</ele>
        <time>2021-04-05T11:24:28.000Z</time>
      </trkpt>
      <trkpt lat="46.45622" lon="5.33795">
        <ele>240.80000305176</ele>
        <time>2021-04-05T11:24:30.000Z</time>
      </trkpt>
      <trkpt lat="46.45617" lon="5.33808">
        <ele>241.19999694824</ele>
        <time>2021-04-05T11:24:32.000Z</time>
      </trkpt>
      <trkpt lat="46.45614" lon="5.33815">
        <ele>241.39999389648</ele>
        <time>2021-04-05T11:24:33.000Z</time>
      </trkpt>
      <trkpt lat="46.45611" lon="5.3382">
        <ele>241.19999694824</ele>
        <time>2021-04-05T11:24:34.000Z</time>
      </trkpt>
      <trkpt lat="46.45606" lon="5.33833">
        <ele>241.39999389648</ele>
        <time>2021-04-05T11:24:36.000Z</time>
      </trkpt>
      <trkpt lat="46.456" lon="5.33846">
        <ele>241.60000610352</ele>
        <time>2021-04-05T11:24:38.000Z</time>
      </trkpt>
      <trkpt lat="46.45594" lon="5.3386">
        <ele>241.80000305176</ele>
        <time>2021-04-05T11:24:40.000Z</time>
      </trkpt>
      <trkpt lat="46.45591" lon="5.33867">
        <ele>242</ele>
        <time>2021-04-05T11:24:41.000Z</time>
      </trkpt>
      <trkpt lat="46.45588" lon="5.33873">
        <ele>242.39999389648</ele>
        <time>2021-04-05T11:24:42.000Z</time>
      </trkpt>
      <trkpt lat="46.45582" lon="5.33886">
        <ele>242.80000305176</ele>
        <time>2021-04-05T11:24:44.000Z</time>
      </trkpt>
      <trkpt lat="46.45577" lon="5.33897">
        <ele>243</ele>
        <time>2021-04-05T11:24:46.000Z</time>
      </trkpt>
      <trkpt lat="46.45572" lon="5.33909">
        <ele>243.19999694824</ele>
        <time>2021-04-05T11:24:48.000Z</time>
      </trkpt>
      <trkpt lat="46.4557" lon="5.33915">
        <ele>243.39999389648</ele>
        <time>2021-04-05T11:24:49.000Z</time>
      </trkpt>
      <trkpt lat="46.45567" lon="5.33921">
        <ele>243.39999389648</ele>
        <time>2021-04-05T11:24:50.000Z</time>
      </trkpt>
      <trkpt lat="46.45562" lon="5.33933">
        <ele>243.80000305176</ele>
        <time>2021-04-05T11:24:52.000Z</time>
      </trkpt>
      <trkpt lat="46.45556" lon="5.33944">
        <ele>244</ele>
        <time>2021-04-05T11:24:54.000Z</time>
      </trkpt>
      <trkpt lat="46.45554" lon="5.33949">
        <ele>244.39999389648</ele>
        <time>2021-04-05T11:24:55.000Z</time>
      </trkpt>
      <trkpt lat="46.45551" lon="5.33954">
        <ele>244.80000305176</ele>
        <time>2021-04-05T11:24:56.000Z</time>
      </trkpt>
      <trkpt lat="46.45545" lon="5.33963">
        <ele>245.39999389648</ele>
        <time>2021-04-05T11:24:58.000Z</time>
      </trkpt>
      <trkpt lat="46.45542" lon="5.33967">
        <ele>245.39999389648</ele>
        <time>2021-04-05T11:24:59.000Z</time>
      </trkpt>
      <trkpt lat="46.4554" lon="5.33973">
        <ele>245.60000610352</ele>
        <time>2021-04-05T11:25:00.000Z</time>
      </trkpt>
      <trkpt lat="46.4554" lon="5.33978">
        <ele>246</ele>
        <time>2021-04-05T11:25:01.000Z</time>
      </trkpt>
      <trkpt lat="46.45541" lon="5.33982">
        <ele>246.19999694824</ele>
        <time>2021-04-05T11:25:02.000Z</time>
      </trkpt>
      <trkpt lat="46.45542" lon="5.33987">
        <ele>246.60000610352</ele>
        <time>2021-04-05T11:25:03.000Z</time>
      </trkpt>
      <trkpt lat="46.45545" lon="5.3399">
        <ele>247</ele>
        <time>2021-04-05T11:25:04.000Z</time>
      </trkpt>
      <trkpt lat="46.45547" lon="5.33993">
        <ele>247.19999694824</ele>
        <time>2021-04-05T11:25:05.000Z</time>
      </trkpt>
      <trkpt lat="46.4555" lon="5.33996">
        <ele>247.19999694824</ele>
        <time>2021-04-05T11:25:06.000Z</time>
      </trkpt>
      <trkpt lat="46.45554" lon="5.34002">
        <ele>247.80000305176</ele>
        <time>2021-04-05T11:25:08.000Z</time>
      </trkpt>
      <trkpt lat="46.45555" lon="5.34003">
        <ele>248</ele>
        <time>2021-04-05T11:25:09.000Z</time>
      </trkpt>
      <trkpt lat="46.45556" lon="5.34004">
        <ele>248.19999694824</ele>
        <time>2021-04-05T11:25:10.000Z</time>
      </trkpt>
      <trkpt lat="46.45557" lon="5.34004">
        <ele>248.19999694824</ele>
        <time>2021-04-05T11:25:12.000Z</time>
      </trkpt>
      <trkpt lat="46.45555" lon="5.34001">
        <ele>248.80000305176</ele>
        <time>2021-04-05T11:25:54.000Z</time>
      </trkpt>
      <trkpt lat="46.4555" lon="5.33995">
        <ele>248.80000305176</ele>
        <time>2021-04-05T11:25:56.000Z</time>
      </trkpt>
      <trkpt lat="46.45547" lon="5.33992">
        <ele>248.80000305176</ele>
        <time>2021-04-05T11:25:57.000Z</time>
      </trkpt>
      <trkpt lat="46.45543" lon="5.33989">
        <ele>248.80000305176</ele>
        <time>2021-04-05T11:25:58.000Z</time>
      </trkpt>
      <trkpt lat="46.45534" lon="5.33987">
        <ele>248.80000305176</ele>
        <time>2021-04-05T11:26:00.000Z</time>
      </trkpt>
      <trkpt lat="46.45524" lon="5.33991">
        <ele>248.60000610352</ele>
        <time>2021-04-05T11:26:02.000Z</time>
      </trkpt>
      <trkpt lat="46.45516" lon="5.33997">
        <ele>248.60000610352</ele>
        <time>2021-04-05T11:26:04.000Z</time>
      </trkpt>
      <trkpt lat="46.45511" lon="5.34">
        <ele>248.60000610352</ele>
        <time>2021-04-05T11:26:05.000Z</time>
      </trkpt>
      <trkpt lat="46.45507" lon="5.34003">
        <ele>248.60000610352</ele>
        <time>2021-04-05T11:26:06.000Z</time>
      </trkpt>
      <trkpt lat="46.45498" lon="5.3401">
        <ele>248.60000610352</ele>
        <time>2021-04-05T11:26:08.000Z</time>
      </trkpt>
      <trkpt lat="46.4549" lon="5.34016">
        <ele>248.60000610352</ele>
        <time>2021-04-05T11:26:10.000Z</time>
      </trkpt>
      <trkpt lat="46.45481" lon="5.3402">
        <ele>248.60000610352</ele>
        <time>2021-04-05T11:26:12.000Z</time>
      </trkpt>
      <trkpt lat="46.45477" lon="5.34022">
        <ele>248.60000610352</ele>
        <time>2021-04-05T11:26:13.000Z</time>
      </trkpt>
      <trkpt lat="46.45474" lon="5.34023">
        <ele>248.80000305176</ele>
        <time>2021-04-05T11:26:14.000Z</time>
      </trkpt>
      <trkpt lat="46.45467" lon="5.34025">
        <ele>249.19999694824</ele>
        <time>2021-04-05T11:26:16.000Z</time>
      </trkpt>
      <trkpt lat="46.4546" lon="5.34026">
        <ele>249.60000610352</ele>
        <time>2021-04-05T11:26:18.000Z</time>
      </trkpt>
      <trkpt lat="46.45454" lon="5.34027">
        <ele>250</ele>
        <time>2021-04-05T11:26:20.000Z</time>
      </trkpt>
      <trkpt lat="46.45447" lon="5.34029">
        <ele>250.80000305176</ele>
        <time>2021-04-05T11:26:22.000Z</time>
      </trkpt>
      <trkpt lat="46.45443" lon="5.34029">
        <ele>251</ele>
        <time>2021-04-05T11:26:23.000Z</time>
      </trkpt>
      <trkpt lat="46.4544" lon="5.34029">
        <ele>251.19999694824</ele>
        <time>2021-04-05T11:26:24.000Z</time>
      </trkpt>
      <trkpt lat="46.45433" lon="5.3403">
        <ele>251.39999389648</ele>
        <time>2021-04-05T11:26:26.000Z</time>
      </trkpt>
      <trkpt lat="46.45425" lon="5.34031">
        <ele>251.80000305176</ele>
        <time>2021-04-05T11:26:28.000Z</time>
      </trkpt>
      <trkpt lat="46.45415" lon="5.34032">
        <ele>252.19999694824</ele>
        <time>2021-04-05T11:26:30.000Z</time>
      </trkpt>
      <trkpt lat="46.4541" lon="5.34033">
        <ele>252.39999389648</ele>
        <time>2021-04-05T11:26:31.000Z</time>
      </trkpt>
      <trkpt lat="46.45404" lon="5.34035">
        <ele>252.60000610352</ele>
        <time>2021-04-05T11:26:32.000Z</time>
      </trkpt>
      <trkpt lat="46.45391" lon="5.34037">
        <ele>253</ele>
        <time>2021-04-05T11:26:34.000Z</time>
      </trkpt>
      <trkpt lat="46.45381" lon="5.34039">
        <ele>253.39999389648</ele>
        <time>2021-04-05T11:26:36.000Z</time>
      </trkpt>
      <trkpt lat="46.45375" lon="5.34041">
        <ele>253.60000610352</ele>
        <time>2021-04-05T11:26:37.000Z</time>
      </trkpt>
      <trkpt lat="46.45369" lon="5.34042">
        <ele>253.60000610352</ele>
        <time>2021-04-05T11:26:38.000Z</time>
      </trkpt>
      <trkpt lat="46.45358" lon="5.34044">
        <ele>253.80000305176</ele>
        <time>2021-04-05T11:26:40.000Z</time>
      </trkpt>
      <trkpt lat="46.45352" lon="5.34045">
        <ele>254.19999694824</ele>
        <time>2021-04-05T11:26:41.000Z</time>
      </trkpt>
      <trkpt lat="46.45346" lon="5.34046">
        <ele>254.19999694824</ele>
        <time>2021-04-05T11:26:42.000Z</time>
      </trkpt>
      <trkpt lat="46.45335" lon="5.34048">
        <ele>254.60000610352</ele>
        <time>2021-04-05T11:26:44.000Z</time>
      </trkpt>
      <trkpt lat="46.45329" lon="5.34049">
        <ele>254.60000610352</ele>
        <time>2021-04-05T11:26:45.000Z</time>
      </trkpt>
      <trkpt lat="46.45323" lon="5.34051">
        <ele>254.80000305176</ele>
        <time>2021-04-05T11:26:46.000Z</time>
      </trkpt>
      <trkpt lat="46.45311" lon="5.34053">
        <ele>255.19999694824</ele>
        <time>2021-04-05T11:26:48.000Z</time>
      </trkpt>
      <trkpt lat="46.45296" lon="5.34059">
        <ele>255.60000610352</ele>
        <time>2021-04-05T11:26:50.000Z</time>
      </trkpt>
      <trkpt lat="46.45282" lon="5.34063">
        <ele>255.80000305176</ele>
        <time>2021-04-05T11:26:52.000Z</time>
      </trkpt>
      <trkpt lat="46.4527" lon="5.34066">
        <ele>255.80000305176</ele>
        <time>2021-04-05T11:26:54.000Z</time>
      </trkpt>
      <trkpt lat="46.45258" lon="5.34068">
        <ele>255.80000305176</ele>
        <time>2021-04-05T11:26:56.000Z</time>
      </trkpt>
      <trkpt lat="46.45245" lon="5.34072">
        <ele>256</ele>
        <time>2021-04-05T11:26:58.000Z</time>
      </trkpt>
      <trkpt lat="46.45233" lon="5.34075">
        <ele>256</ele>
        <time>2021-04-05T11:27:00.000Z</time>
      </trkpt>
      <trkpt lat="46.45222" lon="5.34078">
        <ele>256</ele>
        <time>2021-04-05T11:27:02.000Z</time>
      </trkpt>
      <trkpt lat="46.4521" lon="5.34081">
        <ele>256.20001220703</ele>
        <time>2021-04-05T11:27:04.000Z</time>
      </trkpt>
      <trkpt lat="46.452" lon="5.34083">
        <ele>256.39999389648</ele>
        <time>2021-04-05T11:27:06.000Z</time>
      </trkpt>
      <trkpt lat="46.45189" lon="5.34086">
        <ele>256.39999389648</ele>
        <time>2021-04-05T11:27:08.000Z</time>
      </trkpt>
      <trkpt lat="46.45178" lon="5.34088">
        <ele>256.60000610352</ele>
        <time>2021-04-05T11:27:10.000Z</time>
      </trkpt>
      <trkpt lat="46.45173" lon="5.3409">
        <ele>256.60000610352</ele>
        <time>2021-04-05T11:27:11.000Z</time>
      </trkpt>
      <trkpt lat="46.45167" lon="5.34091">
        <ele>256.79998779297</ele>
        <time>2021-04-05T11:27:12.000Z</time>
      </trkpt>
      <trkpt lat="46.45156" lon="5.34094">
        <ele>257</ele>
        <time>2021-04-05T11:27:14.000Z</time>
      </trkpt>
      <trkpt lat="46.45145" lon="5.34097">
        <ele>257.39999389648</ele>
        <time>2021-04-05T11:27:16.000Z</time>
      </trkpt>
      <trkpt lat="46.45134" lon="5.34099">
        <ele>258.20001220703</ele>
        <time>2021-04-05T11:27:18.000Z</time>
      </trkpt>
      <trkpt lat="46.45123" lon="5.34102">
        <ele>258.39999389648</ele>
        <time>2021-04-05T11:27:20.000Z</time>
      </trkpt>
      <trkpt lat="46.45111" lon="5.34105">
        <ele>258.60000610352</ele>
        <time>2021-04-05T11:27:22.000Z</time>
      </trkpt>
      <trkpt lat="46.45105" lon="5.34106">
        <ele>258.60000610352</ele>
        <time>2021-04-05T11:27:23.000Z</time>
      </trkpt>
      <trkpt lat="46.45098" lon="5.34108">
        <ele>258.60000610352</ele>
        <time>2021-04-05T11:27:24.000Z</time>
      </trkpt>
      <trkpt lat="46.45085" lon="5.34111">
        <ele>258.60000610352</ele>
        <time>2021-04-05T11:27:26.000Z</time>
      </trkpt>
      <trkpt lat="46.45072" lon="5.34113">
        <ele>258.60000610352</ele>
        <time>2021-04-05T11:27:28.000Z</time>
      </trkpt>
      <trkpt lat="46.45058" lon="5.34115">
        <ele>258.60000610352</ele>
        <time>2021-04-05T11:27:30.000Z</time>
      </trkpt>
      <trkpt lat="46.45043" lon="5.34116">
        <ele>258.60000610352</ele>
        <time>2021-04-05T11:27:32.000Z</time>
      </trkpt>
      <trkpt lat="46.45027" lon="5.34117">
        <ele>258.39999389648</ele>
        <time>2021-04-05T11:27:34.000Z</time>
      </trkpt>
      <trkpt lat="46.45011" lon="5.34115">
        <ele>258.20001220703</ele>
        <time>2021-04-05T11:27:36.000Z</time>
      </trkpt>
      <trkpt lat="46.44994" lon="5.34113">
        <ele>257.60000610352</ele>
        <time>2021-04-05T11:27:38.000Z</time>
      </trkpt>
      <trkpt lat="46.44985" lon="5.34111">
        <ele>257.20001220703</ele>
        <time>2021-04-05T11:27:39.000Z</time>
      </trkpt>
      <trkpt lat="46.44977" lon="5.34109">
        <ele>256.79998779297</ele>
        <time>2021-04-05T11:27:40.000Z</time>
      </trkpt>
      <trkpt lat="46.44959" lon="5.34104">
        <ele>255.80000305176</ele>
        <time>2021-04-05T11:27:42.000Z</time>
      </trkpt>
      <trkpt lat="46.44951" lon="5.34102">
        <ele>255.39999389648</ele>
        <time>2021-04-05T11:27:43.000Z</time>
      </trkpt>
      <trkpt lat="46.44942" lon="5.34099">
        <ele>255</ele>
        <time>2021-04-05T11:27:44.000Z</time>
      </trkpt>
      <trkpt lat="46.44934" lon="5.34097">
        <ele>254.60000610352</ele>
        <time>2021-04-05T11:27:45.000Z</time>
      </trkpt>
      <trkpt lat="46.44925" lon="5.34094">
        <ele>254.39999389648</ele>
        <time>2021-04-05T11:27:46.000Z</time>
      </trkpt>
      <trkpt lat="46.44907" lon="5.34089">
        <ele>253</ele>
        <time>2021-04-05T11:27:48.000Z</time>
      </trkpt>
      <trkpt lat="46.44889" lon="5.34085">
        <ele>252.39999389648</ele>
        <time>2021-04-05T11:27:50.000Z</time>
      </trkpt>
      <trkpt lat="46.4488" lon="5.34084">
        <ele>252</ele>
        <time>2021-04-05T11:27:51.000Z</time>
      </trkpt>
      <trkpt lat="46.44871" lon="5.34085">
        <ele>251.80000305176</ele>
        <time>2021-04-05T11:27:52.000Z</time>
      </trkpt>
      <trkpt lat="46.44853" lon="5.34089">
        <ele>250.80000305176</ele>
        <time>2021-04-05T11:27:54.000Z</time>
      </trkpt>
      <trkpt lat="46.44844" lon="5.34094">
        <ele>250.60000610352</ele>
        <time>2021-04-05T11:27:55.000Z</time>
      </trkpt>
      <trkpt lat="46.44835" lon="5.341">
        <ele>250</ele>
        <time>2021-04-05T11:27:56.000Z</time>
      </trkpt>
      <trkpt lat="46.44827" lon="5.34107">
        <ele>249.60000610352</ele>
        <time>2021-04-05T11:27:57.000Z</time>
      </trkpt>
      <trkpt lat="46.4482" lon="5.34116">
        <ele>249.19999694824</ele>
        <time>2021-04-05T11:27:58.000Z</time>
      </trkpt>
      <trkpt lat="46.44813" lon="5.34125">
        <ele>248.60000610352</ele>
        <time>2021-04-05T11:27:59.000Z</time>
      </trkpt>
      <trkpt lat="46.44806" lon="5.34135">
        <ele>248.19999694824</ele>
        <time>2021-04-05T11:28:00.000Z</time>
      </trkpt>
      <trkpt lat="46.448" lon="5.34145">
        <ele>248</ele>
        <time>2021-04-05T11:28:01.000Z</time>
      </trkpt>
      <trkpt lat="46.44795" lon="5.34157">
        <ele>247.80000305176</ele>
        <time>2021-04-05T11:28:02.000Z</time>
      </trkpt>
      <trkpt lat="46.4479" lon="5.34169">
        <ele>247.39999389648</ele>
        <time>2021-04-05T11:28:03.000Z</time>
      </trkpt>
      <trkpt lat="46.44785" lon="5.34182">
        <ele>247</ele>
        <time>2021-04-05T11:28:04.000Z</time>
      </trkpt>
      <trkpt lat="46.44774" lon="5.34206">
        <ele>246.39999389648</ele>
        <time>2021-04-05T11:28:06.000Z</time>
      </trkpt>
      <trkpt lat="46.44768" lon="5.34219">
        <ele>245.80000305176</ele>
        <time>2021-04-05T11:28:07.000Z</time>
      </trkpt>
      <trkpt lat="46.44762" lon="5.3423">
        <ele>245.60000610352</ele>
        <time>2021-04-05T11:28:08.000Z</time>
      </trkpt>
      <trkpt lat="46.44755" lon="5.34241">
        <ele>245.39999389648</ele>
        <time>2021-04-05T11:28:09.000Z</time>
      </trkpt>
      <trkpt lat="46.44747" lon="5.34252">
        <ele>245.39999389648</ele>
        <time>2021-04-05T11:28:10.000Z</time>
      </trkpt>
      <trkpt lat="46.4473" lon="5.34269">
        <ele>244.39999389648</ele>
        <time>2021-04-05T11:28:12.000Z</time>
      </trkpt>
      <trkpt lat="46.4472" lon="5.34275">
        <ele>244</ele>
        <time>2021-04-05T11:28:13.000Z</time>
      </trkpt>
      <trkpt lat="46.4471" lon="5.34279">
        <ele>243.39999389648</ele>
        <time>2021-04-05T11:28:14.000Z</time>
      </trkpt>
      <trkpt lat="46.447" lon="5.34279">
        <ele>243</ele>
        <time>2021-04-05T11:28:15.000Z</time>
      </trkpt>
      <trkpt lat="46.4469" lon="5.34279">
        <ele>242.60000610352</ele>
        <time>2021-04-05T11:28:16.000Z</time>
      </trkpt>
      <trkpt lat="46.4468" lon="5.34279">
        <ele>241.39999389648</ele>
        <time>2021-04-05T11:28:17.000Z</time>
      </trkpt>
      <trkpt lat="46.44672" lon="5.34282">
        <ele>240.60000610352</ele>
        <time>2021-04-05T11:28:18.000Z</time>
      </trkpt>
      <trkpt lat="46.44665" lon="5.34289">
        <ele>239.80000305176</ele>
        <time>2021-04-05T11:28:19.000Z</time>
      </trkpt>
      <trkpt lat="46.4466" lon="5.34297">
        <ele>239</ele>
        <time>2021-04-05T11:28:20.000Z</time>
      </trkpt>
      <trkpt lat="46.44655" lon="5.34302">
        <ele>238</ele>
        <time>2021-04-05T11:28:21.000Z</time>
      </trkpt>
      <trkpt lat="46.44648" lon="5.34304">
        <ele>237</ele>
        <time>2021-04-05T11:28:22.000Z</time>
      </trkpt>
      <trkpt lat="46.44641" lon="5.34301">
        <ele>236.39999389648</ele>
        <time>2021-04-05T11:28:23.000Z</time>
      </trkpt>
      <trkpt lat="46.44635" lon="5.34296">
        <ele>236</ele>
        <time>2021-04-05T11:28:24.000Z</time>
      </trkpt>
      <trkpt lat="46.44629" lon="5.3429">
        <ele>235.60000610352</ele>
        <time>2021-04-05T11:28:25.000Z</time>
      </trkpt>
      <trkpt lat="46.44623" lon="5.34285">
        <ele>235.39999389648</ele>
        <time>2021-04-05T11:28:26.000Z</time>
      </trkpt>
      <trkpt lat="46.44611" lon="5.34274">
        <ele>234.80000305176</ele>
        <time>2021-04-05T11:28:28.000Z</time>
      </trkpt>
      <trkpt lat="46.44599" lon="5.34264">
        <ele>234.60000610352</ele>
        <time>2021-04-05T11:28:30.000Z</time>
      </trkpt>
      <trkpt lat="46.44592" lon="5.3426">
        <ele>234.39999389648</ele>
        <time>2021-04-05T11:28:31.000Z</time>
      </trkpt>
      <trkpt lat="46.44586" lon="5.34256">
        <ele>234.39999389648</ele>
        <time>2021-04-05T11:28:32.000Z</time>
      </trkpt>
      <trkpt lat="46.44579" lon="5.34252">
        <ele>234.19999694824</ele>
        <time>2021-04-05T11:28:33.000Z</time>
      </trkpt>
      <trkpt lat="46.44572" lon="5.34249">
        <ele>234</ele>
        <time>2021-04-05T11:28:34.000Z</time>
      </trkpt>
      <trkpt lat="46.44557" lon="5.34242">
        <ele>233.60000610352</ele>
        <time>2021-04-05T11:28:36.000Z</time>
      </trkpt>
      <trkpt lat="46.44547" lon="5.34225">
        <ele>233.19999694824</ele>
        <time>2021-04-05T11:28:38.000Z</time>
      </trkpt>
      <trkpt lat="46.44545" lon="5.34202">
        <ele>233</ele>
        <time>2021-04-05T11:28:40.000Z</time>
      </trkpt>
      <trkpt lat="46.44545" lon="5.3419">
        <ele>232.80000305176</ele>
        <time>2021-04-05T11:28:41.000Z</time>
      </trkpt>
      <trkpt lat="46.44545" lon="5.34178">
        <ele>232.60000610352</ele>
        <time>2021-04-05T11:28:42.000Z</time>
      </trkpt>
      <trkpt lat="46.44541" lon="5.34155">
        <ele>232.19999694824</ele>
        <time>2021-04-05T11:28:44.000Z</time>
      </trkpt>
      <trkpt lat="46.44538" lon="5.34143">
        <ele>231.80000305176</ele>
        <time>2021-04-05T11:28:45.000Z</time>
      </trkpt>
      <trkpt lat="46.44535" lon="5.34132">
        <ele>231.39999389648</ele>
        <time>2021-04-05T11:28:46.000Z</time>
      </trkpt>
      <trkpt lat="46.44529" lon="5.34109">
        <ele>230.60000610352</ele>
        <time>2021-04-05T11:28:48.000Z</time>
      </trkpt>
      <trkpt lat="46.44522" lon="5.34086">
        <ele>230.19999694824</ele>
        <time>2021-04-05T11:28:50.000Z</time>
      </trkpt>
      <trkpt lat="46.44515" lon="5.34065">
        <ele>229.60000610352</ele>
        <time>2021-04-05T11:28:52.000Z</time>
      </trkpt>
      <trkpt lat="46.44511" lon="5.34054">
        <ele>229.39999389648</ele>
        <time>2021-04-05T11:28:53.000Z</time>
      </trkpt>
      <trkpt lat="46.44507" lon="5.34044">
        <ele>229.19999694824</ele>
        <time>2021-04-05T11:28:54.000Z</time>
      </trkpt>
      <trkpt lat="46.44499" lon="5.34025">
        <ele>228.80000305176</ele>
        <time>2021-04-05T11:28:56.000Z</time>
      </trkpt>
      <trkpt lat="46.44489" lon="5.34007">
        <ele>228.60000610352</ele>
        <time>2021-04-05T11:28:58.000Z</time>
      </trkpt>
      <trkpt lat="46.44484" lon="5.33999">
        <ele>228.39999389648</ele>
        <time>2021-04-05T11:28:59.000Z</time>
      </trkpt>
      <trkpt lat="46.44478" lon="5.33991">
        <ele>228.39999389648</ele>
        <time>2021-04-05T11:29:00.000Z</time>
      </trkpt>
      <trkpt lat="46.44467" lon="5.33977">
        <ele>228</ele>
        <time>2021-04-05T11:29:02.000Z</time>
      </trkpt>
      <trkpt lat="46.44454" lon="5.33964">
        <ele>227.39999389648</ele>
        <time>2021-04-05T11:29:04.000Z</time>
      </trkpt>
      <trkpt lat="46.44441" lon="5.33953">
        <ele>227.19999694824</ele>
        <time>2021-04-05T11:29:06.000Z</time>
      </trkpt>
      <trkpt lat="46.44427" lon="5.33943">
        <ele>227</ele>
        <time>2021-04-05T11:29:08.000Z</time>
      </trkpt>
      <trkpt lat="46.44413" lon="5.33934">
        <ele>227</ele>
        <time>2021-04-05T11:29:10.000Z</time>
      </trkpt>
      <trkpt lat="46.44407" lon="5.3393">
        <ele>227</ele>
        <time>2021-04-05T11:29:11.000Z</time>
      </trkpt>
      <trkpt lat="46.444" lon="5.33924">
        <ele>226.80000305176</ele>
        <time>2021-04-05T11:29:12.000Z</time>
      </trkpt>
      <trkpt lat="46.44388" lon="5.33912">
        <ele>226.80000305176</ele>
        <time>2021-04-05T11:29:14.000Z</time>
      </trkpt>
      <trkpt lat="46.44376" lon="5.339">
        <ele>226.39999389648</ele>
        <time>2021-04-05T11:29:16.000Z</time>
      </trkpt>
      <trkpt lat="46.4437" lon="5.33893">
        <ele>226.19999694824</ele>
        <time>2021-04-05T11:29:17.000Z</time>
      </trkpt>
      <trkpt lat="46.44365" lon="5.33886">
        <ele>226.19999694824</ele>
        <time>2021-04-05T11:29:18.000Z</time>
      </trkpt>
      <trkpt lat="46.44354" lon="5.33872">
        <ele>225.80000305176</ele>
        <time>2021-04-05T11:29:20.000Z</time>
      </trkpt>
      <trkpt lat="46.44344" lon="5.33857">
        <ele>225.60000610352</ele>
        <time>2021-04-05T11:29:22.000Z</time>
      </trkpt>
      <trkpt lat="46.44334" lon="5.33843">
        <ele>225.60000610352</ele>
        <time>2021-04-05T11:29:24.000Z</time>
      </trkpt>
      <trkpt lat="46.44329" lon="5.33836">
        <ele>225.60000610352</ele>
        <time>2021-04-05T11:29:25.000Z</time>
      </trkpt>
      <trkpt lat="46.44323" lon="5.33829">
        <ele>225.60000610352</ele>
        <time>2021-04-05T11:29:26.000Z</time>
      </trkpt>
      <trkpt lat="46.44312" lon="5.33817">
        <ele>225.60000610352</ele>
        <time>2021-04-05T11:29:28.000Z</time>
      </trkpt>
      <trkpt lat="46.44301" lon="5.33805">
        <ele>225.60000610352</ele>
        <time>2021-04-05T11:29:30.000Z</time>
      </trkpt>
      <trkpt lat="46.4429" lon="5.33794">
        <ele>225.60000610352</ele>
        <time>2021-04-05T11:29:32.000Z</time>
      </trkpt>
      <trkpt lat="46.44284" lon="5.33789">
        <ele>225.60000610352</ele>
        <time>2021-04-05T11:29:33.000Z</time>
      </trkpt>
      <trkpt lat="46.44278" lon="5.33784">
        <ele>225.60000610352</ele>
        <time>2021-04-05T11:29:34.000Z</time>
      </trkpt>
      <trkpt lat="46.44266" lon="5.33774">
        <ele>225.60000610352</ele>
        <time>2021-04-05T11:29:36.000Z</time>
      </trkpt>
      <trkpt lat="46.44254" lon="5.33766">
        <ele>225.60000610352</ele>
        <time>2021-04-05T11:29:38.000Z</time>
      </trkpt>
      <trkpt lat="46.44242" lon="5.33758">
        <ele>225.39999389648</ele>
        <time>2021-04-05T11:29:40.000Z</time>
      </trkpt>
      <trkpt lat="46.44236" lon="5.33754">
        <ele>225.39999389648</ele>
        <time>2021-04-05T11:29:41.000Z</time>
      </trkpt>
      <trkpt lat="46.44229" lon="5.3375">
        <ele>225.39999389648</ele>
        <time>2021-04-05T11:29:42.000Z</time>
      </trkpt>
      <trkpt lat="46.44223" lon="5.33746">
        <ele>225.39999389648</ele>
        <time>2021-04-05T11:29:43.000Z</time>
      </trkpt>
      <trkpt lat="46.44217" lon="5.33742">
        <ele>225.19999694824</ele>
        <time>2021-04-05T11:29:44.000Z</time>
      </trkpt>
      <trkpt lat="46.44205" lon="5.33732">
        <ele>225.19999694824</ele>
        <time>2021-04-05T11:29:46.000Z</time>
      </trkpt>
      <trkpt lat="46.44193" lon="5.33722">
        <ele>225.19999694824</ele>
        <time>2021-04-05T11:29:48.000Z</time>
      </trkpt>
      <trkpt lat="46.44187" lon="5.33717">
        <ele>225.19999694824</ele>
        <time>2021-04-05T11:29:49.000Z</time>
      </trkpt>
      <trkpt lat="46.44182" lon="5.33712">
        <ele>225.19999694824</ele>
        <time>2021-04-05T11:29:50.000Z</time>
      </trkpt>
      <trkpt lat="46.44171" lon="5.337">
        <ele>225</ele>
        <time>2021-04-05T11:29:52.000Z</time>
      </trkpt>
      <trkpt lat="46.4416" lon="5.33688">
        <ele>225</ele>
        <time>2021-04-05T11:29:54.000Z</time>
      </trkpt>
      <trkpt lat="46.44149" lon="5.33677">
        <ele>225</ele>
        <time>2021-04-05T11:29:56.000Z</time>
      </trkpt>
      <trkpt lat="46.44138" lon="5.33665">
        <ele>224.80000305176</ele>
        <time>2021-04-05T11:29:58.000Z</time>
      </trkpt>
      <trkpt lat="46.44128" lon="5.33652">
        <ele>224.80000305176</ele>
        <time>2021-04-05T11:30:00.000Z</time>
      </trkpt>
      <trkpt lat="46.44117" lon="5.3364">
        <ele>224.60000610352</ele>
        <time>2021-04-05T11:30:02.000Z</time>
      </trkpt>
      <trkpt lat="46.44106" lon="5.33628">
        <ele>224.60000610352</ele>
        <time>2021-04-05T11:30:04.000Z</time>
      </trkpt>
      <trkpt lat="46.44095" lon="5.33616">
        <ele>224.39999389648</ele>
        <time>2021-04-05T11:30:06.000Z</time>
      </trkpt>
      <trkpt lat="46.44086" lon="5.33602">
        <ele>224.39999389648</ele>
        <time>2021-04-05T11:30:08.000Z</time>
      </trkpt>
      <trkpt lat="46.44082" lon="5.33594">
        <ele>224.39999389648</ele>
        <time>2021-04-05T11:30:09.000Z</time>
      </trkpt>
      <trkpt lat="46.44078" lon="5.33586">
        <ele>224.39999389648</ele>
        <time>2021-04-05T11:30:10.000Z</time>
      </trkpt>
      <trkpt lat="46.44075" lon="5.33577">
        <ele>224.39999389648</ele>
        <time>2021-04-05T11:30:11.000Z</time>
      </trkpt>
      <trkpt lat="46.44072" lon="5.33568">
        <ele>224.19999694824</ele>
        <time>2021-04-05T11:30:12.000Z</time>
      </trkpt>
      <trkpt lat="46.44068" lon="5.33549">
        <ele>224.19999694824</ele>
        <time>2021-04-05T11:30:14.000Z</time>
      </trkpt>
      <trkpt lat="46.44063" lon="5.33531">
        <ele>224.19999694824</ele>
        <time>2021-04-05T11:30:16.000Z</time>
      </trkpt>
      <trkpt lat="46.44058" lon="5.33524">
        <ele>224.19999694824</ele>
        <time>2021-04-05T11:30:17.000Z</time>
      </trkpt>
      <trkpt lat="46.44052" lon="5.33519">
        <ele>224.19999694824</ele>
        <time>2021-04-05T11:30:18.000Z</time>
      </trkpt>
      <trkpt lat="46.44038" lon="5.33514">
        <ele>224.19999694824</ele>
        <time>2021-04-05T11:30:20.000Z</time>
      </trkpt>
      <trkpt lat="46.44023" lon="5.33509">
        <ele>224.19999694824</ele>
        <time>2021-04-05T11:30:22.000Z</time>
      </trkpt>
      <trkpt lat="46.44009" lon="5.33504">
        <ele>224</ele>
        <time>2021-04-05T11:30:24.000Z</time>
      </trkpt>
      <trkpt lat="46.43995" lon="5.33498">
        <ele>224</ele>
        <time>2021-04-05T11:30:26.000Z</time>
      </trkpt>
      <trkpt lat="46.43981" lon="5.33491">
        <ele>223.80000305176</ele>
        <time>2021-04-05T11:30:28.000Z</time>
      </trkpt>
      <trkpt lat="46.43968" lon="5.33483">
        <ele>223.19999694824</ele>
        <time>2021-04-05T11:30:30.000Z</time>
      </trkpt>
      <trkpt lat="46.43955" lon="5.33475">
        <ele>223</ele>
        <time>2021-04-05T11:30:32.000Z</time>
      </trkpt>
      <trkpt lat="46.43942" lon="5.33466">
        <ele>222.80000305176</ele>
        <time>2021-04-05T11:30:34.000Z</time>
      </trkpt>
      <trkpt lat="46.43935" lon="5.33462">
        <ele>222.80000305176</ele>
        <time>2021-04-05T11:30:35.000Z</time>
      </trkpt>
      <trkpt lat="46.43929" lon="5.33458">
        <ele>222.80000305176</ele>
        <time>2021-04-05T11:30:36.000Z</time>
      </trkpt>
      <trkpt lat="46.43915" lon="5.33451">
        <ele>222.80000305176</ele>
        <time>2021-04-05T11:30:38.000Z</time>
      </trkpt>
      <trkpt lat="46.43902" lon="5.33445">
        <ele>222.60000610352</ele>
        <time>2021-04-05T11:30:40.000Z</time>
      </trkpt>
      <trkpt lat="46.43888" lon="5.3344">
        <ele>222.60000610352</ele>
        <time>2021-04-05T11:30:42.000Z</time>
      </trkpt>
      <trkpt lat="46.43882" lon="5.33438">
        <ele>222.39999389648</ele>
        <time>2021-04-05T11:30:43.000Z</time>
      </trkpt>
      <trkpt lat="46.43875" lon="5.33436">
        <ele>222.39999389648</ele>
        <time>2021-04-05T11:30:44.000Z</time>
      </trkpt>
      <trkpt lat="46.43861" lon="5.33432">
        <ele>222.19999694824</ele>
        <time>2021-04-05T11:30:46.000Z</time>
      </trkpt>
      <trkpt lat="46.43854" lon="5.33431">
        <ele>222.19999694824</ele>
        <time>2021-04-05T11:30:47.000Z</time>
      </trkpt>
      <trkpt lat="46.43847" lon="5.33431">
        <ele>222.19999694824</ele>
        <time>2021-04-05T11:30:48.000Z</time>
      </trkpt>
      <trkpt lat="46.43834" lon="5.3343">
        <ele>222.19999694824</ele>
        <time>2021-04-05T11:30:50.000Z</time>
      </trkpt>
      <trkpt lat="46.4382" lon="5.3343">
        <ele>222</ele>
        <time>2021-04-05T11:30:52.000Z</time>
      </trkpt>
      <trkpt lat="46.43807" lon="5.33431">
        <ele>222</ele>
        <time>2021-04-05T11:30:54.000Z</time>
      </trkpt>
      <trkpt lat="46.43793" lon="5.33433">
        <ele>222</ele>
        <time>2021-04-05T11:30:56.000Z</time>
      </trkpt>
      <trkpt lat="46.4378" lon="5.33434">
        <ele>222</ele>
        <time>2021-04-05T11:30:58.000Z</time>
      </trkpt>
      <trkpt lat="46.43768" lon="5.33436">
        <ele>222</ele>
        <time>2021-04-05T11:31:00.000Z</time>
      </trkpt>
      <trkpt lat="46.43755" lon="5.33438">
        <ele>222</ele>
        <time>2021-04-05T11:31:02.000Z</time>
      </trkpt>
      <trkpt lat="46.43742" lon="5.3344">
        <ele>221.80000305176</ele>
        <time>2021-04-05T11:31:04.000Z</time>
      </trkpt>
      <trkpt lat="46.43729" lon="5.33442">
        <ele>221.60000610352</ele>
        <time>2021-04-05T11:31:06.000Z</time>
      </trkpt>
      <trkpt lat="46.43715" lon="5.33443">
        <ele>221.39999389648</ele>
        <time>2021-04-05T11:31:08.000Z</time>
      </trkpt>
      <trkpt lat="46.43709" lon="5.33444">
        <ele>221.39999389648</ele>
        <time>2021-04-05T11:31:09.000Z</time>
      </trkpt>
      <trkpt lat="46.43695" lon="5.33445">
        <ele>221.39999389648</ele>
        <time>2021-04-05T11:31:11.000Z</time>
      </trkpt>
      <trkpt lat="46.43682" lon="5.33445">
        <ele>221.39999389648</ele>
        <time>2021-04-05T11:31:13.000Z</time>
      </trkpt>
      <trkpt lat="46.43669" lon="5.33446">
        <ele>221.39999389648</ele>
        <time>2021-04-05T11:31:15.000Z</time>
      </trkpt>
      <trkpt lat="46.43656" lon="5.33446">
        <ele>221.60000610352</ele>
        <time>2021-04-05T11:31:17.000Z</time>
      </trkpt>
      <trkpt lat="46.43643" lon="5.33447">
        <ele>221.60000610352</ele>
        <time>2021-04-05T11:31:19.000Z</time>
      </trkpt>
      <trkpt lat="46.43636" lon="5.33447">
        <ele>221.80000305176</ele>
        <time>2021-04-05T11:31:20.000Z</time>
      </trkpt>
      <trkpt lat="46.4363" lon="5.33447">
        <ele>222</ele>
        <time>2021-04-05T11:31:21.000Z</time>
      </trkpt>
      <trkpt lat="46.43618" lon="5.33448">
        <ele>222</ele>
        <time>2021-04-05T11:31:23.000Z</time>
      </trkpt>
      <trkpt lat="46.43606" lon="5.33448">
        <ele>222</ele>
        <time>2021-04-05T11:31:25.000Z</time>
      </trkpt>
      <trkpt lat="46.43594" lon="5.33449">
        <ele>222.19999694824</ele>
        <time>2021-04-05T11:31:27.000Z</time>
      </trkpt>
      <trkpt lat="46.43582" lon="5.33448">
        <ele>222.19999694824</ele>
        <time>2021-04-05T11:31:29.000Z</time>
      </trkpt>
      <trkpt lat="46.4357" lon="5.33446">
        <ele>222.39999389648</ele>
        <time>2021-04-05T11:31:31.000Z</time>
      </trkpt>
      <trkpt lat="46.43558" lon="5.33445">
        <ele>222.80000305176</ele>
        <time>2021-04-05T11:31:33.000Z</time>
      </trkpt>
      <trkpt lat="46.43546" lon="5.33445">
        <ele>222.80000305176</ele>
        <time>2021-04-05T11:31:35.000Z</time>
      </trkpt>
      <trkpt lat="46.43534" lon="5.33449">
        <ele>222.80000305176</ele>
        <time>2021-04-05T11:31:37.000Z</time>
      </trkpt>
      <trkpt lat="46.43523" lon="5.3346">
        <ele>223</ele>
        <time>2021-04-05T11:31:39.000Z</time>
      </trkpt>
      <trkpt lat="46.43518" lon="5.33466">
        <ele>223</ele>
        <time>2021-04-05T11:31:40.000Z</time>
      </trkpt>
      <trkpt lat="46.43513" lon="5.33472">
        <ele>223</ele>
        <time>2021-04-05T11:31:41.000Z</time>
      </trkpt>
      <trkpt lat="46.43503" lon="5.33485">
        <ele>223</ele>
        <time>2021-04-05T11:31:43.000Z</time>
      </trkpt>
      <trkpt lat="46.43492" lon="5.33498">
        <ele>223</ele>
        <time>2021-04-05T11:31:45.000Z</time>
      </trkpt>
      <trkpt lat="46.43482" lon="5.33511">
        <ele>223</ele>
        <time>2021-04-05T11:31:47.000Z</time>
      </trkpt>
      <trkpt lat="46.43473" lon="5.33525">
        <ele>223</ele>
        <time>2021-04-05T11:31:49.000Z</time>
      </trkpt>
      <trkpt lat="46.43469" lon="5.33533">
        <ele>223</ele>
        <time>2021-04-05T11:31:50.000Z</time>
      </trkpt>
      <trkpt lat="46.43465" lon="5.33541">
        <ele>223</ele>
        <time>2021-04-05T11:31:51.000Z</time>
      </trkpt>
      <trkpt lat="46.43462" lon="5.33549">
        <ele>223</ele>
        <time>2021-04-05T11:31:52.000Z</time>
      </trkpt>
      <trkpt lat="46.43459" lon="5.33557">
        <ele>223</ele>
        <time>2021-04-05T11:31:53.000Z</time>
      </trkpt>
      <trkpt lat="46.43456" lon="5.33574">
        <ele>223</ele>
        <time>2021-04-05T11:31:55.000Z</time>
      </trkpt>
      <trkpt lat="46.43454" lon="5.3359">
        <ele>223.19999694824</ele>
        <time>2021-04-05T11:31:57.000Z</time>
      </trkpt>
      <trkpt lat="46.43454" lon="5.33598">
        <ele>223.39999389648</ele>
        <time>2021-04-05T11:31:58.000Z</time>
      </trkpt>
      <trkpt lat="46.43455" lon="5.33606">
        <ele>223.60000610352</ele>
        <time>2021-04-05T11:31:59.000Z</time>
      </trkpt>
      <trkpt lat="46.43455" lon="5.33613">
        <ele>223.80000305176</ele>
        <time>2021-04-05T11:32:00.000Z</time>
      </trkpt>
      <trkpt lat="46.43455" lon="5.33621">
        <ele>223.80000305176</ele>
        <time>2021-04-05T11:32:01.000Z</time>
      </trkpt>
      <trkpt lat="46.43456" lon="5.33636">
        <ele>224.19999694824</ele>
        <time>2021-04-05T11:32:03.000Z</time>
      </trkpt>
      <trkpt lat="46.43457" lon="5.3365">
        <ele>225</ele>
        <time>2021-04-05T11:32:05.000Z</time>
      </trkpt>
      <trkpt lat="46.43458" lon="5.33656">
        <ele>225.60000610352</ele>
        <time>2021-04-05T11:32:06.000Z</time>
      </trkpt>
      <trkpt lat="46.4346" lon="5.33662">
        <ele>226</ele>
        <time>2021-04-05T11:32:07.000Z</time>
      </trkpt>
      <trkpt lat="46.43463" lon="5.33673">
        <ele>226.19999694824</ele>
        <time>2021-04-05T11:32:09.000Z</time>
      </trkpt>
      <trkpt lat="46.43467" lon="5.33684">
        <ele>226.80000305176</ele>
        <time>2021-04-05T11:32:11.000Z</time>
      </trkpt>
      <trkpt lat="46.43469" lon="5.33689">
        <ele>227</ele>
        <time>2021-04-05T11:32:12.000Z</time>
      </trkpt>
      <trkpt lat="46.43471" lon="5.33694">
        <ele>227.39999389648</ele>
        <time>2021-04-05T11:32:13.000Z</time>
      </trkpt>
      <trkpt lat="46.43475" lon="5.33704">
        <ele>227.80000305176</ele>
        <time>2021-04-05T11:32:15.000Z</time>
      </trkpt>
      <trkpt lat="46.43479" lon="5.33713">
        <ele>228.39999389648</ele>
        <time>2021-04-05T11:32:17.000Z</time>
      </trkpt>
      <trkpt lat="46.43483" lon="5.33722">
        <ele>228.60000610352</ele>
        <time>2021-04-05T11:32:19.000Z</time>
      </trkpt>
      <trkpt lat="46.43485" lon="5.33726">
        <ele>229</ele>
        <time>2021-04-05T11:32:20.000Z</time>
      </trkpt>
      <trkpt lat="46.43487" lon="5.3373">
        <ele>229.19999694824</ele>
        <time>2021-04-05T11:32:21.000Z</time>
      </trkpt>
      <trkpt lat="46.4349" lon="5.3374">
        <ele>229.60000610352</ele>
        <time>2021-04-05T11:32:23.000Z</time>
      </trkpt>
      <trkpt lat="46.43494" lon="5.33752">
        <ele>230</ele>
        <time>2021-04-05T11:32:25.000Z</time>
      </trkpt>
      <trkpt lat="46.43495" lon="5.33764">
        <ele>230.39999389648</ele>
        <time>2021-04-05T11:32:27.000Z</time>
      </trkpt>
      <trkpt lat="46.43496" lon="5.33776">
        <ele>231</ele>
        <time>2021-04-05T11:32:29.000Z</time>
      </trkpt>
      <trkpt lat="46.43496" lon="5.33782">
        <ele>231.19999694824</ele>
        <time>2021-04-05T11:32:30.000Z</time>
      </trkpt>
      <trkpt lat="46.43495" lon="5.33789">
        <ele>231.39999389648</ele>
        <time>2021-04-05T11:32:31.000Z</time>
      </trkpt>
      <trkpt lat="46.43495" lon="5.33801">
        <ele>231.80000305176</ele>
        <time>2021-04-05T11:32:33.000Z</time>
      </trkpt>
      <trkpt lat="46.43495" lon="5.33813">
        <ele>231.80000305176</ele>
        <time>2021-04-05T11:32:35.000Z</time>
      </trkpt>
      <trkpt lat="46.43494" lon="5.33826">
        <ele>232</ele>
        <time>2021-04-05T11:32:37.000Z</time>
      </trkpt>
      <trkpt lat="46.43493" lon="5.33838">
        <ele>232.19999694824</ele>
        <time>2021-04-05T11:32:39.000Z</time>
      </trkpt>
      <trkpt lat="46.43493" lon="5.33844">
        <ele>232.39999389648</ele>
        <time>2021-04-05T11:32:40.000Z</time>
      </trkpt>
      <trkpt lat="46.43493" lon="5.33851">
        <ele>232.60000610352</ele>
        <time>2021-04-05T11:32:41.000Z</time>
      </trkpt>
      <trkpt lat="46.43493" lon="5.33863">
        <ele>233.19999694824</ele>
        <time>2021-04-05T11:32:43.000Z</time>
      </trkpt>
      <trkpt lat="46.43492" lon="5.33874">
        <ele>233.60000610352</ele>
        <time>2021-04-05T11:32:45.000Z</time>
      </trkpt>
      <trkpt lat="46.4349" lon="5.33885">
        <ele>233.60000610352</ele>
        <time>2021-04-05T11:32:47.000Z</time>
      </trkpt>
      <trkpt lat="46.43489" lon="5.33896">
        <ele>234.19999694824</ele>
        <time>2021-04-05T11:32:49.000Z</time>
      </trkpt>
      <trkpt lat="46.43488" lon="5.33907">
        <ele>234.60000610352</ele>
        <time>2021-04-05T11:32:51.000Z</time>
      </trkpt>
      <trkpt lat="46.43487" lon="5.33919">
        <ele>235.39999389648</ele>
        <time>2021-04-05T11:32:53.000Z</time>
      </trkpt>
      <trkpt lat="46.43487" lon="5.33925">
        <ele>235.80000305176</ele>
        <time>2021-04-05T11:32:54.000Z</time>
      </trkpt>
      <trkpt lat="46.43486" lon="5.33931">
        <ele>236.19999694824</ele>
        <time>2021-04-05T11:32:55.000Z</time>
      </trkpt>
      <trkpt lat="46.43486" lon="5.33943">
        <ele>237</ele>
        <time>2021-04-05T11:32:57.000Z</time>
      </trkpt>
      <trkpt lat="46.43485" lon="5.33949">
        <ele>237.19999694824</ele>
        <time>2021-04-05T11:32:58.000Z</time>
      </trkpt>
      <trkpt lat="46.43485" lon="5.33955">
        <ele>237.60000610352</ele>
        <time>2021-04-05T11:32:59.000Z</time>
      </trkpt>
      <trkpt lat="46.43484" lon="5.33967">
        <ele>238.19999694824</ele>
        <time>2021-04-05T11:33:01.000Z</time>
      </trkpt>
      <trkpt lat="46.43484" lon="5.33979">
        <ele>238.60000610352</ele>
        <time>2021-04-05T11:33:03.000Z</time>
      </trkpt>
      <trkpt lat="46.43483" lon="5.33985">
        <ele>239.39999389648</ele>
        <time>2021-04-05T11:33:04.000Z</time>
      </trkpt>
      <trkpt lat="46.43483" lon="5.33991">
        <ele>239.60000610352</ele>
        <time>2021-04-05T11:33:05.000Z</time>
      </trkpt>
      <trkpt lat="46.43482" lon="5.34004">
        <ele>240</ele>
        <time>2021-04-05T11:33:07.000Z</time>
      </trkpt>
      <trkpt lat="46.4348" lon="5.34018">
        <ele>240.39999389648</ele>
        <time>2021-04-05T11:33:09.000Z</time>
      </trkpt>
      <trkpt lat="46.43478" lon="5.34031">
        <ele>241</ele>
        <time>2021-04-05T11:33:11.000Z</time>
      </trkpt>
      <trkpt lat="46.43476" lon="5.34046">
        <ele>241.39999389648</ele>
        <time>2021-04-05T11:33:13.000Z</time>
      </trkpt>
      <trkpt lat="46.43475" lon="5.3406">
        <ele>241.80000305176</ele>
        <time>2021-04-05T11:33:15.000Z</time>
      </trkpt>
      <trkpt lat="46.43474" lon="5.34074">
        <ele>242</ele>
        <time>2021-04-05T11:33:17.000Z</time>
      </trkpt>
      <trkpt lat="46.43472" lon="5.34088">
        <ele>242.19999694824</ele>
        <time>2021-04-05T11:33:19.000Z</time>
      </trkpt>
      <trkpt lat="46.43472" lon="5.34096">
        <ele>242.60000610352</ele>
        <time>2021-04-05T11:33:20.000Z</time>
      </trkpt>
      <trkpt lat="46.43471" lon="5.34103">
        <ele>242.80000305176</ele>
        <time>2021-04-05T11:33:21.000Z</time>
      </trkpt>
      <trkpt lat="46.4347" lon="5.34117">
        <ele>242.80000305176</ele>
        <time>2021-04-05T11:33:23.000Z</time>
      </trkpt>
      <trkpt lat="46.43468" lon="5.34132">
        <ele>243.19999694824</ele>
        <time>2021-04-05T11:33:25.000Z</time>
      </trkpt>
      <trkpt lat="46.43466" lon="5.34146">
        <ele>243.19999694824</ele>
        <time>2021-04-05T11:33:27.000Z</time>
      </trkpt>
      <trkpt lat="46.43465" lon="5.34161">
        <ele>243.19999694824</ele>
        <time>2021-04-05T11:33:29.000Z</time>
      </trkpt>
      <trkpt lat="46.43463" lon="5.34175">
        <ele>243.39999389648</ele>
        <time>2021-04-05T11:33:31.000Z</time>
      </trkpt>
      <trkpt lat="46.4346" lon="5.34189">
        <ele>243.39999389648</ele>
        <time>2021-04-05T11:33:33.000Z</time>
      </trkpt>
      <trkpt lat="46.43457" lon="5.34202">
        <ele>243.60000610352</ele>
        <time>2021-04-05T11:33:35.000Z</time>
      </trkpt>
      <trkpt lat="46.43452" lon="5.34215">
        <ele>243.60000610352</ele>
        <time>2021-04-05T11:33:37.000Z</time>
      </trkpt>
      <trkpt lat="46.4345" lon="5.34229">
        <ele>243.80000305176</ele>
        <time>2021-04-05T11:33:39.000Z</time>
      </trkpt>
      <trkpt lat="46.4345" lon="5.34236">
        <ele>243.80000305176</ele>
        <time>2021-04-05T11:33:40.000Z</time>
      </trkpt>
      <trkpt lat="46.43449" lon="5.34243">
        <ele>243.80000305176</ele>
        <time>2021-04-05T11:33:41.000Z</time>
      </trkpt>
      <trkpt lat="46.43449" lon="5.34257">
        <ele>244</ele>
        <time>2021-04-05T11:33:43.000Z</time>
      </trkpt>
      <trkpt lat="46.43448" lon="5.34263">
        <ele>244</ele>
        <time>2021-04-05T11:33:44.000Z</time>
      </trkpt>
      <trkpt lat="46.43446" lon="5.34269">
        <ele>244</ele>
        <time>2021-04-05T11:33:45.000Z</time>
      </trkpt>
      <trkpt lat="46.43435" lon="5.34272">
        <ele>244</ele>
        <time>2021-04-05T11:33:47.000Z</time>
      </trkpt>
      <trkpt lat="46.43428" lon="5.34269">
        <ele>244</ele>
        <time>2021-04-05T11:33:48.000Z</time>
      </trkpt>
      <trkpt lat="46.4342" lon="5.34266">
        <ele>244</ele>
        <time>2021-04-05T11:33:49.000Z</time>
      </trkpt>
      <trkpt lat="46.43402" lon="5.3426">
        <ele>244</ele>
        <time>2021-04-05T11:33:51.000Z</time>
      </trkpt>
      <trkpt lat="46.43383" lon="5.34254">
        <ele>244</ele>
        <time>2021-04-05T11:33:53.000Z</time>
      </trkpt>
      <trkpt lat="46.43362" lon="5.34247">
        <ele>243.39999389648</ele>
        <time>2021-04-05T11:33:55.000Z</time>
      </trkpt>
      <trkpt lat="46.43341" lon="5.3424">
        <ele>241.39999389648</ele>
        <time>2021-04-05T11:33:57.000Z</time>
      </trkpt>
      <trkpt lat="46.43331" lon="5.34236">
        <ele>240.19999694824</ele>
        <time>2021-04-05T11:33:58.000Z</time>
      </trkpt>
      <trkpt lat="46.43321" lon="5.34231">
        <ele>239</ele>
        <time>2021-04-05T11:33:59.000Z</time>
      </trkpt>
      <trkpt lat="46.43312" lon="5.34225">
        <ele>237.80000305176</ele>
        <time>2021-04-05T11:34:00.000Z</time>
      </trkpt>
      <trkpt lat="46.43303" lon="5.3422">
        <ele>236.80000305176</ele>
        <time>2021-04-05T11:34:01.000Z</time>
      </trkpt>
      <trkpt lat="46.43294" lon="5.34213">
        <ele>235.80000305176</ele>
        <time>2021-04-05T11:34:02.000Z</time>
      </trkpt>
      <trkpt lat="46.43285" lon="5.34207">
        <ele>234</ele>
        <time>2021-04-05T11:34:03.000Z</time>
      </trkpt>
      <trkpt lat="46.43276" lon="5.342">
        <ele>232.80000305176</ele>
        <time>2021-04-05T11:34:04.000Z</time>
      </trkpt>
      <trkpt lat="46.43268" lon="5.34193">
        <ele>231.60000610352</ele>
        <time>2021-04-05T11:34:05.000Z</time>
      </trkpt>
      <trkpt lat="46.43259" lon="5.34186">
        <ele>231</ele>
        <time>2021-04-05T11:34:06.000Z</time>
      </trkpt>
      <trkpt lat="46.43251" lon="5.34178">
        <ele>230.60000610352</ele>
        <time>2021-04-05T11:34:07.000Z</time>
      </trkpt>
      <trkpt lat="46.43243" lon="5.3417">
        <ele>230.19999694824</ele>
        <time>2021-04-05T11:34:08.000Z</time>
      </trkpt>
      <trkpt lat="46.43235" lon="5.34162">
        <ele>229.80000305176</ele>
        <time>2021-04-05T11:34:09.000Z</time>
      </trkpt>
      <trkpt lat="46.43227" lon="5.34155">
        <ele>229.19999694824</ele>
        <time>2021-04-05T11:34:10.000Z</time>
      </trkpt>
      <trkpt lat="46.43219" lon="5.34148">
        <ele>228.80000305176</ele>
        <time>2021-04-05T11:34:11.000Z</time>
      </trkpt>
      <trkpt lat="46.43204" lon="5.34133">
        <ele>228.19999694824</ele>
        <time>2021-04-05T11:34:13.000Z</time>
      </trkpt>
      <trkpt lat="46.43198" lon="5.34126">
        <ele>228</ele>
        <time>2021-04-05T11:34:14.000Z</time>
      </trkpt>
      <trkpt lat="46.43192" lon="5.34118">
        <ele>228</ele>
        <time>2021-04-05T11:34:15.000Z</time>
      </trkpt>
      <trkpt lat="46.43179" lon="5.34104">
        <ele>227.80000305176</ele>
        <time>2021-04-05T11:34:17.000Z</time>
      </trkpt>
      <trkpt lat="46.43168" lon="5.34088">
        <ele>227.80000305176</ele>
        <time>2021-04-05T11:34:19.000Z</time>
      </trkpt>
      <trkpt lat="46.43158" lon="5.34071">
        <ele>227.80000305176</ele>
        <time>2021-04-05T11:34:21.000Z</time>
      </trkpt>
      <trkpt lat="46.43148" lon="5.34057">
        <ele>228</ele>
        <time>2021-04-05T11:34:23.000Z</time>
      </trkpt>
      <trkpt lat="46.43138" lon="5.34042">
        <ele>228.19999694824</ele>
        <time>2021-04-05T11:34:25.000Z</time>
      </trkpt>
      <trkpt lat="46.43133" lon="5.34034">
        <ele>228.19999694824</ele>
        <time>2021-04-05T11:34:26.000Z</time>
      </trkpt>
      <trkpt lat="46.43129" lon="5.34027">
        <ele>228.39999389648</ele>
        <time>2021-04-05T11:34:27.000Z</time>
      </trkpt>
      <trkpt lat="46.43119" lon="5.34013">
        <ele>228.80000305176</ele>
        <time>2021-04-05T11:34:29.000Z</time>
      </trkpt>
      <trkpt lat="46.4311" lon="5.34">
        <ele>229.39999389648</ele>
        <time>2021-04-05T11:34:31.000Z</time>
      </trkpt>
      <trkpt lat="46.431" lon="5.33987">
        <ele>230.19999694824</ele>
        <time>2021-04-05T11:34:33.000Z</time>
      </trkpt>
      <trkpt lat="46.43094" lon="5.33982">
        <ele>230.39999389648</ele>
        <time>2021-04-05T11:34:34.000Z</time>
      </trkpt>
      <trkpt lat="46.43084" lon="5.33971">
        <ele>231</ele>
        <time>2021-04-05T11:34:36.000Z</time>
      </trkpt>
      <trkpt lat="46.43072" lon="5.3396">
        <ele>231.19999694824</ele>
        <time>2021-04-05T11:34:38.000Z</time>
      </trkpt>
      <trkpt lat="46.43061" lon="5.33951">
        <ele>231.39999389648</ele>
        <time>2021-04-05T11:34:40.000Z</time>
      </trkpt>
      <trkpt lat="46.43055" lon="5.33946">
        <ele>231.39999389648</ele>
        <time>2021-04-05T11:34:41.000Z</time>
      </trkpt>
      <trkpt lat="46.43049" lon="5.33941">
        <ele>231.39999389648</ele>
        <time>2021-04-05T11:34:42.000Z</time>
      </trkpt>
      <trkpt lat="46.43037" lon="5.3393">
        <ele>231.60000610352</ele>
        <time>2021-04-05T11:34:44.000Z</time>
      </trkpt>
      <trkpt lat="46.43026" lon="5.33918">
        <ele>231.60000610352</ele>
        <time>2021-04-05T11:34:46.000Z</time>
      </trkpt>
      <trkpt lat="46.43014" lon="5.33906">
        <ele>231.60000610352</ele>
        <time>2021-04-05T11:34:48.000Z</time>
      </trkpt>
      <trkpt lat="46.43002" lon="5.33895">
        <ele>231.80000305176</ele>
        <time>2021-04-05T11:34:50.000Z</time>
      </trkpt>
      <trkpt lat="46.42989" lon="5.33884">
        <ele>231.80000305176</ele>
        <time>2021-04-05T11:34:52.000Z</time>
      </trkpt>
      <trkpt lat="46.42976" lon="5.33874">
        <ele>231.80000305176</ele>
        <time>2021-04-05T11:34:54.000Z</time>
      </trkpt>
      <trkpt lat="46.42962" lon="5.33865">
        <ele>231.80000305176</ele>
        <time>2021-04-05T11:34:56.000Z</time>
      </trkpt>
      <trkpt lat="46.42949" lon="5.33857">
        <ele>231.80000305176</ele>
        <time>2021-04-05T11:34:58.000Z</time>
      </trkpt>
      <trkpt lat="46.42935" lon="5.33849">
        <ele>231.80000305176</ele>
        <time>2021-04-05T11:35:00.000Z</time>
      </trkpt>
      <trkpt lat="46.42922" lon="5.33843">
        <ele>231.80000305176</ele>
        <time>2021-04-05T11:35:02.000Z</time>
      </trkpt>
      <trkpt lat="46.42914" lon="5.33841">
        <ele>231.60000610352</ele>
        <time>2021-04-05T11:35:03.000Z</time>
      </trkpt>
      <trkpt lat="46.42907" lon="5.3384">
        <ele>231.19999694824</ele>
        <time>2021-04-05T11:35:04.000Z</time>
      </trkpt>
      <trkpt lat="46.429" lon="5.33839">
        <ele>231</ele>
        <time>2021-04-05T11:35:05.000Z</time>
      </trkpt>
      <trkpt lat="46.42885" lon="5.33837">
        <ele>230.60000610352</ele>
        <time>2021-04-05T11:35:07.000Z</time>
      </trkpt>
      <trkpt lat="46.42877" lon="5.33836">
        <ele>230.39999389648</ele>
        <time>2021-04-05T11:35:08.000Z</time>
      </trkpt>
      <trkpt lat="46.42869" lon="5.33836">
        <ele>230.19999694824</ele>
        <time>2021-04-05T11:35:09.000Z</time>
      </trkpt>
      <trkpt lat="46.42854" lon="5.33835">
        <ele>229.80000305176</ele>
        <time>2021-04-05T11:35:11.000Z</time>
      </trkpt>
      <trkpt lat="46.42839" lon="5.33834">
        <ele>229.60000610352</ele>
        <time>2021-04-05T11:35:13.000Z</time>
      </trkpt>
      <trkpt lat="46.42831" lon="5.33833">
        <ele>229.39999389648</ele>
        <time>2021-04-05T11:35:14.000Z</time>
      </trkpt>
      <trkpt lat="46.42824" lon="5.33833">
        <ele>229</ele>
        <time>2021-04-05T11:35:15.000Z</time>
      </trkpt>
      <trkpt lat="46.42809" lon="5.33831">
        <ele>229</ele>
        <time>2021-04-05T11:35:17.000Z</time>
      </trkpt>
      <trkpt lat="46.42795" lon="5.33829">
        <ele>228.80000305176</ele>
        <time>2021-04-05T11:35:19.000Z</time>
      </trkpt>
      <trkpt lat="46.42783" lon="5.33827">
        <ele>228.80000305176</ele>
        <time>2021-04-05T11:35:21.000Z</time>
      </trkpt>
      <trkpt lat="46.42772" lon="5.33824">
        <ele>228.80000305176</ele>
        <time>2021-04-05T11:35:23.000Z</time>
      </trkpt>
      <trkpt lat="46.42762" lon="5.33819">
        <ele>229</ele>
        <time>2021-04-05T11:35:25.000Z</time>
      </trkpt>
      <trkpt lat="46.42752" lon="5.33814">
        <ele>229.39999389648</ele>
        <time>2021-04-05T11:35:27.000Z</time>
      </trkpt>
      <trkpt lat="46.42743" lon="5.33809">
        <ele>230.39999389648</ele>
        <time>2021-04-05T11:35:29.000Z</time>
      </trkpt>
      <trkpt lat="46.42735" lon="5.33804">
        <ele>231.60000610352</ele>
        <time>2021-04-05T11:35:31.000Z</time>
      </trkpt>
      <trkpt lat="46.4273" lon="5.33802">
        <ele>232</ele>
        <time>2021-04-05T11:35:32.000Z</time>
      </trkpt>
      <trkpt lat="46.42726" lon="5.338">
        <ele>232.19999694824</ele>
        <time>2021-04-05T11:35:33.000Z</time>
      </trkpt>
      <trkpt lat="46.42722" lon="5.33798">
        <ele>232.60000610352</ele>
        <time>2021-04-05T11:35:34.000Z</time>
      </trkpt>
      <trkpt lat="46.42717" lon="5.33796">
        <ele>233</ele>
        <time>2021-04-05T11:35:35.000Z</time>
      </trkpt>
      <trkpt lat="46.42708" lon="5.33794">
        <ele>233.19999694824</ele>
        <time>2021-04-05T11:35:37.000Z</time>
      </trkpt>
      <trkpt lat="46.42703" lon="5.33793">
        <ele>233.60000610352</ele>
        <time>2021-04-05T11:35:38.000Z</time>
      </trkpt>
      <trkpt lat="46.42698" lon="5.33793">
        <ele>234</ele>
        <time>2021-04-05T11:35:39.000Z</time>
      </trkpt>
      <trkpt lat="46.42689" lon="5.33793">
        <ele>234.39999389648</ele>
        <time>2021-04-05T11:35:41.000Z</time>
      </trkpt>
      <trkpt lat="46.42684" lon="5.33792">
        <ele>234.80000305176</ele>
        <time>2021-04-05T11:35:42.000Z</time>
      </trkpt>
      <trkpt lat="46.42679" lon="5.33792">
        <ele>235</ele>
        <time>2021-04-05T11:35:43.000Z</time>
      </trkpt>
      <trkpt lat="46.42669" lon="5.33792">
        <ele>235.39999389648</ele>
        <time>2021-04-05T11:35:45.000Z</time>
      </trkpt>
      <trkpt lat="46.42658" lon="5.33793">
        <ele>235.80000305176</ele>
        <time>2021-04-05T11:35:47.000Z</time>
      </trkpt>
      <trkpt lat="46.42653" lon="5.33794">
        <ele>235.80000305176</ele>
        <time>2021-04-05T11:35:48.000Z</time>
      </trkpt>
      <trkpt lat="46.42648" lon="5.33795">
        <ele>236</ele>
        <time>2021-04-05T11:35:49.000Z</time>
      </trkpt>
      <trkpt lat="46.42637" lon="5.33796">
        <ele>236.19999694824</ele>
        <time>2021-04-05T11:35:51.000Z</time>
      </trkpt>
      <trkpt lat="46.42627" lon="5.33798">
        <ele>236.39999389648</ele>
        <time>2021-04-05T11:35:53.000Z</time>
      </trkpt>
      <trkpt lat="46.42616" lon="5.33799">
        <ele>236.39999389648</ele>
        <time>2021-04-05T11:35:55.000Z</time>
      </trkpt>
      <trkpt lat="46.42604" lon="5.33799">
        <ele>236.39999389648</ele>
        <time>2021-04-05T11:35:57.000Z</time>
      </trkpt>
      <trkpt lat="46.42599" lon="5.33799">
        <ele>236.39999389648</ele>
        <time>2021-04-05T11:35:58.000Z</time>
      </trkpt>
      <trkpt lat="46.42593" lon="5.33798">
        <ele>236.60000610352</ele>
        <time>2021-04-05T11:35:59.000Z</time>
      </trkpt>
      <trkpt lat="46.42582" lon="5.33796">
        <ele>236.80000305176</ele>
        <time>2021-04-05T11:36:01.000Z</time>
      </trkpt>
      <trkpt lat="46.42573" lon="5.33792">
        <ele>236.80000305176</ele>
        <time>2021-04-05T11:36:03.000Z</time>
      </trkpt>
      <trkpt lat="46.42568" lon="5.3379">
        <ele>237</ele>
        <time>2021-04-05T11:36:04.000Z</time>
      </trkpt>
      <trkpt lat="46.42564" lon="5.33788">
        <ele>237</ele>
        <time>2021-04-05T11:36:05.000Z</time>
      </trkpt>
      <trkpt lat="46.42559" lon="5.33785">
        <ele>237.19999694824</ele>
        <time>2021-04-05T11:36:06.000Z</time>
      </trkpt>
      <trkpt lat="46.42548" lon="5.33777">
        <ele>237.39999389648</ele>
        <time>2021-04-05T11:36:09.000Z</time>
      </trkpt>
      <trkpt lat="46.42544" lon="5.33774">
        <ele>237.60000610352</ele>
        <time>2021-04-05T11:36:10.000Z</time>
      </trkpt>
      <trkpt lat="46.42541" lon="5.33772">
        <ele>237.80000305176</ele>
        <time>2021-04-05T11:36:11.000Z</time>
      </trkpt>
      <trkpt lat="46.42537" lon="5.3377">
        <ele>238</ele>
        <time>2021-04-05T11:36:12.000Z</time>
      </trkpt>
      <trkpt lat="46.4253" lon="5.33765">
        <ele>238.39999389648</ele>
        <time>2021-04-05T11:36:14.000Z</time>
      </trkpt>
      <trkpt lat="46.42524" lon="5.33761">
        <ele>238.80000305176</ele>
        <time>2021-04-05T11:36:16.000Z</time>
      </trkpt>
      <trkpt lat="46.42521" lon="5.33758">
        <ele>239</ele>
        <time>2021-04-05T11:36:17.000Z</time>
      </trkpt>
      <trkpt lat="46.42518" lon="5.33756">
        <ele>239.19999694824</ele>
        <time>2021-04-05T11:36:18.000Z</time>
      </trkpt>
      <trkpt lat="46.42509" lon="5.3375">
        <ele>240</ele>
        <time>2021-04-05T11:36:21.000Z</time>
      </trkpt>
      <trkpt lat="46.42506" lon="5.33748">
        <ele>240.39999389648</ele>
        <time>2021-04-05T11:36:22.000Z</time>
      </trkpt>
      <trkpt lat="46.42502" lon="5.33746">
        <ele>240.80000305176</ele>
        <time>2021-04-05T11:36:23.000Z</time>
      </trkpt>
      <trkpt lat="46.42496" lon="5.33741">
        <ele>241.39999389648</ele>
        <time>2021-04-05T11:36:25.000Z</time>
      </trkpt>
      <trkpt lat="46.4249" lon="5.33737">
        <ele>241.60000610352</ele>
        <time>2021-04-05T11:36:27.000Z</time>
      </trkpt>
      <trkpt lat="46.42486" lon="5.33734">
        <ele>242</ele>
        <time>2021-04-05T11:36:28.000Z</time>
      </trkpt>
      <trkpt lat="46.4248" lon="5.33728">
        <ele>242.60000610352</ele>
        <time>2021-04-05T11:36:30.000Z</time>
      </trkpt>
      <trkpt lat="46.42473" lon="5.33722">
        <ele>243.39999389648</ele>
        <time>2021-04-05T11:36:32.000Z</time>
      </trkpt>
      <trkpt lat="46.42466" lon="5.33716">
        <ele>243.80000305176</ele>
        <time>2021-04-05T11:36:34.000Z</time>
      </trkpt>
      <trkpt lat="46.42454" lon="5.33706">
        <ele>244.39999389648</ele>
        <time>2021-04-05T11:36:37.000Z</time>
      </trkpt>
      <trkpt lat="46.42441" lon="5.33697">
        <ele>244.80000305176</ele>
        <time>2021-04-05T11:36:40.000Z</time>
      </trkpt>
      <trkpt lat="46.42436" lon="5.33694">
        <ele>244.80000305176</ele>
        <time>2021-04-05T11:36:41.000Z</time>
      </trkpt>
      <trkpt lat="46.42431" lon="5.33691">
        <ele>244.80000305176</ele>
        <time>2021-04-05T11:36:42.000Z</time>
      </trkpt>
      <trkpt lat="46.42427" lon="5.33689">
        <ele>244.80000305176</ele>
        <time>2021-04-05T11:36:43.000Z</time>
      </trkpt>
      <trkpt lat="46.42417" lon="5.33683">
        <ele>245</ele>
        <time>2021-04-05T11:36:45.000Z</time>
      </trkpt>
      <trkpt lat="46.42403" lon="5.33678">
        <ele>245.19999694824</ele>
        <time>2021-04-05T11:36:48.000Z</time>
      </trkpt>
      <trkpt lat="46.42394" lon="5.33675">
        <ele>245.19999694824</ele>
        <time>2021-04-05T11:36:50.000Z</time>
      </trkpt>
      <trkpt lat="46.42389" lon="5.33675">
        <ele>245.19999694824</ele>
        <time>2021-04-05T11:36:51.000Z</time>
      </trkpt>
      <trkpt lat="46.42385" lon="5.33675">
        <ele>245.19999694824</ele>
        <time>2021-04-05T11:36:52.000Z</time>
      </trkpt>
      <trkpt lat="46.4238" lon="5.33675">
        <ele>245.39999389648</ele>
        <time>2021-04-05T11:36:53.000Z</time>
      </trkpt>
      <trkpt lat="46.42372" lon="5.33679">
        <ele>245.60000610352</ele>
        <time>2021-04-05T11:36:55.000Z</time>
      </trkpt>
      <trkpt lat="46.42364" lon="5.33684">
        <ele>246</ele>
        <time>2021-04-05T11:36:57.000Z</time>
      </trkpt>
      <trkpt lat="46.42356" lon="5.33689">
        <ele>245.80000305176</ele>
        <time>2021-04-05T11:36:59.000Z</time>
      </trkpt>
      <trkpt lat="46.42349" lon="5.33694">
        <ele>246.19999694824</ele>
        <time>2021-04-05T11:37:01.000Z</time>
      </trkpt>
      <trkpt lat="46.42342" lon="5.33699">
        <ele>246.80000305176</ele>
        <time>2021-04-05T11:37:03.000Z</time>
      </trkpt>
      <trkpt lat="46.42336" lon="5.33703">
        <ele>247.39999389648</ele>
        <time>2021-04-05T11:37:05.000Z</time>
      </trkpt>
      <trkpt lat="46.4233" lon="5.33707">
        <ele>248</ele>
        <time>2021-04-05T11:37:07.000Z</time>
      </trkpt>
      <trkpt lat="46.42324" lon="5.3371">
        <ele>248.60000610352</ele>
        <time>2021-04-05T11:37:09.000Z</time>
      </trkpt>
      <trkpt lat="46.42322" lon="5.33712">
        <ele>248.80000305176</ele>
        <time>2021-04-05T11:37:10.000Z</time>
      </trkpt>
      <trkpt lat="46.42318" lon="5.33715">
        <ele>249.19999694824</ele>
        <time>2021-04-05T11:37:12.000Z</time>
      </trkpt>
      <trkpt lat="46.42315" lon="5.33717">
        <ele>249.39999389648</ele>
        <time>2021-04-05T11:37:13.000Z</time>
      </trkpt>
      <trkpt lat="46.42313" lon="5.3372">
        <ele>249.80000305176</ele>
        <time>2021-04-05T11:37:14.000Z</time>
      </trkpt>
      <trkpt lat="46.42309" lon="5.33726">
        <ele>250.39999389648</ele>
        <time>2021-04-05T11:37:16.000Z</time>
      </trkpt>
      <trkpt lat="46.42303" lon="5.33733">
        <ele>251</ele>
        <time>2021-04-05T11:37:18.000Z</time>
      </trkpt>
      <trkpt lat="46.42299" lon="5.33741">
        <ele>251.39999389648</ele>
        <time>2021-04-05T11:37:20.000Z</time>
      </trkpt>
      <trkpt lat="46.42296" lon="5.33745">
        <ele>251.80000305176</ele>
        <time>2021-04-05T11:37:21.000Z</time>
      </trkpt>
      <trkpt lat="46.42294" lon="5.33749">
        <ele>252</ele>
        <time>2021-04-05T11:37:22.000Z</time>
      </trkpt>
      <trkpt lat="46.42291" lon="5.33754">
        <ele>252</ele>
        <time>2021-04-05T11:37:23.000Z</time>
      </trkpt>
      <trkpt lat="46.42289" lon="5.33758">
        <ele>252.19999694824</ele>
        <time>2021-04-05T11:37:24.000Z</time>
      </trkpt>
      <trkpt lat="46.42284" lon="5.33767">
        <ele>252.60000610352</ele>
        <time>2021-04-05T11:37:26.000Z</time>
      </trkpt>
      <trkpt lat="46.42279" lon="5.33776">
        <ele>253</ele>
        <time>2021-04-05T11:37:28.000Z</time>
      </trkpt>
      <trkpt lat="46.42277" lon="5.3378">
        <ele>253</ele>
        <time>2021-04-05T11:37:29.000Z</time>
      </trkpt>
      <trkpt lat="46.42274" lon="5.33785">
        <ele>253.39999389648</ele>
        <time>2021-04-05T11:37:30.000Z</time>
      </trkpt>
      <trkpt lat="46.42271" lon="5.33789">
        <ele>253.39999389648</ele>
        <time>2021-04-05T11:37:31.000Z</time>
      </trkpt>
      <trkpt lat="46.42267" lon="5.33799">
        <ele>253.60000610352</ele>
        <time>2021-04-05T11:37:33.000Z</time>
      </trkpt>
      <trkpt lat="46.42261" lon="5.33809">
        <ele>254</ele>
        <time>2021-04-05T11:37:35.000Z</time>
      </trkpt>
      <trkpt lat="46.42255" lon="5.3382">
        <ele>254.39999389648</ele>
        <time>2021-04-05T11:37:37.000Z</time>
      </trkpt>
      <trkpt lat="46.4225" lon="5.33831">
        <ele>254.80000305176</ele>
        <time>2021-04-05T11:37:39.000Z</time>
      </trkpt>
      <trkpt lat="46.42247" lon="5.33836">
        <ele>255</ele>
        <time>2021-04-05T11:37:40.000Z</time>
      </trkpt>
      <trkpt lat="46.42245" lon="5.33842">
        <ele>255.19999694824</ele>
        <time>2021-04-05T11:37:41.000Z</time>
      </trkpt>
      <trkpt lat="46.42237" lon="5.33858">
        <ele>255.19999694824</ele>
        <time>2021-04-05T11:37:44.000Z</time>
      </trkpt>
      <trkpt lat="46.42234" lon="5.33863">
        <ele>255.39999389648</ele>
        <time>2021-04-05T11:37:45.000Z</time>
      </trkpt>
      <trkpt lat="46.42229" lon="5.33873">
        <ele>255.80000305176</ele>
        <time>2021-04-05T11:37:47.000Z</time>
      </trkpt>
      <trkpt lat="46.42227" lon="5.33878">
        <ele>256</ele>
        <time>2021-04-05T11:37:48.000Z</time>
      </trkpt>
      <trkpt lat="46.42224" lon="5.33883">
        <ele>256</ele>
        <time>2021-04-05T11:37:49.000Z</time>
      </trkpt>
      <trkpt lat="46.42217" lon="5.33898">
        <ele>256.60000610352</ele>
        <time>2021-04-05T11:37:52.000Z</time>
      </trkpt>
      <trkpt lat="46.42212" lon="5.33907">
        <ele>257</ele>
        <time>2021-04-05T11:37:54.000Z</time>
      </trkpt>
      <trkpt lat="46.42204" lon="5.3392">
        <ele>257.39999389648</ele>
        <time>2021-04-05T11:37:57.000Z</time>
      </trkpt>
      <trkpt lat="46.42201" lon="5.33923">
        <ele>257.79998779297</ele>
        <time>2021-04-05T11:37:58.000Z</time>
      </trkpt>
      <trkpt lat="46.42197" lon="5.33927">
        <ele>257.79998779297</ele>
        <time>2021-04-05T11:37:59.000Z</time>
      </trkpt>
      <trkpt lat="46.42191" lon="5.33932">
        <ele>258.20001220703</ele>
        <time>2021-04-05T11:38:01.000Z</time>
      </trkpt>
      <trkpt lat="46.42183" lon="5.33935">
        <ele>258.60000610352</ele>
        <time>2021-04-05T11:38:03.000Z</time>
      </trkpt>
      <trkpt lat="46.42179" lon="5.33936">
        <ele>258.79998779297</ele>
        <time>2021-04-05T11:38:04.000Z</time>
      </trkpt>
      <trkpt lat="46.42168" lon="5.33936">
        <ele>259.39999389648</ele>
        <time>2021-04-05T11:38:07.000Z</time>
      </trkpt>
      <trkpt lat="46.4216" lon="5.33934">
        <ele>259.79998779297</ele>
        <time>2021-04-05T11:38:09.000Z</time>
      </trkpt>
      <trkpt lat="46.42156" lon="5.33933">
        <ele>260</ele>
        <time>2021-04-05T11:38:10.000Z</time>
      </trkpt>
      <trkpt lat="46.42153" lon="5.33932">
        <ele>260.20001220703</ele>
        <time>2021-04-05T11:38:11.000Z</time>
      </trkpt>
      <trkpt lat="46.42146" lon="5.33936">
        <ele>260.60000610352</ele>
        <time>2021-04-05T11:38:13.000Z</time>
      </trkpt>
      <trkpt lat="46.42141" lon="5.33942">
        <ele>261.20001220703</ele>
        <time>2021-04-05T11:38:15.000Z</time>
      </trkpt>
      <trkpt lat="46.42139" lon="5.33946">
        <ele>261.39999389648</ele>
        <time>2021-04-05T11:38:16.000Z</time>
      </trkpt>
      <trkpt lat="46.42138" lon="5.33951">
        <ele>261.60000610352</ele>
        <time>2021-04-05T11:38:17.000Z</time>
      </trkpt>
      <trkpt lat="46.42137" lon="5.33955">
        <ele>262</ele>
        <time>2021-04-05T11:38:18.000Z</time>
      </trkpt>
      <trkpt lat="46.42138" lon="5.3396">
        <ele>262.39999389648</ele>
        <time>2021-04-05T11:38:19.000Z</time>
      </trkpt>
      <trkpt lat="46.42139" lon="5.33965">
        <ele>262.60000610352</ele>
        <time>2021-04-05T11:38:20.000Z</time>
      </trkpt>
      <trkpt lat="46.4214" lon="5.33969">
        <ele>263</ele>
        <time>2021-04-05T11:38:21.000Z</time>
      </trkpt>
      <trkpt lat="46.42144" lon="5.33978">
        <ele>263.60000610352</ele>
        <time>2021-04-05T11:38:23.000Z</time>
      </trkpt>
      <trkpt lat="46.42147" lon="5.33986">
        <ele>264.39999389648</ele>
        <time>2021-04-05T11:38:25.000Z</time>
      </trkpt>
      <trkpt lat="46.42149" lon="5.33991">
        <ele>264.79998779297</ele>
        <time>2021-04-05T11:38:26.000Z</time>
      </trkpt>
      <trkpt lat="46.42152" lon="5.33999">
        <ele>265.60000610352</ele>
        <time>2021-04-05T11:38:28.000Z</time>
      </trkpt>
      <trkpt lat="46.42154" lon="5.34004">
        <ele>265.79998779297</ele>
        <time>2021-04-05T11:38:29.000Z</time>
      </trkpt>
      <trkpt lat="46.42156" lon="5.34008">
        <ele>266</ele>
        <time>2021-04-05T11:38:30.000Z</time>
      </trkpt>
      <trkpt lat="46.42161" lon="5.34022">
        <ele>266.79998779297</ele>
        <time>2021-04-05T11:38:33.000Z</time>
      </trkpt>
      <trkpt lat="46.42162" lon="5.34027">
        <ele>266.79998779297</ele>
        <time>2021-04-05T11:38:34.000Z</time>
      </trkpt>
      <trkpt lat="46.42164" lon="5.34032">
        <ele>267.20001220703</ele>
        <time>2021-04-05T11:38:35.000Z</time>
      </trkpt>
      <trkpt lat="46.42165" lon="5.34037">
        <ele>267.60000610352</ele>
        <time>2021-04-05T11:38:36.000Z</time>
      </trkpt>
      <trkpt lat="46.42168" lon="5.34047">
        <ele>268</ele>
        <time>2021-04-05T11:38:38.000Z</time>
      </trkpt>
      <trkpt lat="46.4217" lon="5.34057">
        <ele>268.39999389648</ele>
        <time>2021-04-05T11:38:40.000Z</time>
      </trkpt>
      <trkpt lat="46.42173" lon="5.34066">
        <ele>268.60000610352</ele>
        <time>2021-04-05T11:38:42.000Z</time>
      </trkpt>
      <trkpt lat="46.42175" lon="5.34076">
        <ele>269.20001220703</ele>
        <time>2021-04-05T11:38:44.000Z</time>
      </trkpt>
      <trkpt lat="46.42176" lon="5.34081">
        <ele>269.39999389648</ele>
        <time>2021-04-05T11:38:45.000Z</time>
      </trkpt>
      <trkpt lat="46.42177" lon="5.3409">
        <ele>270.20001220703</ele>
        <time>2021-04-05T11:38:47.000Z</time>
      </trkpt>
      <trkpt lat="46.42178" lon="5.34095">
        <ele>270.39999389648</ele>
        <time>2021-04-05T11:38:48.000Z</time>
      </trkpt>
      <trkpt lat="46.42179" lon="5.341">
        <ele>270.60000610352</ele>
        <time>2021-04-05T11:38:49.000Z</time>
      </trkpt>
      <trkpt lat="46.42181" lon="5.3411">
        <ele>271.39999389648</ele>
        <time>2021-04-05T11:38:51.000Z</time>
      </trkpt>
      <trkpt lat="46.42182" lon="5.34115">
        <ele>271.60000610352</ele>
        <time>2021-04-05T11:38:52.000Z</time>
      </trkpt>
      <trkpt lat="46.42183" lon="5.3412">
        <ele>271.79998779297</ele>
        <time>2021-04-05T11:38:53.000Z</time>
      </trkpt>
      <trkpt lat="46.42184" lon="5.3413">
        <ele>272.39999389648</ele>
        <time>2021-04-05T11:38:55.000Z</time>
      </trkpt>
      <trkpt lat="46.42185" lon="5.34135">
        <ele>272.79998779297</ele>
        <time>2021-04-05T11:38:56.000Z</time>
      </trkpt>
      <trkpt lat="46.42186" lon="5.34144">
        <ele>273.20001220703</ele>
        <time>2021-04-05T11:38:58.000Z</time>
      </trkpt>
      <trkpt lat="46.42188" lon="5.34154">
        <ele>273.39999389648</ele>
        <time>2021-04-05T11:39:00.000Z</time>
      </trkpt>
      <trkpt lat="46.4219" lon="5.34163">
        <ele>273.60000610352</ele>
        <time>2021-04-05T11:39:02.000Z</time>
      </trkpt>
      <trkpt lat="46.42191" lon="5.34168">
        <ele>273.79998779297</ele>
        <time>2021-04-05T11:39:03.000Z</time>
      </trkpt>
      <trkpt lat="46.42192" lon="5.34173">
        <ele>274</ele>
        <time>2021-04-05T11:39:04.000Z</time>
      </trkpt>
      <trkpt lat="46.42194" lon="5.34183">
        <ele>274.60000610352</ele>
        <time>2021-04-05T11:39:06.000Z</time>
      </trkpt>
      <trkpt lat="46.42196" lon="5.34192">
        <ele>275.20001220703</ele>
        <time>2021-04-05T11:39:08.000Z</time>
      </trkpt>
      <trkpt lat="46.42198" lon="5.34202">
        <ele>275.39999389648</ele>
        <time>2021-04-05T11:39:10.000Z</time>
      </trkpt>
      <trkpt lat="46.422" lon="5.34217">
        <ele>276</ele>
        <time>2021-04-05T11:39:13.000Z</time>
      </trkpt>
      <trkpt lat="46.42201" lon="5.34222">
        <ele>276.20001220703</ele>
        <time>2021-04-05T11:39:14.000Z</time>
      </trkpt>
      <trkpt lat="46.42202" lon="5.34227">
        <ele>276.39999389648</ele>
        <time>2021-04-05T11:39:15.000Z</time>
      </trkpt>
      <trkpt lat="46.42203" lon="5.34232">
        <ele>276.39999389648</ele>
        <time>2021-04-05T11:39:16.000Z</time>
      </trkpt>
      <trkpt lat="46.42203" lon="5.34242">
        <ele>276.79998779297</ele>
        <time>2021-04-05T11:39:18.000Z</time>
      </trkpt>
      <trkpt lat="46.42204" lon="5.34252">
        <ele>277.39999389648</ele>
        <time>2021-04-05T11:39:20.000Z</time>
      </trkpt>
      <trkpt lat="46.42204" lon="5.34262">
        <ele>277.79998779297</ele>
        <time>2021-04-05T11:39:22.000Z</time>
      </trkpt>
      <trkpt lat="46.42201" lon="5.34276">
        <ele>278.20001220703</ele>
        <time>2021-04-05T11:39:25.000Z</time>
      </trkpt>
      <trkpt lat="46.422" lon="5.34281">
        <ele>278.39999389648</ele>
        <time>2021-04-05T11:39:26.000Z</time>
      </trkpt>
      <trkpt lat="46.42198" lon="5.3429">
        <ele>279.20001220703</ele>
        <time>2021-04-05T11:39:28.000Z</time>
      </trkpt>
      <trkpt lat="46.42196" lon="5.343">
        <ele>279.79998779297</ele>
        <time>2021-04-05T11:39:30.000Z</time>
      </trkpt>
      <trkpt lat="46.42193" lon="5.34308">
        <ele>280.39999389648</ele>
        <time>2021-04-05T11:39:32.000Z</time>
      </trkpt>
      <trkpt lat="46.42189" lon="5.34317">
        <ele>281</ele>
        <time>2021-04-05T11:39:34.000Z</time>
      </trkpt>
      <trkpt lat="46.42186" lon="5.34326">
        <ele>281.60000610352</ele>
        <time>2021-04-05T11:39:36.000Z</time>
      </trkpt>
      <trkpt lat="46.42182" lon="5.34335">
        <ele>282</ele>
        <time>2021-04-05T11:39:38.000Z</time>
      </trkpt>
      <trkpt lat="46.4218" lon="5.3434">
        <ele>282.39999389648</ele>
        <time>2021-04-05T11:39:39.000Z</time>
      </trkpt>
      <trkpt lat="46.42176" lon="5.3435">
        <ele>282.79998779297</ele>
        <time>2021-04-05T11:39:41.000Z</time>
      </trkpt>
      <trkpt lat="46.42173" lon="5.34361">
        <ele>283.20001220703</ele>
        <time>2021-04-05T11:39:43.000Z</time>
      </trkpt>
      <trkpt lat="46.42169" lon="5.34378">
        <ele>283.60000610352</ele>
        <time>2021-04-05T11:39:46.000Z</time>
      </trkpt>
      <trkpt lat="46.42169" lon="5.34383">
        <ele>283.79998779297</ele>
        <time>2021-04-05T11:39:47.000Z</time>
      </trkpt>
      <trkpt lat="46.42167" lon="5.34395">
        <ele>284.20001220703</ele>
        <time>2021-04-05T11:39:49.000Z</time>
      </trkpt>
      <trkpt lat="46.42165" lon="5.34414">
        <ele>284.79998779297</ele>
        <time>2021-04-05T11:39:52.000Z</time>
      </trkpt>
      <trkpt lat="46.42164" lon="5.34427">
        <ele>285</ele>
        <time>2021-04-05T11:39:54.000Z</time>
      </trkpt>
      <trkpt lat="46.42164" lon="5.3444">
        <ele>285.20001220703</ele>
        <time>2021-04-05T11:39:56.000Z</time>
      </trkpt>
      <trkpt lat="46.42164" lon="5.34447">
        <ele>285.39999389648</ele>
        <time>2021-04-05T11:39:57.000Z</time>
      </trkpt>
      <trkpt lat="46.42164" lon="5.3446">
        <ele>285.39999389648</ele>
        <time>2021-04-05T11:39:59.000Z</time>
      </trkpt>
      <trkpt lat="46.42164" lon="5.34474">
        <ele>285.60000610352</ele>
        <time>2021-04-05T11:40:01.000Z</time>
      </trkpt>
      <trkpt lat="46.42164" lon="5.34495">
        <ele>286.20001220703</ele>
        <time>2021-04-05T11:40:04.000Z</time>
      </trkpt>
      <trkpt lat="46.42165" lon="5.34502">
        <ele>286.39999389648</ele>
        <time>2021-04-05T11:40:05.000Z</time>
      </trkpt>
      <trkpt lat="46.42166" lon="5.34509">
        <ele>286.39999389648</ele>
        <time>2021-04-05T11:40:06.000Z</time>
      </trkpt>
      <trkpt lat="46.42167" lon="5.34517">
        <ele>286.60000610352</ele>
        <time>2021-04-05T11:40:07.000Z</time>
      </trkpt>
      <trkpt lat="46.4217" lon="5.34532">
        <ele>286.79998779297</ele>
        <time>2021-04-05T11:40:09.000Z</time>
      </trkpt>
      <trkpt lat="46.42176" lon="5.34554">
        <ele>286.79998779297</ele>
        <time>2021-04-05T11:40:12.000Z</time>
      </trkpt>
      <trkpt lat="46.42179" lon="5.34562">
        <ele>286.79998779297</ele>
        <time>2021-04-05T11:40:13.000Z</time>
      </trkpt>
      <trkpt lat="46.42185" lon="5.34577">
        <ele>286.79998779297</ele>
        <time>2021-04-05T11:40:15.000Z</time>
      </trkpt>
      <trkpt lat="46.42193" lon="5.34591">
        <ele>286.79998779297</ele>
        <time>2021-04-05T11:40:17.000Z</time>
      </trkpt>
      <trkpt lat="46.42197" lon="5.34597">
        <ele>286.79998779297</ele>
        <time>2021-04-05T11:40:18.000Z</time>
      </trkpt>
      <trkpt lat="46.42201" lon="5.34604">
        <ele>286.79998779297</ele>
        <time>2021-04-05T11:40:19.000Z</time>
      </trkpt>
      <trkpt lat="46.4221" lon="5.34617">
        <ele>286.60000610352</ele>
        <time>2021-04-05T11:40:21.000Z</time>
      </trkpt>
      <trkpt lat="46.42219" lon="5.3463">
        <ele>286.39999389648</ele>
        <time>2021-04-05T11:40:23.000Z</time>
      </trkpt>
      <trkpt lat="46.42228" lon="5.34642">
        <ele>286.39999389648</ele>
        <time>2021-04-05T11:40:25.000Z</time>
      </trkpt>
      <trkpt lat="46.42233" lon="5.34649">
        <ele>286.20001220703</ele>
        <time>2021-04-05T11:40:26.000Z</time>
      </trkpt>
      <trkpt lat="46.42237" lon="5.34656">
        <ele>286.20001220703</ele>
        <time>2021-04-05T11:40:27.000Z</time>
      </trkpt>
      <trkpt lat="46.4224" lon="5.34664">
        <ele>286.20001220703</ele>
        <time>2021-04-05T11:40:28.000Z</time>
      </trkpt>
      <trkpt lat="46.42246" lon="5.34679">
        <ele>286.20001220703</ele>
        <time>2021-04-05T11:40:30.000Z</time>
      </trkpt>
      <trkpt lat="46.42249" lon="5.34688">
        <ele>286.20001220703</ele>
        <time>2021-04-05T11:40:31.000Z</time>
      </trkpt>
      <trkpt lat="46.42251" lon="5.34696">
        <ele>286.20001220703</ele>
        <time>2021-04-05T11:40:32.000Z</time>
      </trkpt>
      <trkpt lat="46.42255" lon="5.34713">
        <ele>286.20001220703</ele>
        <time>2021-04-05T11:40:34.000Z</time>
      </trkpt>
      <trkpt lat="46.42259" lon="5.3473">
        <ele>286.20001220703</ele>
        <time>2021-04-05T11:40:36.000Z</time>
      </trkpt>
      <trkpt lat="46.42264" lon="5.34746">
        <ele>286.39999389648</ele>
        <time>2021-04-05T11:40:38.000Z</time>
      </trkpt>
      <trkpt lat="46.42273" lon="5.34769">
        <ele>286.39999389648</ele>
        <time>2021-04-05T11:40:41.000Z</time>
      </trkpt>
      <trkpt lat="46.42277" lon="5.34776">
        <ele>286.60000610352</ele>
        <time>2021-04-05T11:40:42.000Z</time>
      </trkpt>
      <trkpt lat="46.42284" lon="5.3479">
        <ele>286.79998779297</ele>
        <time>2021-04-05T11:40:44.000Z</time>
      </trkpt>
      <trkpt lat="46.42292" lon="5.34802">
        <ele>287</ele>
        <time>2021-04-05T11:40:46.000Z</time>
      </trkpt>
      <trkpt lat="46.423" lon="5.34813">
        <ele>287.39999389648</ele>
        <time>2021-04-05T11:40:48.000Z</time>
      </trkpt>
      <trkpt lat="46.42308" lon="5.34824">
        <ele>287.39999389648</ele>
        <time>2021-04-05T11:40:50.000Z</time>
      </trkpt>
      <trkpt lat="46.42312" lon="5.3483">
        <ele>287.39999389648</ele>
        <time>2021-04-05T11:40:51.000Z</time>
      </trkpt>
      <trkpt lat="46.42319" lon="5.3484">
        <ele>288</ele>
        <time>2021-04-05T11:40:53.000Z</time>
      </trkpt>
      <trkpt lat="46.42323" lon="5.34852">
        <ele>288.39999389648</ele>
        <time>2021-04-05T11:40:55.000Z</time>
      </trkpt>
      <trkpt lat="46.42325" lon="5.34858">
        <ele>288.79998779297</ele>
        <time>2021-04-05T11:40:56.000Z</time>
      </trkpt>
      <trkpt lat="46.42327" lon="5.34864">
        <ele>289</ele>
        <time>2021-04-05T11:40:57.000Z</time>
      </trkpt>
      <trkpt lat="46.42328" lon="5.34871">
        <ele>289.20001220703</ele>
        <time>2021-04-05T11:40:58.000Z</time>
      </trkpt>
      <trkpt lat="46.42329" lon="5.34877">
        <ele>289.39999389648</ele>
        <time>2021-04-05T11:40:59.000Z</time>
      </trkpt>
      <trkpt lat="46.4233" lon="5.34884">
        <ele>289.39999389648</ele>
        <time>2021-04-05T11:41:00.000Z</time>
      </trkpt>
      <trkpt lat="46.42331" lon="5.3489">
        <ele>289.60000610352</ele>
        <time>2021-04-05T11:41:01.000Z</time>
      </trkpt>
      <trkpt lat="46.42331" lon="5.34897">
        <ele>289.79998779297</ele>
        <time>2021-04-05T11:41:02.000Z</time>
      </trkpt>
      <trkpt lat="46.42332" lon="5.34903">
        <ele>290.20001220703</ele>
        <time>2021-04-05T11:41:03.000Z</time>
      </trkpt>
      <trkpt lat="46.42333" lon="5.34909">
        <ele>290.60000610352</ele>
        <time>2021-04-05T11:41:04.000Z</time>
      </trkpt>
      <trkpt lat="46.42333" lon="5.34916">
        <ele>290.79998779297</ele>
        <time>2021-04-05T11:41:05.000Z</time>
      </trkpt>
      <trkpt lat="46.42334" lon="5.34928">
        <ele>291.60000610352</ele>
        <time>2021-04-05T11:41:07.000Z</time>
      </trkpt>
      <trkpt lat="46.42336" lon="5.34939">
        <ele>292.20001220703</ele>
        <time>2021-04-05T11:41:09.000Z</time>
      </trkpt>
      <trkpt lat="46.42336" lon="5.34949">
        <ele>292.79998779297</ele>
        <time>2021-04-05T11:41:11.000Z</time>
      </trkpt>
      <trkpt lat="46.42336" lon="5.34955">
        <ele>293</ele>
        <time>2021-04-05T11:41:12.000Z</time>
      </trkpt>
      <trkpt lat="46.42336" lon="5.34968">
        <ele>293.39999389648</ele>
        <time>2021-04-05T11:41:14.000Z</time>
      </trkpt>
      <trkpt lat="46.42336" lon="5.34975">
        <ele>293.60000610352</ele>
        <time>2021-04-05T11:41:15.000Z</time>
      </trkpt>
      <trkpt lat="46.42335" lon="5.34982">
        <ele>294.20001220703</ele>
        <time>2021-04-05T11:41:16.000Z</time>
      </trkpt>
      <trkpt lat="46.42333" lon="5.34995">
        <ele>294.79998779297</ele>
        <time>2021-04-05T11:41:18.000Z</time>
      </trkpt>
      <trkpt lat="46.42332" lon="5.35002">
        <ele>295.20001220703</ele>
        <time>2021-04-05T11:41:19.000Z</time>
      </trkpt>
      <trkpt lat="46.42331" lon="5.35009">
        <ele>295.60000610352</ele>
        <time>2021-04-05T11:41:20.000Z</time>
      </trkpt>
      <trkpt lat="46.42329" lon="5.35031">
        <ele>296.20001220703</ele>
        <time>2021-04-05T11:41:23.000Z</time>
      </trkpt>
      <trkpt lat="46.42327" lon="5.35046">
        <ele>296.39999389648</ele>
        <time>2021-04-05T11:41:25.000Z</time>
      </trkpt>
      <trkpt lat="46.42326" lon="5.3506">
        <ele>296.60000610352</ele>
        <time>2021-04-05T11:41:27.000Z</time>
      </trkpt>
      <trkpt lat="46.42324" lon="5.35067">
        <ele>296.79998779297</ele>
        <time>2021-04-05T11:41:28.000Z</time>
      </trkpt>
      <trkpt lat="46.42322" lon="5.35082">
        <ele>297</ele>
        <time>2021-04-05T11:41:30.000Z</time>
      </trkpt>
      <trkpt lat="46.4232" lon="5.35096">
        <ele>297.39999389648</ele>
        <time>2021-04-05T11:41:32.000Z</time>
      </trkpt>
      <trkpt lat="46.42318" lon="5.35111">
        <ele>298</ele>
        <time>2021-04-05T11:41:34.000Z</time>
      </trkpt>
      <trkpt lat="46.42316" lon="5.35124">
        <ele>298.39999389648</ele>
        <time>2021-04-05T11:41:36.000Z</time>
      </trkpt>
      <trkpt lat="46.42315" lon="5.35131">
        <ele>298.39999389648</ele>
        <time>2021-04-05T11:41:37.000Z</time>
      </trkpt>
      <trkpt lat="46.42314" lon="5.35138">
        <ele>298.39999389648</ele>
        <time>2021-04-05T11:41:38.000Z</time>
      </trkpt>
      <trkpt lat="46.42312" lon="5.35151">
        <ele>298.60000610352</ele>
        <time>2021-04-05T11:41:40.000Z</time>
      </trkpt>
      <trkpt lat="46.4231" lon="5.35164">
        <ele>299</ele>
        <time>2021-04-05T11:41:42.000Z</time>
      </trkpt>
      <trkpt lat="46.42308" lon="5.35177">
        <ele>299.60000610352</ele>
        <time>2021-04-05T11:41:44.000Z</time>
      </trkpt>
      <trkpt lat="46.42307" lon="5.35184">
        <ele>299.79998779297</ele>
        <time>2021-04-05T11:41:45.000Z</time>
      </trkpt>
      <trkpt lat="46.42305" lon="5.3519">
        <ele>300.60000610352</ele>
        <time>2021-04-05T11:41:46.000Z</time>
      </trkpt>
      <trkpt lat="46.42304" lon="5.35197">
        <ele>300.60000610352</ele>
        <time>2021-04-05T11:41:47.000Z</time>
      </trkpt>
      <trkpt lat="46.42302" lon="5.35209">
        <ele>300.79998779297</ele>
        <time>2021-04-05T11:41:49.000Z</time>
      </trkpt>
      <trkpt lat="46.423" lon="5.35222">
        <ele>301.39999389648</ele>
        <time>2021-04-05T11:41:51.000Z</time>
      </trkpt>
      <trkpt lat="46.42298" lon="5.35234">
        <ele>301.60000610352</ele>
        <time>2021-04-05T11:41:53.000Z</time>
      </trkpt>
      <trkpt lat="46.42296" lon="5.35246">
        <ele>302</ele>
        <time>2021-04-05T11:41:55.000Z</time>
      </trkpt>
      <trkpt lat="46.42294" lon="5.35259">
        <ele>302.60000610352</ele>
        <time>2021-04-05T11:41:57.000Z</time>
      </trkpt>
      <trkpt lat="46.42293" lon="5.35265">
        <ele>302.60000610352</ele>
        <time>2021-04-05T11:41:58.000Z</time>
      </trkpt>
      <trkpt lat="46.42291" lon="5.35278">
        <ele>303</ele>
        <time>2021-04-05T11:42:00.000Z</time>
      </trkpt>
      <trkpt lat="46.42289" lon="5.3529">
        <ele>303.39999389648</ele>
        <time>2021-04-05T11:42:02.000Z</time>
      </trkpt>
      <trkpt lat="46.42286" lon="5.35303">
        <ele>303.79998779297</ele>
        <time>2021-04-05T11:42:04.000Z</time>
      </trkpt>
      <trkpt lat="46.42285" lon="5.35309">
        <ele>304</ele>
        <time>2021-04-05T11:42:05.000Z</time>
      </trkpt>
      <trkpt lat="46.42284" lon="5.35316">
        <ele>304.20001220703</ele>
        <time>2021-04-05T11:42:06.000Z</time>
      </trkpt>
      <trkpt lat="46.42282" lon="5.35335">
        <ele>304.39999389648</ele>
        <time>2021-04-05T11:42:09.000Z</time>
      </trkpt>
      <trkpt lat="46.4228" lon="5.35348">
        <ele>304.79998779297</ele>
        <time>2021-04-05T11:42:11.000Z</time>
      </trkpt>
      <trkpt lat="46.42279" lon="5.35362">
        <ele>305</ele>
        <time>2021-04-05T11:42:13.000Z</time>
      </trkpt>
      <trkpt lat="46.42277" lon="5.35375">
        <ele>305.60000610352</ele>
        <time>2021-04-05T11:42:15.000Z</time>
      </trkpt>
      <trkpt lat="46.42275" lon="5.35388">
        <ele>306</ele>
        <time>2021-04-05T11:42:17.000Z</time>
      </trkpt>
      <trkpt lat="46.42274" lon="5.35395">
        <ele>306.20001220703</ele>
        <time>2021-04-05T11:42:18.000Z</time>
      </trkpt>
      <trkpt lat="46.42271" lon="5.35408">
        <ele>306.39999389648</ele>
        <time>2021-04-05T11:42:20.000Z</time>
      </trkpt>
      <trkpt lat="46.42268" lon="5.35421">
        <ele>306.60000610352</ele>
        <time>2021-04-05T11:42:22.000Z</time>
      </trkpt>
      <trkpt lat="46.42265" lon="5.35434">
        <ele>306.79998779297</ele>
        <time>2021-04-05T11:42:24.000Z</time>
      </trkpt>
      <trkpt lat="46.42261" lon="5.35447">
        <ele>307.20001220703</ele>
        <time>2021-04-05T11:42:26.000Z</time>
      </trkpt>
      <trkpt lat="46.42258" lon="5.35461">
        <ele>307.39999389648</ele>
        <time>2021-04-05T11:42:28.000Z</time>
      </trkpt>
      <trkpt lat="46.42253" lon="5.35481">
        <ele>307.60000610352</ele>
        <time>2021-04-05T11:42:31.000Z</time>
      </trkpt>
      <trkpt lat="46.42251" lon="5.35494">
        <ele>307.79998779297</ele>
        <time>2021-04-05T11:42:33.000Z</time>
      </trkpt>
      <trkpt lat="46.4225" lon="5.355">
        <ele>308</ele>
        <time>2021-04-05T11:42:34.000Z</time>
      </trkpt>
      <trkpt lat="46.4225" lon="5.35506">
        <ele>308.20001220703</ele>
        <time>2021-04-05T11:42:35.000Z</time>
      </trkpt>
      <trkpt lat="46.42252" lon="5.35518">
        <ele>308.60000610352</ele>
        <time>2021-04-05T11:42:37.000Z</time>
      </trkpt>
      <trkpt lat="46.42252" lon="5.35524">
        <ele>308.60000610352</ele>
        <time>2021-04-05T11:42:38.000Z</time>
      </trkpt>
      <trkpt lat="46.42254" lon="5.3553">
        <ele>308.79998779297</ele>
        <time>2021-04-05T11:42:39.000Z</time>
      </trkpt>
      <trkpt lat="46.42255" lon="5.35536">
        <ele>309</ele>
        <time>2021-04-05T11:42:40.000Z</time>
      </trkpt>
      <trkpt lat="46.4226" lon="5.35546">
        <ele>309.39999389648</ele>
        <time>2021-04-05T11:42:42.000Z</time>
      </trkpt>
      <trkpt lat="46.42263" lon="5.35551">
        <ele>309.79998779297</ele>
        <time>2021-04-05T11:42:43.000Z</time>
      </trkpt>
      <trkpt lat="46.42266" lon="5.35556">
        <ele>310</ele>
        <time>2021-04-05T11:42:44.000Z</time>
      </trkpt>
      <trkpt lat="46.42269" lon="5.35561">
        <ele>310.39999389648</ele>
        <time>2021-04-05T11:42:45.000Z</time>
      </trkpt>
      <trkpt lat="46.42275" lon="5.3557">
        <ele>311</ele>
        <time>2021-04-05T11:42:47.000Z</time>
      </trkpt>
      <trkpt lat="46.42282" lon="5.35579">
        <ele>311.20001220703</ele>
        <time>2021-04-05T11:42:49.000Z</time>
      </trkpt>
      <trkpt lat="46.42289" lon="5.35587">
        <ele>311.39999389648</ele>
        <time>2021-04-05T11:42:51.000Z</time>
      </trkpt>
      <trkpt lat="46.42292" lon="5.35592">
        <ele>311.39999389648</ele>
        <time>2021-04-05T11:42:52.000Z</time>
      </trkpt>
      <trkpt lat="46.42295" lon="5.35596">
        <ele>311.39999389648</ele>
        <time>2021-04-05T11:42:53.000Z</time>
      </trkpt>
      <trkpt lat="46.42299" lon="5.356">
        <ele>311.60000610352</ele>
        <time>2021-04-05T11:42:54.000Z</time>
      </trkpt>
      <trkpt lat="46.42302" lon="5.35604">
        <ele>311.60000610352</ele>
        <time>2021-04-05T11:42:55.000Z</time>
      </trkpt>
      <trkpt lat="46.42309" lon="5.35611">
        <ele>312</ele>
        <time>2021-04-05T11:42:57.000Z</time>
      </trkpt>
      <trkpt lat="46.42315" lon="5.35619">
        <ele>312.39999389648</ele>
        <time>2021-04-05T11:42:59.000Z</time>
      </trkpt>
      <trkpt lat="46.42318" lon="5.35622">
        <ele>312.79998779297</ele>
        <time>2021-04-05T11:43:00.000Z</time>
      </trkpt>
      <trkpt lat="46.42321" lon="5.35626">
        <ele>313.20001220703</ele>
        <time>2021-04-05T11:43:01.000Z</time>
      </trkpt>
      <trkpt lat="46.42327" lon="5.35633">
        <ele>313.79998779297</ele>
        <time>2021-04-05T11:43:03.000Z</time>
      </trkpt>
      <trkpt lat="46.42329" lon="5.35636">
        <ele>314</ele>
        <time>2021-04-05T11:43:04.000Z</time>
      </trkpt>
      <trkpt lat="46.42335" lon="5.35643">
        <ele>314.39999389648</ele>
        <time>2021-04-05T11:43:06.000Z</time>
      </trkpt>
      <trkpt lat="46.42341" lon="5.3565">
        <ele>314.79998779297</ele>
        <time>2021-04-05T11:43:08.000Z</time>
      </trkpt>
      <trkpt lat="46.42343" lon="5.35653">
        <ele>314.79998779297</ele>
        <time>2021-04-05T11:43:09.000Z</time>
      </trkpt>
      <trkpt lat="46.42346" lon="5.35657">
        <ele>315</ele>
        <time>2021-04-05T11:43:10.000Z</time>
      </trkpt>
      <trkpt lat="46.42352" lon="5.35663">
        <ele>315.79998779297</ele>
        <time>2021-04-05T11:43:12.000Z</time>
      </trkpt>
      <trkpt lat="46.42354" lon="5.35666">
        <ele>316</ele>
        <time>2021-04-05T11:43:13.000Z</time>
      </trkpt>
      <trkpt lat="46.4236" lon="5.35673">
        <ele>316.60000610352</ele>
        <time>2021-04-05T11:43:15.000Z</time>
      </trkpt>
      <trkpt lat="46.42365" lon="5.3568">
        <ele>317.39999389648</ele>
        <time>2021-04-05T11:43:17.000Z</time>
      </trkpt>
      <trkpt lat="46.4237" lon="5.35687">
        <ele>317.79998779297</ele>
        <time>2021-04-05T11:43:19.000Z</time>
      </trkpt>
      <trkpt lat="46.42375" lon="5.35694">
        <ele>318.20001220703</ele>
        <time>2021-04-05T11:43:21.000Z</time>
      </trkpt>
      <trkpt lat="46.42378" lon="5.35697">
        <ele>318.39999389648</ele>
        <time>2021-04-05T11:43:22.000Z</time>
      </trkpt>
      <trkpt lat="46.4238" lon="5.35701">
        <ele>318.79998779297</ele>
        <time>2021-04-05T11:43:23.000Z</time>
      </trkpt>
      <trkpt lat="46.42387" lon="5.35712">
        <ele>319.60000610352</ele>
        <time>2021-04-05T11:43:26.000Z</time>
      </trkpt>
      <trkpt lat="46.42391" lon="5.35719">
        <ele>320.20001220703</ele>
        <time>2021-04-05T11:43:28.000Z</time>
      </trkpt>
      <trkpt lat="46.42393" lon="5.35727">
        <ele>320.60000610352</ele>
        <time>2021-04-05T11:43:30.000Z</time>
      </trkpt>
      <trkpt lat="46.42396" lon="5.35734">
        <ele>321.20001220703</ele>
        <time>2021-04-05T11:43:32.000Z</time>
      </trkpt>
      <trkpt lat="46.42399" lon="5.35742">
        <ele>321.60000610352</ele>
        <time>2021-04-05T11:43:34.000Z</time>
      </trkpt>
      <trkpt lat="46.42401" lon="5.35746">
        <ele>321.79998779297</ele>
        <time>2021-04-05T11:43:35.000Z</time>
      </trkpt>
      <trkpt lat="46.42403" lon="5.35753">
        <ele>322.39999389648</ele>
        <time>2021-04-05T11:43:37.000Z</time>
      </trkpt>
      <trkpt lat="46.42404" lon="5.35762">
        <ele>323</ele>
        <time>2021-04-05T11:43:39.000Z</time>
      </trkpt>
      <trkpt lat="46.42406" lon="5.35771">
        <ele>324.20001220703</ele>
        <time>2021-04-05T11:43:41.000Z</time>
      </trkpt>
      <trkpt lat="46.42407" lon="5.3578">
        <ele>324.79998779297</ele>
        <time>2021-04-05T11:43:43.000Z</time>
      </trkpt>
      <trkpt lat="46.42408" lon="5.35789">
        <ele>325.39999389648</ele>
        <time>2021-04-05T11:43:45.000Z</time>
      </trkpt>
      <trkpt lat="46.42409" lon="5.35803">
        <ele>326.20001220703</ele>
        <time>2021-04-05T11:43:48.000Z</time>
      </trkpt>
      <trkpt lat="46.42409" lon="5.35808">
        <ele>326.60000610352</ele>
        <time>2021-04-05T11:43:49.000Z</time>
      </trkpt>
      <trkpt lat="46.42408" lon="5.35818">
        <ele>326.79998779297</ele>
        <time>2021-04-05T11:43:51.000Z</time>
      </trkpt>
      <trkpt lat="46.42408" lon="5.35834">
        <ele>327.79998779297</ele>
        <time>2021-04-05T11:43:54.000Z</time>
      </trkpt>
      <trkpt lat="46.42408" lon="5.35839">
        <ele>328</ele>
        <time>2021-04-05T11:43:55.000Z</time>
      </trkpt>
      <trkpt lat="46.42409" lon="5.35849">
        <ele>328.39999389648</ele>
        <time>2021-04-05T11:43:57.000Z</time>
      </trkpt>
      <trkpt lat="46.4241" lon="5.35858">
        <ele>328.60000610352</ele>
        <time>2021-04-05T11:43:59.000Z</time>
      </trkpt>
      <trkpt lat="46.42412" lon="5.35867">
        <ele>328.79998779297</ele>
        <time>2021-04-05T11:44:01.000Z</time>
      </trkpt>
      <trkpt lat="46.42413" lon="5.35872">
        <ele>329</ele>
        <time>2021-04-05T11:44:02.000Z</time>
      </trkpt>
      <trkpt lat="46.42414" lon="5.35876">
        <ele>329.39999389648</ele>
        <time>2021-04-05T11:44:03.000Z</time>
      </trkpt>
      <trkpt lat="46.42417" lon="5.35885">
        <ele>330</ele>
        <time>2021-04-05T11:44:05.000Z</time>
      </trkpt>
      <trkpt lat="46.42418" lon="5.35889">
        <ele>330.20001220703</ele>
        <time>2021-04-05T11:44:06.000Z</time>
      </trkpt>
      <trkpt lat="46.42419" lon="5.35892">
        <ele>330.39999389648</ele>
        <time>2021-04-05T11:44:07.000Z</time>
      </trkpt>
      <trkpt lat="46.42422" lon="5.35904">
        <ele>331.20001220703</ele>
        <time>2021-04-05T11:44:10.000Z</time>
      </trkpt>
      <trkpt lat="46.42423" lon="5.35908">
        <ele>331.39999389648</ele>
        <time>2021-04-05T11:44:11.000Z</time>
      </trkpt>
      <trkpt lat="46.42424" lon="5.35912">
        <ele>331.60000610352</ele>
        <time>2021-04-05T11:44:12.000Z</time>
      </trkpt>
      <trkpt lat="46.42426" lon="5.35919">
        <ele>332.20001220703</ele>
        <time>2021-04-05T11:44:14.000Z</time>
      </trkpt>
      <trkpt lat="46.42427" lon="5.35923">
        <ele>332.60000610352</ele>
        <time>2021-04-05T11:44:15.000Z</time>
      </trkpt>
      <trkpt lat="46.42428" lon="5.35926">
        <ele>332.79998779297</ele>
        <time>2021-04-05T11:44:16.000Z</time>
      </trkpt>
      <trkpt lat="46.4243" lon="5.35933">
        <ele>333.20001220703</ele>
        <time>2021-04-05T11:44:18.000Z</time>
      </trkpt>
      <trkpt lat="46.42432" lon="5.35936">
        <ele>333.39999389648</ele>
        <time>2021-04-05T11:44:19.000Z</time>
      </trkpt>
      <trkpt lat="46.42433" lon="5.3594">
        <ele>333.79998779297</ele>
        <time>2021-04-05T11:44:20.000Z</time>
      </trkpt>
      <trkpt lat="46.42434" lon="5.35943">
        <ele>334.20001220703</ele>
        <time>2021-04-05T11:44:21.000Z</time>
      </trkpt>
      <trkpt lat="46.42435" lon="5.35949">
        <ele>334.60000610352</ele>
        <time>2021-04-05T11:44:23.000Z</time>
      </trkpt>
      <trkpt lat="46.42436" lon="5.35953">
        <ele>334.79998779297</ele>
        <time>2021-04-05T11:44:24.000Z</time>
      </trkpt>
      <trkpt lat="46.42436" lon="5.35956">
        <ele>335</ele>
        <time>2021-04-05T11:44:25.000Z</time>
      </trkpt>
      <trkpt lat="46.42438" lon="5.35962">
        <ele>335.39999389648</ele>
        <time>2021-04-05T11:44:27.000Z</time>
      </trkpt>
      <trkpt lat="46.42439" lon="5.35966">
        <ele>335.79998779297</ele>
        <time>2021-04-05T11:44:28.000Z</time>
      </trkpt>
      <trkpt lat="46.4244" lon="5.35969">
        <ele>336</ele>
        <time>2021-04-05T11:44:29.000Z</time>
      </trkpt>
      <trkpt lat="46.42443" lon="5.3598">
        <ele>337</ele>
        <time>2021-04-05T11:44:32.000Z</time>
      </trkpt>
      <trkpt lat="46.42444" lon="5.35983">
        <ele>337.20001220703</ele>
        <time>2021-04-05T11:44:33.000Z</time>
      </trkpt>
      <trkpt lat="46.42445" lon="5.35986">
        <ele>337.60000610352</ele>
        <time>2021-04-05T11:44:34.000Z</time>
      </trkpt>
      <trkpt lat="46.42447" lon="5.35994">
        <ele>338.20001220703</ele>
        <time>2021-04-05T11:44:36.000Z</time>
      </trkpt>
      <trkpt lat="46.42447" lon="5.35997">
        <ele>338.39999389648</ele>
        <time>2021-04-05T11:44:37.000Z</time>
      </trkpt>
      <trkpt lat="46.42448" lon="5.36001">
        <ele>339</ele>
        <time>2021-04-05T11:44:38.000Z</time>
      </trkpt>
      <trkpt lat="46.42449" lon="5.36009">
        <ele>339.60000610352</ele>
        <time>2021-04-05T11:44:40.000Z</time>
      </trkpt>
      <trkpt lat="46.42451" lon="5.3602">
        <ele>340.39999389648</ele>
        <time>2021-04-05T11:44:43.000Z</time>
      </trkpt>
      <trkpt lat="46.42452" lon="5.36027">
        <ele>340.60000610352</ele>
        <time>2021-04-05T11:44:45.000Z</time>
      </trkpt>
      <trkpt lat="46.42454" lon="5.36038">
        <ele>341.60000610352</ele>
        <time>2021-04-05T11:44:48.000Z</time>
      </trkpt>
      <trkpt lat="46.42455" lon="5.36042">
        <ele>341.79998779297</ele>
        <time>2021-04-05T11:44:49.000Z</time>
      </trkpt>
      <trkpt lat="46.42456" lon="5.36046">
        <ele>342</ele>
        <time>2021-04-05T11:44:50.000Z</time>
      </trkpt>
      <trkpt lat="46.42458" lon="5.36053">
        <ele>342.39999389648</ele>
        <time>2021-04-05T11:44:52.000Z</time>
      </trkpt>
      <trkpt lat="46.42459" lon="5.36056">
        <ele>342.60000610352</ele>
        <time>2021-04-05T11:44:53.000Z</time>
      </trkpt>
      <trkpt lat="46.4246" lon="5.3606">
        <ele>343</ele>
        <time>2021-04-05T11:44:54.000Z</time>
      </trkpt>
      <trkpt lat="46.42463" lon="5.36066">
        <ele>343.39999389648</ele>
        <time>2021-04-05T11:44:56.000Z</time>
      </trkpt>
      <trkpt lat="46.42467" lon="5.36072">
        <ele>344</ele>
        <time>2021-04-05T11:44:58.000Z</time>
      </trkpt>
      <trkpt lat="46.42469" lon="5.36074">
        <ele>344.39999389648</ele>
        <time>2021-04-05T11:44:59.000Z</time>
      </trkpt>
      <trkpt lat="46.42473" lon="5.36078">
        <ele>345</ele>
        <time>2021-04-05T11:45:01.000Z</time>
      </trkpt>
      <trkpt lat="46.42476" lon="5.3608">
        <ele>345.20001220703</ele>
        <time>2021-04-05T11:45:02.000Z</time>
      </trkpt>
      <trkpt lat="46.42478" lon="5.3608">
        <ele>345.39999389648</ele>
        <time>2021-04-05T11:45:03.000Z</time>
      </trkpt>
      <trkpt lat="46.42481" lon="5.36081">
        <ele>345.79998779297</ele>
        <time>2021-04-05T11:45:04.000Z</time>
      </trkpt>
      <trkpt lat="46.42483" lon="5.36081">
        <ele>346</ele>
        <time>2021-04-05T11:45:05.000Z</time>
      </trkpt>
      <trkpt lat="46.42488" lon="5.36082">
        <ele>346.79998779297</ele>
        <time>2021-04-05T11:45:07.000Z</time>
      </trkpt>
      <trkpt lat="46.42493" lon="5.36082">
        <ele>347.39999389648</ele>
        <time>2021-04-05T11:45:09.000Z</time>
      </trkpt>
      <trkpt lat="46.42495" lon="5.3608">
        <ele>347.79998779297</ele>
        <time>2021-04-05T11:45:10.000Z</time>
      </trkpt>
      <trkpt lat="46.42498" lon="5.36078">
        <ele>348</ele>
        <time>2021-04-05T11:45:11.000Z</time>
      </trkpt>
      <trkpt lat="46.42502" lon="5.36074">
        <ele>348.60000610352</ele>
        <time>2021-04-05T11:45:13.000Z</time>
      </trkpt>
      <trkpt lat="46.42504" lon="5.36072">
        <ele>349</ele>
        <time>2021-04-05T11:45:14.000Z</time>
      </trkpt>
      <trkpt lat="46.42506" lon="5.36069">
        <ele>349.20001220703</ele>
        <time>2021-04-05T11:45:15.000Z</time>
      </trkpt>
      <trkpt lat="46.4251" lon="5.36064">
        <ele>349.79998779297</ele>
        <time>2021-04-05T11:45:17.000Z</time>
      </trkpt>
      <trkpt lat="46.42512" lon="5.36062">
        <ele>350</ele>
        <time>2021-04-05T11:45:18.000Z</time>
      </trkpt>
      <trkpt lat="46.42514" lon="5.36059">
        <ele>350.39999389648</ele>
        <time>2021-04-05T11:45:19.000Z</time>
      </trkpt>
      <trkpt lat="46.42518" lon="5.36054">
        <ele>350.79998779297</ele>
        <time>2021-04-05T11:45:21.000Z</time>
      </trkpt>
      <trkpt lat="46.42521" lon="5.36047">
        <ele>351.20001220703</ele>
        <time>2021-04-05T11:45:23.000Z</time>
      </trkpt>
      <trkpt lat="46.42524" lon="5.36041">
        <ele>351.60000610352</ele>
        <time>2021-04-05T11:45:25.000Z</time>
      </trkpt>
      <trkpt lat="46.42528" lon="5.36033">
        <ele>352.20001220703</ele>
        <time>2021-04-05T11:45:27.000Z</time>
      </trkpt>
      <trkpt lat="46.4253" lon="5.36029">
        <ele>352.39999389648</ele>
        <time>2021-04-05T11:45:28.000Z</time>
      </trkpt>
      <trkpt lat="46.42532" lon="5.36026">
        <ele>352.60000610352</ele>
        <time>2021-04-05T11:45:29.000Z</time>
      </trkpt>
      <trkpt lat="46.42536" lon="5.36018">
        <ele>353</ele>
        <time>2021-04-05T11:45:31.000Z</time>
      </trkpt>
      <trkpt lat="46.42539" lon="5.36015">
        <ele>353.20001220703</ele>
        <time>2021-04-05T11:45:32.000Z</time>
      </trkpt>
      <trkpt lat="46.42541" lon="5.36012">
        <ele>353.39999389648</ele>
        <time>2021-04-05T11:45:33.000Z</time>
      </trkpt>
      <trkpt lat="46.42546" lon="5.36006">
        <ele>353.79998779297</ele>
        <time>2021-04-05T11:45:35.000Z</time>
      </trkpt>
      <trkpt lat="46.42551" lon="5.36">
        <ele>354.20001220703</ele>
        <time>2021-04-05T11:45:37.000Z</time>
      </trkpt>
      <trkpt lat="46.42557" lon="5.35995">
        <ele>354.39999389648</ele>
        <time>2021-04-05T11:45:39.000Z</time>
      </trkpt>
      <trkpt lat="46.42563" lon="5.3599">
        <ele>354.60000610352</ele>
        <time>2021-04-05T11:45:41.000Z</time>
      </trkpt>
      <trkpt lat="46.4257" lon="5.35988">
        <ele>355</ele>
        <time>2021-04-05T11:45:43.000Z</time>
      </trkpt>
      <trkpt lat="46.42576" lon="5.35986">
        <ele>355.39999389648</ele>
        <time>2021-04-05T11:45:45.000Z</time>
      </trkpt>
      <trkpt lat="46.42583" lon="5.35985">
        <ele>356</ele>
        <time>2021-04-05T11:45:47.000Z</time>
      </trkpt>
      <trkpt lat="46.42587" lon="5.35985">
        <ele>356.20001220703</ele>
        <time>2021-04-05T11:45:48.000Z</time>
      </trkpt>
      <trkpt lat="46.4259" lon="5.35985">
        <ele>356.39999389648</ele>
        <time>2021-04-05T11:45:49.000Z</time>
      </trkpt>
      <trkpt lat="46.42594" lon="5.35984">
        <ele>356.60000610352</ele>
        <time>2021-04-05T11:45:50.000Z</time>
      </trkpt>
      <trkpt lat="46.42597" lon="5.35985">
        <ele>356.79998779297</ele>
        <time>2021-04-05T11:45:51.000Z</time>
      </trkpt>
      <trkpt lat="46.42605" lon="5.35985">
        <ele>357.20001220703</ele>
        <time>2021-04-05T11:45:53.000Z</time>
      </trkpt>
      <trkpt lat="46.42612" lon="5.35986">
        <ele>357.60000610352</ele>
        <time>2021-04-05T11:45:55.000Z</time>
      </trkpt>
      <trkpt lat="46.42615" lon="5.35986">
        <ele>357.79998779297</ele>
        <time>2021-04-05T11:45:56.000Z</time>
      </trkpt>
      <trkpt lat="46.42619" lon="5.35986">
        <ele>357.79998779297</ele>
        <time>2021-04-05T11:45:57.000Z</time>
      </trkpt>
      <trkpt lat="46.42622" lon="5.35986">
        <ele>358.20001220703</ele>
        <time>2021-04-05T11:45:58.000Z</time>
      </trkpt>
      <trkpt lat="46.4263" lon="5.35986">
        <ele>358.39999389648</ele>
        <time>2021-04-05T11:46:00.000Z</time>
      </trkpt>
      <trkpt lat="46.42634" lon="5.35987">
        <ele>358.79998779297</ele>
        <time>2021-04-05T11:46:01.000Z</time>
      </trkpt>
      <trkpt lat="46.42637" lon="5.35987">
        <ele>359.20001220703</ele>
        <time>2021-04-05T11:46:02.000Z</time>
      </trkpt>
      <trkpt lat="46.42645" lon="5.35988">
        <ele>359.60000610352</ele>
        <time>2021-04-05T11:46:04.000Z</time>
      </trkpt>
      <trkpt lat="46.42648" lon="5.35989">
        <ele>359.79998779297</ele>
        <time>2021-04-05T11:46:05.000Z</time>
      </trkpt>
      <trkpt lat="46.42652" lon="5.3599">
        <ele>360</ele>
        <time>2021-04-05T11:46:06.000Z</time>
      </trkpt>
      <trkpt lat="46.42659" lon="5.35992">
        <ele>360.20001220703</ele>
        <time>2021-04-05T11:46:08.000Z</time>
      </trkpt>
      <trkpt lat="46.42669" lon="5.35997">
        <ele>360.60000610352</ele>
        <time>2021-04-05T11:46:11.000Z</time>
      </trkpt>
      <trkpt lat="46.42676" lon="5.36001">
        <ele>360.79998779297</ele>
        <time>2021-04-05T11:46:13.000Z</time>
      </trkpt>
      <trkpt lat="46.42683" lon="5.36004">
        <ele>361.39999389648</ele>
        <time>2021-04-05T11:46:15.000Z</time>
      </trkpt>
      <trkpt lat="46.42689" lon="5.36008">
        <ele>361.79998779297</ele>
        <time>2021-04-05T11:46:17.000Z</time>
      </trkpt>
      <trkpt lat="46.42693" lon="5.3601">
        <ele>362.20001220703</ele>
        <time>2021-04-05T11:46:18.000Z</time>
      </trkpt>
      <trkpt lat="46.42696" lon="5.36012">
        <ele>362.39999389648</ele>
        <time>2021-04-05T11:46:19.000Z</time>
      </trkpt>
      <trkpt lat="46.42706" lon="5.36018">
        <ele>362.60000610352</ele>
        <time>2021-04-05T11:46:22.000Z</time>
      </trkpt>
      <trkpt lat="46.42713" lon="5.36023">
        <ele>363</ele>
        <time>2021-04-05T11:46:24.000Z</time>
      </trkpt>
      <trkpt lat="46.42716" lon="5.36025">
        <ele>363.20001220703</ele>
        <time>2021-04-05T11:46:25.000Z</time>
      </trkpt>
      <trkpt lat="46.42719" lon="5.36027">
        <ele>363.39999389648</ele>
        <time>2021-04-05T11:46:26.000Z</time>
      </trkpt>
      <trkpt lat="46.42726" lon="5.36032">
        <ele>363.79998779297</ele>
        <time>2021-04-05T11:46:28.000Z</time>
      </trkpt>
      <trkpt lat="46.42729" lon="5.36034">
        <ele>364</ele>
        <time>2021-04-05T11:46:29.000Z</time>
      </trkpt>
      <trkpt lat="46.42733" lon="5.36036">
        <ele>364.20001220703</ele>
        <time>2021-04-05T11:46:30.000Z</time>
      </trkpt>
      <trkpt lat="46.42736" lon="5.36038">
        <ele>364.39999389648</ele>
        <time>2021-04-05T11:46:31.000Z</time>
      </trkpt>
      <trkpt lat="46.42743" lon="5.36043">
        <ele>365</ele>
        <time>2021-04-05T11:46:33.000Z</time>
      </trkpt>
      <trkpt lat="46.42749" lon="5.36048">
        <ele>365.39999389648</ele>
        <time>2021-04-05T11:46:35.000Z</time>
      </trkpt>
      <trkpt lat="46.42752" lon="5.3605">
        <ele>365.60000610352</ele>
        <time>2021-04-05T11:46:36.000Z</time>
      </trkpt>
      <trkpt lat="46.42755" lon="5.36053">
        <ele>365.79998779297</ele>
        <time>2021-04-05T11:46:37.000Z</time>
      </trkpt>
      <trkpt lat="46.42761" lon="5.36058">
        <ele>366.20001220703</ele>
        <time>2021-04-05T11:46:39.000Z</time>
      </trkpt>
      <trkpt lat="46.42768" lon="5.36063">
        <ele>366.60000610352</ele>
        <time>2021-04-05T11:46:41.000Z</time>
      </trkpt>
      <trkpt lat="46.42771" lon="5.36065">
        <ele>366.79998779297</ele>
        <time>2021-04-05T11:46:42.000Z</time>
      </trkpt>
      <trkpt lat="46.42778" lon="5.36071">
        <ele>367</ele>
        <time>2021-04-05T11:46:44.000Z</time>
      </trkpt>
      <trkpt lat="46.42785" lon="5.36076">
        <ele>367.39999389648</ele>
        <time>2021-04-05T11:46:46.000Z</time>
      </trkpt>
      <trkpt lat="46.42792" lon="5.36082">
        <ele>367.60000610352</ele>
        <time>2021-04-05T11:46:48.000Z</time>
      </trkpt>
      <trkpt lat="46.42796" lon="5.36085">
        <ele>367.79998779297</ele>
        <time>2021-04-05T11:46:49.000Z</time>
      </trkpt>
      <trkpt lat="46.42803" lon="5.36091">
        <ele>368.39999389648</ele>
        <time>2021-04-05T11:46:51.000Z</time>
      </trkpt>
      <trkpt lat="46.4281" lon="5.36096">
        <ele>368.79998779297</ele>
        <time>2021-04-05T11:46:53.000Z</time>
      </trkpt>
      <trkpt lat="46.42814" lon="5.36099">
        <ele>369</ele>
        <time>2021-04-05T11:46:54.000Z</time>
      </trkpt>
      <trkpt lat="46.42817" lon="5.36103">
        <ele>369.20001220703</ele>
        <time>2021-04-05T11:46:55.000Z</time>
      </trkpt>
      <trkpt lat="46.42821" lon="5.36106">
        <ele>369.39999389648</ele>
        <time>2021-04-05T11:46:56.000Z</time>
      </trkpt>
      <trkpt lat="46.42824" lon="5.3611">
        <ele>369.60000610352</ele>
        <time>2021-04-05T11:46:57.000Z</time>
      </trkpt>
      <trkpt lat="46.42832" lon="5.36117">
        <ele>369.79998779297</ele>
        <time>2021-04-05T11:46:59.000Z</time>
      </trkpt>
      <trkpt lat="46.42835" lon="5.3612">
        <ele>370.20001220703</ele>
        <time>2021-04-05T11:47:00.000Z</time>
      </trkpt>
      <trkpt lat="46.42843" lon="5.36127">
        <ele>370.60000610352</ele>
        <time>2021-04-05T11:47:02.000Z</time>
      </trkpt>
      <trkpt lat="46.4285" lon="5.36134">
        <ele>371.20001220703</ele>
        <time>2021-04-05T11:47:04.000Z</time>
      </trkpt>
      <trkpt lat="46.42857" lon="5.36141">
        <ele>371.79998779297</ele>
        <time>2021-04-05T11:47:06.000Z</time>
      </trkpt>
      <trkpt lat="46.42863" lon="5.36148">
        <ele>372.20001220703</ele>
        <time>2021-04-05T11:47:08.000Z</time>
      </trkpt>
      <trkpt lat="46.42867" lon="5.36152">
        <ele>372.39999389648</ele>
        <time>2021-04-05T11:47:09.000Z</time>
      </trkpt>
      <trkpt lat="46.4287" lon="5.36156">
        <ele>372.60000610352</ele>
        <time>2021-04-05T11:47:10.000Z</time>
      </trkpt>
      <trkpt lat="46.42877" lon="5.36163">
        <ele>373.20001220703</ele>
        <time>2021-04-05T11:47:12.000Z</time>
      </trkpt>
      <trkpt lat="46.42881" lon="5.36167">
        <ele>373.60000610352</ele>
        <time>2021-04-05T11:47:13.000Z</time>
      </trkpt>
      <trkpt lat="46.42884" lon="5.36171">
        <ele>373.79998779297</ele>
        <time>2021-04-05T11:47:14.000Z</time>
      </trkpt>
      <trkpt lat="46.42894" lon="5.36184">
        <ele>374.39999389648</ele>
        <time>2021-04-05T11:47:17.000Z</time>
      </trkpt>
      <trkpt lat="46.42897" lon="5.36189">
        <ele>374.60000610352</ele>
        <time>2021-04-05T11:47:18.000Z</time>
      </trkpt>
      <trkpt lat="46.42899" lon="5.36195">
        <ele>374.79998779297</ele>
        <time>2021-04-05T11:47:19.000Z</time>
      </trkpt>
      <trkpt lat="46.42902" lon="5.362">
        <ele>375.20001220703</ele>
        <time>2021-04-05T11:47:20.000Z</time>
      </trkpt>
      <trkpt lat="46.42904" lon="5.36206">
        <ele>375.39999389648</ele>
        <time>2021-04-05T11:47:21.000Z</time>
      </trkpt>
      <trkpt lat="46.42907" lon="5.36218">
        <ele>375.79998779297</ele>
        <time>2021-04-05T11:47:23.000Z</time>
      </trkpt>
      <trkpt lat="46.42909" lon="5.36229">
        <ele>376.20001220703</ele>
        <time>2021-04-05T11:47:25.000Z</time>
      </trkpt>
      <trkpt lat="46.42909" lon="5.36235">
        <ele>376.60000610352</ele>
        <time>2021-04-05T11:47:26.000Z</time>
      </trkpt>
      <trkpt lat="46.4291" lon="5.36246">
        <ele>377</ele>
        <time>2021-04-05T11:47:28.000Z</time>
      </trkpt>
      <trkpt lat="46.42911" lon="5.36257">
        <ele>377.79998779297</ele>
        <time>2021-04-05T11:47:30.000Z</time>
      </trkpt>
      <trkpt lat="46.42911" lon="5.36262">
        <ele>378</ele>
        <time>2021-04-05T11:47:31.000Z</time>
      </trkpt>
      <trkpt lat="46.42912" lon="5.36268">
        <ele>378.20001220703</ele>
        <time>2021-04-05T11:47:32.000Z</time>
      </trkpt>
      <trkpt lat="46.42912" lon="5.36278">
        <ele>378.60000610352</ele>
        <time>2021-04-05T11:47:34.000Z</time>
      </trkpt>
      <trkpt lat="46.42913" lon="5.36283">
        <ele>378.79998779297</ele>
        <time>2021-04-05T11:47:35.000Z</time>
      </trkpt>
      <trkpt lat="46.42912" lon="5.36288">
        <ele>379</ele>
        <time>2021-04-05T11:47:36.000Z</time>
      </trkpt>
      <trkpt lat="46.42913" lon="5.36293">
        <ele>379</ele>
        <time>2021-04-05T11:47:37.000Z</time>
      </trkpt>
      <trkpt lat="46.42913" lon="5.36304">
        <ele>379.60000610352</ele>
        <time>2021-04-05T11:47:39.000Z</time>
      </trkpt>
      <trkpt lat="46.42914" lon="5.36314">
        <ele>380</ele>
        <time>2021-04-05T11:47:41.000Z</time>
      </trkpt>
      <trkpt lat="46.42915" lon="5.36319">
        <ele>380.39999389648</ele>
        <time>2021-04-05T11:47:42.000Z</time>
      </trkpt>
      <trkpt lat="46.42915" lon="5.36324">
        <ele>380.60000610352</ele>
        <time>2021-04-05T11:47:43.000Z</time>
      </trkpt>
      <trkpt lat="46.42917" lon="5.36334">
        <ele>381</ele>
        <time>2021-04-05T11:47:45.000Z</time>
      </trkpt>
      <trkpt lat="46.42919" lon="5.36344">
        <ele>381.20001220703</ele>
        <time>2021-04-05T11:47:47.000Z</time>
      </trkpt>
      <trkpt lat="46.4292" lon="5.36349">
        <ele>381.39999389648</ele>
        <time>2021-04-05T11:47:48.000Z</time>
      </trkpt>
      <trkpt lat="46.42922" lon="5.36354">
        <ele>381.60000610352</ele>
        <time>2021-04-05T11:47:49.000Z</time>
      </trkpt>
      <trkpt lat="46.42926" lon="5.36363">
        <ele>382</ele>
        <time>2021-04-05T11:47:51.000Z</time>
      </trkpt>
      <trkpt lat="46.4293" lon="5.36371">
        <ele>382.39999389648</ele>
        <time>2021-04-05T11:47:53.000Z</time>
      </trkpt>
      <trkpt lat="46.42934" lon="5.36379">
        <ele>382.79998779297</ele>
        <time>2021-04-05T11:47:55.000Z</time>
      </trkpt>
      <trkpt lat="46.42939" lon="5.36387">
        <ele>383.20001220703</ele>
        <time>2021-04-05T11:47:57.000Z</time>
      </trkpt>
      <trkpt lat="46.42942" lon="5.36391">
        <ele>383.39999389648</ele>
        <time>2021-04-05T11:47:58.000Z</time>
      </trkpt>
      <trkpt lat="46.42945" lon="5.36394">
        <ele>383.79998779297</ele>
        <time>2021-04-05T11:47:59.000Z</time>
      </trkpt>
      <trkpt lat="46.42951" lon="5.36401">
        <ele>384.20001220703</ele>
        <time>2021-04-05T11:48:01.000Z</time>
      </trkpt>
      <trkpt lat="46.42958" lon="5.36407">
        <ele>384.39999389648</ele>
        <time>2021-04-05T11:48:03.000Z</time>
      </trkpt>
      <trkpt lat="46.42961" lon="5.3641">
        <ele>384.79998779297</ele>
        <time>2021-04-05T11:48:04.000Z</time>
      </trkpt>
      <trkpt lat="46.42965" lon="5.36412">
        <ele>384.79998779297</ele>
        <time>2021-04-05T11:48:05.000Z</time>
      </trkpt>
      <trkpt lat="46.42974" lon="5.36414">
        <ele>385.20001220703</ele>
        <time>2021-04-05T11:48:07.000Z</time>
      </trkpt>
      <trkpt lat="46.42982" lon="5.36416">
        <ele>385.60000610352</ele>
        <time>2021-04-05T11:48:09.000Z</time>
      </trkpt>
      <trkpt lat="46.4299" lon="5.36418">
        <ele>386</ele>
        <time>2021-04-05T11:48:11.000Z</time>
      </trkpt>
      <trkpt lat="46.42998" lon="5.36418">
        <ele>386.20001220703</ele>
        <time>2021-04-05T11:48:13.000Z</time>
      </trkpt>
      <trkpt lat="46.43005" lon="5.36419">
        <ele>386.39999389648</ele>
        <time>2021-04-05T11:48:15.000Z</time>
      </trkpt>
      <trkpt lat="46.43013" lon="5.3642">
        <ele>386.79998779297</ele>
        <time>2021-04-05T11:48:17.000Z</time>
      </trkpt>
      <trkpt lat="46.4302" lon="5.36421">
        <ele>387</ele>
        <time>2021-04-05T11:48:19.000Z</time>
      </trkpt>
      <trkpt lat="46.43028" lon="5.36422">
        <ele>387.39999389648</ele>
        <time>2021-04-05T11:48:21.000Z</time>
      </trkpt>
      <trkpt lat="46.43035" lon="5.36424">
        <ele>388</ele>
        <time>2021-04-05T11:48:23.000Z</time>
      </trkpt>
      <trkpt lat="46.43042" lon="5.36426">
        <ele>388.79998779297</ele>
        <time>2021-04-05T11:48:25.000Z</time>
      </trkpt>
      <trkpt lat="46.43049" lon="5.36427">
        <ele>389.20001220703</ele>
        <time>2021-04-05T11:48:27.000Z</time>
      </trkpt>
      <trkpt lat="46.43053" lon="5.36428">
        <ele>389.60000610352</ele>
        <time>2021-04-05T11:48:28.000Z</time>
      </trkpt>
      <trkpt lat="46.43056" lon="5.36429">
        <ele>389.79998779297</ele>
        <time>2021-04-05T11:48:29.000Z</time>
      </trkpt>
      <trkpt lat="46.43064" lon="5.3643">
        <ele>390.20001220703</ele>
        <time>2021-04-05T11:48:31.000Z</time>
      </trkpt>
      <trkpt lat="46.43071" lon="5.36432">
        <ele>390.79998779297</ele>
        <time>2021-04-05T11:48:33.000Z</time>
      </trkpt>
      <trkpt lat="46.43078" lon="5.36434">
        <ele>391.39999389648</ele>
        <time>2021-04-05T11:48:35.000Z</time>
      </trkpt>
      <trkpt lat="46.43086" lon="5.36437">
        <ele>391.79998779297</ele>
        <time>2021-04-05T11:48:37.000Z</time>
      </trkpt>
      <trkpt lat="46.4309" lon="5.36439">
        <ele>392</ele>
        <time>2021-04-05T11:48:38.000Z</time>
      </trkpt>
      <trkpt lat="46.43093" lon="5.36442">
        <ele>392</ele>
        <time>2021-04-05T11:48:39.000Z</time>
      </trkpt>
      <trkpt lat="46.431" lon="5.36449">
        <ele>392.39999389648</ele>
        <time>2021-04-05T11:48:41.000Z</time>
      </trkpt>
      <trkpt lat="46.43103" lon="5.36454">
        <ele>392.79998779297</ele>
        <time>2021-04-05T11:48:42.000Z</time>
      </trkpt>
      <trkpt lat="46.43105" lon="5.36459">
        <ele>393</ele>
        <time>2021-04-05T11:48:43.000Z</time>
      </trkpt>
      <trkpt lat="46.43108" lon="5.3647">
        <ele>393.20001220703</ele>
        <time>2021-04-05T11:48:45.000Z</time>
      </trkpt>
      <trkpt lat="46.43109" lon="5.36476">
        <ele>393.39999389648</ele>
        <time>2021-04-05T11:48:46.000Z</time>
      </trkpt>
      <trkpt lat="46.4311" lon="5.36482">
        <ele>393.60000610352</ele>
        <time>2021-04-05T11:48:47.000Z</time>
      </trkpt>
      <trkpt lat="46.43111" lon="5.36494">
        <ele>393.79998779297</ele>
        <time>2021-04-05T11:48:49.000Z</time>
      </trkpt>
      <trkpt lat="46.43109" lon="5.36505">
        <ele>394</ele>
        <time>2021-04-05T11:48:51.000Z</time>
      </trkpt>
      <trkpt lat="46.43108" lon="5.36511">
        <ele>394.20001220703</ele>
        <time>2021-04-05T11:48:52.000Z</time>
      </trkpt>
      <trkpt lat="46.43107" lon="5.36516">
        <ele>394.39999389648</ele>
        <time>2021-04-05T11:48:53.000Z</time>
      </trkpt>
      <trkpt lat="46.43104" lon="5.36526">
        <ele>394.60000610352</ele>
        <time>2021-04-05T11:48:55.000Z</time>
      </trkpt>
      <trkpt lat="46.43102" lon="5.36532">
        <ele>394.79998779297</ele>
        <time>2021-04-05T11:48:56.000Z</time>
      </trkpt>
      <trkpt lat="46.43101" lon="5.36537">
        <ele>395.39999389648</ele>
        <time>2021-04-05T11:48:57.000Z</time>
      </trkpt>
      <trkpt lat="46.43098" lon="5.36548">
        <ele>396</ele>
        <time>2021-04-05T11:48:59.000Z</time>
      </trkpt>
      <trkpt lat="46.43097" lon="5.36554">
        <ele>396.20001220703</ele>
        <time>2021-04-05T11:49:00.000Z</time>
      </trkpt>
      <trkpt lat="46.43097" lon="5.3656">
        <ele>396.39999389648</ele>
        <time>2021-04-05T11:49:01.000Z</time>
      </trkpt>
      <trkpt lat="46.43097" lon="5.36571">
        <ele>396.60000610352</ele>
        <time>2021-04-05T11:49:03.000Z</time>
      </trkpt>
      <trkpt lat="46.43099" lon="5.36582">
        <ele>397</ele>
        <time>2021-04-05T11:49:05.000Z</time>
      </trkpt>
      <trkpt lat="46.431" lon="5.36588">
        <ele>397.20001220703</ele>
        <time>2021-04-05T11:49:06.000Z</time>
      </trkpt>
      <trkpt lat="46.43102" lon="5.36593">
        <ele>397.20001220703</ele>
        <time>2021-04-05T11:49:07.000Z</time>
      </trkpt>
      <trkpt lat="46.43105" lon="5.36602">
        <ele>397.60000610352</ele>
        <time>2021-04-05T11:49:09.000Z</time>
      </trkpt>
      <trkpt lat="46.4311" lon="5.36611">
        <ele>398</ele>
        <time>2021-04-05T11:49:11.000Z</time>
      </trkpt>
      <trkpt lat="46.43115" lon="5.36619">
        <ele>398.39999389648</ele>
        <time>2021-04-05T11:49:13.000Z</time>
      </trkpt>
      <trkpt lat="46.43122" lon="5.36626">
        <ele>398.60000610352</ele>
        <time>2021-04-05T11:49:15.000Z</time>
      </trkpt>
      <trkpt lat="46.43129" lon="5.36633">
        <ele>399</ele>
        <time>2021-04-05T11:49:17.000Z</time>
      </trkpt>
      <trkpt lat="46.43132" lon="5.36637">
        <ele>399.20001220703</ele>
        <time>2021-04-05T11:49:18.000Z</time>
      </trkpt>
      <trkpt lat="46.43136" lon="5.3664">
        <ele>399.20001220703</ele>
        <time>2021-04-05T11:49:19.000Z</time>
      </trkpt>
      <trkpt lat="46.43143" lon="5.36647">
        <ele>399.60000610352</ele>
        <time>2021-04-05T11:49:21.000Z</time>
      </trkpt>
      <trkpt lat="46.43149" lon="5.36654">
        <ele>399.79998779297</ele>
        <time>2021-04-05T11:49:23.000Z</time>
      </trkpt>
      <trkpt lat="46.43155" lon="5.36661">
        <ele>400</ele>
        <time>2021-04-05T11:49:25.000Z</time>
      </trkpt>
      <trkpt lat="46.43157" lon="5.36664">
        <ele>400.20001220703</ele>
        <time>2021-04-05T11:49:26.000Z</time>
      </trkpt>
      <trkpt lat="46.43159" lon="5.36669">
        <ele>400.60000610352</ele>
        <time>2021-04-05T11:49:27.000Z</time>
      </trkpt>
      <trkpt lat="46.43162" lon="5.36678">
        <ele>401</ele>
        <time>2021-04-05T11:49:29.000Z</time>
      </trkpt>
      <trkpt lat="46.43165" lon="5.36688">
        <ele>401.39999389648</ele>
        <time>2021-04-05T11:49:31.000Z</time>
      </trkpt>
      <trkpt lat="46.43165" lon="5.36693">
        <ele>401.39999389648</ele>
        <time>2021-04-05T11:49:32.000Z</time>
      </trkpt>
      <trkpt lat="46.43166" lon="5.36699">
        <ele>401.60000610352</ele>
        <time>2021-04-05T11:49:33.000Z</time>
      </trkpt>
      <trkpt lat="46.43166" lon="5.3671">
        <ele>402</ele>
        <time>2021-04-05T11:49:35.000Z</time>
      </trkpt>
      <trkpt lat="46.43165" lon="5.36721">
        <ele>402.60000610352</ele>
        <time>2021-04-05T11:49:37.000Z</time>
      </trkpt>
      <trkpt lat="46.43164" lon="5.36726">
        <ele>402.79998779297</ele>
        <time>2021-04-05T11:49:38.000Z</time>
      </trkpt>
      <trkpt lat="46.43163" lon="5.36732">
        <ele>403.20001220703</ele>
        <time>2021-04-05T11:49:39.000Z</time>
      </trkpt>
      <trkpt lat="46.43162" lon="5.36738">
        <ele>403.60000610352</ele>
        <time>2021-04-05T11:49:40.000Z</time>
      </trkpt>
      <trkpt lat="46.43161" lon="5.36744">
        <ele>403.79998779297</ele>
        <time>2021-04-05T11:49:41.000Z</time>
      </trkpt>
      <trkpt lat="46.43158" lon="5.36755">
        <ele>404.20001220703</ele>
        <time>2021-04-05T11:49:43.000Z</time>
      </trkpt>
      <trkpt lat="46.43157" lon="5.36766">
        <ele>404.39999389648</ele>
        <time>2021-04-05T11:49:45.000Z</time>
      </trkpt>
      <trkpt lat="46.43156" lon="5.36772">
        <ele>404.60000610352</ele>
        <time>2021-04-05T11:49:46.000Z</time>
      </trkpt>
      <trkpt lat="46.43156" lon="5.36777">
        <ele>404.60000610352</ele>
        <time>2021-04-05T11:49:47.000Z</time>
      </trkpt>
      <trkpt lat="46.43158" lon="5.36788">
        <ele>405</ele>
        <time>2021-04-05T11:49:49.000Z</time>
      </trkpt>
      <trkpt lat="46.43161" lon="5.36798">
        <ele>405.20001220703</ele>
        <time>2021-04-05T11:49:51.000Z</time>
      </trkpt>
      <trkpt lat="46.43166" lon="5.36807">
        <ele>405.60000610352</ele>
        <time>2021-04-05T11:49:53.000Z</time>
      </trkpt>
      <trkpt lat="46.43168" lon="5.36811">
        <ele>405.79998779297</ele>
        <time>2021-04-05T11:49:54.000Z</time>
      </trkpt>
      <trkpt lat="46.43171" lon="5.36815">
        <ele>405.79998779297</ele>
        <time>2021-04-05T11:49:55.000Z</time>
      </trkpt>
      <trkpt lat="46.43177" lon="5.36822">
        <ele>406.60000610352</ele>
        <time>2021-04-05T11:49:57.000Z</time>
      </trkpt>
      <trkpt lat="46.4318" lon="5.36826">
        <ele>406.79998779297</ele>
        <time>2021-04-05T11:49:58.000Z</time>
      </trkpt>
      <trkpt lat="46.43183" lon="5.36829">
        <ele>407.20001220703</ele>
        <time>2021-04-05T11:49:59.000Z</time>
      </trkpt>
      <trkpt lat="46.43186" lon="5.36833">
        <ele>407.39999389648</ele>
        <time>2021-04-05T11:50:00.000Z</time>
      </trkpt>
      <trkpt lat="46.4319" lon="5.36836">
        <ele>407.60000610352</ele>
        <time>2021-04-05T11:50:01.000Z</time>
      </trkpt>
      <trkpt lat="46.43194" lon="5.3684">
        <ele>408</ele>
        <time>2021-04-05T11:50:02.000Z</time>
      </trkpt>
      <trkpt lat="46.43197" lon="5.36843">
        <ele>408.20001220703</ele>
        <time>2021-04-05T11:50:03.000Z</time>
      </trkpt>
      <trkpt lat="46.43204" lon="5.3685">
        <ele>408.60000610352</ele>
        <time>2021-04-05T11:50:05.000Z</time>
      </trkpt>
      <trkpt lat="46.43211" lon="5.36856">
        <ele>409.20001220703</ele>
        <time>2021-04-05T11:50:07.000Z</time>
      </trkpt>
      <trkpt lat="46.43218" lon="5.36862">
        <ele>409.60000610352</ele>
        <time>2021-04-05T11:50:09.000Z</time>
      </trkpt>
      <trkpt lat="46.43226" lon="5.36867">
        <ele>409.79998779297</ele>
        <time>2021-04-05T11:50:11.000Z</time>
      </trkpt>
      <trkpt lat="46.4323" lon="5.36869">
        <ele>410</ele>
        <time>2021-04-05T11:50:12.000Z</time>
      </trkpt>
      <trkpt lat="46.43234" lon="5.3687">
        <ele>410.20001220703</ele>
        <time>2021-04-05T11:50:13.000Z</time>
      </trkpt>
      <trkpt lat="46.43238" lon="5.36872">
        <ele>410.20001220703</ele>
        <time>2021-04-05T11:50:14.000Z</time>
      </trkpt>
      <trkpt lat="46.43241" lon="5.36873">
        <ele>410.39999389648</ele>
        <time>2021-04-05T11:50:15.000Z</time>
      </trkpt>
      <trkpt lat="46.43249" lon="5.36876">
        <ele>410.79998779297</ele>
        <time>2021-04-05T11:50:17.000Z</time>
      </trkpt>
      <trkpt lat="46.43257" lon="5.36878">
        <ele>411.20001220703</ele>
        <time>2021-04-05T11:50:19.000Z</time>
      </trkpt>
      <trkpt lat="46.43261" lon="5.36879">
        <ele>411.39999389648</ele>
        <time>2021-04-05T11:50:20.000Z</time>
      </trkpt>
      <trkpt lat="46.43265" lon="5.3688">
        <ele>411.60000610352</ele>
        <time>2021-04-05T11:50:21.000Z</time>
      </trkpt>
      <trkpt lat="46.43268" lon="5.36881">
        <ele>411.79998779297</ele>
        <time>2021-04-05T11:50:22.000Z</time>
      </trkpt>
      <trkpt lat="46.43272" lon="5.36883">
        <ele>412</ele>
        <time>2021-04-05T11:50:23.000Z</time>
      </trkpt>
      <trkpt lat="46.43276" lon="5.36884">
        <ele>412.39999389648</ele>
        <time>2021-04-05T11:50:24.000Z</time>
      </trkpt>
      <trkpt lat="46.4328" lon="5.36886">
        <ele>412.39999389648</ele>
        <time>2021-04-05T11:50:25.000Z</time>
      </trkpt>
      <trkpt lat="46.43288" lon="5.36889">
        <ele>412.79998779297</ele>
        <time>2021-04-05T11:50:27.000Z</time>
      </trkpt>
      <trkpt lat="46.43296" lon="5.36892">
        <ele>413.20001220703</ele>
        <time>2021-04-05T11:50:29.000Z</time>
      </trkpt>
      <trkpt lat="46.43303" lon="5.36896">
        <ele>413.60000610352</ele>
        <time>2021-04-05T11:50:31.000Z</time>
      </trkpt>
      <trkpt lat="46.43311" lon="5.36901">
        <ele>414</ele>
        <time>2021-04-05T11:50:33.000Z</time>
      </trkpt>
      <trkpt lat="46.43317" lon="5.36908">
        <ele>414.39999389648</ele>
        <time>2021-04-05T11:50:35.000Z</time>
      </trkpt>
      <trkpt lat="46.43319" lon="5.36913">
        <ele>414.39999389648</ele>
        <time>2021-04-05T11:50:36.000Z</time>
      </trkpt>
      <trkpt lat="46.4332" lon="5.36918">
        <ele>414.60000610352</ele>
        <time>2021-04-05T11:50:37.000Z</time>
      </trkpt>
      <trkpt lat="46.4332" lon="5.36928">
        <ele>415</ele>
        <time>2021-04-05T11:50:39.000Z</time>
      </trkpt>
      <trkpt lat="46.43318" lon="5.36932">
        <ele>415.39999389648</ele>
        <time>2021-04-05T11:50:40.000Z</time>
      </trkpt>
      <trkpt lat="46.43316" lon="5.36936">
        <ele>415.60000610352</ele>
        <time>2021-04-05T11:50:41.000Z</time>
      </trkpt>
      <trkpt lat="46.43313" lon="5.36938">
        <ele>415.60000610352</ele>
        <time>2021-04-05T11:50:42.000Z</time>
      </trkpt>
      <trkpt lat="46.4331" lon="5.36939">
        <ele>415.79998779297</ele>
        <time>2021-04-05T11:50:43.000Z</time>
      </trkpt>
      <trkpt lat="46.43306" lon="5.3694">
        <ele>416</ele>
        <time>2021-04-05T11:50:44.000Z</time>
      </trkpt>
      <trkpt lat="46.43303" lon="5.3694">
        <ele>416.20001220703</ele>
        <time>2021-04-05T11:50:45.000Z</time>
      </trkpt>
      <trkpt lat="46.43296" lon="5.36939">
        <ele>416.60000610352</ele>
        <time>2021-04-05T11:50:47.000Z</time>
      </trkpt>
      <trkpt lat="46.43288" lon="5.36938">
        <ele>417.20001220703</ele>
        <time>2021-04-05T11:50:49.000Z</time>
      </trkpt>
      <trkpt lat="46.43281" lon="5.36936">
        <ele>417.60000610352</ele>
        <time>2021-04-05T11:50:51.000Z</time>
      </trkpt>
      <trkpt lat="46.43277" lon="5.36935">
        <ele>417.79998779297</ele>
        <time>2021-04-05T11:50:52.000Z</time>
      </trkpt>
      <trkpt lat="46.43273" lon="5.36935">
        <ele>418.20001220703</ele>
        <time>2021-04-05T11:50:53.000Z</time>
      </trkpt>
      <trkpt lat="46.43266" lon="5.36933">
        <ele>418.60000610352</ele>
        <time>2021-04-05T11:50:55.000Z</time>
      </trkpt>
      <trkpt lat="46.43259" lon="5.36932">
        <ele>419</ele>
        <time>2021-04-05T11:50:57.000Z</time>
      </trkpt>
      <trkpt lat="46.43252" lon="5.36931">
        <ele>419.20001220703</ele>
        <time>2021-04-05T11:50:59.000Z</time>
      </trkpt>
      <trkpt lat="46.43245" lon="5.36928">
        <ele>419.79998779297</ele>
        <time>2021-04-05T11:51:01.000Z</time>
      </trkpt>
      <trkpt lat="46.43242" lon="5.36928">
        <ele>420</ele>
        <time>2021-04-05T11:51:02.000Z</time>
      </trkpt>
      <trkpt lat="46.43238" lon="5.36928">
        <ele>420.20001220703</ele>
        <time>2021-04-05T11:51:03.000Z</time>
      </trkpt>
      <trkpt lat="46.43231" lon="5.36928">
        <ele>420.39999389648</ele>
        <time>2021-04-05T11:51:05.000Z</time>
      </trkpt>
      <trkpt lat="46.43225" lon="5.36927">
        <ele>421</ele>
        <time>2021-04-05T11:51:07.000Z</time>
      </trkpt>
      <trkpt lat="46.43221" lon="5.36927">
        <ele>421.20001220703</ele>
        <time>2021-04-05T11:51:08.000Z</time>
      </trkpt>
      <trkpt lat="46.43218" lon="5.36927">
        <ele>421.39999389648</ele>
        <time>2021-04-05T11:51:09.000Z</time>
      </trkpt>
      <trkpt lat="46.43211" lon="5.36925">
        <ele>421.79998779297</ele>
        <time>2021-04-05T11:51:11.000Z</time>
      </trkpt>
      <trkpt lat="46.43208" lon="5.36924">
        <ele>422</ele>
        <time>2021-04-05T11:51:12.000Z</time>
      </trkpt>
      <trkpt lat="46.43205" lon="5.36923">
        <ele>422.39999389648</ele>
        <time>2021-04-05T11:51:13.000Z</time>
      </trkpt>
      <trkpt lat="46.43199" lon="5.36919">
        <ele>422.79998779297</ele>
        <time>2021-04-05T11:51:15.000Z</time>
      </trkpt>
      <trkpt lat="46.43192" lon="5.36916">
        <ele>423.20001220703</ele>
        <time>2021-04-05T11:51:17.000Z</time>
      </trkpt>
      <trkpt lat="46.43188" lon="5.36914">
        <ele>423.39999389648</ele>
        <time>2021-04-05T11:51:18.000Z</time>
      </trkpt>
      <trkpt lat="46.43185" lon="5.36913">
        <ele>423.60000610352</ele>
        <time>2021-04-05T11:51:19.000Z</time>
      </trkpt>
      <trkpt lat="46.43178" lon="5.3691">
        <ele>423.79998779297</ele>
        <time>2021-04-05T11:51:21.000Z</time>
      </trkpt>
      <trkpt lat="46.43172" lon="5.36906">
        <ele>424.60000610352</ele>
        <time>2021-04-05T11:51:23.000Z</time>
      </trkpt>
      <trkpt lat="46.43168" lon="5.36904">
        <ele>424.79998779297</ele>
        <time>2021-04-05T11:51:24.000Z</time>
      </trkpt>
      <trkpt lat="46.43165" lon="5.36902">
        <ele>425</ele>
        <time>2021-04-05T11:51:25.000Z</time>
      </trkpt>
      <trkpt lat="46.43159" lon="5.36898">
        <ele>425.39999389648</ele>
        <time>2021-04-05T11:51:27.000Z</time>
      </trkpt>
      <trkpt lat="46.43155" lon="5.36896">
        <ele>425.79998779297</ele>
        <time>2021-04-05T11:51:28.000Z</time>
      </trkpt>
      <trkpt lat="46.43152" lon="5.36893">
        <ele>426</ele>
        <time>2021-04-05T11:51:29.000Z</time>
      </trkpt>
      <trkpt lat="46.43146" lon="5.36888">
        <ele>426.39999389648</ele>
        <time>2021-04-05T11:51:31.000Z</time>
      </trkpt>
      <trkpt lat="46.4314" lon="5.36883">
        <ele>426.79998779297</ele>
        <time>2021-04-05T11:51:33.000Z</time>
      </trkpt>
      <trkpt lat="46.43134" lon="5.36877">
        <ele>427.20001220703</ele>
        <time>2021-04-05T11:51:35.000Z</time>
      </trkpt>
      <trkpt lat="46.43128" lon="5.36871">
        <ele>427.79998779297</ele>
        <time>2021-04-05T11:51:37.000Z</time>
      </trkpt>
      <trkpt lat="46.43125" lon="5.36867">
        <ele>428</ele>
        <time>2021-04-05T11:51:38.000Z</time>
      </trkpt>
      <trkpt lat="46.43122" lon="5.36864">
        <ele>428.39999389648</ele>
        <time>2021-04-05T11:51:39.000Z</time>
      </trkpt>
      <trkpt lat="46.43117" lon="5.36857">
        <ele>428.79998779297</ele>
        <time>2021-04-05T11:51:41.000Z</time>
      </trkpt>
      <trkpt lat="46.43114" lon="5.36854">
        <ele>428.79998779297</ele>
        <time>2021-04-05T11:51:42.000Z</time>
      </trkpt>
      <trkpt lat="46.43111" lon="5.36851">
        <ele>429.20001220703</ele>
        <time>2021-04-05T11:51:43.000Z</time>
      </trkpt>
      <trkpt lat="46.43105" lon="5.36845">
        <ele>429.39999389648</ele>
        <time>2021-04-05T11:51:45.000Z</time>
      </trkpt>
      <trkpt lat="46.43099" lon="5.36839">
        <ele>429.60000610352</ele>
        <time>2021-04-05T11:51:47.000Z</time>
      </trkpt>
      <trkpt lat="46.43092" lon="5.36834">
        <ele>429.79998779297</ele>
        <time>2021-04-05T11:51:49.000Z</time>
      </trkpt>
      <trkpt lat="46.43088" lon="5.36832">
        <ele>430.20001220703</ele>
        <time>2021-04-05T11:51:50.000Z</time>
      </trkpt>
      <trkpt lat="46.43085" lon="5.3683">
        <ele>430.60000610352</ele>
        <time>2021-04-05T11:51:51.000Z</time>
      </trkpt>
      <trkpt lat="46.43078" lon="5.36827">
        <ele>430.79998779297</ele>
        <time>2021-04-05T11:51:53.000Z</time>
      </trkpt>
      <trkpt lat="46.4307" lon="5.36826">
        <ele>431.20001220703</ele>
        <time>2021-04-05T11:51:55.000Z</time>
      </trkpt>
      <trkpt lat="46.43063" lon="5.36825">
        <ele>431.39999389648</ele>
        <time>2021-04-05T11:51:57.000Z</time>
      </trkpt>
      <trkpt lat="46.4306" lon="5.36824">
        <ele>431.79998779297</ele>
        <time>2021-04-05T11:51:58.000Z</time>
      </trkpt>
      <trkpt lat="46.43056" lon="5.36824">
        <ele>432</ele>
        <time>2021-04-05T11:51:59.000Z</time>
      </trkpt>
      <trkpt lat="46.43049" lon="5.36825">
        <ele>432.39999389648</ele>
        <time>2021-04-05T11:52:01.000Z</time>
      </trkpt>
      <trkpt lat="46.43042" lon="5.36825">
        <ele>432.79998779297</ele>
        <time>2021-04-05T11:52:03.000Z</time>
      </trkpt>
      <trkpt lat="46.43035" lon="5.36825">
        <ele>433.20001220703</ele>
        <time>2021-04-05T11:52:05.000Z</time>
      </trkpt>
      <trkpt lat="46.43029" lon="5.36826">
        <ele>433.60000610352</ele>
        <time>2021-04-05T11:52:07.000Z</time>
      </trkpt>
      <trkpt lat="46.43022" lon="5.36827">
        <ele>433.79998779297</ele>
        <time>2021-04-05T11:52:09.000Z</time>
      </trkpt>
      <trkpt lat="46.43015" lon="5.36829">
        <ele>434.20001220703</ele>
        <time>2021-04-05T11:52:11.000Z</time>
      </trkpt>
      <trkpt lat="46.43008" lon="5.36831">
        <ele>434.60000610352</ele>
        <time>2021-04-05T11:52:13.000Z</time>
      </trkpt>
      <trkpt lat="46.43001" lon="5.36833">
        <ele>434.79998779297</ele>
        <time>2021-04-05T11:52:15.000Z</time>
      </trkpt>
      <trkpt lat="46.42993" lon="5.36834">
        <ele>435.39999389648</ele>
        <time>2021-04-05T11:52:17.000Z</time>
      </trkpt>
      <trkpt lat="46.4299" lon="5.36835">
        <ele>435.60000610352</ele>
        <time>2021-04-05T11:52:18.000Z</time>
      </trkpt>
      <trkpt lat="46.42986" lon="5.36836">
        <ele>435.79998779297</ele>
        <time>2021-04-05T11:52:19.000Z</time>
      </trkpt>
      <trkpt lat="46.42979" lon="5.36838">
        <ele>436.20001220703</ele>
        <time>2021-04-05T11:52:21.000Z</time>
      </trkpt>
      <trkpt lat="46.42972" lon="5.3684">
        <ele>436.39999389648</ele>
        <time>2021-04-05T11:52:23.000Z</time>
      </trkpt>
      <trkpt lat="46.42965" lon="5.3684">
        <ele>436.79998779297</ele>
        <time>2021-04-05T11:52:25.000Z</time>
      </trkpt>
      <trkpt lat="46.42958" lon="5.36842">
        <ele>437.39999389648</ele>
        <time>2021-04-05T11:52:27.000Z</time>
      </trkpt>
      <trkpt lat="46.42951" lon="5.36842">
        <ele>437.79998779297</ele>
        <time>2021-04-05T11:52:29.000Z</time>
      </trkpt>
      <trkpt lat="46.42944" lon="5.36842">
        <ele>438.20001220703</ele>
        <time>2021-04-05T11:52:31.000Z</time>
      </trkpt>
      <trkpt lat="46.42941" lon="5.36842">
        <ele>438.39999389648</ele>
        <time>2021-04-05T11:52:32.000Z</time>
      </trkpt>
      <trkpt lat="46.42937" lon="5.36842">
        <ele>438.60000610352</ele>
        <time>2021-04-05T11:52:33.000Z</time>
      </trkpt>
      <trkpt lat="46.42934" lon="5.36842">
        <ele>439</ele>
        <time>2021-04-05T11:52:34.000Z</time>
      </trkpt>
      <trkpt lat="46.4293" lon="5.36842">
        <ele>439.20001220703</ele>
        <time>2021-04-05T11:52:35.000Z</time>
      </trkpt>
      <trkpt lat="46.42922" lon="5.36842">
        <ele>439.79998779297</ele>
        <time>2021-04-05T11:52:37.000Z</time>
      </trkpt>
      <trkpt lat="46.42919" lon="5.36843">
        <ele>440</ele>
        <time>2021-04-05T11:52:38.000Z</time>
      </trkpt>
      <trkpt lat="46.42915" lon="5.36843">
        <ele>440.20001220703</ele>
        <time>2021-04-05T11:52:39.000Z</time>
      </trkpt>
      <trkpt lat="46.42907" lon="5.36844">
        <ele>440.79998779297</ele>
        <time>2021-04-05T11:52:41.000Z</time>
      </trkpt>
      <trkpt lat="46.42904" lon="5.36845">
        <ele>441</ele>
        <time>2021-04-05T11:52:42.000Z</time>
      </trkpt>
      <trkpt lat="46.429" lon="5.36845">
        <ele>441.20001220703</ele>
        <time>2021-04-05T11:52:43.000Z</time>
      </trkpt>
      <trkpt lat="46.42893" lon="5.36847">
        <ele>441.60000610352</ele>
        <time>2021-04-05T11:52:45.000Z</time>
      </trkpt>
      <trkpt lat="46.42886" lon="5.3685">
        <ele>442</ele>
        <time>2021-04-05T11:52:47.000Z</time>
      </trkpt>
      <trkpt lat="46.42883" lon="5.36851">
        <ele>442.20001220703</ele>
        <time>2021-04-05T11:52:48.000Z</time>
      </trkpt>
      <trkpt lat="46.42879" lon="5.36852">
        <ele>442.60000610352</ele>
        <time>2021-04-05T11:52:49.000Z</time>
      </trkpt>
      <trkpt lat="46.42872" lon="5.36854">
        <ele>443</ele>
        <time>2021-04-05T11:52:51.000Z</time>
      </trkpt>
      <trkpt lat="46.42869" lon="5.36855">
        <ele>443.20001220703</ele>
        <time>2021-04-05T11:52:52.000Z</time>
      </trkpt>
      <trkpt lat="46.42866" lon="5.36856">
        <ele>443.39999389648</ele>
        <time>2021-04-05T11:52:53.000Z</time>
      </trkpt>
      <trkpt lat="46.42859" lon="5.36859">
        <ele>444</ele>
        <time>2021-04-05T11:52:55.000Z</time>
      </trkpt>
      <trkpt lat="46.42852" lon="5.36861">
        <ele>444.39999389648</ele>
        <time>2021-04-05T11:52:57.000Z</time>
      </trkpt>
      <trkpt lat="46.42849" lon="5.36862">
        <ele>444.60000610352</ele>
        <time>2021-04-05T11:52:58.000Z</time>
      </trkpt>
      <trkpt lat="46.42846" lon="5.36864">
        <ele>444.79998779297</ele>
        <time>2021-04-05T11:52:59.000Z</time>
      </trkpt>
      <trkpt lat="46.42844" lon="5.36864">
        <ele>445</ele>
        <time>2021-04-05T11:53:00.000Z</time>
      </trkpt>
      <trkpt lat="46.42841" lon="5.36865">
        <ele>445</ele>
        <time>2021-04-05T11:53:01.000Z</time>
      </trkpt>
      <trkpt lat="46.42834" lon="5.36869">
        <ele>445.39999389648</ele>
        <time>2021-04-05T11:53:03.000Z</time>
      </trkpt>
      <trkpt lat="46.42831" lon="5.3687">
        <ele>445.60000610352</ele>
        <time>2021-04-05T11:53:04.000Z</time>
      </trkpt>
      <trkpt lat="46.42828" lon="5.3687">
        <ele>445.79998779297</ele>
        <time>2021-04-05T11:53:05.000Z</time>
      </trkpt>
      <trkpt lat="46.42822" lon="5.36871">
        <ele>446.20001220703</ele>
        <time>2021-04-05T11:53:07.000Z</time>
      </trkpt>
      <trkpt lat="46.42815" lon="5.36873">
        <ele>446.60000610352</ele>
        <time>2021-04-05T11:53:09.000Z</time>
      </trkpt>
      <trkpt lat="46.42812" lon="5.36874">
        <ele>446.79998779297</ele>
        <time>2021-04-05T11:53:10.000Z</time>
      </trkpt>
      <trkpt lat="46.42808" lon="5.36875">
        <ele>447</ele>
        <time>2021-04-05T11:53:11.000Z</time>
      </trkpt>
      <trkpt lat="46.42801" lon="5.36878">
        <ele>447.20001220703</ele>
        <time>2021-04-05T11:53:13.000Z</time>
      </trkpt>
      <trkpt lat="46.42794" lon="5.36879">
        <ele>447.79998779297</ele>
        <time>2021-04-05T11:53:15.000Z</time>
      </trkpt>
      <trkpt lat="46.42788" lon="5.3688">
        <ele>448.39999389648</ele>
        <time>2021-04-05T11:53:17.000Z</time>
      </trkpt>
      <trkpt lat="46.42784" lon="5.36881">
        <ele>448.79998779297</ele>
        <time>2021-04-05T11:53:18.000Z</time>
      </trkpt>
      <trkpt lat="46.42781" lon="5.36881">
        <ele>449</ele>
        <time>2021-04-05T11:53:19.000Z</time>
      </trkpt>
      <trkpt lat="46.42775" lon="5.36883">
        <ele>449.39999389648</ele>
        <time>2021-04-05T11:53:21.000Z</time>
      </trkpt>
      <trkpt lat="46.42768" lon="5.36885">
        <ele>450</ele>
        <time>2021-04-05T11:53:23.000Z</time>
      </trkpt>
      <trkpt lat="46.42762" lon="5.36886">
        <ele>450.39999389648</ele>
        <time>2021-04-05T11:53:25.000Z</time>
      </trkpt>
      <trkpt lat="46.42756" lon="5.36888">
        <ele>450.79998779297</ele>
        <time>2021-04-05T11:53:27.000Z</time>
      </trkpt>
      <trkpt lat="46.42753" lon="5.36889">
        <ele>451</ele>
        <time>2021-04-05T11:53:28.000Z</time>
      </trkpt>
      <trkpt lat="46.42749" lon="5.3689">
        <ele>451.20001220703</ele>
        <time>2021-04-05T11:53:29.000Z</time>
      </trkpt>
      <trkpt lat="46.42742" lon="5.36893">
        <ele>451.60000610352</ele>
        <time>2021-04-05T11:53:31.000Z</time>
      </trkpt>
      <trkpt lat="46.42736" lon="5.36895">
        <ele>451.60000610352</ele>
        <time>2021-04-05T11:53:33.000Z</time>
      </trkpt>
      <trkpt lat="46.4273" lon="5.36898">
        <ele>452.20001220703</ele>
        <time>2021-04-05T11:53:35.000Z</time>
      </trkpt>
      <trkpt lat="46.42723" lon="5.36901">
        <ele>452.39999389648</ele>
        <time>2021-04-05T11:53:37.000Z</time>
      </trkpt>
      <trkpt lat="46.42715" lon="5.36904">
        <ele>452.79998779297</ele>
        <time>2021-04-05T11:53:39.000Z</time>
      </trkpt>
      <trkpt lat="46.42709" lon="5.36906">
        <ele>453.39999389648</ele>
        <time>2021-04-05T11:53:41.000Z</time>
      </trkpt>
      <trkpt lat="46.42706" lon="5.36908">
        <ele>453.60000610352</ele>
        <time>2021-04-05T11:53:42.000Z</time>
      </trkpt>
      <trkpt lat="46.42703" lon="5.36909">
        <ele>453.60000610352</ele>
        <time>2021-04-05T11:53:43.000Z</time>
      </trkpt>
      <trkpt lat="46.42695" lon="5.36917">
        <ele>454</ele>
        <time>2021-04-05T11:53:45.000Z</time>
      </trkpt>
      <trkpt lat="46.42693" lon="5.36921">
        <ele>454.20001220703</ele>
        <time>2021-04-05T11:53:46.000Z</time>
      </trkpt>
      <trkpt lat="46.42691" lon="5.36926">
        <ele>454.39999389648</ele>
        <time>2021-04-05T11:53:47.000Z</time>
      </trkpt>
      <trkpt lat="46.42689" lon="5.3693">
        <ele>454.60000610352</ele>
        <time>2021-04-05T11:53:48.000Z</time>
      </trkpt>
      <trkpt lat="46.42687" lon="5.36936">
        <ele>455</ele>
        <time>2021-04-05T11:53:49.000Z</time>
      </trkpt>
      <trkpt lat="46.42688" lon="5.36947">
        <ele>455.60000610352</ele>
        <time>2021-04-05T11:53:51.000Z</time>
      </trkpt>
      <trkpt lat="46.42689" lon="5.36951">
        <ele>455.79998779297</ele>
        <time>2021-04-05T11:53:52.000Z</time>
      </trkpt>
      <trkpt lat="46.4269" lon="5.36956">
        <ele>456</ele>
        <time>2021-04-05T11:53:53.000Z</time>
      </trkpt>
      <trkpt lat="46.42695" lon="5.36963">
        <ele>456.39999389648</ele>
        <time>2021-04-05T11:53:55.000Z</time>
      </trkpt>
      <trkpt lat="46.42701" lon="5.36967">
        <ele>456.79998779297</ele>
        <time>2021-04-05T11:53:57.000Z</time>
      </trkpt>
      <trkpt lat="46.42707" lon="5.36968">
        <ele>457.20001220703</ele>
        <time>2021-04-05T11:53:59.000Z</time>
      </trkpt>
      <trkpt lat="46.4271" lon="5.36967">
        <ele>457.60000610352</ele>
        <time>2021-04-05T11:54:00.000Z</time>
      </trkpt>
      <trkpt lat="46.42714" lon="5.36965">
        <ele>458</ele>
        <time>2021-04-05T11:54:01.000Z</time>
      </trkpt>
      <trkpt lat="46.4272" lon="5.36963">
        <ele>458.39999389648</ele>
        <time>2021-04-05T11:54:03.000Z</time>
      </trkpt>
      <trkpt lat="46.42726" lon="5.36961">
        <ele>459</ele>
        <time>2021-04-05T11:54:05.000Z</time>
      </trkpt>
      <trkpt lat="46.42732" lon="5.36959">
        <ele>459.39999389648</ele>
        <time>2021-04-05T11:54:07.000Z</time>
      </trkpt>
      <trkpt lat="46.42739" lon="5.36958">
        <ele>459.79998779297</ele>
        <time>2021-04-05T11:54:09.000Z</time>
      </trkpt>
      <trkpt lat="46.42742" lon="5.36958">
        <ele>460</ele>
        <time>2021-04-05T11:54:10.000Z</time>
      </trkpt>
      <trkpt lat="46.42745" lon="5.36958">
        <ele>460.20001220703</ele>
        <time>2021-04-05T11:54:11.000Z</time>
      </trkpt>
      <trkpt lat="46.42751" lon="5.36959">
        <ele>460.39999389648</ele>
        <time>2021-04-05T11:54:13.000Z</time>
      </trkpt>
      <trkpt lat="46.42757" lon="5.36957">
        <ele>460.60000610352</ele>
        <time>2021-04-05T11:54:15.000Z</time>
      </trkpt>
      <trkpt lat="46.42759" lon="5.36955">
        <ele>461.20001220703</ele>
        <time>2021-04-05T11:54:16.000Z</time>
      </trkpt>
      <trkpt lat="46.42761" lon="5.36954">
        <ele>461.39999389648</ele>
        <time>2021-04-05T11:54:17.000Z</time>
      </trkpt>
      <trkpt lat="46.42767" lon="5.36952">
        <ele>461.79998779297</ele>
        <time>2021-04-05T11:54:19.000Z</time>
      </trkpt>
      <trkpt lat="46.42769" lon="5.36951">
        <ele>462.20001220703</ele>
        <time>2021-04-05T11:54:20.000Z</time>
      </trkpt>
      <trkpt lat="46.42774" lon="5.36948">
        <ele>462.60000610352</ele>
        <time>2021-04-05T11:54:22.000Z</time>
      </trkpt>
      <trkpt lat="46.4278" lon="5.36948">
        <ele>463</ele>
        <time>2021-04-05T11:54:24.000Z</time>
      </trkpt>
      <trkpt lat="46.42783" lon="5.36948">
        <ele>463.20001220703</ele>
        <time>2021-04-05T11:54:25.000Z</time>
      </trkpt>
      <trkpt lat="46.42787" lon="5.36948">
        <ele>463.39999389648</ele>
        <time>2021-04-05T11:54:26.000Z</time>
      </trkpt>
      <trkpt lat="46.42794" lon="5.36947">
        <ele>463.79998779297</ele>
        <time>2021-04-05T11:54:28.000Z</time>
      </trkpt>
      <trkpt lat="46.42801" lon="5.36948">
        <ele>464.20001220703</ele>
        <time>2021-04-05T11:54:30.000Z</time>
      </trkpt>
      <trkpt lat="46.42805" lon="5.36948">
        <ele>464.39999389648</ele>
        <time>2021-04-05T11:54:31.000Z</time>
      </trkpt>
      <trkpt lat="46.42808" lon="5.36948">
        <ele>464.60000610352</ele>
        <time>2021-04-05T11:54:32.000Z</time>
      </trkpt>
      <trkpt lat="46.42815" lon="5.36949">
        <ele>464.79998779297</ele>
        <time>2021-04-05T11:54:34.000Z</time>
      </trkpt>
      <trkpt lat="46.42824" lon="5.3695">
        <ele>465.39999389648</ele>
        <time>2021-04-05T11:54:37.000Z</time>
      </trkpt>
      <trkpt lat="46.42832" lon="5.36953">
        <ele>466</ele>
        <time>2021-04-05T11:54:39.000Z</time>
      </trkpt>
      <trkpt lat="46.4284" lon="5.36955">
        <ele>466.39999389648</ele>
        <time>2021-04-05T11:54:41.000Z</time>
      </trkpt>
      <trkpt lat="46.42844" lon="5.36956">
        <ele>466.60000610352</ele>
        <time>2021-04-05T11:54:42.000Z</time>
      </trkpt>
      <trkpt lat="46.42848" lon="5.36957">
        <ele>467</ele>
        <time>2021-04-05T11:54:43.000Z</time>
      </trkpt>
      <trkpt lat="46.42852" lon="5.36958">
        <ele>467.39999389648</ele>
        <time>2021-04-05T11:54:44.000Z</time>
      </trkpt>
      <trkpt lat="46.42856" lon="5.36959">
        <ele>467.60000610352</ele>
        <time>2021-04-05T11:54:45.000Z</time>
      </trkpt>
      <trkpt lat="46.42866" lon="5.36963">
        <ele>468.20001220703</ele>
        <time>2021-04-05T11:54:48.000Z</time>
      </trkpt>
      <trkpt lat="46.42873" lon="5.36965">
        <ele>468.60000610352</ele>
        <time>2021-04-05T11:54:50.000Z</time>
      </trkpt>
      <trkpt lat="46.42876" lon="5.36965">
        <ele>468.79998779297</ele>
        <time>2021-04-05T11:54:51.000Z</time>
      </trkpt>
      <trkpt lat="46.4288" lon="5.36966">
        <ele>469</ele>
        <time>2021-04-05T11:54:52.000Z</time>
      </trkpt>
      <trkpt lat="46.42887" lon="5.36968">
        <ele>469.39999389648</ele>
        <time>2021-04-05T11:54:54.000Z</time>
      </trkpt>
      <trkpt lat="46.42895" lon="5.36971">
        <ele>469.60000610352</ele>
        <time>2021-04-05T11:54:56.000Z</time>
      </trkpt>
      <trkpt lat="46.42899" lon="5.36972">
        <ele>470</ele>
        <time>2021-04-05T11:54:57.000Z</time>
      </trkpt>
      <trkpt lat="46.42907" lon="5.36975">
        <ele>470.39999389648</ele>
        <time>2021-04-05T11:54:59.000Z</time>
      </trkpt>
      <trkpt lat="46.42915" lon="5.36978">
        <ele>471</ele>
        <time>2021-04-05T11:55:01.000Z</time>
      </trkpt>
      <trkpt lat="46.42922" lon="5.36981">
        <ele>471.39999389648</ele>
        <time>2021-04-05T11:55:03.000Z</time>
      </trkpt>
      <trkpt lat="46.4293" lon="5.36984">
        <ele>471.60000610352</ele>
        <time>2021-04-05T11:55:05.000Z</time>
      </trkpt>
      <trkpt lat="46.42937" lon="5.36987">
        <ele>472</ele>
        <time>2021-04-05T11:55:07.000Z</time>
      </trkpt>
      <trkpt lat="46.42949" lon="5.36991">
        <ele>472.79998779297</ele>
        <time>2021-04-05T11:55:10.000Z</time>
      </trkpt>
      <trkpt lat="46.42956" lon="5.36994">
        <ele>473</ele>
        <time>2021-04-05T11:55:12.000Z</time>
      </trkpt>
      <trkpt lat="46.42963" lon="5.36999">
        <ele>473.60000610352</ele>
        <time>2021-04-05T11:55:14.000Z</time>
      </trkpt>
      <trkpt lat="46.42967" lon="5.37001">
        <ele>473.79998779297</ele>
        <time>2021-04-05T11:55:15.000Z</time>
      </trkpt>
      <trkpt lat="46.42971" lon="5.37003">
        <ele>474</ele>
        <time>2021-04-05T11:55:16.000Z</time>
      </trkpt>
      <trkpt lat="46.42975" lon="5.37006">
        <ele>474.20001220703</ele>
        <time>2021-04-05T11:55:17.000Z</time>
      </trkpt>
      <trkpt lat="46.42979" lon="5.37009">
        <ele>474.39999389648</ele>
        <time>2021-04-05T11:55:18.000Z</time>
      </trkpt>
      <trkpt lat="46.42987" lon="5.37014">
        <ele>474.79998779297</ele>
        <time>2021-04-05T11:55:20.000Z</time>
      </trkpt>
      <trkpt lat="46.42994" lon="5.37019">
        <ele>475.20001220703</ele>
        <time>2021-04-05T11:55:22.000Z</time>
      </trkpt>
      <trkpt lat="46.43002" lon="5.37024">
        <ele>475.39999389648</ele>
        <time>2021-04-05T11:55:24.000Z</time>
      </trkpt>
      <trkpt lat="46.43009" lon="5.37029">
        <ele>475.79998779297</ele>
        <time>2021-04-05T11:55:26.000Z</time>
      </trkpt>
      <trkpt lat="46.43013" lon="5.37032">
        <ele>476</ele>
        <time>2021-04-05T11:55:27.000Z</time>
      </trkpt>
      <trkpt lat="46.43016" lon="5.37034">
        <ele>476.20001220703</ele>
        <time>2021-04-05T11:55:28.000Z</time>
      </trkpt>
      <trkpt lat="46.4302" lon="5.37036">
        <ele>476.39999389648</ele>
        <time>2021-04-05T11:55:29.000Z</time>
      </trkpt>
      <trkpt lat="46.43023" lon="5.37039">
        <ele>476.60000610352</ele>
        <time>2021-04-05T11:55:30.000Z</time>
      </trkpt>
      <trkpt lat="46.43029" lon="5.37044">
        <ele>477.20001220703</ele>
        <time>2021-04-05T11:55:32.000Z</time>
      </trkpt>
      <trkpt lat="46.43036" lon="5.37049">
        <ele>477.39999389648</ele>
        <time>2021-04-05T11:55:34.000Z</time>
      </trkpt>
      <trkpt lat="46.43039" lon="5.37052">
        <ele>477.79998779297</ele>
        <time>2021-04-05T11:55:35.000Z</time>
      </trkpt>
      <trkpt lat="46.43042" lon="5.37055">
        <ele>478</ele>
        <time>2021-04-05T11:55:36.000Z</time>
      </trkpt>
      <trkpt lat="46.43045" lon="5.37058">
        <ele>478.39999389648</ele>
        <time>2021-04-05T11:55:37.000Z</time>
      </trkpt>
      <trkpt lat="46.43048" lon="5.37061">
        <ele>478.60000610352</ele>
        <time>2021-04-05T11:55:38.000Z</time>
      </trkpt>
      <trkpt lat="46.43054" lon="5.37068">
        <ele>479</ele>
        <time>2021-04-05T11:55:40.000Z</time>
      </trkpt>
      <trkpt lat="46.4306" lon="5.37075">
        <ele>479.39999389648</ele>
        <time>2021-04-05T11:55:42.000Z</time>
      </trkpt>
      <trkpt lat="46.43066" lon="5.37081">
        <ele>479.79998779297</ele>
        <time>2021-04-05T11:55:44.000Z</time>
      </trkpt>
      <trkpt lat="46.43069" lon="5.37085">
        <ele>480.20001220703</ele>
        <time>2021-04-05T11:55:45.000Z</time>
      </trkpt>
      <trkpt lat="46.43073" lon="5.37088">
        <ele>480.39999389648</ele>
        <time>2021-04-05T11:55:46.000Z</time>
      </trkpt>
      <trkpt lat="46.43079" lon="5.37096">
        <ele>480.79998779297</ele>
        <time>2021-04-05T11:55:48.000Z</time>
      </trkpt>
      <trkpt lat="46.43085" lon="5.37103">
        <ele>481.20001220703</ele>
        <time>2021-04-05T11:55:50.000Z</time>
      </trkpt>
      <trkpt lat="46.43092" lon="5.3711">
        <ele>481.60000610352</ele>
        <time>2021-04-05T11:55:52.000Z</time>
      </trkpt>
      <trkpt lat="46.43099" lon="5.37117">
        <ele>482</ele>
        <time>2021-04-05T11:55:54.000Z</time>
      </trkpt>
      <trkpt lat="46.43102" lon="5.37121">
        <ele>482.20001220703</ele>
        <time>2021-04-05T11:55:55.000Z</time>
      </trkpt>
      <trkpt lat="46.43105" lon="5.37125">
        <ele>482.60000610352</ele>
        <time>2021-04-05T11:55:56.000Z</time>
      </trkpt>
      <trkpt lat="46.43111" lon="5.37132">
        <ele>482.79998779297</ele>
        <time>2021-04-05T11:55:58.000Z</time>
      </trkpt>
      <trkpt lat="46.43118" lon="5.3714">
        <ele>483.39999389648</ele>
        <time>2021-04-05T11:56:00.000Z</time>
      </trkpt>
      <trkpt lat="46.43124" lon="5.37147">
        <ele>483.79998779297</ele>
        <time>2021-04-05T11:56:02.000Z</time>
      </trkpt>
      <trkpt lat="46.43131" lon="5.37154">
        <ele>484</ele>
        <time>2021-04-05T11:56:04.000Z</time>
      </trkpt>
      <trkpt lat="46.43136" lon="5.37161">
        <ele>484.39999389648</ele>
        <time>2021-04-05T11:56:06.000Z</time>
      </trkpt>
      <trkpt lat="46.43143" lon="5.37168">
        <ele>485</ele>
        <time>2021-04-05T11:56:08.000Z</time>
      </trkpt>
      <trkpt lat="46.4315" lon="5.37174">
        <ele>485.39999389648</ele>
        <time>2021-04-05T11:56:10.000Z</time>
      </trkpt>
      <trkpt lat="46.43153" lon="5.37176">
        <ele>485.79998779297</ele>
        <time>2021-04-05T11:56:11.000Z</time>
      </trkpt>
      <trkpt lat="46.43157" lon="5.37179">
        <ele>486</ele>
        <time>2021-04-05T11:56:12.000Z</time>
      </trkpt>
      <trkpt lat="46.4316" lon="5.37182">
        <ele>486.20001220703</ele>
        <time>2021-04-05T11:56:13.000Z</time>
      </trkpt>
      <trkpt lat="46.43164" lon="5.37184">
        <ele>486.20001220703</ele>
        <time>2021-04-05T11:56:14.000Z</time>
      </trkpt>
      <trkpt lat="46.43172" lon="5.37189">
        <ele>486.60000610352</ele>
        <time>2021-04-05T11:56:16.000Z</time>
      </trkpt>
      <trkpt lat="46.43176" lon="5.37191">
        <ele>486.79998779297</ele>
        <time>2021-04-05T11:56:17.000Z</time>
      </trkpt>
      <trkpt lat="46.4318" lon="5.37194">
        <ele>487</ele>
        <time>2021-04-05T11:56:18.000Z</time>
      </trkpt>
      <trkpt lat="46.43188" lon="5.37199">
        <ele>487.39999389648</ele>
        <time>2021-04-05T11:56:20.000Z</time>
      </trkpt>
      <trkpt lat="46.43196" lon="5.37203">
        <ele>487.60000610352</ele>
        <time>2021-04-05T11:56:22.000Z</time>
      </trkpt>
      <trkpt lat="46.43199" lon="5.37206">
        <ele>487.79998779297</ele>
        <time>2021-04-05T11:56:23.000Z</time>
      </trkpt>
      <trkpt lat="46.43204" lon="5.37209">
        <ele>488</ele>
        <time>2021-04-05T11:56:24.000Z</time>
      </trkpt>
      <trkpt lat="46.43212" lon="5.37214">
        <ele>488.60000610352</ele>
        <time>2021-04-05T11:56:26.000Z</time>
      </trkpt>
      <trkpt lat="46.43221" lon="5.37219">
        <ele>489.20001220703</ele>
        <time>2021-04-05T11:56:28.000Z</time>
      </trkpt>
      <trkpt lat="46.43229" lon="5.37225">
        <ele>489.79998779297</ele>
        <time>2021-04-05T11:56:30.000Z</time>
      </trkpt>
      <trkpt lat="46.43235" lon="5.37231">
        <ele>490</ele>
        <time>2021-04-05T11:56:32.000Z</time>
      </trkpt>
      <trkpt lat="46.43241" lon="5.37238">
        <ele>490.20001220703</ele>
        <time>2021-04-05T11:56:34.000Z</time>
      </trkpt>
      <trkpt lat="46.43244" lon="5.37242">
        <ele>490.39999389648</ele>
        <time>2021-04-05T11:56:35.000Z</time>
      </trkpt>
      <trkpt lat="46.43247" lon="5.37245">
        <ele>490.60000610352</ele>
        <time>2021-04-05T11:56:36.000Z</time>
      </trkpt>
      <trkpt lat="46.43251" lon="5.37252">
        <ele>491.20001220703</ele>
        <time>2021-04-05T11:56:38.000Z</time>
      </trkpt>
      <trkpt lat="46.43253" lon="5.37256">
        <ele>491.39999389648</ele>
        <time>2021-04-05T11:56:39.000Z</time>
      </trkpt>
      <trkpt lat="46.43256" lon="5.3726">
        <ele>491.79998779297</ele>
        <time>2021-04-05T11:56:40.000Z</time>
      </trkpt>
      <trkpt lat="46.43259" lon="5.37268">
        <ele>492.20001220703</ele>
        <time>2021-04-05T11:56:42.000Z</time>
      </trkpt>
      <trkpt lat="46.43262" lon="5.37276">
        <ele>492.60000610352</ele>
        <time>2021-04-05T11:56:44.000Z</time>
      </trkpt>
      <trkpt lat="46.43264" lon="5.37281">
        <ele>492.79998779297</ele>
        <time>2021-04-05T11:56:45.000Z</time>
      </trkpt>
      <trkpt lat="46.43267" lon="5.37285">
        <ele>493</ele>
        <time>2021-04-05T11:56:46.000Z</time>
      </trkpt>
      <trkpt lat="46.43272" lon="5.37295">
        <ele>493.39999389648</ele>
        <time>2021-04-05T11:56:48.000Z</time>
      </trkpt>
      <trkpt lat="46.43278" lon="5.37305">
        <ele>493.60000610352</ele>
        <time>2021-04-05T11:56:50.000Z</time>
      </trkpt>
      <trkpt lat="46.43282" lon="5.37315">
        <ele>494</ele>
        <time>2021-04-05T11:56:52.000Z</time>
      </trkpt>
      <trkpt lat="46.43287" lon="5.37326">
        <ele>494.39999389648</ele>
        <time>2021-04-05T11:56:54.000Z</time>
      </trkpt>
      <trkpt lat="46.43289" lon="5.37336">
        <ele>494.79998779297</ele>
        <time>2021-04-05T11:56:56.000Z</time>
      </trkpt>
      <trkpt lat="46.43291" lon="5.37345">
        <ele>495</ele>
        <time>2021-04-05T11:56:58.000Z</time>
      </trkpt>
      <trkpt lat="46.43294" lon="5.3735">
        <ele>495.20001220703</ele>
        <time>2021-04-05T11:56:59.000Z</time>
      </trkpt>
      <trkpt lat="46.43298" lon="5.37354">
        <ele>495.39999389648</ele>
        <time>2021-04-05T11:57:00.000Z</time>
      </trkpt>
      <trkpt lat="46.4331" lon="5.37361">
        <ele>495.60000610352</ele>
        <time>2021-04-05T11:57:02.000Z</time>
      </trkpt>
      <trkpt lat="46.43315" lon="5.37363">
        <ele>495.79998779297</ele>
        <time>2021-04-05T11:57:03.000Z</time>
      </trkpt>
      <trkpt lat="46.43321" lon="5.37365">
        <ele>496</ele>
        <time>2021-04-05T11:57:04.000Z</time>
      </trkpt>
      <trkpt lat="46.43329" lon="5.37366">
        <ele>496.39999389648</ele>
        <time>2021-04-05T11:57:06.000Z</time>
      </trkpt>
      <trkpt lat="46.43334" lon="5.37366">
        <ele>496.79998779297</ele>
        <time>2021-04-05T11:57:07.000Z</time>
      </trkpt>
      <trkpt lat="46.43338" lon="5.37366">
        <ele>497</ele>
        <time>2021-04-05T11:57:08.000Z</time>
      </trkpt>
      <trkpt lat="46.43346" lon="5.37365">
        <ele>497.39999389648</ele>
        <time>2021-04-05T11:57:10.000Z</time>
      </trkpt>
      <trkpt lat="46.43352" lon="5.37363">
        <ele>497.60000610352</ele>
        <time>2021-04-05T11:57:12.000Z</time>
      </trkpt>
      <trkpt lat="46.43356" lon="5.37362">
        <ele>497.79998779297</ele>
        <time>2021-04-05T11:57:13.000Z</time>
      </trkpt>
      <trkpt lat="46.4336" lon="5.37362">
        <ele>497.79998779297</ele>
        <time>2021-04-05T11:57:14.000Z</time>
      </trkpt>
      <trkpt lat="46.43364" lon="5.37362">
        <ele>498.20001220703</ele>
        <time>2021-04-05T11:57:15.000Z</time>
      </trkpt>
      <trkpt lat="46.43368" lon="5.37361">
        <ele>498.39999389648</ele>
        <time>2021-04-05T11:57:16.000Z</time>
      </trkpt>
      <trkpt lat="46.43377" lon="5.3736">
        <ele>499</ele>
        <time>2021-04-05T11:57:18.000Z</time>
      </trkpt>
      <trkpt lat="46.43382" lon="5.37358">
        <ele>499.20001220703</ele>
        <time>2021-04-05T11:57:19.000Z</time>
      </trkpt>
      <trkpt lat="46.43386" lon="5.37357">
        <ele>499.60000610352</ele>
        <time>2021-04-05T11:57:20.000Z</time>
      </trkpt>
      <trkpt lat="46.43394" lon="5.37356">
        <ele>500</ele>
        <time>2021-04-05T11:57:22.000Z</time>
      </trkpt>
      <trkpt lat="46.43402" lon="5.37355">
        <ele>500.39999389648</ele>
        <time>2021-04-05T11:57:24.000Z</time>
      </trkpt>
      <trkpt lat="46.43405" lon="5.37355">
        <ele>500.60000610352</ele>
        <time>2021-04-05T11:57:25.000Z</time>
      </trkpt>
      <trkpt lat="46.43409" lon="5.37354">
        <ele>500.60000610352</ele>
        <time>2021-04-05T11:57:26.000Z</time>
      </trkpt>
      <trkpt lat="46.43416" lon="5.37352">
        <ele>501</ele>
        <time>2021-04-05T11:57:28.000Z</time>
      </trkpt>
      <trkpt lat="46.4342" lon="5.3735">
        <ele>501.20001220703</ele>
        <time>2021-04-05T11:57:29.000Z</time>
      </trkpt>
      <trkpt lat="46.43424" lon="5.37349">
        <ele>501.39999389648</ele>
        <time>2021-04-05T11:57:30.000Z</time>
      </trkpt>
      <trkpt lat="46.43431" lon="5.37346">
        <ele>501.60000610352</ele>
        <time>2021-04-05T11:57:32.000Z</time>
      </trkpt>
      <trkpt lat="46.43438" lon="5.37342">
        <ele>502</ele>
        <time>2021-04-05T11:57:34.000Z</time>
      </trkpt>
      <trkpt lat="46.43441" lon="5.37341">
        <ele>502.20001220703</ele>
        <time>2021-04-05T11:57:35.000Z</time>
      </trkpt>
      <trkpt lat="46.43444" lon="5.3734">
        <ele>502.39999389648</ele>
        <time>2021-04-05T11:57:36.000Z</time>
      </trkpt>
      <trkpt lat="46.43451" lon="5.37337">
        <ele>503.20001220703</ele>
        <time>2021-04-05T11:57:38.000Z</time>
      </trkpt>
      <trkpt lat="46.43455" lon="5.37337">
        <ele>503.39999389648</ele>
        <time>2021-04-05T11:57:39.000Z</time>
      </trkpt>
      <trkpt lat="46.43458" lon="5.37336">
        <ele>503.60000610352</ele>
        <time>2021-04-05T11:57:40.000Z</time>
      </trkpt>
      <trkpt lat="46.43466" lon="5.37335">
        <ele>504</ele>
        <time>2021-04-05T11:57:42.000Z</time>
      </trkpt>
      <trkpt lat="46.43469" lon="5.37335">
        <ele>504.20001220703</ele>
        <time>2021-04-05T11:57:43.000Z</time>
      </trkpt>
      <trkpt lat="46.43473" lon="5.37335">
        <ele>504.39999389648</ele>
        <time>2021-04-05T11:57:44.000Z</time>
      </trkpt>
      <trkpt lat="46.43477" lon="5.37335">
        <ele>504.60000610352</ele>
        <time>2021-04-05T11:57:45.000Z</time>
      </trkpt>
      <trkpt lat="46.43481" lon="5.37334">
        <ele>504.79998779297</ele>
        <time>2021-04-05T11:57:46.000Z</time>
      </trkpt>
      <trkpt lat="46.43488" lon="5.37333">
        <ele>505</ele>
        <time>2021-04-05T11:57:48.000Z</time>
      </trkpt>
      <trkpt lat="46.43495" lon="5.37335">
        <ele>505.60000610352</ele>
        <time>2021-04-05T11:57:50.000Z</time>
      </trkpt>
      <trkpt lat="46.43499" lon="5.37334">
        <ele>505.79998779297</ele>
        <time>2021-04-05T11:57:51.000Z</time>
      </trkpt>
      <trkpt lat="46.43502" lon="5.37334">
        <ele>505.79998779297</ele>
        <time>2021-04-05T11:57:52.000Z</time>
      </trkpt>
      <trkpt lat="46.4351" lon="5.37334">
        <ele>506.39999389648</ele>
        <time>2021-04-05T11:57:54.000Z</time>
      </trkpt>
      <trkpt lat="46.43517" lon="5.37336">
        <ele>506.79998779297</ele>
        <time>2021-04-05T11:57:56.000Z</time>
      </trkpt>
      <trkpt lat="46.43524" lon="5.37337">
        <ele>507</ele>
        <time>2021-04-05T11:57:58.000Z</time>
      </trkpt>
      <trkpt lat="46.43531" lon="5.37338">
        <ele>507.60000610352</ele>
        <time>2021-04-05T11:58:00.000Z</time>
      </trkpt>
      <trkpt lat="46.43534" lon="5.37338">
        <ele>507.79998779297</ele>
        <time>2021-04-05T11:58:01.000Z</time>
      </trkpt>
      <trkpt lat="46.43538" lon="5.37339">
        <ele>508</ele>
        <time>2021-04-05T11:58:02.000Z</time>
      </trkpt>
      <trkpt lat="46.43545" lon="5.3734">
        <ele>508.60000610352</ele>
        <time>2021-04-05T11:58:04.000Z</time>
      </trkpt>
      <trkpt lat="46.43549" lon="5.37339">
        <ele>508.79998779297</ele>
        <time>2021-04-05T11:58:05.000Z</time>
      </trkpt>
      <trkpt lat="46.43552" lon="5.37338">
        <ele>509</ele>
        <time>2021-04-05T11:58:06.000Z</time>
      </trkpt>
      <trkpt lat="46.4356" lon="5.37338">
        <ele>509.79998779297</ele>
        <time>2021-04-05T11:58:08.000Z</time>
      </trkpt>
      <trkpt lat="46.43567" lon="5.37339">
        <ele>510.20001220703</ele>
        <time>2021-04-05T11:58:10.000Z</time>
      </trkpt>
      <trkpt lat="46.43571" lon="5.37339">
        <ele>510.39999389648</ele>
        <time>2021-04-05T11:58:11.000Z</time>
      </trkpt>
      <trkpt lat="46.43574" lon="5.37339">
        <ele>510.39999389648</ele>
        <time>2021-04-05T11:58:12.000Z</time>
      </trkpt>
      <trkpt lat="46.43581" lon="5.3734">
        <ele>510.60000610352</ele>
        <time>2021-04-05T11:58:14.000Z</time>
      </trkpt>
      <trkpt lat="46.43588" lon="5.37341">
        <ele>511</ele>
        <time>2021-04-05T11:58:16.000Z</time>
      </trkpt>
      <trkpt lat="46.43596" lon="5.37341">
        <ele>511.39999389648</ele>
        <time>2021-04-05T11:58:18.000Z</time>
      </trkpt>
      <trkpt lat="46.43603" lon="5.37341">
        <ele>511.79998779297</ele>
        <time>2021-04-05T11:58:20.000Z</time>
      </trkpt>
      <trkpt lat="46.4361" lon="5.37342">
        <ele>512.40002441406</ele>
        <time>2021-04-05T11:58:22.000Z</time>
      </trkpt>
      <trkpt lat="46.43614" lon="5.37343">
        <ele>512.59997558594</ele>
        <time>2021-04-05T11:58:23.000Z</time>
      </trkpt>
      <trkpt lat="46.43618" lon="5.37344">
        <ele>512.79998779297</ele>
        <time>2021-04-05T11:58:24.000Z</time>
      </trkpt>
      <trkpt lat="46.43625" lon="5.37345">
        <ele>513.40002441406</ele>
        <time>2021-04-05T11:58:26.000Z</time>
      </trkpt>
      <trkpt lat="46.43629" lon="5.37346">
        <ele>513.40002441406</ele>
        <time>2021-04-05T11:58:27.000Z</time>
      </trkpt>
      <trkpt lat="46.43632" lon="5.37347">
        <ele>513.59997558594</ele>
        <time>2021-04-05T11:58:28.000Z</time>
      </trkpt>
      <trkpt lat="46.43636" lon="5.37348">
        <ele>513.79998779297</ele>
        <time>2021-04-05T11:58:29.000Z</time>
      </trkpt>
      <trkpt lat="46.4364" lon="5.3735">
        <ele>514</ele>
        <time>2021-04-05T11:58:30.000Z</time>
      </trkpt>
      <trkpt lat="46.43647" lon="5.37352">
        <ele>514.79998779297</ele>
        <time>2021-04-05T11:58:32.000Z</time>
      </trkpt>
      <trkpt lat="46.43654" lon="5.37354">
        <ele>515</ele>
        <time>2021-04-05T11:58:34.000Z</time>
      </trkpt>
      <trkpt lat="46.43658" lon="5.37354">
        <ele>515.20001220703</ele>
        <time>2021-04-05T11:58:35.000Z</time>
      </trkpt>
      <trkpt lat="46.43662" lon="5.37354">
        <ele>515.20001220703</ele>
        <time>2021-04-05T11:58:36.000Z</time>
      </trkpt>
      <trkpt lat="46.43666" lon="5.37355">
        <ele>515.59997558594</ele>
        <time>2021-04-05T11:58:37.000Z</time>
      </trkpt>
      <trkpt lat="46.4367" lon="5.37356">
        <ele>516</ele>
        <time>2021-04-05T11:58:38.000Z</time>
      </trkpt>
      <trkpt lat="46.43677" lon="5.37358">
        <ele>516.40002441406</ele>
        <time>2021-04-05T11:58:40.000Z</time>
      </trkpt>
      <trkpt lat="46.43681" lon="5.37359">
        <ele>516.40002441406</ele>
        <time>2021-04-05T11:58:41.000Z</time>
      </trkpt>
      <trkpt lat="46.43685" lon="5.37359">
        <ele>516.59997558594</ele>
        <time>2021-04-05T11:58:42.000Z</time>
      </trkpt>
      <trkpt lat="46.43689" lon="5.3736">
        <ele>516.79998779297</ele>
        <time>2021-04-05T11:58:43.000Z</time>
      </trkpt>
      <trkpt lat="46.43692" lon="5.37361">
        <ele>517</ele>
        <time>2021-04-05T11:58:44.000Z</time>
      </trkpt>
      <trkpt lat="46.43699" lon="5.37363">
        <ele>517.59997558594</ele>
        <time>2021-04-05T11:58:46.000Z</time>
      </trkpt>
      <trkpt lat="46.43703" lon="5.37363">
        <ele>517.79998779297</ele>
        <time>2021-04-05T11:58:47.000Z</time>
      </trkpt>
      <trkpt lat="46.43706" lon="5.37364">
        <ele>518</ele>
        <time>2021-04-05T11:58:48.000Z</time>
      </trkpt>
      <trkpt lat="46.43714" lon="5.37367">
        <ele>518.59997558594</ele>
        <time>2021-04-05T11:58:50.000Z</time>
      </trkpt>
      <trkpt lat="46.43721" lon="5.37371">
        <ele>519</ele>
        <time>2021-04-05T11:58:52.000Z</time>
      </trkpt>
      <trkpt lat="46.43724" lon="5.37372">
        <ele>519.40002441406</ele>
        <time>2021-04-05T11:58:53.000Z</time>
      </trkpt>
      <trkpt lat="46.43728" lon="5.37374">
        <ele>519.79998779297</ele>
        <time>2021-04-05T11:58:54.000Z</time>
      </trkpt>
      <trkpt lat="46.43734" lon="5.37379">
        <ele>520</ele>
        <time>2021-04-05T11:58:56.000Z</time>
      </trkpt>
      <trkpt lat="46.43741" lon="5.37383">
        <ele>520.40002441406</ele>
        <time>2021-04-05T11:58:58.000Z</time>
      </trkpt>
      <trkpt lat="46.43744" lon="5.37385">
        <ele>520.59997558594</ele>
        <time>2021-04-05T11:58:59.000Z</time>
      </trkpt>
      <trkpt lat="46.43747" lon="5.37387">
        <ele>520.79998779297</ele>
        <time>2021-04-05T11:59:00.000Z</time>
      </trkpt>
      <trkpt lat="46.43753" lon="5.37391">
        <ele>521.20001220703</ele>
        <time>2021-04-05T11:59:02.000Z</time>
      </trkpt>
      <trkpt lat="46.4376" lon="5.37395">
        <ele>521.59997558594</ele>
        <time>2021-04-05T11:59:04.000Z</time>
      </trkpt>
      <trkpt lat="46.43763" lon="5.37398">
        <ele>521.79998779297</ele>
        <time>2021-04-05T11:59:05.000Z</time>
      </trkpt>
      <trkpt lat="46.43766" lon="5.374">
        <ele>522.20001220703</ele>
        <time>2021-04-05T11:59:06.000Z</time>
      </trkpt>
      <trkpt lat="46.43772" lon="5.37405">
        <ele>522.79998779297</ele>
        <time>2021-04-05T11:59:08.000Z</time>
      </trkpt>
      <trkpt lat="46.43775" lon="5.37407">
        <ele>523</ele>
        <time>2021-04-05T11:59:09.000Z</time>
      </trkpt>
      <trkpt lat="46.43778" lon="5.37409">
        <ele>523.20001220703</ele>
        <time>2021-04-05T11:59:10.000Z</time>
      </trkpt>
      <trkpt lat="46.43781" lon="5.37412">
        <ele>523.20001220703</ele>
        <time>2021-04-05T11:59:11.000Z</time>
      </trkpt>
      <trkpt lat="46.43784" lon="5.37415">
        <ele>523.40002441406</ele>
        <time>2021-04-05T11:59:12.000Z</time>
      </trkpt>
      <trkpt lat="46.43789" lon="5.3742">
        <ele>523.79998779297</ele>
        <time>2021-04-05T11:59:14.000Z</time>
      </trkpt>
      <trkpt lat="46.43792" lon="5.37422">
        <ele>524</ele>
        <time>2021-04-05T11:59:15.000Z</time>
      </trkpt>
      <trkpt lat="46.43795" lon="5.37424">
        <ele>524.20001220703</ele>
        <time>2021-04-05T11:59:16.000Z</time>
      </trkpt>
      <trkpt lat="46.43799" lon="5.37429">
        <ele>524.59997558594</ele>
        <time>2021-04-05T11:59:18.000Z</time>
      </trkpt>
      <trkpt lat="46.43802" lon="5.37434">
        <ele>525</ele>
        <time>2021-04-05T11:59:20.000Z</time>
      </trkpt>
      <trkpt lat="46.43804" lon="5.37437">
        <ele>525.20001220703</ele>
        <time>2021-04-05T11:59:21.000Z</time>
      </trkpt>
      <trkpt lat="46.43807" lon="5.3744">
        <ele>525.20001220703</ele>
        <time>2021-04-05T11:59:22.000Z</time>
      </trkpt>
      <trkpt lat="46.43812" lon="5.37447">
        <ele>525.79998779297</ele>
        <time>2021-04-05T11:59:24.000Z</time>
      </trkpt>
      <trkpt lat="46.43814" lon="5.37451">
        <ele>526</ele>
        <time>2021-04-05T11:59:25.000Z</time>
      </trkpt>
      <trkpt lat="46.43816" lon="5.37455">
        <ele>526.20001220703</ele>
        <time>2021-04-05T11:59:26.000Z</time>
      </trkpt>
      <trkpt lat="46.43819" lon="5.37462">
        <ele>526.79998779297</ele>
        <time>2021-04-05T11:59:28.000Z</time>
      </trkpt>
      <trkpt lat="46.43822" lon="5.37469">
        <ele>527.20001220703</ele>
        <time>2021-04-05T11:59:30.000Z</time>
      </trkpt>
      <trkpt lat="46.43823" lon="5.37473">
        <ele>527.40002441406</ele>
        <time>2021-04-05T11:59:31.000Z</time>
      </trkpt>
      <trkpt lat="46.43825" lon="5.37477">
        <ele>527.59997558594</ele>
        <time>2021-04-05T11:59:32.000Z</time>
      </trkpt>
      <trkpt lat="46.43829" lon="5.37484">
        <ele>527.79998779297</ele>
        <time>2021-04-05T11:59:34.000Z</time>
      </trkpt>
      <trkpt lat="46.43831" lon="5.37487">
        <ele>528.40002441406</ele>
        <time>2021-04-05T11:59:35.000Z</time>
      </trkpt>
      <trkpt lat="46.43833" lon="5.37491">
        <ele>528.59997558594</ele>
        <time>2021-04-05T11:59:36.000Z</time>
      </trkpt>
      <trkpt lat="46.43836" lon="5.37498">
        <ele>529</ele>
        <time>2021-04-05T11:59:38.000Z</time>
      </trkpt>
      <trkpt lat="46.43841" lon="5.37506">
        <ele>529.40002441406</ele>
        <time>2021-04-05T11:59:40.000Z</time>
      </trkpt>
      <trkpt lat="46.43845" lon="5.3751">
        <ele>529.59997558594</ele>
        <time>2021-04-05T11:59:41.000Z</time>
      </trkpt>
      <trkpt lat="46.43849" lon="5.37513">
        <ele>529.79998779297</ele>
        <time>2021-04-05T11:59:42.000Z</time>
      </trkpt>
      <trkpt lat="46.43858" lon="5.37521">
        <ele>530</ele>
        <time>2021-04-05T11:59:44.000Z</time>
      </trkpt>
      <trkpt lat="46.43865" lon="5.37528">
        <ele>530.40002441406</ele>
        <time>2021-04-05T11:59:46.000Z</time>
      </trkpt>
      <trkpt lat="46.43873" lon="5.37534">
        <ele>530.59997558594</ele>
        <time>2021-04-05T11:59:48.000Z</time>
      </trkpt>
      <trkpt lat="46.4388" lon="5.37541">
        <ele>531</ele>
        <time>2021-04-05T11:59:50.000Z</time>
      </trkpt>
      <trkpt lat="46.43882" lon="5.37544">
        <ele>531.20001220703</ele>
        <time>2021-04-05T11:59:51.000Z</time>
      </trkpt>
      <trkpt lat="46.43885" lon="5.37547">
        <ele>531.59997558594</ele>
        <time>2021-04-05T11:59:52.000Z</time>
      </trkpt>
      <trkpt lat="46.43888" lon="5.3755">
        <ele>531.59997558594</ele>
        <time>2021-04-05T11:59:53.000Z</time>
      </trkpt>
      <trkpt lat="46.43891" lon="5.37553">
        <ele>531.79998779297</ele>
        <time>2021-04-05T11:59:54.000Z</time>
      </trkpt>
      <trkpt lat="46.43896" lon="5.37559">
        <ele>532.20001220703</ele>
        <time>2021-04-05T11:59:56.000Z</time>
      </trkpt>
      <trkpt lat="46.43897" lon="5.37562">
        <ele>532.40002441406</ele>
        <time>2021-04-05T11:59:57.000Z</time>
      </trkpt>
      <trkpt lat="46.43899" lon="5.37565">
        <ele>532.59997558594</ele>
        <time>2021-04-05T11:59:58.000Z</time>
      </trkpt>
      <trkpt lat="46.43902" lon="5.37568">
        <ele>532.79998779297</ele>
        <time>2021-04-05T11:59:59.000Z</time>
      </trkpt>
      <trkpt lat="46.43904" lon="5.3757">
        <ele>533</ele>
        <time>2021-04-05T12:00:00.000Z</time>
      </trkpt>
      <trkpt lat="46.4391" lon="5.37576">
        <ele>533.40002441406</ele>
        <time>2021-04-05T12:00:02.000Z</time>
      </trkpt>
      <trkpt lat="46.43913" lon="5.37579">
        <ele>533.59997558594</ele>
        <time>2021-04-05T12:00:03.000Z</time>
      </trkpt>
      <trkpt lat="46.43916" lon="5.37583">
        <ele>534</ele>
        <time>2021-04-05T12:00:04.000Z</time>
      </trkpt>
      <trkpt lat="46.43923" lon="5.37588">
        <ele>534.20001220703</ele>
        <time>2021-04-05T12:00:06.000Z</time>
      </trkpt>
      <trkpt lat="46.4393" lon="5.37593">
        <ele>534.59997558594</ele>
        <time>2021-04-05T12:00:08.000Z</time>
      </trkpt>
      <trkpt lat="46.43933" lon="5.37596">
        <ele>534.79998779297</ele>
        <time>2021-04-05T12:00:09.000Z</time>
      </trkpt>
      <trkpt lat="46.43937" lon="5.37599">
        <ele>535</ele>
        <time>2021-04-05T12:00:10.000Z</time>
      </trkpt>
      <trkpt lat="46.43943" lon="5.37604">
        <ele>535.40002441406</ele>
        <time>2021-04-05T12:00:12.000Z</time>
      </trkpt>
      <trkpt lat="46.43948" lon="5.37608">
        <ele>535.79998779297</ele>
        <time>2021-04-05T12:00:14.000Z</time>
      </trkpt>
      <trkpt lat="46.4395" lon="5.3761">
        <ele>536.20001220703</ele>
        <time>2021-04-05T12:00:15.000Z</time>
      </trkpt>
      <trkpt lat="46.43954" lon="5.37612">
        <ele>536.40002441406</ele>
        <time>2021-04-05T12:00:16.000Z</time>
      </trkpt>
      <trkpt lat="46.4396" lon="5.37617">
        <ele>536.59997558594</ele>
        <time>2021-04-05T12:00:18.000Z</time>
      </trkpt>
      <trkpt lat="46.43969" lon="5.37621">
        <ele>537.20001220703</ele>
        <time>2021-04-05T12:00:20.000Z</time>
      </trkpt>
      <trkpt lat="46.43978" lon="5.37625">
        <ele>537.59997558594</ele>
        <time>2021-04-05T12:00:22.000Z</time>
      </trkpt>
      <trkpt lat="46.43987" lon="5.37629">
        <ele>538</ele>
        <time>2021-04-05T12:00:24.000Z</time>
      </trkpt>
      <trkpt lat="46.43991" lon="5.37631">
        <ele>538.20001220703</ele>
        <time>2021-04-05T12:00:25.000Z</time>
      </trkpt>
      <trkpt lat="46.43995" lon="5.37634">
        <ele>538.40002441406</ele>
        <time>2021-04-05T12:00:26.000Z</time>
      </trkpt>
      <trkpt lat="46.43999" lon="5.37637">
        <ele>538.59997558594</ele>
        <time>2021-04-05T12:00:27.000Z</time>
      </trkpt>
      <trkpt lat="46.44003" lon="5.37639">
        <ele>539</ele>
        <time>2021-04-05T12:00:28.000Z</time>
      </trkpt>
      <trkpt lat="46.44011" lon="5.37644">
        <ele>539.20001220703</ele>
        <time>2021-04-05T12:00:30.000Z</time>
      </trkpt>
      <trkpt lat="46.44018" lon="5.37651">
        <ele>539.79998779297</ele>
        <time>2021-04-05T12:00:32.000Z</time>
      </trkpt>
      <trkpt lat="46.44021" lon="5.37654">
        <ele>540.20001220703</ele>
        <time>2021-04-05T12:00:33.000Z</time>
      </trkpt>
      <trkpt lat="46.44024" lon="5.37657">
        <ele>540.40002441406</ele>
        <time>2021-04-05T12:00:34.000Z</time>
      </trkpt>
      <trkpt lat="46.4403" lon="5.37665">
        <ele>540.79998779297</ele>
        <time>2021-04-05T12:00:36.000Z</time>
      </trkpt>
      <trkpt lat="46.44035" lon="5.37673">
        <ele>541.40002441406</ele>
        <time>2021-04-05T12:00:38.000Z</time>
      </trkpt>
      <trkpt lat="46.4404" lon="5.37681">
        <ele>542</ele>
        <time>2021-04-05T12:00:40.000Z</time>
      </trkpt>
      <trkpt lat="46.44044" lon="5.3769">
        <ele>542.59997558594</ele>
        <time>2021-04-05T12:00:42.000Z</time>
      </trkpt>
      <trkpt lat="46.44049" lon="5.377">
        <ele>543</ele>
        <time>2021-04-05T12:00:44.000Z</time>
      </trkpt>
      <trkpt lat="46.44053" lon="5.3771">
        <ele>543.59997558594</ele>
        <time>2021-04-05T12:00:46.000Z</time>
      </trkpt>
      <trkpt lat="46.44055" lon="5.37715">
        <ele>543.79998779297</ele>
        <time>2021-04-05T12:00:47.000Z</time>
      </trkpt>
      <trkpt lat="46.44059" lon="5.37725">
        <ele>544.40002441406</ele>
        <time>2021-04-05T12:00:49.000Z</time>
      </trkpt>
      <trkpt lat="46.4406" lon="5.37736">
        <ele>544.79998779297</ele>
        <time>2021-04-05T12:00:51.000Z</time>
      </trkpt>
      <trkpt lat="46.4406" lon="5.37742">
        <ele>545</ele>
        <time>2021-04-05T12:00:52.000Z</time>
      </trkpt>
      <trkpt lat="46.44061" lon="5.37747">
        <ele>545.20001220703</ele>
        <time>2021-04-05T12:00:53.000Z</time>
      </trkpt>
      <trkpt lat="46.44063" lon="5.37759">
        <ele>545.59997558594</ele>
        <time>2021-04-05T12:00:55.000Z</time>
      </trkpt>
      <trkpt lat="46.44065" lon="5.37771">
        <ele>546.20001220703</ele>
        <time>2021-04-05T12:00:57.000Z</time>
      </trkpt>
      <trkpt lat="46.44066" lon="5.37776">
        <ele>546.40002441406</ele>
        <time>2021-04-05T12:00:58.000Z</time>
      </trkpt>
      <trkpt lat="46.44066" lon="5.37782">
        <ele>546.59997558594</ele>
        <time>2021-04-05T12:00:59.000Z</time>
      </trkpt>
      <trkpt lat="46.44068" lon="5.37793">
        <ele>547.20001220703</ele>
        <time>2021-04-05T12:01:01.000Z</time>
      </trkpt>
      <trkpt lat="46.44068" lon="5.37798">
        <ele>547.79998779297</ele>
        <time>2021-04-05T12:01:02.000Z</time>
      </trkpt>
      <trkpt lat="46.44068" lon="5.37809">
        <ele>548.20001220703</ele>
        <time>2021-04-05T12:01:04.000Z</time>
      </trkpt>
      <trkpt lat="46.44068" lon="5.37814">
        <ele>548.40002441406</ele>
        <time>2021-04-05T12:01:05.000Z</time>
      </trkpt>
      <trkpt lat="46.44067" lon="5.37819">
        <ele>548.79998779297</ele>
        <time>2021-04-05T12:01:06.000Z</time>
      </trkpt>
      <trkpt lat="46.44066" lon="5.3783">
        <ele>549.40002441406</ele>
        <time>2021-04-05T12:01:08.000Z</time>
      </trkpt>
      <trkpt lat="46.44066" lon="5.37836">
        <ele>549.59997558594</ele>
        <time>2021-04-05T12:01:09.000Z</time>
      </trkpt>
      <trkpt lat="46.44065" lon="5.37842">
        <ele>550</ele>
        <time>2021-04-05T12:01:10.000Z</time>
      </trkpt>
      <trkpt lat="46.44065" lon="5.37861">
        <ele>550.79998779297</ele>
        <time>2021-04-05T12:01:13.000Z</time>
      </trkpt>
      <trkpt lat="46.44064" lon="5.37873">
        <ele>551.40002441406</ele>
        <time>2021-04-05T12:01:15.000Z</time>
      </trkpt>
      <trkpt lat="46.44062" lon="5.37886">
        <ele>552</ele>
        <time>2021-04-05T12:01:17.000Z</time>
      </trkpt>
      <trkpt lat="46.44059" lon="5.379">
        <ele>552.40002441406</ele>
        <time>2021-04-05T12:01:19.000Z</time>
      </trkpt>
      <trkpt lat="46.44056" lon="5.37915">
        <ele>552.59997558594</ele>
        <time>2021-04-05T12:01:21.000Z</time>
      </trkpt>
      <trkpt lat="46.44054" lon="5.37931">
        <ele>552.59997558594</ele>
        <time>2021-04-05T12:01:23.000Z</time>
      </trkpt>
      <trkpt lat="46.44053" lon="5.3794">
        <ele>552.59997558594</ele>
        <time>2021-04-05T12:01:24.000Z</time>
      </trkpt>
      <trkpt lat="46.44052" lon="5.37949">
        <ele>552.59997558594</ele>
        <time>2021-04-05T12:01:25.000Z</time>
      </trkpt>
      <trkpt lat="46.44049" lon="5.37969">
        <ele>552.59997558594</ele>
        <time>2021-04-05T12:01:27.000Z</time>
      </trkpt>
      <trkpt lat="46.44046" lon="5.3799">
        <ele>552.40002441406</ele>
        <time>2021-04-05T12:01:29.000Z</time>
      </trkpt>
      <trkpt lat="46.44045" lon="5.38001">
        <ele>552.20001220703</ele>
        <time>2021-04-05T12:01:30.000Z</time>
      </trkpt>
      <trkpt lat="46.44044" lon="5.38013">
        <ele>551.59997558594</ele>
        <time>2021-04-05T12:01:31.000Z</time>
      </trkpt>
      <trkpt lat="46.44044" lon="5.38025">
        <ele>551.40002441406</ele>
        <time>2021-04-05T12:01:32.000Z</time>
      </trkpt>
      <trkpt lat="46.44044" lon="5.38038">
        <ele>551.20001220703</ele>
        <time>2021-04-05T12:01:33.000Z</time>
      </trkpt>
      <trkpt lat="46.44044" lon="5.38051">
        <ele>551</ele>
        <time>2021-04-05T12:01:34.000Z</time>
      </trkpt>
      <trkpt lat="46.44045" lon="5.38065">
        <ele>550.79998779297</ele>
        <time>2021-04-05T12:01:35.000Z</time>
      </trkpt>
      <trkpt lat="46.44044" lon="5.38079">
        <ele>550.59997558594</ele>
        <time>2021-04-05T12:01:36.000Z</time>
      </trkpt>
      <trkpt lat="46.44044" lon="5.38093">
        <ele>550</ele>
        <time>2021-04-05T12:01:37.000Z</time>
      </trkpt>
      <trkpt lat="46.44042" lon="5.38107">
        <ele>549.59997558594</ele>
        <time>2021-04-05T12:01:38.000Z</time>
      </trkpt>
      <trkpt lat="46.4404" lon="5.38121">
        <ele>549.20001220703</ele>
        <time>2021-04-05T12:01:39.000Z</time>
      </trkpt>
      <trkpt lat="46.44038" lon="5.38135">
        <ele>548.79998779297</ele>
        <time>2021-04-05T12:01:40.000Z</time>
      </trkpt>
      <trkpt lat="46.44033" lon="5.38163">
        <ele>547.59997558594</ele>
        <time>2021-04-05T12:01:42.000Z</time>
      </trkpt>
      <trkpt lat="46.4403" lon="5.38178">
        <ele>546.59997558594</ele>
        <time>2021-04-05T12:01:43.000Z</time>
      </trkpt>
      <trkpt lat="46.44027" lon="5.38193">
        <ele>545.59997558594</ele>
        <time>2021-04-05T12:01:44.000Z</time>
      </trkpt>
      <trkpt lat="46.44024" lon="5.38207">
        <ele>545</ele>
        <time>2021-04-05T12:01:45.000Z</time>
      </trkpt>
      <trkpt lat="46.44021" lon="5.38223">
        <ele>544.59997558594</ele>
        <time>2021-04-05T12:01:46.000Z</time>
      </trkpt>
      <trkpt lat="46.44018" lon="5.38238">
        <ele>544</ele>
        <time>2021-04-05T12:01:47.000Z</time>
      </trkpt>
      <trkpt lat="46.44015" lon="5.38253">
        <ele>543.20001220703</ele>
        <time>2021-04-05T12:01:48.000Z</time>
      </trkpt>
      <trkpt lat="46.44011" lon="5.38269">
        <ele>542.79998779297</ele>
        <time>2021-04-05T12:01:49.000Z</time>
      </trkpt>
      <trkpt lat="46.44005" lon="5.383">
        <ele>541.20001220703</ele>
        <time>2021-04-05T12:01:51.000Z</time>
      </trkpt>
      <trkpt lat="46.43999" lon="5.3833">
        <ele>540</ele>
        <time>2021-04-05T12:01:53.000Z</time>
      </trkpt>
      <trkpt lat="46.43995" lon="5.38346">
        <ele>539.40002441406</ele>
        <time>2021-04-05T12:01:54.000Z</time>
      </trkpt>
      <trkpt lat="46.43992" lon="5.3836">
        <ele>539</ele>
        <time>2021-04-05T12:01:55.000Z</time>
      </trkpt>
      <trkpt lat="46.43985" lon="5.38388">
        <ele>537.20001220703</ele>
        <time>2021-04-05T12:01:57.000Z</time>
      </trkpt>
      <trkpt lat="46.43978" lon="5.38414">
        <ele>535.40002441406</ele>
        <time>2021-04-05T12:01:59.000Z</time>
      </trkpt>
      <trkpt lat="46.43974" lon="5.38427">
        <ele>534</ele>
        <time>2021-04-05T12:02:00.000Z</time>
      </trkpt>
      <trkpt lat="46.43971" lon="5.38439">
        <ele>533.79998779297</ele>
        <time>2021-04-05T12:02:01.000Z</time>
      </trkpt>
      <trkpt lat="46.43964" lon="5.38464">
        <ele>533.59997558594</ele>
        <time>2021-04-05T12:02:03.000Z</time>
      </trkpt>
      <trkpt lat="46.43957" lon="5.38487">
        <ele>533.59997558594</ele>
        <time>2021-04-05T12:02:05.000Z</time>
      </trkpt>
      <trkpt lat="46.4395" lon="5.38511">
        <ele>533.59997558594</ele>
        <time>2021-04-05T12:02:07.000Z</time>
      </trkpt>
      <trkpt lat="46.43943" lon="5.38534">
        <ele>533.59997558594</ele>
        <time>2021-04-05T12:02:09.000Z</time>
      </trkpt>
      <trkpt lat="46.43937" lon="5.38556">
        <ele>533.79998779297</ele>
        <time>2021-04-05T12:02:11.000Z</time>
      </trkpt>
      <trkpt lat="46.4393" lon="5.38578">
        <ele>534</ele>
        <time>2021-04-05T12:02:13.000Z</time>
      </trkpt>
      <trkpt lat="46.4392" lon="5.3861">
        <ele>534.40002441406</ele>
        <time>2021-04-05T12:02:16.000Z</time>
      </trkpt>
      <trkpt lat="46.43914" lon="5.38631">
        <ele>534.59997558594</ele>
        <time>2021-04-05T12:02:18.000Z</time>
      </trkpt>
      <trkpt lat="46.43911" lon="5.38641">
        <ele>534.79998779297</ele>
        <time>2021-04-05T12:02:19.000Z</time>
      </trkpt>
      <trkpt lat="46.43908" lon="5.38651">
        <ele>535</ele>
        <time>2021-04-05T12:02:20.000Z</time>
      </trkpt>
      <trkpt lat="46.43902" lon="5.3867">
        <ele>535</ele>
        <time>2021-04-05T12:02:22.000Z</time>
      </trkpt>
      <trkpt lat="46.43897" lon="5.38688">
        <ele>535.20001220703</ele>
        <time>2021-04-05T12:02:24.000Z</time>
      </trkpt>
      <trkpt lat="46.43891" lon="5.38706">
        <ele>535.40002441406</ele>
        <time>2021-04-05T12:02:26.000Z</time>
      </trkpt>
      <trkpt lat="46.43886" lon="5.38723">
        <ele>535.79998779297</ele>
        <time>2021-04-05T12:02:28.000Z</time>
      </trkpt>
      <trkpt lat="46.43884" lon="5.38731">
        <ele>536.20001220703</ele>
        <time>2021-04-05T12:02:29.000Z</time>
      </trkpt>
      <trkpt lat="46.43879" lon="5.38746">
        <ele>537</ele>
        <time>2021-04-05T12:02:31.000Z</time>
      </trkpt>
      <trkpt lat="46.43874" lon="5.38762">
        <ele>537.79998779297</ele>
        <time>2021-04-05T12:02:33.000Z</time>
      </trkpt>
      <trkpt lat="46.43872" lon="5.38769">
        <ele>538.20001220703</ele>
        <time>2021-04-05T12:02:34.000Z</time>
      </trkpt>
      <trkpt lat="46.43869" lon="5.38777">
        <ele>538.40002441406</ele>
        <time>2021-04-05T12:02:35.000Z</time>
      </trkpt>
      <trkpt lat="46.43864" lon="5.38791">
        <ele>538.79998779297</ele>
        <time>2021-04-05T12:02:37.000Z</time>
      </trkpt>
      <trkpt lat="46.4386" lon="5.38806">
        <ele>539.79998779297</ele>
        <time>2021-04-05T12:02:39.000Z</time>
      </trkpt>
      <trkpt lat="46.43858" lon="5.38813">
        <ele>540.20001220703</ele>
        <time>2021-04-05T12:02:40.000Z</time>
      </trkpt>
      <trkpt lat="46.43856" lon="5.3882">
        <ele>540.59997558594</ele>
        <time>2021-04-05T12:02:41.000Z</time>
      </trkpt>
      <trkpt lat="46.43851" lon="5.38834">
        <ele>541.20001220703</ele>
        <time>2021-04-05T12:02:43.000Z</time>
      </trkpt>
      <trkpt lat="46.43849" lon="5.38841">
        <ele>541.59997558594</ele>
        <time>2021-04-05T12:02:44.000Z</time>
      </trkpt>
      <trkpt lat="46.43847" lon="5.38848">
        <ele>542</ele>
        <time>2021-04-05T12:02:45.000Z</time>
      </trkpt>
      <trkpt lat="46.43842" lon="5.38862">
        <ele>542.40002441406</ele>
        <time>2021-04-05T12:02:47.000Z</time>
      </trkpt>
      <trkpt lat="46.43837" lon="5.38875">
        <ele>542.79998779297</ele>
        <time>2021-04-05T12:02:49.000Z</time>
      </trkpt>
      <trkpt lat="46.43832" lon="5.3889">
        <ele>543.59997558594</ele>
        <time>2021-04-05T12:02:51.000Z</time>
      </trkpt>
      <trkpt lat="46.4383" lon="5.38897">
        <ele>544</ele>
        <time>2021-04-05T12:02:52.000Z</time>
      </trkpt>
      <trkpt lat="46.43825" lon="5.38912">
        <ele>544.59997558594</ele>
        <time>2021-04-05T12:02:54.000Z</time>
      </trkpt>
      <trkpt lat="46.43817" lon="5.38934">
        <ele>545.59997558594</ele>
        <time>2021-04-05T12:02:57.000Z</time>
      </trkpt>
      <trkpt lat="46.43812" lon="5.38949">
        <ele>545.79998779297</ele>
        <time>2021-04-05T12:02:59.000Z</time>
      </trkpt>
      <trkpt lat="46.43808" lon="5.38956">
        <ele>545.79998779297</ele>
        <time>2021-04-05T12:03:00.000Z</time>
      </trkpt>
      <trkpt lat="46.43805" lon="5.38963">
        <ele>545.79998779297</ele>
        <time>2021-04-05T12:03:01.000Z</time>
      </trkpt>
      <trkpt lat="46.43796" lon="5.38976">
        <ele>546</ele>
        <time>2021-04-05T12:03:03.000Z</time>
      </trkpt>
      <trkpt lat="46.43791" lon="5.38983">
        <ele>546</ele>
        <time>2021-04-05T12:03:04.000Z</time>
      </trkpt>
      <trkpt lat="46.43776" lon="5.39005">
        <ele>546</ele>
        <time>2021-04-05T12:03:07.000Z</time>
      </trkpt>
      <trkpt lat="46.43764" lon="5.3902">
        <ele>545.79998779297</ele>
        <time>2021-04-05T12:03:09.000Z</time>
      </trkpt>
      <trkpt lat="46.43746" lon="5.39045">
        <ele>545.20001220703</ele>
        <time>2021-04-05T12:03:12.000Z</time>
      </trkpt>
      <trkpt lat="46.43733" lon="5.39063">
        <ele>544.40002441406</ele>
        <time>2021-04-05T12:03:14.000Z</time>
      </trkpt>
      <trkpt lat="46.43721" lon="5.39082">
        <ele>543.79998779297</ele>
        <time>2021-04-05T12:03:16.000Z</time>
      </trkpt>
      <trkpt lat="46.43716" lon="5.39091">
        <ele>543.59997558594</ele>
        <time>2021-04-05T12:03:17.000Z</time>
      </trkpt>
      <trkpt lat="46.4371" lon="5.39101">
        <ele>543.20001220703</ele>
        <time>2021-04-05T12:03:18.000Z</time>
      </trkpt>
      <trkpt lat="46.43699" lon="5.3912">
        <ele>541.59997558594</ele>
        <time>2021-04-05T12:03:20.000Z</time>
      </trkpt>
      <trkpt lat="46.43692" lon="5.3913">
        <ele>541</ele>
        <time>2021-04-05T12:03:21.000Z</time>
      </trkpt>
      <trkpt lat="46.43679" lon="5.39151">
        <ele>540</ele>
        <time>2021-04-05T12:03:23.000Z</time>
      </trkpt>
      <trkpt lat="46.43673" lon="5.39162">
        <ele>539.20001220703</ele>
        <time>2021-04-05T12:03:24.000Z</time>
      </trkpt>
      <trkpt lat="46.43666" lon="5.39173">
        <ele>538.79998779297</ele>
        <time>2021-04-05T12:03:25.000Z</time>
      </trkpt>
      <trkpt lat="46.43659" lon="5.39183">
        <ele>537.59997558594</ele>
        <time>2021-04-05T12:03:26.000Z</time>
      </trkpt>
      <trkpt lat="46.43643" lon="5.39202">
        <ele>537</ele>
        <time>2021-04-05T12:03:28.000Z</time>
      </trkpt>
      <trkpt lat="46.43634" lon="5.39212">
        <ele>536.59997558594</ele>
        <time>2021-04-05T12:03:29.000Z</time>
      </trkpt>
      <trkpt lat="46.43617" lon="5.39229">
        <ele>535.79998779297</ele>
        <time>2021-04-05T12:03:31.000Z</time>
      </trkpt>
      <trkpt lat="46.43608" lon="5.39238">
        <ele>535.20001220703</ele>
        <time>2021-04-05T12:03:32.000Z</time>
      </trkpt>
      <trkpt lat="46.43598" lon="5.39246">
        <ele>534.40002441406</ele>
        <time>2021-04-05T12:03:33.000Z</time>
      </trkpt>
      <trkpt lat="46.43588" lon="5.39253">
        <ele>533.59997558594</ele>
        <time>2021-04-05T12:03:34.000Z</time>
      </trkpt>
      <trkpt lat="46.43577" lon="5.39257">
        <ele>532.79998779297</ele>
        <time>2021-04-05T12:03:35.000Z</time>
      </trkpt>
      <trkpt lat="46.43566" lon="5.39258">
        <ele>532</ele>
        <time>2021-04-05T12:03:36.000Z</time>
      </trkpt>
      <trkpt lat="46.43554" lon="5.39258">
        <ele>531.40002441406</ele>
        <time>2021-04-05T12:03:37.000Z</time>
      </trkpt>
      <trkpt lat="46.43543" lon="5.39256">
        <ele>531</ele>
        <time>2021-04-05T12:03:38.000Z</time>
      </trkpt>
      <trkpt lat="46.43531" lon="5.39253">
        <ele>530.59997558594</ele>
        <time>2021-04-05T12:03:39.000Z</time>
      </trkpt>
      <trkpt lat="46.43519" lon="5.39249">
        <ele>530</ele>
        <time>2021-04-05T12:03:40.000Z</time>
      </trkpt>
      <trkpt lat="46.43507" lon="5.39243">
        <ele>529</ele>
        <time>2021-04-05T12:03:41.000Z</time>
      </trkpt>
      <trkpt lat="46.43496" lon="5.39235">
        <ele>528</ele>
        <time>2021-04-05T12:03:42.000Z</time>
      </trkpt>
      <trkpt lat="46.43486" lon="5.39228">
        <ele>527.20001220703</ele>
        <time>2021-04-05T12:03:43.000Z</time>
      </trkpt>
      <trkpt lat="46.43475" lon="5.39221">
        <ele>526.59997558594</ele>
        <time>2021-04-05T12:03:44.000Z</time>
      </trkpt>
      <trkpt lat="46.43453" lon="5.39207">
        <ele>525</ele>
        <time>2021-04-05T12:03:46.000Z</time>
      </trkpt>
      <trkpt lat="46.43432" lon="5.39195">
        <ele>523.40002441406</ele>
        <time>2021-04-05T12:03:48.000Z</time>
      </trkpt>
      <trkpt lat="46.43409" lon="5.3919">
        <ele>522.40002441406</ele>
        <time>2021-04-05T12:03:50.000Z</time>
      </trkpt>
      <trkpt lat="46.43397" lon="5.39191">
        <ele>521.79998779297</ele>
        <time>2021-04-05T12:03:51.000Z</time>
      </trkpt>
      <trkpt lat="46.43385" lon="5.39195">
        <ele>521</ele>
        <time>2021-04-05T12:03:52.000Z</time>
      </trkpt>
      <trkpt lat="46.43374" lon="5.39202">
        <ele>520.40002441406</ele>
        <time>2021-04-05T12:03:53.000Z</time>
      </trkpt>
      <trkpt lat="46.43364" lon="5.39213">
        <ele>519.59997558594</ele>
        <time>2021-04-05T12:03:54.000Z</time>
      </trkpt>
      <trkpt lat="46.43355" lon="5.39226">
        <ele>518.40002441406</ele>
        <time>2021-04-05T12:03:55.000Z</time>
      </trkpt>
      <trkpt lat="46.43346" lon="5.39239">
        <ele>518</ele>
        <time>2021-04-05T12:03:56.000Z</time>
      </trkpt>
      <trkpt lat="46.43338" lon="5.39251">
        <ele>517.79998779297</ele>
        <time>2021-04-05T12:03:57.000Z</time>
      </trkpt>
      <trkpt lat="46.43328" lon="5.39262">
        <ele>516.59997558594</ele>
        <time>2021-04-05T12:03:58.000Z</time>
      </trkpt>
      <trkpt lat="46.43319" lon="5.39273">
        <ele>515.59997558594</ele>
        <time>2021-04-05T12:03:59.000Z</time>
      </trkpt>
      <trkpt lat="46.4331" lon="5.39285">
        <ele>514.79998779297</ele>
        <time>2021-04-05T12:04:00.000Z</time>
      </trkpt>
      <trkpt lat="46.43295" lon="5.39313">
        <ele>513.40002441406</ele>
        <time>2021-04-05T12:04:02.000Z</time>
      </trkpt>
      <trkpt lat="46.43288" lon="5.39327">
        <ele>513</ele>
        <time>2021-04-05T12:04:03.000Z</time>
      </trkpt>
      <trkpt lat="46.4328" lon="5.39339">
        <ele>512.20001220703</ele>
        <time>2021-04-05T12:04:04.000Z</time>
      </trkpt>
      <trkpt lat="46.4326" lon="5.39359">
        <ele>510.39999389648</ele>
        <time>2021-04-05T12:04:06.000Z</time>
      </trkpt>
      <trkpt lat="46.43237" lon="5.39364">
        <ele>509.20001220703</ele>
        <time>2021-04-05T12:04:08.000Z</time>
      </trkpt>
      <trkpt lat="46.43226" lon="5.3936">
        <ele>508.79998779297</ele>
        <time>2021-04-05T12:04:09.000Z</time>
      </trkpt>
      <trkpt lat="46.43215" lon="5.39356">
        <ele>508</ele>
        <time>2021-04-05T12:04:10.000Z</time>
      </trkpt>
      <trkpt lat="46.43205" lon="5.39349">
        <ele>507.39999389648</ele>
        <time>2021-04-05T12:04:11.000Z</time>
      </trkpt>
      <trkpt lat="46.43196" lon="5.39339">
        <ele>506.60000610352</ele>
        <time>2021-04-05T12:04:12.000Z</time>
      </trkpt>
      <trkpt lat="46.43188" lon="5.39327">
        <ele>505.20001220703</ele>
        <time>2021-04-05T12:04:13.000Z</time>
      </trkpt>
      <trkpt lat="46.4318" lon="5.39316">
        <ele>503.60000610352</ele>
        <time>2021-04-05T12:04:14.000Z</time>
      </trkpt>
      <trkpt lat="46.43173" lon="5.39303">
        <ele>502.39999389648</ele>
        <time>2021-04-05T12:04:15.000Z</time>
      </trkpt>
      <trkpt lat="46.43167" lon="5.39291">
        <ele>501.60000610352</ele>
        <time>2021-04-05T12:04:16.000Z</time>
      </trkpt>
      <trkpt lat="46.4316" lon="5.39279">
        <ele>501.20001220703</ele>
        <time>2021-04-05T12:04:17.000Z</time>
      </trkpt>
      <trkpt lat="46.43153" lon="5.39267">
        <ele>501</ele>
        <time>2021-04-05T12:04:18.000Z</time>
      </trkpt>
      <trkpt lat="46.43143" lon="5.39259">
        <ele>500.79998779297</ele>
        <time>2021-04-05T12:04:19.000Z</time>
      </trkpt>
      <trkpt lat="46.43134" lon="5.39256">
        <ele>500.39999389648</ele>
        <time>2021-04-05T12:04:20.000Z</time>
      </trkpt>
      <trkpt lat="46.43124" lon="5.39259">
        <ele>500.20001220703</ele>
        <time>2021-04-05T12:04:21.000Z</time>
      </trkpt>
      <trkpt lat="46.43116" lon="5.39268">
        <ele>500</ele>
        <time>2021-04-05T12:04:22.000Z</time>
      </trkpt>
      <trkpt lat="46.43109" lon="5.3928">
        <ele>499.79998779297</ele>
        <time>2021-04-05T12:04:23.000Z</time>
      </trkpt>
      <trkpt lat="46.43099" lon="5.39306">
        <ele>498.79998779297</ele>
        <time>2021-04-05T12:04:25.000Z</time>
      </trkpt>
      <trkpt lat="46.43089" lon="5.39331">
        <ele>498.39999389648</ele>
        <time>2021-04-05T12:04:27.000Z</time>
      </trkpt>
      <trkpt lat="46.43083" lon="5.39343">
        <ele>498</ele>
        <time>2021-04-05T12:04:28.000Z</time>
      </trkpt>
      <trkpt lat="46.43077" lon="5.39354">
        <ele>497.39999389648</ele>
        <time>2021-04-05T12:04:29.000Z</time>
      </trkpt>
      <trkpt lat="46.43071" lon="5.39367">
        <ele>497</ele>
        <time>2021-04-05T12:04:30.000Z</time>
      </trkpt>
      <trkpt lat="46.43065" lon="5.3938">
        <ele>496.79998779297</ele>
        <time>2021-04-05T12:04:31.000Z</time>
      </trkpt>
      <trkpt lat="46.43061" lon="5.39393">
        <ele>496.79998779297</ele>
        <time>2021-04-05T12:04:32.000Z</time>
      </trkpt>
      <trkpt lat="46.43053" lon="5.39421">
        <ele>496.39999389648</ele>
        <time>2021-04-05T12:04:34.000Z</time>
      </trkpt>
      <trkpt lat="46.43044" lon="5.39448">
        <ele>496</ele>
        <time>2021-04-05T12:04:36.000Z</time>
      </trkpt>
      <trkpt lat="46.43034" lon="5.39473">
        <ele>495.79998779297</ele>
        <time>2021-04-05T12:04:38.000Z</time>
      </trkpt>
      <trkpt lat="46.43018" lon="5.39492">
        <ele>495.60000610352</ele>
        <time>2021-04-05T12:04:40.000Z</time>
      </trkpt>
      <trkpt lat="46.42999" lon="5.39504">
        <ele>495.20001220703</ele>
        <time>2021-04-05T12:04:42.000Z</time>
      </trkpt>
      <trkpt lat="46.42989" lon="5.39506">
        <ele>494.79998779297</ele>
        <time>2021-04-05T12:04:43.000Z</time>
      </trkpt>
      <trkpt lat="46.4297" lon="5.39507">
        <ele>494</ele>
        <time>2021-04-05T12:04:45.000Z</time>
      </trkpt>
      <trkpt lat="46.42943" lon="5.39508">
        <ele>492.79998779297</ele>
        <time>2021-04-05T12:04:48.000Z</time>
      </trkpt>
      <trkpt lat="46.42925" lon="5.39507">
        <ele>491.79998779297</ele>
        <time>2021-04-05T12:04:50.000Z</time>
      </trkpt>
      <trkpt lat="46.42917" lon="5.39506">
        <ele>491.20001220703</ele>
        <time>2021-04-05T12:04:51.000Z</time>
      </trkpt>
      <trkpt lat="46.42899" lon="5.39505">
        <ele>490.79998779297</ele>
        <time>2021-04-05T12:04:53.000Z</time>
      </trkpt>
      <trkpt lat="46.4289" lon="5.39504">
        <ele>490.60000610352</ele>
        <time>2021-04-05T12:04:54.000Z</time>
      </trkpt>
      <trkpt lat="46.42864" lon="5.39499">
        <ele>490.39999389648</ele>
        <time>2021-04-05T12:04:57.000Z</time>
      </trkpt>
      <trkpt lat="46.42847" lon="5.3949">
        <ele>490.20001220703</ele>
        <time>2021-04-05T12:04:59.000Z</time>
      </trkpt>
      <trkpt lat="46.42831" lon="5.3948">
        <ele>490</ele>
        <time>2021-04-05T12:05:01.000Z</time>
      </trkpt>
      <trkpt lat="46.42823" lon="5.39474">
        <ele>489.60000610352</ele>
        <time>2021-04-05T12:05:02.000Z</time>
      </trkpt>
      <trkpt lat="46.42814" lon="5.39468">
        <ele>489.20001220703</ele>
        <time>2021-04-05T12:05:03.000Z</time>
      </trkpt>
      <trkpt lat="46.42797" lon="5.39458">
        <ele>488.60000610352</ele>
        <time>2021-04-05T12:05:05.000Z</time>
      </trkpt>
      <trkpt lat="46.42788" lon="5.39453">
        <ele>488</ele>
        <time>2021-04-05T12:05:06.000Z</time>
      </trkpt>
      <trkpt lat="46.42779" lon="5.39448">
        <ele>487.39999389648</ele>
        <time>2021-04-05T12:05:07.000Z</time>
      </trkpt>
      <trkpt lat="46.4276" lon="5.3944">
        <ele>486.39999389648</ele>
        <time>2021-04-05T12:05:09.000Z</time>
      </trkpt>
      <trkpt lat="46.4274" lon="5.39434">
        <ele>485.79998779297</ele>
        <time>2021-04-05T12:05:11.000Z</time>
      </trkpt>
      <trkpt lat="46.4273" lon="5.39432">
        <ele>485.39999389648</ele>
        <time>2021-04-05T12:05:12.000Z</time>
      </trkpt>
      <trkpt lat="46.4272" lon="5.39431">
        <ele>485</ele>
        <time>2021-04-05T12:05:13.000Z</time>
      </trkpt>
      <trkpt lat="46.4271" lon="5.3943">
        <ele>484.60000610352</ele>
        <time>2021-04-05T12:05:14.000Z</time>
      </trkpt>
      <trkpt lat="46.427" lon="5.3943">
        <ele>484</ele>
        <time>2021-04-05T12:05:15.000Z</time>
      </trkpt>
      <trkpt lat="46.42679" lon="5.39431">
        <ele>482.60000610352</ele>
        <time>2021-04-05T12:05:17.000Z</time>
      </trkpt>
      <trkpt lat="46.42657" lon="5.39434">
        <ele>481.39999389648</ele>
        <time>2021-04-05T12:05:19.000Z</time>
      </trkpt>
      <trkpt lat="46.42636" lon="5.39438">
        <ele>479.79998779297</ele>
        <time>2021-04-05T12:05:21.000Z</time>
      </trkpt>
      <trkpt lat="46.42615" lon="5.39445">
        <ele>478.79998779297</ele>
        <time>2021-04-05T12:05:23.000Z</time>
      </trkpt>
      <trkpt lat="46.42604" lon="5.39449">
        <ele>478.60000610352</ele>
        <time>2021-04-05T12:05:24.000Z</time>
      </trkpt>
      <trkpt lat="46.42594" lon="5.39453">
        <ele>478.60000610352</ele>
        <time>2021-04-05T12:05:25.000Z</time>
      </trkpt>
      <trkpt lat="46.42573" lon="5.39461">
        <ele>477.39999389648</ele>
        <time>2021-04-05T12:05:27.000Z</time>
      </trkpt>
      <trkpt lat="46.42553" lon="5.3947">
        <ele>476.60000610352</ele>
        <time>2021-04-05T12:05:29.000Z</time>
      </trkpt>
      <trkpt lat="46.42534" lon="5.39478">
        <ele>476.39999389648</ele>
        <time>2021-04-05T12:05:31.000Z</time>
      </trkpt>
      <trkpt lat="46.42525" lon="5.39482">
        <ele>476.39999389648</ele>
        <time>2021-04-05T12:05:32.000Z</time>
      </trkpt>
      <trkpt lat="46.42515" lon="5.39486">
        <ele>475.39999389648</ele>
        <time>2021-04-05T12:05:33.000Z</time>
      </trkpt>
      <trkpt lat="46.42506" lon="5.3949">
        <ele>474.79998779297</ele>
        <time>2021-04-05T12:05:34.000Z</time>
      </trkpt>
      <trkpt lat="46.42497" lon="5.39494">
        <ele>474.60000610352</ele>
        <time>2021-04-05T12:05:35.000Z</time>
      </trkpt>
      <trkpt lat="46.4248" lon="5.39502">
        <ele>473.79998779297</ele>
        <time>2021-04-05T12:05:37.000Z</time>
      </trkpt>
      <trkpt lat="46.42462" lon="5.39509">
        <ele>473.39999389648</ele>
        <time>2021-04-05T12:05:39.000Z</time>
      </trkpt>
      <trkpt lat="46.42454" lon="5.39513">
        <ele>473.39999389648</ele>
        <time>2021-04-05T12:05:40.000Z</time>
      </trkpt>
      <trkpt lat="46.42446" lon="5.39517">
        <ele>473.39999389648</ele>
        <time>2021-04-05T12:05:41.000Z</time>
      </trkpt>
      <trkpt lat="46.4243" lon="5.39524">
        <ele>473.20001220703</ele>
        <time>2021-04-05T12:05:43.000Z</time>
      </trkpt>
      <trkpt lat="46.42414" lon="5.39531">
        <ele>473.20001220703</ele>
        <time>2021-04-05T12:05:45.000Z</time>
      </trkpt>
      <trkpt lat="46.42398" lon="5.39538">
        <ele>472.79998779297</ele>
        <time>2021-04-05T12:05:47.000Z</time>
      </trkpt>
      <trkpt lat="46.4239" lon="5.39541">
        <ele>472.79998779297</ele>
        <time>2021-04-05T12:05:48.000Z</time>
      </trkpt>
      <trkpt lat="46.42381" lon="5.39545">
        <ele>472.60000610352</ele>
        <time>2021-04-05T12:05:49.000Z</time>
      </trkpt>
      <trkpt lat="46.42365" lon="5.39555">
        <ele>472.39999389648</ele>
        <time>2021-04-05T12:05:51.000Z</time>
      </trkpt>
      <trkpt lat="46.42358" lon="5.39563">
        <ele>472.39999389648</ele>
        <time>2021-04-05T12:05:52.000Z</time>
      </trkpt>
      <trkpt lat="46.42353" lon="5.39573">
        <ele>472.20001220703</ele>
        <time>2021-04-05T12:05:53.000Z</time>
      </trkpt>
      <trkpt lat="46.4235" lon="5.39585">
        <ele>472</ele>
        <time>2021-04-05T12:05:54.000Z</time>
      </trkpt>
      <trkpt lat="46.42348" lon="5.39598">
        <ele>472</ele>
        <time>2021-04-05T12:05:55.000Z</time>
      </trkpt>
      <trkpt lat="46.42351" lon="5.39624">
        <ele>471.39999389648</ele>
        <time>2021-04-05T12:05:57.000Z</time>
      </trkpt>
      <trkpt lat="46.42358" lon="5.39647">
        <ele>470.20001220703</ele>
        <time>2021-04-05T12:05:59.000Z</time>
      </trkpt>
      <trkpt lat="46.42368" lon="5.39667">
        <ele>469.39999389648</ele>
        <time>2021-04-05T12:06:01.000Z</time>
      </trkpt>
      <trkpt lat="46.42374" lon="5.39676">
        <ele>469.20001220703</ele>
        <time>2021-04-05T12:06:02.000Z</time>
      </trkpt>
      <trkpt lat="46.42379" lon="5.39686">
        <ele>469</ele>
        <time>2021-04-05T12:06:03.000Z</time>
      </trkpt>
      <trkpt lat="46.42387" lon="5.39707">
        <ele>469</ele>
        <time>2021-04-05T12:06:05.000Z</time>
      </trkpt>
      <trkpt lat="46.4239" lon="5.39718">
        <ele>468.79998779297</ele>
        <time>2021-04-05T12:06:06.000Z</time>
      </trkpt>
      <trkpt lat="46.42392" lon="5.3973">
        <ele>468.79998779297</ele>
        <time>2021-04-05T12:06:07.000Z</time>
      </trkpt>
      <trkpt lat="46.42392" lon="5.39756">
        <ele>468.79998779297</ele>
        <time>2021-04-05T12:06:09.000Z</time>
      </trkpt>
      <trkpt lat="46.42392" lon="5.39784">
        <ele>468.60000610352</ele>
        <time>2021-04-05T12:06:11.000Z</time>
      </trkpt>
      <trkpt lat="46.42391" lon="5.39812">
        <ele>468.39999389648</ele>
        <time>2021-04-05T12:06:13.000Z</time>
      </trkpt>
      <trkpt lat="46.42391" lon="5.39841">
        <ele>468.39999389648</ele>
        <time>2021-04-05T12:06:15.000Z</time>
      </trkpt>
      <trkpt lat="46.42391" lon="5.39856">
        <ele>468</ele>
        <time>2021-04-05T12:06:16.000Z</time>
      </trkpt>
      <trkpt lat="46.4239" lon="5.39871">
        <ele>467.60000610352</ele>
        <time>2021-04-05T12:06:17.000Z</time>
      </trkpt>
      <trkpt lat="46.4239" lon="5.39886">
        <ele>466.39999389648</ele>
        <time>2021-04-05T12:06:18.000Z</time>
      </trkpt>
      <trkpt lat="46.4239" lon="5.39902">
        <ele>465.79998779297</ele>
        <time>2021-04-05T12:06:19.000Z</time>
      </trkpt>
      <trkpt lat="46.4239" lon="5.39933">
        <ele>465</ele>
        <time>2021-04-05T12:06:21.000Z</time>
      </trkpt>
      <trkpt lat="46.42389" lon="5.39964">
        <ele>464.39999389648</ele>
        <time>2021-04-05T12:06:23.000Z</time>
      </trkpt>
      <trkpt lat="46.42388" lon="5.39993">
        <ele>463.60000610352</ele>
        <time>2021-04-05T12:06:25.000Z</time>
      </trkpt>
      <trkpt lat="46.42387" lon="5.40021">
        <ele>462.20001220703</ele>
        <time>2021-04-05T12:06:27.000Z</time>
      </trkpt>
      <trkpt lat="46.42387" lon="5.40046">
        <ele>461.79998779297</ele>
        <time>2021-04-05T12:06:29.000Z</time>
      </trkpt>
      <trkpt lat="46.42387" lon="5.40058">
        <ele>461.79998779297</ele>
        <time>2021-04-05T12:06:30.000Z</time>
      </trkpt>
      <trkpt lat="46.42386" lon="5.4007">
        <ele>461.79998779297</ele>
        <time>2021-04-05T12:06:31.000Z</time>
      </trkpt>
      <trkpt lat="46.42386" lon="5.40092">
        <ele>461.79998779297</ele>
        <time>2021-04-05T12:06:33.000Z</time>
      </trkpt>
      <trkpt lat="46.42385" lon="5.40112">
        <ele>461.79998779297</ele>
        <time>2021-04-05T12:06:35.000Z</time>
      </trkpt>
      <trkpt lat="46.42385" lon="5.40122">
        <ele>461.79998779297</ele>
        <time>2021-04-05T12:06:36.000Z</time>
      </trkpt>
      <trkpt lat="46.42385" lon="5.40131">
        <ele>462.20001220703</ele>
        <time>2021-04-05T12:06:37.000Z</time>
      </trkpt>
      <trkpt lat="46.42385" lon="5.40149">
        <ele>463.39999389648</ele>
        <time>2021-04-05T12:06:39.000Z</time>
      </trkpt>
      <trkpt lat="46.42385" lon="5.40166">
        <ele>464.39999389648</ele>
        <time>2021-04-05T12:06:41.000Z</time>
      </trkpt>
      <trkpt lat="46.42384" lon="5.40182">
        <ele>465.20001220703</ele>
        <time>2021-04-05T12:06:43.000Z</time>
      </trkpt>
      <trkpt lat="46.42384" lon="5.4019">
        <ele>465.60000610352</ele>
        <time>2021-04-05T12:06:44.000Z</time>
      </trkpt>
      <trkpt lat="46.42383" lon="5.40198">
        <ele>466</ele>
        <time>2021-04-05T12:06:45.000Z</time>
      </trkpt>
      <trkpt lat="46.42383" lon="5.40214">
        <ele>467.20001220703</ele>
        <time>2021-04-05T12:06:47.000Z</time>
      </trkpt>
      <trkpt lat="46.42383" lon="5.40228">
        <ele>467.79998779297</ele>
        <time>2021-04-05T12:06:49.000Z</time>
      </trkpt>
      <trkpt lat="46.42382" lon="5.40242">
        <ele>468.20001220703</ele>
        <time>2021-04-05T12:06:51.000Z</time>
      </trkpt>
      <trkpt lat="46.42383" lon="5.40256">
        <ele>468.79998779297</ele>
        <time>2021-04-05T12:06:53.000Z</time>
      </trkpt>
      <trkpt lat="46.42384" lon="5.40263">
        <ele>469</ele>
        <time>2021-04-05T12:06:54.000Z</time>
      </trkpt>
      <trkpt lat="46.42385" lon="5.40269">
        <ele>469.39999389648</ele>
        <time>2021-04-05T12:06:55.000Z</time>
      </trkpt>
      <trkpt lat="46.42388" lon="5.40283">
        <ele>470.20001220703</ele>
        <time>2021-04-05T12:06:57.000Z</time>
      </trkpt>
      <trkpt lat="46.4239" lon="5.40289">
        <ele>470.39999389648</ele>
        <time>2021-04-05T12:06:58.000Z</time>
      </trkpt>
      <trkpt lat="46.42392" lon="5.40295">
        <ele>470.60000610352</ele>
        <time>2021-04-05T12:06:59.000Z</time>
      </trkpt>
      <trkpt lat="46.42395" lon="5.40301">
        <ele>470.79998779297</ele>
        <time>2021-04-05T12:07:00.000Z</time>
      </trkpt>
      <trkpt lat="46.42401" lon="5.4031">
        <ele>471.60000610352</ele>
        <time>2021-04-05T12:07:02.000Z</time>
      </trkpt>
      <trkpt lat="46.42404" lon="5.40315">
        <ele>471.60000610352</ele>
        <time>2021-04-05T12:07:03.000Z</time>
      </trkpt>
      <trkpt lat="46.42407" lon="5.40319">
        <ele>471.79998779297</ele>
        <time>2021-04-05T12:07:04.000Z</time>
      </trkpt>
      <trkpt lat="46.42414" lon="5.40325">
        <ele>472.39999389648</ele>
        <time>2021-04-05T12:07:06.000Z</time>
      </trkpt>
      <trkpt lat="46.4242" lon="5.40331">
        <ele>473</ele>
        <time>2021-04-05T12:07:08.000Z</time>
      </trkpt>
      <trkpt lat="46.42427" lon="5.40337">
        <ele>473.39999389648</ele>
        <time>2021-04-05T12:07:10.000Z</time>
      </trkpt>
      <trkpt lat="46.42433" lon="5.40341">
        <ele>473.79998779297</ele>
        <time>2021-04-05T12:07:12.000Z</time>
      </trkpt>
      <trkpt lat="46.42436" lon="5.40343">
        <ele>474.20001220703</ele>
        <time>2021-04-05T12:07:13.000Z</time>
      </trkpt>
      <trkpt lat="46.42442" lon="5.40347">
        <ele>474.79998779297</ele>
        <time>2021-04-05T12:07:15.000Z</time>
      </trkpt>
      <trkpt lat="46.42445" lon="5.40349">
        <ele>475.39999389648</ele>
        <time>2021-04-05T12:07:16.000Z</time>
      </trkpt>
      <trkpt lat="46.4245" lon="5.40353">
        <ele>476</ele>
        <time>2021-04-05T12:07:18.000Z</time>
      </trkpt>
      <trkpt lat="46.42453" lon="5.40355">
        <ele>476.60000610352</ele>
        <time>2021-04-05T12:07:19.000Z</time>
      </trkpt>
      <trkpt lat="46.42458" lon="5.4036">
        <ele>477.20001220703</ele>
        <time>2021-04-05T12:07:21.000Z</time>
      </trkpt>
      <trkpt lat="46.42463" lon="5.40364">
        <ele>477.79998779297</ele>
        <time>2021-04-05T12:07:23.000Z</time>
      </trkpt>
      <trkpt lat="46.42466" lon="5.40366">
        <ele>478</ele>
        <time>2021-04-05T12:07:24.000Z</time>
      </trkpt>
      <trkpt lat="46.42468" lon="5.40368">
        <ele>478.39999389648</ele>
        <time>2021-04-05T12:07:25.000Z</time>
      </trkpt>
      <trkpt lat="46.42471" lon="5.4037">
        <ele>478.79998779297</ele>
        <time>2021-04-05T12:07:26.000Z</time>
      </trkpt>
      <trkpt lat="46.42475" lon="5.40375">
        <ele>479.39999389648</ele>
        <time>2021-04-05T12:07:28.000Z</time>
      </trkpt>
      <trkpt lat="46.42479" lon="5.40381">
        <ele>480.20001220703</ele>
        <time>2021-04-05T12:07:30.000Z</time>
      </trkpt>
      <trkpt lat="46.42483" lon="5.40388">
        <ele>481</ele>
        <time>2021-04-05T12:07:32.000Z</time>
      </trkpt>
      <trkpt lat="46.42484" lon="5.40391">
        <ele>481.39999389648</ele>
        <time>2021-04-05T12:07:33.000Z</time>
      </trkpt>
      <trkpt lat="46.42486" lon="5.40395">
        <ele>481.60000610352</ele>
        <time>2021-04-05T12:07:34.000Z</time>
      </trkpt>
      <trkpt lat="46.42487" lon="5.40399">
        <ele>481.79998779297</ele>
        <time>2021-04-05T12:07:35.000Z</time>
      </trkpt>
      <trkpt lat="46.42488" lon="5.40403">
        <ele>482</ele>
        <time>2021-04-05T12:07:36.000Z</time>
      </trkpt>
      <trkpt lat="46.42489" lon="5.40412">
        <ele>482.60000610352</ele>
        <time>2021-04-05T12:07:38.000Z</time>
      </trkpt>
      <trkpt lat="46.42489" lon="5.40421">
        <ele>483.20001220703</ele>
        <time>2021-04-05T12:07:40.000Z</time>
      </trkpt>
      <trkpt lat="46.42489" lon="5.40425">
        <ele>483.39999389648</ele>
        <time>2021-04-05T12:07:41.000Z</time>
      </trkpt>
      <trkpt lat="46.42488" lon="5.4043">
        <ele>483.60000610352</ele>
        <time>2021-04-05T12:07:42.000Z</time>
      </trkpt>
      <trkpt lat="46.42487" lon="5.40435">
        <ele>484</ele>
        <time>2021-04-05T12:07:43.000Z</time>
      </trkpt>
      <trkpt lat="46.42486" lon="5.40444">
        <ele>484.39999389648</ele>
        <time>2021-04-05T12:07:45.000Z</time>
      </trkpt>
      <trkpt lat="46.42485" lon="5.40449">
        <ele>484.79998779297</ele>
        <time>2021-04-05T12:07:46.000Z</time>
      </trkpt>
      <trkpt lat="46.42482" lon="5.40459">
        <ele>485.20001220703</ele>
        <time>2021-04-05T12:07:48.000Z</time>
      </trkpt>
      <trkpt lat="46.42479" lon="5.40468">
        <ele>485.60000610352</ele>
        <time>2021-04-05T12:07:50.000Z</time>
      </trkpt>
      <trkpt lat="46.42477" lon="5.40472">
        <ele>485.79998779297</ele>
        <time>2021-04-05T12:07:51.000Z</time>
      </trkpt>
      <trkpt lat="46.42475" lon="5.40475">
        <ele>486</ele>
        <time>2021-04-05T12:07:52.000Z</time>
      </trkpt>
      <trkpt lat="46.4247" lon="5.40483">
        <ele>486.20001220703</ele>
        <time>2021-04-05T12:07:54.000Z</time>
      </trkpt>
      <trkpt lat="46.42466" lon="5.40489">
        <ele>486.60000610352</ele>
        <time>2021-04-05T12:07:56.000Z</time>
      </trkpt>
      <trkpt lat="46.42461" lon="5.40496">
        <ele>486.79998779297</ele>
        <time>2021-04-05T12:07:58.000Z</time>
      </trkpt>
      <trkpt lat="46.42458" lon="5.40499">
        <ele>487.20001220703</ele>
        <time>2021-04-05T12:07:59.000Z</time>
      </trkpt>
      <trkpt lat="46.42455" lon="5.40502">
        <ele>487.60000610352</ele>
        <time>2021-04-05T12:08:00.000Z</time>
      </trkpt>
      <trkpt lat="46.4245" lon="5.40509">
        <ele>488</ele>
        <time>2021-04-05T12:08:02.000Z</time>
      </trkpt>
      <trkpt lat="46.42447" lon="5.40512">
        <ele>488.20001220703</ele>
        <time>2021-04-05T12:08:03.000Z</time>
      </trkpt>
      <trkpt lat="46.42444" lon="5.40515">
        <ele>488.60000610352</ele>
        <time>2021-04-05T12:08:04.000Z</time>
      </trkpt>
      <trkpt lat="46.42436" lon="5.40524">
        <ele>489</ele>
        <time>2021-04-05T12:08:07.000Z</time>
      </trkpt>
      <trkpt lat="46.42427" lon="5.40532">
        <ele>489.20001220703</ele>
        <time>2021-04-05T12:08:10.000Z</time>
      </trkpt>
      <trkpt lat="46.42424" lon="5.40534">
        <ele>489.20001220703</ele>
        <time>2021-04-05T12:08:11.000Z</time>
      </trkpt>
      <trkpt lat="46.42421" lon="5.40536">
        <ele>489.39999389648</ele>
        <time>2021-04-05T12:08:12.000Z</time>
      </trkpt>
      <trkpt lat="46.42418" lon="5.40539">
        <ele>489.60000610352</ele>
        <time>2021-04-05T12:08:13.000Z</time>
      </trkpt>
      <trkpt lat="46.42413" lon="5.40544">
        <ele>490</ele>
        <time>2021-04-05T12:08:15.000Z</time>
      </trkpt>
      <trkpt lat="46.42408" lon="5.40548">
        <ele>490.39999389648</ele>
        <time>2021-04-05T12:08:17.000Z</time>
      </trkpt>
      <trkpt lat="46.42406" lon="5.4055">
        <ele>490.60000610352</ele>
        <time>2021-04-05T12:08:18.000Z</time>
      </trkpt>
      <trkpt lat="46.42403" lon="5.40552">
        <ele>490.60000610352</ele>
        <time>2021-04-05T12:08:19.000Z</time>
      </trkpt>
      <trkpt lat="46.42395" lon="5.40559">
        <ele>491.20001220703</ele>
        <time>2021-04-05T12:08:22.000Z</time>
      </trkpt>
      <trkpt lat="46.42392" lon="5.40562">
        <ele>491.60000610352</ele>
        <time>2021-04-05T12:08:23.000Z</time>
      </trkpt>
      <trkpt lat="46.42389" lon="5.40564">
        <ele>491.60000610352</ele>
        <time>2021-04-05T12:08:24.000Z</time>
      </trkpt>
      <trkpt lat="46.42384" lon="5.40568">
        <ele>491.79998779297</ele>
        <time>2021-04-05T12:08:26.000Z</time>
      </trkpt>
      <trkpt lat="46.42379" lon="5.40572">
        <ele>492.20001220703</ele>
        <time>2021-04-05T12:08:28.000Z</time>
      </trkpt>
      <trkpt lat="46.42373" lon="5.40577">
        <ele>492.60000610352</ele>
        <time>2021-04-05T12:08:30.000Z</time>
      </trkpt>
      <trkpt lat="46.42363" lon="5.40585">
        <ele>493.39999389648</ele>
        <time>2021-04-05T12:08:33.000Z</time>
      </trkpt>
      <trkpt lat="46.42357" lon="5.40589">
        <ele>493.79998779297</ele>
        <time>2021-04-05T12:08:35.000Z</time>
      </trkpt>
      <trkpt lat="46.42351" lon="5.40592">
        <ele>494.20001220703</ele>
        <time>2021-04-05T12:08:37.000Z</time>
      </trkpt>
      <trkpt lat="46.42345" lon="5.40597">
        <ele>494.79998779297</ele>
        <time>2021-04-05T12:08:39.000Z</time>
      </trkpt>
      <trkpt lat="46.42342" lon="5.406">
        <ele>495</ele>
        <time>2021-04-05T12:08:40.000Z</time>
      </trkpt>
      <trkpt lat="46.42338" lon="5.40603">
        <ele>495.20001220703</ele>
        <time>2021-04-05T12:08:41.000Z</time>
      </trkpt>
      <trkpt lat="46.42333" lon="5.40608">
        <ele>495.79998779297</ele>
        <time>2021-04-05T12:08:43.000Z</time>
      </trkpt>
      <trkpt lat="46.4233" lon="5.4061">
        <ele>496</ele>
        <time>2021-04-05T12:08:44.000Z</time>
      </trkpt>
      <trkpt lat="46.42324" lon="5.40617">
        <ele>496.20001220703</ele>
        <time>2021-04-05T12:08:46.000Z</time>
      </trkpt>
      <trkpt lat="46.42318" lon="5.40622">
        <ele>496.79998779297</ele>
        <time>2021-04-05T12:08:48.000Z</time>
      </trkpt>
      <trkpt lat="46.42316" lon="5.40625">
        <ele>497</ele>
        <time>2021-04-05T12:08:49.000Z</time>
      </trkpt>
      <trkpt lat="46.42309" lon="5.40632">
        <ele>497.39999389648</ele>
        <time>2021-04-05T12:08:51.000Z</time>
      </trkpt>
      <trkpt lat="46.423" lon="5.40644">
        <ele>498.20001220703</ele>
        <time>2021-04-05T12:08:54.000Z</time>
      </trkpt>
      <trkpt lat="46.42297" lon="5.40647">
        <ele>498.39999389648</ele>
        <time>2021-04-05T12:08:55.000Z</time>
      </trkpt>
      <trkpt lat="46.42294" lon="5.40651">
        <ele>498.60000610352</ele>
        <time>2021-04-05T12:08:56.000Z</time>
      </trkpt>
      <trkpt lat="46.42289" lon="5.40658">
        <ele>498.79998779297</ele>
        <time>2021-04-05T12:08:58.000Z</time>
      </trkpt>
      <trkpt lat="46.42282" lon="5.40664">
        <ele>499.20001220703</ele>
        <time>2021-04-05T12:09:00.000Z</time>
      </trkpt>
      <trkpt lat="46.42277" lon="5.4067">
        <ele>499.60000610352</ele>
        <time>2021-04-05T12:09:02.000Z</time>
      </trkpt>
      <trkpt lat="46.42274" lon="5.40673">
        <ele>500</ele>
        <time>2021-04-05T12:09:03.000Z</time>
      </trkpt>
      <trkpt lat="46.42271" lon="5.40675">
        <ele>500.20001220703</ele>
        <time>2021-04-05T12:09:04.000Z</time>
      </trkpt>
      <trkpt lat="46.42265" lon="5.4068">
        <ele>500.79998779297</ele>
        <time>2021-04-05T12:09:06.000Z</time>
      </trkpt>
      <trkpt lat="46.42263" lon="5.40682">
        <ele>501</ele>
        <time>2021-04-05T12:09:07.000Z</time>
      </trkpt>
      <trkpt lat="46.42257" lon="5.40686">
        <ele>501</ele>
        <time>2021-04-05T12:09:09.000Z</time>
      </trkpt>
      <trkpt lat="46.42254" lon="5.40689">
        <ele>501.20001220703</ele>
        <time>2021-04-05T12:09:10.000Z</time>
      </trkpt>
      <trkpt lat="46.42247" lon="5.40694">
        <ele>501.79998779297</ele>
        <time>2021-04-05T12:09:12.000Z</time>
      </trkpt>
      <trkpt lat="46.42238" lon="5.40698">
        <ele>502.60000610352</ele>
        <time>2021-04-05T12:09:15.000Z</time>
      </trkpt>
      <trkpt lat="46.42232" lon="5.40702">
        <ele>503</ele>
        <time>2021-04-05T12:09:17.000Z</time>
      </trkpt>
      <trkpt lat="46.42226" lon="5.40707">
        <ele>503.20001220703</ele>
        <time>2021-04-05T12:09:19.000Z</time>
      </trkpt>
      <trkpt lat="46.4222" lon="5.4071">
        <ele>503.79998779297</ele>
        <time>2021-04-05T12:09:21.000Z</time>
      </trkpt>
      <trkpt lat="46.42216" lon="5.40713">
        <ele>503.60000610352</ele>
        <time>2021-04-05T12:09:22.000Z</time>
      </trkpt>
      <trkpt lat="46.42213" lon="5.40715">
        <ele>504</ele>
        <time>2021-04-05T12:09:23.000Z</time>
      </trkpt>
      <trkpt lat="46.42204" lon="5.40726">
        <ele>504.60000610352</ele>
        <time>2021-04-05T12:09:26.000Z</time>
      </trkpt>
      <trkpt lat="46.42201" lon="5.4073">
        <ele>504.79998779297</ele>
        <time>2021-04-05T12:09:27.000Z</time>
      </trkpt>
      <trkpt lat="46.42199" lon="5.40733">
        <ele>505</ele>
        <time>2021-04-05T12:09:28.000Z</time>
      </trkpt>
      <trkpt lat="46.42196" lon="5.40737">
        <ele>505.20001220703</ele>
        <time>2021-04-05T12:09:29.000Z</time>
      </trkpt>
      <trkpt lat="46.42193" lon="5.4074">
        <ele>505.39999389648</ele>
        <time>2021-04-05T12:09:30.000Z</time>
      </trkpt>
      <trkpt lat="46.42188" lon="5.40747">
        <ele>505.79998779297</ele>
        <time>2021-04-05T12:09:32.000Z</time>
      </trkpt>
      <trkpt lat="46.42185" lon="5.40751">
        <ele>506</ele>
        <time>2021-04-05T12:09:33.000Z</time>
      </trkpt>
      <trkpt lat="46.42182" lon="5.40755">
        <ele>506.39999389648</ele>
        <time>2021-04-05T12:09:34.000Z</time>
      </trkpt>
      <trkpt lat="46.42177" lon="5.40761">
        <ele>506.79998779297</ele>
        <time>2021-04-05T12:09:36.000Z</time>
      </trkpt>
      <trkpt lat="46.42173" lon="5.40765">
        <ele>507</ele>
        <time>2021-04-05T12:09:37.000Z</time>
      </trkpt>
      <trkpt lat="46.42166" lon="5.4077">
        <ele>507.39999389648</ele>
        <time>2021-04-05T12:09:39.000Z</time>
      </trkpt>
      <trkpt lat="46.42158" lon="5.40775">
        <ele>507.60000610352</ele>
        <time>2021-04-05T12:09:41.000Z</time>
      </trkpt>
      <trkpt lat="46.42154" lon="5.40777">
        <ele>508</ele>
        <time>2021-04-05T12:09:42.000Z</time>
      </trkpt>
      <trkpt lat="46.42146" lon="5.4078">
        <ele>508.39999389648</ele>
        <time>2021-04-05T12:09:44.000Z</time>
      </trkpt>
      <trkpt lat="46.42137" lon="5.40782">
        <ele>509</ele>
        <time>2021-04-05T12:09:46.000Z</time>
      </trkpt>
      <trkpt lat="46.42133" lon="5.40783">
        <ele>509.20001220703</ele>
        <time>2021-04-05T12:09:47.000Z</time>
      </trkpt>
      <trkpt lat="46.42129" lon="5.40782">
        <ele>509.39999389648</ele>
        <time>2021-04-05T12:09:48.000Z</time>
      </trkpt>
      <trkpt lat="46.42116" lon="5.40783">
        <ele>509.79998779297</ele>
        <time>2021-04-05T12:09:51.000Z</time>
      </trkpt>
      <trkpt lat="46.42111" lon="5.40783">
        <ele>510</ele>
        <time>2021-04-05T12:09:52.000Z</time>
      </trkpt>
      <trkpt lat="46.42107" lon="5.40783">
        <ele>510</ele>
        <time>2021-04-05T12:09:53.000Z</time>
      </trkpt>
      <trkpt lat="46.42099" lon="5.40783">
        <ele>510.20001220703</ele>
        <time>2021-04-05T12:09:55.000Z</time>
      </trkpt>
      <trkpt lat="46.42092" lon="5.40782">
        <ele>510.39999389648</ele>
        <time>2021-04-05T12:09:57.000Z</time>
      </trkpt>
      <trkpt lat="46.42088" lon="5.40782">
        <ele>510.60000610352</ele>
        <time>2021-04-05T12:09:58.000Z</time>
      </trkpt>
      <trkpt lat="46.42085" lon="5.40782">
        <ele>510.60000610352</ele>
        <time>2021-04-05T12:09:59.000Z</time>
      </trkpt>
      <trkpt lat="46.42081" lon="5.40783">
        <ele>510.79998779297</ele>
        <time>2021-04-05T12:10:00.000Z</time>
      </trkpt>
      <trkpt lat="46.42073" lon="5.40786">
        <ele>511.20001220703</ele>
        <time>2021-04-05T12:10:02.000Z</time>
      </trkpt>
      <trkpt lat="46.42065" lon="5.40792">
        <ele>511.60000610352</ele>
        <time>2021-04-05T12:10:04.000Z</time>
      </trkpt>
      <trkpt lat="46.4206" lon="5.40795">
        <ele>511.79998779297</ele>
        <time>2021-04-05T12:10:05.000Z</time>
      </trkpt>
      <trkpt lat="46.4205" lon="5.40803">
        <ele>512.20001220703</ele>
        <time>2021-04-05T12:10:07.000Z</time>
      </trkpt>
      <trkpt lat="46.42046" lon="5.40807">
        <ele>512.40002441406</ele>
        <time>2021-04-05T12:10:08.000Z</time>
      </trkpt>
      <trkpt lat="46.42042" lon="5.40812">
        <ele>512.59997558594</ele>
        <time>2021-04-05T12:10:09.000Z</time>
      </trkpt>
      <trkpt lat="46.42036" lon="5.40823">
        <ele>513.20001220703</ele>
        <time>2021-04-05T12:10:11.000Z</time>
      </trkpt>
      <trkpt lat="46.4203" lon="5.40834">
        <ele>513.40002441406</ele>
        <time>2021-04-05T12:10:13.000Z</time>
      </trkpt>
      <trkpt lat="46.42028" lon="5.40841">
        <ele>513.59997558594</ele>
        <time>2021-04-05T12:10:14.000Z</time>
      </trkpt>
      <trkpt lat="46.42026" lon="5.40848">
        <ele>513.59997558594</ele>
        <time>2021-04-05T12:10:15.000Z</time>
      </trkpt>
      <trkpt lat="46.42024" lon="5.40855">
        <ele>513.59997558594</ele>
        <time>2021-04-05T12:10:16.000Z</time>
      </trkpt>
      <trkpt lat="46.42021" lon="5.4088">
        <ele>513.79998779297</ele>
        <time>2021-04-05T12:10:19.000Z</time>
      </trkpt>
      <trkpt lat="46.42017" lon="5.40908">
        <ele>513.79998779297</ele>
        <time>2021-04-05T12:10:22.000Z</time>
      </trkpt>
      <trkpt lat="46.42015" lon="5.40918">
        <ele>513.79998779297</ele>
        <time>2021-04-05T12:10:23.000Z</time>
      </trkpt>
      <trkpt lat="46.42012" lon="5.40928">
        <ele>513.79998779297</ele>
        <time>2021-04-05T12:10:24.000Z</time>
      </trkpt>
      <trkpt lat="46.42005" lon="5.40946">
        <ele>513.79998779297</ele>
        <time>2021-04-05T12:10:26.000Z</time>
      </trkpt>
      <trkpt lat="46.41996" lon="5.40962">
        <ele>513.79998779297</ele>
        <time>2021-04-05T12:10:28.000Z</time>
      </trkpt>
      <trkpt lat="46.41985" lon="5.40977">
        <ele>513</ele>
        <time>2021-04-05T12:10:30.000Z</time>
      </trkpt>
      <trkpt lat="46.4198" lon="5.40983">
        <ele>512.59997558594</ele>
        <time>2021-04-05T12:10:31.000Z</time>
      </trkpt>
      <trkpt lat="46.41974" lon="5.4099">
        <ele>512.40002441406</ele>
        <time>2021-04-05T12:10:32.000Z</time>
      </trkpt>
      <trkpt lat="46.41964" lon="5.41004">
        <ele>512.20001220703</ele>
        <time>2021-04-05T12:10:34.000Z</time>
      </trkpt>
      <trkpt lat="46.41955" lon="5.4102">
        <ele>512.20001220703</ele>
        <time>2021-04-05T12:10:36.000Z</time>
      </trkpt>
      <trkpt lat="46.41947" lon="5.41039">
        <ele>512</ele>
        <time>2021-04-05T12:10:38.000Z</time>
      </trkpt>
      <trkpt lat="46.41943" lon="5.41061">
        <ele>511.79998779297</ele>
        <time>2021-04-05T12:10:40.000Z</time>
      </trkpt>
      <trkpt lat="46.41942" lon="5.41085">
        <ele>511.79998779297</ele>
        <time>2021-04-05T12:10:42.000Z</time>
      </trkpt>
      <trkpt lat="46.41942" lon="5.41098">
        <ele>511.60000610352</ele>
        <time>2021-04-05T12:10:43.000Z</time>
      </trkpt>
      <trkpt lat="46.41944" lon="5.41109">
        <ele>511.60000610352</ele>
        <time>2021-04-05T12:10:44.000Z</time>
      </trkpt>
      <trkpt lat="46.41945" lon="5.41122">
        <ele>511.39999389648</ele>
        <time>2021-04-05T12:10:45.000Z</time>
      </trkpt>
      <trkpt lat="46.41946" lon="5.41134">
        <ele>511.20001220703</ele>
        <time>2021-04-05T12:10:46.000Z</time>
      </trkpt>
      <trkpt lat="46.41946" lon="5.41147">
        <ele>511</ele>
        <time>2021-04-05T12:10:47.000Z</time>
      </trkpt>
      <trkpt lat="46.41947" lon="5.41161">
        <ele>510.79998779297</ele>
        <time>2021-04-05T12:10:48.000Z</time>
      </trkpt>
      <trkpt lat="46.41948" lon="5.41191">
        <ele>510.60000610352</ele>
        <time>2021-04-05T12:10:50.000Z</time>
      </trkpt>
      <trkpt lat="46.41948" lon="5.41206">
        <ele>510</ele>
        <time>2021-04-05T12:10:51.000Z</time>
      </trkpt>
      <trkpt lat="46.41949" lon="5.41222">
        <ele>509.39999389648</ele>
        <time>2021-04-05T12:10:52.000Z</time>
      </trkpt>
      <trkpt lat="46.4195" lon="5.41237">
        <ele>508.39999389648</ele>
        <time>2021-04-05T12:10:53.000Z</time>
      </trkpt>
      <trkpt lat="46.41951" lon="5.41252">
        <ele>507.79998779297</ele>
        <time>2021-04-05T12:10:54.000Z</time>
      </trkpt>
      <trkpt lat="46.41953" lon="5.41267">
        <ele>507.39999389648</ele>
        <time>2021-04-05T12:10:55.000Z</time>
      </trkpt>
      <trkpt lat="46.41955" lon="5.41282">
        <ele>507</ele>
        <time>2021-04-05T12:10:56.000Z</time>
      </trkpt>
      <trkpt lat="46.41958" lon="5.41313">
        <ele>506.20001220703</ele>
        <time>2021-04-05T12:10:58.000Z</time>
      </trkpt>
      <trkpt lat="46.41961" lon="5.41328">
        <ele>505.79998779297</ele>
        <time>2021-04-05T12:10:59.000Z</time>
      </trkpt>
      <trkpt lat="46.41965" lon="5.41343">
        <ele>505.39999389648</ele>
        <time>2021-04-05T12:11:00.000Z</time>
      </trkpt>
      <trkpt lat="46.41971" lon="5.41357">
        <ele>504.79998779297</ele>
        <time>2021-04-05T12:11:01.000Z</time>
      </trkpt>
      <trkpt lat="46.41986" lon="5.4138">
        <ele>503.79998779297</ele>
        <time>2021-04-05T12:11:03.000Z</time>
      </trkpt>
      <trkpt lat="46.41996" lon="5.41388">
        <ele>503.20001220703</ele>
        <time>2021-04-05T12:11:04.000Z</time>
      </trkpt>
      <trkpt lat="46.42006" lon="5.41395">
        <ele>502.79998779297</ele>
        <time>2021-04-05T12:11:05.000Z</time>
      </trkpt>
      <trkpt lat="46.42017" lon="5.414">
        <ele>502.60000610352</ele>
        <time>2021-04-05T12:11:06.000Z</time>
      </trkpt>
      <trkpt lat="46.42028" lon="5.41404">
        <ele>502</ele>
        <time>2021-04-05T12:11:07.000Z</time>
      </trkpt>
      <trkpt lat="46.42039" lon="5.41409">
        <ele>500.79998779297</ele>
        <time>2021-04-05T12:11:08.000Z</time>
      </trkpt>
      <trkpt lat="46.4205" lon="5.41414">
        <ele>500</ele>
        <time>2021-04-05T12:11:09.000Z</time>
      </trkpt>
      <trkpt lat="46.42062" lon="5.4142">
        <ele>499.20001220703</ele>
        <time>2021-04-05T12:11:10.000Z</time>
      </trkpt>
      <trkpt lat="46.42073" lon="5.41425">
        <ele>498.39999389648</ele>
        <time>2021-04-05T12:11:11.000Z</time>
      </trkpt>
      <trkpt lat="46.42084" lon="5.4143">
        <ele>497.60000610352</ele>
        <time>2021-04-05T12:11:12.000Z</time>
      </trkpt>
      <trkpt lat="46.42096" lon="5.41435">
        <ele>496.79998779297</ele>
        <time>2021-04-05T12:11:13.000Z</time>
      </trkpt>
      <trkpt lat="46.42107" lon="5.4144">
        <ele>496</ele>
        <time>2021-04-05T12:11:14.000Z</time>
      </trkpt>
      <trkpt lat="46.42118" lon="5.41444">
        <ele>495.20001220703</ele>
        <time>2021-04-05T12:11:15.000Z</time>
      </trkpt>
      <trkpt lat="46.4213" lon="5.41448">
        <ele>494.79998779297</ele>
        <time>2021-04-05T12:11:16.000Z</time>
      </trkpt>
      <trkpt lat="46.42141" lon="5.41453">
        <ele>494.39999389648</ele>
        <time>2021-04-05T12:11:17.000Z</time>
      </trkpt>
      <trkpt lat="46.42162" lon="5.41462">
        <ele>493.39999389648</ele>
        <time>2021-04-05T12:11:19.000Z</time>
      </trkpt>
      <trkpt lat="46.42173" lon="5.41466">
        <ele>492.60000610352</ele>
        <time>2021-04-05T12:11:20.000Z</time>
      </trkpt>
      <trkpt lat="46.42184" lon="5.41469">
        <ele>492</ele>
        <time>2021-04-05T12:11:21.000Z</time>
      </trkpt>
      <trkpt lat="46.42206" lon="5.41472">
        <ele>490.79998779297</ele>
        <time>2021-04-05T12:11:23.000Z</time>
      </trkpt>
      <trkpt lat="46.42217" lon="5.41473">
        <ele>490.60000610352</ele>
        <time>2021-04-05T12:11:24.000Z</time>
      </trkpt>
      <trkpt lat="46.42228" lon="5.41474">
        <ele>490.20001220703</ele>
        <time>2021-04-05T12:11:25.000Z</time>
      </trkpt>
      <trkpt lat="46.42238" lon="5.41475">
        <ele>489.79998779297</ele>
        <time>2021-04-05T12:11:26.000Z</time>
      </trkpt>
      <trkpt lat="46.42249" lon="5.41477">
        <ele>489.20001220703</ele>
        <time>2021-04-05T12:11:27.000Z</time>
      </trkpt>
      <trkpt lat="46.42272" lon="5.41481">
        <ele>488.20001220703</ele>
        <time>2021-04-05T12:11:29.000Z</time>
      </trkpt>
      <trkpt lat="46.42283" lon="5.41484">
        <ele>488</ele>
        <time>2021-04-05T12:11:30.000Z</time>
      </trkpt>
      <trkpt lat="46.42293" lon="5.41487">
        <ele>487.79998779297</ele>
        <time>2021-04-05T12:11:31.000Z</time>
      </trkpt>
      <trkpt lat="46.42315" lon="5.41495">
        <ele>487</ele>
        <time>2021-04-05T12:11:33.000Z</time>
      </trkpt>
      <trkpt lat="46.42336" lon="5.41505">
        <ele>486</ele>
        <time>2021-04-05T12:11:35.000Z</time>
      </trkpt>
      <trkpt lat="46.42346" lon="5.41512">
        <ele>485.60000610352</ele>
        <time>2021-04-05T12:11:36.000Z</time>
      </trkpt>
      <trkpt lat="46.42355" lon="5.41518">
        <ele>484.39999389648</ele>
        <time>2021-04-05T12:11:37.000Z</time>
      </trkpt>
      <trkpt lat="46.42375" lon="5.41529">
        <ele>483.60000610352</ele>
        <time>2021-04-05T12:11:39.000Z</time>
      </trkpt>
      <trkpt lat="46.42394" lon="5.41537">
        <ele>483.39999389648</ele>
        <time>2021-04-05T12:11:41.000Z</time>
      </trkpt>
      <trkpt lat="46.42412" lon="5.41543">
        <ele>483</ele>
        <time>2021-04-05T12:11:43.000Z</time>
      </trkpt>
      <trkpt lat="46.42431" lon="5.4155">
        <ele>483</ele>
        <time>2021-04-05T12:11:45.000Z</time>
      </trkpt>
      <trkpt lat="46.42448" lon="5.41559">
        <ele>483</ele>
        <time>2021-04-05T12:11:47.000Z</time>
      </trkpt>
      <trkpt lat="46.42465" lon="5.41567">
        <ele>483</ele>
        <time>2021-04-05T12:11:49.000Z</time>
      </trkpt>
      <trkpt lat="46.42481" lon="5.41573">
        <ele>483</ele>
        <time>2021-04-05T12:11:51.000Z</time>
      </trkpt>
      <trkpt lat="46.42489" lon="5.41575">
        <ele>483</ele>
        <time>2021-04-05T12:11:52.000Z</time>
      </trkpt>
      <trkpt lat="46.42496" lon="5.41577">
        <ele>483</ele>
        <time>2021-04-05T12:11:53.000Z</time>
      </trkpt>
      <trkpt lat="46.42519" lon="5.41581">
        <ele>483.60000610352</ele>
        <time>2021-04-05T12:11:56.000Z</time>
      </trkpt>
      <trkpt lat="46.42534" lon="5.41584">
        <ele>484.39999389648</ele>
        <time>2021-04-05T12:11:58.000Z</time>
      </trkpt>
      <trkpt lat="46.42542" lon="5.41585">
        <ele>484.60000610352</ele>
        <time>2021-04-05T12:11:59.000Z</time>
      </trkpt>
      <trkpt lat="46.42549" lon="5.41587">
        <ele>484.79998779297</ele>
        <time>2021-04-05T12:12:00.000Z</time>
      </trkpt>
      <trkpt lat="46.42565" lon="5.41591">
        <ele>485</ele>
        <time>2021-04-05T12:12:02.000Z</time>
      </trkpt>
      <trkpt lat="46.42582" lon="5.41596">
        <ele>485.20001220703</ele>
        <time>2021-04-05T12:12:04.000Z</time>
      </trkpt>
      <trkpt lat="46.42591" lon="5.41598">
        <ele>485.20001220703</ele>
        <time>2021-04-05T12:12:05.000Z</time>
      </trkpt>
      <trkpt lat="46.42599" lon="5.41601">
        <ele>485.20001220703</ele>
        <time>2021-04-05T12:12:06.000Z</time>
      </trkpt>
      <trkpt lat="46.42617" lon="5.41605">
        <ele>485.20001220703</ele>
        <time>2021-04-05T12:12:08.000Z</time>
      </trkpt>
      <trkpt lat="46.42637" lon="5.4161">
        <ele>484.79998779297</ele>
        <time>2021-04-05T12:12:10.000Z</time>
      </trkpt>
      <trkpt lat="46.42646" lon="5.41614">
        <ele>484.20001220703</ele>
        <time>2021-04-05T12:12:11.000Z</time>
      </trkpt>
      <trkpt lat="46.42656" lon="5.41619">
        <ele>483.60000610352</ele>
        <time>2021-04-05T12:12:12.000Z</time>
      </trkpt>
      <trkpt lat="46.42665" lon="5.41626">
        <ele>483</ele>
        <time>2021-04-05T12:12:13.000Z</time>
      </trkpt>
      <trkpt lat="46.42674" lon="5.41632">
        <ele>482.60000610352</ele>
        <time>2021-04-05T12:12:14.000Z</time>
      </trkpt>
      <trkpt lat="46.42684" lon="5.41635">
        <ele>482</ele>
        <time>2021-04-05T12:12:15.000Z</time>
      </trkpt>
      <trkpt lat="46.42693" lon="5.41637">
        <ele>481.39999389648</ele>
        <time>2021-04-05T12:12:16.000Z</time>
      </trkpt>
      <trkpt lat="46.42702" lon="5.4164">
        <ele>480.60000610352</ele>
        <time>2021-04-05T12:12:17.000Z</time>
      </trkpt>
      <trkpt lat="46.42713" lon="5.41654">
        <ele>479</ele>
        <time>2021-04-05T12:12:19.000Z</time>
      </trkpt>
      <trkpt lat="46.4271" lon="5.41671">
        <ele>477</ele>
        <time>2021-04-05T12:12:21.000Z</time>
      </trkpt>
      <trkpt lat="46.42698" lon="5.41686">
        <ele>475.60000610352</ele>
        <time>2021-04-05T12:12:23.000Z</time>
      </trkpt>
      <trkpt lat="46.42691" lon="5.41693">
        <ele>475</ele>
        <time>2021-04-05T12:12:24.000Z</time>
      </trkpt>
      <trkpt lat="46.42683" lon="5.41701">
        <ele>474.79998779297</ele>
        <time>2021-04-05T12:12:25.000Z</time>
      </trkpt>
      <trkpt lat="46.42676" lon="5.41709">
        <ele>474.60000610352</ele>
        <time>2021-04-05T12:12:26.000Z</time>
      </trkpt>
      <trkpt lat="46.42668" lon="5.41717">
        <ele>474.39999389648</ele>
        <time>2021-04-05T12:12:27.000Z</time>
      </trkpt>
      <trkpt lat="46.42653" lon="5.41735">
        <ele>474</ele>
        <time>2021-04-05T12:12:29.000Z</time>
      </trkpt>
      <trkpt lat="46.42637" lon="5.41753">
        <ele>473</ele>
        <time>2021-04-05T12:12:31.000Z</time>
      </trkpt>
      <trkpt lat="46.42629" lon="5.41762">
        <ele>472.39999389648</ele>
        <time>2021-04-05T12:12:32.000Z</time>
      </trkpt>
      <trkpt lat="46.42621" lon="5.4177">
        <ele>471.39999389648</ele>
        <time>2021-04-05T12:12:33.000Z</time>
      </trkpt>
      <trkpt lat="46.42603" lon="5.41785">
        <ele>469.20001220703</ele>
        <time>2021-04-05T12:12:35.000Z</time>
      </trkpt>
      <trkpt lat="46.42593" lon="5.41789">
        <ele>468.60000610352</ele>
        <time>2021-04-05T12:12:36.000Z</time>
      </trkpt>
      <trkpt lat="46.42583" lon="5.41789">
        <ele>467.79998779297</ele>
        <time>2021-04-05T12:12:37.000Z</time>
      </trkpt>
      <trkpt lat="46.42573" lon="5.41787">
        <ele>467.20001220703</ele>
        <time>2021-04-05T12:12:38.000Z</time>
      </trkpt>
      <trkpt lat="46.42563" lon="5.41783">
        <ele>466.39999389648</ele>
        <time>2021-04-05T12:12:39.000Z</time>
      </trkpt>
      <trkpt lat="46.42553" lon="5.41778">
        <ele>465.79998779297</ele>
        <time>2021-04-05T12:12:40.000Z</time>
      </trkpt>
      <trkpt lat="46.42543" lon="5.41773">
        <ele>465</ele>
        <time>2021-04-05T12:12:41.000Z</time>
      </trkpt>
      <trkpt lat="46.42533" lon="5.41769">
        <ele>464.39999389648</ele>
        <time>2021-04-05T12:12:42.000Z</time>
      </trkpt>
      <trkpt lat="46.42522" lon="5.41767">
        <ele>463.60000610352</ele>
        <time>2021-04-05T12:12:43.000Z</time>
      </trkpt>
      <trkpt lat="46.42511" lon="5.41766">
        <ele>462.60000610352</ele>
        <time>2021-04-05T12:12:44.000Z</time>
      </trkpt>
      <trkpt lat="46.425" lon="5.41768">
        <ele>461.79998779297</ele>
        <time>2021-04-05T12:12:45.000Z</time>
      </trkpt>
      <trkpt lat="46.42489" lon="5.4177">
        <ele>461</ele>
        <time>2021-04-05T12:12:46.000Z</time>
      </trkpt>
      <trkpt lat="46.42478" lon="5.41774">
        <ele>460.60000610352</ele>
        <time>2021-04-05T12:12:47.000Z</time>
      </trkpt>
      <trkpt lat="46.42468" lon="5.41779">
        <ele>460.39999389648</ele>
        <time>2021-04-05T12:12:48.000Z</time>
      </trkpt>
      <trkpt lat="46.42446" lon="5.41787">
        <ele>459.79998779297</ele>
        <time>2021-04-05T12:12:50.000Z</time>
      </trkpt>
      <trkpt lat="46.42423" lon="5.41792">
        <ele>459.39999389648</ele>
        <time>2021-04-05T12:12:52.000Z</time>
      </trkpt>
      <trkpt lat="46.424" lon="5.41794">
        <ele>457.60000610352</ele>
        <time>2021-04-05T12:12:54.000Z</time>
      </trkpt>
      <trkpt lat="46.42389" lon="5.41793">
        <ele>457</ele>
        <time>2021-04-05T12:12:55.000Z</time>
      </trkpt>
      <trkpt lat="46.42377" lon="5.41791">
        <ele>456.39999389648</ele>
        <time>2021-04-05T12:12:56.000Z</time>
      </trkpt>
      <trkpt lat="46.42354" lon="5.41785">
        <ele>454.79998779297</ele>
        <time>2021-04-05T12:12:58.000Z</time>
      </trkpt>
      <trkpt lat="46.42331" lon="5.41776">
        <ele>453.79998779297</ele>
        <time>2021-04-05T12:13:00.000Z</time>
      </trkpt>
      <trkpt lat="46.42319" lon="5.41772">
        <ele>453.20001220703</ele>
        <time>2021-04-05T12:13:01.000Z</time>
      </trkpt>
      <trkpt lat="46.42308" lon="5.41767">
        <ele>452.60000610352</ele>
        <time>2021-04-05T12:13:02.000Z</time>
      </trkpt>
      <trkpt lat="46.42297" lon="5.41762">
        <ele>451.79998779297</ele>
        <time>2021-04-05T12:13:03.000Z</time>
      </trkpt>
      <trkpt lat="46.42286" lon="5.41757">
        <ele>450.39999389648</ele>
        <time>2021-04-05T12:13:04.000Z</time>
      </trkpt>
      <trkpt lat="46.42264" lon="5.41745">
        <ele>448.60000610352</ele>
        <time>2021-04-05T12:13:06.000Z</time>
      </trkpt>
      <trkpt lat="46.42253" lon="5.4174">
        <ele>448</ele>
        <time>2021-04-05T12:13:07.000Z</time>
      </trkpt>
      <trkpt lat="46.42242" lon="5.41734">
        <ele>447.20001220703</ele>
        <time>2021-04-05T12:13:08.000Z</time>
      </trkpt>
      <trkpt lat="46.42223" lon="5.41722">
        <ele>445.60000610352</ele>
        <time>2021-04-05T12:13:10.000Z</time>
      </trkpt>
      <trkpt lat="46.42203" lon="5.4171">
        <ele>444.20001220703</ele>
        <time>2021-04-05T12:13:12.000Z</time>
      </trkpt>
      <trkpt lat="46.42184" lon="5.41698">
        <ele>443.39999389648</ele>
        <time>2021-04-05T12:13:14.000Z</time>
      </trkpt>
      <trkpt lat="46.42174" lon="5.41692">
        <ele>443.20001220703</ele>
        <time>2021-04-05T12:13:15.000Z</time>
      </trkpt>
      <trkpt lat="46.42165" lon="5.41686">
        <ele>443</ele>
        <time>2021-04-05T12:13:16.000Z</time>
      </trkpt>
      <trkpt lat="46.42145" lon="5.41673">
        <ele>442.60000610352</ele>
        <time>2021-04-05T12:13:18.000Z</time>
      </trkpt>
      <trkpt lat="46.42125" lon="5.41664">
        <ele>442.20001220703</ele>
        <time>2021-04-05T12:13:20.000Z</time>
      </trkpt>
      <trkpt lat="46.42115" lon="5.41661">
        <ele>442.20001220703</ele>
        <time>2021-04-05T12:13:21.000Z</time>
      </trkpt>
      <trkpt lat="46.42104" lon="5.4166">
        <ele>442</ele>
        <time>2021-04-05T12:13:22.000Z</time>
      </trkpt>
      <trkpt lat="46.42083" lon="5.4166">
        <ele>441.60000610352</ele>
        <time>2021-04-05T12:13:24.000Z</time>
      </trkpt>
      <trkpt lat="46.42061" lon="5.41657">
        <ele>441.20001220703</ele>
        <time>2021-04-05T12:13:26.000Z</time>
      </trkpt>
      <trkpt lat="46.4205" lon="5.41654">
        <ele>441</ele>
        <time>2021-04-05T12:13:27.000Z</time>
      </trkpt>
      <trkpt lat="46.42039" lon="5.41651">
        <ele>440.60000610352</ele>
        <time>2021-04-05T12:13:28.000Z</time>
      </trkpt>
      <trkpt lat="46.42028" lon="5.41648">
        <ele>440</ele>
        <time>2021-04-05T12:13:29.000Z</time>
      </trkpt>
      <trkpt lat="46.42017" lon="5.41648">
        <ele>439.20001220703</ele>
        <time>2021-04-05T12:13:30.000Z</time>
      </trkpt>
      <trkpt lat="46.42007" lon="5.41652">
        <ele>438.60000610352</ele>
        <time>2021-04-05T12:13:31.000Z</time>
      </trkpt>
      <trkpt lat="46.41998" lon="5.4166">
        <ele>438</ele>
        <time>2021-04-05T12:13:32.000Z</time>
      </trkpt>
      <trkpt lat="46.41992" lon="5.41673">
        <ele>437.20001220703</ele>
        <time>2021-04-05T12:13:33.000Z</time>
      </trkpt>
      <trkpt lat="46.41991" lon="5.4169">
        <ele>436.60000610352</ele>
        <time>2021-04-05T12:13:34.000Z</time>
      </trkpt>
      <trkpt lat="46.41993" lon="5.41704">
        <ele>436</ele>
        <time>2021-04-05T12:13:35.000Z</time>
      </trkpt>
      <trkpt lat="46.41997" lon="5.41717">
        <ele>435.20001220703</ele>
        <time>2021-04-05T12:13:36.000Z</time>
      </trkpt>
      <trkpt lat="46.42004" lon="5.4173">
        <ele>434.79998779297</ele>
        <time>2021-04-05T12:13:37.000Z</time>
      </trkpt>
      <trkpt lat="46.4201" lon="5.41741">
        <ele>434</ele>
        <time>2021-04-05T12:13:38.000Z</time>
      </trkpt>
      <trkpt lat="46.42017" lon="5.41752">
        <ele>433.39999389648</ele>
        <time>2021-04-05T12:13:39.000Z</time>
      </trkpt>
      <trkpt lat="46.42023" lon="5.41764">
        <ele>432.79998779297</ele>
        <time>2021-04-05T12:13:40.000Z</time>
      </trkpt>
      <trkpt lat="46.42029" lon="5.41776">
        <ele>432.60000610352</ele>
        <time>2021-04-05T12:13:41.000Z</time>
      </trkpt>
      <trkpt lat="46.42035" lon="5.41789">
        <ele>432.20001220703</ele>
        <time>2021-04-05T12:13:42.000Z</time>
      </trkpt>
      <trkpt lat="46.4204" lon="5.41802">
        <ele>432</ele>
        <time>2021-04-05T12:13:43.000Z</time>
      </trkpt>
      <trkpt lat="46.42049" lon="5.4183">
        <ele>431.20001220703</ele>
        <time>2021-04-05T12:13:45.000Z</time>
      </trkpt>
      <trkpt lat="46.42058" lon="5.41876">
        <ele>430.79998779297</ele>
        <time>2021-04-05T12:13:48.000Z</time>
      </trkpt>
      <trkpt lat="46.4206" lon="5.41892">
        <ele>430.79998779297</ele>
        <time>2021-04-05T12:13:49.000Z</time>
      </trkpt>
      <trkpt lat="46.42061" lon="5.41908">
        <ele>430.60000610352</ele>
        <time>2021-04-05T12:13:50.000Z</time>
      </trkpt>
      <trkpt lat="46.42061" lon="5.41925">
        <ele>430.20001220703</ele>
        <time>2021-04-05T12:13:51.000Z</time>
      </trkpt>
      <trkpt lat="46.42061" lon="5.41942">
        <ele>429.79998779297</ele>
        <time>2021-04-05T12:13:52.000Z</time>
      </trkpt>
      <trkpt lat="46.42061" lon="5.41958">
        <ele>429.39999389648</ele>
        <time>2021-04-05T12:13:53.000Z</time>
      </trkpt>
      <trkpt lat="46.42061" lon="5.41975">
        <ele>429</ele>
        <time>2021-04-05T12:13:54.000Z</time>
      </trkpt>
      <trkpt lat="46.42063" lon="5.41992">
        <ele>428.39999389648</ele>
        <time>2021-04-05T12:13:55.000Z</time>
      </trkpt>
      <trkpt lat="46.42067" lon="5.42008">
        <ele>427.79998779297</ele>
        <time>2021-04-05T12:13:56.000Z</time>
      </trkpt>
      <trkpt lat="46.42073" lon="5.42022">
        <ele>427</ele>
        <time>2021-04-05T12:13:57.000Z</time>
      </trkpt>
      <trkpt lat="46.42079" lon="5.42036">
        <ele>426.20001220703</ele>
        <time>2021-04-05T12:13:58.000Z</time>
      </trkpt>
      <trkpt lat="46.42086" lon="5.4205">
        <ele>425.60000610352</ele>
        <time>2021-04-05T12:13:59.000Z</time>
      </trkpt>
      <trkpt lat="46.42093" lon="5.42063">
        <ele>425</ele>
        <time>2021-04-05T12:14:00.000Z</time>
      </trkpt>
      <trkpt lat="46.42101" lon="5.42077">
        <ele>424.39999389648</ele>
        <time>2021-04-05T12:14:01.000Z</time>
      </trkpt>
      <trkpt lat="46.42108" lon="5.4209">
        <ele>423.39999389648</ele>
        <time>2021-04-05T12:14:02.000Z</time>
      </trkpt>
      <trkpt lat="46.42116" lon="5.42103">
        <ele>422.39999389648</ele>
        <time>2021-04-05T12:14:03.000Z</time>
      </trkpt>
      <trkpt lat="46.42123" lon="5.42116">
        <ele>421.60000610352</ele>
        <time>2021-04-05T12:14:04.000Z</time>
      </trkpt>
      <trkpt lat="46.42131" lon="5.42129">
        <ele>421</ele>
        <time>2021-04-05T12:14:05.000Z</time>
      </trkpt>
      <trkpt lat="46.42146" lon="5.42156">
        <ele>420.39999389648</ele>
        <time>2021-04-05T12:14:07.000Z</time>
      </trkpt>
      <trkpt lat="46.42161" lon="5.42183">
        <ele>419.60000610352</ele>
        <time>2021-04-05T12:14:09.000Z</time>
      </trkpt>
      <trkpt lat="46.42168" lon="5.42197">
        <ele>419.39999389648</ele>
        <time>2021-04-05T12:14:10.000Z</time>
      </trkpt>
      <trkpt lat="46.42175" lon="5.42211">
        <ele>418.79998779297</ele>
        <time>2021-04-05T12:14:11.000Z</time>
      </trkpt>
      <trkpt lat="46.42182" lon="5.42225">
        <ele>418.20001220703</ele>
        <time>2021-04-05T12:14:12.000Z</time>
      </trkpt>
      <trkpt lat="46.42189" lon="5.42239">
        <ele>417.60000610352</ele>
        <time>2021-04-05T12:14:13.000Z</time>
      </trkpt>
      <trkpt lat="46.42195" lon="5.42254">
        <ele>417.20001220703</ele>
        <time>2021-04-05T12:14:14.000Z</time>
      </trkpt>
      <trkpt lat="46.422" lon="5.4227">
        <ele>416.60000610352</ele>
        <time>2021-04-05T12:14:15.000Z</time>
      </trkpt>
      <trkpt lat="46.42202" lon="5.42288">
        <ele>416</ele>
        <time>2021-04-05T12:14:16.000Z</time>
      </trkpt>
      <trkpt lat="46.42197" lon="5.42322">
        <ele>415.20001220703</ele>
        <time>2021-04-05T12:14:18.000Z</time>
      </trkpt>
      <trkpt lat="46.42191" lon="5.42338">
        <ele>414.79998779297</ele>
        <time>2021-04-05T12:14:19.000Z</time>
      </trkpt>
      <trkpt lat="46.42185" lon="5.42353">
        <ele>414.39999389648</ele>
        <time>2021-04-05T12:14:20.000Z</time>
      </trkpt>
      <trkpt lat="46.42178" lon="5.42367">
        <ele>414</ele>
        <time>2021-04-05T12:14:21.000Z</time>
      </trkpt>
      <trkpt lat="46.42172" lon="5.42382">
        <ele>413.39999389648</ele>
        <time>2021-04-05T12:14:22.000Z</time>
      </trkpt>
      <trkpt lat="46.42165" lon="5.42396">
        <ele>412.60000610352</ele>
        <time>2021-04-05T12:14:23.000Z</time>
      </trkpt>
      <trkpt lat="46.42159" lon="5.42409">
        <ele>412</ele>
        <time>2021-04-05T12:14:24.000Z</time>
      </trkpt>
      <trkpt lat="46.42152" lon="5.42422">
        <ele>411.20001220703</ele>
        <time>2021-04-05T12:14:25.000Z</time>
      </trkpt>
      <trkpt lat="46.42136" lon="5.42445">
        <ele>409.79998779297</ele>
        <time>2021-04-05T12:14:27.000Z</time>
      </trkpt>
      <trkpt lat="46.42119" lon="5.42467">
        <ele>408.39999389648</ele>
        <time>2021-04-05T12:14:29.000Z</time>
      </trkpt>
      <trkpt lat="46.42103" lon="5.42491">
        <ele>407</ele>
        <time>2021-04-05T12:14:31.000Z</time>
      </trkpt>
      <trkpt lat="46.42088" lon="5.42515">
        <ele>406.60000610352</ele>
        <time>2021-04-05T12:14:33.000Z</time>
      </trkpt>
      <trkpt lat="46.42081" lon="5.42528">
        <ele>406.39999389648</ele>
        <time>2021-04-05T12:14:34.000Z</time>
      </trkpt>
      <trkpt lat="46.42074" lon="5.42541">
        <ele>406</ele>
        <time>2021-04-05T12:14:35.000Z</time>
      </trkpt>
      <trkpt lat="46.42067" lon="5.42554">
        <ele>405.39999389648</ele>
        <time>2021-04-05T12:14:36.000Z</time>
      </trkpt>
      <trkpt lat="46.42053" lon="5.42581">
        <ele>404.60000610352</ele>
        <time>2021-04-05T12:14:38.000Z</time>
      </trkpt>
      <trkpt lat="46.42039" lon="5.42607">
        <ele>403.20001220703</ele>
        <time>2021-04-05T12:14:40.000Z</time>
      </trkpt>
      <trkpt lat="46.42033" lon="5.4262">
        <ele>402.60000610352</ele>
        <time>2021-04-05T12:14:41.000Z</time>
      </trkpt>
      <trkpt lat="46.42026" lon="5.42633">
        <ele>402</ele>
        <time>2021-04-05T12:14:42.000Z</time>
      </trkpt>
      <trkpt lat="46.42019" lon="5.42646">
        <ele>402</ele>
        <time>2021-04-05T12:14:43.000Z</time>
      </trkpt>
      <trkpt lat="46.42013" lon="5.42659">
        <ele>401.79998779297</ele>
        <time>2021-04-05T12:14:44.000Z</time>
      </trkpt>
      <trkpt lat="46.42" lon="5.42685">
        <ele>401</ele>
        <time>2021-04-05T12:14:46.000Z</time>
      </trkpt>
      <trkpt lat="46.41987" lon="5.42709">
        <ele>400.60000610352</ele>
        <time>2021-04-05T12:14:48.000Z</time>
      </trkpt>
      <trkpt lat="46.41967" lon="5.42744">
        <ele>400.20001220703</ele>
        <time>2021-04-05T12:14:51.000Z</time>
      </trkpt>
      <trkpt lat="46.41961" lon="5.42756">
        <ele>400</ele>
        <time>2021-04-05T12:14:52.000Z</time>
      </trkpt>
      <trkpt lat="46.41954" lon="5.42767">
        <ele>399.79998779297</ele>
        <time>2021-04-05T12:14:53.000Z</time>
      </trkpt>
      <trkpt lat="46.41939" lon="5.42788">
        <ele>399.60000610352</ele>
        <time>2021-04-05T12:14:55.000Z</time>
      </trkpt>
      <trkpt lat="46.41924" lon="5.4281">
        <ele>398.60000610352</ele>
        <time>2021-04-05T12:14:57.000Z</time>
      </trkpt>
      <trkpt lat="46.41916" lon="5.4282">
        <ele>398.20001220703</ele>
        <time>2021-04-05T12:14:58.000Z</time>
      </trkpt>
      <trkpt lat="46.419" lon="5.42842">
        <ele>397.60000610352</ele>
        <time>2021-04-05T12:15:00.000Z</time>
      </trkpt>
      <trkpt lat="46.41892" lon="5.42852">
        <ele>397.20001220703</ele>
        <time>2021-04-05T12:15:01.000Z</time>
      </trkpt>
      <trkpt lat="46.41876" lon="5.42874">
        <ele>396</ele>
        <time>2021-04-05T12:15:03.000Z</time>
      </trkpt>
      <trkpt lat="46.41868" lon="5.42885">
        <ele>395.20001220703</ele>
        <time>2021-04-05T12:15:04.000Z</time>
      </trkpt>
      <trkpt lat="46.4186" lon="5.42896">
        <ele>394.60000610352</ele>
        <time>2021-04-05T12:15:05.000Z</time>
      </trkpt>
      <trkpt lat="46.41852" lon="5.42907">
        <ele>394</ele>
        <time>2021-04-05T12:15:06.000Z</time>
      </trkpt>
      <trkpt lat="46.41844" lon="5.42917">
        <ele>393.39999389648</ele>
        <time>2021-04-05T12:15:07.000Z</time>
      </trkpt>
      <trkpt lat="46.41829" lon="5.42939">
        <ele>392.20001220703</ele>
        <time>2021-04-05T12:15:09.000Z</time>
      </trkpt>
      <trkpt lat="46.41814" lon="5.4296">
        <ele>390.20001220703</ele>
        <time>2021-04-05T12:15:11.000Z</time>
      </trkpt>
      <trkpt lat="46.41807" lon="5.4297">
        <ele>389.20001220703</ele>
        <time>2021-04-05T12:15:12.000Z</time>
      </trkpt>
      <trkpt lat="46.418" lon="5.4298">
        <ele>388.60000610352</ele>
        <time>2021-04-05T12:15:13.000Z</time>
      </trkpt>
      <trkpt lat="46.41793" lon="5.4299">
        <ele>388</ele>
        <time>2021-04-05T12:15:14.000Z</time>
      </trkpt>
      <trkpt lat="46.41785" lon="5.43">
        <ele>387.39999389648</ele>
        <time>2021-04-05T12:15:15.000Z</time>
      </trkpt>
      <trkpt lat="46.41778" lon="5.4301">
        <ele>387</ele>
        <time>2021-04-05T12:15:16.000Z</time>
      </trkpt>
      <trkpt lat="46.41771" lon="5.43021">
        <ele>386.39999389648</ele>
        <time>2021-04-05T12:15:17.000Z</time>
      </trkpt>
      <trkpt lat="46.41757" lon="5.43041">
        <ele>385.79998779297</ele>
        <time>2021-04-05T12:15:19.000Z</time>
      </trkpt>
      <trkpt lat="46.41743" lon="5.43061">
        <ele>385.39999389648</ele>
        <time>2021-04-05T12:15:21.000Z</time>
      </trkpt>
      <trkpt lat="46.41729" lon="5.4308">
        <ele>385.39999389648</ele>
        <time>2021-04-05T12:15:23.000Z</time>
      </trkpt>
      <trkpt lat="46.41716" lon="5.43099">
        <ele>385</ele>
        <time>2021-04-05T12:15:25.000Z</time>
      </trkpt>
      <trkpt lat="46.4171" lon="5.43108">
        <ele>384.60000610352</ele>
        <time>2021-04-05T12:15:26.000Z</time>
      </trkpt>
      <trkpt lat="46.41703" lon="5.43118">
        <ele>384.39999389648</ele>
        <time>2021-04-05T12:15:27.000Z</time>
      </trkpt>
      <trkpt lat="46.4169" lon="5.43136">
        <ele>383.79998779297</ele>
        <time>2021-04-05T12:15:29.000Z</time>
      </trkpt>
      <trkpt lat="46.41683" lon="5.43144">
        <ele>383.20001220703</ele>
        <time>2021-04-05T12:15:30.000Z</time>
      </trkpt>
      <trkpt lat="46.41676" lon="5.43152">
        <ele>383.20001220703</ele>
        <time>2021-04-05T12:15:31.000Z</time>
      </trkpt>
      <trkpt lat="46.41668" lon="5.43159">
        <ele>383</ele>
        <time>2021-04-05T12:15:32.000Z</time>
      </trkpt>
      <trkpt lat="46.41651" lon="5.4317">
        <ele>382.79998779297</ele>
        <time>2021-04-05T12:15:34.000Z</time>
      </trkpt>
      <trkpt lat="46.41643" lon="5.43174">
        <ele>382.79998779297</ele>
        <time>2021-04-05T12:15:35.000Z</time>
      </trkpt>
      <trkpt lat="46.41635" lon="5.43178">
        <ele>382.60000610352</ele>
        <time>2021-04-05T12:15:36.000Z</time>
      </trkpt>
      <trkpt lat="46.41619" lon="5.43182">
        <ele>382.39999389648</ele>
        <time>2021-04-05T12:15:38.000Z</time>
      </trkpt>
      <trkpt lat="46.41604" lon="5.43186">
        <ele>382</ele>
        <time>2021-04-05T12:15:40.000Z</time>
      </trkpt>
      <trkpt lat="46.41589" lon="5.43189">
        <ele>381.60000610352</ele>
        <time>2021-04-05T12:15:42.000Z</time>
      </trkpt>
      <trkpt lat="46.41575" lon="5.43192">
        <ele>381.39999389648</ele>
        <time>2021-04-05T12:15:44.000Z</time>
      </trkpt>
      <trkpt lat="46.41562" lon="5.43196">
        <ele>381.39999389648</ele>
        <time>2021-04-05T12:15:46.000Z</time>
      </trkpt>
      <trkpt lat="46.41555" lon="5.43197">
        <ele>381.39999389648</ele>
        <time>2021-04-05T12:15:47.000Z</time>
      </trkpt>
      <trkpt lat="46.41548" lon="5.43198">
        <ele>381.39999389648</ele>
        <time>2021-04-05T12:15:48.000Z</time>
      </trkpt>
      <trkpt lat="46.41541" lon="5.432">
        <ele>381.39999389648</ele>
        <time>2021-04-05T12:15:49.000Z</time>
      </trkpt>
      <trkpt lat="46.41534" lon="5.43201">
        <ele>381.39999389648</ele>
        <time>2021-04-05T12:15:50.000Z</time>
      </trkpt>
      <trkpt lat="46.41521" lon="5.43204">
        <ele>381.39999389648</ele>
        <time>2021-04-05T12:15:52.000Z</time>
      </trkpt>
      <trkpt lat="46.41508" lon="5.43207">
        <ele>381.60000610352</ele>
        <time>2021-04-05T12:15:54.000Z</time>
      </trkpt>
      <trkpt lat="46.41495" lon="5.4321">
        <ele>381.60000610352</ele>
        <time>2021-04-05T12:15:56.000Z</time>
      </trkpt>
      <trkpt lat="46.41482" lon="5.43212">
        <ele>382</ele>
        <time>2021-04-05T12:15:58.000Z</time>
      </trkpt>
      <trkpt lat="46.41475" lon="5.43213">
        <ele>382.60000610352</ele>
        <time>2021-04-05T12:15:59.000Z</time>
      </trkpt>
      <trkpt lat="46.41468" lon="5.43214">
        <ele>382.79998779297</ele>
        <time>2021-04-05T12:16:00.000Z</time>
      </trkpt>
      <trkpt lat="46.41454" lon="5.43216">
        <ele>382.79998779297</ele>
        <time>2021-04-05T12:16:02.000Z</time>
      </trkpt>
      <trkpt lat="46.4144" lon="5.43217">
        <ele>383</ele>
        <time>2021-04-05T12:16:04.000Z</time>
      </trkpt>
      <trkpt lat="46.41426" lon="5.43218">
        <ele>383</ele>
        <time>2021-04-05T12:16:06.000Z</time>
      </trkpt>
      <trkpt lat="46.41412" lon="5.43219">
        <ele>383</ele>
        <time>2021-04-05T12:16:08.000Z</time>
      </trkpt>
      <trkpt lat="46.41398" lon="5.4322">
        <ele>383</ele>
        <time>2021-04-05T12:16:10.000Z</time>
      </trkpt>
      <trkpt lat="46.41383" lon="5.43222">
        <ele>382.79998779297</ele>
        <time>2021-04-05T12:16:12.000Z</time>
      </trkpt>
      <trkpt lat="46.41375" lon="5.43224">
        <ele>382.79998779297</ele>
        <time>2021-04-05T12:16:13.000Z</time>
      </trkpt>
      <trkpt lat="46.41367" lon="5.43225">
        <ele>382.79998779297</ele>
        <time>2021-04-05T12:16:14.000Z</time>
      </trkpt>
      <trkpt lat="46.41351" lon="5.43228">
        <ele>382.60000610352</ele>
        <time>2021-04-05T12:16:16.000Z</time>
      </trkpt>
      <trkpt lat="46.41337" lon="5.43231">
        <ele>382.60000610352</ele>
        <time>2021-04-05T12:16:18.000Z</time>
      </trkpt>
      <trkpt lat="46.41329" lon="5.43233">
        <ele>382.39999389648</ele>
        <time>2021-04-05T12:16:19.000Z</time>
      </trkpt>
      <trkpt lat="46.41322" lon="5.43237">
        <ele>382.39999389648</ele>
        <time>2021-04-05T12:16:20.000Z</time>
      </trkpt>
      <trkpt lat="46.41309" lon="5.43247">
        <ele>382.20001220703</ele>
        <time>2021-04-05T12:16:22.000Z</time>
      </trkpt>
      <trkpt lat="46.41303" lon="5.43253">
        <ele>382.20001220703</ele>
        <time>2021-04-05T12:16:23.000Z</time>
      </trkpt>
      <trkpt lat="46.41297" lon="5.4326">
        <ele>382</ele>
        <time>2021-04-05T12:16:24.000Z</time>
      </trkpt>
      <trkpt lat="46.41292" lon="5.43268">
        <ele>382</ele>
        <time>2021-04-05T12:16:25.000Z</time>
      </trkpt>
      <trkpt lat="46.41287" lon="5.43276">
        <ele>382</ele>
        <time>2021-04-05T12:16:26.000Z</time>
      </trkpt>
      <trkpt lat="46.41282" lon="5.43285">
        <ele>382</ele>
        <time>2021-04-05T12:16:27.000Z</time>
      </trkpt>
      <trkpt lat="46.41277" lon="5.43295">
        <ele>382</ele>
        <time>2021-04-05T12:16:28.000Z</time>
      </trkpt>
      <trkpt lat="46.41273" lon="5.43305">
        <ele>381.79998779297</ele>
        <time>2021-04-05T12:16:29.000Z</time>
      </trkpt>
      <trkpt lat="46.4127" lon="5.43315">
        <ele>381.79998779297</ele>
        <time>2021-04-05T12:16:30.000Z</time>
      </trkpt>
      <trkpt lat="46.41266" lon="5.43325">
        <ele>381.79998779297</ele>
        <time>2021-04-05T12:16:31.000Z</time>
      </trkpt>
      <trkpt lat="46.41263" lon="5.43335">
        <ele>381.79998779297</ele>
        <time>2021-04-05T12:16:32.000Z</time>
      </trkpt>
      <trkpt lat="46.41255" lon="5.43356">
        <ele>381.20001220703</ele>
        <time>2021-04-05T12:16:34.000Z</time>
      </trkpt>
      <trkpt lat="46.41247" lon="5.43379">
        <ele>380.60000610352</ele>
        <time>2021-04-05T12:16:36.000Z</time>
      </trkpt>
      <trkpt lat="46.41238" lon="5.43398">
        <ele>380.39999389648</ele>
        <time>2021-04-05T12:16:38.000Z</time>
      </trkpt>
      <trkpt lat="46.41227" lon="5.43415">
        <ele>380.20001220703</ele>
        <time>2021-04-05T12:16:40.000Z</time>
      </trkpt>
      <trkpt lat="46.41215" lon="5.43432">
        <ele>380</ele>
        <time>2021-04-05T12:16:42.000Z</time>
      </trkpt>
      <trkpt lat="46.41203" lon="5.43446">
        <ele>379.79998779297</ele>
        <time>2021-04-05T12:16:44.000Z</time>
      </trkpt>
      <trkpt lat="46.4119" lon="5.43459">
        <ele>379.60000610352</ele>
        <time>2021-04-05T12:16:46.000Z</time>
      </trkpt>
      <trkpt lat="46.41175" lon="5.43469">
        <ele>379.39999389648</ele>
        <time>2021-04-05T12:16:48.000Z</time>
      </trkpt>
      <trkpt lat="46.41168" lon="5.43474">
        <ele>379.39999389648</ele>
        <time>2021-04-05T12:16:49.000Z</time>
      </trkpt>
      <trkpt lat="46.41161" lon="5.43479">
        <ele>379.39999389648</ele>
        <time>2021-04-05T12:16:50.000Z</time>
      </trkpt>
      <trkpt lat="46.41148" lon="5.43488">
        <ele>379.39999389648</ele>
        <time>2021-04-05T12:16:52.000Z</time>
      </trkpt>
      <trkpt lat="46.41134" lon="5.43497">
        <ele>379.20001220703</ele>
        <time>2021-04-05T12:16:54.000Z</time>
      </trkpt>
      <trkpt lat="46.41121" lon="5.43506">
        <ele>379.20001220703</ele>
        <time>2021-04-05T12:16:56.000Z</time>
      </trkpt>
      <trkpt lat="46.41107" lon="5.43515">
        <ele>379</ele>
        <time>2021-04-05T12:16:58.000Z</time>
      </trkpt>
      <trkpt lat="46.41101" lon="5.4352">
        <ele>378.79998779297</ele>
        <time>2021-04-05T12:16:59.000Z</time>
      </trkpt>
      <trkpt lat="46.41094" lon="5.43524">
        <ele>378.79998779297</ele>
        <time>2021-04-05T12:17:00.000Z</time>
      </trkpt>
      <trkpt lat="46.4108" lon="5.43533">
        <ele>378.79998779297</ele>
        <time>2021-04-05T12:17:02.000Z</time>
      </trkpt>
      <trkpt lat="46.41067" lon="5.43542">
        <ele>378.79998779297</ele>
        <time>2021-04-05T12:17:04.000Z</time>
      </trkpt>
      <trkpt lat="46.41054" lon="5.43551">
        <ele>378.79998779297</ele>
        <time>2021-04-05T12:17:06.000Z</time>
      </trkpt>
      <trkpt lat="46.4104" lon="5.43561">
        <ele>378.79998779297</ele>
        <time>2021-04-05T12:17:08.000Z</time>
      </trkpt>
      <trkpt lat="46.41026" lon="5.4357">
        <ele>378.79998779297</ele>
        <time>2021-04-05T12:17:10.000Z</time>
      </trkpt>
      <trkpt lat="46.41013" lon="5.43581">
        <ele>378.79998779297</ele>
        <time>2021-04-05T12:17:12.000Z</time>
      </trkpt>
      <trkpt lat="46.40999" lon="5.43591">
        <ele>378.79998779297</ele>
        <time>2021-04-05T12:17:14.000Z</time>
      </trkpt>
      <trkpt lat="46.40986" lon="5.43601">
        <ele>379</ele>
        <time>2021-04-05T12:17:16.000Z</time>
      </trkpt>
      <trkpt lat="46.40979" lon="5.43606">
        <ele>379</ele>
        <time>2021-04-05T12:17:17.000Z</time>
      </trkpt>
      <trkpt lat="46.40972" lon="5.43611">
        <ele>379.20001220703</ele>
        <time>2021-04-05T12:17:18.000Z</time>
      </trkpt>
      <trkpt lat="46.40958" lon="5.43621">
        <ele>379.60000610352</ele>
        <time>2021-04-05T12:17:20.000Z</time>
      </trkpt>
      <trkpt lat="46.40944" lon="5.4363">
        <ele>379.79998779297</ele>
        <time>2021-04-05T12:17:22.000Z</time>
      </trkpt>
      <trkpt lat="46.40937" lon="5.43634">
        <ele>379.79998779297</ele>
        <time>2021-04-05T12:17:23.000Z</time>
      </trkpt>
      <trkpt lat="46.40929" lon="5.43637">
        <ele>379.79998779297</ele>
        <time>2021-04-05T12:17:24.000Z</time>
      </trkpt>
      <trkpt lat="46.40914" lon="5.43644">
        <ele>379.79998779297</ele>
        <time>2021-04-05T12:17:26.000Z</time>
      </trkpt>
      <trkpt lat="46.40898" lon="5.4365">
        <ele>379.79998779297</ele>
        <time>2021-04-05T12:17:28.000Z</time>
      </trkpt>
      <trkpt lat="46.40882" lon="5.43656">
        <ele>379.79998779297</ele>
        <time>2021-04-05T12:17:30.000Z</time>
      </trkpt>
      <trkpt lat="46.40875" lon="5.43659">
        <ele>379.79998779297</ele>
        <time>2021-04-05T12:17:31.000Z</time>
      </trkpt>
      <trkpt lat="46.40867" lon="5.43662">
        <ele>379.79998779297</ele>
        <time>2021-04-05T12:17:32.000Z</time>
      </trkpt>
      <trkpt lat="46.40851" lon="5.43667">
        <ele>379.60000610352</ele>
        <time>2021-04-05T12:17:34.000Z</time>
      </trkpt>
      <trkpt lat="46.40835" lon="5.4367">
        <ele>379.39999389648</ele>
        <time>2021-04-05T12:17:36.000Z</time>
      </trkpt>
      <trkpt lat="46.40827" lon="5.43673">
        <ele>379.39999389648</ele>
        <time>2021-04-05T12:17:37.000Z</time>
      </trkpt>
      <trkpt lat="46.4082" lon="5.43675">
        <ele>379.39999389648</ele>
        <time>2021-04-05T12:17:38.000Z</time>
      </trkpt>
      <trkpt lat="46.40812" lon="5.43676">
        <ele>379.20001220703</ele>
        <time>2021-04-05T12:17:39.000Z</time>
      </trkpt>
      <trkpt lat="46.40805" lon="5.43677">
        <ele>379.20001220703</ele>
        <time>2021-04-05T12:17:40.000Z</time>
      </trkpt>
      <trkpt lat="46.40793" lon="5.43676">
        <ele>379</ele>
        <time>2021-04-05T12:17:42.000Z</time>
      </trkpt>
      <trkpt lat="46.40779" lon="5.43676">
        <ele>378.79998779297</ele>
        <time>2021-04-05T12:17:44.000Z</time>
      </trkpt>
      <trkpt lat="46.40766" lon="5.43675">
        <ele>378.60000610352</ele>
        <time>2021-04-05T12:17:46.000Z</time>
      </trkpt>
      <trkpt lat="46.4076" lon="5.43674">
        <ele>378.39999389648</ele>
        <time>2021-04-05T12:17:47.000Z</time>
      </trkpt>
      <trkpt lat="46.40754" lon="5.43673">
        <ele>378.39999389648</ele>
        <time>2021-04-05T12:17:48.000Z</time>
      </trkpt>
      <trkpt lat="46.40742" lon="5.43671">
        <ele>378.39999389648</ele>
        <time>2021-04-05T12:17:50.000Z</time>
      </trkpt>
      <trkpt lat="46.4073" lon="5.43668">
        <ele>378.39999389648</ele>
        <time>2021-04-05T12:17:52.000Z</time>
      </trkpt>
      <trkpt lat="46.40717" lon="5.43665">
        <ele>378.79998779297</ele>
        <time>2021-04-05T12:17:54.000Z</time>
      </trkpt>
      <trkpt lat="46.40705" lon="5.43658">
        <ele>379.20001220703</ele>
        <time>2021-04-05T12:17:56.000Z</time>
      </trkpt>
      <trkpt lat="46.40699" lon="5.43656">
        <ele>379.20001220703</ele>
        <time>2021-04-05T12:17:57.000Z</time>
      </trkpt>
      <trkpt lat="46.40693" lon="5.43654">
        <ele>379.39999389648</ele>
        <time>2021-04-05T12:17:58.000Z</time>
      </trkpt>
      <trkpt lat="46.4068" lon="5.43651">
        <ele>379.39999389648</ele>
        <time>2021-04-05T12:18:00.000Z</time>
      </trkpt>
      <trkpt lat="46.40665" lon="5.4365">
        <ele>379.39999389648</ele>
        <time>2021-04-05T12:18:02.000Z</time>
      </trkpt>
      <trkpt lat="46.40657" lon="5.4365">
        <ele>379.39999389648</ele>
        <time>2021-04-05T12:18:03.000Z</time>
      </trkpt>
      <trkpt lat="46.4065" lon="5.4365">
        <ele>379.39999389648</ele>
        <time>2021-04-05T12:18:04.000Z</time>
      </trkpt>
      <trkpt lat="46.40632" lon="5.43653">
        <ele>379.39999389648</ele>
        <time>2021-04-05T12:18:06.000Z</time>
      </trkpt>
      <trkpt lat="46.40613" lon="5.43658">
        <ele>379.20001220703</ele>
        <time>2021-04-05T12:18:08.000Z</time>
      </trkpt>
      <trkpt lat="46.40604" lon="5.43659">
        <ele>379</ele>
        <time>2021-04-05T12:18:09.000Z</time>
      </trkpt>
      <trkpt lat="46.40596" lon="5.43659">
        <ele>378.79998779297</ele>
        <time>2021-04-05T12:18:10.000Z</time>
      </trkpt>
      <trkpt lat="46.40578" lon="5.43663">
        <ele>377.60000610352</ele>
        <time>2021-04-05T12:18:12.000Z</time>
      </trkpt>
      <trkpt lat="46.40561" lon="5.43667">
        <ele>376.79998779297</ele>
        <time>2021-04-05T12:18:14.000Z</time>
      </trkpt>
      <trkpt lat="46.40553" lon="5.43669">
        <ele>376</ele>
        <time>2021-04-05T12:18:15.000Z</time>
      </trkpt>
      <trkpt lat="46.40545" lon="5.4367">
        <ele>375.60000610352</ele>
        <time>2021-04-05T12:18:16.000Z</time>
      </trkpt>
      <trkpt lat="46.40529" lon="5.43675">
        <ele>375.20001220703</ele>
        <time>2021-04-05T12:18:18.000Z</time>
      </trkpt>
      <trkpt lat="46.40516" lon="5.43681">
        <ele>374.79998779297</ele>
        <time>2021-04-05T12:18:20.000Z</time>
      </trkpt>
      <trkpt lat="46.40509" lon="5.43686">
        <ele>374.79998779297</ele>
        <time>2021-04-05T12:18:21.000Z</time>
      </trkpt>
      <trkpt lat="46.40502" lon="5.43691">
        <ele>374.79998779297</ele>
        <time>2021-04-05T12:18:22.000Z</time>
      </trkpt>
      <trkpt lat="46.40489" lon="5.43703">
        <ele>374.79998779297</ele>
        <time>2021-04-05T12:18:24.000Z</time>
      </trkpt>
      <trkpt lat="46.40476" lon="5.43719">
        <ele>374.79998779297</ele>
        <time>2021-04-05T12:18:26.000Z</time>
      </trkpt>
      <trkpt lat="46.40464" lon="5.43736">
        <ele>374.79998779297</ele>
        <time>2021-04-05T12:18:28.000Z</time>
      </trkpt>
      <trkpt lat="46.40453" lon="5.4375">
        <ele>375</ele>
        <time>2021-04-05T12:18:30.000Z</time>
      </trkpt>
      <trkpt lat="46.40442" lon="5.43764">
        <ele>375.20001220703</ele>
        <time>2021-04-05T12:18:32.000Z</time>
      </trkpt>
      <trkpt lat="46.4043" lon="5.4378">
        <ele>375.39999389648</ele>
        <time>2021-04-05T12:18:34.000Z</time>
      </trkpt>
      <trkpt lat="46.40424" lon="5.43788">
        <ele>375.39999389648</ele>
        <time>2021-04-05T12:18:35.000Z</time>
      </trkpt>
      <trkpt lat="46.40417" lon="5.43797">
        <ele>375.39999389648</ele>
        <time>2021-04-05T12:18:36.000Z</time>
      </trkpt>
      <trkpt lat="46.40405" lon="5.43813">
        <ele>375.60000610352</ele>
        <time>2021-04-05T12:18:38.000Z</time>
      </trkpt>
      <trkpt lat="46.404" lon="5.43819">
        <ele>375.39999389648</ele>
        <time>2021-04-05T12:18:39.000Z</time>
      </trkpt>
      <trkpt lat="46.40394" lon="5.43825">
        <ele>375.39999389648</ele>
        <time>2021-04-05T12:18:40.000Z</time>
      </trkpt>
      <trkpt lat="46.40388" lon="5.43832">
        <ele>375.39999389648</ele>
        <time>2021-04-05T12:18:41.000Z</time>
      </trkpt>
      <trkpt lat="46.40383" lon="5.43839">
        <ele>375.39999389648</ele>
        <time>2021-04-05T12:18:42.000Z</time>
      </trkpt>
      <trkpt lat="46.40372" lon="5.43853">
        <ele>375.39999389648</ele>
        <time>2021-04-05T12:18:44.000Z</time>
      </trkpt>
      <trkpt lat="46.40361" lon="5.43868">
        <ele>375.39999389648</ele>
        <time>2021-04-05T12:18:46.000Z</time>
      </trkpt>
      <trkpt lat="46.4035" lon="5.43882">
        <ele>375.39999389648</ele>
        <time>2021-04-05T12:18:48.000Z</time>
      </trkpt>
      <trkpt lat="46.40345" lon="5.43889">
        <ele>375.39999389648</ele>
        <time>2021-04-05T12:18:49.000Z</time>
      </trkpt>
      <trkpt lat="46.4034" lon="5.43896">
        <ele>375.39999389648</ele>
        <time>2021-04-05T12:18:50.000Z</time>
      </trkpt>
      <trkpt lat="46.4033" lon="5.4391">
        <ele>375.39999389648</ele>
        <time>2021-04-05T12:18:52.000Z</time>
      </trkpt>
      <trkpt lat="46.4032" lon="5.43925">
        <ele>375.39999389648</ele>
        <time>2021-04-05T12:18:54.000Z</time>
      </trkpt>
      <trkpt lat="46.40315" lon="5.43934">
        <ele>375.39999389648</ele>
        <time>2021-04-05T12:18:55.000Z</time>
      </trkpt>
      <trkpt lat="46.4031" lon="5.43941">
        <ele>375.39999389648</ele>
        <time>2021-04-05T12:18:56.000Z</time>
      </trkpt>
      <trkpt lat="46.403" lon="5.43954">
        <ele>375.39999389648</ele>
        <time>2021-04-05T12:18:58.000Z</time>
      </trkpt>
      <trkpt lat="46.40289" lon="5.43969">
        <ele>375.60000610352</ele>
        <time>2021-04-05T12:19:00.000Z</time>
      </trkpt>
      <trkpt lat="46.40279" lon="5.43983">
        <ele>375.60000610352</ele>
        <time>2021-04-05T12:19:02.000Z</time>
      </trkpt>
      <trkpt lat="46.40273" lon="5.4399">
        <ele>375.79998779297</ele>
        <time>2021-04-05T12:19:03.000Z</time>
      </trkpt>
      <trkpt lat="46.40268" lon="5.43997">
        <ele>375.79998779297</ele>
        <time>2021-04-05T12:19:04.000Z</time>
      </trkpt>
      <trkpt lat="46.40256" lon="5.44011">
        <ele>375.79998779297</ele>
        <time>2021-04-05T12:19:06.000Z</time>
      </trkpt>
      <trkpt lat="46.40244" lon="5.44024">
        <ele>375.79998779297</ele>
        <time>2021-04-05T12:19:08.000Z</time>
      </trkpt>
      <trkpt lat="46.40239" lon="5.4403">
        <ele>375.60000610352</ele>
        <time>2021-04-05T12:19:09.000Z</time>
      </trkpt>
      <trkpt lat="46.40234" lon="5.44036">
        <ele>375.79998779297</ele>
        <time>2021-04-05T12:19:10.000Z</time>
      </trkpt>
      <trkpt lat="46.4023" lon="5.44042">
        <ele>375.79998779297</ele>
        <time>2021-04-05T12:19:11.000Z</time>
      </trkpt>
      <trkpt lat="46.40226" lon="5.44049">
        <ele>375.79998779297</ele>
        <time>2021-04-05T12:19:12.000Z</time>
      </trkpt>
      <trkpt lat="46.40223" lon="5.44058">
        <ele>375.79998779297</ele>
        <time>2021-04-05T12:19:13.000Z</time>
      </trkpt>
      <trkpt lat="46.4022" lon="5.44067">
        <ele>376</ele>
        <time>2021-04-05T12:19:14.000Z</time>
      </trkpt>
      <trkpt lat="46.40217" lon="5.44089">
        <ele>375.79998779297</ele>
        <time>2021-04-05T12:19:16.000Z</time>
      </trkpt>
      <trkpt lat="46.40216" lon="5.441">
        <ele>375.79998779297</ele>
        <time>2021-04-05T12:19:17.000Z</time>
      </trkpt>
      <trkpt lat="46.40215" lon="5.44113">
        <ele>375.79998779297</ele>
        <time>2021-04-05T12:19:18.000Z</time>
      </trkpt>
      <trkpt lat="46.40215" lon="5.44139">
        <ele>375.60000610352</ele>
        <time>2021-04-05T12:19:20.000Z</time>
      </trkpt>
      <trkpt lat="46.40215" lon="5.44151">
        <ele>375.20001220703</ele>
        <time>2021-04-05T12:19:21.000Z</time>
      </trkpt>
      <trkpt lat="46.40217" lon="5.44164">
        <ele>375.20001220703</ele>
        <time>2021-04-05T12:19:22.000Z</time>
      </trkpt>
      <trkpt lat="46.40221" lon="5.4419">
        <ele>374.79998779297</ele>
        <time>2021-04-05T12:19:24.000Z</time>
      </trkpt>
      <trkpt lat="46.40223" lon="5.44202">
        <ele>374.39999389648</ele>
        <time>2021-04-05T12:19:25.000Z</time>
      </trkpt>
      <trkpt lat="46.40225" lon="5.44214">
        <ele>374.20001220703</ele>
        <time>2021-04-05T12:19:26.000Z</time>
      </trkpt>
      <trkpt lat="46.40227" lon="5.44226">
        <ele>373.79998779297</ele>
        <time>2021-04-05T12:19:27.000Z</time>
      </trkpt>
      <trkpt lat="46.40229" lon="5.44239">
        <ele>373.39999389648</ele>
        <time>2021-04-05T12:19:28.000Z</time>
      </trkpt>
      <trkpt lat="46.40232" lon="5.44263">
        <ele>372.60000610352</ele>
        <time>2021-04-05T12:19:30.000Z</time>
      </trkpt>
      <trkpt lat="46.40235" lon="5.44288">
        <ele>372.20001220703</ele>
        <time>2021-04-05T12:19:32.000Z</time>
      </trkpt>
      <trkpt lat="46.40236" lon="5.44301">
        <ele>371.79998779297</ele>
        <time>2021-04-05T12:19:33.000Z</time>
      </trkpt>
      <trkpt lat="46.40235" lon="5.44314">
        <ele>371.60000610352</ele>
        <time>2021-04-05T12:19:34.000Z</time>
      </trkpt>
      <trkpt lat="46.40232" lon="5.44338">
        <ele>371.39999389648</ele>
        <time>2021-04-05T12:19:36.000Z</time>
      </trkpt>
      <trkpt lat="46.40228" lon="5.4435">
        <ele>371.39999389648</ele>
        <time>2021-04-05T12:19:37.000Z</time>
      </trkpt>
      <trkpt lat="46.40223" lon="5.44361">
        <ele>371.39999389648</ele>
        <time>2021-04-05T12:19:38.000Z</time>
      </trkpt>
      <trkpt lat="46.40212" lon="5.44381">
        <ele>371</ele>
        <time>2021-04-05T12:19:40.000Z</time>
      </trkpt>
      <trkpt lat="46.402" lon="5.444">
        <ele>370.20001220703</ele>
        <time>2021-04-05T12:19:42.000Z</time>
      </trkpt>
      <trkpt lat="46.40186" lon="5.44418">
        <ele>370</ele>
        <time>2021-04-05T12:19:44.000Z</time>
      </trkpt>
      <trkpt lat="46.40172" lon="5.44433">
        <ele>369.60000610352</ele>
        <time>2021-04-05T12:19:46.000Z</time>
      </trkpt>
      <trkpt lat="46.40158" lon="5.44446">
        <ele>369.39999389648</ele>
        <time>2021-04-05T12:19:48.000Z</time>
      </trkpt>
      <trkpt lat="46.40143" lon="5.4446">
        <ele>369.20001220703</ele>
        <time>2021-04-05T12:19:50.000Z</time>
      </trkpt>
      <trkpt lat="46.40129" lon="5.44473">
        <ele>368.79998779297</ele>
        <time>2021-04-05T12:19:52.000Z</time>
      </trkpt>
      <trkpt lat="46.40122" lon="5.44479">
        <ele>368.60000610352</ele>
        <time>2021-04-05T12:19:53.000Z</time>
      </trkpt>
      <trkpt lat="46.40115" lon="5.44486">
        <ele>368.39999389648</ele>
        <time>2021-04-05T12:19:54.000Z</time>
      </trkpt>
      <trkpt lat="46.40101" lon="5.44498">
        <ele>368.20001220703</ele>
        <time>2021-04-05T12:19:56.000Z</time>
      </trkpt>
      <trkpt lat="46.40087" lon="5.4451">
        <ele>368</ele>
        <time>2021-04-05T12:19:58.000Z</time>
      </trkpt>
      <trkpt lat="46.40079" lon="5.44515">
        <ele>367.79998779297</ele>
        <time>2021-04-05T12:19:59.000Z</time>
      </trkpt>
      <trkpt lat="46.40072" lon="5.4452">
        <ele>367.60000610352</ele>
        <time>2021-04-05T12:20:00.000Z</time>
      </trkpt>
      <trkpt lat="46.40065" lon="5.44525">
        <ele>367.60000610352</ele>
        <time>2021-04-05T12:20:01.000Z</time>
      </trkpt>
      <trkpt lat="46.40058" lon="5.44529">
        <ele>367.60000610352</ele>
        <time>2021-04-05T12:20:02.000Z</time>
      </trkpt>
      <trkpt lat="46.40045" lon="5.44538">
        <ele>367.60000610352</ele>
        <time>2021-04-05T12:20:04.000Z</time>
      </trkpt>
      <trkpt lat="46.40031" lon="5.44545">
        <ele>367.60000610352</ele>
        <time>2021-04-05T12:20:06.000Z</time>
      </trkpt>
      <trkpt lat="46.40018" lon="5.44553">
        <ele>367.60000610352</ele>
        <time>2021-04-05T12:20:08.000Z</time>
      </trkpt>
      <trkpt lat="46.40011" lon="5.44556">
        <ele>367.60000610352</ele>
        <time>2021-04-05T12:20:09.000Z</time>
      </trkpt>
      <trkpt lat="46.40005" lon="5.4456">
        <ele>367.60000610352</ele>
        <time>2021-04-05T12:20:10.000Z</time>
      </trkpt>
      <trkpt lat="46.39992" lon="5.44567">
        <ele>367.79998779297</ele>
        <time>2021-04-05T12:20:12.000Z</time>
      </trkpt>
      <trkpt lat="46.39979" lon="5.44575">
        <ele>368.20001220703</ele>
        <time>2021-04-05T12:20:14.000Z</time>
      </trkpt>
      <trkpt lat="46.39966" lon="5.44582">
        <ele>368.39999389648</ele>
        <time>2021-04-05T12:20:16.000Z</time>
      </trkpt>
      <trkpt lat="46.39953" lon="5.44589">
        <ele>368.79998779297</ele>
        <time>2021-04-05T12:20:18.000Z</time>
      </trkpt>
      <trkpt lat="46.39946" lon="5.44592">
        <ele>368.79998779297</ele>
        <time>2021-04-05T12:20:19.000Z</time>
      </trkpt>
      <trkpt lat="46.39939" lon="5.44596">
        <ele>369</ele>
        <time>2021-04-05T12:20:20.000Z</time>
      </trkpt>
      <trkpt lat="46.39927" lon="5.44605">
        <ele>369</ele>
        <time>2021-04-05T12:20:22.000Z</time>
      </trkpt>
      <trkpt lat="46.39914" lon="5.44617">
        <ele>368.79998779297</ele>
        <time>2021-04-05T12:20:24.000Z</time>
      </trkpt>
      <trkpt lat="46.39908" lon="5.44625">
        <ele>368.79998779297</ele>
        <time>2021-04-05T12:20:25.000Z</time>
      </trkpt>
      <trkpt lat="46.39903" lon="5.44632">
        <ele>368.79998779297</ele>
        <time>2021-04-05T12:20:26.000Z</time>
      </trkpt>
      <trkpt lat="46.39892" lon="5.44649">
        <ele>368.79998779297</ele>
        <time>2021-04-05T12:20:28.000Z</time>
      </trkpt>
      <trkpt lat="46.39882" lon="5.44666">
        <ele>368.20001220703</ele>
        <time>2021-04-05T12:20:30.000Z</time>
      </trkpt>
      <trkpt lat="46.39877" lon="5.44675">
        <ele>368.20001220703</ele>
        <time>2021-04-05T12:20:31.000Z</time>
      </trkpt>
      <trkpt lat="46.39872" lon="5.44684">
        <ele>368</ele>
        <time>2021-04-05T12:20:32.000Z</time>
      </trkpt>
      <trkpt lat="46.39862" lon="5.44701">
        <ele>367.79998779297</ele>
        <time>2021-04-05T12:20:34.000Z</time>
      </trkpt>
      <trkpt lat="46.39852" lon="5.44718">
        <ele>367.60000610352</ele>
        <time>2021-04-05T12:20:36.000Z</time>
      </trkpt>
      <trkpt lat="46.39847" lon="5.44727">
        <ele>367.60000610352</ele>
        <time>2021-04-05T12:20:37.000Z</time>
      </trkpt>
      <trkpt lat="46.39842" lon="5.44735">
        <ele>367.39999389648</ele>
        <time>2021-04-05T12:20:38.000Z</time>
      </trkpt>
      <trkpt lat="46.39832" lon="5.44752">
        <ele>367.20001220703</ele>
        <time>2021-04-05T12:20:40.000Z</time>
      </trkpt>
      <trkpt lat="46.39822" lon="5.44769">
        <ele>366.79998779297</ele>
        <time>2021-04-05T12:20:42.000Z</time>
      </trkpt>
      <trkpt lat="46.39812" lon="5.44786">
        <ele>366.39999389648</ele>
        <time>2021-04-05T12:20:44.000Z</time>
      </trkpt>
      <trkpt lat="46.39807" lon="5.44794">
        <ele>366.20001220703</ele>
        <time>2021-04-05T12:20:45.000Z</time>
      </trkpt>
      <trkpt lat="46.39802" lon="5.44802">
        <ele>366.20001220703</ele>
        <time>2021-04-05T12:20:46.000Z</time>
      </trkpt>
      <trkpt lat="46.39792" lon="5.44818">
        <ele>366</ele>
        <time>2021-04-05T12:20:48.000Z</time>
      </trkpt>
      <trkpt lat="46.39781" lon="5.44834">
        <ele>366</ele>
        <time>2021-04-05T12:20:50.000Z</time>
      </trkpt>
      <trkpt lat="46.3977" lon="5.44851">
        <ele>365.79998779297</ele>
        <time>2021-04-05T12:20:52.000Z</time>
      </trkpt>
      <trkpt lat="46.39764" lon="5.4486">
        <ele>365.79998779297</ele>
        <time>2021-04-05T12:20:53.000Z</time>
      </trkpt>
      <trkpt lat="46.39759" lon="5.44869">
        <ele>365.60000610352</ele>
        <time>2021-04-05T12:20:54.000Z</time>
      </trkpt>
      <trkpt lat="46.39747" lon="5.44886">
        <ele>365.60000610352</ele>
        <time>2021-04-05T12:20:56.000Z</time>
      </trkpt>
      <trkpt lat="46.39734" lon="5.44904">
        <ele>365.39999389648</ele>
        <time>2021-04-05T12:20:58.000Z</time>
      </trkpt>
      <trkpt lat="46.39716" lon="5.44932">
        <ele>364.60000610352</ele>
        <time>2021-04-05T12:21:01.000Z</time>
      </trkpt>
      <trkpt lat="46.39705" lon="5.44951">
        <ele>363.79998779297</ele>
        <time>2021-04-05T12:21:03.000Z</time>
      </trkpt>
      <trkpt lat="46.397" lon="5.44962">
        <ele>363.39999389648</ele>
        <time>2021-04-05T12:21:04.000Z</time>
      </trkpt>
      <trkpt lat="46.39692" lon="5.44983">
        <ele>362.60000610352</ele>
        <time>2021-04-05T12:21:06.000Z</time>
      </trkpt>
      <trkpt lat="46.39689" lon="5.44994">
        <ele>362.39999389648</ele>
        <time>2021-04-05T12:21:07.000Z</time>
      </trkpt>
      <trkpt lat="46.39682" lon="5.45016">
        <ele>362</ele>
        <time>2021-04-05T12:21:09.000Z</time>
      </trkpt>
      <trkpt lat="46.39675" lon="5.45037">
        <ele>361.79998779297</ele>
        <time>2021-04-05T12:21:11.000Z</time>
      </trkpt>
      <trkpt lat="46.39671" lon="5.45047">
        <ele>361.79998779297</ele>
        <time>2021-04-05T12:21:12.000Z</time>
      </trkpt>
      <trkpt lat="46.39667" lon="5.45058">
        <ele>361.79998779297</ele>
        <time>2021-04-05T12:21:13.000Z</time>
      </trkpt>
      <trkpt lat="46.39661" lon="5.45078">
        <ele>361.79998779297</ele>
        <time>2021-04-05T12:21:15.000Z</time>
      </trkpt>
      <trkpt lat="46.39654" lon="5.45098">
        <ele>361.79998779297</ele>
        <time>2021-04-05T12:21:17.000Z</time>
      </trkpt>
      <trkpt lat="46.39651" lon="5.45108">
        <ele>361.79998779297</ele>
        <time>2021-04-05T12:21:18.000Z</time>
      </trkpt>
      <trkpt lat="46.39645" lon="5.45127">
        <ele>361.79998779297</ele>
        <time>2021-04-05T12:21:20.000Z</time>
      </trkpt>
      <trkpt lat="46.39638" lon="5.45144">
        <ele>362</ele>
        <time>2021-04-05T12:21:22.000Z</time>
      </trkpt>
      <trkpt lat="46.39634" lon="5.45151">
        <ele>362</ele>
        <time>2021-04-05T12:21:23.000Z</time>
      </trkpt>
      <trkpt lat="46.39631" lon="5.45159">
        <ele>362</ele>
        <time>2021-04-05T12:21:24.000Z</time>
      </trkpt>
      <trkpt lat="46.39629" lon="5.45164">
        <ele>362</ele>
        <time>2021-04-05T12:21:25.000Z</time>
      </trkpt>
      <trkpt lat="46.3963" lon="5.45174">
        <ele>362</ele>
        <time>2021-04-05T12:21:27.000Z</time>
      </trkpt>
      <trkpt lat="46.39632" lon="5.45178">
        <ele>362.20001220703</ele>
        <time>2021-04-05T12:21:28.000Z</time>
      </trkpt>
      <trkpt lat="46.39641" lon="5.45185">
        <ele>362.20001220703</ele>
        <time>2021-04-05T12:21:30.000Z</time>
      </trkpt>
      <trkpt lat="46.39646" lon="5.45189">
        <ele>362.20001220703</ele>
        <time>2021-04-05T12:21:31.000Z</time>
      </trkpt>
      <trkpt lat="46.39651" lon="5.45192">
        <ele>362.39999389648</ele>
        <time>2021-04-05T12:21:32.000Z</time>
      </trkpt>
      <trkpt lat="46.39663" lon="5.452">
        <ele>362.60000610352</ele>
        <time>2021-04-05T12:21:34.000Z</time>
      </trkpt>
      <trkpt lat="46.39675" lon="5.45207">
        <ele>362.60000610352</ele>
        <time>2021-04-05T12:21:36.000Z</time>
      </trkpt>
      <trkpt lat="46.39687" lon="5.45215">
        <ele>362.79998779297</ele>
        <time>2021-04-05T12:21:38.000Z</time>
      </trkpt>
      <trkpt lat="46.39699" lon="5.45223">
        <ele>362.79998779297</ele>
        <time>2021-04-05T12:21:40.000Z</time>
      </trkpt>
      <trkpt lat="46.39711" lon="5.45231">
        <ele>363</ele>
        <time>2021-04-05T12:21:42.000Z</time>
      </trkpt>
      <trkpt lat="46.39723" lon="5.4524">
        <ele>363</ele>
        <time>2021-04-05T12:21:44.000Z</time>
      </trkpt>
      <trkpt lat="46.39733" lon="5.45248">
        <ele>363</ele>
        <time>2021-04-05T12:21:46.000Z</time>
      </trkpt>
      <trkpt lat="46.39744" lon="5.45255">
        <ele>363</ele>
        <time>2021-04-05T12:21:48.000Z</time>
      </trkpt>
      <trkpt lat="46.39755" lon="5.45261">
        <ele>363</ele>
        <time>2021-04-05T12:21:50.000Z</time>
      </trkpt>
      <trkpt lat="46.39771" lon="5.4527">
        <ele>363.20001220703</ele>
        <time>2021-04-05T12:21:53.000Z</time>
      </trkpt>
      <trkpt lat="46.39779" lon="5.45276">
        <ele>363.79998779297</ele>
        <time>2021-04-05T12:21:55.000Z</time>
      </trkpt>
      <trkpt lat="46.39783" lon="5.45279">
        <ele>364</ele>
        <time>2021-04-05T12:21:56.000Z</time>
      </trkpt>
      <trkpt lat="46.39786" lon="5.45283">
        <ele>364.20001220703</ele>
        <time>2021-04-05T12:21:57.000Z</time>
      </trkpt>
      <trkpt lat="46.39789" lon="5.45287">
        <ele>364.39999389648</ele>
        <time>2021-04-05T12:21:58.000Z</time>
      </trkpt>
      <trkpt lat="46.39799" lon="5.45294">
        <ele>364.60000610352</ele>
        <time>2021-04-05T12:22:00.000Z</time>
      </trkpt>
      <trkpt lat="46.39805" lon="5.45296">
        <ele>364.79998779297</ele>
        <time>2021-04-05T12:22:01.000Z</time>
      </trkpt>
      <trkpt lat="46.39812" lon="5.45297">
        <ele>364.79998779297</ele>
        <time>2021-04-05T12:22:02.000Z</time>
      </trkpt>
      <trkpt lat="46.39826" lon="5.45297">
        <ele>365</ele>
        <time>2021-04-05T12:22:04.000Z</time>
      </trkpt>
      <trkpt lat="46.39833" lon="5.45297">
        <ele>365</ele>
        <time>2021-04-05T12:22:05.000Z</time>
      </trkpt>
      <trkpt lat="46.39849" lon="5.45295">
        <ele>365</ele>
        <time>2021-04-05T12:22:07.000Z</time>
      </trkpt>
      <trkpt lat="46.39865" lon="5.45294">
        <ele>365</ele>
        <time>2021-04-05T12:22:09.000Z</time>
      </trkpt>
      <trkpt lat="46.39881" lon="5.45291">
        <ele>365</ele>
        <time>2021-04-05T12:22:11.000Z</time>
      </trkpt>
      <trkpt lat="46.39897" lon="5.45289">
        <ele>364</ele>
        <time>2021-04-05T12:22:13.000Z</time>
      </trkpt>
      <trkpt lat="46.39905" lon="5.45288">
        <ele>363.60000610352</ele>
        <time>2021-04-05T12:22:14.000Z</time>
      </trkpt>
      <trkpt lat="46.39913" lon="5.45287">
        <ele>363.20001220703</ele>
        <time>2021-04-05T12:22:15.000Z</time>
      </trkpt>
      <trkpt lat="46.39936" lon="5.45283">
        <ele>362.79998779297</ele>
        <time>2021-04-05T12:22:18.000Z</time>
      </trkpt>
      <trkpt lat="46.39951" lon="5.4528">
        <ele>362.79998779297</ele>
        <time>2021-04-05T12:22:20.000Z</time>
      </trkpt>
      <trkpt lat="46.39959" lon="5.45279">
        <ele>362.60000610352</ele>
        <time>2021-04-05T12:22:21.000Z</time>
      </trkpt>
      <trkpt lat="46.39967" lon="5.45279">
        <ele>362.60000610352</ele>
        <time>2021-04-05T12:22:22.000Z</time>
      </trkpt>
      <trkpt lat="46.39982" lon="5.45278">
        <ele>362.60000610352</ele>
        <time>2021-04-05T12:22:24.000Z</time>
      </trkpt>
      <trkpt lat="46.39998" lon="5.45276">
        <ele>362.60000610352</ele>
        <time>2021-04-05T12:22:26.000Z</time>
      </trkpt>
      <trkpt lat="46.40021" lon="5.45273">
        <ele>362.60000610352</ele>
        <time>2021-04-05T12:22:29.000Z</time>
      </trkpt>
      <trkpt lat="46.40037" lon="5.45272">
        <ele>363</ele>
        <time>2021-04-05T12:22:31.000Z</time>
      </trkpt>
      <trkpt lat="46.40053" lon="5.4527">
        <ele>363.20001220703</ele>
        <time>2021-04-05T12:22:33.000Z</time>
      </trkpt>
      <trkpt lat="46.40069" lon="5.45268">
        <ele>363.20001220703</ele>
        <time>2021-04-05T12:22:35.000Z</time>
      </trkpt>
      <trkpt lat="46.40084" lon="5.45265">
        <ele>363.20001220703</ele>
        <time>2021-04-05T12:22:37.000Z</time>
      </trkpt>
      <trkpt lat="46.40099" lon="5.45263">
        <ele>363.39999389648</ele>
        <time>2021-04-05T12:22:39.000Z</time>
      </trkpt>
      <trkpt lat="46.40114" lon="5.4526">
        <ele>363.39999389648</ele>
        <time>2021-04-05T12:22:41.000Z</time>
      </trkpt>
      <trkpt lat="46.40127" lon="5.45256">
        <ele>363.39999389648</ele>
        <time>2021-04-05T12:22:43.000Z</time>
      </trkpt>
      <trkpt lat="46.40141" lon="5.4525">
        <ele>363.60000610352</ele>
        <time>2021-04-05T12:22:45.000Z</time>
      </trkpt>
      <trkpt lat="46.40154" lon="5.45242">
        <ele>363.79998779297</ele>
        <time>2021-04-05T12:22:47.000Z</time>
      </trkpt>
      <trkpt lat="46.40162" lon="5.45239">
        <ele>364</ele>
        <time>2021-04-05T12:22:48.000Z</time>
      </trkpt>
      <trkpt lat="46.40169" lon="5.45237">
        <ele>364.20001220703</ele>
        <time>2021-04-05T12:22:49.000Z</time>
      </trkpt>
      <trkpt lat="46.40176" lon="5.45236">
        <ele>364.20001220703</ele>
        <time>2021-04-05T12:22:50.000Z</time>
      </trkpt>
      <trkpt lat="46.40184" lon="5.45235">
        <ele>364.20001220703</ele>
        <time>2021-04-05T12:22:51.000Z</time>
      </trkpt>
      <trkpt lat="46.40195" lon="5.45237">
        <ele>364.20001220703</ele>
        <time>2021-04-05T12:22:53.000Z</time>
      </trkpt>
      <trkpt lat="46.40199" lon="5.45242">
        <ele>364.20001220703</ele>
        <time>2021-04-05T12:22:54.000Z</time>
      </trkpt>
      <trkpt lat="46.402" lon="5.45249">
        <ele>364.20001220703</ele>
        <time>2021-04-05T12:22:55.000Z</time>
      </trkpt>
      <trkpt lat="46.40201" lon="5.45263">
        <ele>364.20001220703</ele>
        <time>2021-04-05T12:22:57.000Z</time>
      </trkpt>
      <trkpt lat="46.40203" lon="5.4527">
        <ele>364.39999389648</ele>
        <time>2021-04-05T12:22:58.000Z</time>
      </trkpt>
      <trkpt lat="46.40211" lon="5.45284">
        <ele>364.39999389648</ele>
        <time>2021-04-05T12:23:00.000Z</time>
      </trkpt>
      <trkpt lat="46.40215" lon="5.4529">
        <ele>364.39999389648</ele>
        <time>2021-04-05T12:23:01.000Z</time>
      </trkpt>
      <trkpt lat="46.4022" lon="5.45295">
        <ele>364.39999389648</ele>
        <time>2021-04-05T12:23:02.000Z</time>
      </trkpt>
      <trkpt lat="46.40225" lon="5.453">
        <ele>364.60000610352</ele>
        <time>2021-04-05T12:23:03.000Z</time>
      </trkpt>
      <trkpt lat="46.40234" lon="5.45311">
        <ele>364.60000610352</ele>
        <time>2021-04-05T12:23:05.000Z</time>
      </trkpt>
      <trkpt lat="46.40238" lon="5.45318">
        <ele>364.79998779297</ele>
        <time>2021-04-05T12:23:06.000Z</time>
      </trkpt>
      <trkpt lat="46.40241" lon="5.45326">
        <ele>364.79998779297</ele>
        <time>2021-04-05T12:23:07.000Z</time>
      </trkpt>
      <trkpt lat="46.40243" lon="5.45344">
        <ele>365</ele>
        <time>2021-04-05T12:23:09.000Z</time>
      </trkpt>
      <trkpt lat="46.40239" lon="5.45361">
        <ele>365</ele>
        <time>2021-04-05T12:23:11.000Z</time>
      </trkpt>
      <trkpt lat="46.40232" lon="5.45375">
        <ele>365</ele>
        <time>2021-04-05T12:23:13.000Z</time>
      </trkpt>
      <trkpt lat="46.40228" lon="5.45382">
        <ele>365</ele>
        <time>2021-04-05T12:23:14.000Z</time>
      </trkpt>
      <trkpt lat="46.40223" lon="5.45389">
        <ele>365</ele>
        <time>2021-04-05T12:23:15.000Z</time>
      </trkpt>
      <trkpt lat="46.40216" lon="5.45403">
        <ele>365</ele>
        <time>2021-04-05T12:23:17.000Z</time>
      </trkpt>
      <trkpt lat="46.40212" lon="5.45411">
        <ele>365</ele>
        <time>2021-04-05T12:23:18.000Z</time>
      </trkpt>
      <trkpt lat="46.40209" lon="5.45419">
        <ele>365</ele>
        <time>2021-04-05T12:23:19.000Z</time>
      </trkpt>
      <trkpt lat="46.40211" lon="5.45438">
        <ele>365</ele>
        <time>2021-04-05T12:23:21.000Z</time>
      </trkpt>
      <trkpt lat="46.40226" lon="5.45452">
        <ele>364.79998779297</ele>
        <time>2021-04-05T12:23:24.000Z</time>
      </trkpt>
      <trkpt lat="46.40233" lon="5.45455">
        <ele>364.79998779297</ele>
        <time>2021-04-05T12:23:25.000Z</time>
      </trkpt>
      <trkpt lat="46.40248" lon="5.4546">
        <ele>364.60000610352</ele>
        <time>2021-04-05T12:23:27.000Z</time>
      </trkpt>
      <trkpt lat="46.40256" lon="5.45463">
        <ele>364.60000610352</ele>
        <time>2021-04-05T12:23:28.000Z</time>
      </trkpt>
      <trkpt lat="46.40264" lon="5.45466">
        <ele>364.39999389648</ele>
        <time>2021-04-05T12:23:29.000Z</time>
      </trkpt>
      <trkpt lat="46.4028" lon="5.45473">
        <ele>364.20001220703</ele>
        <time>2021-04-05T12:23:31.000Z</time>
      </trkpt>
      <trkpt lat="46.40296" lon="5.4548">
        <ele>364</ele>
        <time>2021-04-05T12:23:33.000Z</time>
      </trkpt>
      <trkpt lat="46.40312" lon="5.45488">
        <ele>363.79998779297</ele>
        <time>2021-04-05T12:23:35.000Z</time>
      </trkpt>
      <trkpt lat="46.40328" lon="5.45496">
        <ele>364</ele>
        <time>2021-04-05T12:23:37.000Z</time>
      </trkpt>
      <trkpt lat="46.40344" lon="5.45502">
        <ele>364</ele>
        <time>2021-04-05T12:23:39.000Z</time>
      </trkpt>
      <trkpt lat="46.40359" lon="5.45509">
        <ele>364</ele>
        <time>2021-04-05T12:23:41.000Z</time>
      </trkpt>
      <trkpt lat="46.40375" lon="5.45516">
        <ele>364</ele>
        <time>2021-04-05T12:23:43.000Z</time>
      </trkpt>
      <trkpt lat="46.40392" lon="5.45522">
        <ele>363.79998779297</ele>
        <time>2021-04-05T12:23:45.000Z</time>
      </trkpt>
      <trkpt lat="46.40408" lon="5.45527">
        <ele>363.79998779297</ele>
        <time>2021-04-05T12:23:47.000Z</time>
      </trkpt>
      <trkpt lat="46.40424" lon="5.45534">
        <ele>363.79998779297</ele>
        <time>2021-04-05T12:23:49.000Z</time>
      </trkpt>
      <trkpt lat="46.4044" lon="5.4554">
        <ele>363.79998779297</ele>
        <time>2021-04-05T12:23:51.000Z</time>
      </trkpt>
      <trkpt lat="46.40456" lon="5.45546">
        <ele>363.79998779297</ele>
        <time>2021-04-05T12:23:53.000Z</time>
      </trkpt>
      <trkpt lat="46.40472" lon="5.45552">
        <ele>363.79998779297</ele>
        <time>2021-04-05T12:23:55.000Z</time>
      </trkpt>
      <trkpt lat="46.4048" lon="5.45556">
        <ele>364</ele>
        <time>2021-04-05T12:23:56.000Z</time>
      </trkpt>
      <trkpt lat="46.40488" lon="5.45559">
        <ele>364</ele>
        <time>2021-04-05T12:23:57.000Z</time>
      </trkpt>
      <trkpt lat="46.40503" lon="5.45566">
        <ele>364</ele>
        <time>2021-04-05T12:23:59.000Z</time>
      </trkpt>
      <trkpt lat="46.40519" lon="5.45573">
        <ele>364</ele>
        <time>2021-04-05T12:24:01.000Z</time>
      </trkpt>
      <trkpt lat="46.40535" lon="5.45579">
        <ele>364</ele>
        <time>2021-04-05T12:24:03.000Z</time>
      </trkpt>
      <trkpt lat="46.40551" lon="5.45586">
        <ele>364</ele>
        <time>2021-04-05T12:24:05.000Z</time>
      </trkpt>
      <trkpt lat="46.40559" lon="5.45589">
        <ele>364</ele>
        <time>2021-04-05T12:24:06.000Z</time>
      </trkpt>
      <trkpt lat="46.40567" lon="5.45592">
        <ele>364</ele>
        <time>2021-04-05T12:24:07.000Z</time>
      </trkpt>
      <trkpt lat="46.40583" lon="5.45599">
        <ele>364</ele>
        <time>2021-04-05T12:24:09.000Z</time>
      </trkpt>
      <trkpt lat="46.40599" lon="5.45606">
        <ele>364</ele>
        <time>2021-04-05T12:24:11.000Z</time>
      </trkpt>
      <trkpt lat="46.40615" lon="5.45613">
        <ele>364</ele>
        <time>2021-04-05T12:24:13.000Z</time>
      </trkpt>
      <trkpt lat="46.4063" lon="5.45619">
        <ele>363.79998779297</ele>
        <time>2021-04-05T12:24:15.000Z</time>
      </trkpt>
      <trkpt lat="46.40638" lon="5.45623">
        <ele>363.79998779297</ele>
        <time>2021-04-05T12:24:16.000Z</time>
      </trkpt>
      <trkpt lat="46.40646" lon="5.45627">
        <ele>363.79998779297</ele>
        <time>2021-04-05T12:24:17.000Z</time>
      </trkpt>
      <trkpt lat="46.40654" lon="5.4563">
        <ele>363.60000610352</ele>
        <time>2021-04-05T12:24:18.000Z</time>
      </trkpt>
      <trkpt lat="46.40662" lon="5.45633">
        <ele>363.60000610352</ele>
        <time>2021-04-05T12:24:19.000Z</time>
      </trkpt>
      <trkpt lat="46.40678" lon="5.45638">
        <ele>363.60000610352</ele>
        <time>2021-04-05T12:24:21.000Z</time>
      </trkpt>
      <trkpt lat="46.40685" lon="5.45641">
        <ele>363.60000610352</ele>
        <time>2021-04-05T12:24:22.000Z</time>
      </trkpt>
      <trkpt lat="46.40693" lon="5.45646">
        <ele>363.60000610352</ele>
        <time>2021-04-05T12:24:23.000Z</time>
      </trkpt>
      <trkpt lat="46.40706" lon="5.45657">
        <ele>363.60000610352</ele>
        <time>2021-04-05T12:24:25.000Z</time>
      </trkpt>
      <trkpt lat="46.40712" lon="5.45664">
        <ele>363.60000610352</ele>
        <time>2021-04-05T12:24:26.000Z</time>
      </trkpt>
      <trkpt lat="46.40718" lon="5.45672">
        <ele>363.60000610352</ele>
        <time>2021-04-05T12:24:27.000Z</time>
      </trkpt>
      <trkpt lat="46.40729" lon="5.45687">
        <ele>363.60000610352</ele>
        <time>2021-04-05T12:24:29.000Z</time>
      </trkpt>
      <trkpt lat="46.4074" lon="5.45703">
        <ele>363.60000610352</ele>
        <time>2021-04-05T12:24:31.000Z</time>
      </trkpt>
      <trkpt lat="46.4075" lon="5.45719">
        <ele>363.60000610352</ele>
        <time>2021-04-05T12:24:33.000Z</time>
      </trkpt>
      <trkpt lat="46.40759" lon="5.45734">
        <ele>363.60000610352</ele>
        <time>2021-04-05T12:24:35.000Z</time>
      </trkpt>
      <trkpt lat="46.40768" lon="5.45749">
        <ele>363.60000610352</ele>
        <time>2021-04-05T12:24:37.000Z</time>
      </trkpt>
      <trkpt lat="46.40778" lon="5.45761">
        <ele>364</ele>
        <time>2021-04-05T12:24:39.000Z</time>
      </trkpt>
      <trkpt lat="46.40783" lon="5.45766">
        <ele>364.20001220703</ele>
        <time>2021-04-05T12:24:40.000Z</time>
      </trkpt>
      <trkpt lat="46.40789" lon="5.4577">
        <ele>364.39999389648</ele>
        <time>2021-04-05T12:24:41.000Z</time>
      </trkpt>
      <trkpt lat="46.40802" lon="5.45774">
        <ele>365</ele>
        <time>2021-04-05T12:24:43.000Z</time>
      </trkpt>
      <trkpt lat="46.40808" lon="5.45775">
        <ele>365.20001220703</ele>
        <time>2021-04-05T12:24:44.000Z</time>
      </trkpt>
      <trkpt lat="46.40814" lon="5.45775">
        <ele>365.39999389648</ele>
        <time>2021-04-05T12:24:45.000Z</time>
      </trkpt>
      <trkpt lat="46.40827" lon="5.45779">
        <ele>365.60000610352</ele>
        <time>2021-04-05T12:24:47.000Z</time>
      </trkpt>
      <trkpt lat="46.40839" lon="5.45784">
        <ele>366</ele>
        <time>2021-04-05T12:24:49.000Z</time>
      </trkpt>
      <trkpt lat="46.40851" lon="5.45791">
        <ele>366.39999389648</ele>
        <time>2021-04-05T12:24:51.000Z</time>
      </trkpt>
      <trkpt lat="46.40862" lon="5.45799">
        <ele>366.79998779297</ele>
        <time>2021-04-05T12:24:53.000Z</time>
      </trkpt>
      <trkpt lat="46.40873" lon="5.45807">
        <ele>367</ele>
        <time>2021-04-05T12:24:55.000Z</time>
      </trkpt>
      <trkpt lat="46.40884" lon="5.45815">
        <ele>367.20001220703</ele>
        <time>2021-04-05T12:24:57.000Z</time>
      </trkpt>
      <trkpt lat="46.40895" lon="5.45822">
        <ele>367.20001220703</ele>
        <time>2021-04-05T12:24:59.000Z</time>
      </trkpt>
      <trkpt lat="46.40905" lon="5.4583">
        <ele>367.39999389648</ele>
        <time>2021-04-05T12:25:01.000Z</time>
      </trkpt>
      <trkpt lat="46.40916" lon="5.45837">
        <ele>367.60000610352</ele>
        <time>2021-04-05T12:25:03.000Z</time>
      </trkpt>
      <trkpt lat="46.40926" lon="5.45844">
        <ele>368</ele>
        <time>2021-04-05T12:25:05.000Z</time>
      </trkpt>
      <trkpt lat="46.40931" lon="5.45847">
        <ele>368.39999389648</ele>
        <time>2021-04-05T12:25:06.000Z</time>
      </trkpt>
      <trkpt lat="46.40937" lon="5.4585">
        <ele>368.60000610352</ele>
        <time>2021-04-05T12:25:07.000Z</time>
      </trkpt>
      <trkpt lat="46.40947" lon="5.45856">
        <ele>369.39999389648</ele>
        <time>2021-04-05T12:25:09.000Z</time>
      </trkpt>
      <trkpt lat="46.40958" lon="5.45861">
        <ele>369.79998779297</ele>
        <time>2021-04-05T12:25:11.000Z</time>
      </trkpt>
      <trkpt lat="46.40969" lon="5.45866">
        <ele>370</ele>
        <time>2021-04-05T12:25:13.000Z</time>
      </trkpt>
      <trkpt lat="46.40981" lon="5.45871">
        <ele>370.20001220703</ele>
        <time>2021-04-05T12:25:15.000Z</time>
      </trkpt>
      <trkpt lat="46.40992" lon="5.45876">
        <ele>370.39999389648</ele>
        <time>2021-04-05T12:25:17.000Z</time>
      </trkpt>
      <trkpt lat="46.41004" lon="5.45881">
        <ele>370.60000610352</ele>
        <time>2021-04-05T12:25:19.000Z</time>
      </trkpt>
      <trkpt lat="46.41015" lon="5.45886">
        <ele>371</ele>
        <time>2021-04-05T12:25:21.000Z</time>
      </trkpt>
      <trkpt lat="46.41027" lon="5.4589">
        <ele>371.20001220703</ele>
        <time>2021-04-05T12:25:23.000Z</time>
      </trkpt>
      <trkpt lat="46.41044" lon="5.45896">
        <ele>371.79998779297</ele>
        <time>2021-04-05T12:25:26.000Z</time>
      </trkpt>
      <trkpt lat="46.4105" lon="5.45899">
        <ele>371.79998779297</ele>
        <time>2021-04-05T12:25:27.000Z</time>
      </trkpt>
      <trkpt lat="46.41056" lon="5.45901">
        <ele>372</ele>
        <time>2021-04-05T12:25:28.000Z</time>
      </trkpt>
      <trkpt lat="46.41068" lon="5.45907">
        <ele>372</ele>
        <time>2021-04-05T12:25:30.000Z</time>
      </trkpt>
      <trkpt lat="46.4108" lon="5.45912">
        <ele>372</ele>
        <time>2021-04-05T12:25:32.000Z</time>
      </trkpt>
      <trkpt lat="46.41093" lon="5.45917">
        <ele>372.39999389648</ele>
        <time>2021-04-05T12:25:34.000Z</time>
      </trkpt>
      <trkpt lat="46.41099" lon="5.45919">
        <ele>372.60000610352</ele>
        <time>2021-04-05T12:25:35.000Z</time>
      </trkpt>
      <trkpt lat="46.41105" lon="5.45922">
        <ele>372.79998779297</ele>
        <time>2021-04-05T12:25:36.000Z</time>
      </trkpt>
      <trkpt lat="46.41111" lon="5.45924">
        <ele>372.79998779297</ele>
        <time>2021-04-05T12:25:37.000Z</time>
      </trkpt>
      <trkpt lat="46.41117" lon="5.45927">
        <ele>372.79998779297</ele>
        <time>2021-04-05T12:25:38.000Z</time>
      </trkpt>
      <trkpt lat="46.41129" lon="5.45932">
        <ele>373</ele>
        <time>2021-04-05T12:25:40.000Z</time>
      </trkpt>
      <trkpt lat="46.41141" lon="5.45937">
        <ele>373</ele>
        <time>2021-04-05T12:25:42.000Z</time>
      </trkpt>
      <trkpt lat="46.41153" lon="5.45942">
        <ele>373.20001220703</ele>
        <time>2021-04-05T12:25:44.000Z</time>
      </trkpt>
      <trkpt lat="46.41159" lon="5.45944">
        <ele>373.20001220703</ele>
        <time>2021-04-05T12:25:45.000Z</time>
      </trkpt>
      <trkpt lat="46.41166" lon="5.45947">
        <ele>373.20001220703</ele>
        <time>2021-04-05T12:25:46.000Z</time>
      </trkpt>
      <trkpt lat="46.41178" lon="5.45951">
        <ele>373.39999389648</ele>
        <time>2021-04-05T12:25:48.000Z</time>
      </trkpt>
      <trkpt lat="46.41191" lon="5.45955">
        <ele>373.60000610352</ele>
        <time>2021-04-05T12:25:50.000Z</time>
      </trkpt>
      <trkpt lat="46.41198" lon="5.45956">
        <ele>373.79998779297</ele>
        <time>2021-04-05T12:25:51.000Z</time>
      </trkpt>
      <trkpt lat="46.41204" lon="5.45958">
        <ele>374</ele>
        <time>2021-04-05T12:25:52.000Z</time>
      </trkpt>
      <trkpt lat="46.41218" lon="5.45961">
        <ele>374.20001220703</ele>
        <time>2021-04-05T12:25:54.000Z</time>
      </trkpt>
      <trkpt lat="46.41231" lon="5.45965">
        <ele>374.39999389648</ele>
        <time>2021-04-05T12:25:56.000Z</time>
      </trkpt>
      <trkpt lat="46.41244" lon="5.45969">
        <ele>374.39999389648</ele>
        <time>2021-04-05T12:25:58.000Z</time>
      </trkpt>
      <trkpt lat="46.41257" lon="5.45975">
        <ele>374.39999389648</ele>
        <time>2021-04-05T12:26:00.000Z</time>
      </trkpt>
      <trkpt lat="46.4127" lon="5.4598">
        <ele>374.39999389648</ele>
        <time>2021-04-05T12:26:02.000Z</time>
      </trkpt>
      <trkpt lat="46.41283" lon="5.45986">
        <ele>374.60000610352</ele>
        <time>2021-04-05T12:26:04.000Z</time>
      </trkpt>
      <trkpt lat="46.41296" lon="5.45992">
        <ele>374.60000610352</ele>
        <time>2021-04-05T12:26:06.000Z</time>
      </trkpt>
      <trkpt lat="46.41309" lon="5.45999">
        <ele>374.39999389648</ele>
        <time>2021-04-05T12:26:08.000Z</time>
      </trkpt>
      <trkpt lat="46.41323" lon="5.46005">
        <ele>374.39999389648</ele>
        <time>2021-04-05T12:26:10.000Z</time>
      </trkpt>
      <trkpt lat="46.4133" lon="5.46009">
        <ele>374.39999389648</ele>
        <time>2021-04-05T12:26:11.000Z</time>
      </trkpt>
      <trkpt lat="46.41337" lon="5.46013">
        <ele>374.39999389648</ele>
        <time>2021-04-05T12:26:12.000Z</time>
      </trkpt>
      <trkpt lat="46.41351" lon="5.46023">
        <ele>374.39999389648</ele>
        <time>2021-04-05T12:26:14.000Z</time>
      </trkpt>
      <trkpt lat="46.41358" lon="5.46029">
        <ele>374.39999389648</ele>
        <time>2021-04-05T12:26:15.000Z</time>
      </trkpt>
      <trkpt lat="46.41364" lon="5.46036">
        <ele>374.39999389648</ele>
        <time>2021-04-05T12:26:16.000Z</time>
      </trkpt>
      <trkpt lat="46.41375" lon="5.46053">
        <ele>374.39999389648</ele>
        <time>2021-04-05T12:26:18.000Z</time>
      </trkpt>
      <trkpt lat="46.4138" lon="5.46062">
        <ele>374.39999389648</ele>
        <time>2021-04-05T12:26:19.000Z</time>
      </trkpt>
      <trkpt lat="46.41385" lon="5.46071">
        <ele>374.20001220703</ele>
        <time>2021-04-05T12:26:20.000Z</time>
      </trkpt>
      <trkpt lat="46.41393" lon="5.46089">
        <ele>373.79998779297</ele>
        <time>2021-04-05T12:26:22.000Z</time>
      </trkpt>
      <trkpt lat="46.41402" lon="5.46106">
        <ele>373.60000610352</ele>
        <time>2021-04-05T12:26:24.000Z</time>
      </trkpt>
      <trkpt lat="46.41411" lon="5.46121">
        <ele>373.60000610352</ele>
        <time>2021-04-05T12:26:26.000Z</time>
      </trkpt>
      <trkpt lat="46.41416" lon="5.46128">
        <ele>373.60000610352</ele>
        <time>2021-04-05T12:26:27.000Z</time>
      </trkpt>
      <trkpt lat="46.41423" lon="5.46133">
        <ele>373.60000610352</ele>
        <time>2021-04-05T12:26:28.000Z</time>
      </trkpt>
      <trkpt lat="46.41436" lon="5.46142">
        <ele>373.60000610352</ele>
        <time>2021-04-05T12:26:30.000Z</time>
      </trkpt>
      <trkpt lat="46.41444" lon="5.46145">
        <ele>373.60000610352</ele>
        <time>2021-04-05T12:26:31.000Z</time>
      </trkpt>
      <trkpt lat="46.41452" lon="5.46148">
        <ele>374.20001220703</ele>
        <time>2021-04-05T12:26:32.000Z</time>
      </trkpt>
      <trkpt lat="46.41467" lon="5.46152">
        <ele>374.60000610352</ele>
        <time>2021-04-05T12:26:34.000Z</time>
      </trkpt>
      <trkpt lat="46.41482" lon="5.46157">
        <ele>374.79998779297</ele>
        <time>2021-04-05T12:26:36.000Z</time>
      </trkpt>
      <trkpt lat="46.41497" lon="5.46162">
        <ele>375</ele>
        <time>2021-04-05T12:26:38.000Z</time>
      </trkpt>
      <trkpt lat="46.41504" lon="5.46165">
        <ele>375</ele>
        <time>2021-04-05T12:26:39.000Z</time>
      </trkpt>
      <trkpt lat="46.41512" lon="5.46167">
        <ele>375.20001220703</ele>
        <time>2021-04-05T12:26:40.000Z</time>
      </trkpt>
      <trkpt lat="46.41528" lon="5.46172">
        <ele>375.20001220703</ele>
        <time>2021-04-05T12:26:42.000Z</time>
      </trkpt>
      <trkpt lat="46.41544" lon="5.46176">
        <ele>375.20001220703</ele>
        <time>2021-04-05T12:26:44.000Z</time>
      </trkpt>
      <trkpt lat="46.4156" lon="5.46181">
        <ele>375.20001220703</ele>
        <time>2021-04-05T12:26:46.000Z</time>
      </trkpt>
      <trkpt lat="46.41568" lon="5.46184">
        <ele>375</ele>
        <time>2021-04-05T12:26:47.000Z</time>
      </trkpt>
      <trkpt lat="46.41576" lon="5.46187">
        <ele>375</ele>
        <time>2021-04-05T12:26:48.000Z</time>
      </trkpt>
      <trkpt lat="46.41584" lon="5.46189">
        <ele>375</ele>
        <time>2021-04-05T12:26:49.000Z</time>
      </trkpt>
      <trkpt lat="46.41592" lon="5.46192">
        <ele>375</ele>
        <time>2021-04-05T12:26:50.000Z</time>
      </trkpt>
      <trkpt lat="46.41608" lon="5.46197">
        <ele>374.79998779297</ele>
        <time>2021-04-05T12:26:52.000Z</time>
      </trkpt>
      <trkpt lat="46.41623" lon="5.46205">
        <ele>374.60000610352</ele>
        <time>2021-04-05T12:26:54.000Z</time>
      </trkpt>
      <trkpt lat="46.4163" lon="5.46211">
        <ele>374.60000610352</ele>
        <time>2021-04-05T12:26:55.000Z</time>
      </trkpt>
      <trkpt lat="46.41637" lon="5.46218">
        <ele>374.39999389648</ele>
        <time>2021-04-05T12:26:56.000Z</time>
      </trkpt>
      <trkpt lat="46.41647" lon="5.46235">
        <ele>374.39999389648</ele>
        <time>2021-04-05T12:26:58.000Z</time>
      </trkpt>
      <trkpt lat="46.41652" lon="5.46244">
        <ele>374.39999389648</ele>
        <time>2021-04-05T12:26:59.000Z</time>
      </trkpt>
      <trkpt lat="46.41656" lon="5.46254">
        <ele>374.39999389648</ele>
        <time>2021-04-05T12:27:00.000Z</time>
      </trkpt>
      <trkpt lat="46.41664" lon="5.46273">
        <ele>374.39999389648</ele>
        <time>2021-04-05T12:27:02.000Z</time>
      </trkpt>
      <trkpt lat="46.41672" lon="5.46292">
        <ele>374.39999389648</ele>
        <time>2021-04-05T12:27:04.000Z</time>
      </trkpt>
      <trkpt lat="46.4168" lon="5.46311">
        <ele>374.60000610352</ele>
        <time>2021-04-05T12:27:06.000Z</time>
      </trkpt>
      <trkpt lat="46.41688" lon="5.4633">
        <ele>374.79998779297</ele>
        <time>2021-04-05T12:27:08.000Z</time>
      </trkpt>
      <trkpt lat="46.41696" lon="5.46348">
        <ele>375.20001220703</ele>
        <time>2021-04-05T12:27:10.000Z</time>
      </trkpt>
      <trkpt lat="46.41704" lon="5.46366">
        <ele>375.60000610352</ele>
        <time>2021-04-05T12:27:12.000Z</time>
      </trkpt>
      <trkpt lat="46.41712" lon="5.46384">
        <ele>376</ele>
        <time>2021-04-05T12:27:14.000Z</time>
      </trkpt>
      <trkpt lat="46.41715" lon="5.46393">
        <ele>376</ele>
        <time>2021-04-05T12:27:15.000Z</time>
      </trkpt>
      <trkpt lat="46.41719" lon="5.46401">
        <ele>376.20001220703</ele>
        <time>2021-04-05T12:27:16.000Z</time>
      </trkpt>
      <trkpt lat="46.41722" lon="5.4641">
        <ele>376.39999389648</ele>
        <time>2021-04-05T12:27:17.000Z</time>
      </trkpt>
      <trkpt lat="46.41726" lon="5.46419">
        <ele>376.39999389648</ele>
        <time>2021-04-05T12:27:18.000Z</time>
      </trkpt>
      <trkpt lat="46.41734" lon="5.46436">
        <ele>376.60000610352</ele>
        <time>2021-04-05T12:27:20.000Z</time>
      </trkpt>
      <trkpt lat="46.41741" lon="5.46453">
        <ele>377</ele>
        <time>2021-04-05T12:27:22.000Z</time>
      </trkpt>
      <trkpt lat="46.41749" lon="5.4647">
        <ele>377</ele>
        <time>2021-04-05T12:27:24.000Z</time>
      </trkpt>
      <trkpt lat="46.41756" lon="5.46487">
        <ele>377.20001220703</ele>
        <time>2021-04-05T12:27:26.000Z</time>
      </trkpt>
      <trkpt lat="46.41763" lon="5.46504">
        <ele>377.60000610352</ele>
        <time>2021-04-05T12:27:28.000Z</time>
      </trkpt>
      <trkpt lat="46.4177" lon="5.46521">
        <ele>378</ele>
        <time>2021-04-05T12:27:30.000Z</time>
      </trkpt>
      <trkpt lat="46.41777" lon="5.46538">
        <ele>378.39999389648</ele>
        <time>2021-04-05T12:27:32.000Z</time>
      </trkpt>
      <trkpt lat="46.41784" lon="5.46554">
        <ele>378.60000610352</ele>
        <time>2021-04-05T12:27:34.000Z</time>
      </trkpt>
      <trkpt lat="46.41791" lon="5.4657">
        <ele>378.79998779297</ele>
        <time>2021-04-05T12:27:36.000Z</time>
      </trkpt>
      <trkpt lat="46.41798" lon="5.46585">
        <ele>379</ele>
        <time>2021-04-05T12:27:38.000Z</time>
      </trkpt>
      <trkpt lat="46.41806" lon="5.46597">
        <ele>379.20001220703</ele>
        <time>2021-04-05T12:27:40.000Z</time>
      </trkpt>
      <trkpt lat="46.41811" lon="5.46602">
        <ele>379.60000610352</ele>
        <time>2021-04-05T12:27:41.000Z</time>
      </trkpt>
      <trkpt lat="46.41816" lon="5.46606">
        <ele>379.79998779297</ele>
        <time>2021-04-05T12:27:42.000Z</time>
      </trkpt>
      <trkpt lat="46.41821" lon="5.46609">
        <ele>379.79998779297</ele>
        <time>2021-04-05T12:27:43.000Z</time>
      </trkpt>
      <trkpt lat="46.41827" lon="5.46611">
        <ele>380</ele>
        <time>2021-04-05T12:27:44.000Z</time>
      </trkpt>
      <trkpt lat="46.41833" lon="5.46612">
        <ele>380.20001220703</ele>
        <time>2021-04-05T12:27:45.000Z</time>
      </trkpt>
      <trkpt lat="46.41839" lon="5.46612">
        <ele>380.39999389648</ele>
        <time>2021-04-05T12:27:46.000Z</time>
      </trkpt>
      <trkpt lat="46.41852" lon="5.46614">
        <ele>380.79998779297</ele>
        <time>2021-04-05T12:27:48.000Z</time>
      </trkpt>
      <trkpt lat="46.41865" lon="5.46615">
        <ele>380.79998779297</ele>
        <time>2021-04-05T12:27:50.000Z</time>
      </trkpt>
      <trkpt lat="46.41878" lon="5.46618">
        <ele>380.79998779297</ele>
        <time>2021-04-05T12:27:52.000Z</time>
      </trkpt>
      <trkpt lat="46.41884" lon="5.4662">
        <ele>380.79998779297</ele>
        <time>2021-04-05T12:27:53.000Z</time>
      </trkpt>
      <trkpt lat="46.41891" lon="5.46622">
        <ele>380.79998779297</ele>
        <time>2021-04-05T12:27:54.000Z</time>
      </trkpt>
      <trkpt lat="46.41903" lon="5.46628">
        <ele>381</ele>
        <time>2021-04-05T12:27:56.000Z</time>
      </trkpt>
      <trkpt lat="46.41916" lon="5.46634">
        <ele>380.79998779297</ele>
        <time>2021-04-05T12:27:58.000Z</time>
      </trkpt>
      <trkpt lat="46.41929" lon="5.4664">
        <ele>380.79998779297</ele>
        <time>2021-04-05T12:28:00.000Z</time>
      </trkpt>
      <trkpt lat="46.41942" lon="5.46647">
        <ele>380.79998779297</ele>
        <time>2021-04-05T12:28:02.000Z</time>
      </trkpt>
      <trkpt lat="46.41955" lon="5.46654">
        <ele>380.60000610352</ele>
        <time>2021-04-05T12:28:04.000Z</time>
      </trkpt>
      <trkpt lat="46.41961" lon="5.46659">
        <ele>380.60000610352</ele>
        <time>2021-04-05T12:28:05.000Z</time>
      </trkpt>
      <trkpt lat="46.41967" lon="5.46663">
        <ele>380.60000610352</ele>
        <time>2021-04-05T12:28:06.000Z</time>
      </trkpt>
      <trkpt lat="46.41979" lon="5.46673">
        <ele>380.60000610352</ele>
        <time>2021-04-05T12:28:08.000Z</time>
      </trkpt>
      <trkpt lat="46.4199" lon="5.46683">
        <ele>380.39999389648</ele>
        <time>2021-04-05T12:28:10.000Z</time>
      </trkpt>
      <trkpt lat="46.41996" lon="5.46689">
        <ele>380.39999389648</ele>
        <time>2021-04-05T12:28:11.000Z</time>
      </trkpt>
      <trkpt lat="46.42001" lon="5.46695">
        <ele>380.39999389648</ele>
        <time>2021-04-05T12:28:12.000Z</time>
      </trkpt>
      <trkpt lat="46.42011" lon="5.46706">
        <ele>380</ele>
        <time>2021-04-05T12:28:14.000Z</time>
      </trkpt>
      <trkpt lat="46.42017" lon="5.46712">
        <ele>379.79998779297</ele>
        <time>2021-04-05T12:28:15.000Z</time>
      </trkpt>
      <trkpt lat="46.42023" lon="5.46717">
        <ele>379.60000610352</ele>
        <time>2021-04-05T12:28:16.000Z</time>
      </trkpt>
      <trkpt lat="46.4203" lon="5.46721">
        <ele>379.39999389648</ele>
        <time>2021-04-05T12:28:17.000Z</time>
      </trkpt>
      <trkpt lat="46.42037" lon="5.46725">
        <ele>379.20001220703</ele>
        <time>2021-04-05T12:28:18.000Z</time>
      </trkpt>
      <trkpt lat="46.42053" lon="5.46733">
        <ele>378.79998779297</ele>
        <time>2021-04-05T12:28:20.000Z</time>
      </trkpt>
      <trkpt lat="46.42061" lon="5.46736">
        <ele>378.60000610352</ele>
        <time>2021-04-05T12:28:21.000Z</time>
      </trkpt>
      <trkpt lat="46.42069" lon="5.46739">
        <ele>378.39999389648</ele>
        <time>2021-04-05T12:28:22.000Z</time>
      </trkpt>
      <trkpt lat="46.42085" lon="5.46747">
        <ele>378</ele>
        <time>2021-04-05T12:28:24.000Z</time>
      </trkpt>
      <trkpt lat="46.42101" lon="5.46754">
        <ele>376.79998779297</ele>
        <time>2021-04-05T12:28:26.000Z</time>
      </trkpt>
      <trkpt lat="46.42109" lon="5.46757">
        <ele>375.20001220703</ele>
        <time>2021-04-05T12:28:27.000Z</time>
      </trkpt>
      <trkpt lat="46.42116" lon="5.46761">
        <ele>374.79998779297</ele>
        <time>2021-04-05T12:28:28.000Z</time>
      </trkpt>
      <trkpt lat="46.42124" lon="5.46765">
        <ele>374.39999389648</ele>
        <time>2021-04-05T12:28:29.000Z</time>
      </trkpt>
      <trkpt lat="46.42131" lon="5.46769">
        <ele>374.39999389648</ele>
        <time>2021-04-05T12:28:30.000Z</time>
      </trkpt>
      <trkpt lat="46.42144" lon="5.46777">
        <ele>374.20001220703</ele>
        <time>2021-04-05T12:28:32.000Z</time>
      </trkpt>
      <trkpt lat="46.42157" lon="5.46786">
        <ele>374.20001220703</ele>
        <time>2021-04-05T12:28:34.000Z</time>
      </trkpt>
      <trkpt lat="46.42171" lon="5.46795">
        <ele>374.20001220703</ele>
        <time>2021-04-05T12:28:36.000Z</time>
      </trkpt>
      <trkpt lat="46.42184" lon="5.46804">
        <ele>374.20001220703</ele>
        <time>2021-04-05T12:28:38.000Z</time>
      </trkpt>
      <trkpt lat="46.42202" lon="5.46817">
        <ele>374.39999389648</ele>
        <time>2021-04-05T12:28:41.000Z</time>
      </trkpt>
      <trkpt lat="46.42212" lon="5.46824">
        <ele>374.79998779297</ele>
        <time>2021-04-05T12:28:43.000Z</time>
      </trkpt>
      <trkpt lat="46.42217" lon="5.46825">
        <ele>374.79998779297</ele>
        <time>2021-04-05T12:28:44.000Z</time>
      </trkpt>
      <trkpt lat="46.42222" lon="5.46826">
        <ele>375</ele>
        <time>2021-04-05T12:28:45.000Z</time>
      </trkpt>
      <trkpt lat="46.42231" lon="5.46823">
        <ele>375</ele>
        <time>2021-04-05T12:28:47.000Z</time>
      </trkpt>
      <trkpt lat="46.42239" lon="5.46817">
        <ele>375.20001220703</ele>
        <time>2021-04-05T12:28:49.000Z</time>
      </trkpt>
      <trkpt lat="46.42247" lon="5.46809">
        <ele>376</ele>
        <time>2021-04-05T12:28:51.000Z</time>
      </trkpt>
      <trkpt lat="46.42252" lon="5.46804">
        <ele>376.39999389648</ele>
        <time>2021-04-05T12:28:52.000Z</time>
      </trkpt>
      <trkpt lat="46.42256" lon="5.46799">
        <ele>376.79998779297</ele>
        <time>2021-04-05T12:28:53.000Z</time>
      </trkpt>
      <trkpt lat="46.42264" lon="5.46787">
        <ele>377.39999389648</ele>
        <time>2021-04-05T12:28:55.000Z</time>
      </trkpt>
      <trkpt lat="46.42268" lon="5.4678">
        <ele>378</ele>
        <time>2021-04-05T12:28:56.000Z</time>
      </trkpt>
      <trkpt lat="46.42272" lon="5.46773">
        <ele>378.20001220703</ele>
        <time>2021-04-05T12:28:57.000Z</time>
      </trkpt>
      <trkpt lat="46.42281" lon="5.4676">
        <ele>378.60000610352</ele>
        <time>2021-04-05T12:28:59.000Z</time>
      </trkpt>
      <trkpt lat="46.4229" lon="5.46748">
        <ele>378.79998779297</ele>
        <time>2021-04-05T12:29:01.000Z</time>
      </trkpt>
      <trkpt lat="46.42296" lon="5.46743">
        <ele>379</ele>
        <time>2021-04-05T12:29:02.000Z</time>
      </trkpt>
      <trkpt lat="46.42301" lon="5.46739">
        <ele>379</ele>
        <time>2021-04-05T12:29:03.000Z</time>
      </trkpt>
      <trkpt lat="46.42308" lon="5.46738">
        <ele>379</ele>
        <time>2021-04-05T12:29:04.000Z</time>
      </trkpt>
      <trkpt lat="46.42315" lon="5.46739">
        <ele>379</ele>
        <time>2021-04-05T12:29:05.000Z</time>
      </trkpt>
      <trkpt lat="46.42321" lon="5.46741">
        <ele>379</ele>
        <time>2021-04-05T12:29:06.000Z</time>
      </trkpt>
      <trkpt lat="46.42328" lon="5.46745">
        <ele>379</ele>
        <time>2021-04-05T12:29:07.000Z</time>
      </trkpt>
      <trkpt lat="46.42341" lon="5.46752">
        <ele>379</ele>
        <time>2021-04-05T12:29:09.000Z</time>
      </trkpt>
      <trkpt lat="46.42354" lon="5.46758">
        <ele>379</ele>
        <time>2021-04-05T12:29:11.000Z</time>
      </trkpt>
      <trkpt lat="46.42368" lon="5.46765">
        <ele>379</ele>
        <time>2021-04-05T12:29:13.000Z</time>
      </trkpt>
      <trkpt lat="46.42381" lon="5.46771">
        <ele>379</ele>
        <time>2021-04-05T12:29:15.000Z</time>
      </trkpt>
      <trkpt lat="46.42394" lon="5.46778">
        <ele>379</ele>
        <time>2021-04-05T12:29:17.000Z</time>
      </trkpt>
      <trkpt lat="46.42408" lon="5.46786">
        <ele>379</ele>
        <time>2021-04-05T12:29:19.000Z</time>
      </trkpt>
      <trkpt lat="46.42421" lon="5.46794">
        <ele>379</ele>
        <time>2021-04-05T12:29:21.000Z</time>
      </trkpt>
      <trkpt lat="46.42434" lon="5.46802">
        <ele>379</ele>
        <time>2021-04-05T12:29:23.000Z</time>
      </trkpt>
      <trkpt lat="46.42447" lon="5.4681">
        <ele>379</ele>
        <time>2021-04-05T12:29:25.000Z</time>
      </trkpt>
      <trkpt lat="46.4246" lon="5.46818">
        <ele>379</ele>
        <time>2021-04-05T12:29:27.000Z</time>
      </trkpt>
      <trkpt lat="46.42473" lon="5.46827">
        <ele>379</ele>
        <time>2021-04-05T12:29:29.000Z</time>
      </trkpt>
      <trkpt lat="46.42486" lon="5.46837">
        <ele>379</ele>
        <time>2021-04-05T12:29:31.000Z</time>
      </trkpt>
      <trkpt lat="46.42499" lon="5.46847">
        <ele>379</ele>
        <time>2021-04-05T12:29:33.000Z</time>
      </trkpt>
      <trkpt lat="46.42513" lon="5.46855">
        <ele>379</ele>
        <time>2021-04-05T12:29:35.000Z</time>
      </trkpt>
      <trkpt lat="46.42521" lon="5.46857">
        <ele>379</ele>
        <time>2021-04-05T12:29:36.000Z</time>
      </trkpt>
      <trkpt lat="46.42529" lon="5.46857">
        <ele>379</ele>
        <time>2021-04-05T12:29:37.000Z</time>
      </trkpt>
      <trkpt lat="46.42545" lon="5.46851">
        <ele>378.79998779297</ele>
        <time>2021-04-05T12:29:39.000Z</time>
      </trkpt>
      <trkpt lat="46.4256" lon="5.4684">
        <ele>378.60000610352</ele>
        <time>2021-04-05T12:29:41.000Z</time>
      </trkpt>
      <trkpt lat="46.42575" lon="5.46827">
        <ele>378.60000610352</ele>
        <time>2021-04-05T12:29:43.000Z</time>
      </trkpt>
      <trkpt lat="46.42582" lon="5.4682">
        <ele>378.39999389648</ele>
        <time>2021-04-05T12:29:44.000Z</time>
      </trkpt>
      <trkpt lat="46.42589" lon="5.46813">
        <ele>378.39999389648</ele>
        <time>2021-04-05T12:29:45.000Z</time>
      </trkpt>
      <trkpt lat="46.42604" lon="5.46799">
        <ele>378</ele>
        <time>2021-04-05T12:29:47.000Z</time>
      </trkpt>
      <trkpt lat="46.42619" lon="5.46784">
        <ele>377.60000610352</ele>
        <time>2021-04-05T12:29:49.000Z</time>
      </trkpt>
      <trkpt lat="46.42635" lon="5.46768">
        <ele>377</ele>
        <time>2021-04-05T12:29:51.000Z</time>
      </trkpt>
      <trkpt lat="46.4265" lon="5.46754">
        <ele>376.39999389648</ele>
        <time>2021-04-05T12:29:53.000Z</time>
      </trkpt>
      <trkpt lat="46.42658" lon="5.46747">
        <ele>375.79998779297</ele>
        <time>2021-04-05T12:29:54.000Z</time>
      </trkpt>
      <trkpt lat="46.42666" lon="5.4674">
        <ele>376</ele>
        <time>2021-04-05T12:29:55.000Z</time>
      </trkpt>
      <trkpt lat="46.42682" lon="5.46731">
        <ele>375.79998779297</ele>
        <time>2021-04-05T12:29:57.000Z</time>
      </trkpt>
      <trkpt lat="46.42691" lon="5.46727">
        <ele>375.39999389648</ele>
        <time>2021-04-05T12:29:58.000Z</time>
      </trkpt>
      <trkpt lat="46.427" lon="5.46725">
        <ele>375</ele>
        <time>2021-04-05T12:29:59.000Z</time>
      </trkpt>
      <trkpt lat="46.42718" lon="5.46722">
        <ele>374.60000610352</ele>
        <time>2021-04-05T12:30:01.000Z</time>
      </trkpt>
      <trkpt lat="46.42736" lon="5.46718">
        <ele>374.20001220703</ele>
        <time>2021-04-05T12:30:03.000Z</time>
      </trkpt>
      <trkpt lat="46.42745" lon="5.46715">
        <ele>374</ele>
        <time>2021-04-05T12:30:04.000Z</time>
      </trkpt>
      <trkpt lat="46.42754" lon="5.46712">
        <ele>373.79998779297</ele>
        <time>2021-04-05T12:30:05.000Z</time>
      </trkpt>
      <trkpt lat="46.42772" lon="5.46706">
        <ele>373.39999389648</ele>
        <time>2021-04-05T12:30:07.000Z</time>
      </trkpt>
      <trkpt lat="46.4279" lon="5.467">
        <ele>373</ele>
        <time>2021-04-05T12:30:09.000Z</time>
      </trkpt>
      <trkpt lat="46.42799" lon="5.46697">
        <ele>372.79998779297</ele>
        <time>2021-04-05T12:30:10.000Z</time>
      </trkpt>
      <trkpt lat="46.42807" lon="5.46694">
        <ele>372.79998779297</ele>
        <time>2021-04-05T12:30:11.000Z</time>
      </trkpt>
      <trkpt lat="46.42824" lon="5.46688">
        <ele>372.60000610352</ele>
        <time>2021-04-05T12:30:13.000Z</time>
      </trkpt>
      <trkpt lat="46.42841" lon="5.46683">
        <ele>372.39999389648</ele>
        <time>2021-04-05T12:30:15.000Z</time>
      </trkpt>
      <trkpt lat="46.42857" lon="5.46678">
        <ele>372.39999389648</ele>
        <time>2021-04-05T12:30:17.000Z</time>
      </trkpt>
      <trkpt lat="46.42873" lon="5.46674">
        <ele>372.39999389648</ele>
        <time>2021-04-05T12:30:19.000Z</time>
      </trkpt>
      <trkpt lat="46.4289" lon="5.46671">
        <ele>372.39999389648</ele>
        <time>2021-04-05T12:30:21.000Z</time>
      </trkpt>
      <trkpt lat="46.42905" lon="5.4667">
        <ele>372.39999389648</ele>
        <time>2021-04-05T12:30:23.000Z</time>
      </trkpt>
      <trkpt lat="46.42921" lon="5.46668">
        <ele>372.39999389648</ele>
        <time>2021-04-05T12:30:25.000Z</time>
      </trkpt>
      <trkpt lat="46.42936" lon="5.46667">
        <ele>372.39999389648</ele>
        <time>2021-04-05T12:30:27.000Z</time>
      </trkpt>
      <trkpt lat="46.42951" lon="5.46664">
        <ele>372.79998779297</ele>
        <time>2021-04-05T12:30:29.000Z</time>
      </trkpt>
      <trkpt lat="46.42966" lon="5.46663">
        <ele>373</ele>
        <time>2021-04-05T12:30:31.000Z</time>
      </trkpt>
      <trkpt lat="46.42981" lon="5.46662">
        <ele>373.39999389648</ele>
        <time>2021-04-05T12:30:33.000Z</time>
      </trkpt>
      <trkpt lat="46.42995" lon="5.46659">
        <ele>373.60000610352</ele>
        <time>2021-04-05T12:30:35.000Z</time>
      </trkpt>
      <trkpt lat="46.4301" lon="5.46654">
        <ele>373.60000610352</ele>
        <time>2021-04-05T12:30:37.000Z</time>
      </trkpt>
      <trkpt lat="46.43023" lon="5.4665">
        <ele>374</ele>
        <time>2021-04-05T12:30:39.000Z</time>
      </trkpt>
      <trkpt lat="46.43036" lon="5.46646">
        <ele>374.39999389648</ele>
        <time>2021-04-05T12:30:41.000Z</time>
      </trkpt>
      <trkpt lat="46.43048" lon="5.46643">
        <ele>374.60000610352</ele>
        <time>2021-04-05T12:30:43.000Z</time>
      </trkpt>
      <trkpt lat="46.43059" lon="5.46642">
        <ele>374.79998779297</ele>
        <time>2021-04-05T12:30:45.000Z</time>
      </trkpt>
      <trkpt lat="46.43064" lon="5.46643">
        <ele>375</ele>
        <time>2021-04-05T12:30:46.000Z</time>
      </trkpt>
      <trkpt lat="46.4307" lon="5.46643">
        <ele>375</ele>
        <time>2021-04-05T12:30:47.000Z</time>
      </trkpt>
      <trkpt lat="46.4308" lon="5.46646">
        <ele>375.39999389648</ele>
        <time>2021-04-05T12:30:49.000Z</time>
      </trkpt>
      <trkpt lat="46.43091" lon="5.4665">
        <ele>375.79998779297</ele>
        <time>2021-04-05T12:30:51.000Z</time>
      </trkpt>
      <trkpt lat="46.43097" lon="5.46652">
        <ele>376.39999389648</ele>
        <time>2021-04-05T12:30:52.000Z</time>
      </trkpt>
      <trkpt lat="46.43102" lon="5.46653">
        <ele>376.60000610352</ele>
        <time>2021-04-05T12:30:53.000Z</time>
      </trkpt>
      <trkpt lat="46.43113" lon="5.46655">
        <ele>377</ele>
        <time>2021-04-05T12:30:55.000Z</time>
      </trkpt>
      <trkpt lat="46.43125" lon="5.46656">
        <ele>377.39999389648</ele>
        <time>2021-04-05T12:30:57.000Z</time>
      </trkpt>
      <trkpt lat="46.4313" lon="5.46655">
        <ele>377.60000610352</ele>
        <time>2021-04-05T12:30:58.000Z</time>
      </trkpt>
      <trkpt lat="46.43136" lon="5.46654">
        <ele>377.79998779297</ele>
        <time>2021-04-05T12:30:59.000Z</time>
      </trkpt>
      <trkpt lat="46.43147" lon="5.4665">
        <ele>378.20001220703</ele>
        <time>2021-04-05T12:31:01.000Z</time>
      </trkpt>
      <trkpt lat="46.43158" lon="5.46644">
        <ele>378.39999389648</ele>
        <time>2021-04-05T12:31:03.000Z</time>
      </trkpt>
      <trkpt lat="46.43168" lon="5.46637">
        <ele>378.60000610352</ele>
        <time>2021-04-05T12:31:05.000Z</time>
      </trkpt>
      <trkpt lat="46.43179" lon="5.4663">
        <ele>378.79998779297</ele>
        <time>2021-04-05T12:31:07.000Z</time>
      </trkpt>
      <trkpt lat="46.43188" lon="5.46622">
        <ele>379</ele>
        <time>2021-04-05T12:31:09.000Z</time>
      </trkpt>
      <trkpt lat="46.43197" lon="5.46613">
        <ele>379.20001220703</ele>
        <time>2021-04-05T12:31:11.000Z</time>
      </trkpt>
      <trkpt lat="46.43206" lon="5.46602">
        <ele>379.39999389648</ele>
        <time>2021-04-05T12:31:13.000Z</time>
      </trkpt>
      <trkpt lat="46.4321" lon="5.46596">
        <ele>379.39999389648</ele>
        <time>2021-04-05T12:31:14.000Z</time>
      </trkpt>
      <trkpt lat="46.43214" lon="5.4659">
        <ele>379.60000610352</ele>
        <time>2021-04-05T12:31:15.000Z</time>
      </trkpt>
      <trkpt lat="46.4322" lon="5.46578">
        <ele>379.79998779297</ele>
        <time>2021-04-05T12:31:17.000Z</time>
      </trkpt>
      <trkpt lat="46.43227" lon="5.46567">
        <ele>380.39999389648</ele>
        <time>2021-04-05T12:31:19.000Z</time>
      </trkpt>
      <trkpt lat="46.43231" lon="5.46561">
        <ele>380.60000610352</ele>
        <time>2021-04-05T12:31:20.000Z</time>
      </trkpt>
      <trkpt lat="46.43235" lon="5.46556">
        <ele>381</ele>
        <time>2021-04-05T12:31:21.000Z</time>
      </trkpt>
      <trkpt lat="46.43243" lon="5.46545">
        <ele>381.20001220703</ele>
        <time>2021-04-05T12:31:23.000Z</time>
      </trkpt>
      <trkpt lat="46.43247" lon="5.46539">
        <ele>381.39999389648</ele>
        <time>2021-04-05T12:31:24.000Z</time>
      </trkpt>
      <trkpt lat="46.43251" lon="5.46534">
        <ele>381.60000610352</ele>
        <time>2021-04-05T12:31:25.000Z</time>
      </trkpt>
      <trkpt lat="46.43255" lon="5.46528">
        <ele>382</ele>
        <time>2021-04-05T12:31:26.000Z</time>
      </trkpt>
      <trkpt lat="46.4326" lon="5.46522">
        <ele>382.20001220703</ele>
        <time>2021-04-05T12:31:27.000Z</time>
      </trkpt>
      <trkpt lat="46.43269" lon="5.4651">
        <ele>382.39999389648</ele>
        <time>2021-04-05T12:31:29.000Z</time>
      </trkpt>
      <trkpt lat="46.43273" lon="5.46503">
        <ele>382.39999389648</ele>
        <time>2021-04-05T12:31:30.000Z</time>
      </trkpt>
      <trkpt lat="46.43277" lon="5.46495">
        <ele>382.39999389648</ele>
        <time>2021-04-05T12:31:31.000Z</time>
      </trkpt>
      <trkpt lat="46.43284" lon="5.46478">
        <ele>382.39999389648</ele>
        <time>2021-04-05T12:31:33.000Z</time>
      </trkpt>
      <trkpt lat="46.43289" lon="5.4646">
        <ele>382.39999389648</ele>
        <time>2021-04-05T12:31:35.000Z</time>
      </trkpt>
      <trkpt lat="46.43294" lon="5.46441">
        <ele>382.39999389648</ele>
        <time>2021-04-05T12:31:37.000Z</time>
      </trkpt>
      <trkpt lat="46.43298" lon="5.46421">
        <ele>382.20001220703</ele>
        <time>2021-04-05T12:31:39.000Z</time>
      </trkpt>
      <trkpt lat="46.43301" lon="5.46401">
        <ele>381.60000610352</ele>
        <time>2021-04-05T12:31:41.000Z</time>
      </trkpt>
      <trkpt lat="46.43305" lon="5.46382">
        <ele>381.20001220703</ele>
        <time>2021-04-05T12:31:43.000Z</time>
      </trkpt>
      <trkpt lat="46.4331" lon="5.46364">
        <ele>381</ele>
        <time>2021-04-05T12:31:45.000Z</time>
      </trkpt>
      <trkpt lat="46.43313" lon="5.46355">
        <ele>380.79998779297</ele>
        <time>2021-04-05T12:31:46.000Z</time>
      </trkpt>
      <trkpt lat="46.43316" lon="5.46345">
        <ele>380.79998779297</ele>
        <time>2021-04-05T12:31:47.000Z</time>
      </trkpt>
      <trkpt lat="46.43322" lon="5.46328">
        <ele>380.39999389648</ele>
        <time>2021-04-05T12:31:49.000Z</time>
      </trkpt>
      <trkpt lat="46.43325" lon="5.46319">
        <ele>380.20001220703</ele>
        <time>2021-04-05T12:31:50.000Z</time>
      </trkpt>
      <trkpt lat="46.43328" lon="5.46311">
        <ele>380.20001220703</ele>
        <time>2021-04-05T12:31:51.000Z</time>
      </trkpt>
      <trkpt lat="46.43336" lon="5.46294">
        <ele>380</ele>
        <time>2021-04-05T12:31:53.000Z</time>
      </trkpt>
      <trkpt lat="46.43343" lon="5.46278">
        <ele>380</ele>
        <time>2021-04-05T12:31:55.000Z</time>
      </trkpt>
      <trkpt lat="46.4335" lon="5.46263">
        <ele>380</ele>
        <time>2021-04-05T12:31:57.000Z</time>
      </trkpt>
      <trkpt lat="46.43354" lon="5.46255">
        <ele>379.79998779297</ele>
        <time>2021-04-05T12:31:58.000Z</time>
      </trkpt>
      <trkpt lat="46.43358" lon="5.46247">
        <ele>379.79998779297</ele>
        <time>2021-04-05T12:31:59.000Z</time>
      </trkpt>
      <trkpt lat="46.43362" lon="5.46239">
        <ele>379.60000610352</ele>
        <time>2021-04-05T12:32:00.000Z</time>
      </trkpt>
      <trkpt lat="46.43367" lon="5.46232">
        <ele>379.60000610352</ele>
        <time>2021-04-05T12:32:01.000Z</time>
      </trkpt>
      <trkpt lat="46.43377" lon="5.46218">
        <ele>379.39999389648</ele>
        <time>2021-04-05T12:32:03.000Z</time>
      </trkpt>
      <trkpt lat="46.4339" lon="5.46205">
        <ele>379.20001220703</ele>
        <time>2021-04-05T12:32:05.000Z</time>
      </trkpt>
      <trkpt lat="46.43405" lon="5.46193">
        <ele>379.20001220703</ele>
        <time>2021-04-05T12:32:07.000Z</time>
      </trkpt>
      <trkpt lat="46.43413" lon="5.46187">
        <ele>379</ele>
        <time>2021-04-05T12:32:08.000Z</time>
      </trkpt>
      <trkpt lat="46.43421" lon="5.4618">
        <ele>378.79998779297</ele>
        <time>2021-04-05T12:32:09.000Z</time>
      </trkpt>
      <trkpt lat="46.43436" lon="5.46168">
        <ele>378.60000610352</ele>
        <time>2021-04-05T12:32:11.000Z</time>
      </trkpt>
      <trkpt lat="46.43451" lon="5.46155">
        <ele>378.39999389648</ele>
        <time>2021-04-05T12:32:13.000Z</time>
      </trkpt>
      <trkpt lat="46.43466" lon="5.46142">
        <ele>378</ele>
        <time>2021-04-05T12:32:15.000Z</time>
      </trkpt>
      <trkpt lat="46.4348" lon="5.46128">
        <ele>377.20001220703</ele>
        <time>2021-04-05T12:32:17.000Z</time>
      </trkpt>
      <trkpt lat="46.43488" lon="5.46122">
        <ele>377</ele>
        <time>2021-04-05T12:32:18.000Z</time>
      </trkpt>
      <trkpt lat="46.43495" lon="5.46116">
        <ele>376.79998779297</ele>
        <time>2021-04-05T12:32:19.000Z</time>
      </trkpt>
      <trkpt lat="46.43502" lon="5.4611">
        <ele>376.79998779297</ele>
        <time>2021-04-05T12:32:20.000Z</time>
      </trkpt>
      <trkpt lat="46.43509" lon="5.46104">
        <ele>376.79998779297</ele>
        <time>2021-04-05T12:32:21.000Z</time>
      </trkpt>
      <trkpt lat="46.43524" lon="5.46094">
        <ele>376.60000610352</ele>
        <time>2021-04-05T12:32:23.000Z</time>
      </trkpt>
      <trkpt lat="46.43539" lon="5.46086">
        <ele>376.60000610352</ele>
        <time>2021-04-05T12:32:25.000Z</time>
      </trkpt>
      <trkpt lat="46.43547" lon="5.46083">
        <ele>376.60000610352</ele>
        <time>2021-04-05T12:32:26.000Z</time>
      </trkpt>
      <trkpt lat="46.43554" lon="5.46081">
        <ele>376.60000610352</ele>
        <time>2021-04-05T12:32:27.000Z</time>
      </trkpt>
      <trkpt lat="46.4357" lon="5.46078">
        <ele>376.60000610352</ele>
        <time>2021-04-05T12:32:29.000Z</time>
      </trkpt>
      <trkpt lat="46.43585" lon="5.46075">
        <ele>376.60000610352</ele>
        <time>2021-04-05T12:32:31.000Z</time>
      </trkpt>
      <trkpt lat="46.43593" lon="5.46073">
        <ele>376.60000610352</ele>
        <time>2021-04-05T12:32:32.000Z</time>
      </trkpt>
      <trkpt lat="46.43601" lon="5.46071">
        <ele>376.60000610352</ele>
        <time>2021-04-05T12:32:33.000Z</time>
      </trkpt>
      <trkpt lat="46.43617" lon="5.46068">
        <ele>376.60000610352</ele>
        <time>2021-04-05T12:32:35.000Z</time>
      </trkpt>
      <trkpt lat="46.43632" lon="5.46065">
        <ele>376.60000610352</ele>
        <time>2021-04-05T12:32:37.000Z</time>
      </trkpt>
      <trkpt lat="46.43648" lon="5.4606">
        <ele>376.39999389648</ele>
        <time>2021-04-05T12:32:39.000Z</time>
      </trkpt>
      <trkpt lat="46.43664" lon="5.46054">
        <ele>376.39999389648</ele>
        <time>2021-04-05T12:32:41.000Z</time>
      </trkpt>
      <trkpt lat="46.43672" lon="5.4605">
        <ele>376.39999389648</ele>
        <time>2021-04-05T12:32:42.000Z</time>
      </trkpt>
      <trkpt lat="46.43679" lon="5.46044">
        <ele>376.39999389648</ele>
        <time>2021-04-05T12:32:43.000Z</time>
      </trkpt>
      <trkpt lat="46.43693" lon="5.46028">
        <ele>376</ele>
        <time>2021-04-05T12:32:45.000Z</time>
      </trkpt>
      <trkpt lat="46.43699" lon="5.46019">
        <ele>375.79998779297</ele>
        <time>2021-04-05T12:32:46.000Z</time>
      </trkpt>
      <trkpt lat="46.43704" lon="5.4601">
        <ele>375.60000610352</ele>
        <time>2021-04-05T12:32:47.000Z</time>
      </trkpt>
      <trkpt lat="46.43716" lon="5.45992">
        <ele>375.39999389648</ele>
        <time>2021-04-05T12:32:49.000Z</time>
      </trkpt>
      <trkpt lat="46.43721" lon="5.45983">
        <ele>375</ele>
        <time>2021-04-05T12:32:50.000Z</time>
      </trkpt>
      <trkpt lat="46.43728" lon="5.45976">
        <ele>374.39999389648</ele>
        <time>2021-04-05T12:32:51.000Z</time>
      </trkpt>
      <trkpt lat="46.43741" lon="5.45962">
        <ele>374</ele>
        <time>2021-04-05T12:32:53.000Z</time>
      </trkpt>
      <trkpt lat="46.43753" lon="5.45948">
        <ele>374</ele>
        <time>2021-04-05T12:32:55.000Z</time>
      </trkpt>
      <trkpt lat="46.43764" lon="5.45934">
        <ele>373.79998779297</ele>
        <time>2021-04-05T12:32:57.000Z</time>
      </trkpt>
      <trkpt lat="46.43776" lon="5.45921">
        <ele>373.79998779297</ele>
        <time>2021-04-05T12:32:59.000Z</time>
      </trkpt>
      <trkpt lat="46.43789" lon="5.45911">
        <ele>374.20001220703</ele>
        <time>2021-04-05T12:33:01.000Z</time>
      </trkpt>
      <trkpt lat="46.43802" lon="5.45903">
        <ele>375</ele>
        <time>2021-04-05T12:33:03.000Z</time>
      </trkpt>
      <trkpt lat="46.43815" lon="5.45897">
        <ele>375.60000610352</ele>
        <time>2021-04-05T12:33:05.000Z</time>
      </trkpt>
      <trkpt lat="46.43828" lon="5.4589">
        <ele>375.79998779297</ele>
        <time>2021-04-05T12:33:07.000Z</time>
      </trkpt>
      <trkpt lat="46.43842" lon="5.45883">
        <ele>375.79998779297</ele>
        <time>2021-04-05T12:33:09.000Z</time>
      </trkpt>
      <trkpt lat="46.43856" lon="5.45876">
        <ele>375.79998779297</ele>
        <time>2021-04-05T12:33:11.000Z</time>
      </trkpt>
      <trkpt lat="46.4387" lon="5.45868">
        <ele>375.79998779297</ele>
        <time>2021-04-05T12:33:13.000Z</time>
      </trkpt>
      <trkpt lat="46.43885" lon="5.45858">
        <ele>375.79998779297</ele>
        <time>2021-04-05T12:33:15.000Z</time>
      </trkpt>
      <trkpt lat="46.43891" lon="5.45852">
        <ele>375.79998779297</ele>
        <time>2021-04-05T12:33:16.000Z</time>
      </trkpt>
      <trkpt lat="46.43897" lon="5.45844">
        <ele>375.60000610352</ele>
        <time>2021-04-05T12:33:17.000Z</time>
      </trkpt>
      <trkpt lat="46.43901" lon="5.45835">
        <ele>375.60000610352</ele>
        <time>2021-04-05T12:33:18.000Z</time>
      </trkpt>
      <trkpt lat="46.43903" lon="5.45825">
        <ele>375.60000610352</ele>
        <time>2021-04-05T12:33:19.000Z</time>
      </trkpt>
      <trkpt lat="46.43901" lon="5.45803">
        <ele>375</ele>
        <time>2021-04-05T12:33:21.000Z</time>
      </trkpt>
      <trkpt lat="46.43898" lon="5.45793">
        <ele>374.39999389648</ele>
        <time>2021-04-05T12:33:22.000Z</time>
      </trkpt>
      <trkpt lat="46.43895" lon="5.45783">
        <ele>374.20001220703</ele>
        <time>2021-04-05T12:33:23.000Z</time>
      </trkpt>
      <trkpt lat="46.43889" lon="5.45764">
        <ele>373.79998779297</ele>
        <time>2021-04-05T12:33:25.000Z</time>
      </trkpt>
      <trkpt lat="46.43886" lon="5.45754">
        <ele>373.79998779297</ele>
        <time>2021-04-05T12:33:26.000Z</time>
      </trkpt>
      <trkpt lat="46.43883" lon="5.45746">
        <ele>373.60000610352</ele>
        <time>2021-04-05T12:33:27.000Z</time>
      </trkpt>
      <trkpt lat="46.43881" lon="5.45737">
        <ele>373.60000610352</ele>
        <time>2021-04-05T12:33:28.000Z</time>
      </trkpt>
      <trkpt lat="46.4388" lon="5.45729">
        <ele>373.60000610352</ele>
        <time>2021-04-05T12:33:29.000Z</time>
      </trkpt>
      <trkpt lat="46.43879" lon="5.45722">
        <ele>373.60000610352</ele>
        <time>2021-04-05T12:33:30.000Z</time>
      </trkpt>
      <trkpt lat="46.43879" lon="5.45716">
        <ele>373.60000610352</ele>
        <time>2021-04-05T12:33:31.000Z</time>
      </trkpt>
      <trkpt lat="46.4388" lon="5.45706">
        <ele>373.60000610352</ele>
        <time>2021-04-05T12:33:33.000Z</time>
      </trkpt>
      <trkpt lat="46.43881" lon="5.45703">
        <ele>373.60000610352</ele>
        <time>2021-04-05T12:33:34.000Z</time>
      </trkpt>
      <trkpt lat="46.43883" lon="5.457">
        <ele>373.79998779297</ele>
        <time>2021-04-05T12:33:35.000Z</time>
      </trkpt>
      <trkpt lat="46.43886" lon="5.45697">
        <ele>373.79998779297</ele>
        <time>2021-04-05T12:33:36.000Z</time>
      </trkpt>
      <trkpt lat="46.4389" lon="5.45696">
        <ele>373.79998779297</ele>
        <time>2021-04-05T12:33:37.000Z</time>
      </trkpt>
      <trkpt lat="46.439" lon="5.45694">
        <ele>374.39999389648</ele>
        <time>2021-04-05T12:33:39.000Z</time>
      </trkpt>
      <trkpt lat="46.43905" lon="5.45693">
        <ele>374.60000610352</ele>
        <time>2021-04-05T12:33:40.000Z</time>
      </trkpt>
      <trkpt lat="46.43911" lon="5.45693">
        <ele>375</ele>
        <time>2021-04-05T12:33:41.000Z</time>
      </trkpt>
      <trkpt lat="46.43917" lon="5.45692">
        <ele>375</ele>
        <time>2021-04-05T12:33:42.000Z</time>
      </trkpt>
      <trkpt lat="46.43923" lon="5.45691">
        <ele>375.20001220703</ele>
        <time>2021-04-05T12:33:43.000Z</time>
      </trkpt>
      <trkpt lat="46.43937" lon="5.45689">
        <ele>375.20001220703</ele>
        <time>2021-04-05T12:33:45.000Z</time>
      </trkpt>
      <trkpt lat="46.4395" lon="5.45687">
        <ele>375.20001220703</ele>
        <time>2021-04-05T12:33:47.000Z</time>
      </trkpt>
      <trkpt lat="46.43964" lon="5.45684">
        <ele>375.20001220703</ele>
        <time>2021-04-05T12:33:49.000Z</time>
      </trkpt>
      <trkpt lat="46.43978" lon="5.45681">
        <ele>375</ele>
        <time>2021-04-05T12:33:51.000Z</time>
      </trkpt>
      <trkpt lat="46.43991" lon="5.45679">
        <ele>374.79998779297</ele>
        <time>2021-04-05T12:33:53.000Z</time>
      </trkpt>
      <trkpt lat="46.44005" lon="5.45676">
        <ele>374.60000610352</ele>
        <time>2021-04-05T12:33:55.000Z</time>
      </trkpt>
      <trkpt lat="46.44018" lon="5.45674">
        <ele>374.60000610352</ele>
        <time>2021-04-05T12:33:57.000Z</time>
      </trkpt>
      <trkpt lat="46.44024" lon="5.45673">
        <ele>374.60000610352</ele>
        <time>2021-04-05T12:33:58.000Z</time>
      </trkpt>
      <trkpt lat="46.44031" lon="5.45672">
        <ele>374.60000610352</ele>
        <time>2021-04-05T12:33:59.000Z</time>
      </trkpt>
      <trkpt lat="46.44044" lon="5.45669">
        <ele>374.60000610352</ele>
        <time>2021-04-05T12:34:01.000Z</time>
      </trkpt>
      <trkpt lat="46.44057" lon="5.45667">
        <ele>374.60000610352</ele>
        <time>2021-04-05T12:34:03.000Z</time>
      </trkpt>
      <trkpt lat="46.4407" lon="5.45664">
        <ele>374.79998779297</ele>
        <time>2021-04-05T12:34:05.000Z</time>
      </trkpt>
      <trkpt lat="46.44076" lon="5.45663">
        <ele>374.79998779297</ele>
        <time>2021-04-05T12:34:06.000Z</time>
      </trkpt>
      <trkpt lat="46.44082" lon="5.45662">
        <ele>374.79998779297</ele>
        <time>2021-04-05T12:34:07.000Z</time>
      </trkpt>
      <trkpt lat="46.44095" lon="5.4566">
        <ele>375</ele>
        <time>2021-04-05T12:34:09.000Z</time>
      </trkpt>
      <trkpt lat="46.44108" lon="5.45658">
        <ele>375.20001220703</ele>
        <time>2021-04-05T12:34:11.000Z</time>
      </trkpt>
      <trkpt lat="46.4412" lon="5.45655">
        <ele>375.60000610352</ele>
        <time>2021-04-05T12:34:13.000Z</time>
      </trkpt>
      <trkpt lat="46.44133" lon="5.45653">
        <ele>375.60000610352</ele>
        <time>2021-04-05T12:34:15.000Z</time>
      </trkpt>
      <trkpt lat="46.44139" lon="5.45651">
        <ele>375.79998779297</ele>
        <time>2021-04-05T12:34:16.000Z</time>
      </trkpt>
      <trkpt lat="46.44146" lon="5.4565">
        <ele>376</ele>
        <time>2021-04-05T12:34:17.000Z</time>
      </trkpt>
      <trkpt lat="46.44159" lon="5.45648">
        <ele>376</ele>
        <time>2021-04-05T12:34:19.000Z</time>
      </trkpt>
      <trkpt lat="46.44172" lon="5.45645">
        <ele>376.20001220703</ele>
        <time>2021-04-05T12:34:21.000Z</time>
      </trkpt>
      <trkpt lat="46.44184" lon="5.45642">
        <ele>376.20001220703</ele>
        <time>2021-04-05T12:34:23.000Z</time>
      </trkpt>
      <trkpt lat="46.44197" lon="5.4564">
        <ele>376.39999389648</ele>
        <time>2021-04-05T12:34:25.000Z</time>
      </trkpt>
      <trkpt lat="46.44203" lon="5.45639">
        <ele>376.60000610352</ele>
        <time>2021-04-05T12:34:26.000Z</time>
      </trkpt>
      <trkpt lat="46.44209" lon="5.45638">
        <ele>376.60000610352</ele>
        <time>2021-04-05T12:34:27.000Z</time>
      </trkpt>
      <trkpt lat="46.44222" lon="5.45635">
        <ele>376.60000610352</ele>
        <time>2021-04-05T12:34:29.000Z</time>
      </trkpt>
      <trkpt lat="46.44234" lon="5.45633">
        <ele>376.60000610352</ele>
        <time>2021-04-05T12:34:31.000Z</time>
      </trkpt>
      <trkpt lat="46.44246" lon="5.45631">
        <ele>376.60000610352</ele>
        <time>2021-04-05T12:34:33.000Z</time>
      </trkpt>
      <trkpt lat="46.44258" lon="5.4563">
        <ele>376.79998779297</ele>
        <time>2021-04-05T12:34:35.000Z</time>
      </trkpt>
      <trkpt lat="46.44264" lon="5.4563">
        <ele>376.79998779297</ele>
        <time>2021-04-05T12:34:36.000Z</time>
      </trkpt>
      <trkpt lat="46.4427" lon="5.4563">
        <ele>376.79998779297</ele>
        <time>2021-04-05T12:34:37.000Z</time>
      </trkpt>
      <trkpt lat="46.44281" lon="5.4563">
        <ele>377</ele>
        <time>2021-04-05T12:34:39.000Z</time>
      </trkpt>
      <trkpt lat="46.44293" lon="5.45631">
        <ele>377</ele>
        <time>2021-04-05T12:34:41.000Z</time>
      </trkpt>
      <trkpt lat="46.44298" lon="5.45632">
        <ele>377.20001220703</ele>
        <time>2021-04-05T12:34:42.000Z</time>
      </trkpt>
      <trkpt lat="46.44304" lon="5.45632">
        <ele>377.20001220703</ele>
        <time>2021-04-05T12:34:43.000Z</time>
      </trkpt>
      <trkpt lat="46.44315" lon="5.45634">
        <ele>377.39999389648</ele>
        <time>2021-04-05T12:34:45.000Z</time>
      </trkpt>
      <trkpt lat="46.44321" lon="5.45634">
        <ele>377.79998779297</ele>
        <time>2021-04-05T12:34:46.000Z</time>
      </trkpt>
      <trkpt lat="46.44327" lon="5.45635">
        <ele>377.79998779297</ele>
        <time>2021-04-05T12:34:47.000Z</time>
      </trkpt>
      <trkpt lat="46.44338" lon="5.45636">
        <ele>378</ele>
        <time>2021-04-05T12:34:49.000Z</time>
      </trkpt>
      <trkpt lat="46.44343" lon="5.45637">
        <ele>378.20001220703</ele>
        <time>2021-04-05T12:34:50.000Z</time>
      </trkpt>
      <trkpt lat="46.44349" lon="5.45637">
        <ele>378.60000610352</ele>
        <time>2021-04-05T12:34:51.000Z</time>
      </trkpt>
      <trkpt lat="46.44359" lon="5.45638">
        <ele>379</ele>
        <time>2021-04-05T12:34:53.000Z</time>
      </trkpt>
      <trkpt lat="46.4437" lon="5.4564">
        <ele>379.20001220703</ele>
        <time>2021-04-05T12:34:55.000Z</time>
      </trkpt>
      <trkpt lat="46.44375" lon="5.4564">
        <ele>379.39999389648</ele>
        <time>2021-04-05T12:34:56.000Z</time>
      </trkpt>
      <trkpt lat="46.44381" lon="5.45641">
        <ele>379.60000610352</ele>
        <time>2021-04-05T12:34:57.000Z</time>
      </trkpt>
      <trkpt lat="46.44386" lon="5.45641">
        <ele>379.60000610352</ele>
        <time>2021-04-05T12:34:58.000Z</time>
      </trkpt>
      <trkpt lat="46.44391" lon="5.45642">
        <ele>379.60000610352</ele>
        <time>2021-04-05T12:34:59.000Z</time>
      </trkpt>
      <trkpt lat="46.44402" lon="5.45643">
        <ele>379.79998779297</ele>
        <time>2021-04-05T12:35:01.000Z</time>
      </trkpt>
      <trkpt lat="46.44413" lon="5.45644">
        <ele>380</ele>
        <time>2021-04-05T12:35:03.000Z</time>
      </trkpt>
      <trkpt lat="46.44424" lon="5.45645">
        <ele>380.79998779297</ele>
        <time>2021-04-05T12:35:05.000Z</time>
      </trkpt>
      <trkpt lat="46.44434" lon="5.45646">
        <ele>381.20001220703</ele>
        <time>2021-04-05T12:35:07.000Z</time>
      </trkpt>
      <trkpt lat="46.4444" lon="5.45647">
        <ele>381.60000610352</ele>
        <time>2021-04-05T12:35:08.000Z</time>
      </trkpt>
      <trkpt lat="46.44445" lon="5.45648">
        <ele>381.60000610352</ele>
        <time>2021-04-05T12:35:09.000Z</time>
      </trkpt>
      <trkpt lat="46.4445" lon="5.45648">
        <ele>381.79998779297</ele>
        <time>2021-04-05T12:35:10.000Z</time>
      </trkpt>
      <trkpt lat="46.44455" lon="5.45649">
        <ele>382.20001220703</ele>
        <time>2021-04-05T12:35:11.000Z</time>
      </trkpt>
      <trkpt lat="46.44466" lon="5.4565">
        <ele>382.39999389648</ele>
        <time>2021-04-05T12:35:13.000Z</time>
      </trkpt>
      <trkpt lat="46.44477" lon="5.45651">
        <ele>382.60000610352</ele>
        <time>2021-04-05T12:35:15.000Z</time>
      </trkpt>
      <trkpt lat="46.44488" lon="5.45653">
        <ele>382.79998779297</ele>
        <time>2021-04-05T12:35:17.000Z</time>
      </trkpt>
      <trkpt lat="46.44493" lon="5.45654">
        <ele>382.79998779297</ele>
        <time>2021-04-05T12:35:18.000Z</time>
      </trkpt>
      <trkpt lat="46.44499" lon="5.45655">
        <ele>382.79998779297</ele>
        <time>2021-04-05T12:35:19.000Z</time>
      </trkpt>
      <trkpt lat="46.44511" lon="5.45657">
        <ele>383.39999389648</ele>
        <time>2021-04-05T12:35:21.000Z</time>
      </trkpt>
      <trkpt lat="46.44523" lon="5.4566">
        <ele>383.79998779297</ele>
        <time>2021-04-05T12:35:23.000Z</time>
      </trkpt>
      <trkpt lat="46.44536" lon="5.45664">
        <ele>384</ele>
        <time>2021-04-05T12:35:25.000Z</time>
      </trkpt>
      <trkpt lat="46.44542" lon="5.45666">
        <ele>384</ele>
        <time>2021-04-05T12:35:26.000Z</time>
      </trkpt>
      <trkpt lat="46.44549" lon="5.45668">
        <ele>384</ele>
        <time>2021-04-05T12:35:27.000Z</time>
      </trkpt>
      <trkpt lat="46.44563" lon="5.45672">
        <ele>384</ele>
        <time>2021-04-05T12:35:29.000Z</time>
      </trkpt>
      <trkpt lat="46.44577" lon="5.45676">
        <ele>384</ele>
        <time>2021-04-05T12:35:31.000Z</time>
      </trkpt>
      <trkpt lat="46.44591" lon="5.45681">
        <ele>383.79998779297</ele>
        <time>2021-04-05T12:35:33.000Z</time>
      </trkpt>
      <trkpt lat="46.44605" lon="5.45686">
        <ele>383.60000610352</ele>
        <time>2021-04-05T12:35:35.000Z</time>
      </trkpt>
      <trkpt lat="46.4462" lon="5.4569">
        <ele>383.60000610352</ele>
        <time>2021-04-05T12:35:37.000Z</time>
      </trkpt>
      <trkpt lat="46.44635" lon="5.45695">
        <ele>383.39999389648</ele>
        <time>2021-04-05T12:35:39.000Z</time>
      </trkpt>
      <trkpt lat="46.4465" lon="5.457">
        <ele>383.39999389648</ele>
        <time>2021-04-05T12:35:41.000Z</time>
      </trkpt>
      <trkpt lat="46.44657" lon="5.45703">
        <ele>383.39999389648</ele>
        <time>2021-04-05T12:35:42.000Z</time>
      </trkpt>
      <trkpt lat="46.44664" lon="5.45705">
        <ele>383.20001220703</ele>
        <time>2021-04-05T12:35:43.000Z</time>
      </trkpt>
      <trkpt lat="46.44679" lon="5.45711">
        <ele>383.20001220703</ele>
        <time>2021-04-05T12:35:45.000Z</time>
      </trkpt>
      <trkpt lat="46.44693" lon="5.45716">
        <ele>383</ele>
        <time>2021-04-05T12:35:47.000Z</time>
      </trkpt>
      <trkpt lat="46.44707" lon="5.45722">
        <ele>383</ele>
        <time>2021-04-05T12:35:49.000Z</time>
      </trkpt>
      <trkpt lat="46.44721" lon="5.45728">
        <ele>383</ele>
        <time>2021-04-05T12:35:51.000Z</time>
      </trkpt>
      <trkpt lat="46.44734" lon="5.45735">
        <ele>383</ele>
        <time>2021-04-05T12:35:53.000Z</time>
      </trkpt>
      <trkpt lat="46.44748" lon="5.45741">
        <ele>383</ele>
        <time>2021-04-05T12:35:55.000Z</time>
      </trkpt>
      <trkpt lat="46.44761" lon="5.45748">
        <ele>383.20001220703</ele>
        <time>2021-04-05T12:35:57.000Z</time>
      </trkpt>
      <trkpt lat="46.44774" lon="5.45756">
        <ele>383.39999389648</ele>
        <time>2021-04-05T12:35:59.000Z</time>
      </trkpt>
      <trkpt lat="46.4478" lon="5.45759">
        <ele>383.60000610352</ele>
        <time>2021-04-05T12:36:00.000Z</time>
      </trkpt>
      <trkpt lat="46.44787" lon="5.45763">
        <ele>383.60000610352</ele>
        <time>2021-04-05T12:36:01.000Z</time>
      </trkpt>
      <trkpt lat="46.44799" lon="5.4577">
        <ele>384</ele>
        <time>2021-04-05T12:36:03.000Z</time>
      </trkpt>
      <trkpt lat="46.44812" lon="5.45777">
        <ele>384</ele>
        <time>2021-04-05T12:36:05.000Z</time>
      </trkpt>
      <trkpt lat="46.44825" lon="5.45785">
        <ele>384.20001220703</ele>
        <time>2021-04-05T12:36:07.000Z</time>
      </trkpt>
      <trkpt lat="46.44838" lon="5.45792">
        <ele>384.60000610352</ele>
        <time>2021-04-05T12:36:09.000Z</time>
      </trkpt>
      <trkpt lat="46.44844" lon="5.45796">
        <ele>384.79998779297</ele>
        <time>2021-04-05T12:36:10.000Z</time>
      </trkpt>
      <trkpt lat="46.44851" lon="5.458">
        <ele>384.79998779297</ele>
        <time>2021-04-05T12:36:11.000Z</time>
      </trkpt>
      <trkpt lat="46.44864" lon="5.45807">
        <ele>384.79998779297</ele>
        <time>2021-04-05T12:36:13.000Z</time>
      </trkpt>
      <trkpt lat="46.44878" lon="5.45815">
        <ele>384.79998779297</ele>
        <time>2021-04-05T12:36:15.000Z</time>
      </trkpt>
      <trkpt lat="46.44891" lon="5.45823">
        <ele>384.79998779297</ele>
        <time>2021-04-05T12:36:17.000Z</time>
      </trkpt>
      <trkpt lat="46.44898" lon="5.45827">
        <ele>384.79998779297</ele>
        <time>2021-04-05T12:36:18.000Z</time>
      </trkpt>
      <trkpt lat="46.44904" lon="5.4583">
        <ele>384.79998779297</ele>
        <time>2021-04-05T12:36:19.000Z</time>
      </trkpt>
      <trkpt lat="46.44918" lon="5.45838">
        <ele>384.60000610352</ele>
        <time>2021-04-05T12:36:21.000Z</time>
      </trkpt>
      <trkpt lat="46.44931" lon="5.45845">
        <ele>384.39999389648</ele>
        <time>2021-04-05T12:36:23.000Z</time>
      </trkpt>
      <trkpt lat="46.44944" lon="5.45854">
        <ele>384.39999389648</ele>
        <time>2021-04-05T12:36:25.000Z</time>
      </trkpt>
      <trkpt lat="46.44958" lon="5.45862">
        <ele>384.20001220703</ele>
        <time>2021-04-05T12:36:27.000Z</time>
      </trkpt>
      <trkpt lat="46.44972" lon="5.4587">
        <ele>384.20001220703</ele>
        <time>2021-04-05T12:36:29.000Z</time>
      </trkpt>
      <trkpt lat="46.44986" lon="5.45879">
        <ele>384</ele>
        <time>2021-04-05T12:36:31.000Z</time>
      </trkpt>
      <trkpt lat="46.45" lon="5.45887">
        <ele>383.39999389648</ele>
        <time>2021-04-05T12:36:33.000Z</time>
      </trkpt>
      <trkpt lat="46.45014" lon="5.45896">
        <ele>383</ele>
        <time>2021-04-05T12:36:35.000Z</time>
      </trkpt>
      <trkpt lat="46.45021" lon="5.459">
        <ele>382.79998779297</ele>
        <time>2021-04-05T12:36:36.000Z</time>
      </trkpt>
      <trkpt lat="46.45036" lon="5.45909">
        <ele>382.20001220703</ele>
        <time>2021-04-05T12:36:38.000Z</time>
      </trkpt>
      <trkpt lat="46.45043" lon="5.45914">
        <ele>381.79998779297</ele>
        <time>2021-04-05T12:36:39.000Z</time>
      </trkpt>
      <trkpt lat="46.45051" lon="5.45919">
        <ele>381.60000610352</ele>
        <time>2021-04-05T12:36:40.000Z</time>
      </trkpt>
      <trkpt lat="46.45066" lon="5.45927">
        <ele>381.20001220703</ele>
        <time>2021-04-05T12:36:42.000Z</time>
      </trkpt>
      <trkpt lat="46.45082" lon="5.45935">
        <ele>380.79998779297</ele>
        <time>2021-04-05T12:36:44.000Z</time>
      </trkpt>
      <trkpt lat="46.45089" lon="5.45938">
        <ele>380.60000610352</ele>
        <time>2021-04-05T12:36:45.000Z</time>
      </trkpt>
      <trkpt lat="46.45097" lon="5.45942">
        <ele>380.39999389648</ele>
        <time>2021-04-05T12:36:46.000Z</time>
      </trkpt>
      <trkpt lat="46.45112" lon="5.45949">
        <ele>380.20001220703</ele>
        <time>2021-04-05T12:36:48.000Z</time>
      </trkpt>
      <trkpt lat="46.45126" lon="5.45958">
        <ele>380</ele>
        <time>2021-04-05T12:36:50.000Z</time>
      </trkpt>
      <trkpt lat="46.45132" lon="5.45963">
        <ele>380</ele>
        <time>2021-04-05T12:36:51.000Z</time>
      </trkpt>
      <trkpt lat="46.45139" lon="5.45968">
        <ele>380</ele>
        <time>2021-04-05T12:36:52.000Z</time>
      </trkpt>
      <trkpt lat="46.45151" lon="5.45978">
        <ele>380</ele>
        <time>2021-04-05T12:36:54.000Z</time>
      </trkpt>
      <trkpt lat="46.45162" lon="5.45987">
        <ele>380</ele>
        <time>2021-04-05T12:36:56.000Z</time>
      </trkpt>
      <trkpt lat="46.45167" lon="5.45991">
        <ele>380</ele>
        <time>2021-04-05T12:36:57.000Z</time>
      </trkpt>
      <trkpt lat="46.45173" lon="5.45995">
        <ele>380</ele>
        <time>2021-04-05T12:36:58.000Z</time>
      </trkpt>
      <trkpt lat="46.45185" lon="5.46002">
        <ele>380</ele>
        <time>2021-04-05T12:37:00.000Z</time>
      </trkpt>
      <trkpt lat="46.45196" lon="5.4601">
        <ele>380.39999389648</ele>
        <time>2021-04-05T12:37:02.000Z</time>
      </trkpt>
      <trkpt lat="46.45206" lon="5.46018">
        <ele>381</ele>
        <time>2021-04-05T12:37:04.000Z</time>
      </trkpt>
      <trkpt lat="46.45216" lon="5.46027">
        <ele>382.60000610352</ele>
        <time>2021-04-05T12:37:06.000Z</time>
      </trkpt>
      <trkpt lat="46.45226" lon="5.46036">
        <ele>383</ele>
        <time>2021-04-05T12:37:08.000Z</time>
      </trkpt>
      <trkpt lat="46.45236" lon="5.46043">
        <ele>383.39999389648</ele>
        <time>2021-04-05T12:37:10.000Z</time>
      </trkpt>
      <trkpt lat="46.45241" lon="5.46045">
        <ele>383.60000610352</ele>
        <time>2021-04-05T12:37:11.000Z</time>
      </trkpt>
      <trkpt lat="46.45247" lon="5.46047">
        <ele>383.60000610352</ele>
        <time>2021-04-05T12:37:12.000Z</time>
      </trkpt>
      <trkpt lat="46.45257" lon="5.46051">
        <ele>383.79998779297</ele>
        <time>2021-04-05T12:37:14.000Z</time>
      </trkpt>
      <trkpt lat="46.45263" lon="5.46052">
        <ele>384</ele>
        <time>2021-04-05T12:37:15.000Z</time>
      </trkpt>
      <trkpt lat="46.45274" lon="5.46054">
        <ele>384.79998779297</ele>
        <time>2021-04-05T12:37:17.000Z</time>
      </trkpt>
      <trkpt lat="46.4528" lon="5.46056">
        <ele>385.20001220703</ele>
        <time>2021-04-05T12:37:18.000Z</time>
      </trkpt>
      <trkpt lat="46.45286" lon="5.46057">
        <ele>385.60000610352</ele>
        <time>2021-04-05T12:37:19.000Z</time>
      </trkpt>
      <trkpt lat="46.45299" lon="5.46059">
        <ele>385.79998779297</ele>
        <time>2021-04-05T12:37:21.000Z</time>
      </trkpt>
      <trkpt lat="46.45312" lon="5.46061">
        <ele>386</ele>
        <time>2021-04-05T12:37:23.000Z</time>
      </trkpt>
      <trkpt lat="46.45326" lon="5.46064">
        <ele>386</ele>
        <time>2021-04-05T12:37:25.000Z</time>
      </trkpt>
      <trkpt lat="46.45333" lon="5.46065">
        <ele>386.20001220703</ele>
        <time>2021-04-05T12:37:26.000Z</time>
      </trkpt>
      <trkpt lat="46.4534" lon="5.46066">
        <ele>386.39999389648</ele>
        <time>2021-04-05T12:37:27.000Z</time>
      </trkpt>
      <trkpt lat="46.45355" lon="5.46068">
        <ele>386.39999389648</ele>
        <time>2021-04-05T12:37:29.000Z</time>
      </trkpt>
      <trkpt lat="46.45369" lon="5.46071">
        <ele>386.39999389648</ele>
        <time>2021-04-05T12:37:31.000Z</time>
      </trkpt>
      <trkpt lat="46.45384" lon="5.46074">
        <ele>386.20001220703</ele>
        <time>2021-04-05T12:37:33.000Z</time>
      </trkpt>
      <trkpt lat="46.454" lon="5.46076">
        <ele>386</ele>
        <time>2021-04-05T12:37:35.000Z</time>
      </trkpt>
      <trkpt lat="46.45415" lon="5.46079">
        <ele>386</ele>
        <time>2021-04-05T12:37:37.000Z</time>
      </trkpt>
      <trkpt lat="46.45431" lon="5.46081">
        <ele>385.79998779297</ele>
        <time>2021-04-05T12:37:39.000Z</time>
      </trkpt>
      <trkpt lat="46.45448" lon="5.46084">
        <ele>385.60000610352</ele>
        <time>2021-04-05T12:37:41.000Z</time>
      </trkpt>
      <trkpt lat="46.45464" lon="5.46087">
        <ele>385.60000610352</ele>
        <time>2021-04-05T12:37:43.000Z</time>
      </trkpt>
      <trkpt lat="46.45481" lon="5.4609">
        <ele>385.39999389648</ele>
        <time>2021-04-05T12:37:45.000Z</time>
      </trkpt>
      <trkpt lat="46.45498" lon="5.46093">
        <ele>384.79998779297</ele>
        <time>2021-04-05T12:37:47.000Z</time>
      </trkpt>
      <trkpt lat="46.45515" lon="5.46096">
        <ele>384.39999389648</ele>
        <time>2021-04-05T12:37:49.000Z</time>
      </trkpt>
      <trkpt lat="46.45533" lon="5.46099">
        <ele>383.60000610352</ele>
        <time>2021-04-05T12:37:51.000Z</time>
      </trkpt>
      <trkpt lat="46.45551" lon="5.46102">
        <ele>383.39999389648</ele>
        <time>2021-04-05T12:37:53.000Z</time>
      </trkpt>
      <trkpt lat="46.45559" lon="5.46104">
        <ele>383.20001220703</ele>
        <time>2021-04-05T12:37:54.000Z</time>
      </trkpt>
      <trkpt lat="46.45568" lon="5.46106">
        <ele>382.79998779297</ele>
        <time>2021-04-05T12:37:55.000Z</time>
      </trkpt>
      <trkpt lat="46.45577" lon="5.46107">
        <ele>382.60000610352</ele>
        <time>2021-04-05T12:37:56.000Z</time>
      </trkpt>
      <trkpt lat="46.45587" lon="5.46109">
        <ele>382.60000610352</ele>
        <time>2021-04-05T12:37:57.000Z</time>
      </trkpt>
      <trkpt lat="46.45605" lon="5.46112">
        <ele>382.39999389648</ele>
        <time>2021-04-05T12:37:59.000Z</time>
      </trkpt>
      <trkpt lat="46.45624" lon="5.46115">
        <ele>381.60000610352</ele>
        <time>2021-04-05T12:38:01.000Z</time>
      </trkpt>
      <trkpt lat="46.45633" lon="5.46117">
        <ele>381.39999389648</ele>
        <time>2021-04-05T12:38:02.000Z</time>
      </trkpt>
      <trkpt lat="46.45642" lon="5.46118">
        <ele>381</ele>
        <time>2021-04-05T12:38:03.000Z</time>
      </trkpt>
      <trkpt lat="46.45661" lon="5.46122">
        <ele>380.79998779297</ele>
        <time>2021-04-05T12:38:05.000Z</time>
      </trkpt>
      <trkpt lat="46.45679" lon="5.46125">
        <ele>380.39999389648</ele>
        <time>2021-04-05T12:38:07.000Z</time>
      </trkpt>
      <trkpt lat="46.45698" lon="5.46128">
        <ele>379.79998779297</ele>
        <time>2021-04-05T12:38:09.000Z</time>
      </trkpt>
      <trkpt lat="46.45717" lon="5.46132">
        <ele>379.39999389648</ele>
        <time>2021-04-05T12:38:11.000Z</time>
      </trkpt>
      <trkpt lat="46.45726" lon="5.46134">
        <ele>379.20001220703</ele>
        <time>2021-04-05T12:38:12.000Z</time>
      </trkpt>
      <trkpt lat="46.45735" lon="5.46135">
        <ele>379.20001220703</ele>
        <time>2021-04-05T12:38:13.000Z</time>
      </trkpt>
      <trkpt lat="46.45754" lon="5.46138">
        <ele>379</ele>
        <time>2021-04-05T12:38:15.000Z</time>
      </trkpt>
      <trkpt lat="46.45772" lon="5.46142">
        <ele>379</ele>
        <time>2021-04-05T12:38:17.000Z</time>
      </trkpt>
      <trkpt lat="46.4579" lon="5.46145">
        <ele>378.79998779297</ele>
        <time>2021-04-05T12:38:19.000Z</time>
      </trkpt>
      <trkpt lat="46.45808" lon="5.46147">
        <ele>378.79998779297</ele>
        <time>2021-04-05T12:38:21.000Z</time>
      </trkpt>
      <trkpt lat="46.45825" lon="5.46151">
        <ele>378.79998779297</ele>
        <time>2021-04-05T12:38:23.000Z</time>
      </trkpt>
      <trkpt lat="46.45842" lon="5.46154">
        <ele>378.60000610352</ele>
        <time>2021-04-05T12:38:25.000Z</time>
      </trkpt>
      <trkpt lat="46.45859" lon="5.46157">
        <ele>378.60000610352</ele>
        <time>2021-04-05T12:38:27.000Z</time>
      </trkpt>
      <trkpt lat="46.45876" lon="5.4616">
        <ele>378.60000610352</ele>
        <time>2021-04-05T12:38:29.000Z</time>
      </trkpt>
      <trkpt lat="46.45892" lon="5.46163">
        <ele>378.60000610352</ele>
        <time>2021-04-05T12:38:31.000Z</time>
      </trkpt>
      <trkpt lat="46.45909" lon="5.46166">
        <ele>378.60000610352</ele>
        <time>2021-04-05T12:38:33.000Z</time>
      </trkpt>
      <trkpt lat="46.45925" lon="5.46169">
        <ele>378.60000610352</ele>
        <time>2021-04-05T12:38:35.000Z</time>
      </trkpt>
      <trkpt lat="46.45942" lon="5.46172">
        <ele>378.79998779297</ele>
        <time>2021-04-05T12:38:37.000Z</time>
      </trkpt>
      <trkpt lat="46.4595" lon="5.46173">
        <ele>378.79998779297</ele>
        <time>2021-04-05T12:38:38.000Z</time>
      </trkpt>
      <trkpt lat="46.45959" lon="5.46174">
        <ele>378.79998779297</ele>
        <time>2021-04-05T12:38:39.000Z</time>
      </trkpt>
      <trkpt lat="46.45975" lon="5.46177">
        <ele>378.79998779297</ele>
        <time>2021-04-05T12:38:41.000Z</time>
      </trkpt>
      <trkpt lat="46.45991" lon="5.4618">
        <ele>378.79998779297</ele>
        <time>2021-04-05T12:38:43.000Z</time>
      </trkpt>
      <trkpt lat="46.46008" lon="5.46183">
        <ele>379</ele>
        <time>2021-04-05T12:38:45.000Z</time>
      </trkpt>
      <trkpt lat="46.46024" lon="5.46186">
        <ele>379</ele>
        <time>2021-04-05T12:38:47.000Z</time>
      </trkpt>
      <trkpt lat="46.4604" lon="5.46188">
        <ele>379</ele>
        <time>2021-04-05T12:38:49.000Z</time>
      </trkpt>
      <trkpt lat="46.46056" lon="5.46191">
        <ele>379</ele>
        <time>2021-04-05T12:38:51.000Z</time>
      </trkpt>
      <trkpt lat="46.46072" lon="5.46194">
        <ele>378.79998779297</ele>
        <time>2021-04-05T12:38:53.000Z</time>
      </trkpt>
      <trkpt lat="46.46088" lon="5.46197">
        <ele>378.79998779297</ele>
        <time>2021-04-05T12:38:55.000Z</time>
      </trkpt>
      <trkpt lat="46.46104" lon="5.462">
        <ele>378.79998779297</ele>
        <time>2021-04-05T12:38:57.000Z</time>
      </trkpt>
      <trkpt lat="46.4612" lon="5.46203">
        <ele>378.79998779297</ele>
        <time>2021-04-05T12:38:59.000Z</time>
      </trkpt>
      <trkpt lat="46.46135" lon="5.46206">
        <ele>378.79998779297</ele>
        <time>2021-04-05T12:39:01.000Z</time>
      </trkpt>
      <trkpt lat="46.46151" lon="5.46208">
        <ele>378.79998779297</ele>
        <time>2021-04-05T12:39:03.000Z</time>
      </trkpt>
      <trkpt lat="46.46166" lon="5.46211">
        <ele>378.79998779297</ele>
        <time>2021-04-05T12:39:05.000Z</time>
      </trkpt>
      <trkpt lat="46.46181" lon="5.46214">
        <ele>378.79998779297</ele>
        <time>2021-04-05T12:39:07.000Z</time>
      </trkpt>
      <trkpt lat="46.46195" lon="5.46216">
        <ele>378.79998779297</ele>
        <time>2021-04-05T12:39:09.000Z</time>
      </trkpt>
      <trkpt lat="46.4621" lon="5.46219">
        <ele>378.79998779297</ele>
        <time>2021-04-05T12:39:11.000Z</time>
      </trkpt>
      <trkpt lat="46.46225" lon="5.46222">
        <ele>379</ele>
        <time>2021-04-05T12:39:13.000Z</time>
      </trkpt>
      <trkpt lat="46.4624" lon="5.46224">
        <ele>379</ele>
        <time>2021-04-05T12:39:15.000Z</time>
      </trkpt>
      <trkpt lat="46.46254" lon="5.46227">
        <ele>379</ele>
        <time>2021-04-05T12:39:17.000Z</time>
      </trkpt>
      <trkpt lat="46.46269" lon="5.46229">
        <ele>379</ele>
        <time>2021-04-05T12:39:19.000Z</time>
      </trkpt>
      <trkpt lat="46.46283" lon="5.46232">
        <ele>379</ele>
        <time>2021-04-05T12:39:21.000Z</time>
      </trkpt>
      <trkpt lat="46.46291" lon="5.46233">
        <ele>379</ele>
        <time>2021-04-05T12:39:22.000Z</time>
      </trkpt>
      <trkpt lat="46.46298" lon="5.46235">
        <ele>379</ele>
        <time>2021-04-05T12:39:23.000Z</time>
      </trkpt>
      <trkpt lat="46.46312" lon="5.46237">
        <ele>379</ele>
        <time>2021-04-05T12:39:25.000Z</time>
      </trkpt>
      <trkpt lat="46.46327" lon="5.4624">
        <ele>379</ele>
        <time>2021-04-05T12:39:27.000Z</time>
      </trkpt>
      <trkpt lat="46.46341" lon="5.46242">
        <ele>379</ele>
        <time>2021-04-05T12:39:29.000Z</time>
      </trkpt>
      <trkpt lat="46.46356" lon="5.46245">
        <ele>379</ele>
        <time>2021-04-05T12:39:31.000Z</time>
      </trkpt>
      <trkpt lat="46.4637" lon="5.46248">
        <ele>379</ele>
        <time>2021-04-05T12:39:33.000Z</time>
      </trkpt>
      <trkpt lat="46.46378" lon="5.46249">
        <ele>379</ele>
        <time>2021-04-05T12:39:34.000Z</time>
      </trkpt>
      <trkpt lat="46.46385" lon="5.4625">
        <ele>379.20001220703</ele>
        <time>2021-04-05T12:39:35.000Z</time>
      </trkpt>
      <trkpt lat="46.46399" lon="5.46253">
        <ele>379</ele>
        <time>2021-04-05T12:39:37.000Z</time>
      </trkpt>
      <trkpt lat="46.46414" lon="5.46256">
        <ele>379</ele>
        <time>2021-04-05T12:39:39.000Z</time>
      </trkpt>
      <trkpt lat="46.46428" lon="5.46258">
        <ele>379.20001220703</ele>
        <time>2021-04-05T12:39:41.000Z</time>
      </trkpt>
      <trkpt lat="46.46443" lon="5.46261">
        <ele>379.39999389648</ele>
        <time>2021-04-05T12:39:43.000Z</time>
      </trkpt>
      <trkpt lat="46.46457" lon="5.46263">
        <ele>379.39999389648</ele>
        <time>2021-04-05T12:39:45.000Z</time>
      </trkpt>
      <trkpt lat="46.46465" lon="5.46265">
        <ele>379.60000610352</ele>
        <time>2021-04-05T12:39:46.000Z</time>
      </trkpt>
      <trkpt lat="46.46472" lon="5.46266">
        <ele>379.60000610352</ele>
        <time>2021-04-05T12:39:47.000Z</time>
      </trkpt>
      <trkpt lat="46.46486" lon="5.46269">
        <ele>379.60000610352</ele>
        <time>2021-04-05T12:39:49.000Z</time>
      </trkpt>
      <trkpt lat="46.46501" lon="5.46271">
        <ele>379.60000610352</ele>
        <time>2021-04-05T12:39:51.000Z</time>
      </trkpt>
      <trkpt lat="46.46516" lon="5.46274">
        <ele>379.60000610352</ele>
        <time>2021-04-05T12:39:53.000Z</time>
      </trkpt>
      <trkpt lat="46.46531" lon="5.46277">
        <ele>379.79998779297</ele>
        <time>2021-04-05T12:39:55.000Z</time>
      </trkpt>
      <trkpt lat="46.46546" lon="5.4628">
        <ele>379.79998779297</ele>
        <time>2021-04-05T12:39:57.000Z</time>
      </trkpt>
      <trkpt lat="46.4656" lon="5.46282">
        <ele>379.79998779297</ele>
        <time>2021-04-05T12:39:59.000Z</time>
      </trkpt>
      <trkpt lat="46.46575" lon="5.46285">
        <ele>379.79998779297</ele>
        <time>2021-04-05T12:40:01.000Z</time>
      </trkpt>
      <trkpt lat="46.4659" lon="5.46288">
        <ele>379.79998779297</ele>
        <time>2021-04-05T12:40:03.000Z</time>
      </trkpt>
      <trkpt lat="46.46605" lon="5.4629">
        <ele>379.79998779297</ele>
        <time>2021-04-05T12:40:05.000Z</time>
      </trkpt>
      <trkpt lat="46.46621" lon="5.46293">
        <ele>380</ele>
        <time>2021-04-05T12:40:07.000Z</time>
      </trkpt>
      <trkpt lat="46.46636" lon="5.46296">
        <ele>380</ele>
        <time>2021-04-05T12:40:09.000Z</time>
      </trkpt>
      <trkpt lat="46.46651" lon="5.46298">
        <ele>380.20001220703</ele>
        <time>2021-04-05T12:40:11.000Z</time>
      </trkpt>
      <trkpt lat="46.46666" lon="5.46301">
        <ele>380.20001220703</ele>
        <time>2021-04-05T12:40:13.000Z</time>
      </trkpt>
      <trkpt lat="46.46681" lon="5.46304">
        <ele>380.20001220703</ele>
        <time>2021-04-05T12:40:15.000Z</time>
      </trkpt>
      <trkpt lat="46.46696" lon="5.46307">
        <ele>380.20001220703</ele>
        <time>2021-04-05T12:40:17.000Z</time>
      </trkpt>
      <trkpt lat="46.46712" lon="5.46309">
        <ele>380.20001220703</ele>
        <time>2021-04-05T12:40:19.000Z</time>
      </trkpt>
      <trkpt lat="46.46726" lon="5.46312">
        <ele>380.20001220703</ele>
        <time>2021-04-05T12:40:21.000Z</time>
      </trkpt>
      <trkpt lat="46.46741" lon="5.46315">
        <ele>380.20001220703</ele>
        <time>2021-04-05T12:40:23.000Z</time>
      </trkpt>
      <trkpt lat="46.46756" lon="5.46317">
        <ele>380.20001220703</ele>
        <time>2021-04-05T12:40:25.000Z</time>
      </trkpt>
      <trkpt lat="46.46763" lon="5.46318">
        <ele>380.20001220703</ele>
        <time>2021-04-05T12:40:26.000Z</time>
      </trkpt>
      <trkpt lat="46.46771" lon="5.4632">
        <ele>380.20001220703</ele>
        <time>2021-04-05T12:40:27.000Z</time>
      </trkpt>
      <trkpt lat="46.46786" lon="5.46322">
        <ele>380.20001220703</ele>
        <time>2021-04-05T12:40:29.000Z</time>
      </trkpt>
      <trkpt lat="46.46801" lon="5.46325">
        <ele>380.20001220703</ele>
        <time>2021-04-05T12:40:31.000Z</time>
      </trkpt>
      <trkpt lat="46.46816" lon="5.46327">
        <ele>380.20001220703</ele>
        <time>2021-04-05T12:40:33.000Z</time>
      </trkpt>
      <trkpt lat="46.46831" lon="5.46329">
        <ele>380.20001220703</ele>
        <time>2021-04-05T12:40:35.000Z</time>
      </trkpt>
      <trkpt lat="46.46846" lon="5.46332">
        <ele>380.20001220703</ele>
        <time>2021-04-05T12:40:37.000Z</time>
      </trkpt>
      <trkpt lat="46.46853" lon="5.46334">
        <ele>380.20001220703</ele>
        <time>2021-04-05T12:40:38.000Z</time>
      </trkpt>
      <trkpt lat="46.46861" lon="5.46335">
        <ele>380.20001220703</ele>
        <time>2021-04-05T12:40:39.000Z</time>
      </trkpt>
      <trkpt lat="46.46876" lon="5.46338">
        <ele>380.39999389648</ele>
        <time>2021-04-05T12:40:41.000Z</time>
      </trkpt>
      <trkpt lat="46.4689" lon="5.46341">
        <ele>380.39999389648</ele>
        <time>2021-04-05T12:40:43.000Z</time>
      </trkpt>
      <trkpt lat="46.46905" lon="5.46343">
        <ele>380.39999389648</ele>
        <time>2021-04-05T12:40:45.000Z</time>
      </trkpt>
      <trkpt lat="46.4692" lon="5.46346">
        <ele>380.20001220703</ele>
        <time>2021-04-05T12:40:47.000Z</time>
      </trkpt>
      <trkpt lat="46.46927" lon="5.46347">
        <ele>380.20001220703</ele>
        <time>2021-04-05T12:40:48.000Z</time>
      </trkpt>
      <trkpt lat="46.46934" lon="5.46348">
        <ele>380</ele>
        <time>2021-04-05T12:40:49.000Z</time>
      </trkpt>
      <trkpt lat="46.46948" lon="5.46351">
        <ele>380</ele>
        <time>2021-04-05T12:40:51.000Z</time>
      </trkpt>
      <trkpt lat="46.46963" lon="5.46353">
        <ele>380.20001220703</ele>
        <time>2021-04-05T12:40:53.000Z</time>
      </trkpt>
      <trkpt lat="46.46977" lon="5.46356">
        <ele>380.20001220703</ele>
        <time>2021-04-05T12:40:55.000Z</time>
      </trkpt>
      <trkpt lat="46.46991" lon="5.46359">
        <ele>380.20001220703</ele>
        <time>2021-04-05T12:40:57.000Z</time>
      </trkpt>
      <trkpt lat="46.46999" lon="5.4636">
        <ele>380.39999389648</ele>
        <time>2021-04-05T12:40:58.000Z</time>
      </trkpt>
      <trkpt lat="46.47006" lon="5.46361">
        <ele>380.39999389648</ele>
        <time>2021-04-05T12:40:59.000Z</time>
      </trkpt>
      <trkpt lat="46.47021" lon="5.46364">
        <ele>380.39999389648</ele>
        <time>2021-04-05T12:41:01.000Z</time>
      </trkpt>
      <trkpt lat="46.47035" lon="5.46367">
        <ele>380.60000610352</ele>
        <time>2021-04-05T12:41:03.000Z</time>
      </trkpt>
      <trkpt lat="46.47049" lon="5.46369">
        <ele>380.60000610352</ele>
        <time>2021-04-05T12:41:05.000Z</time>
      </trkpt>
      <trkpt lat="46.47064" lon="5.46372">
        <ele>380.60000610352</ele>
        <time>2021-04-05T12:41:07.000Z</time>
      </trkpt>
      <trkpt lat="46.47078" lon="5.46374">
        <ele>380.60000610352</ele>
        <time>2021-04-05T12:41:09.000Z</time>
      </trkpt>
      <trkpt lat="46.47092" lon="5.46377">
        <ele>380.60000610352</ele>
        <time>2021-04-05T12:41:11.000Z</time>
      </trkpt>
      <trkpt lat="46.47099" lon="5.46378">
        <ele>380.60000610352</ele>
        <time>2021-04-05T12:41:12.000Z</time>
      </trkpt>
      <trkpt lat="46.47106" lon="5.4638">
        <ele>380.60000610352</ele>
        <time>2021-04-05T12:41:13.000Z</time>
      </trkpt>
      <trkpt lat="46.4712" lon="5.46383">
        <ele>380.60000610352</ele>
        <time>2021-04-05T12:41:15.000Z</time>
      </trkpt>
      <trkpt lat="46.47134" lon="5.46385">
        <ele>380.60000610352</ele>
        <time>2021-04-05T12:41:17.000Z</time>
      </trkpt>
      <trkpt lat="46.47147" lon="5.46387">
        <ele>380.60000610352</ele>
        <time>2021-04-05T12:41:19.000Z</time>
      </trkpt>
      <trkpt lat="46.47154" lon="5.46389">
        <ele>380.79998779297</ele>
        <time>2021-04-05T12:41:20.000Z</time>
      </trkpt>
      <trkpt lat="46.47161" lon="5.4639">
        <ele>380.79998779297</ele>
        <time>2021-04-05T12:41:21.000Z</time>
      </trkpt>
      <trkpt lat="46.47174" lon="5.46392">
        <ele>380.79998779297</ele>
        <time>2021-04-05T12:41:23.000Z</time>
      </trkpt>
      <trkpt lat="46.47181" lon="5.46393">
        <ele>380.79998779297</ele>
        <time>2021-04-05T12:41:24.000Z</time>
      </trkpt>
      <trkpt lat="46.47188" lon="5.46395">
        <ele>381</ele>
        <time>2021-04-05T12:41:25.000Z</time>
      </trkpt>
      <trkpt lat="46.47201" lon="5.46397">
        <ele>381.20001220703</ele>
        <time>2021-04-05T12:41:27.000Z</time>
      </trkpt>
      <trkpt lat="46.47214" lon="5.46399">
        <ele>381.39999389648</ele>
        <time>2021-04-05T12:41:29.000Z</time>
      </trkpt>
      <trkpt lat="46.47227" lon="5.46401">
        <ele>381.60000610352</ele>
        <time>2021-04-05T12:41:31.000Z</time>
      </trkpt>
      <trkpt lat="46.4724" lon="5.46404">
        <ele>381.79998779297</ele>
        <time>2021-04-05T12:41:33.000Z</time>
      </trkpt>
      <trkpt lat="46.47252" lon="5.46406">
        <ele>382</ele>
        <time>2021-04-05T12:41:35.000Z</time>
      </trkpt>
      <trkpt lat="46.47265" lon="5.46408">
        <ele>382.20001220703</ele>
        <time>2021-04-05T12:41:37.000Z</time>
      </trkpt>
      <trkpt lat="46.47277" lon="5.4641">
        <ele>382.60000610352</ele>
        <time>2021-04-05T12:41:39.000Z</time>
      </trkpt>
      <trkpt lat="46.4729" lon="5.46413">
        <ele>382.79998779297</ele>
        <time>2021-04-05T12:41:41.000Z</time>
      </trkpt>
      <trkpt lat="46.47296" lon="5.46414">
        <ele>382.79998779297</ele>
        <time>2021-04-05T12:41:42.000Z</time>
      </trkpt>
      <trkpt lat="46.47302" lon="5.46415">
        <ele>383</ele>
        <time>2021-04-05T12:41:43.000Z</time>
      </trkpt>
      <trkpt lat="46.47314" lon="5.46417">
        <ele>383.20001220703</ele>
        <time>2021-04-05T12:41:45.000Z</time>
      </trkpt>
      <trkpt lat="46.47327" lon="5.4642">
        <ele>383.39999389648</ele>
        <time>2021-04-05T12:41:47.000Z</time>
      </trkpt>
      <trkpt lat="46.47339" lon="5.46422">
        <ele>383.60000610352</ele>
        <time>2021-04-05T12:41:49.000Z</time>
      </trkpt>
      <trkpt lat="46.47352" lon="5.46424">
        <ele>383.79998779297</ele>
        <time>2021-04-05T12:41:51.000Z</time>
      </trkpt>
      <trkpt lat="46.47365" lon="5.46426">
        <ele>383.79998779297</ele>
        <time>2021-04-05T12:41:53.000Z</time>
      </trkpt>
      <trkpt lat="46.47379" lon="5.46429">
        <ele>384.20001220703</ele>
        <time>2021-04-05T12:41:55.000Z</time>
      </trkpt>
      <trkpt lat="46.47386" lon="5.4643">
        <ele>384.20001220703</ele>
        <time>2021-04-05T12:41:56.000Z</time>
      </trkpt>
      <trkpt lat="46.47392" lon="5.46431">
        <ele>384.20001220703</ele>
        <time>2021-04-05T12:41:57.000Z</time>
      </trkpt>
      <trkpt lat="46.47406" lon="5.46434">
        <ele>384.39999389648</ele>
        <time>2021-04-05T12:41:59.000Z</time>
      </trkpt>
      <trkpt lat="46.4742" lon="5.46437">
        <ele>384.39999389648</ele>
        <time>2021-04-05T12:42:01.000Z</time>
      </trkpt>
      <trkpt lat="46.47434" lon="5.46439">
        <ele>384.79998779297</ele>
        <time>2021-04-05T12:42:03.000Z</time>
      </trkpt>
      <trkpt lat="46.47447" lon="5.46442">
        <ele>385.20001220703</ele>
        <time>2021-04-05T12:42:05.000Z</time>
      </trkpt>
      <trkpt lat="46.47454" lon="5.46443">
        <ele>385.39999389648</ele>
        <time>2021-04-05T12:42:06.000Z</time>
      </trkpt>
      <trkpt lat="46.47461" lon="5.46444">
        <ele>385.39999389648</ele>
        <time>2021-04-05T12:42:07.000Z</time>
      </trkpt>
      <trkpt lat="46.47474" lon="5.46447">
        <ele>385.60000610352</ele>
        <time>2021-04-05T12:42:09.000Z</time>
      </trkpt>
      <trkpt lat="46.47487" lon="5.46449">
        <ele>385.60000610352</ele>
        <time>2021-04-05T12:42:11.000Z</time>
      </trkpt>
      <trkpt lat="46.475" lon="5.46451">
        <ele>386</ele>
        <time>2021-04-05T12:42:13.000Z</time>
      </trkpt>
      <trkpt lat="46.47513" lon="5.46453">
        <ele>386</ele>
        <time>2021-04-05T12:42:15.000Z</time>
      </trkpt>
      <trkpt lat="46.47525" lon="5.46456">
        <ele>386.60000610352</ele>
        <time>2021-04-05T12:42:17.000Z</time>
      </trkpt>
      <trkpt lat="46.47532" lon="5.46457">
        <ele>386.79998779297</ele>
        <time>2021-04-05T12:42:18.000Z</time>
      </trkpt>
      <trkpt lat="46.47538" lon="5.46458">
        <ele>387.20001220703</ele>
        <time>2021-04-05T12:42:19.000Z</time>
      </trkpt>
      <trkpt lat="46.47551" lon="5.4646">
        <ele>387.39999389648</ele>
        <time>2021-04-05T12:42:21.000Z</time>
      </trkpt>
      <trkpt lat="46.47564" lon="5.46463">
        <ele>387.79998779297</ele>
        <time>2021-04-05T12:42:23.000Z</time>
      </trkpt>
      <trkpt lat="46.47577" lon="5.46465">
        <ele>387.79998779297</ele>
        <time>2021-04-05T12:42:25.000Z</time>
      </trkpt>
      <trkpt lat="46.47589" lon="5.46467">
        <ele>387.79998779297</ele>
        <time>2021-04-05T12:42:27.000Z</time>
      </trkpt>
      <trkpt lat="46.47602" lon="5.46469">
        <ele>388.20001220703</ele>
        <time>2021-04-05T12:42:29.000Z</time>
      </trkpt>
      <trkpt lat="46.47608" lon="5.4647">
        <ele>388.39999389648</ele>
        <time>2021-04-05T12:42:30.000Z</time>
      </trkpt>
      <trkpt lat="46.47615" lon="5.46471">
        <ele>388.39999389648</ele>
        <time>2021-04-05T12:42:31.000Z</time>
      </trkpt>
      <trkpt lat="46.47627" lon="5.46473">
        <ele>388.60000610352</ele>
        <time>2021-04-05T12:42:33.000Z</time>
      </trkpt>
      <trkpt lat="46.47634" lon="5.46475">
        <ele>388.79998779297</ele>
        <time>2021-04-05T12:42:34.000Z</time>
      </trkpt>
      <trkpt lat="46.4764" lon="5.46476">
        <ele>389.20001220703</ele>
        <time>2021-04-05T12:42:35.000Z</time>
      </trkpt>
      <trkpt lat="46.47653" lon="5.46478">
        <ele>389.20001220703</ele>
        <time>2021-04-05T12:42:37.000Z</time>
      </trkpt>
      <trkpt lat="46.4766" lon="5.46479">
        <ele>389.39999389648</ele>
        <time>2021-04-05T12:42:38.000Z</time>
      </trkpt>
      <trkpt lat="46.47666" lon="5.46481">
        <ele>389.39999389648</ele>
        <time>2021-04-05T12:42:39.000Z</time>
      </trkpt>
      <trkpt lat="46.47679" lon="5.46483">
        <ele>389.39999389648</ele>
        <time>2021-04-05T12:42:41.000Z</time>
      </trkpt>
      <trkpt lat="46.47692" lon="5.46485">
        <ele>389.60000610352</ele>
        <time>2021-04-05T12:42:43.000Z</time>
      </trkpt>
      <trkpt lat="46.47705" lon="5.46488">
        <ele>389.60000610352</ele>
        <time>2021-04-05T12:42:45.000Z</time>
      </trkpt>
      <trkpt lat="46.47719" lon="5.46491">
        <ele>389.60000610352</ele>
        <time>2021-04-05T12:42:47.000Z</time>
      </trkpt>
      <trkpt lat="46.47732" lon="5.46493">
        <ele>389.79998779297</ele>
        <time>2021-04-05T12:42:49.000Z</time>
      </trkpt>
      <trkpt lat="46.47746" lon="5.46495">
        <ele>389.79998779297</ele>
        <time>2021-04-05T12:42:51.000Z</time>
      </trkpt>
      <trkpt lat="46.4776" lon="5.46498">
        <ele>389.79998779297</ele>
        <time>2021-04-05T12:42:53.000Z</time>
      </trkpt>
      <trkpt lat="46.47773" lon="5.465">
        <ele>389.79998779297</ele>
        <time>2021-04-05T12:42:55.000Z</time>
      </trkpt>
      <trkpt lat="46.47787" lon="5.46502">
        <ele>389.79998779297</ele>
        <time>2021-04-05T12:42:57.000Z</time>
      </trkpt>
      <trkpt lat="46.47801" lon="5.46505">
        <ele>389.79998779297</ele>
        <time>2021-04-05T12:42:59.000Z</time>
      </trkpt>
      <trkpt lat="46.47815" lon="5.46508">
        <ele>389.79998779297</ele>
        <time>2021-04-05T12:43:01.000Z</time>
      </trkpt>
      <trkpt lat="46.47829" lon="5.4651">
        <ele>389.79998779297</ele>
        <time>2021-04-05T12:43:03.000Z</time>
      </trkpt>
      <trkpt lat="46.47843" lon="5.46513">
        <ele>389.79998779297</ele>
        <time>2021-04-05T12:43:05.000Z</time>
      </trkpt>
      <trkpt lat="46.47858" lon="5.46515">
        <ele>390</ele>
        <time>2021-04-05T12:43:07.000Z</time>
      </trkpt>
      <trkpt lat="46.47865" lon="5.46517">
        <ele>390</ele>
        <time>2021-04-05T12:43:08.000Z</time>
      </trkpt>
      <trkpt lat="46.47872" lon="5.46518">
        <ele>390</ele>
        <time>2021-04-05T12:43:09.000Z</time>
      </trkpt>
      <trkpt lat="46.47886" lon="5.46521">
        <ele>390</ele>
        <time>2021-04-05T12:43:11.000Z</time>
      </trkpt>
      <trkpt lat="46.47901" lon="5.46523">
        <ele>390</ele>
        <time>2021-04-05T12:43:13.000Z</time>
      </trkpt>
      <trkpt lat="46.47915" lon="5.46526">
        <ele>390.20001220703</ele>
        <time>2021-04-05T12:43:15.000Z</time>
      </trkpt>
      <trkpt lat="46.47929" lon="5.46529">
        <ele>390.20001220703</ele>
        <time>2021-04-05T12:43:17.000Z</time>
      </trkpt>
      <trkpt lat="46.47944" lon="5.46531">
        <ele>390.20001220703</ele>
        <time>2021-04-05T12:43:19.000Z</time>
      </trkpt>
      <trkpt lat="46.47951" lon="5.46533">
        <ele>390.20001220703</ele>
        <time>2021-04-05T12:43:20.000Z</time>
      </trkpt>
      <trkpt lat="46.47958" lon="5.46534">
        <ele>390.20001220703</ele>
        <time>2021-04-05T12:43:21.000Z</time>
      </trkpt>
      <trkpt lat="46.47973" lon="5.46537">
        <ele>390.39999389648</ele>
        <time>2021-04-05T12:43:23.000Z</time>
      </trkpt>
      <trkpt lat="46.47987" lon="5.46539">
        <ele>390.39999389648</ele>
        <time>2021-04-05T12:43:25.000Z</time>
      </trkpt>
      <trkpt lat="46.48002" lon="5.46542">
        <ele>390.39999389648</ele>
        <time>2021-04-05T12:43:27.000Z</time>
      </trkpt>
      <trkpt lat="46.48017" lon="5.46544">
        <ele>390.39999389648</ele>
        <time>2021-04-05T12:43:29.000Z</time>
      </trkpt>
      <trkpt lat="46.48031" lon="5.46547">
        <ele>390.60000610352</ele>
        <time>2021-04-05T12:43:31.000Z</time>
      </trkpt>
      <trkpt lat="46.48046" lon="5.4655">
        <ele>390.60000610352</ele>
        <time>2021-04-05T12:43:33.000Z</time>
      </trkpt>
      <trkpt lat="46.48061" lon="5.46553">
        <ele>390.60000610352</ele>
        <time>2021-04-05T12:43:35.000Z</time>
      </trkpt>
      <trkpt lat="46.48077" lon="5.46555">
        <ele>390.60000610352</ele>
        <time>2021-04-05T12:43:37.000Z</time>
      </trkpt>
      <trkpt lat="46.48092" lon="5.46558">
        <ele>390.60000610352</ele>
        <time>2021-04-05T12:43:39.000Z</time>
      </trkpt>
      <trkpt lat="46.48107" lon="5.46561">
        <ele>390.60000610352</ele>
        <time>2021-04-05T12:43:41.000Z</time>
      </trkpt>
      <trkpt lat="46.48115" lon="5.46562">
        <ele>390.60000610352</ele>
        <time>2021-04-05T12:43:42.000Z</time>
      </trkpt>
      <trkpt lat="46.48123" lon="5.46564">
        <ele>390.39999389648</ele>
        <time>2021-04-05T12:43:43.000Z</time>
      </trkpt>
      <trkpt lat="46.48138" lon="5.46566">
        <ele>390.39999389648</ele>
        <time>2021-04-05T12:43:45.000Z</time>
      </trkpt>
      <trkpt lat="46.48153" lon="5.46569">
        <ele>390.39999389648</ele>
        <time>2021-04-05T12:43:47.000Z</time>
      </trkpt>
      <trkpt lat="46.48168" lon="5.46572">
        <ele>390.20001220703</ele>
        <time>2021-04-05T12:43:49.000Z</time>
      </trkpt>
      <trkpt lat="46.48183" lon="5.46574">
        <ele>390</ele>
        <time>2021-04-05T12:43:51.000Z</time>
      </trkpt>
      <trkpt lat="46.48198" lon="5.46577">
        <ele>390</ele>
        <time>2021-04-05T12:43:53.000Z</time>
      </trkpt>
      <trkpt lat="46.48205" lon="5.46578">
        <ele>389.79998779297</ele>
        <time>2021-04-05T12:43:54.000Z</time>
      </trkpt>
      <trkpt lat="46.48213" lon="5.4658">
        <ele>389.79998779297</ele>
        <time>2021-04-05T12:43:55.000Z</time>
      </trkpt>
      <trkpt lat="46.48228" lon="5.46583">
        <ele>389.60000610352</ele>
        <time>2021-04-05T12:43:57.000Z</time>
      </trkpt>
      <trkpt lat="46.48243" lon="5.46585">
        <ele>389.39999389648</ele>
        <time>2021-04-05T12:43:59.000Z</time>
      </trkpt>
      <trkpt lat="46.48258" lon="5.46588">
        <ele>389.39999389648</ele>
        <time>2021-04-05T12:44:01.000Z</time>
      </trkpt>
      <trkpt lat="46.48273" lon="5.4659">
        <ele>389.39999389648</ele>
        <time>2021-04-05T12:44:03.000Z</time>
      </trkpt>
      <trkpt lat="46.48288" lon="5.46593">
        <ele>389.39999389648</ele>
        <time>2021-04-05T12:44:05.000Z</time>
      </trkpt>
      <trkpt lat="46.48303" lon="5.46596">
        <ele>389.39999389648</ele>
        <time>2021-04-05T12:44:07.000Z</time>
      </trkpt>
      <trkpt lat="46.48318" lon="5.46599">
        <ele>389.20001220703</ele>
        <time>2021-04-05T12:44:09.000Z</time>
      </trkpt>
      <trkpt lat="46.48325" lon="5.46602">
        <ele>389.20001220703</ele>
        <time>2021-04-05T12:44:10.000Z</time>
      </trkpt>
      <trkpt lat="46.48331" lon="5.46606">
        <ele>389.39999389648</ele>
        <time>2021-04-05T12:44:11.000Z</time>
      </trkpt>
      <trkpt lat="46.48338" lon="5.46622">
        <ele>389.39999389648</ele>
        <time>2021-04-05T12:44:13.000Z</time>
      </trkpt>
      <trkpt lat="46.48334" lon="5.46641">
        <ele>389.39999389648</ele>
        <time>2021-04-05T12:44:15.000Z</time>
      </trkpt>
      <trkpt lat="46.4833" lon="5.46649">
        <ele>389.39999389648</ele>
        <time>2021-04-05T12:44:16.000Z</time>
      </trkpt>
      <trkpt lat="46.48326" lon="5.46657">
        <ele>389.39999389648</ele>
        <time>2021-04-05T12:44:17.000Z</time>
      </trkpt>
      <trkpt lat="46.48323" lon="5.46666">
        <ele>389.39999389648</ele>
        <time>2021-04-05T12:44:18.000Z</time>
      </trkpt>
      <trkpt lat="46.48319" lon="5.46674">
        <ele>389.39999389648</ele>
        <time>2021-04-05T12:44:19.000Z</time>
      </trkpt>
      <trkpt lat="46.48312" lon="5.46692">
        <ele>389.39999389648</ele>
        <time>2021-04-05T12:44:21.000Z</time>
      </trkpt>
      <trkpt lat="46.48308" lon="5.46701">
        <ele>389.39999389648</ele>
        <time>2021-04-05T12:44:22.000Z</time>
      </trkpt>
      <trkpt lat="46.48305" lon="5.4671">
        <ele>389.39999389648</ele>
        <time>2021-04-05T12:44:23.000Z</time>
      </trkpt>
      <trkpt lat="46.48298" lon="5.46727">
        <ele>389.39999389648</ele>
        <time>2021-04-05T12:44:25.000Z</time>
      </trkpt>
      <trkpt lat="46.48291" lon="5.46743">
        <ele>389.39999389648</ele>
        <time>2021-04-05T12:44:27.000Z</time>
      </trkpt>
      <trkpt lat="46.48285" lon="5.4676">
        <ele>389.39999389648</ele>
        <time>2021-04-05T12:44:29.000Z</time>
      </trkpt>
      <trkpt lat="46.48278" lon="5.46776">
        <ele>389.39999389648</ele>
        <time>2021-04-05T12:44:31.000Z</time>
      </trkpt>
      <trkpt lat="46.48274" lon="5.46784">
        <ele>389.60000610352</ele>
        <time>2021-04-05T12:44:32.000Z</time>
      </trkpt>
      <trkpt lat="46.48271" lon="5.46793">
        <ele>389.79998779297</ele>
        <time>2021-04-05T12:44:33.000Z</time>
      </trkpt>
      <trkpt lat="46.48264" lon="5.46809">
        <ele>390.39999389648</ele>
        <time>2021-04-05T12:44:35.000Z</time>
      </trkpt>
      <trkpt lat="46.48261" lon="5.46817">
        <ele>390.39999389648</ele>
        <time>2021-04-05T12:44:36.000Z</time>
      </trkpt>
      <trkpt lat="46.48258" lon="5.46825">
        <ele>390.60000610352</ele>
        <time>2021-04-05T12:44:37.000Z</time>
      </trkpt>
      <trkpt lat="46.48251" lon="5.46841">
        <ele>390.79998779297</ele>
        <time>2021-04-05T12:44:39.000Z</time>
      </trkpt>
      <trkpt lat="46.48245" lon="5.46857">
        <ele>391</ele>
        <time>2021-04-05T12:44:41.000Z</time>
      </trkpt>
      <trkpt lat="46.48239" lon="5.46872">
        <ele>391.20001220703</ele>
        <time>2021-04-05T12:44:43.000Z</time>
      </trkpt>
      <trkpt lat="46.48233" lon="5.46887">
        <ele>391.20001220703</ele>
        <time>2021-04-05T12:44:45.000Z</time>
      </trkpt>
      <trkpt lat="46.48227" lon="5.46902">
        <ele>391.39999389648</ele>
        <time>2021-04-05T12:44:47.000Z</time>
      </trkpt>
      <trkpt lat="46.4822" lon="5.46917">
        <ele>391.79998779297</ele>
        <time>2021-04-05T12:44:49.000Z</time>
      </trkpt>
      <trkpt lat="46.48217" lon="5.46924">
        <ele>391.79998779297</ele>
        <time>2021-04-05T12:44:50.000Z</time>
      </trkpt>
      <trkpt lat="46.48213" lon="5.46931">
        <ele>392</ele>
        <time>2021-04-05T12:44:51.000Z</time>
      </trkpt>
      <trkpt lat="46.48207" lon="5.46945">
        <ele>392.20001220703</ele>
        <time>2021-04-05T12:44:53.000Z</time>
      </trkpt>
      <trkpt lat="46.48199" lon="5.46957">
        <ele>392.39999389648</ele>
        <time>2021-04-05T12:44:55.000Z</time>
      </trkpt>
      <trkpt lat="46.48192" lon="5.46968">
        <ele>392.79998779297</ele>
        <time>2021-04-05T12:44:57.000Z</time>
      </trkpt>
      <trkpt lat="46.48188" lon="5.46974">
        <ele>393</ele>
        <time>2021-04-05T12:44:58.000Z</time>
      </trkpt>
      <trkpt lat="46.48185" lon="5.46979">
        <ele>393.39999389648</ele>
        <time>2021-04-05T12:44:59.000Z</time>
      </trkpt>
      <trkpt lat="46.48177" lon="5.4699">
        <ele>393.79998779297</ele>
        <time>2021-04-05T12:45:01.000Z</time>
      </trkpt>
      <trkpt lat="46.48173" lon="5.46995">
        <ele>394</ele>
        <time>2021-04-05T12:45:02.000Z</time>
      </trkpt>
      <trkpt lat="46.4817" lon="5.47">
        <ele>394</ele>
        <time>2021-04-05T12:45:03.000Z</time>
      </trkpt>
      <trkpt lat="46.48166" lon="5.47005">
        <ele>394.39999389648</ele>
        <time>2021-04-05T12:45:04.000Z</time>
      </trkpt>
      <trkpt lat="46.48155" lon="5.4702">
        <ele>395</ele>
        <time>2021-04-05T12:45:07.000Z</time>
      </trkpt>
      <trkpt lat="46.48149" lon="5.4703">
        <ele>395.20001220703</ele>
        <time>2021-04-05T12:45:09.000Z</time>
      </trkpt>
      <trkpt lat="46.48142" lon="5.4704">
        <ele>395.60000610352</ele>
        <time>2021-04-05T12:45:11.000Z</time>
      </trkpt>
      <trkpt lat="46.48136" lon="5.4705">
        <ele>395.79998779297</ele>
        <time>2021-04-05T12:45:13.000Z</time>
      </trkpt>
      <trkpt lat="46.48134" lon="5.47056">
        <ele>396.20001220703</ele>
        <time>2021-04-05T12:45:14.000Z</time>
      </trkpt>
      <trkpt lat="46.48131" lon="5.47063">
        <ele>396.60000610352</ele>
        <time>2021-04-05T12:45:15.000Z</time>
      </trkpt>
      <trkpt lat="46.48126" lon="5.47076">
        <ele>397.39999389648</ele>
        <time>2021-04-05T12:45:17.000Z</time>
      </trkpt>
      <trkpt lat="46.4812" lon="5.47091">
        <ele>398.20001220703</ele>
        <time>2021-04-05T12:45:19.000Z</time>
      </trkpt>
      <trkpt lat="46.48117" lon="5.47098">
        <ele>398.39999389648</ele>
        <time>2021-04-05T12:45:20.000Z</time>
      </trkpt>
      <trkpt lat="46.48115" lon="5.47106">
        <ele>398.79998779297</ele>
        <time>2021-04-05T12:45:21.000Z</time>
      </trkpt>
      <trkpt lat="46.48111" lon="5.47121">
        <ele>399</ele>
        <time>2021-04-05T12:45:23.000Z</time>
      </trkpt>
      <trkpt lat="46.48107" lon="5.47137">
        <ele>399.20001220703</ele>
        <time>2021-04-05T12:45:25.000Z</time>
      </trkpt>
      <trkpt lat="46.48105" lon="5.47145">
        <ele>399.20001220703</ele>
        <time>2021-04-05T12:45:26.000Z</time>
      </trkpt>
      <trkpt lat="46.48103" lon="5.47153">
        <ele>399.39999389648</ele>
        <time>2021-04-05T12:45:27.000Z</time>
      </trkpt>
      <trkpt lat="46.48099" lon="5.47168">
        <ele>399.60000610352</ele>
        <time>2021-04-05T12:45:29.000Z</time>
      </trkpt>
      <trkpt lat="46.48094" lon="5.47191">
        <ele>399.60000610352</ele>
        <time>2021-04-05T12:45:32.000Z</time>
      </trkpt>
      <trkpt lat="46.48091" lon="5.47206">
        <ele>399.60000610352</ele>
        <time>2021-04-05T12:45:34.000Z</time>
      </trkpt>
      <trkpt lat="46.48089" lon="5.47213">
        <ele>399.39999389648</ele>
        <time>2021-04-05T12:45:35.000Z</time>
      </trkpt>
      <trkpt lat="46.48087" lon="5.47221">
        <ele>399.60000610352</ele>
        <time>2021-04-05T12:45:36.000Z</time>
      </trkpt>
      <trkpt lat="46.48085" lon="5.47228">
        <ele>399.79998779297</ele>
        <time>2021-04-05T12:45:37.000Z</time>
      </trkpt>
      <trkpt lat="46.48083" lon="5.47236">
        <ele>399.79998779297</ele>
        <time>2021-04-05T12:45:38.000Z</time>
      </trkpt>
      <trkpt lat="46.4808" lon="5.4725">
        <ele>399.79998779297</ele>
        <time>2021-04-05T12:45:40.000Z</time>
      </trkpt>
      <trkpt lat="46.48077" lon="5.47265">
        <ele>400</ele>
        <time>2021-04-05T12:45:42.000Z</time>
      </trkpt>
      <trkpt lat="46.48075" lon="5.47281">
        <ele>400.39999389648</ele>
        <time>2021-04-05T12:45:44.000Z</time>
      </trkpt>
      <trkpt lat="46.48075" lon="5.47288">
        <ele>400.79998779297</ele>
        <time>2021-04-05T12:45:45.000Z</time>
      </trkpt>
      <trkpt lat="46.48075" lon="5.47296">
        <ele>401.20001220703</ele>
        <time>2021-04-05T12:45:46.000Z</time>
      </trkpt>
      <trkpt lat="46.48076" lon="5.47303">
        <ele>401.20001220703</ele>
        <time>2021-04-05T12:45:47.000Z</time>
      </trkpt>
      <trkpt lat="46.48077" lon="5.47311">
        <ele>401.20001220703</ele>
        <time>2021-04-05T12:45:48.000Z</time>
      </trkpt>
      <trkpt lat="46.48081" lon="5.47326">
        <ele>401.60000610352</ele>
        <time>2021-04-05T12:45:50.000Z</time>
      </trkpt>
      <trkpt lat="46.48084" lon="5.47334">
        <ele>402.20001220703</ele>
        <time>2021-04-05T12:45:51.000Z</time>
      </trkpt>
      <trkpt lat="46.48086" lon="5.47342">
        <ele>402.20001220703</ele>
        <time>2021-04-05T12:45:52.000Z</time>
      </trkpt>
      <trkpt lat="46.48091" lon="5.47359">
        <ele>402.39999389648</ele>
        <time>2021-04-05T12:45:54.000Z</time>
      </trkpt>
      <trkpt lat="46.48093" lon="5.47368">
        <ele>402.39999389648</ele>
        <time>2021-04-05T12:45:55.000Z</time>
      </trkpt>
      <trkpt lat="46.48097" lon="5.47387">
        <ele>402.60000610352</ele>
        <time>2021-04-05T12:45:57.000Z</time>
      </trkpt>
      <trkpt lat="46.48099" lon="5.47406">
        <ele>402.60000610352</ele>
        <time>2021-04-05T12:45:59.000Z</time>
      </trkpt>
      <trkpt lat="46.481" lon="5.47426">
        <ele>402.60000610352</ele>
        <time>2021-04-05T12:46:01.000Z</time>
      </trkpt>
      <trkpt lat="46.481" lon="5.47436">
        <ele>402.39999389648</ele>
        <time>2021-04-05T12:46:02.000Z</time>
      </trkpt>
      <trkpt lat="46.481" lon="5.47446">
        <ele>402.20001220703</ele>
        <time>2021-04-05T12:46:03.000Z</time>
      </trkpt>
      <trkpt lat="46.48099" lon="5.47465">
        <ele>402</ele>
        <time>2021-04-05T12:46:05.000Z</time>
      </trkpt>
      <trkpt lat="46.48098" lon="5.47494">
        <ele>402</ele>
        <time>2021-04-05T12:46:08.000Z</time>
      </trkpt>
      <trkpt lat="46.48096" lon="5.47513">
        <ele>402</ele>
        <time>2021-04-05T12:46:10.000Z</time>
      </trkpt>
      <trkpt lat="46.48095" lon="5.47522">
        <ele>402</ele>
        <time>2021-04-05T12:46:11.000Z</time>
      </trkpt>
      <trkpt lat="46.48092" lon="5.47541">
        <ele>402</ele>
        <time>2021-04-05T12:46:13.000Z</time>
      </trkpt>
      <trkpt lat="46.48089" lon="5.4756">
        <ele>402.20001220703</ele>
        <time>2021-04-05T12:46:15.000Z</time>
      </trkpt>
      <trkpt lat="46.48088" lon="5.47569">
        <ele>402.20001220703</ele>
        <time>2021-04-05T12:46:16.000Z</time>
      </trkpt>
      <trkpt lat="46.48086" lon="5.47578">
        <ele>402.20001220703</ele>
        <time>2021-04-05T12:46:17.000Z</time>
      </trkpt>
      <trkpt lat="46.48082" lon="5.47597">
        <ele>402.39999389648</ele>
        <time>2021-04-05T12:46:19.000Z</time>
      </trkpt>
      <trkpt lat="46.48078" lon="5.47614">
        <ele>402.60000610352</ele>
        <time>2021-04-05T12:46:21.000Z</time>
      </trkpt>
      <trkpt lat="46.48076" lon="5.47622">
        <ele>402.79998779297</ele>
        <time>2021-04-05T12:46:22.000Z</time>
      </trkpt>
      <trkpt lat="46.48074" lon="5.4763">
        <ele>403</ele>
        <time>2021-04-05T12:46:23.000Z</time>
      </trkpt>
      <trkpt lat="46.48073" lon="5.47637">
        <ele>403</ele>
        <time>2021-04-05T12:46:24.000Z</time>
      </trkpt>
      <trkpt lat="46.48071" lon="5.47643">
        <ele>403.20001220703</ele>
        <time>2021-04-05T12:46:25.000Z</time>
      </trkpt>
      <trkpt lat="46.48069" lon="5.47654">
        <ele>403.20001220703</ele>
        <time>2021-04-05T12:46:27.000Z</time>
      </trkpt>
      <trkpt lat="46.48067" lon="5.47664">
        <ele>403.60000610352</ele>
        <time>2021-04-05T12:46:29.000Z</time>
      </trkpt>
      <trkpt lat="46.48066" lon="5.47674">
        <ele>404</ele>
        <time>2021-04-05T12:46:31.000Z</time>
      </trkpt>
      <trkpt lat="46.48066" lon="5.47681">
        <ele>405</ele>
        <time>2021-04-05T12:46:33.000Z</time>
      </trkpt>
      <trkpt lat="46.48066" lon="5.47685">
        <ele>405.79998779297</ele>
        <time>2021-04-05T12:46:34.000Z</time>
      </trkpt>
      <trkpt lat="46.48066" lon="5.47689">
        <ele>406.39999389648</ele>
        <time>2021-04-05T12:46:35.000Z</time>
      </trkpt>
      <trkpt lat="46.48067" lon="5.47698">
        <ele>407.39999389648</ele>
        <time>2021-04-05T12:46:37.000Z</time>
      </trkpt>
      <trkpt lat="46.48068" lon="5.47703">
        <ele>407.60000610352</ele>
        <time>2021-04-05T12:46:38.000Z</time>
      </trkpt>
      <trkpt lat="46.48069" lon="5.47708">
        <ele>408.20001220703</ele>
        <time>2021-04-05T12:46:39.000Z</time>
      </trkpt>
      <trkpt lat="46.4807" lon="5.47719">
        <ele>408.79998779297</ele>
        <time>2021-04-05T12:46:41.000Z</time>
      </trkpt>
      <trkpt lat="46.48071" lon="5.47724">
        <ele>409.20001220703</ele>
        <time>2021-04-05T12:46:42.000Z</time>
      </trkpt>
      <trkpt lat="46.48072" lon="5.47729">
        <ele>409.60000610352</ele>
        <time>2021-04-05T12:46:43.000Z</time>
      </trkpt>
      <trkpt lat="46.48072" lon="5.47734">
        <ele>410.39999389648</ele>
        <time>2021-04-05T12:46:44.000Z</time>
      </trkpt>
      <trkpt lat="46.48074" lon="5.47739">
        <ele>410.79998779297</ele>
        <time>2021-04-05T12:46:45.000Z</time>
      </trkpt>
      <trkpt lat="46.48076" lon="5.47749">
        <ele>411.20001220703</ele>
        <time>2021-04-05T12:46:47.000Z</time>
      </trkpt>
      <trkpt lat="46.48076" lon="5.47754">
        <ele>411.39999389648</ele>
        <time>2021-04-05T12:46:48.000Z</time>
      </trkpt>
      <trkpt lat="46.48077" lon="5.47759">
        <ele>411.79998779297</ele>
        <time>2021-04-05T12:46:49.000Z</time>
      </trkpt>
      <trkpt lat="46.48078" lon="5.47764">
        <ele>412.20001220703</ele>
        <time>2021-04-05T12:46:50.000Z</time>
      </trkpt>
      <trkpt lat="46.48081" lon="5.47773">
        <ele>412.60000610352</ele>
        <time>2021-04-05T12:46:52.000Z</time>
      </trkpt>
      <trkpt lat="46.48083" lon="5.47783">
        <ele>413</ele>
        <time>2021-04-05T12:46:54.000Z</time>
      </trkpt>
      <trkpt lat="46.48085" lon="5.47792">
        <ele>413.39999389648</ele>
        <time>2021-04-05T12:46:56.000Z</time>
      </trkpt>
      <trkpt lat="46.48087" lon="5.47797">
        <ele>413.79998779297</ele>
        <time>2021-04-05T12:46:57.000Z</time>
      </trkpt>
      <trkpt lat="46.48089" lon="5.47801">
        <ele>414</ele>
        <time>2021-04-05T12:46:58.000Z</time>
      </trkpt>
      <trkpt lat="46.48092" lon="5.47809">
        <ele>414.39999389648</ele>
        <time>2021-04-05T12:47:00.000Z</time>
      </trkpt>
      <trkpt lat="46.48095" lon="5.47818">
        <ele>414.79998779297</ele>
        <time>2021-04-05T12:47:02.000Z</time>
      </trkpt>
      <trkpt lat="46.48097" lon="5.47822">
        <ele>415</ele>
        <time>2021-04-05T12:47:03.000Z</time>
      </trkpt>
      <trkpt lat="46.481" lon="5.4783">
        <ele>415.39999389648</ele>
        <time>2021-04-05T12:47:05.000Z</time>
      </trkpt>
      <trkpt lat="46.48103" lon="5.47839">
        <ele>416</ele>
        <time>2021-04-05T12:47:07.000Z</time>
      </trkpt>
      <trkpt lat="46.48107" lon="5.47847">
        <ele>416.60000610352</ele>
        <time>2021-04-05T12:47:09.000Z</time>
      </trkpt>
      <trkpt lat="46.48111" lon="5.47855">
        <ele>417</ele>
        <time>2021-04-05T12:47:11.000Z</time>
      </trkpt>
      <trkpt lat="46.48116" lon="5.47868">
        <ele>418</ele>
        <time>2021-04-05T12:47:14.000Z</time>
      </trkpt>
      <trkpt lat="46.48117" lon="5.47871">
        <ele>418.20001220703</ele>
        <time>2021-04-05T12:47:15.000Z</time>
      </trkpt>
      <trkpt lat="46.48119" lon="5.47875">
        <ele>418.39999389648</ele>
        <time>2021-04-05T12:47:16.000Z</time>
      </trkpt>
      <trkpt lat="46.48121" lon="5.47879">
        <ele>418.60000610352</ele>
        <time>2021-04-05T12:47:17.000Z</time>
      </trkpt>
      <trkpt lat="46.48123" lon="5.47882">
        <ele>418.79998779297</ele>
        <time>2021-04-05T12:47:18.000Z</time>
      </trkpt>
      <trkpt lat="46.48127" lon="5.47889">
        <ele>419.20001220703</ele>
        <time>2021-04-05T12:47:20.000Z</time>
      </trkpt>
      <trkpt lat="46.4813" lon="5.47892">
        <ele>419.20001220703</ele>
        <time>2021-04-05T12:47:21.000Z</time>
      </trkpt>
      <trkpt lat="46.48132" lon="5.47896">
        <ele>419.20001220703</ele>
        <time>2021-04-05T12:47:22.000Z</time>
      </trkpt>
      <trkpt lat="46.48137" lon="5.47902">
        <ele>419.79998779297</ele>
        <time>2021-04-05T12:47:24.000Z</time>
      </trkpt>
      <trkpt lat="46.48142" lon="5.47909">
        <ele>420.39999389648</ele>
        <time>2021-04-05T12:47:26.000Z</time>
      </trkpt>
      <trkpt lat="46.48147" lon="5.47916">
        <ele>420.79998779297</ele>
        <time>2021-04-05T12:47:28.000Z</time>
      </trkpt>
      <trkpt lat="46.48153" lon="5.47921">
        <ele>421.20001220703</ele>
        <time>2021-04-05T12:47:30.000Z</time>
      </trkpt>
      <trkpt lat="46.48157" lon="5.47924">
        <ele>421.39999389648</ele>
        <time>2021-04-05T12:47:31.000Z</time>
      </trkpt>
      <trkpt lat="46.4816" lon="5.47927">
        <ele>421.60000610352</ele>
        <time>2021-04-05T12:47:32.000Z</time>
      </trkpt>
      <trkpt lat="46.48165" lon="5.47932">
        <ele>422</ele>
        <time>2021-04-05T12:47:34.000Z</time>
      </trkpt>
      <trkpt lat="46.48173" lon="5.47937">
        <ele>422.39999389648</ele>
        <time>2021-04-05T12:47:36.000Z</time>
      </trkpt>
      <trkpt lat="46.48179" lon="5.4794">
        <ele>422.79998779297</ele>
        <time>2021-04-05T12:47:38.000Z</time>
      </trkpt>
      <trkpt lat="46.48182" lon="5.47942">
        <ele>422.79998779297</ele>
        <time>2021-04-05T12:47:39.000Z</time>
      </trkpt>
      <trkpt lat="46.48185" lon="5.47944">
        <ele>422.79998779297</ele>
        <time>2021-04-05T12:47:40.000Z</time>
      </trkpt>
      <trkpt lat="46.48191" lon="5.47947">
        <ele>423.39999389648</ele>
        <time>2021-04-05T12:47:42.000Z</time>
      </trkpt>
      <trkpt lat="46.48196" lon="5.47951">
        <ele>424</ele>
        <time>2021-04-05T12:47:44.000Z</time>
      </trkpt>
      <trkpt lat="46.48202" lon="5.47955">
        <ele>424.60000610352</ele>
        <time>2021-04-05T12:47:46.000Z</time>
      </trkpt>
      <trkpt lat="46.48205" lon="5.47957">
        <ele>424.79998779297</ele>
        <time>2021-04-05T12:47:47.000Z</time>
      </trkpt>
      <trkpt lat="46.48208" lon="5.47958">
        <ele>425</ele>
        <time>2021-04-05T12:47:48.000Z</time>
      </trkpt>
      <trkpt lat="46.48214" lon="5.47962">
        <ele>425.20001220703</ele>
        <time>2021-04-05T12:47:50.000Z</time>
      </trkpt>
      <trkpt lat="46.4822" lon="5.47965">
        <ele>425.39999389648</ele>
        <time>2021-04-05T12:47:52.000Z</time>
      </trkpt>
      <trkpt lat="46.48226" lon="5.47968">
        <ele>425.79998779297</ele>
        <time>2021-04-05T12:47:54.000Z</time>
      </trkpt>
      <trkpt lat="46.48229" lon="5.4797">
        <ele>426</ele>
        <time>2021-04-05T12:47:55.000Z</time>
      </trkpt>
      <trkpt lat="46.48232" lon="5.47971">
        <ele>426.20001220703</ele>
        <time>2021-04-05T12:47:56.000Z</time>
      </trkpt>
      <trkpt lat="46.48238" lon="5.47974">
        <ele>426.60000610352</ele>
        <time>2021-04-05T12:47:58.000Z</time>
      </trkpt>
      <trkpt lat="46.48241" lon="5.47976">
        <ele>427</ele>
        <time>2021-04-05T12:47:59.000Z</time>
      </trkpt>
      <trkpt lat="46.48244" lon="5.47977">
        <ele>427.20001220703</ele>
        <time>2021-04-05T12:48:00.000Z</time>
      </trkpt>
      <trkpt lat="46.4825" lon="5.4798">
        <ele>427.39999389648</ele>
        <time>2021-04-05T12:48:02.000Z</time>
      </trkpt>
      <trkpt lat="46.48253" lon="5.47982">
        <ele>427.60000610352</ele>
        <time>2021-04-05T12:48:03.000Z</time>
      </trkpt>
      <trkpt lat="46.48256" lon="5.47984">
        <ele>427.79998779297</ele>
        <time>2021-04-05T12:48:04.000Z</time>
      </trkpt>
      <trkpt lat="46.48258" lon="5.47985">
        <ele>428</ele>
        <time>2021-04-05T12:48:05.000Z</time>
      </trkpt>
      <trkpt lat="46.48261" lon="5.47987">
        <ele>428.39999389648</ele>
        <time>2021-04-05T12:48:06.000Z</time>
      </trkpt>
      <trkpt lat="46.48268" lon="5.47991">
        <ele>429.20001220703</ele>
        <time>2021-04-05T12:48:09.000Z</time>
      </trkpt>
      <trkpt lat="46.48274" lon="5.47993">
        <ele>430</ele>
        <time>2021-04-05T12:48:11.000Z</time>
      </trkpt>
      <trkpt lat="46.48277" lon="5.47994">
        <ele>430.20001220703</ele>
        <time>2021-04-05T12:48:12.000Z</time>
      </trkpt>
      <trkpt lat="46.48279" lon="5.47995">
        <ele>430.60000610352</ele>
        <time>2021-04-05T12:48:13.000Z</time>
      </trkpt>
      <trkpt lat="46.48285" lon="5.47998">
        <ele>431.20001220703</ele>
        <time>2021-04-05T12:48:15.000Z</time>
      </trkpt>
      <trkpt lat="46.48287" lon="5.47999">
        <ele>431.60000610352</ele>
        <time>2021-04-05T12:48:16.000Z</time>
      </trkpt>
      <trkpt lat="46.4829" lon="5.48">
        <ele>431.79998779297</ele>
        <time>2021-04-05T12:48:17.000Z</time>
      </trkpt>
      <trkpt lat="46.48293" lon="5.48001">
        <ele>432.20001220703</ele>
        <time>2021-04-05T12:48:18.000Z</time>
      </trkpt>
      <trkpt lat="46.48298" lon="5.48003">
        <ele>432.60000610352</ele>
        <time>2021-04-05T12:48:20.000Z</time>
      </trkpt>
      <trkpt lat="46.48303" lon="5.48005">
        <ele>433.20001220703</ele>
        <time>2021-04-05T12:48:22.000Z</time>
      </trkpt>
      <trkpt lat="46.48308" lon="5.48007">
        <ele>433.60000610352</ele>
        <time>2021-04-05T12:48:24.000Z</time>
      </trkpt>
      <trkpt lat="46.4831" lon="5.48008">
        <ele>433.79998779297</ele>
        <time>2021-04-05T12:48:25.000Z</time>
      </trkpt>
      <trkpt lat="46.48313" lon="5.48008">
        <ele>434.20001220703</ele>
        <time>2021-04-05T12:48:26.000Z</time>
      </trkpt>
      <trkpt lat="46.4832" lon="5.48011">
        <ele>435</ele>
        <time>2021-04-05T12:48:29.000Z</time>
      </trkpt>
      <trkpt lat="46.48326" lon="5.48013">
        <ele>435.60000610352</ele>
        <time>2021-04-05T12:48:31.000Z</time>
      </trkpt>
      <trkpt lat="46.48331" lon="5.48015">
        <ele>436.20001220703</ele>
        <time>2021-04-05T12:48:33.000Z</time>
      </trkpt>
      <trkpt lat="46.48336" lon="5.48018">
        <ele>436.60000610352</ele>
        <time>2021-04-05T12:48:35.000Z</time>
      </trkpt>
      <trkpt lat="46.48341" lon="5.4802">
        <ele>437.20001220703</ele>
        <time>2021-04-05T12:48:37.000Z</time>
      </trkpt>
      <trkpt lat="46.48343" lon="5.48021">
        <ele>437.39999389648</ele>
        <time>2021-04-05T12:48:38.000Z</time>
      </trkpt>
      <trkpt lat="46.48345" lon="5.48021">
        <ele>438</ele>
        <time>2021-04-05T12:48:39.000Z</time>
      </trkpt>
      <trkpt lat="46.4835" lon="5.48023">
        <ele>438.79998779297</ele>
        <time>2021-04-05T12:48:41.000Z</time>
      </trkpt>
      <trkpt lat="46.48355" lon="5.48026">
        <ele>439.20001220703</ele>
        <time>2021-04-05T12:48:43.000Z</time>
      </trkpt>
      <trkpt lat="46.48359" lon="5.48027">
        <ele>439.60000610352</ele>
        <time>2021-04-05T12:48:45.000Z</time>
      </trkpt>
      <trkpt lat="46.48361" lon="5.48028">
        <ele>439.79998779297</ele>
        <time>2021-04-05T12:48:46.000Z</time>
      </trkpt>
      <trkpt lat="46.48363" lon="5.48029">
        <ele>440</ele>
        <time>2021-04-05T12:48:47.000Z</time>
      </trkpt>
      <trkpt lat="46.48368" lon="5.48032">
        <ele>440.60000610352</ele>
        <time>2021-04-05T12:48:49.000Z</time>
      </trkpt>
      <trkpt lat="46.4837" lon="5.48033">
        <ele>440.79998779297</ele>
        <time>2021-04-05T12:48:50.000Z</time>
      </trkpt>
      <trkpt lat="46.48372" lon="5.48034">
        <ele>441</ele>
        <time>2021-04-05T12:48:51.000Z</time>
      </trkpt>
      <trkpt lat="46.48375" lon="5.48036">
        <ele>441.60000610352</ele>
        <time>2021-04-05T12:48:53.000Z</time>
      </trkpt>
      <trkpt lat="46.48377" lon="5.48037">
        <ele>441.79998779297</ele>
        <time>2021-04-05T12:48:54.000Z</time>
      </trkpt>
      <trkpt lat="46.4838" lon="5.48038">
        <ele>442.20001220703</ele>
        <time>2021-04-05T12:48:55.000Z</time>
      </trkpt>
      <trkpt lat="46.48382" lon="5.48039">
        <ele>442.60000610352</ele>
        <time>2021-04-05T12:48:56.000Z</time>
      </trkpt>
      <trkpt lat="46.48384" lon="5.4804">
        <ele>443</ele>
        <time>2021-04-05T12:48:57.000Z</time>
      </trkpt>
      <trkpt lat="46.48389" lon="5.48043">
        <ele>443.60000610352</ele>
        <time>2021-04-05T12:48:59.000Z</time>
      </trkpt>
      <trkpt lat="46.48395" lon="5.48045">
        <ele>444.20001220703</ele>
        <time>2021-04-05T12:49:01.000Z</time>
      </trkpt>
      <trkpt lat="46.48398" lon="5.48048">
        <ele>444.79998779297</ele>
        <time>2021-04-05T12:49:03.000Z</time>
      </trkpt>
      <trkpt lat="46.48403" lon="5.48052">
        <ele>445.39999389648</ele>
        <time>2021-04-05T12:49:05.000Z</time>
      </trkpt>
      <trkpt lat="46.48408" lon="5.48054">
        <ele>446</ele>
        <time>2021-04-05T12:49:07.000Z</time>
      </trkpt>
      <trkpt lat="46.4841" lon="5.48055">
        <ele>446.39999389648</ele>
        <time>2021-04-05T12:49:08.000Z</time>
      </trkpt>
      <trkpt lat="46.48412" lon="5.48056">
        <ele>446.79998779297</ele>
        <time>2021-04-05T12:49:09.000Z</time>
      </trkpt>
      <trkpt lat="46.48418" lon="5.48059">
        <ele>447.39999389648</ele>
        <time>2021-04-05T12:49:11.000Z</time>
      </trkpt>
      <trkpt lat="46.4842" lon="5.4806">
        <ele>447.60000610352</ele>
        <time>2021-04-05T12:49:12.000Z</time>
      </trkpt>
      <trkpt lat="46.48423" lon="5.48061">
        <ele>447.79998779297</ele>
        <time>2021-04-05T12:49:13.000Z</time>
      </trkpt>
      <trkpt lat="46.48425" lon="5.48062">
        <ele>447.79998779297</ele>
        <time>2021-04-05T12:49:14.000Z</time>
      </trkpt>
      <trkpt lat="46.48428" lon="5.48064">
        <ele>448.20001220703</ele>
        <time>2021-04-05T12:49:15.000Z</time>
      </trkpt>
      <trkpt lat="46.48433" lon="5.48066">
        <ele>448.60000610352</ele>
        <time>2021-04-05T12:49:17.000Z</time>
      </trkpt>
      <trkpt lat="46.48436" lon="5.48068">
        <ele>448.79998779297</ele>
        <time>2021-04-05T12:49:18.000Z</time>
      </trkpt>
      <trkpt lat="46.48437" lon="5.48069">
        <ele>449</ele>
        <time>2021-04-05T12:49:19.000Z</time>
      </trkpt>
      <trkpt lat="46.48439" lon="5.48071">
        <ele>449.20001220703</ele>
        <time>2021-04-05T12:49:20.000Z</time>
      </trkpt>
      <trkpt lat="46.48441" lon="5.48073">
        <ele>449.60000610352</ele>
        <time>2021-04-05T12:49:21.000Z</time>
      </trkpt>
      <trkpt lat="46.48445" lon="5.48076">
        <ele>450</ele>
        <time>2021-04-05T12:49:23.000Z</time>
      </trkpt>
      <trkpt lat="46.48449" lon="5.48079">
        <ele>450.60000610352</ele>
        <time>2021-04-05T12:49:25.000Z</time>
      </trkpt>
      <trkpt lat="46.48451" lon="5.48081">
        <ele>450.79998779297</ele>
        <time>2021-04-05T12:49:26.000Z</time>
      </trkpt>
      <trkpt lat="46.48454" lon="5.48083">
        <ele>451.20001220703</ele>
        <time>2021-04-05T12:49:27.000Z</time>
      </trkpt>
      <trkpt lat="46.48458" lon="5.48086">
        <ele>451.79998779297</ele>
        <time>2021-04-05T12:49:29.000Z</time>
      </trkpt>
      <trkpt lat="46.48463" lon="5.48089">
        <ele>452.39999389648</ele>
        <time>2021-04-05T12:49:31.000Z</time>
      </trkpt>
      <trkpt lat="46.48465" lon="5.48091">
        <ele>452.60000610352</ele>
        <time>2021-04-05T12:49:32.000Z</time>
      </trkpt>
      <trkpt lat="46.48467" lon="5.48093">
        <ele>453</ele>
        <time>2021-04-05T12:49:33.000Z</time>
      </trkpt>
      <trkpt lat="46.48471" lon="5.48096">
        <ele>453.39999389648</ele>
        <time>2021-04-05T12:49:35.000Z</time>
      </trkpt>
      <trkpt lat="46.48474" lon="5.48098">
        <ele>453.39999389648</ele>
        <time>2021-04-05T12:49:36.000Z</time>
      </trkpt>
      <trkpt lat="46.48477" lon="5.48099">
        <ele>454</ele>
        <time>2021-04-05T12:49:37.000Z</time>
      </trkpt>
      <trkpt lat="46.48479" lon="5.48101">
        <ele>454.20001220703</ele>
        <time>2021-04-05T12:49:38.000Z</time>
      </trkpt>
      <trkpt lat="46.48482" lon="5.48103">
        <ele>454.39999389648</ele>
        <time>2021-04-05T12:49:39.000Z</time>
      </trkpt>
      <trkpt lat="46.48485" lon="5.48105">
        <ele>454.60000610352</ele>
        <time>2021-04-05T12:49:40.000Z</time>
      </trkpt>
      <trkpt lat="46.48487" lon="5.48107">
        <ele>454.79998779297</ele>
        <time>2021-04-05T12:49:41.000Z</time>
      </trkpt>
      <trkpt lat="46.48491" lon="5.4811">
        <ele>455.20001220703</ele>
        <time>2021-04-05T12:49:43.000Z</time>
      </trkpt>
      <trkpt lat="46.48495" lon="5.48114">
        <ele>455.79998779297</ele>
        <time>2021-04-05T12:49:45.000Z</time>
      </trkpt>
      <trkpt lat="46.485" lon="5.48118">
        <ele>456.20001220703</ele>
        <time>2021-04-05T12:49:47.000Z</time>
      </trkpt>
      <trkpt lat="46.48504" lon="5.48122">
        <ele>456.79998779297</ele>
        <time>2021-04-05T12:49:49.000Z</time>
      </trkpt>
      <trkpt lat="46.48509" lon="5.48125">
        <ele>457.39999389648</ele>
        <time>2021-04-05T12:49:51.000Z</time>
      </trkpt>
      <trkpt lat="46.48513" lon="5.48129">
        <ele>457.79998779297</ele>
        <time>2021-04-05T12:49:53.000Z</time>
      </trkpt>
      <trkpt lat="46.48515" lon="5.48131">
        <ele>458</ele>
        <time>2021-04-05T12:49:54.000Z</time>
      </trkpt>
      <trkpt lat="46.48517" lon="5.48134">
        <ele>458.39999389648</ele>
        <time>2021-04-05T12:49:55.000Z</time>
      </trkpt>
      <trkpt lat="46.48522" lon="5.48138">
        <ele>458.79998779297</ele>
        <time>2021-04-05T12:49:57.000Z</time>
      </trkpt>
      <trkpt lat="46.48524" lon="5.4814">
        <ele>459</ele>
        <time>2021-04-05T12:49:58.000Z</time>
      </trkpt>
      <trkpt lat="46.48527" lon="5.48142">
        <ele>459.20001220703</ele>
        <time>2021-04-05T12:49:59.000Z</time>
      </trkpt>
      <trkpt lat="46.48533" lon="5.48146">
        <ele>459.79998779297</ele>
        <time>2021-04-05T12:50:01.000Z</time>
      </trkpt>
      <trkpt lat="46.48536" lon="5.4815">
        <ele>460.20001220703</ele>
        <time>2021-04-05T12:50:03.000Z</time>
      </trkpt>
      <trkpt lat="46.48539" lon="5.48152">
        <ele>460.60000610352</ele>
        <time>2021-04-05T12:50:04.000Z</time>
      </trkpt>
      <trkpt lat="46.48542" lon="5.48153">
        <ele>460.79998779297</ele>
        <time>2021-04-05T12:50:05.000Z</time>
      </trkpt>
      <trkpt lat="46.48545" lon="5.48155">
        <ele>461.39999389648</ele>
        <time>2021-04-05T12:50:06.000Z</time>
      </trkpt>
      <trkpt lat="46.48548" lon="5.48157">
        <ele>461.60000610352</ele>
        <time>2021-04-05T12:50:07.000Z</time>
      </trkpt>
      <trkpt lat="46.48553" lon="5.48161">
        <ele>462.20001220703</ele>
        <time>2021-04-05T12:50:09.000Z</time>
      </trkpt>
      <trkpt lat="46.48555" lon="5.48163">
        <ele>462.60000610352</ele>
        <time>2021-04-05T12:50:10.000Z</time>
      </trkpt>
      <trkpt lat="46.48557" lon="5.48165">
        <ele>462.79998779297</ele>
        <time>2021-04-05T12:50:11.000Z</time>
      </trkpt>
      <trkpt lat="46.48562" lon="5.48168">
        <ele>463.60000610352</ele>
        <time>2021-04-05T12:50:13.000Z</time>
      </trkpt>
      <trkpt lat="46.48566" lon="5.48172">
        <ele>464.20001220703</ele>
        <time>2021-04-05T12:50:15.000Z</time>
      </trkpt>
      <trkpt lat="46.48568" lon="5.48174">
        <ele>464.60000610352</ele>
        <time>2021-04-05T12:50:16.000Z</time>
      </trkpt>
      <trkpt lat="46.4857" lon="5.48175">
        <ele>464.79998779297</ele>
        <time>2021-04-05T12:50:17.000Z</time>
      </trkpt>
      <trkpt lat="46.48576" lon="5.48179">
        <ele>465.20001220703</ele>
        <time>2021-04-05T12:50:19.000Z</time>
      </trkpt>
      <trkpt lat="46.4858" lon="5.48182">
        <ele>465.60000610352</ele>
        <time>2021-04-05T12:50:21.000Z</time>
      </trkpt>
      <trkpt lat="46.48583" lon="5.48184">
        <ele>465.79998779297</ele>
        <time>2021-04-05T12:50:22.000Z</time>
      </trkpt>
      <trkpt lat="46.48586" lon="5.48185">
        <ele>466.20001220703</ele>
        <time>2021-04-05T12:50:23.000Z</time>
      </trkpt>
      <trkpt lat="46.48589" lon="5.48188">
        <ele>466.60000610352</ele>
        <time>2021-04-05T12:50:25.000Z</time>
      </trkpt>
      <trkpt lat="46.48593" lon="5.48191">
        <ele>467</ele>
        <time>2021-04-05T12:50:27.000Z</time>
      </trkpt>
      <trkpt lat="46.48597" lon="5.48194">
        <ele>467.39999389648</ele>
        <time>2021-04-05T12:50:29.000Z</time>
      </trkpt>
      <trkpt lat="46.48599" lon="5.48195">
        <ele>467.60000610352</ele>
        <time>2021-04-05T12:50:30.000Z</time>
      </trkpt>
      <trkpt lat="46.48601" lon="5.48197">
        <ele>468</ele>
        <time>2021-04-05T12:50:31.000Z</time>
      </trkpt>
      <trkpt lat="46.48602" lon="5.48199">
        <ele>468.20001220703</ele>
        <time>2021-04-05T12:50:32.000Z</time>
      </trkpt>
      <trkpt lat="46.48604" lon="5.482">
        <ele>468.39999389648</ele>
        <time>2021-04-05T12:50:33.000Z</time>
      </trkpt>
      <trkpt lat="46.48609" lon="5.48204">
        <ele>469</ele>
        <time>2021-04-05T12:50:35.000Z</time>
      </trkpt>
      <trkpt lat="46.48611" lon="5.48206">
        <ele>469.20001220703</ele>
        <time>2021-04-05T12:50:36.000Z</time>
      </trkpt>
      <trkpt lat="46.48613" lon="5.48208">
        <ele>469.39999389648</ele>
        <time>2021-04-05T12:50:37.000Z</time>
      </trkpt>
      <trkpt lat="46.4862" lon="5.4821">
        <ele>470</ele>
        <time>2021-04-05T12:50:39.000Z</time>
      </trkpt>
      <trkpt lat="46.48624" lon="5.48214">
        <ele>470.39999389648</ele>
        <time>2021-04-05T12:50:41.000Z</time>
      </trkpt>
      <trkpt lat="46.48627" lon="5.48216">
        <ele>470.79998779297</ele>
        <time>2021-04-05T12:50:42.000Z</time>
      </trkpt>
      <trkpt lat="46.48629" lon="5.48217">
        <ele>471</ele>
        <time>2021-04-05T12:50:43.000Z</time>
      </trkpt>
      <trkpt lat="46.48636" lon="5.48221">
        <ele>471.60000610352</ele>
        <time>2021-04-05T12:50:45.000Z</time>
      </trkpt>
      <trkpt lat="46.4864" lon="5.48225">
        <ele>472</ele>
        <time>2021-04-05T12:50:47.000Z</time>
      </trkpt>
      <trkpt lat="46.48645" lon="5.48228">
        <ele>472.39999389648</ele>
        <time>2021-04-05T12:50:49.000Z</time>
      </trkpt>
      <trkpt lat="46.48648" lon="5.4823">
        <ele>472.79998779297</ele>
        <time>2021-04-05T12:50:50.000Z</time>
      </trkpt>
      <trkpt lat="46.48651" lon="5.48231">
        <ele>473</ele>
        <time>2021-04-05T12:50:51.000Z</time>
      </trkpt>
      <trkpt lat="46.48655" lon="5.48235">
        <ele>473.39999389648</ele>
        <time>2021-04-05T12:50:53.000Z</time>
      </trkpt>
      <trkpt lat="46.4866" lon="5.48239">
        <ele>474</ele>
        <time>2021-04-05T12:50:55.000Z</time>
      </trkpt>
      <trkpt lat="46.48663" lon="5.48241">
        <ele>474.20001220703</ele>
        <time>2021-04-05T12:50:56.000Z</time>
      </trkpt>
      <trkpt lat="46.48665" lon="5.48243">
        <ele>474.39999389648</ele>
        <time>2021-04-05T12:50:57.000Z</time>
      </trkpt>
      <trkpt lat="46.48669" lon="5.48246">
        <ele>475</ele>
        <time>2021-04-05T12:50:59.000Z</time>
      </trkpt>
      <trkpt lat="46.48671" lon="5.48249">
        <ele>475.20001220703</ele>
        <time>2021-04-05T12:51:00.000Z</time>
      </trkpt>
      <trkpt lat="46.48673" lon="5.48251">
        <ele>475.60000610352</ele>
        <time>2021-04-05T12:51:01.000Z</time>
      </trkpt>
      <trkpt lat="46.48678" lon="5.48255">
        <ele>476</ele>
        <time>2021-04-05T12:51:03.000Z</time>
      </trkpt>
      <trkpt lat="46.4868" lon="5.48257">
        <ele>476.60000610352</ele>
        <time>2021-04-05T12:51:04.000Z</time>
      </trkpt>
      <trkpt lat="46.48682" lon="5.48259">
        <ele>476.79998779297</ele>
        <time>2021-04-05T12:51:05.000Z</time>
      </trkpt>
      <trkpt lat="46.48686" lon="5.48263">
        <ele>477.20001220703</ele>
        <time>2021-04-05T12:51:07.000Z</time>
      </trkpt>
      <trkpt lat="46.48691" lon="5.48268">
        <ele>477.79998779297</ele>
        <time>2021-04-05T12:51:09.000Z</time>
      </trkpt>
      <trkpt lat="46.48696" lon="5.48271">
        <ele>478.39999389648</ele>
        <time>2021-04-05T12:51:11.000Z</time>
      </trkpt>
      <trkpt lat="46.487" lon="5.48275">
        <ele>478.79998779297</ele>
        <time>2021-04-05T12:51:13.000Z</time>
      </trkpt>
      <trkpt lat="46.48705" lon="5.4828">
        <ele>479.20001220703</ele>
        <time>2021-04-05T12:51:15.000Z</time>
      </trkpt>
      <trkpt lat="46.4871" lon="5.48284">
        <ele>479.79998779297</ele>
        <time>2021-04-05T12:51:17.000Z</time>
      </trkpt>
      <trkpt lat="46.48713" lon="5.48287">
        <ele>480</ele>
        <time>2021-04-05T12:51:18.000Z</time>
      </trkpt>
      <trkpt lat="46.48715" lon="5.48289">
        <ele>480.39999389648</ele>
        <time>2021-04-05T12:51:19.000Z</time>
      </trkpt>
      <trkpt lat="46.48719" lon="5.48293">
        <ele>481</ele>
        <time>2021-04-05T12:51:21.000Z</time>
      </trkpt>
      <trkpt lat="46.48722" lon="5.48295">
        <ele>481.20001220703</ele>
        <time>2021-04-05T12:51:22.000Z</time>
      </trkpt>
      <trkpt lat="46.48724" lon="5.48298">
        <ele>481.60000610352</ele>
        <time>2021-04-05T12:51:23.000Z</time>
      </trkpt>
      <trkpt lat="46.48727" lon="5.48302">
        <ele>482</ele>
        <time>2021-04-05T12:51:25.000Z</time>
      </trkpt>
      <trkpt lat="46.4873" lon="5.48305">
        <ele>482.39999389648</ele>
        <time>2021-04-05T12:51:26.000Z</time>
      </trkpt>
      <trkpt lat="46.48732" lon="5.48307">
        <ele>482.39999389648</ele>
        <time>2021-04-05T12:51:27.000Z</time>
      </trkpt>
      <trkpt lat="46.48736" lon="5.48313">
        <ele>482.79998779297</ele>
        <time>2021-04-05T12:51:29.000Z</time>
      </trkpt>
      <trkpt lat="46.4874" lon="5.48319">
        <ele>483.39999389648</ele>
        <time>2021-04-05T12:51:31.000Z</time>
      </trkpt>
      <trkpt lat="46.48743" lon="5.48321">
        <ele>483.60000610352</ele>
        <time>2021-04-05T12:51:32.000Z</time>
      </trkpt>
      <trkpt lat="46.48745" lon="5.48324">
        <ele>484</ele>
        <time>2021-04-05T12:51:33.000Z</time>
      </trkpt>
      <trkpt lat="46.48751" lon="5.4833">
        <ele>484.39999389648</ele>
        <time>2021-04-05T12:51:35.000Z</time>
      </trkpt>
      <trkpt lat="46.48756" lon="5.48336">
        <ele>484.79998779297</ele>
        <time>2021-04-05T12:51:37.000Z</time>
      </trkpt>
      <trkpt lat="46.48759" lon="5.48339">
        <ele>485</ele>
        <time>2021-04-05T12:51:38.000Z</time>
      </trkpt>
      <trkpt lat="46.48762" lon="5.48343">
        <ele>485.20001220703</ele>
        <time>2021-04-05T12:51:39.000Z</time>
      </trkpt>
      <trkpt lat="46.48765" lon="5.48346">
        <ele>485.39999389648</ele>
        <time>2021-04-05T12:51:40.000Z</time>
      </trkpt>
      <trkpt lat="46.48768" lon="5.48348">
        <ele>485.60000610352</ele>
        <time>2021-04-05T12:51:41.000Z</time>
      </trkpt>
      <trkpt lat="46.48775" lon="5.48352">
        <ele>486</ele>
        <time>2021-04-05T12:51:43.000Z</time>
      </trkpt>
      <trkpt lat="46.48778" lon="5.48355">
        <ele>486.20001220703</ele>
        <time>2021-04-05T12:51:44.000Z</time>
      </trkpt>
      <trkpt lat="46.4878" lon="5.48358">
        <ele>486.20001220703</ele>
        <time>2021-04-05T12:51:45.000Z</time>
      </trkpt>
      <trkpt lat="46.48785" lon="5.48363">
        <ele>486.39999389648</ele>
        <time>2021-04-05T12:51:47.000Z</time>
      </trkpt>
      <trkpt lat="46.48788" lon="5.48365">
        <ele>486.60000610352</ele>
        <time>2021-04-05T12:51:48.000Z</time>
      </trkpt>
      <trkpt lat="46.4879" lon="5.48366">
        <ele>486.60000610352</ele>
        <time>2021-04-05T12:51:49.000Z</time>
      </trkpt>
      <trkpt lat="46.48793" lon="5.48368">
        <ele>486.79998779297</ele>
        <time>2021-04-05T12:51:50.000Z</time>
      </trkpt>
      <trkpt lat="46.48797" lon="5.4837">
        <ele>487</ele>
        <time>2021-04-05T12:51:51.000Z</time>
      </trkpt>
      <trkpt lat="46.48802" lon="5.48374">
        <ele>487.39999389648</ele>
        <time>2021-04-05T12:51:53.000Z</time>
      </trkpt>
      <trkpt lat="46.48805" lon="5.48376">
        <ele>487.60000610352</ele>
        <time>2021-04-05T12:51:54.000Z</time>
      </trkpt>
      <trkpt lat="46.48808" lon="5.48378">
        <ele>487.79998779297</ele>
        <time>2021-04-05T12:51:55.000Z</time>
      </trkpt>
      <trkpt lat="46.48811" lon="5.4838">
        <ele>487.79998779297</ele>
        <time>2021-04-05T12:51:56.000Z</time>
      </trkpt>
      <trkpt lat="46.48814" lon="5.48381">
        <ele>488</ele>
        <time>2021-04-05T12:51:57.000Z</time>
      </trkpt>
      <trkpt lat="46.48819" lon="5.48386">
        <ele>488.39999389648</ele>
        <time>2021-04-05T12:51:59.000Z</time>
      </trkpt>
      <trkpt lat="46.48822" lon="5.48388">
        <ele>488.79998779297</ele>
        <time>2021-04-05T12:52:00.000Z</time>
      </trkpt>
      <trkpt lat="46.48825" lon="5.4839">
        <ele>489.20001220703</ele>
        <time>2021-04-05T12:52:01.000Z</time>
      </trkpt>
      <trkpt lat="46.48827" lon="5.48392">
        <ele>489.39999389648</ele>
        <time>2021-04-05T12:52:02.000Z</time>
      </trkpt>
      <trkpt lat="46.4883" lon="5.48395">
        <ele>489.79998779297</ele>
        <time>2021-04-05T12:52:03.000Z</time>
      </trkpt>
      <trkpt lat="46.48835" lon="5.48402">
        <ele>490.39999389648</ele>
        <time>2021-04-05T12:52:05.000Z</time>
      </trkpt>
      <trkpt lat="46.48842" lon="5.4841">
        <ele>491</ele>
        <time>2021-04-05T12:52:07.000Z</time>
      </trkpt>
      <trkpt lat="46.48845" lon="5.48414">
        <ele>491.39999389648</ele>
        <time>2021-04-05T12:52:08.000Z</time>
      </trkpt>
      <trkpt lat="46.48848" lon="5.48418">
        <ele>491.60000610352</ele>
        <time>2021-04-05T12:52:09.000Z</time>
      </trkpt>
      <trkpt lat="46.48855" lon="5.48424">
        <ele>492.20001220703</ele>
        <time>2021-04-05T12:52:11.000Z</time>
      </trkpt>
      <trkpt lat="46.48861" lon="5.4843">
        <ele>492.39999389648</ele>
        <time>2021-04-05T12:52:13.000Z</time>
      </trkpt>
      <trkpt lat="46.48868" lon="5.48437">
        <ele>492.79998779297</ele>
        <time>2021-04-05T12:52:15.000Z</time>
      </trkpt>
      <trkpt lat="46.48874" lon="5.48444">
        <ele>493.20001220703</ele>
        <time>2021-04-05T12:52:17.000Z</time>
      </trkpt>
      <trkpt lat="46.48877" lon="5.48447">
        <ele>493.20001220703</ele>
        <time>2021-04-05T12:52:18.000Z</time>
      </trkpt>
      <trkpt lat="46.48881" lon="5.4845">
        <ele>493.20001220703</ele>
        <time>2021-04-05T12:52:19.000Z</time>
      </trkpt>
      <trkpt lat="46.48888" lon="5.48456">
        <ele>493.60000610352</ele>
        <time>2021-04-05T12:52:21.000Z</time>
      </trkpt>
      <trkpt lat="46.48891" lon="5.48459">
        <ele>493.60000610352</ele>
        <time>2021-04-05T12:52:22.000Z</time>
      </trkpt>
      <trkpt lat="46.48894" lon="5.48463">
        <ele>493.79998779297</ele>
        <time>2021-04-05T12:52:23.000Z</time>
      </trkpt>
      <trkpt lat="46.48901" lon="5.48469">
        <ele>494</ele>
        <time>2021-04-05T12:52:25.000Z</time>
      </trkpt>
      <trkpt lat="46.48904" lon="5.48471">
        <ele>494.20001220703</ele>
        <time>2021-04-05T12:52:26.000Z</time>
      </trkpt>
      <trkpt lat="46.48907" lon="5.48475">
        <ele>494.39999389648</ele>
        <time>2021-04-05T12:52:27.000Z</time>
      </trkpt>
      <trkpt lat="46.48911" lon="5.48478">
        <ele>494.79998779297</ele>
        <time>2021-04-05T12:52:28.000Z</time>
      </trkpt>
      <trkpt lat="46.48913" lon="5.48481">
        <ele>495.20001220703</ele>
        <time>2021-04-05T12:52:29.000Z</time>
      </trkpt>
      <trkpt lat="46.48916" lon="5.48484">
        <ele>495.60000610352</ele>
        <time>2021-04-05T12:52:30.000Z</time>
      </trkpt>
      <trkpt lat="46.48919" lon="5.48487">
        <ele>495.79998779297</ele>
        <time>2021-04-05T12:52:31.000Z</time>
      </trkpt>
      <trkpt lat="46.48926" lon="5.48493">
        <ele>496.39999389648</ele>
        <time>2021-04-05T12:52:33.000Z</time>
      </trkpt>
      <trkpt lat="46.48932" lon="5.48499">
        <ele>496.60000610352</ele>
        <time>2021-04-05T12:52:35.000Z</time>
      </trkpt>
      <trkpt lat="46.48935" lon="5.48502">
        <ele>496.79998779297</ele>
        <time>2021-04-05T12:52:36.000Z</time>
      </trkpt>
      <trkpt lat="46.48938" lon="5.48505">
        <ele>497</ele>
        <time>2021-04-05T12:52:37.000Z</time>
      </trkpt>
      <trkpt lat="46.48945" lon="5.4851">
        <ele>497.39999389648</ele>
        <time>2021-04-05T12:52:39.000Z</time>
      </trkpt>
      <trkpt lat="46.48952" lon="5.48517">
        <ele>498</ele>
        <time>2021-04-05T12:52:41.000Z</time>
      </trkpt>
      <trkpt lat="46.48959" lon="5.48525">
        <ele>498.79998779297</ele>
        <time>2021-04-05T12:52:43.000Z</time>
      </trkpt>
      <trkpt lat="46.48965" lon="5.48534">
        <ele>499.39999389648</ele>
        <time>2021-04-05T12:52:45.000Z</time>
      </trkpt>
      <trkpt lat="46.4897" lon="5.48545">
        <ele>499.79998779297</ele>
        <time>2021-04-05T12:52:47.000Z</time>
      </trkpt>
      <trkpt lat="46.48976" lon="5.48557">
        <ele>500</ele>
        <time>2021-04-05T12:52:49.000Z</time>
      </trkpt>
      <trkpt lat="46.48982" lon="5.4857">
        <ele>500.20001220703</ele>
        <time>2021-04-05T12:52:51.000Z</time>
      </trkpt>
      <trkpt lat="46.48988" lon="5.48584">
        <ele>500.20001220703</ele>
        <time>2021-04-05T12:52:53.000Z</time>
      </trkpt>
      <trkpt lat="46.48994" lon="5.48596">
        <ele>500.20001220703</ele>
        <time>2021-04-05T12:52:55.000Z</time>
      </trkpt>
      <trkpt lat="46.49001" lon="5.48607">
        <ele>500.20001220703</ele>
        <time>2021-04-05T12:52:57.000Z</time>
      </trkpt>
      <trkpt lat="46.49007" lon="5.48617">
        <ele>500.39999389648</ele>
        <time>2021-04-05T12:52:59.000Z</time>
      </trkpt>
      <trkpt lat="46.49014" lon="5.48626">
        <ele>500.39999389648</ele>
        <time>2021-04-05T12:53:01.000Z</time>
      </trkpt>
      <trkpt lat="46.49021" lon="5.48636">
        <ele>500.60000610352</ele>
        <time>2021-04-05T12:53:03.000Z</time>
      </trkpt>
      <trkpt lat="46.49028" lon="5.48647">
        <ele>500.79998779297</ele>
        <time>2021-04-05T12:53:05.000Z</time>
      </trkpt>
      <trkpt lat="46.49032" lon="5.48652">
        <ele>501.20001220703</ele>
        <time>2021-04-05T12:53:06.000Z</time>
      </trkpt>
      <trkpt lat="46.49035" lon="5.48658">
        <ele>501.60000610352</ele>
        <time>2021-04-05T12:53:07.000Z</time>
      </trkpt>
      <trkpt lat="46.49044" lon="5.4867">
        <ele>502</ele>
        <time>2021-04-05T12:53:09.000Z</time>
      </trkpt>
      <trkpt lat="46.49054" lon="5.48683">
        <ele>502.20001220703</ele>
        <time>2021-04-05T12:53:11.000Z</time>
      </trkpt>
      <trkpt lat="46.49066" lon="5.48696">
        <ele>502.20001220703</ele>
        <time>2021-04-05T12:53:13.000Z</time>
      </trkpt>
      <trkpt lat="46.4908" lon="5.48706">
        <ele>502.20001220703</ele>
        <time>2021-04-05T12:53:15.000Z</time>
      </trkpt>
      <trkpt lat="46.49087" lon="5.48712">
        <ele>502.20001220703</ele>
        <time>2021-04-05T12:53:16.000Z</time>
      </trkpt>
      <trkpt lat="46.49093" lon="5.48719">
        <ele>502.20001220703</ele>
        <time>2021-04-05T12:53:17.000Z</time>
      </trkpt>
      <trkpt lat="46.49106" lon="5.48734">
        <ele>501.39999389648</ele>
        <time>2021-04-05T12:53:19.000Z</time>
      </trkpt>
      <trkpt lat="46.49112" lon="5.48743">
        <ele>501</ele>
        <time>2021-04-05T12:53:20.000Z</time>
      </trkpt>
      <trkpt lat="46.49116" lon="5.48752">
        <ele>500.20001220703</ele>
        <time>2021-04-05T12:53:21.000Z</time>
      </trkpt>
      <trkpt lat="46.49125" lon="5.48769">
        <ele>499.20001220703</ele>
        <time>2021-04-05T12:53:23.000Z</time>
      </trkpt>
      <trkpt lat="46.49133" lon="5.48786">
        <ele>498.79998779297</ele>
        <time>2021-04-05T12:53:25.000Z</time>
      </trkpt>
      <trkpt lat="46.49137" lon="5.48794">
        <ele>498.60000610352</ele>
        <time>2021-04-05T12:53:26.000Z</time>
      </trkpt>
      <trkpt lat="46.49141" lon="5.48803">
        <ele>498.60000610352</ele>
        <time>2021-04-05T12:53:27.000Z</time>
      </trkpt>
      <trkpt lat="46.49148" lon="5.4882">
        <ele>498.60000610352</ele>
        <time>2021-04-05T12:53:29.000Z</time>
      </trkpt>
      <trkpt lat="46.49156" lon="5.48838">
        <ele>498.60000610352</ele>
        <time>2021-04-05T12:53:31.000Z</time>
      </trkpt>
      <trkpt lat="46.49164" lon="5.48858">
        <ele>499.20001220703</ele>
        <time>2021-04-05T12:53:33.000Z</time>
      </trkpt>
      <trkpt lat="46.49172" lon="5.48878">
        <ele>499.20001220703</ele>
        <time>2021-04-05T12:53:35.000Z</time>
      </trkpt>
      <trkpt lat="46.4918" lon="5.48901">
        <ele>499.39999389648</ele>
        <time>2021-04-05T12:53:37.000Z</time>
      </trkpt>
      <trkpt lat="46.49189" lon="5.48924">
        <ele>499.39999389648</ele>
        <time>2021-04-05T12:53:39.000Z</time>
      </trkpt>
      <trkpt lat="46.49197" lon="5.48947">
        <ele>499.39999389648</ele>
        <time>2021-04-05T12:53:41.000Z</time>
      </trkpt>
      <trkpt lat="46.49204" lon="5.48969">
        <ele>499.20001220703</ele>
        <time>2021-04-05T12:53:43.000Z</time>
      </trkpt>
      <trkpt lat="46.49211" lon="5.48991">
        <ele>498.39999389648</ele>
        <time>2021-04-05T12:53:45.000Z</time>
      </trkpt>
      <trkpt lat="46.49215" lon="5.49002">
        <ele>498</ele>
        <time>2021-04-05T12:53:46.000Z</time>
      </trkpt>
      <trkpt lat="46.49218" lon="5.49013">
        <ele>498</ele>
        <time>2021-04-05T12:53:47.000Z</time>
      </trkpt>
      <trkpt lat="46.49224" lon="5.49033">
        <ele>497.79998779297</ele>
        <time>2021-04-05T12:53:49.000Z</time>
      </trkpt>
      <trkpt lat="46.49231" lon="5.49054">
        <ele>497.79998779297</ele>
        <time>2021-04-05T12:53:51.000Z</time>
      </trkpt>
      <trkpt lat="46.49237" lon="5.49074">
        <ele>497.79998779297</ele>
        <time>2021-04-05T12:53:53.000Z</time>
      </trkpt>
      <trkpt lat="46.4924" lon="5.49085">
        <ele>497.79998779297</ele>
        <time>2021-04-05T12:53:54.000Z</time>
      </trkpt>
      <trkpt lat="46.49243" lon="5.49095">
        <ele>497.79998779297</ele>
        <time>2021-04-05T12:53:55.000Z</time>
      </trkpt>
      <trkpt lat="46.49249" lon="5.49115">
        <ele>498.20001220703</ele>
        <time>2021-04-05T12:53:57.000Z</time>
      </trkpt>
      <trkpt lat="46.49255" lon="5.49136">
        <ele>498.20001220703</ele>
        <time>2021-04-05T12:53:59.000Z</time>
      </trkpt>
      <trkpt lat="46.49262" lon="5.49156">
        <ele>498.39999389648</ele>
        <time>2021-04-05T12:54:01.000Z</time>
      </trkpt>
      <trkpt lat="46.49267" lon="5.49176">
        <ele>498.60000610352</ele>
        <time>2021-04-05T12:54:03.000Z</time>
      </trkpt>
      <trkpt lat="46.4927" lon="5.49185">
        <ele>498.60000610352</ele>
        <time>2021-04-05T12:54:04.000Z</time>
      </trkpt>
      <trkpt lat="46.49273" lon="5.49195">
        <ele>498.60000610352</ele>
        <time>2021-04-05T12:54:05.000Z</time>
      </trkpt>
      <trkpt lat="46.49278" lon="5.49213">
        <ele>498.79998779297</ele>
        <time>2021-04-05T12:54:07.000Z</time>
      </trkpt>
      <trkpt lat="46.49284" lon="5.49231">
        <ele>498.79998779297</ele>
        <time>2021-04-05T12:54:09.000Z</time>
      </trkpt>
      <trkpt lat="46.49288" lon="5.49249">
        <ele>499.20001220703</ele>
        <time>2021-04-05T12:54:11.000Z</time>
      </trkpt>
      <trkpt lat="46.4929" lon="5.49257">
        <ele>499.20001220703</ele>
        <time>2021-04-05T12:54:12.000Z</time>
      </trkpt>
      <trkpt lat="46.49292" lon="5.49266">
        <ele>499.20001220703</ele>
        <time>2021-04-05T12:54:13.000Z</time>
      </trkpt>
      <trkpt lat="46.49294" lon="5.49282">
        <ele>499.79998779297</ele>
        <time>2021-04-05T12:54:15.000Z</time>
      </trkpt>
      <trkpt lat="46.49294" lon="5.49298">
        <ele>500.20001220703</ele>
        <time>2021-04-05T12:54:17.000Z</time>
      </trkpt>
      <trkpt lat="46.49293" lon="5.49313">
        <ele>500.60000610352</ele>
        <time>2021-04-05T12:54:19.000Z</time>
      </trkpt>
      <trkpt lat="46.49291" lon="5.49328">
        <ele>501</ele>
        <time>2021-04-05T12:54:21.000Z</time>
      </trkpt>
      <trkpt lat="46.4929" lon="5.49336">
        <ele>501.60000610352</ele>
        <time>2021-04-05T12:54:22.000Z</time>
      </trkpt>
      <trkpt lat="46.49288" lon="5.49344">
        <ele>502</ele>
        <time>2021-04-05T12:54:23.000Z</time>
      </trkpt>
      <trkpt lat="46.49286" lon="5.4936">
        <ele>503.20001220703</ele>
        <time>2021-04-05T12:54:25.000Z</time>
      </trkpt>
      <trkpt lat="46.49283" lon="5.49376">
        <ele>503.39999389648</ele>
        <time>2021-04-05T12:54:27.000Z</time>
      </trkpt>
      <trkpt lat="46.49281" lon="5.49392">
        <ele>503.60000610352</ele>
        <time>2021-04-05T12:54:29.000Z</time>
      </trkpt>
      <trkpt lat="46.49278" lon="5.49407">
        <ele>503.79998779297</ele>
        <time>2021-04-05T12:54:31.000Z</time>
      </trkpt>
      <trkpt lat="46.49275" lon="5.49423">
        <ele>504.20001220703</ele>
        <time>2021-04-05T12:54:33.000Z</time>
      </trkpt>
      <trkpt lat="46.4927" lon="5.49438">
        <ele>504.39999389648</ele>
        <time>2021-04-05T12:54:35.000Z</time>
      </trkpt>
      <trkpt lat="46.49266" lon="5.49453">
        <ele>504.60000610352</ele>
        <time>2021-04-05T12:54:37.000Z</time>
      </trkpt>
      <trkpt lat="46.4926" lon="5.49468">
        <ele>504.79998779297</ele>
        <time>2021-04-05T12:54:39.000Z</time>
      </trkpt>
      <trkpt lat="46.49257" lon="5.49475">
        <ele>504.79998779297</ele>
        <time>2021-04-05T12:54:40.000Z</time>
      </trkpt>
      <trkpt lat="46.49254" lon="5.49482">
        <ele>505</ele>
        <time>2021-04-05T12:54:41.000Z</time>
      </trkpt>
      <trkpt lat="46.49249" lon="5.49496">
        <ele>505.20001220703</ele>
        <time>2021-04-05T12:54:43.000Z</time>
      </trkpt>
      <trkpt lat="46.49244" lon="5.49509">
        <ele>505.20001220703</ele>
        <time>2021-04-05T12:54:45.000Z</time>
      </trkpt>
      <trkpt lat="46.49239" lon="5.49523">
        <ele>505.39999389648</ele>
        <time>2021-04-05T12:54:47.000Z</time>
      </trkpt>
      <trkpt lat="46.49237" lon="5.4953">
        <ele>505.60000610352</ele>
        <time>2021-04-05T12:54:48.000Z</time>
      </trkpt>
      <trkpt lat="46.49236" lon="5.49538">
        <ele>505.60000610352</ele>
        <time>2021-04-05T12:54:49.000Z</time>
      </trkpt>
      <trkpt lat="46.49237" lon="5.49554">
        <ele>506</ele>
        <time>2021-04-05T12:54:51.000Z</time>
      </trkpt>
      <trkpt lat="46.49241" lon="5.49569">
        <ele>506.20001220703</ele>
        <time>2021-04-05T12:54:53.000Z</time>
      </trkpt>
      <trkpt lat="46.49243" lon="5.49575">
        <ele>506.60000610352</ele>
        <time>2021-04-05T12:54:54.000Z</time>
      </trkpt>
      <trkpt lat="46.49246" lon="5.49581">
        <ele>506.79998779297</ele>
        <time>2021-04-05T12:54:55.000Z</time>
      </trkpt>
      <trkpt lat="46.49253" lon="5.49593">
        <ele>507</ele>
        <time>2021-04-05T12:54:57.000Z</time>
      </trkpt>
      <trkpt lat="46.49256" lon="5.49599">
        <ele>507.39999389648</ele>
        <time>2021-04-05T12:54:58.000Z</time>
      </trkpt>
      <trkpt lat="46.49259" lon="5.49604">
        <ele>507.60000610352</ele>
        <time>2021-04-05T12:54:59.000Z</time>
      </trkpt>
      <trkpt lat="46.49266" lon="5.49615">
        <ele>508.39999389648</ele>
        <time>2021-04-05T12:55:01.000Z</time>
      </trkpt>
      <trkpt lat="46.49272" lon="5.49625">
        <ele>509</ele>
        <time>2021-04-05T12:55:03.000Z</time>
      </trkpt>
      <trkpt lat="46.49275" lon="5.49629">
        <ele>509.20001220703</ele>
        <time>2021-04-05T12:55:04.000Z</time>
      </trkpt>
      <trkpt lat="46.49279" lon="5.49633">
        <ele>509.39999389648</ele>
        <time>2021-04-05T12:55:05.000Z</time>
      </trkpt>
      <trkpt lat="46.49286" lon="5.4964">
        <ele>509.39999389648</ele>
        <time>2021-04-05T12:55:07.000Z</time>
      </trkpt>
      <trkpt lat="46.49295" lon="5.49645">
        <ele>510</ele>
        <time>2021-04-05T12:55:09.000Z</time>
      </trkpt>
      <trkpt lat="46.49306" lon="5.49651">
        <ele>510.60000610352</ele>
        <time>2021-04-05T12:55:11.000Z</time>
      </trkpt>
      <trkpt lat="46.49317" lon="5.49656">
        <ele>511.20001220703</ele>
        <time>2021-04-05T12:55:13.000Z</time>
      </trkpt>
      <trkpt lat="46.49328" lon="5.49662">
        <ele>511.39999389648</ele>
        <time>2021-04-05T12:55:15.000Z</time>
      </trkpt>
      <trkpt lat="46.49334" lon="5.49664">
        <ele>511.39999389648</ele>
        <time>2021-04-05T12:55:16.000Z</time>
      </trkpt>
      <trkpt lat="46.4934" lon="5.49667">
        <ele>511.39999389648</ele>
        <time>2021-04-05T12:55:17.000Z</time>
      </trkpt>
      <trkpt lat="46.49352" lon="5.49674">
        <ele>511.39999389648</ele>
        <time>2021-04-05T12:55:19.000Z</time>
      </trkpt>
      <trkpt lat="46.49362" lon="5.49685">
        <ele>511.39999389648</ele>
        <time>2021-04-05T12:55:21.000Z</time>
      </trkpt>
      <trkpt lat="46.49372" lon="5.497">
        <ele>511.39999389648</ele>
        <time>2021-04-05T12:55:23.000Z</time>
      </trkpt>
      <trkpt lat="46.49379" lon="5.4972">
        <ele>511</ele>
        <time>2021-04-05T12:55:25.000Z</time>
      </trkpt>
      <trkpt lat="46.49385" lon="5.49741">
        <ele>510.79998779297</ele>
        <time>2021-04-05T12:55:27.000Z</time>
      </trkpt>
      <trkpt lat="46.49391" lon="5.49763">
        <ele>510.60000610352</ele>
        <time>2021-04-05T12:55:29.000Z</time>
      </trkpt>
      <trkpt lat="46.49395" lon="5.49773">
        <ele>510.60000610352</ele>
        <time>2021-04-05T12:55:30.000Z</time>
      </trkpt>
      <trkpt lat="46.494" lon="5.49783">
        <ele>510.39999389648</ele>
        <time>2021-04-05T12:55:31.000Z</time>
      </trkpt>
      <trkpt lat="46.49411" lon="5.49803">
        <ele>509.60000610352</ele>
        <time>2021-04-05T12:55:33.000Z</time>
      </trkpt>
      <trkpt lat="46.49422" lon="5.49825">
        <ele>509.20001220703</ele>
        <time>2021-04-05T12:55:35.000Z</time>
      </trkpt>
      <trkpt lat="46.49434" lon="5.49847">
        <ele>509</ele>
        <time>2021-04-05T12:55:37.000Z</time>
      </trkpt>
      <trkpt lat="46.49446" lon="5.4987">
        <ele>508.79998779297</ele>
        <time>2021-04-05T12:55:39.000Z</time>
      </trkpt>
      <trkpt lat="46.49457" lon="5.49891">
        <ele>508.60000610352</ele>
        <time>2021-04-05T12:55:41.000Z</time>
      </trkpt>
      <trkpt lat="46.49463" lon="5.49902">
        <ele>508.20001220703</ele>
        <time>2021-04-05T12:55:42.000Z</time>
      </trkpt>
      <trkpt lat="46.49468" lon="5.49912">
        <ele>507.39999389648</ele>
        <time>2021-04-05T12:55:43.000Z</time>
      </trkpt>
      <trkpt lat="46.49477" lon="5.49931">
        <ele>506.20001220703</ele>
        <time>2021-04-05T12:55:45.000Z</time>
      </trkpt>
      <trkpt lat="46.49485" lon="5.49948">
        <ele>505.79998779297</ele>
        <time>2021-04-05T12:55:47.000Z</time>
      </trkpt>
      <trkpt lat="46.49494" lon="5.49964">
        <ele>505.79998779297</ele>
        <time>2021-04-05T12:55:49.000Z</time>
      </trkpt>
      <trkpt lat="46.49502" lon="5.49979">
        <ele>505.60000610352</ele>
        <time>2021-04-05T12:55:51.000Z</time>
      </trkpt>
      <trkpt lat="46.49509" lon="5.49995">
        <ele>506</ele>
        <time>2021-04-05T12:55:53.000Z</time>
      </trkpt>
      <trkpt lat="46.49517" lon="5.5001">
        <ele>506.79998779297</ele>
        <time>2021-04-05T12:55:55.000Z</time>
      </trkpt>
      <trkpt lat="46.4952" lon="5.50018">
        <ele>507.20001220703</ele>
        <time>2021-04-05T12:55:56.000Z</time>
      </trkpt>
      <trkpt lat="46.49524" lon="5.50026">
        <ele>507.60000610352</ele>
        <time>2021-04-05T12:55:57.000Z</time>
      </trkpt>
      <trkpt lat="46.49531" lon="5.50042">
        <ele>508.60000610352</ele>
        <time>2021-04-05T12:55:59.000Z</time>
      </trkpt>
      <trkpt lat="46.49536" lon="5.50061">
        <ele>509</ele>
        <time>2021-04-05T12:56:01.000Z</time>
      </trkpt>
      <trkpt lat="46.49539" lon="5.50071">
        <ele>509.20001220703</ele>
        <time>2021-04-05T12:56:02.000Z</time>
      </trkpt>
      <trkpt lat="46.49541" lon="5.50081">
        <ele>509.20001220703</ele>
        <time>2021-04-05T12:56:03.000Z</time>
      </trkpt>
      <trkpt lat="46.49545" lon="5.50103">
        <ele>509.20001220703</ele>
        <time>2021-04-05T12:56:05.000Z</time>
      </trkpt>
      <trkpt lat="46.49551" lon="5.50123">
        <ele>509.20001220703</ele>
        <time>2021-04-05T12:56:07.000Z</time>
      </trkpt>
      <trkpt lat="46.49554" lon="5.50133">
        <ele>509.20001220703</ele>
        <time>2021-04-05T12:56:08.000Z</time>
      </trkpt>
      <trkpt lat="46.49558" lon="5.50141">
        <ele>509.20001220703</ele>
        <time>2021-04-05T12:56:09.000Z</time>
      </trkpt>
      <trkpt lat="46.49565" lon="5.50157">
        <ele>509.39999389648</ele>
        <time>2021-04-05T12:56:11.000Z</time>
      </trkpt>
      <trkpt lat="46.49572" lon="5.50171">
        <ele>509.60000610352</ele>
        <time>2021-04-05T12:56:13.000Z</time>
      </trkpt>
      <trkpt lat="46.49579" lon="5.50185">
        <ele>509.60000610352</ele>
        <time>2021-04-05T12:56:15.000Z</time>
      </trkpt>
      <trkpt lat="46.49586" lon="5.50198">
        <ele>509.60000610352</ele>
        <time>2021-04-05T12:56:17.000Z</time>
      </trkpt>
      <trkpt lat="46.49593" lon="5.5021">
        <ele>509.60000610352</ele>
        <time>2021-04-05T12:56:19.000Z</time>
      </trkpt>
      <trkpt lat="46.49597" lon="5.50216">
        <ele>510</ele>
        <time>2021-04-05T12:56:20.000Z</time>
      </trkpt>
      <trkpt lat="46.496" lon="5.50221">
        <ele>510.39999389648</ele>
        <time>2021-04-05T12:56:21.000Z</time>
      </trkpt>
      <trkpt lat="46.49606" lon="5.50232">
        <ele>511.20001220703</ele>
        <time>2021-04-05T12:56:23.000Z</time>
      </trkpt>
      <trkpt lat="46.49612" lon="5.50241">
        <ele>511.79998779297</ele>
        <time>2021-04-05T12:56:25.000Z</time>
      </trkpt>
      <trkpt lat="46.49618" lon="5.5025">
        <ele>512.59997558594</ele>
        <time>2021-04-05T12:56:27.000Z</time>
      </trkpt>
      <trkpt lat="46.49621" lon="5.50254">
        <ele>512.79998779297</ele>
        <time>2021-04-05T12:56:28.000Z</time>
      </trkpt>
      <trkpt lat="46.49624" lon="5.50258">
        <ele>513</ele>
        <time>2021-04-05T12:56:29.000Z</time>
      </trkpt>
      <trkpt lat="46.4963" lon="5.50267">
        <ele>513.79998779297</ele>
        <time>2021-04-05T12:56:31.000Z</time>
      </trkpt>
      <trkpt lat="46.49634" lon="5.50276">
        <ele>514.79998779297</ele>
        <time>2021-04-05T12:56:33.000Z</time>
      </trkpt>
      <trkpt lat="46.49637" lon="5.5028">
        <ele>515.20001220703</ele>
        <time>2021-04-05T12:56:34.000Z</time>
      </trkpt>
      <trkpt lat="46.49639" lon="5.50285">
        <ele>515.79998779297</ele>
        <time>2021-04-05T12:56:35.000Z</time>
      </trkpt>
      <trkpt lat="46.49644" lon="5.50294">
        <ele>516.59997558594</ele>
        <time>2021-04-05T12:56:37.000Z</time>
      </trkpt>
      <trkpt lat="46.49648" lon="5.50303">
        <ele>517.20001220703</ele>
        <time>2021-04-05T12:56:39.000Z</time>
      </trkpt>
      <trkpt lat="46.49653" lon="5.50311">
        <ele>517.79998779297</ele>
        <time>2021-04-05T12:56:41.000Z</time>
      </trkpt>
      <trkpt lat="46.49658" lon="5.50318">
        <ele>518.20001220703</ele>
        <time>2021-04-05T12:56:43.000Z</time>
      </trkpt>
      <trkpt lat="46.49662" lon="5.50325">
        <ele>518.79998779297</ele>
        <time>2021-04-05T12:56:45.000Z</time>
      </trkpt>
      <trkpt lat="46.49665" lon="5.50332">
        <ele>519.20001220703</ele>
        <time>2021-04-05T12:56:47.000Z</time>
      </trkpt>
      <trkpt lat="46.49669" lon="5.50338">
        <ele>519.40002441406</ele>
        <time>2021-04-05T12:56:49.000Z</time>
      </trkpt>
      <trkpt lat="46.4967" lon="5.50341">
        <ele>519.40002441406</ele>
        <time>2021-04-05T12:56:51.000Z</time>
      </trkpt>
      <trkpt lat="46.4967" lon="5.50342">
        <ele>519.40002441406</ele>
        <time>2021-04-05T12:56:53.000Z</time>
      </trkpt>
      <trkpt lat="46.49672" lon="5.50345">
        <ele>519.20001220703</ele>
        <time>2021-04-05T12:57:44.000Z</time>
      </trkpt>
      <trkpt lat="46.49673" lon="5.50346">
        <ele>519.20001220703</ele>
        <time>2021-04-05T12:57:45.000Z</time>
      </trkpt>
      <trkpt lat="46.49675" lon="5.50348">
        <ele>519.20001220703</ele>
        <time>2021-04-05T12:57:46.000Z</time>
      </trkpt>
      <trkpt lat="46.49678" lon="5.5035">
        <ele>519.20001220703</ele>
        <time>2021-04-05T12:57:47.000Z</time>
      </trkpt>
      <trkpt lat="46.49681" lon="5.50353">
        <ele>519.20001220703</ele>
        <time>2021-04-05T12:57:48.000Z</time>
      </trkpt>
      <trkpt lat="46.49684" lon="5.50358">
        <ele>519.20001220703</ele>
        <time>2021-04-05T12:57:49.000Z</time>
      </trkpt>
      <trkpt lat="46.49688" lon="5.50363">
        <ele>519.20001220703</ele>
        <time>2021-04-05T12:57:50.000Z</time>
      </trkpt>
      <trkpt lat="46.49692" lon="5.50368">
        <ele>519.20001220703</ele>
        <time>2021-04-05T12:57:51.000Z</time>
      </trkpt>
      <trkpt lat="46.49701" lon="5.50378">
        <ele>519.20001220703</ele>
        <time>2021-04-05T12:57:53.000Z</time>
      </trkpt>
      <trkpt lat="46.49711" lon="5.5039">
        <ele>518.79998779297</ele>
        <time>2021-04-05T12:57:55.000Z</time>
      </trkpt>
      <trkpt lat="46.49715" lon="5.50397">
        <ele>518.40002441406</ele>
        <time>2021-04-05T12:57:56.000Z</time>
      </trkpt>
      <trkpt lat="46.4972" lon="5.50403">
        <ele>518.20001220703</ele>
        <time>2021-04-05T12:57:57.000Z</time>
      </trkpt>
      <trkpt lat="46.49724" lon="5.50411">
        <ele>518.20001220703</ele>
        <time>2021-04-05T12:57:58.000Z</time>
      </trkpt>
      <trkpt lat="46.49729" lon="5.50418">
        <ele>518</ele>
        <time>2021-04-05T12:57:59.000Z</time>
      </trkpt>
      <trkpt lat="46.4974" lon="5.50432">
        <ele>517.59997558594</ele>
        <time>2021-04-05T12:58:01.000Z</time>
      </trkpt>
      <trkpt lat="46.49753" lon="5.50444">
        <ele>517.59997558594</ele>
        <time>2021-04-05T12:58:03.000Z</time>
      </trkpt>
      <trkpt lat="46.49767" lon="5.50452">
        <ele>517.59997558594</ele>
        <time>2021-04-05T12:58:05.000Z</time>
      </trkpt>
      <trkpt lat="46.49775" lon="5.50455">
        <ele>517.40002441406</ele>
        <time>2021-04-05T12:58:06.000Z</time>
      </trkpt>
      <trkpt lat="46.49783" lon="5.50458">
        <ele>517</ele>
        <time>2021-04-05T12:58:07.000Z</time>
      </trkpt>
      <trkpt lat="46.49798" lon="5.50462">
        <ele>516.20001220703</ele>
        <time>2021-04-05T12:58:09.000Z</time>
      </trkpt>
      <trkpt lat="46.49806" lon="5.50464">
        <ele>515.79998779297</ele>
        <time>2021-04-05T12:58:10.000Z</time>
      </trkpt>
      <trkpt lat="46.49813" lon="5.50466">
        <ele>515.40002441406</ele>
        <time>2021-04-05T12:58:11.000Z</time>
      </trkpt>
      <trkpt lat="46.49828" lon="5.5047">
        <ele>514.79998779297</ele>
        <time>2021-04-05T12:58:13.000Z</time>
      </trkpt>
      <trkpt lat="46.49843" lon="5.50474">
        <ele>514.20001220703</ele>
        <time>2021-04-05T12:58:15.000Z</time>
      </trkpt>
      <trkpt lat="46.49856" lon="5.50481">
        <ele>513.79998779297</ele>
        <time>2021-04-05T12:58:17.000Z</time>
      </trkpt>
      <trkpt lat="46.49863" lon="5.50485">
        <ele>513.59997558594</ele>
        <time>2021-04-05T12:58:18.000Z</time>
      </trkpt>
      <trkpt lat="46.49869" lon="5.50489">
        <ele>513.59997558594</ele>
        <time>2021-04-05T12:58:19.000Z</time>
      </trkpt>
      <trkpt lat="46.49882" lon="5.50499">
        <ele>513.59997558594</ele>
        <time>2021-04-05T12:58:21.000Z</time>
      </trkpt>
      <trkpt lat="46.49894" lon="5.50509">
        <ele>513.59997558594</ele>
        <time>2021-04-05T12:58:23.000Z</time>
      </trkpt>
      <trkpt lat="46.49906" lon="5.50518">
        <ele>513.59997558594</ele>
        <time>2021-04-05T12:58:25.000Z</time>
      </trkpt>
      <trkpt lat="46.49918" lon="5.50526">
        <ele>513.59997558594</ele>
        <time>2021-04-05T12:58:27.000Z</time>
      </trkpt>
      <trkpt lat="46.4993" lon="5.50532">
        <ele>513.59997558594</ele>
        <time>2021-04-05T12:58:29.000Z</time>
      </trkpt>
      <trkpt lat="46.49943" lon="5.50536">
        <ele>513.79998779297</ele>
        <time>2021-04-05T12:58:31.000Z</time>
      </trkpt>
      <trkpt lat="46.49949" lon="5.50537">
        <ele>513.79998779297</ele>
        <time>2021-04-05T12:58:32.000Z</time>
      </trkpt>
      <trkpt lat="46.49955" lon="5.50537">
        <ele>513.79998779297</ele>
        <time>2021-04-05T12:58:33.000Z</time>
      </trkpt>
      <trkpt lat="46.49962" lon="5.50536">
        <ele>513.79998779297</ele>
        <time>2021-04-05T12:58:34.000Z</time>
      </trkpt>
      <trkpt lat="46.49968" lon="5.50535">
        <ele>513.79998779297</ele>
        <time>2021-04-05T12:58:35.000Z</time>
      </trkpt>
      <trkpt lat="46.49981" lon="5.50529">
        <ele>514</ele>
        <time>2021-04-05T12:58:37.000Z</time>
      </trkpt>
      <trkpt lat="46.49987" lon="5.50525">
        <ele>514</ele>
        <time>2021-04-05T12:58:38.000Z</time>
      </trkpt>
      <trkpt lat="46.49994" lon="5.50521">
        <ele>514</ele>
        <time>2021-04-05T12:58:39.000Z</time>
      </trkpt>
      <trkpt lat="46.50006" lon="5.50513">
        <ele>514</ele>
        <time>2021-04-05T12:58:41.000Z</time>
      </trkpt>
      <trkpt lat="46.50019" lon="5.50504">
        <ele>514</ele>
        <time>2021-04-05T12:58:43.000Z</time>
      </trkpt>
      <trkpt lat="46.50026" lon="5.50499">
        <ele>514</ele>
        <time>2021-04-05T12:58:44.000Z</time>
      </trkpt>
      <trkpt lat="46.50032" lon="5.50493">
        <ele>514</ele>
        <time>2021-04-05T12:58:45.000Z</time>
      </trkpt>
      <trkpt lat="46.50038" lon="5.50487">
        <ele>514</ele>
        <time>2021-04-05T12:58:46.000Z</time>
      </trkpt>
      <trkpt lat="46.50045" lon="5.5048">
        <ele>513.79998779297</ele>
        <time>2021-04-05T12:58:47.000Z</time>
      </trkpt>
      <trkpt lat="46.5005" lon="5.50473">
        <ele>513.40002441406</ele>
        <time>2021-04-05T12:58:48.000Z</time>
      </trkpt>
      <trkpt lat="46.50056" lon="5.50465">
        <ele>513.20001220703</ele>
        <time>2021-04-05T12:58:49.000Z</time>
      </trkpt>
      <trkpt lat="46.50066" lon="5.5045">
        <ele>513</ele>
        <time>2021-04-05T12:58:51.000Z</time>
      </trkpt>
      <trkpt lat="46.50076" lon="5.50435">
        <ele>512.40002441406</ele>
        <time>2021-04-05T12:58:53.000Z</time>
      </trkpt>
      <trkpt lat="46.50081" lon="5.50429">
        <ele>512.20001220703</ele>
        <time>2021-04-05T12:58:54.000Z</time>
      </trkpt>
      <trkpt lat="46.50087" lon="5.50424">
        <ele>512</ele>
        <time>2021-04-05T12:58:55.000Z</time>
      </trkpt>
      <trkpt lat="46.50099" lon="5.50416">
        <ele>511.60000610352</ele>
        <time>2021-04-05T12:58:57.000Z</time>
      </trkpt>
      <trkpt lat="46.50106" lon="5.50414">
        <ele>511.39999389648</ele>
        <time>2021-04-05T12:58:58.000Z</time>
      </trkpt>
      <trkpt lat="46.50113" lon="5.50412">
        <ele>511.39999389648</ele>
        <time>2021-04-05T12:58:59.000Z</time>
      </trkpt>
      <trkpt lat="46.50119" lon="5.5041">
        <ele>511.39999389648</ele>
        <time>2021-04-05T12:59:00.000Z</time>
      </trkpt>
      <trkpt lat="46.50126" lon="5.50409">
        <ele>511.39999389648</ele>
        <time>2021-04-05T12:59:01.000Z</time>
      </trkpt>
      <trkpt lat="46.5014" lon="5.50411">
        <ele>511.39999389648</ele>
        <time>2021-04-05T12:59:03.000Z</time>
      </trkpt>
      <trkpt lat="46.50153" lon="5.50416">
        <ele>511.39999389648</ele>
        <time>2021-04-05T12:59:05.000Z</time>
      </trkpt>
      <trkpt lat="46.50165" lon="5.50422">
        <ele>511.39999389648</ele>
        <time>2021-04-05T12:59:07.000Z</time>
      </trkpt>
      <trkpt lat="46.50177" lon="5.50428">
        <ele>511.79998779297</ele>
        <time>2021-04-05T12:59:09.000Z</time>
      </trkpt>
      <trkpt lat="46.50189" lon="5.50434">
        <ele>512.20001220703</ele>
        <time>2021-04-05T12:59:11.000Z</time>
      </trkpt>
      <trkpt lat="46.50195" lon="5.50437">
        <ele>512.40002441406</ele>
        <time>2021-04-05T12:59:12.000Z</time>
      </trkpt>
      <trkpt lat="46.502" lon="5.50441">
        <ele>512.79998779297</ele>
        <time>2021-04-05T12:59:13.000Z</time>
      </trkpt>
      <trkpt lat="46.5021" lon="5.50451">
        <ele>513</ele>
        <time>2021-04-05T12:59:15.000Z</time>
      </trkpt>
      <trkpt lat="46.50221" lon="5.5046">
        <ele>513.20001220703</ele>
        <time>2021-04-05T12:59:17.000Z</time>
      </trkpt>
      <trkpt lat="46.50225" lon="5.50464">
        <ele>513.40002441406</ele>
        <time>2021-04-05T12:59:18.000Z</time>
      </trkpt>
      <trkpt lat="46.5023" lon="5.50467">
        <ele>513.79998779297</ele>
        <time>2021-04-05T12:59:19.000Z</time>
      </trkpt>
      <trkpt lat="46.50235" lon="5.50469">
        <ele>514</ele>
        <time>2021-04-05T12:59:20.000Z</time>
      </trkpt>
      <trkpt lat="46.5024" lon="5.50471">
        <ele>514</ele>
        <time>2021-04-05T12:59:21.000Z</time>
      </trkpt>
      <trkpt lat="46.5025" lon="5.50471">
        <ele>514.20001220703</ele>
        <time>2021-04-05T12:59:23.000Z</time>
      </trkpt>
      <trkpt lat="46.50259" lon="5.50467">
        <ele>514.40002441406</ele>
        <time>2021-04-05T12:59:25.000Z</time>
      </trkpt>
      <trkpt lat="46.50263" lon="5.50465">
        <ele>514.59997558594</ele>
        <time>2021-04-05T12:59:26.000Z</time>
      </trkpt>
      <trkpt lat="46.50268" lon="5.50461">
        <ele>515</ele>
        <time>2021-04-05T12:59:27.000Z</time>
      </trkpt>
      <trkpt lat="46.50277" lon="5.50454">
        <ele>515.79998779297</ele>
        <time>2021-04-05T12:59:29.000Z</time>
      </trkpt>
      <trkpt lat="46.50287" lon="5.50447">
        <ele>516.40002441406</ele>
        <time>2021-04-05T12:59:31.000Z</time>
      </trkpt>
      <trkpt lat="46.50295" lon="5.5044">
        <ele>517</ele>
        <time>2021-04-05T12:59:33.000Z</time>
      </trkpt>
      <trkpt lat="46.50304" lon="5.50433">
        <ele>517.40002441406</ele>
        <time>2021-04-05T12:59:35.000Z</time>
      </trkpt>
      <trkpt lat="46.50309" lon="5.50431">
        <ele>517.59997558594</ele>
        <time>2021-04-05T12:59:36.000Z</time>
      </trkpt>
      <trkpt lat="46.50314" lon="5.50429">
        <ele>517.59997558594</ele>
        <time>2021-04-05T12:59:37.000Z</time>
      </trkpt>
      <trkpt lat="46.50324" lon="5.50427">
        <ele>517.79998779297</ele>
        <time>2021-04-05T12:59:39.000Z</time>
      </trkpt>
      <trkpt lat="46.50334" lon="5.50426">
        <ele>518</ele>
        <time>2021-04-05T12:59:41.000Z</time>
      </trkpt>
      <trkpt lat="46.50343" lon="5.50426">
        <ele>518.59997558594</ele>
        <time>2021-04-05T12:59:43.000Z</time>
      </trkpt>
      <trkpt lat="46.50348" lon="5.50426">
        <ele>519</ele>
        <time>2021-04-05T12:59:44.000Z</time>
      </trkpt>
      <trkpt lat="46.50354" lon="5.50427">
        <ele>519.40002441406</ele>
        <time>2021-04-05T12:59:45.000Z</time>
      </trkpt>
      <trkpt lat="46.50358" lon="5.50429">
        <ele>519.79998779297</ele>
        <time>2021-04-05T12:59:46.000Z</time>
      </trkpt>
      <trkpt lat="46.50363" lon="5.5043">
        <ele>520</ele>
        <time>2021-04-05T12:59:47.000Z</time>
      </trkpt>
      <trkpt lat="46.50374" lon="5.50433">
        <ele>520.40002441406</ele>
        <time>2021-04-05T12:59:49.000Z</time>
      </trkpt>
      <trkpt lat="46.50385" lon="5.50435">
        <ele>520.79998779297</ele>
        <time>2021-04-05T12:59:51.000Z</time>
      </trkpt>
      <trkpt lat="46.50395" lon="5.50437">
        <ele>521</ele>
        <time>2021-04-05T12:59:53.000Z</time>
      </trkpt>
      <trkpt lat="46.50405" lon="5.50441">
        <ele>521.40002441406</ele>
        <time>2021-04-05T12:59:55.000Z</time>
      </trkpt>
      <trkpt lat="46.50415" lon="5.50445">
        <ele>521.59997558594</ele>
        <time>2021-04-05T12:59:57.000Z</time>
      </trkpt>
      <trkpt lat="46.50425" lon="5.50449">
        <ele>521.79998779297</ele>
        <time>2021-04-05T12:59:59.000Z</time>
      </trkpt>
      <trkpt lat="46.5043" lon="5.50451">
        <ele>521.79998779297</ele>
        <time>2021-04-05T13:00:00.000Z</time>
      </trkpt>
      <trkpt lat="46.50435" lon="5.50453">
        <ele>522</ele>
        <time>2021-04-05T13:00:01.000Z</time>
      </trkpt>
      <trkpt lat="46.50445" lon="5.50458">
        <ele>522.79998779297</ele>
        <time>2021-04-05T13:00:03.000Z</time>
      </trkpt>
      <trkpt lat="46.5045" lon="5.5046">
        <ele>523</ele>
        <time>2021-04-05T13:00:04.000Z</time>
      </trkpt>
      <trkpt lat="46.50455" lon="5.50462">
        <ele>523.20001220703</ele>
        <time>2021-04-05T13:00:05.000Z</time>
      </trkpt>
      <trkpt lat="46.50466" lon="5.50464">
        <ele>523.40002441406</ele>
        <time>2021-04-05T13:00:07.000Z</time>
      </trkpt>
      <trkpt lat="46.50471" lon="5.50465">
        <ele>523.79998779297</ele>
        <time>2021-04-05T13:00:08.000Z</time>
      </trkpt>
      <trkpt lat="46.50476" lon="5.50465">
        <ele>524</ele>
        <time>2021-04-05T13:00:09.000Z</time>
      </trkpt>
      <trkpt lat="46.50481" lon="5.50465">
        <ele>524.20001220703</ele>
        <time>2021-04-05T13:00:10.000Z</time>
      </trkpt>
      <trkpt lat="46.50487" lon="5.50465">
        <ele>524.59997558594</ele>
        <time>2021-04-05T13:00:11.000Z</time>
      </trkpt>
      <trkpt lat="46.50498" lon="5.50464">
        <ele>524.79998779297</ele>
        <time>2021-04-05T13:00:13.000Z</time>
      </trkpt>
      <trkpt lat="46.50509" lon="5.50463">
        <ele>524.79998779297</ele>
        <time>2021-04-05T13:00:15.000Z</time>
      </trkpt>
      <trkpt lat="46.5052" lon="5.50464">
        <ele>525</ele>
        <time>2021-04-05T13:00:17.000Z</time>
      </trkpt>
      <trkpt lat="46.50525" lon="5.50465">
        <ele>525.20001220703</ele>
        <time>2021-04-05T13:00:18.000Z</time>
      </trkpt>
      <trkpt lat="46.5053" lon="5.50467">
        <ele>525.40002441406</ele>
        <time>2021-04-05T13:00:19.000Z</time>
      </trkpt>
      <trkpt lat="46.50535" lon="5.50468">
        <ele>525.59997558594</ele>
        <time>2021-04-05T13:00:20.000Z</time>
      </trkpt>
      <trkpt lat="46.5054" lon="5.5047">
        <ele>525.59997558594</ele>
        <time>2021-04-05T13:00:21.000Z</time>
      </trkpt>
      <trkpt lat="46.5055" lon="5.50475">
        <ele>525.79998779297</ele>
        <time>2021-04-05T13:00:23.000Z</time>
      </trkpt>
      <trkpt lat="46.50559" lon="5.5048">
        <ele>526</ele>
        <time>2021-04-05T13:00:25.000Z</time>
      </trkpt>
      <trkpt lat="46.50568" lon="5.50486">
        <ele>526</ele>
        <time>2021-04-05T13:00:27.000Z</time>
      </trkpt>
      <trkpt lat="46.50577" lon="5.50493">
        <ele>526.59997558594</ele>
        <time>2021-04-05T13:00:29.000Z</time>
      </trkpt>
      <trkpt lat="46.50581" lon="5.50497">
        <ele>526.79998779297</ele>
        <time>2021-04-05T13:00:30.000Z</time>
      </trkpt>
      <trkpt lat="46.50584" lon="5.50501">
        <ele>527</ele>
        <time>2021-04-05T13:00:31.000Z</time>
      </trkpt>
      <trkpt lat="46.50591" lon="5.50509">
        <ele>527.40002441406</ele>
        <time>2021-04-05T13:00:33.000Z</time>
      </trkpt>
      <trkpt lat="46.50597" lon="5.50517">
        <ele>527.79998779297</ele>
        <time>2021-04-05T13:00:35.000Z</time>
      </trkpt>
      <trkpt lat="46.50603" lon="5.50526">
        <ele>528.40002441406</ele>
        <time>2021-04-05T13:00:37.000Z</time>
      </trkpt>
      <trkpt lat="46.5061" lon="5.50534">
        <ele>529.40002441406</ele>
        <time>2021-04-05T13:00:39.000Z</time>
      </trkpt>
      <trkpt lat="46.50617" lon="5.50543">
        <ele>530</ele>
        <time>2021-04-05T13:00:41.000Z</time>
      </trkpt>
      <trkpt lat="46.50621" lon="5.50547">
        <ele>530.40002441406</ele>
        <time>2021-04-05T13:00:42.000Z</time>
      </trkpt>
      <trkpt lat="46.50625" lon="5.50551">
        <ele>530.79998779297</ele>
        <time>2021-04-05T13:00:43.000Z</time>
      </trkpt>
      <trkpt lat="46.50634" lon="5.50559">
        <ele>531.20001220703</ele>
        <time>2021-04-05T13:00:45.000Z</time>
      </trkpt>
      <trkpt lat="46.50645" lon="5.50568">
        <ele>531.40002441406</ele>
        <time>2021-04-05T13:00:47.000Z</time>
      </trkpt>
      <trkpt lat="46.50657" lon="5.50574">
        <ele>531.40002441406</ele>
        <time>2021-04-05T13:00:49.000Z</time>
      </trkpt>
      <trkpt lat="46.5067" lon="5.50578">
        <ele>531.40002441406</ele>
        <time>2021-04-05T13:00:51.000Z</time>
      </trkpt>
      <trkpt lat="46.50676" lon="5.50579">
        <ele>531.40002441406</ele>
        <time>2021-04-05T13:00:52.000Z</time>
      </trkpt>
      <trkpt lat="46.50682" lon="5.5058">
        <ele>531.40002441406</ele>
        <time>2021-04-05T13:00:53.000Z</time>
      </trkpt>
      <trkpt lat="46.50688" lon="5.50581">
        <ele>531.59997558594</ele>
        <time>2021-04-05T13:00:54.000Z</time>
      </trkpt>
      <trkpt lat="46.50694" lon="5.50582">
        <ele>531.59997558594</ele>
        <time>2021-04-05T13:00:55.000Z</time>
      </trkpt>
      <trkpt lat="46.50706" lon="5.50585">
        <ele>531.59997558594</ele>
        <time>2021-04-05T13:00:57.000Z</time>
      </trkpt>
      <trkpt lat="46.50718" lon="5.50588">
        <ele>531.59997558594</ele>
        <time>2021-04-05T13:00:59.000Z</time>
      </trkpt>
      <trkpt lat="46.50724" lon="5.50591">
        <ele>531.59997558594</ele>
        <time>2021-04-05T13:01:00.000Z</time>
      </trkpt>
      <trkpt lat="46.5073" lon="5.50594">
        <ele>531.59997558594</ele>
        <time>2021-04-05T13:01:01.000Z</time>
      </trkpt>
      <trkpt lat="46.50744" lon="5.506">
        <ele>531.79998779297</ele>
        <time>2021-04-05T13:01:03.000Z</time>
      </trkpt>
      <trkpt lat="46.50758" lon="5.50608">
        <ele>531.59997558594</ele>
        <time>2021-04-05T13:01:05.000Z</time>
      </trkpt>
      <trkpt lat="46.50766" lon="5.50611">
        <ele>531.59997558594</ele>
        <time>2021-04-05T13:01:06.000Z</time>
      </trkpt>
      <trkpt lat="46.50774" lon="5.50614">
        <ele>531.59997558594</ele>
        <time>2021-04-05T13:01:07.000Z</time>
      </trkpt>
      <trkpt lat="46.5079" lon="5.50617">
        <ele>531.59997558594</ele>
        <time>2021-04-05T13:01:09.000Z</time>
      </trkpt>
      <trkpt lat="46.50798" lon="5.50617">
        <ele>531.59997558594</ele>
        <time>2021-04-05T13:01:10.000Z</time>
      </trkpt>
      <trkpt lat="46.50806" lon="5.50617">
        <ele>531.40002441406</ele>
        <time>2021-04-05T13:01:11.000Z</time>
      </trkpt>
      <trkpt lat="46.50822" lon="5.50618">
        <ele>530.40002441406</ele>
        <time>2021-04-05T13:01:13.000Z</time>
      </trkpt>
      <trkpt lat="46.50837" lon="5.50619">
        <ele>529.59997558594</ele>
        <time>2021-04-05T13:01:15.000Z</time>
      </trkpt>
      <trkpt lat="46.50852" lon="5.50619">
        <ele>529.59997558594</ele>
        <time>2021-04-05T13:01:17.000Z</time>
      </trkpt>
      <trkpt lat="46.5086" lon="5.50619">
        <ele>529.59997558594</ele>
        <time>2021-04-05T13:01:18.000Z</time>
      </trkpt>
      <trkpt lat="46.50868" lon="5.50619">
        <ele>529.40002441406</ele>
        <time>2021-04-05T13:01:19.000Z</time>
      </trkpt>
      <trkpt lat="46.50883" lon="5.50616">
        <ele>529.40002441406</ele>
        <time>2021-04-05T13:01:21.000Z</time>
      </trkpt>
      <trkpt lat="46.50898" lon="5.50613">
        <ele>529.20001220703</ele>
        <time>2021-04-05T13:01:23.000Z</time>
      </trkpt>
      <trkpt lat="46.50914" lon="5.50609">
        <ele>529.20001220703</ele>
        <time>2021-04-05T13:01:25.000Z</time>
      </trkpt>
      <trkpt lat="46.5093" lon="5.50607">
        <ele>529.20001220703</ele>
        <time>2021-04-05T13:01:27.000Z</time>
      </trkpt>
      <trkpt lat="46.50946" lon="5.50608">
        <ele>529.20001220703</ele>
        <time>2021-04-05T13:01:29.000Z</time>
      </trkpt>
      <trkpt lat="46.50961" lon="5.5061">
        <ele>529.20001220703</ele>
        <time>2021-04-05T13:01:31.000Z</time>
      </trkpt>
      <trkpt lat="46.50977" lon="5.50612">
        <ele>529.20001220703</ele>
        <time>2021-04-05T13:01:33.000Z</time>
      </trkpt>
      <trkpt lat="46.50991" lon="5.50615">
        <ele>529.20001220703</ele>
        <time>2021-04-05T13:01:35.000Z</time>
      </trkpt>
      <trkpt lat="46.51006" lon="5.50619">
        <ele>529.20001220703</ele>
        <time>2021-04-05T13:01:37.000Z</time>
      </trkpt>
      <trkpt lat="46.5102" lon="5.50623">
        <ele>529.20001220703</ele>
        <time>2021-04-05T13:01:39.000Z</time>
      </trkpt>
      <trkpt lat="46.51033" lon="5.50626">
        <ele>529.40002441406</ele>
        <time>2021-04-05T13:01:41.000Z</time>
      </trkpt>
      <trkpt lat="46.51047" lon="5.5063">
        <ele>529.59997558594</ele>
        <time>2021-04-05T13:01:43.000Z</time>
      </trkpt>
      <trkpt lat="46.51053" lon="5.50631">
        <ele>529.59997558594</ele>
        <time>2021-04-05T13:01:44.000Z</time>
      </trkpt>
      <trkpt lat="46.5106" lon="5.50633">
        <ele>529.79998779297</ele>
        <time>2021-04-05T13:01:45.000Z</time>
      </trkpt>
      <trkpt lat="46.51074" lon="5.50636">
        <ele>530</ele>
        <time>2021-04-05T13:01:47.000Z</time>
      </trkpt>
      <trkpt lat="46.51087" lon="5.5064">
        <ele>530.40002441406</ele>
        <time>2021-04-05T13:01:49.000Z</time>
      </trkpt>
      <trkpt lat="46.511" lon="5.50643">
        <ele>530.79998779297</ele>
        <time>2021-04-05T13:01:51.000Z</time>
      </trkpt>
      <trkpt lat="46.51113" lon="5.50646">
        <ele>531</ele>
        <time>2021-04-05T13:01:53.000Z</time>
      </trkpt>
      <trkpt lat="46.5112" lon="5.50646">
        <ele>531</ele>
        <time>2021-04-05T13:01:54.000Z</time>
      </trkpt>
      <trkpt lat="46.51126" lon="5.50646">
        <ele>531.20001220703</ele>
        <time>2021-04-05T13:01:55.000Z</time>
      </trkpt>
      <trkpt lat="46.51139" lon="5.50645">
        <ele>531.20001220703</ele>
        <time>2021-04-05T13:01:57.000Z</time>
      </trkpt>
      <trkpt lat="46.51152" lon="5.50643">
        <ele>531.40002441406</ele>
        <time>2021-04-05T13:01:59.000Z</time>
      </trkpt>
      <trkpt lat="46.51165" lon="5.50642">
        <ele>531.79998779297</ele>
        <time>2021-04-05T13:02:01.000Z</time>
      </trkpt>
      <trkpt lat="46.51171" lon="5.50641">
        <ele>531.79998779297</ele>
        <time>2021-04-05T13:02:02.000Z</time>
      </trkpt>
      <trkpt lat="46.51177" lon="5.5064">
        <ele>532</ele>
        <time>2021-04-05T13:02:03.000Z</time>
      </trkpt>
      <trkpt lat="46.5119" lon="5.50638">
        <ele>532.40002441406</ele>
        <time>2021-04-05T13:02:05.000Z</time>
      </trkpt>
      <trkpt lat="46.51196" lon="5.50638">
        <ele>532.59997558594</ele>
        <time>2021-04-05T13:02:06.000Z</time>
      </trkpt>
      <trkpt lat="46.51202" lon="5.50637">
        <ele>533.20001220703</ele>
        <time>2021-04-05T13:02:07.000Z</time>
      </trkpt>
      <trkpt lat="46.51215" lon="5.50635">
        <ele>533.79998779297</ele>
        <time>2021-04-05T13:02:09.000Z</time>
      </trkpt>
      <trkpt lat="46.51227" lon="5.50635">
        <ele>534.20001220703</ele>
        <time>2021-04-05T13:02:11.000Z</time>
      </trkpt>
      <trkpt lat="46.51239" lon="5.50635">
        <ele>534.40002441406</ele>
        <time>2021-04-05T13:02:13.000Z</time>
      </trkpt>
      <trkpt lat="46.51252" lon="5.50636">
        <ele>534.59997558594</ele>
        <time>2021-04-05T13:02:15.000Z</time>
      </trkpt>
      <trkpt lat="46.51265" lon="5.50637">
        <ele>534.79998779297</ele>
        <time>2021-04-05T13:02:17.000Z</time>
      </trkpt>
      <trkpt lat="46.51278" lon="5.50638">
        <ele>535</ele>
        <time>2021-04-05T13:02:19.000Z</time>
      </trkpt>
      <trkpt lat="46.51291" lon="5.5064">
        <ele>535.59997558594</ele>
        <time>2021-04-05T13:02:21.000Z</time>
      </trkpt>
      <trkpt lat="46.51298" lon="5.50641">
        <ele>535.59997558594</ele>
        <time>2021-04-05T13:02:22.000Z</time>
      </trkpt>
      <trkpt lat="46.51304" lon="5.50642">
        <ele>535.79998779297</ele>
        <time>2021-04-05T13:02:23.000Z</time>
      </trkpt>
      <trkpt lat="46.51317" lon="5.50644">
        <ele>536</ele>
        <time>2021-04-05T13:02:25.000Z</time>
      </trkpt>
      <trkpt lat="46.5133" lon="5.50646">
        <ele>536</ele>
        <time>2021-04-05T13:02:27.000Z</time>
      </trkpt>
      <trkpt lat="46.51342" lon="5.50648">
        <ele>536.20001220703</ele>
        <time>2021-04-05T13:02:29.000Z</time>
      </trkpt>
      <trkpt lat="46.51355" lon="5.5065">
        <ele>536.40002441406</ele>
        <time>2021-04-05T13:02:31.000Z</time>
      </trkpt>
      <trkpt lat="46.51368" lon="5.50651">
        <ele>536.59997558594</ele>
        <time>2021-04-05T13:02:33.000Z</time>
      </trkpt>
      <trkpt lat="46.51381" lon="5.50652">
        <ele>536.79998779297</ele>
        <time>2021-04-05T13:02:35.000Z</time>
      </trkpt>
      <trkpt lat="46.51387" lon="5.50653">
        <ele>537</ele>
        <time>2021-04-05T13:02:36.000Z</time>
      </trkpt>
      <trkpt lat="46.51394" lon="5.50654">
        <ele>537.40002441406</ele>
        <time>2021-04-05T13:02:37.000Z</time>
      </trkpt>
      <trkpt lat="46.51407" lon="5.50657">
        <ele>537.59997558594</ele>
        <time>2021-04-05T13:02:39.000Z</time>
      </trkpt>
      <trkpt lat="46.51413" lon="5.50659">
        <ele>537.79998779297</ele>
        <time>2021-04-05T13:02:40.000Z</time>
      </trkpt>
      <trkpt lat="46.5142" lon="5.50661">
        <ele>537.79998779297</ele>
        <time>2021-04-05T13:02:41.000Z</time>
      </trkpt>
      <trkpt lat="46.51433" lon="5.50665">
        <ele>538.20001220703</ele>
        <time>2021-04-05T13:02:43.000Z</time>
      </trkpt>
      <trkpt lat="46.51446" lon="5.5067">
        <ele>538.20001220703</ele>
        <time>2021-04-05T13:02:45.000Z</time>
      </trkpt>
      <trkpt lat="46.51459" lon="5.50673">
        <ele>538.40002441406</ele>
        <time>2021-04-05T13:02:47.000Z</time>
      </trkpt>
      <trkpt lat="46.51467" lon="5.50674">
        <ele>538.40002441406</ele>
        <time>2021-04-05T13:02:48.000Z</time>
      </trkpt>
      <trkpt lat="46.51474" lon="5.50675">
        <ele>538.40002441406</ele>
        <time>2021-04-05T13:02:49.000Z</time>
      </trkpt>
      <trkpt lat="46.51488" lon="5.50676">
        <ele>538.40002441406</ele>
        <time>2021-04-05T13:02:51.000Z</time>
      </trkpt>
      <trkpt lat="46.51504" lon="5.50677">
        <ele>538.40002441406</ele>
        <time>2021-04-05T13:02:53.000Z</time>
      </trkpt>
      <trkpt lat="46.51519" lon="5.50677">
        <ele>538.40002441406</ele>
        <time>2021-04-05T13:02:55.000Z</time>
      </trkpt>
      <trkpt lat="46.51534" lon="5.50677">
        <ele>538.40002441406</ele>
        <time>2021-04-05T13:02:57.000Z</time>
      </trkpt>
      <trkpt lat="46.5155" lon="5.50678">
        <ele>538.40002441406</ele>
        <time>2021-04-05T13:02:59.000Z</time>
      </trkpt>
      <trkpt lat="46.51566" lon="5.5068">
        <ele>538.40002441406</ele>
        <time>2021-04-05T13:03:01.000Z</time>
      </trkpt>
      <trkpt lat="46.51574" lon="5.50682">
        <ele>538.40002441406</ele>
        <time>2021-04-05T13:03:02.000Z</time>
      </trkpt>
      <trkpt lat="46.51582" lon="5.50685">
        <ele>538.40002441406</ele>
        <time>2021-04-05T13:03:03.000Z</time>
      </trkpt>
      <trkpt lat="46.51598" lon="5.50691">
        <ele>538.40002441406</ele>
        <time>2021-04-05T13:03:05.000Z</time>
      </trkpt>
      <trkpt lat="46.51614" lon="5.50698">
        <ele>538.40002441406</ele>
        <time>2021-04-05T13:03:07.000Z</time>
      </trkpt>
      <trkpt lat="46.51622" lon="5.50702">
        <ele>538.40002441406</ele>
        <time>2021-04-05T13:03:08.000Z</time>
      </trkpt>
      <trkpt lat="46.51629" lon="5.50705">
        <ele>538.40002441406</ele>
        <time>2021-04-05T13:03:09.000Z</time>
      </trkpt>
      <trkpt lat="46.51645" lon="5.5071">
        <ele>538.40002441406</ele>
        <time>2021-04-05T13:03:11.000Z</time>
      </trkpt>
      <trkpt lat="46.5166" lon="5.50715">
        <ele>538.59997558594</ele>
        <time>2021-04-05T13:03:13.000Z</time>
      </trkpt>
      <trkpt lat="46.51667" lon="5.50718">
        <ele>538.59997558594</ele>
        <time>2021-04-05T13:03:14.000Z</time>
      </trkpt>
      <trkpt lat="46.51675" lon="5.50719">
        <ele>538.59997558594</ele>
        <time>2021-04-05T13:03:15.000Z</time>
      </trkpt>
      <trkpt lat="46.5169" lon="5.50723">
        <ele>538.59997558594</ele>
        <time>2021-04-05T13:03:17.000Z</time>
      </trkpt>
      <trkpt lat="46.51704" lon="5.50728">
        <ele>538.59997558594</ele>
        <time>2021-04-05T13:03:19.000Z</time>
      </trkpt>
      <trkpt lat="46.51718" lon="5.50733">
        <ele>538.59997558594</ele>
        <time>2021-04-05T13:03:21.000Z</time>
      </trkpt>
      <trkpt lat="46.51732" lon="5.5074">
        <ele>539.20001220703</ele>
        <time>2021-04-05T13:03:23.000Z</time>
      </trkpt>
      <trkpt lat="46.51739" lon="5.50745">
        <ele>539.40002441406</ele>
        <time>2021-04-05T13:03:24.000Z</time>
      </trkpt>
      <trkpt lat="46.51745" lon="5.5075">
        <ele>539.59997558594</ele>
        <time>2021-04-05T13:03:25.000Z</time>
      </trkpt>
      <trkpt lat="46.51751" lon="5.50755">
        <ele>540</ele>
        <time>2021-04-05T13:03:26.000Z</time>
      </trkpt>
      <trkpt lat="46.51758" lon="5.50759">
        <ele>540.20001220703</ele>
        <time>2021-04-05T13:03:27.000Z</time>
      </trkpt>
      <trkpt lat="46.5177" lon="5.50769">
        <ele>540.40002441406</ele>
        <time>2021-04-05T13:03:29.000Z</time>
      </trkpt>
      <trkpt lat="46.51784" lon="5.50777">
        <ele>541.20001220703</ele>
        <time>2021-04-05T13:03:31.000Z</time>
      </trkpt>
      <trkpt lat="46.5179" lon="5.50782">
        <ele>541.59997558594</ele>
        <time>2021-04-05T13:03:32.000Z</time>
      </trkpt>
      <trkpt lat="46.51797" lon="5.50786">
        <ele>542.20001220703</ele>
        <time>2021-04-05T13:03:33.000Z</time>
      </trkpt>
      <trkpt lat="46.51804" lon="5.50791">
        <ele>542.40002441406</ele>
        <time>2021-04-05T13:03:34.000Z</time>
      </trkpt>
      <trkpt lat="46.51811" lon="5.50796">
        <ele>542.59997558594</ele>
        <time>2021-04-05T13:03:35.000Z</time>
      </trkpt>
      <trkpt lat="46.51826" lon="5.50805">
        <ele>543.40002441406</ele>
        <time>2021-04-05T13:03:37.000Z</time>
      </trkpt>
      <trkpt lat="46.51842" lon="5.50815">
        <ele>543.40002441406</ele>
        <time>2021-04-05T13:03:39.000Z</time>
      </trkpt>
      <trkpt lat="46.5185" lon="5.50821">
        <ele>543.40002441406</ele>
        <time>2021-04-05T13:03:40.000Z</time>
      </trkpt>
      <trkpt lat="46.51859" lon="5.50826">
        <ele>543.40002441406</ele>
        <time>2021-04-05T13:03:41.000Z</time>
      </trkpt>
      <trkpt lat="46.51877" lon="5.50835">
        <ele>543.40002441406</ele>
        <time>2021-04-05T13:03:43.000Z</time>
      </trkpt>
      <trkpt lat="46.51896" lon="5.50841">
        <ele>543.40002441406</ele>
        <time>2021-04-05T13:03:45.000Z</time>
      </trkpt>
      <trkpt lat="46.51915" lon="5.50844">
        <ele>542.79998779297</ele>
        <time>2021-04-05T13:03:47.000Z</time>
      </trkpt>
      <trkpt lat="46.51935" lon="5.50845">
        <ele>541.59997558594</ele>
        <time>2021-04-05T13:03:49.000Z</time>
      </trkpt>
      <trkpt lat="46.51945" lon="5.50844">
        <ele>541</ele>
        <time>2021-04-05T13:03:50.000Z</time>
      </trkpt>
      <trkpt lat="46.51955" lon="5.50842">
        <ele>540.59997558594</ele>
        <time>2021-04-05T13:03:51.000Z</time>
      </trkpt>
      <trkpt lat="46.51966" lon="5.5084">
        <ele>540.40002441406</ele>
        <time>2021-04-05T13:03:52.000Z</time>
      </trkpt>
      <trkpt lat="46.51976" lon="5.50839">
        <ele>540.20001220703</ele>
        <time>2021-04-05T13:03:53.000Z</time>
      </trkpt>
      <trkpt lat="46.51987" lon="5.5084">
        <ele>540</ele>
        <time>2021-04-05T13:03:54.000Z</time>
      </trkpt>
      <trkpt lat="46.51997" lon="5.50842">
        <ele>539.79998779297</ele>
        <time>2021-04-05T13:03:55.000Z</time>
      </trkpt>
      <trkpt lat="46.52018" lon="5.5085">
        <ele>539.40002441406</ele>
        <time>2021-04-05T13:03:57.000Z</time>
      </trkpt>
      <trkpt lat="46.52028" lon="5.50855">
        <ele>539</ele>
        <time>2021-04-05T13:03:58.000Z</time>
      </trkpt>
      <trkpt lat="46.52038" lon="5.50859">
        <ele>538.59997558594</ele>
        <time>2021-04-05T13:03:59.000Z</time>
      </trkpt>
      <trkpt lat="46.52048" lon="5.50863">
        <ele>538.40002441406</ele>
        <time>2021-04-05T13:04:00.000Z</time>
      </trkpt>
      <trkpt lat="46.52058" lon="5.50868">
        <ele>538</ele>
        <time>2021-04-05T13:04:01.000Z</time>
      </trkpt>
      <trkpt lat="46.52078" lon="5.50878">
        <ele>536.79998779297</ele>
        <time>2021-04-05T13:04:03.000Z</time>
      </trkpt>
      <trkpt lat="46.52098" lon="5.5089">
        <ele>536.20001220703</ele>
        <time>2021-04-05T13:04:05.000Z</time>
      </trkpt>
      <trkpt lat="46.52107" lon="5.50896">
        <ele>535.79998779297</ele>
        <time>2021-04-05T13:04:06.000Z</time>
      </trkpt>
      <trkpt lat="46.52116" lon="5.50903">
        <ele>535.59997558594</ele>
        <time>2021-04-05T13:04:07.000Z</time>
      </trkpt>
      <trkpt lat="46.52134" lon="5.50917">
        <ele>534.79998779297</ele>
        <time>2021-04-05T13:04:09.000Z</time>
      </trkpt>
      <trkpt lat="46.5215" lon="5.50932">
        <ele>534.59997558594</ele>
        <time>2021-04-05T13:04:11.000Z</time>
      </trkpt>
      <trkpt lat="46.52158" lon="5.5094">
        <ele>534.59997558594</ele>
        <time>2021-04-05T13:04:12.000Z</time>
      </trkpt>
      <trkpt lat="46.52166" lon="5.50949">
        <ele>534.59997558594</ele>
        <time>2021-04-05T13:04:13.000Z</time>
      </trkpt>
      <trkpt lat="46.52173" lon="5.50959">
        <ele>534.59997558594</ele>
        <time>2021-04-05T13:04:14.000Z</time>
      </trkpt>
      <trkpt lat="46.52178" lon="5.5097">
        <ele>534.59997558594</ele>
        <time>2021-04-05T13:04:15.000Z</time>
      </trkpt>
      <trkpt lat="46.5219" lon="5.50993">
        <ele>534.59997558594</ele>
        <time>2021-04-05T13:04:17.000Z</time>
      </trkpt>
      <trkpt lat="46.52204" lon="5.51012">
        <ele>534.40002441406</ele>
        <time>2021-04-05T13:04:19.000Z</time>
      </trkpt>
      <trkpt lat="46.5222" lon="5.51027">
        <ele>534.40002441406</ele>
        <time>2021-04-05T13:04:21.000Z</time>
      </trkpt>
      <trkpt lat="46.52228" lon="5.51034">
        <ele>534.20001220703</ele>
        <time>2021-04-05T13:04:22.000Z</time>
      </trkpt>
      <trkpt lat="46.52235" lon="5.5104">
        <ele>534.20001220703</ele>
        <time>2021-04-05T13:04:23.000Z</time>
      </trkpt>
      <trkpt lat="46.5225" lon="5.51052">
        <ele>534.20001220703</ele>
        <time>2021-04-05T13:04:25.000Z</time>
      </trkpt>
      <trkpt lat="46.52265" lon="5.51062">
        <ele>534.40002441406</ele>
        <time>2021-04-05T13:04:27.000Z</time>
      </trkpt>
      <trkpt lat="46.5228" lon="5.51072">
        <ele>534.59997558594</ele>
        <time>2021-04-05T13:04:29.000Z</time>
      </trkpt>
      <trkpt lat="46.52287" lon="5.51075">
        <ele>534.59997558594</ele>
        <time>2021-04-05T13:04:30.000Z</time>
      </trkpt>
      <trkpt lat="46.52295" lon="5.51075">
        <ele>534.59997558594</ele>
        <time>2021-04-05T13:04:31.000Z</time>
      </trkpt>
      <trkpt lat="46.52301" lon="5.51071">
        <ele>534.59997558594</ele>
        <time>2021-04-05T13:04:32.000Z</time>
      </trkpt>
      <trkpt lat="46.52306" lon="5.51063">
        <ele>534.59997558594</ele>
        <time>2021-04-05T13:04:33.000Z</time>
      </trkpt>
      <trkpt lat="46.52312" lon="5.51044">
        <ele>534.79998779297</ele>
        <time>2021-04-05T13:04:35.000Z</time>
      </trkpt>
      <trkpt lat="46.52314" lon="5.51033">
        <ele>535</ele>
        <time>2021-04-05T13:04:36.000Z</time>
      </trkpt>
      <trkpt lat="46.52317" lon="5.51022">
        <ele>535</ele>
        <time>2021-04-05T13:04:37.000Z</time>
      </trkpt>
      <trkpt lat="46.52322" lon="5.50999">
        <ele>535</ele>
        <time>2021-04-05T13:04:39.000Z</time>
      </trkpt>
      <trkpt lat="46.52328" lon="5.50975">
        <ele>535</ele>
        <time>2021-04-05T13:04:41.000Z</time>
      </trkpt>
      <trkpt lat="46.52335" lon="5.50951">
        <ele>535</ele>
        <time>2021-04-05T13:04:43.000Z</time>
      </trkpt>
      <trkpt lat="46.52343" lon="5.50926">
        <ele>535</ele>
        <time>2021-04-05T13:04:45.000Z</time>
      </trkpt>
      <trkpt lat="46.5235" lon="5.50902">
        <ele>534.40002441406</ele>
        <time>2021-04-05T13:04:47.000Z</time>
      </trkpt>
      <trkpt lat="46.52354" lon="5.5089">
        <ele>533.79998779297</ele>
        <time>2021-04-05T13:04:48.000Z</time>
      </trkpt>
      <trkpt lat="46.52357" lon="5.50878">
        <ele>533.20001220703</ele>
        <time>2021-04-05T13:04:49.000Z</time>
      </trkpt>
      <trkpt lat="46.52364" lon="5.50855">
        <ele>532.40002441406</ele>
        <time>2021-04-05T13:04:51.000Z</time>
      </trkpt>
      <trkpt lat="46.52367" lon="5.50844">
        <ele>531.79998779297</ele>
        <time>2021-04-05T13:04:52.000Z</time>
      </trkpt>
      <trkpt lat="46.5237" lon="5.50833">
        <ele>531.40002441406</ele>
        <time>2021-04-05T13:04:53.000Z</time>
      </trkpt>
      <trkpt lat="46.52373" lon="5.50821">
        <ele>531.20001220703</ele>
        <time>2021-04-05T13:04:54.000Z</time>
      </trkpt>
      <trkpt lat="46.52376" lon="5.5081">
        <ele>531</ele>
        <time>2021-04-05T13:04:55.000Z</time>
      </trkpt>
      <trkpt lat="46.52378" lon="5.508">
        <ele>530.79998779297</ele>
        <time>2021-04-05T13:04:56.000Z</time>
      </trkpt>
      <trkpt lat="46.52382" lon="5.50789">
        <ele>530.79998779297</ele>
        <time>2021-04-05T13:04:57.000Z</time>
      </trkpt>
      <trkpt lat="46.52389" lon="5.50767">
        <ele>530.79998779297</ele>
        <time>2021-04-05T13:04:59.000Z</time>
      </trkpt>
      <trkpt lat="46.52398" lon="5.50745">
        <ele>530.79998779297</ele>
        <time>2021-04-05T13:05:01.000Z</time>
      </trkpt>
      <trkpt lat="46.52407" lon="5.50724">
        <ele>530.59997558594</ele>
        <time>2021-04-05T13:05:03.000Z</time>
      </trkpt>
      <trkpt lat="46.52418" lon="5.50702">
        <ele>530.59997558594</ele>
        <time>2021-04-05T13:05:05.000Z</time>
      </trkpt>
      <trkpt lat="46.52429" lon="5.5068">
        <ele>530.59997558594</ele>
        <time>2021-04-05T13:05:07.000Z</time>
      </trkpt>
      <trkpt lat="46.52434" lon="5.50669">
        <ele>530.59997558594</ele>
        <time>2021-04-05T13:05:08.000Z</time>
      </trkpt>
      <trkpt lat="46.52439" lon="5.50659">
        <ele>530.59997558594</ele>
        <time>2021-04-05T13:05:09.000Z</time>
      </trkpt>
      <trkpt lat="46.52452" lon="5.5064">
        <ele>530.40002441406</ele>
        <time>2021-04-05T13:05:11.000Z</time>
      </trkpt>
      <trkpt lat="46.5246" lon="5.50631">
        <ele>530.20001220703</ele>
        <time>2021-04-05T13:05:12.000Z</time>
      </trkpt>
      <trkpt lat="46.52467" lon="5.50622">
        <ele>529.79998779297</ele>
        <time>2021-04-05T13:05:13.000Z</time>
      </trkpt>
      <trkpt lat="46.52475" lon="5.50614">
        <ele>529.20001220703</ele>
        <time>2021-04-05T13:05:14.000Z</time>
      </trkpt>
      <trkpt lat="46.52483" lon="5.50605">
        <ele>528.40002441406</ele>
        <time>2021-04-05T13:05:15.000Z</time>
      </trkpt>
      <trkpt lat="46.52491" lon="5.50596">
        <ele>528</ele>
        <time>2021-04-05T13:05:16.000Z</time>
      </trkpt>
      <trkpt lat="46.52507" lon="5.50578">
        <ele>527.20001220703</ele>
        <time>2021-04-05T13:05:18.000Z</time>
      </trkpt>
      <trkpt lat="46.52514" lon="5.50567">
        <ele>526.79998779297</ele>
        <time>2021-04-05T13:05:19.000Z</time>
      </trkpt>
      <trkpt lat="46.52531" lon="5.50532">
        <ele>525.59997558594</ele>
        <time>2021-04-05T13:05:22.000Z</time>
      </trkpt>
      <trkpt lat="46.52536" lon="5.5052">
        <ele>525</ele>
        <time>2021-04-05T13:05:23.000Z</time>
      </trkpt>
      <trkpt lat="46.5254" lon="5.50507">
        <ele>524.59997558594</ele>
        <time>2021-04-05T13:05:24.000Z</time>
      </trkpt>
      <trkpt lat="46.52545" lon="5.50495">
        <ele>524.40002441406</ele>
        <time>2021-04-05T13:05:25.000Z</time>
      </trkpt>
      <trkpt lat="46.52549" lon="5.50483">
        <ele>523.79998779297</ele>
        <time>2021-04-05T13:05:26.000Z</time>
      </trkpt>
      <trkpt lat="46.52553" lon="5.5047">
        <ele>523.40002441406</ele>
        <time>2021-04-05T13:05:27.000Z</time>
      </trkpt>
      <trkpt lat="46.52557" lon="5.50459">
        <ele>523</ele>
        <time>2021-04-05T13:05:28.000Z</time>
      </trkpt>
      <trkpt lat="46.52565" lon="5.50435">
        <ele>522</ele>
        <time>2021-04-05T13:05:30.000Z</time>
      </trkpt>
      <trkpt lat="46.52574" lon="5.50412">
        <ele>521.79998779297</ele>
        <time>2021-04-05T13:05:32.000Z</time>
      </trkpt>
      <trkpt lat="46.52582" lon="5.50388">
        <ele>521.40002441406</ele>
        <time>2021-04-05T13:05:34.000Z</time>
      </trkpt>
      <trkpt lat="46.52591" lon="5.50366">
        <ele>521.20001220703</ele>
        <time>2021-04-05T13:05:36.000Z</time>
      </trkpt>
      <trkpt lat="46.526" lon="5.50344">
        <ele>521.20001220703</ele>
        <time>2021-04-05T13:05:38.000Z</time>
      </trkpt>
      <trkpt lat="46.52604" lon="5.50334">
        <ele>521.20001220703</ele>
        <time>2021-04-05T13:05:39.000Z</time>
      </trkpt>
      <trkpt lat="46.52607" lon="5.50324">
        <ele>521.20001220703</ele>
        <time>2021-04-05T13:05:40.000Z</time>
      </trkpt>
      <trkpt lat="46.52614" lon="5.50306">
        <ele>521.20001220703</ele>
        <time>2021-04-05T13:05:42.000Z</time>
      </trkpt>
      <trkpt lat="46.52621" lon="5.50288">
        <ele>521.40002441406</ele>
        <time>2021-04-05T13:05:44.000Z</time>
      </trkpt>
      <trkpt lat="46.52629" lon="5.50269">
        <ele>521.79998779297</ele>
        <time>2021-04-05T13:05:46.000Z</time>
      </trkpt>
      <trkpt lat="46.52636" lon="5.5025">
        <ele>522.20001220703</ele>
        <time>2021-04-05T13:05:48.000Z</time>
      </trkpt>
      <trkpt lat="46.52644" lon="5.5023">
        <ele>522.40002441406</ele>
        <time>2021-04-05T13:05:50.000Z</time>
      </trkpt>
      <trkpt lat="46.52652" lon="5.50208">
        <ele>522.40002441406</ele>
        <time>2021-04-05T13:05:52.000Z</time>
      </trkpt>
      <trkpt lat="46.5266" lon="5.50185">
        <ele>522.40002441406</ele>
        <time>2021-04-05T13:05:54.000Z</time>
      </trkpt>
      <trkpt lat="46.52668" lon="5.50163">
        <ele>522.40002441406</ele>
        <time>2021-04-05T13:05:56.000Z</time>
      </trkpt>
      <trkpt lat="46.52677" lon="5.50143">
        <ele>522.40002441406</ele>
        <time>2021-04-05T13:05:58.000Z</time>
      </trkpt>
      <trkpt lat="46.52681" lon="5.50133">
        <ele>522.20001220703</ele>
        <time>2021-04-05T13:05:59.000Z</time>
      </trkpt>
      <trkpt lat="46.52685" lon="5.50125">
        <ele>522.20001220703</ele>
        <time>2021-04-05T13:06:00.000Z</time>
      </trkpt>
      <trkpt lat="46.52693" lon="5.50109">
        <ele>522.20001220703</ele>
        <time>2021-04-05T13:06:02.000Z</time>
      </trkpt>
      <trkpt lat="46.52699" lon="5.50095">
        <ele>522.20001220703</ele>
        <time>2021-04-05T13:06:04.000Z</time>
      </trkpt>
      <trkpt lat="46.52704" lon="5.50082">
        <ele>522.20001220703</ele>
        <time>2021-04-05T13:06:06.000Z</time>
      </trkpt>
      <trkpt lat="46.52706" lon="5.50074">
        <ele>522.20001220703</ele>
        <time>2021-04-05T13:06:07.000Z</time>
      </trkpt>
      <trkpt lat="46.52706" lon="5.50067">
        <ele>522.20001220703</ele>
        <time>2021-04-05T13:06:08.000Z</time>
      </trkpt>
      <trkpt lat="46.52707" lon="5.50059">
        <ele>522.59997558594</ele>
        <time>2021-04-05T13:06:09.000Z</time>
      </trkpt>
      <trkpt lat="46.52707" lon="5.50051">
        <ele>523</ele>
        <time>2021-04-05T13:06:10.000Z</time>
      </trkpt>
      <trkpt lat="46.52707" lon="5.50039">
        <ele>524.20001220703</ele>
        <time>2021-04-05T13:06:12.000Z</time>
      </trkpt>
      <trkpt lat="46.52707" lon="5.50034">
        <ele>524.59997558594</ele>
        <time>2021-04-05T13:06:13.000Z</time>
      </trkpt>
      <trkpt lat="46.52707" lon="5.5003">
        <ele>525</ele>
        <time>2021-04-05T13:06:14.000Z</time>
      </trkpt>
      <trkpt lat="46.52707" lon="5.50027">
        <ele>525.20001220703</ele>
        <time>2021-04-05T13:06:15.000Z</time>
      </trkpt>
      <trkpt lat="46.52707" lon="5.50023">
        <ele>525.59997558594</ele>
        <time>2021-04-05T13:06:16.000Z</time>
      </trkpt>
      <trkpt lat="46.52707" lon="5.50015">
        <ele>526.40002441406</ele>
        <time>2021-04-05T13:06:18.000Z</time>
      </trkpt>
      <trkpt lat="46.52707" lon="5.50011">
        <ele>526.79998779297</ele>
        <time>2021-04-05T13:06:19.000Z</time>
      </trkpt>
      <trkpt lat="46.52707" lon="5.50008">
        <ele>527.20001220703</ele>
        <time>2021-04-05T13:06:20.000Z</time>
      </trkpt>
      <trkpt lat="46.52707" lon="5.50004">
        <ele>527.59997558594</ele>
        <time>2021-04-05T13:06:21.000Z</time>
      </trkpt>
      <trkpt lat="46.52707" lon="5.5">
        <ele>528</ele>
        <time>2021-04-05T13:06:22.000Z</time>
      </trkpt>
      <trkpt lat="46.52706" lon="5.49994">
        <ele>528.59997558594</ele>
        <time>2021-04-05T13:06:24.000Z</time>
      </trkpt>
      <trkpt lat="46.52704" lon="5.49986">
        <ele>529</ele>
        <time>2021-04-05T13:06:26.000Z</time>
      </trkpt>
      <trkpt lat="46.52703" lon="5.49983">
        <ele>529.59997558594</ele>
        <time>2021-04-05T13:06:27.000Z</time>
      </trkpt>
      <trkpt lat="46.52701" lon="5.49981">
        <ele>529.79998779297</ele>
        <time>2021-04-05T13:06:28.000Z</time>
      </trkpt>
      <trkpt lat="46.52697" lon="5.49976">
        <ele>530</ele>
        <time>2021-04-05T13:06:30.000Z</time>
      </trkpt>
      <trkpt lat="46.52692" lon="5.4997">
        <ele>530.20001220703</ele>
        <time>2021-04-05T13:06:32.000Z</time>
      </trkpt>
      <trkpt lat="46.52688" lon="5.49964">
        <ele>530.40002441406</ele>
        <time>2021-04-05T13:06:34.000Z</time>
      </trkpt>
      <trkpt lat="46.52685" lon="5.49958">
        <ele>530.59997558594</ele>
        <time>2021-04-05T13:06:36.000Z</time>
      </trkpt>
      <trkpt lat="46.52683" lon="5.49954">
        <ele>530.79998779297</ele>
        <time>2021-04-05T13:06:37.000Z</time>
      </trkpt>
      <trkpt lat="46.52682" lon="5.49952">
        <ele>531</ele>
        <time>2021-04-05T13:06:38.000Z</time>
      </trkpt>
      <trkpt lat="46.52679" lon="5.49947">
        <ele>531.20001220703</ele>
        <time>2021-04-05T13:06:40.000Z</time>
      </trkpt>
      <trkpt lat="46.52676" lon="5.49943">
        <ele>531.59997558594</ele>
        <time>2021-04-05T13:06:42.000Z</time>
      </trkpt>
      <trkpt lat="46.5267" lon="5.49938">
        <ele>531.79998779297</ele>
        <time>2021-04-05T13:06:44.000Z</time>
      </trkpt>
      <trkpt lat="46.52663" lon="5.49934">
        <ele>532</ele>
        <time>2021-04-05T13:06:46.000Z</time>
      </trkpt>
      <trkpt lat="46.52659" lon="5.49931">
        <ele>532.20001220703</ele>
        <time>2021-04-05T13:06:48.000Z</time>
      </trkpt>
      <trkpt lat="46.52653" lon="5.49927">
        <ele>532.20001220703</ele>
        <time>2021-04-05T13:06:50.000Z</time>
      </trkpt>
      <trkpt lat="46.52645" lon="5.49919">
        <ele>532.40002441406</ele>
        <time>2021-04-05T13:06:52.000Z</time>
      </trkpt>
      <trkpt lat="46.52641" lon="5.49918">
        <ele>532.40002441406</ele>
        <time>2021-04-05T13:06:53.000Z</time>
      </trkpt>
      <trkpt lat="46.52639" lon="5.49916">
        <ele>532.20001220703</ele>
        <time>2021-04-05T13:06:54.000Z</time>
      </trkpt>
      <trkpt lat="46.52633" lon="5.49912">
        <ele>532.20001220703</ele>
        <time>2021-04-05T13:06:56.000Z</time>
      </trkpt>
      <trkpt lat="46.52626" lon="5.49907">
        <ele>532</ele>
        <time>2021-04-05T13:06:58.000Z</time>
      </trkpt>
      <trkpt lat="46.52615" lon="5.49899">
        <ele>532</ele>
        <time>2021-04-05T13:07:00.000Z</time>
      </trkpt>
      <trkpt lat="46.52606" lon="5.49895">
        <ele>532</ele>
        <time>2021-04-05T13:07:02.000Z</time>
      </trkpt>
      <trkpt lat="46.52596" lon="5.49891">
        <ele>532</ele>
        <time>2021-04-05T13:07:04.000Z</time>
      </trkpt>
      <trkpt lat="46.52592" lon="5.49889">
        <ele>532</ele>
        <time>2021-04-05T13:07:05.000Z</time>
      </trkpt>
      <trkpt lat="46.52587" lon="5.49887">
        <ele>532</ele>
        <time>2021-04-05T13:07:06.000Z</time>
      </trkpt>
      <trkpt lat="46.52578" lon="5.49883">
        <ele>532</ele>
        <time>2021-04-05T13:07:08.000Z</time>
      </trkpt>
      <trkpt lat="46.52569" lon="5.49879">
        <ele>532</ele>
        <time>2021-04-05T13:07:10.000Z</time>
      </trkpt>
      <trkpt lat="46.5256" lon="5.49876">
        <ele>532</ele>
        <time>2021-04-05T13:07:12.000Z</time>
      </trkpt>
      <trkpt lat="46.52556" lon="5.49874">
        <ele>532.20001220703</ele>
        <time>2021-04-05T13:07:13.000Z</time>
      </trkpt>
      <trkpt lat="46.52551" lon="5.49872">
        <ele>532.20001220703</ele>
        <time>2021-04-05T13:07:14.000Z</time>
      </trkpt>
      <trkpt lat="46.52542" lon="5.49867">
        <ele>532.40002441406</ele>
        <time>2021-04-05T13:07:16.000Z</time>
      </trkpt>
      <trkpt lat="46.52533" lon="5.49863">
        <ele>532.40002441406</ele>
        <time>2021-04-05T13:07:18.000Z</time>
      </trkpt>
      <trkpt lat="46.52525" lon="5.49857">
        <ele>532.40002441406</ele>
        <time>2021-04-05T13:07:20.000Z</time>
      </trkpt>
      <trkpt lat="46.52521" lon="5.49854">
        <ele>532.59997558594</ele>
        <time>2021-04-05T13:07:21.000Z</time>
      </trkpt>
      <trkpt lat="46.52517" lon="5.49851">
        <ele>532.59997558594</ele>
        <time>2021-04-05T13:07:22.000Z</time>
      </trkpt>
      <trkpt lat="46.52509" lon="5.49844">
        <ele>532.59997558594</ele>
        <time>2021-04-05T13:07:24.000Z</time>
      </trkpt>
      <trkpt lat="46.52505" lon="5.49841">
        <ele>532.59997558594</ele>
        <time>2021-04-05T13:07:25.000Z</time>
      </trkpt>
      <trkpt lat="46.525" lon="5.49838">
        <ele>532.59997558594</ele>
        <time>2021-04-05T13:07:26.000Z</time>
      </trkpt>
      <trkpt lat="46.52495" lon="5.49835">
        <ele>532.59997558594</ele>
        <time>2021-04-05T13:07:27.000Z</time>
      </trkpt>
      <trkpt lat="46.52491" lon="5.49832">
        <ele>532.59997558594</ele>
        <time>2021-04-05T13:07:28.000Z</time>
      </trkpt>
      <trkpt lat="46.5248" lon="5.49826">
        <ele>532.59997558594</ele>
        <time>2021-04-05T13:07:30.000Z</time>
      </trkpt>
      <trkpt lat="46.52469" lon="5.49818">
        <ele>532.59997558594</ele>
        <time>2021-04-05T13:07:32.000Z</time>
      </trkpt>
      <trkpt lat="46.52457" lon="5.49812">
        <ele>532.59997558594</ele>
        <time>2021-04-05T13:07:34.000Z</time>
      </trkpt>
      <trkpt lat="46.52444" lon="5.49804">
        <ele>532.40002441406</ele>
        <time>2021-04-05T13:07:36.000Z</time>
      </trkpt>
      <trkpt lat="46.52438" lon="5.49802">
        <ele>532.20001220703</ele>
        <time>2021-04-05T13:07:37.000Z</time>
      </trkpt>
      <trkpt lat="46.52431" lon="5.49798">
        <ele>532</ele>
        <time>2021-04-05T13:07:38.000Z</time>
      </trkpt>
      <trkpt lat="46.52419" lon="5.49794">
        <ele>531.59997558594</ele>
        <time>2021-04-05T13:07:40.000Z</time>
      </trkpt>
      <trkpt lat="46.52414" lon="5.49793">
        <ele>531.59997558594</ele>
        <time>2021-04-05T13:07:41.000Z</time>
      </trkpt>
      <trkpt lat="46.52407" lon="5.49791">
        <ele>531.40002441406</ele>
        <time>2021-04-05T13:07:42.000Z</time>
      </trkpt>
      <trkpt lat="46.52395" lon="5.49786">
        <ele>531.40002441406</ele>
        <time>2021-04-05T13:07:44.000Z</time>
      </trkpt>
      <trkpt lat="46.52385" lon="5.4978">
        <ele>531.40002441406</ele>
        <time>2021-04-05T13:07:46.000Z</time>
      </trkpt>
      <trkpt lat="46.52379" lon="5.49776">
        <ele>531.40002441406</ele>
        <time>2021-04-05T13:07:47.000Z</time>
      </trkpt>
      <trkpt lat="46.52375" lon="5.49771">
        <ele>531.40002441406</ele>
        <time>2021-04-05T13:07:48.000Z</time>
      </trkpt>
      <trkpt lat="46.52366" lon="5.4976">
        <ele>531.40002441406</ele>
        <time>2021-04-05T13:07:50.000Z</time>
      </trkpt>
      <trkpt lat="46.52361" lon="5.49754">
        <ele>531.40002441406</ele>
        <time>2021-04-05T13:07:51.000Z</time>
      </trkpt>
      <trkpt lat="46.52357" lon="5.49746">
        <ele>531.59997558594</ele>
        <time>2021-04-05T13:07:52.000Z</time>
      </trkpt>
      <trkpt lat="46.52349" lon="5.49731">
        <ele>531.79998779297</ele>
        <time>2021-04-05T13:07:54.000Z</time>
      </trkpt>
      <trkpt lat="46.52341" lon="5.49715">
        <ele>532</ele>
        <time>2021-04-05T13:07:56.000Z</time>
      </trkpt>
      <trkpt lat="46.52336" lon="5.49707">
        <ele>532</ele>
        <time>2021-04-05T13:07:57.000Z</time>
      </trkpt>
      <trkpt lat="46.52332" lon="5.49699">
        <ele>532</ele>
        <time>2021-04-05T13:07:58.000Z</time>
      </trkpt>
      <trkpt lat="46.52324" lon="5.49683">
        <ele>532</ele>
        <time>2021-04-05T13:08:00.000Z</time>
      </trkpt>
      <trkpt lat="46.52318" lon="5.49667">
        <ele>532</ele>
        <time>2021-04-05T13:08:02.000Z</time>
      </trkpt>
      <trkpt lat="46.52315" lon="5.49659">
        <ele>531.79998779297</ele>
        <time>2021-04-05T13:08:03.000Z</time>
      </trkpt>
      <trkpt lat="46.52314" lon="5.49651">
        <ele>531.79998779297</ele>
        <time>2021-04-05T13:08:04.000Z</time>
      </trkpt>
      <trkpt lat="46.52313" lon="5.49635">
        <ele>531.79998779297</ele>
        <time>2021-04-05T13:08:06.000Z</time>
      </trkpt>
      <trkpt lat="46.52317" lon="5.49621">
        <ele>531.79998779297</ele>
        <time>2021-04-05T13:08:08.000Z</time>
      </trkpt>
      <trkpt lat="46.52322" lon="5.49607">
        <ele>531.79998779297</ele>
        <time>2021-04-05T13:08:10.000Z</time>
      </trkpt>
      <trkpt lat="46.52326" lon="5.49599">
        <ele>531.59997558594</ele>
        <time>2021-04-05T13:08:11.000Z</time>
      </trkpt>
      <trkpt lat="46.52329" lon="5.49592">
        <ele>531.59997558594</ele>
        <time>2021-04-05T13:08:12.000Z</time>
      </trkpt>
      <trkpt lat="46.52338" lon="5.49576">
        <ele>531.40002441406</ele>
        <time>2021-04-05T13:08:14.000Z</time>
      </trkpt>
      <trkpt lat="46.52345" lon="5.49559">
        <ele>531.40002441406</ele>
        <time>2021-04-05T13:08:16.000Z</time>
      </trkpt>
      <trkpt lat="46.52349" lon="5.49549">
        <ele>531.40002441406</ele>
        <time>2021-04-05T13:08:17.000Z</time>
      </trkpt>
      <trkpt lat="46.52351" lon="5.49539">
        <ele>531.40002441406</ele>
        <time>2021-04-05T13:08:18.000Z</time>
      </trkpt>
      <trkpt lat="46.52357" lon="5.49517">
        <ele>531.20001220703</ele>
        <time>2021-04-05T13:08:20.000Z</time>
      </trkpt>
      <trkpt lat="46.52359" lon="5.49506">
        <ele>531</ele>
        <time>2021-04-05T13:08:21.000Z</time>
      </trkpt>
      <trkpt lat="46.52362" lon="5.49496">
        <ele>530.59997558594</ele>
        <time>2021-04-05T13:08:22.000Z</time>
      </trkpt>
      <trkpt lat="46.52363" lon="5.49474">
        <ele>529.40002441406</ele>
        <time>2021-04-05T13:08:24.000Z</time>
      </trkpt>
      <trkpt lat="46.52361" lon="5.49463">
        <ele>529</ele>
        <time>2021-04-05T13:08:25.000Z</time>
      </trkpt>
      <trkpt lat="46.52358" lon="5.49453">
        <ele>528.79998779297</ele>
        <time>2021-04-05T13:08:26.000Z</time>
      </trkpt>
      <trkpt lat="46.52354" lon="5.49443">
        <ele>528.40002441406</ele>
        <time>2021-04-05T13:08:27.000Z</time>
      </trkpt>
      <trkpt lat="46.52348" lon="5.49433">
        <ele>527.59997558594</ele>
        <time>2021-04-05T13:08:28.000Z</time>
      </trkpt>
      <trkpt lat="46.52342" lon="5.49424">
        <ele>526.79998779297</ele>
        <time>2021-04-05T13:08:29.000Z</time>
      </trkpt>
      <trkpt lat="46.52336" lon="5.49416">
        <ele>526.20001220703</ele>
        <time>2021-04-05T13:08:30.000Z</time>
      </trkpt>
      <trkpt lat="46.52329" lon="5.49408">
        <ele>525.59997558594</ele>
        <time>2021-04-05T13:08:31.000Z</time>
      </trkpt>
      <trkpt lat="46.52321" lon="5.49401">
        <ele>524.79998779297</ele>
        <time>2021-04-05T13:08:32.000Z</time>
      </trkpt>
      <trkpt lat="46.52314" lon="5.49394">
        <ele>524</ele>
        <time>2021-04-05T13:08:33.000Z</time>
      </trkpt>
      <trkpt lat="46.52306" lon="5.49387">
        <ele>523.79998779297</ele>
        <time>2021-04-05T13:08:34.000Z</time>
      </trkpt>
      <trkpt lat="46.5229" lon="5.49375">
        <ele>523</ele>
        <time>2021-04-05T13:08:36.000Z</time>
      </trkpt>
      <trkpt lat="46.52283" lon="5.49369">
        <ele>522</ele>
        <time>2021-04-05T13:08:37.000Z</time>
      </trkpt>
      <trkpt lat="46.52277" lon="5.49361">
        <ele>521</ele>
        <time>2021-04-05T13:08:38.000Z</time>
      </trkpt>
      <trkpt lat="46.52274" lon="5.49351">
        <ele>520.40002441406</ele>
        <time>2021-04-05T13:08:39.000Z</time>
      </trkpt>
      <trkpt lat="46.52273" lon="5.49338">
        <ele>520</ele>
        <time>2021-04-05T13:08:40.000Z</time>
      </trkpt>
      <trkpt lat="46.52275" lon="5.49326">
        <ele>519.59997558594</ele>
        <time>2021-04-05T13:08:41.000Z</time>
      </trkpt>
      <trkpt lat="46.52278" lon="5.49313">
        <ele>518.79998779297</ele>
        <time>2021-04-05T13:08:42.000Z</time>
      </trkpt>
      <trkpt lat="46.52287" lon="5.49287">
        <ele>517.20001220703</ele>
        <time>2021-04-05T13:08:44.000Z</time>
      </trkpt>
      <trkpt lat="46.52293" lon="5.49274">
        <ele>516.40002441406</ele>
        <time>2021-04-05T13:08:45.000Z</time>
      </trkpt>
      <trkpt lat="46.52298" lon="5.49261">
        <ele>516</ele>
        <time>2021-04-05T13:08:46.000Z</time>
      </trkpt>
      <trkpt lat="46.52307" lon="5.49234">
        <ele>514.79998779297</ele>
        <time>2021-04-05T13:08:48.000Z</time>
      </trkpt>
      <trkpt lat="46.52311" lon="5.49221">
        <ele>513.59997558594</ele>
        <time>2021-04-05T13:08:49.000Z</time>
      </trkpt>
      <trkpt lat="46.52316" lon="5.49209">
        <ele>512.79998779297</ele>
        <time>2021-04-05T13:08:50.000Z</time>
      </trkpt>
      <trkpt lat="46.5232" lon="5.49196">
        <ele>512.40002441406</ele>
        <time>2021-04-05T13:08:51.000Z</time>
      </trkpt>
      <trkpt lat="46.52324" lon="5.49185">
        <ele>511.60000610352</ele>
        <time>2021-04-05T13:08:52.000Z</time>
      </trkpt>
      <trkpt lat="46.52329" lon="5.49174">
        <ele>510.20001220703</ele>
        <time>2021-04-05T13:08:53.000Z</time>
      </trkpt>
      <trkpt lat="46.52334" lon="5.49163">
        <ele>509.79998779297</ele>
        <time>2021-04-05T13:08:54.000Z</time>
      </trkpt>
      <trkpt lat="46.5234" lon="5.49154">
        <ele>509.39999389648</ele>
        <time>2021-04-05T13:08:55.000Z</time>
      </trkpt>
      <trkpt lat="46.52347" lon="5.49144">
        <ele>509</ele>
        <time>2021-04-05T13:08:56.000Z</time>
      </trkpt>
      <trkpt lat="46.5236" lon="5.49124">
        <ele>508.60000610352</ele>
        <time>2021-04-05T13:08:58.000Z</time>
      </trkpt>
      <trkpt lat="46.52372" lon="5.49105">
        <ele>508.39999389648</ele>
        <time>2021-04-05T13:09:00.000Z</time>
      </trkpt>
      <trkpt lat="46.52385" lon="5.49087">
        <ele>508.20001220703</ele>
        <time>2021-04-05T13:09:02.000Z</time>
      </trkpt>
      <trkpt lat="46.52391" lon="5.49078">
        <ele>508</ele>
        <time>2021-04-05T13:09:03.000Z</time>
      </trkpt>
      <trkpt lat="46.52397" lon="5.49069">
        <ele>507.79998779297</ele>
        <time>2021-04-05T13:09:04.000Z</time>
      </trkpt>
      <trkpt lat="46.52409" lon="5.49054">
        <ele>506.79998779297</ele>
        <time>2021-04-05T13:09:06.000Z</time>
      </trkpt>
      <trkpt lat="46.5242" lon="5.4904">
        <ele>506.60000610352</ele>
        <time>2021-04-05T13:09:08.000Z</time>
      </trkpt>
      <trkpt lat="46.52426" lon="5.49033">
        <ele>506.39999389648</ele>
        <time>2021-04-05T13:09:09.000Z</time>
      </trkpt>
      <trkpt lat="46.5243" lon="5.49027">
        <ele>506.39999389648</ele>
        <time>2021-04-05T13:09:10.000Z</time>
      </trkpt>
      <trkpt lat="46.52434" lon="5.49021">
        <ele>506.39999389648</ele>
        <time>2021-04-05T13:09:11.000Z</time>
      </trkpt>
      <trkpt lat="46.52438" lon="5.49014">
        <ele>506.39999389648</ele>
        <time>2021-04-05T13:09:12.000Z</time>
      </trkpt>
      <trkpt lat="46.5244" lon="5.49007">
        <ele>506.39999389648</ele>
        <time>2021-04-05T13:09:13.000Z</time>
      </trkpt>
      <trkpt lat="46.52442" lon="5.49">
        <ele>506.39999389648</ele>
        <time>2021-04-05T13:09:14.000Z</time>
      </trkpt>
      <trkpt lat="46.52444" lon="5.48986">
        <ele>506.60000610352</ele>
        <time>2021-04-05T13:09:16.000Z</time>
      </trkpt>
      <trkpt lat="46.52445" lon="5.48972">
        <ele>507.60000610352</ele>
        <time>2021-04-05T13:09:18.000Z</time>
      </trkpt>
      <trkpt lat="46.52445" lon="5.48966">
        <ele>508.20001220703</ele>
        <time>2021-04-05T13:09:19.000Z</time>
      </trkpt>
      <trkpt lat="46.52445" lon="5.48959">
        <ele>508.79998779297</ele>
        <time>2021-04-05T13:09:20.000Z</time>
      </trkpt>
      <trkpt lat="46.52445" lon="5.48953">
        <ele>509.39999389648</ele>
        <time>2021-04-05T13:09:21.000Z</time>
      </trkpt>
      <trkpt lat="46.52446" lon="5.48947">
        <ele>509.79998779297</ele>
        <time>2021-04-05T13:09:22.000Z</time>
      </trkpt>
      <trkpt lat="46.52447" lon="5.48935">
        <ele>510.39999389648</ele>
        <time>2021-04-05T13:09:24.000Z</time>
      </trkpt>
      <trkpt lat="46.52448" lon="5.4893">
        <ele>510.60000610352</ele>
        <time>2021-04-05T13:09:25.000Z</time>
      </trkpt>
      <trkpt lat="46.52449" lon="5.48925">
        <ele>510.79998779297</ele>
        <time>2021-04-05T13:09:26.000Z</time>
      </trkpt>
      <trkpt lat="46.52451" lon="5.48914">
        <ele>511.60000610352</ele>
        <time>2021-04-05T13:09:28.000Z</time>
      </trkpt>
      <trkpt lat="46.52453" lon="5.48909">
        <ele>512</ele>
        <time>2021-04-05T13:09:29.000Z</time>
      </trkpt>
      <trkpt lat="46.52455" lon="5.48904">
        <ele>512.40002441406</ele>
        <time>2021-04-05T13:09:30.000Z</time>
      </trkpt>
      <trkpt lat="46.5246" lon="5.48894">
        <ele>512.79998779297</ele>
        <time>2021-04-05T13:09:32.000Z</time>
      </trkpt>
      <trkpt lat="46.52463" lon="5.48889">
        <ele>512.79998779297</ele>
        <time>2021-04-05T13:09:33.000Z</time>
      </trkpt>
      <trkpt lat="46.52466" lon="5.48884">
        <ele>513.20001220703</ele>
        <time>2021-04-05T13:09:34.000Z</time>
      </trkpt>
      <trkpt lat="46.52469" lon="5.48878">
        <ele>513.79998779297</ele>
        <time>2021-04-05T13:09:35.000Z</time>
      </trkpt>
      <trkpt lat="46.52471" lon="5.48873">
        <ele>514.20001220703</ele>
        <time>2021-04-05T13:09:36.000Z</time>
      </trkpt>
      <trkpt lat="46.52474" lon="5.48868">
        <ele>514.59997558594</ele>
        <time>2021-04-05T13:09:37.000Z</time>
      </trkpt>
      <trkpt lat="46.52477" lon="5.48863">
        <ele>515</ele>
        <time>2021-04-05T13:09:38.000Z</time>
      </trkpt>
      <trkpt lat="46.5248" lon="5.48858">
        <ele>515.20001220703</ele>
        <time>2021-04-05T13:09:39.000Z</time>
      </trkpt>
      <trkpt lat="46.52484" lon="5.48853">
        <ele>515.40002441406</ele>
        <time>2021-04-05T13:09:40.000Z</time>
      </trkpt>
      <trkpt lat="46.52491" lon="5.48846">
        <ele>515.59997558594</ele>
        <time>2021-04-05T13:09:42.000Z</time>
      </trkpt>
      <trkpt lat="46.52495" lon="5.48842">
        <ele>515.79998779297</ele>
        <time>2021-04-05T13:09:43.000Z</time>
      </trkpt>
      <trkpt lat="46.52499" lon="5.4884">
        <ele>515.79998779297</ele>
        <time>2021-04-05T13:09:44.000Z</time>
      </trkpt>
      <trkpt lat="46.52503" lon="5.48836">
        <ele>516</ele>
        <time>2021-04-05T13:09:45.000Z</time>
      </trkpt>
      <trkpt lat="46.52508" lon="5.48833">
        <ele>516.20001220703</ele>
        <time>2021-04-05T13:09:46.000Z</time>
      </trkpt>
      <trkpt lat="46.52516" lon="5.48828">
        <ele>516.59997558594</ele>
        <time>2021-04-05T13:09:48.000Z</time>
      </trkpt>
      <trkpt lat="46.52524" lon="5.48823">
        <ele>517.40002441406</ele>
        <time>2021-04-05T13:09:50.000Z</time>
      </trkpt>
      <trkpt lat="46.52531" lon="5.48818">
        <ele>517.40002441406</ele>
        <time>2021-04-05T13:09:52.000Z</time>
      </trkpt>
      <trkpt lat="46.52538" lon="5.48812">
        <ele>517.59997558594</ele>
        <time>2021-04-05T13:09:54.000Z</time>
      </trkpt>
      <trkpt lat="46.52544" lon="5.48806">
        <ele>517.59997558594</ele>
        <time>2021-04-05T13:09:56.000Z</time>
      </trkpt>
      <trkpt lat="46.5255" lon="5.48799">
        <ele>517.79998779297</ele>
        <time>2021-04-05T13:09:58.000Z</time>
      </trkpt>
      <trkpt lat="46.52555" lon="5.48793">
        <ele>517.79998779297</ele>
        <time>2021-04-05T13:10:00.000Z</time>
      </trkpt>
      <trkpt lat="46.5256" lon="5.48786">
        <ele>518.40002441406</ele>
        <time>2021-04-05T13:10:02.000Z</time>
      </trkpt>
      <trkpt lat="46.52564" lon="5.48778">
        <ele>518.59997558594</ele>
        <time>2021-04-05T13:10:04.000Z</time>
      </trkpt>
      <trkpt lat="46.52569" lon="5.48768">
        <ele>519</ele>
        <time>2021-04-05T13:10:06.000Z</time>
      </trkpt>
      <trkpt lat="46.52571" lon="5.48762">
        <ele>519</ele>
        <time>2021-04-05T13:10:07.000Z</time>
      </trkpt>
      <trkpt lat="46.52573" lon="5.48757">
        <ele>519.20001220703</ele>
        <time>2021-04-05T13:10:08.000Z</time>
      </trkpt>
      <trkpt lat="46.52575" lon="5.48751">
        <ele>519.59997558594</ele>
        <time>2021-04-05T13:10:09.000Z</time>
      </trkpt>
      <trkpt lat="46.52576" lon="5.48745">
        <ele>519.59997558594</ele>
        <time>2021-04-05T13:10:10.000Z</time>
      </trkpt>
      <trkpt lat="46.52579" lon="5.48733">
        <ele>520</ele>
        <time>2021-04-05T13:10:12.000Z</time>
      </trkpt>
      <trkpt lat="46.52581" lon="5.48726">
        <ele>520</ele>
        <time>2021-04-05T13:10:13.000Z</time>
      </trkpt>
      <trkpt lat="46.52582" lon="5.4872">
        <ele>520</ele>
        <time>2021-04-05T13:10:14.000Z</time>
      </trkpt>
      <trkpt lat="46.52584" lon="5.48713">
        <ele>520.20001220703</ele>
        <time>2021-04-05T13:10:15.000Z</time>
      </trkpt>
      <trkpt lat="46.52585" lon="5.48706">
        <ele>520.20001220703</ele>
        <time>2021-04-05T13:10:16.000Z</time>
      </trkpt>
      <trkpt lat="46.52587" lon="5.48693">
        <ele>520.20001220703</ele>
        <time>2021-04-05T13:10:18.000Z</time>
      </trkpt>
      <trkpt lat="46.5259" lon="5.48679">
        <ele>520.20001220703</ele>
        <time>2021-04-05T13:10:20.000Z</time>
      </trkpt>
      <trkpt lat="46.52592" lon="5.48664">
        <ele>520.20001220703</ele>
        <time>2021-04-05T13:10:22.000Z</time>
      </trkpt>
      <trkpt lat="46.52595" lon="5.48648">
        <ele>520.20001220703</ele>
        <time>2021-04-05T13:10:24.000Z</time>
      </trkpt>
      <trkpt lat="46.52597" lon="5.4864">
        <ele>520.20001220703</ele>
        <time>2021-04-05T13:10:25.000Z</time>
      </trkpt>
      <trkpt lat="46.52598" lon="5.48631">
        <ele>520.20001220703</ele>
        <time>2021-04-05T13:10:26.000Z</time>
      </trkpt>
      <trkpt lat="46.52601" lon="5.48612">
        <ele>520.20001220703</ele>
        <time>2021-04-05T13:10:28.000Z</time>
      </trkpt>
      <trkpt lat="46.52602" lon="5.48603">
        <ele>520.20001220703</ele>
        <time>2021-04-05T13:10:29.000Z</time>
      </trkpt>
      <trkpt lat="46.52605" lon="5.48595">
        <ele>520.20001220703</ele>
        <time>2021-04-05T13:10:30.000Z</time>
      </trkpt>
      <trkpt lat="46.52607" lon="5.48587">
        <ele>520</ele>
        <time>2021-04-05T13:10:31.000Z</time>
      </trkpt>
      <trkpt lat="46.5261" lon="5.48579">
        <ele>519.79998779297</ele>
        <time>2021-04-05T13:10:32.000Z</time>
      </trkpt>
      <trkpt lat="46.52614" lon="5.48572">
        <ele>519.59997558594</ele>
        <time>2021-04-05T13:10:33.000Z</time>
      </trkpt>
      <trkpt lat="46.52618" lon="5.48565">
        <ele>519.20001220703</ele>
        <time>2021-04-05T13:10:34.000Z</time>
      </trkpt>
      <trkpt lat="46.52626" lon="5.48554">
        <ele>519</ele>
        <time>2021-04-05T13:10:36.000Z</time>
      </trkpt>
      <trkpt lat="46.52634" lon="5.48542">
        <ele>518.59997558594</ele>
        <time>2021-04-05T13:10:38.000Z</time>
      </trkpt>
      <trkpt lat="46.52637" lon="5.48535">
        <ele>518.59997558594</ele>
        <time>2021-04-05T13:10:39.000Z</time>
      </trkpt>
      <trkpt lat="46.5264" lon="5.48528">
        <ele>518.40002441406</ele>
        <time>2021-04-05T13:10:40.000Z</time>
      </trkpt>
      <trkpt lat="46.52642" lon="5.48519">
        <ele>518.40002441406</ele>
        <time>2021-04-05T13:10:41.000Z</time>
      </trkpt>
      <trkpt lat="46.52642" lon="5.4851">
        <ele>518.40002441406</ele>
        <time>2021-04-05T13:10:42.000Z</time>
      </trkpt>
      <trkpt lat="46.5264" lon="5.48492">
        <ele>518.20001220703</ele>
        <time>2021-04-05T13:10:44.000Z</time>
      </trkpt>
      <trkpt lat="46.52634" lon="5.48473">
        <ele>518</ele>
        <time>2021-04-05T13:10:46.000Z</time>
      </trkpt>
      <trkpt lat="46.52627" lon="5.48454">
        <ele>518</ele>
        <time>2021-04-05T13:10:48.000Z</time>
      </trkpt>
      <trkpt lat="46.52624" lon="5.48444">
        <ele>517.79998779297</ele>
        <time>2021-04-05T13:10:49.000Z</time>
      </trkpt>
      <trkpt lat="46.52621" lon="5.48433">
        <ele>517.59997558594</ele>
        <time>2021-04-05T13:10:50.000Z</time>
      </trkpt>
      <trkpt lat="46.52619" lon="5.48421">
        <ele>517.20001220703</ele>
        <time>2021-04-05T13:10:51.000Z</time>
      </trkpt>
      <trkpt lat="46.52616" lon="5.48396">
        <ele>516.59997558594</ele>
        <time>2021-04-05T13:10:53.000Z</time>
      </trkpt>
      <trkpt lat="46.52611" lon="5.48356">
        <ele>515</ele>
        <time>2021-04-05T13:10:56.000Z</time>
      </trkpt>
      <trkpt lat="46.52606" lon="5.48328">
        <ele>514</ele>
        <time>2021-04-05T13:10:58.000Z</time>
      </trkpt>
      <trkpt lat="46.52603" lon="5.48314">
        <ele>513.40002441406</ele>
        <time>2021-04-05T13:10:59.000Z</time>
      </trkpt>
      <trkpt lat="46.52598" lon="5.483">
        <ele>512.79998779297</ele>
        <time>2021-04-05T13:11:00.000Z</time>
      </trkpt>
      <trkpt lat="46.52593" lon="5.48286">
        <ele>512.20001220703</ele>
        <time>2021-04-05T13:11:01.000Z</time>
      </trkpt>
      <trkpt lat="46.52586" lon="5.48273">
        <ele>511.79998779297</ele>
        <time>2021-04-05T13:11:02.000Z</time>
      </trkpt>
      <trkpt lat="46.5258" lon="5.48261">
        <ele>511.39999389648</ele>
        <time>2021-04-05T13:11:03.000Z</time>
      </trkpt>
      <trkpt lat="46.52573" lon="5.4825">
        <ele>510.79998779297</ele>
        <time>2021-04-05T13:11:04.000Z</time>
      </trkpt>
      <trkpt lat="46.52565" lon="5.48239">
        <ele>510.39999389648</ele>
        <time>2021-04-05T13:11:05.000Z</time>
      </trkpt>
      <trkpt lat="46.52557" lon="5.4823">
        <ele>509.79998779297</ele>
        <time>2021-04-05T13:11:06.000Z</time>
      </trkpt>
      <trkpt lat="46.52548" lon="5.48222">
        <ele>509.20001220703</ele>
        <time>2021-04-05T13:11:07.000Z</time>
      </trkpt>
      <trkpt lat="46.52539" lon="5.48214">
        <ele>508.39999389648</ele>
        <time>2021-04-05T13:11:08.000Z</time>
      </trkpt>
      <trkpt lat="46.5253" lon="5.48207">
        <ele>507.79998779297</ele>
        <time>2021-04-05T13:11:09.000Z</time>
      </trkpt>
      <trkpt lat="46.52521" lon="5.48201">
        <ele>507</ele>
        <time>2021-04-05T13:11:10.000Z</time>
      </trkpt>
      <trkpt lat="46.52511" lon="5.48195">
        <ele>506.39999389648</ele>
        <time>2021-04-05T13:11:11.000Z</time>
      </trkpt>
      <trkpt lat="46.52501" lon="5.48189">
        <ele>505.60000610352</ele>
        <time>2021-04-05T13:11:12.000Z</time>
      </trkpt>
      <trkpt lat="46.52491" lon="5.48184">
        <ele>505</ele>
        <time>2021-04-05T13:11:13.000Z</time>
      </trkpt>
      <trkpt lat="46.5247" lon="5.48175">
        <ele>503.60000610352</ele>
        <time>2021-04-05T13:11:15.000Z</time>
      </trkpt>
      <trkpt lat="46.52448" lon="5.48168">
        <ele>502.60000610352</ele>
        <time>2021-04-05T13:11:17.000Z</time>
      </trkpt>
      <trkpt lat="46.52436" lon="5.48166">
        <ele>502.20001220703</ele>
        <time>2021-04-05T13:11:18.000Z</time>
      </trkpt>
      <trkpt lat="46.52425" lon="5.48165">
        <ele>501.39999389648</ele>
        <time>2021-04-05T13:11:19.000Z</time>
      </trkpt>
      <trkpt lat="46.52414" lon="5.48166">
        <ele>500.79998779297</ele>
        <time>2021-04-05T13:11:20.000Z</time>
      </trkpt>
      <trkpt lat="46.52404" lon="5.48168">
        <ele>500.39999389648</ele>
        <time>2021-04-05T13:11:21.000Z</time>
      </trkpt>
      <trkpt lat="46.52394" lon="5.48169">
        <ele>500</ele>
        <time>2021-04-05T13:11:22.000Z</time>
      </trkpt>
      <trkpt lat="46.52385" lon="5.48171">
        <ele>499.20001220703</ele>
        <time>2021-04-05T13:11:23.000Z</time>
      </trkpt>
      <trkpt lat="46.52371" lon="5.48174">
        <ele>497.60000610352</ele>
        <time>2021-04-05T13:11:25.000Z</time>
      </trkpt>
      <trkpt lat="46.52365" lon="5.48174">
        <ele>497</ele>
        <time>2021-04-05T13:11:26.000Z</time>
      </trkpt>
      <trkpt lat="46.52362" lon="5.48171">
        <ele>496.20001220703</ele>
        <time>2021-04-05T13:11:27.000Z</time>
      </trkpt>
      <trkpt lat="46.52361" lon="5.48158">
        <ele>494.79998779297</ele>
        <time>2021-04-05T13:11:29.000Z</time>
      </trkpt>
      <trkpt lat="46.52365" lon="5.48152">
        <ele>494.39999389648</ele>
        <time>2021-04-05T13:11:30.000Z</time>
      </trkpt>
      <trkpt lat="46.52372" lon="5.48148">
        <ele>494.20001220703</ele>
        <time>2021-04-05T13:11:31.000Z</time>
      </trkpt>
      <trkpt lat="46.5238" lon="5.48146">
        <ele>494</ele>
        <time>2021-04-05T13:11:32.000Z</time>
      </trkpt>
      <trkpt lat="46.52389" lon="5.48144">
        <ele>493.60000610352</ele>
        <time>2021-04-05T13:11:33.000Z</time>
      </trkpt>
      <trkpt lat="46.52399" lon="5.48142">
        <ele>493.39999389648</ele>
        <time>2021-04-05T13:11:34.000Z</time>
      </trkpt>
      <trkpt lat="46.52409" lon="5.48139">
        <ele>493.20001220703</ele>
        <time>2021-04-05T13:11:35.000Z</time>
      </trkpt>
      <trkpt lat="46.5243" lon="5.48133">
        <ele>492.39999389648</ele>
        <time>2021-04-05T13:11:37.000Z</time>
      </trkpt>
      <trkpt lat="46.52451" lon="5.48127">
        <ele>492</ele>
        <time>2021-04-05T13:11:39.000Z</time>
      </trkpt>
      <trkpt lat="46.52473" lon="5.4812">
        <ele>491.20001220703</ele>
        <time>2021-04-05T13:11:41.000Z</time>
      </trkpt>
      <trkpt lat="46.52484" lon="5.48117">
        <ele>490.39999389648</ele>
        <time>2021-04-05T13:11:42.000Z</time>
      </trkpt>
      <trkpt lat="46.52495" lon="5.48113">
        <ele>489.60000610352</ele>
        <time>2021-04-05T13:11:43.000Z</time>
      </trkpt>
      <trkpt lat="46.52517" lon="5.48107">
        <ele>487.20001220703</ele>
        <time>2021-04-05T13:11:45.000Z</time>
      </trkpt>
      <trkpt lat="46.5254" lon="5.48105">
        <ele>485.39999389648</ele>
        <time>2021-04-05T13:11:47.000Z</time>
      </trkpt>
      <trkpt lat="46.52564" lon="5.48106">
        <ele>483.79998779297</ele>
        <time>2021-04-05T13:11:49.000Z</time>
      </trkpt>
      <trkpt lat="46.52588" lon="5.48111">
        <ele>483.20001220703</ele>
        <time>2021-04-05T13:11:51.000Z</time>
      </trkpt>
      <trkpt lat="46.52599" lon="5.48113">
        <ele>482.60000610352</ele>
        <time>2021-04-05T13:11:52.000Z</time>
      </trkpt>
      <trkpt lat="46.52623" lon="5.48118">
        <ele>481.20001220703</ele>
        <time>2021-04-05T13:11:54.000Z</time>
      </trkpt>
      <trkpt lat="46.52646" lon="5.48123">
        <ele>480</ele>
        <time>2021-04-05T13:11:56.000Z</time>
      </trkpt>
      <trkpt lat="46.52669" lon="5.48128">
        <ele>478.20001220703</ele>
        <time>2021-04-05T13:11:58.000Z</time>
      </trkpt>
      <trkpt lat="46.52681" lon="5.48131">
        <ele>477.60000610352</ele>
        <time>2021-04-05T13:11:59.000Z</time>
      </trkpt>
      <trkpt lat="46.52692" lon="5.48133">
        <ele>477.20001220703</ele>
        <time>2021-04-05T13:12:00.000Z</time>
      </trkpt>
      <trkpt lat="46.52704" lon="5.48135">
        <ele>476.20001220703</ele>
        <time>2021-04-05T13:12:01.000Z</time>
      </trkpt>
      <trkpt lat="46.52715" lon="5.48138">
        <ele>475.39999389648</ele>
        <time>2021-04-05T13:12:02.000Z</time>
      </trkpt>
      <trkpt lat="46.52726" lon="5.4814">
        <ele>474.39999389648</ele>
        <time>2021-04-05T13:12:03.000Z</time>
      </trkpt>
      <trkpt lat="46.52737" lon="5.48142">
        <ele>473.79998779297</ele>
        <time>2021-04-05T13:12:04.000Z</time>
      </trkpt>
      <trkpt lat="46.52747" lon="5.48144">
        <ele>473.20001220703</ele>
        <time>2021-04-05T13:12:05.000Z</time>
      </trkpt>
      <trkpt lat="46.52757" lon="5.48145">
        <ele>472.79998779297</ele>
        <time>2021-04-05T13:12:06.000Z</time>
      </trkpt>
      <trkpt lat="46.52766" lon="5.48146">
        <ele>472</ele>
        <time>2021-04-05T13:12:07.000Z</time>
      </trkpt>
      <trkpt lat="46.52774" lon="5.48147">
        <ele>471.20001220703</ele>
        <time>2021-04-05T13:12:08.000Z</time>
      </trkpt>
      <trkpt lat="46.52782" lon="5.48149">
        <ele>471</ele>
        <time>2021-04-05T13:12:09.000Z</time>
      </trkpt>
      <trkpt lat="46.5279" lon="5.48149">
        <ele>470.39999389648</ele>
        <time>2021-04-05T13:12:10.000Z</time>
      </trkpt>
      <trkpt lat="46.52798" lon="5.48149">
        <ele>470.20001220703</ele>
        <time>2021-04-05T13:12:11.000Z</time>
      </trkpt>
      <trkpt lat="46.52806" lon="5.48146">
        <ele>470</ele>
        <time>2021-04-05T13:12:12.000Z</time>
      </trkpt>
      <trkpt lat="46.52814" lon="5.48139">
        <ele>469.79998779297</ele>
        <time>2021-04-05T13:12:13.000Z</time>
      </trkpt>
      <trkpt lat="46.5282" lon="5.48131">
        <ele>469.79998779297</ele>
        <time>2021-04-05T13:12:14.000Z</time>
      </trkpt>
      <trkpt lat="46.52831" lon="5.4811">
        <ele>469.60000610352</ele>
        <time>2021-04-05T13:12:16.000Z</time>
      </trkpt>
      <trkpt lat="46.5284" lon="5.48087">
        <ele>469.20001220703</ele>
        <time>2021-04-05T13:12:18.000Z</time>
      </trkpt>
      <trkpt lat="46.52848" lon="5.48062">
        <ele>469</ele>
        <time>2021-04-05T13:12:20.000Z</time>
      </trkpt>
      <trkpt lat="46.52852" lon="5.4805">
        <ele>469</ele>
        <time>2021-04-05T13:12:21.000Z</time>
      </trkpt>
      <trkpt lat="46.52855" lon="5.48038">
        <ele>468.79998779297</ele>
        <time>2021-04-05T13:12:22.000Z</time>
      </trkpt>
      <trkpt lat="46.52858" lon="5.48026">
        <ele>467.79998779297</ele>
        <time>2021-04-05T13:12:23.000Z</time>
      </trkpt>
      <trkpt lat="46.52862" lon="5.48015">
        <ele>467</ele>
        <time>2021-04-05T13:12:24.000Z</time>
      </trkpt>
      <trkpt lat="46.52864" lon="5.48004">
        <ele>466</ele>
        <time>2021-04-05T13:12:25.000Z</time>
      </trkpt>
      <trkpt lat="46.52867" lon="5.47994">
        <ele>465.60000610352</ele>
        <time>2021-04-05T13:12:26.000Z</time>
      </trkpt>
      <trkpt lat="46.52871" lon="5.47977">
        <ele>464.79998779297</ele>
        <time>2021-04-05T13:12:28.000Z</time>
      </trkpt>
      <trkpt lat="46.52874" lon="5.47964">
        <ele>464.60000610352</ele>
        <time>2021-04-05T13:12:30.000Z</time>
      </trkpt>
      <trkpt lat="46.52877" lon="5.47954">
        <ele>463.79998779297</ele>
        <time>2021-04-05T13:12:32.000Z</time>
      </trkpt>
      <trkpt lat="46.52878" lon="5.47948">
        <ele>463.39999389648</ele>
        <time>2021-04-05T13:12:34.000Z</time>
      </trkpt>
      <trkpt lat="46.52879" lon="5.47947">
        <ele>463.39999389648</ele>
        <time>2021-04-05T13:12:36.000Z</time>
      </trkpt>
      <trkpt lat="46.52878" lon="5.47947">
        <ele>463.20001220703</ele>
        <time>2021-04-05T13:12:37.000Z</time>
      </trkpt>
      <trkpt lat="46.52881" lon="5.4794">
        <ele>464.20001220703</ele>
        <time>2021-04-05T13:13:18.000Z</time>
      </trkpt>
      <trkpt lat="46.52883" lon="5.47934">
        <ele>464</ele>
        <time>2021-04-05T13:13:20.000Z</time>
      </trkpt>
      <trkpt lat="46.52883" lon="5.47931">
        <ele>463.79998779297</ele>
        <time>2021-04-05T13:13:21.000Z</time>
      </trkpt>
      <trkpt lat="46.52884" lon="5.47926">
        <ele>463.79998779297</ele>
        <time>2021-04-05T13:13:22.000Z</time>
      </trkpt>
      <trkpt lat="46.52887" lon="5.47914">
        <ele>463.60000610352</ele>
        <time>2021-04-05T13:13:24.000Z</time>
      </trkpt>
      <trkpt lat="46.52889" lon="5.47908">
        <ele>463.60000610352</ele>
        <time>2021-04-05T13:13:25.000Z</time>
      </trkpt>
      <trkpt lat="46.52891" lon="5.479">
        <ele>463.39999389648</ele>
        <time>2021-04-05T13:13:26.000Z</time>
      </trkpt>
      <trkpt lat="46.52895" lon="5.47885">
        <ele>463.20001220703</ele>
        <time>2021-04-05T13:13:28.000Z</time>
      </trkpt>
      <trkpt lat="46.52897" lon="5.47876">
        <ele>462.79998779297</ele>
        <time>2021-04-05T13:13:29.000Z</time>
      </trkpt>
      <trkpt lat="46.52899" lon="5.47866">
        <ele>462.60000610352</ele>
        <time>2021-04-05T13:13:30.000Z</time>
      </trkpt>
      <trkpt lat="46.52903" lon="5.47847">
        <ele>462</ele>
        <time>2021-04-05T13:13:32.000Z</time>
      </trkpt>
      <trkpt lat="46.52905" lon="5.47837">
        <ele>461.79998779297</ele>
        <time>2021-04-05T13:13:33.000Z</time>
      </trkpt>
      <trkpt lat="46.52906" lon="5.47826">
        <ele>461.20001220703</ele>
        <time>2021-04-05T13:13:34.000Z</time>
      </trkpt>
      <trkpt lat="46.52908" lon="5.47816">
        <ele>460.60000610352</ele>
        <time>2021-04-05T13:13:35.000Z</time>
      </trkpt>
      <trkpt lat="46.5291" lon="5.47805">
        <ele>460.20001220703</ele>
        <time>2021-04-05T13:13:36.000Z</time>
      </trkpt>
      <trkpt lat="46.52912" lon="5.47794">
        <ele>459.79998779297</ele>
        <time>2021-04-05T13:13:37.000Z</time>
      </trkpt>
      <trkpt lat="46.52914" lon="5.47784">
        <ele>459</ele>
        <time>2021-04-05T13:13:38.000Z</time>
      </trkpt>
      <trkpt lat="46.52919" lon="5.47763">
        <ele>457.60000610352</ele>
        <time>2021-04-05T13:13:40.000Z</time>
      </trkpt>
      <trkpt lat="46.52925" lon="5.47743">
        <ele>456.39999389648</ele>
        <time>2021-04-05T13:13:42.000Z</time>
      </trkpt>
      <trkpt lat="46.52931" lon="5.47723">
        <ele>455.79998779297</ele>
        <time>2021-04-05T13:13:44.000Z</time>
      </trkpt>
      <trkpt lat="46.52934" lon="5.47713">
        <ele>455.20001220703</ele>
        <time>2021-04-05T13:13:45.000Z</time>
      </trkpt>
      <trkpt lat="46.52936" lon="5.47702">
        <ele>454.60000610352</ele>
        <time>2021-04-05T13:13:46.000Z</time>
      </trkpt>
      <trkpt lat="46.52937" lon="5.47692">
        <ele>454.39999389648</ele>
        <time>2021-04-05T13:13:47.000Z</time>
      </trkpt>
      <trkpt lat="46.52938" lon="5.47681">
        <ele>454.20001220703</ele>
        <time>2021-04-05T13:13:48.000Z</time>
      </trkpt>
      <trkpt lat="46.52938" lon="5.47671">
        <ele>454.20001220703</ele>
        <time>2021-04-05T13:13:49.000Z</time>
      </trkpt>
      <trkpt lat="46.52938" lon="5.47661">
        <ele>454</ele>
        <time>2021-04-05T13:13:50.000Z</time>
      </trkpt>
      <trkpt lat="46.52938" lon="5.47639">
        <ele>453.60000610352</ele>
        <time>2021-04-05T13:13:52.000Z</time>
      </trkpt>
      <trkpt lat="46.52939" lon="5.47618">
        <ele>453.20001220703</ele>
        <time>2021-04-05T13:13:54.000Z</time>
      </trkpt>
      <trkpt lat="46.52939" lon="5.47607">
        <ele>453</ele>
        <time>2021-04-05T13:13:55.000Z</time>
      </trkpt>
      <trkpt lat="46.52939" lon="5.47596">
        <ele>452.79998779297</ele>
        <time>2021-04-05T13:13:56.000Z</time>
      </trkpt>
      <trkpt lat="46.52939" lon="5.47575">
        <ele>452.60000610352</ele>
        <time>2021-04-05T13:13:58.000Z</time>
      </trkpt>
      <trkpt lat="46.52939" lon="5.47553">
        <ele>452.60000610352</ele>
        <time>2021-04-05T13:14:00.000Z</time>
      </trkpt>
      <trkpt lat="46.52939" lon="5.47532">
        <ele>452.39999389648</ele>
        <time>2021-04-05T13:14:02.000Z</time>
      </trkpt>
      <trkpt lat="46.52939" lon="5.47511">
        <ele>452.39999389648</ele>
        <time>2021-04-05T13:14:04.000Z</time>
      </trkpt>
      <trkpt lat="46.52939" lon="5.47491">
        <ele>452.39999389648</ele>
        <time>2021-04-05T13:14:06.000Z</time>
      </trkpt>
      <trkpt lat="46.52939" lon="5.47481">
        <ele>452.39999389648</ele>
        <time>2021-04-05T13:14:07.000Z</time>
      </trkpt>
      <trkpt lat="46.5294" lon="5.47472">
        <ele>452.60000610352</ele>
        <time>2021-04-05T13:14:08.000Z</time>
      </trkpt>
      <trkpt lat="46.52942" lon="5.47455">
        <ele>452.60000610352</ele>
        <time>2021-04-05T13:14:10.000Z</time>
      </trkpt>
      <trkpt lat="46.52947" lon="5.4744">
        <ele>452.60000610352</ele>
        <time>2021-04-05T13:14:12.000Z</time>
      </trkpt>
      <trkpt lat="46.52954" lon="5.47429">
        <ele>452.79998779297</ele>
        <time>2021-04-05T13:14:14.000Z</time>
      </trkpt>
      <trkpt lat="46.52962" lon="5.47422">
        <ele>453.79998779297</ele>
        <time>2021-04-05T13:14:16.000Z</time>
      </trkpt>
      <trkpt lat="46.52966" lon="5.47419">
        <ele>454.20001220703</ele>
        <time>2021-04-05T13:14:17.000Z</time>
      </trkpt>
      <trkpt lat="46.5297" lon="5.47416">
        <ele>454.60000610352</ele>
        <time>2021-04-05T13:14:18.000Z</time>
      </trkpt>
      <trkpt lat="46.52974" lon="5.47413">
        <ele>455.20001220703</ele>
        <time>2021-04-05T13:14:19.000Z</time>
      </trkpt>
      <trkpt lat="46.52979" lon="5.4741">
        <ele>455.79998779297</ele>
        <time>2021-04-05T13:14:20.000Z</time>
      </trkpt>
      <trkpt lat="46.52982" lon="5.47408">
        <ele>456.20001220703</ele>
        <time>2021-04-05T13:14:21.000Z</time>
      </trkpt>
      <trkpt lat="46.52986" lon="5.47405">
        <ele>456.60000610352</ele>
        <time>2021-04-05T13:14:22.000Z</time>
      </trkpt>
      <trkpt lat="46.52994" lon="5.474">
        <ele>456.79998779297</ele>
        <time>2021-04-05T13:14:24.000Z</time>
      </trkpt>
      <trkpt lat="46.52998" lon="5.47397">
        <ele>457.20001220703</ele>
        <time>2021-04-05T13:14:25.000Z</time>
      </trkpt>
      <trkpt lat="46.53002" lon="5.47395">
        <ele>457.39999389648</ele>
        <time>2021-04-05T13:14:26.000Z</time>
      </trkpt>
      <trkpt lat="46.5301" lon="5.4739">
        <ele>458.20001220703</ele>
        <time>2021-04-05T13:14:28.000Z</time>
      </trkpt>
      <trkpt lat="46.53018" lon="5.47386">
        <ele>458.79998779297</ele>
        <time>2021-04-05T13:14:30.000Z</time>
      </trkpt>
      <trkpt lat="46.53022" lon="5.47383">
        <ele>459</ele>
        <time>2021-04-05T13:14:31.000Z</time>
      </trkpt>
      <trkpt lat="46.53027" lon="5.47381">
        <ele>459.39999389648</ele>
        <time>2021-04-05T13:14:32.000Z</time>
      </trkpt>
      <trkpt lat="46.53035" lon="5.47377">
        <ele>459.79998779297</ele>
        <time>2021-04-05T13:14:34.000Z</time>
      </trkpt>
      <trkpt lat="46.53038" lon="5.47375">
        <ele>460</ele>
        <time>2021-04-05T13:14:35.000Z</time>
      </trkpt>
      <trkpt lat="46.53042" lon="5.47372">
        <ele>460.39999389648</ele>
        <time>2021-04-05T13:14:36.000Z</time>
      </trkpt>
      <trkpt lat="46.5305" lon="5.47366">
        <ele>460.79998779297</ele>
        <time>2021-04-05T13:14:38.000Z</time>
      </trkpt>
      <trkpt lat="46.53057" lon="5.47361">
        <ele>461.20001220703</ele>
        <time>2021-04-05T13:14:40.000Z</time>
      </trkpt>
      <trkpt lat="46.53065" lon="5.47355">
        <ele>461.79998779297</ele>
        <time>2021-04-05T13:14:42.000Z</time>
      </trkpt>
      <trkpt lat="46.53072" lon="5.47348">
        <ele>462.39999389648</ele>
        <time>2021-04-05T13:14:44.000Z</time>
      </trkpt>
      <trkpt lat="46.53076" lon="5.47345">
        <ele>462.60000610352</ele>
        <time>2021-04-05T13:14:45.000Z</time>
      </trkpt>
      <trkpt lat="46.5308" lon="5.47342">
        <ele>462.60000610352</ele>
        <time>2021-04-05T13:14:46.000Z</time>
      </trkpt>
      <trkpt lat="46.53087" lon="5.47337">
        <ele>463.20001220703</ele>
        <time>2021-04-05T13:14:48.000Z</time>
      </trkpt>
      <trkpt lat="46.53095" lon="5.47333">
        <ele>463.79998779297</ele>
        <time>2021-04-05T13:14:50.000Z</time>
      </trkpt>
      <trkpt lat="46.53104" lon="5.4733">
        <ele>464.20001220703</ele>
        <time>2021-04-05T13:14:52.000Z</time>
      </trkpt>
      <trkpt lat="46.53112" lon="5.47327">
        <ele>464.79998779297</ele>
        <time>2021-04-05T13:14:54.000Z</time>
      </trkpt>
      <trkpt lat="46.5312" lon="5.47325">
        <ele>465.39999389648</ele>
        <time>2021-04-05T13:14:56.000Z</time>
      </trkpt>
      <trkpt lat="46.53128" lon="5.47324">
        <ele>465.60000610352</ele>
        <time>2021-04-05T13:14:58.000Z</time>
      </trkpt>
      <trkpt lat="46.53136" lon="5.47324">
        <ele>466</ele>
        <time>2021-04-05T13:15:00.000Z</time>
      </trkpt>
      <trkpt lat="46.53143" lon="5.47324">
        <ele>466.39999389648</ele>
        <time>2021-04-05T13:15:02.000Z</time>
      </trkpt>
      <trkpt lat="46.53151" lon="5.47324">
        <ele>467.20001220703</ele>
        <time>2021-04-05T13:15:04.000Z</time>
      </trkpt>
      <trkpt lat="46.53159" lon="5.47326">
        <ele>468</ele>
        <time>2021-04-05T13:15:06.000Z</time>
      </trkpt>
      <trkpt lat="46.53163" lon="5.47326">
        <ele>468.20001220703</ele>
        <time>2021-04-05T13:15:07.000Z</time>
      </trkpt>
      <trkpt lat="46.53167" lon="5.47327">
        <ele>468.39999389648</ele>
        <time>2021-04-05T13:15:08.000Z</time>
      </trkpt>
      <trkpt lat="46.53175" lon="5.47328">
        <ele>468.39999389648</ele>
        <time>2021-04-05T13:15:10.000Z</time>
      </trkpt>
      <trkpt lat="46.53179" lon="5.47329">
        <ele>468.60000610352</ele>
        <time>2021-04-05T13:15:11.000Z</time>
      </trkpt>
      <trkpt lat="46.53186" lon="5.4733">
        <ele>469</ele>
        <time>2021-04-05T13:15:13.000Z</time>
      </trkpt>
      <trkpt lat="46.5319" lon="5.4733">
        <ele>469.20001220703</ele>
        <time>2021-04-05T13:15:14.000Z</time>
      </trkpt>
      <trkpt lat="46.53196" lon="5.47326">
        <ele>469.60000610352</ele>
        <time>2021-04-05T13:15:16.000Z</time>
      </trkpt>
      <trkpt lat="46.53198" lon="5.47323">
        <ele>469.79998779297</ele>
        <time>2021-04-05T13:15:17.000Z</time>
      </trkpt>
      <trkpt lat="46.53198" lon="5.47318">
        <ele>470</ele>
        <time>2021-04-05T13:15:18.000Z</time>
      </trkpt>
      <trkpt lat="46.53197" lon="5.47313">
        <ele>470.20001220703</ele>
        <time>2021-04-05T13:15:19.000Z</time>
      </trkpt>
      <trkpt lat="46.53195" lon="5.47309">
        <ele>470.39999389648</ele>
        <time>2021-04-05T13:15:20.000Z</time>
      </trkpt>
      <trkpt lat="46.53189" lon="5.47302">
        <ele>471</ele>
        <time>2021-04-05T13:15:22.000Z</time>
      </trkpt>
      <trkpt lat="46.53181" lon="5.47298">
        <ele>471.39999389648</ele>
        <time>2021-04-05T13:15:24.000Z</time>
      </trkpt>
      <trkpt lat="46.53177" lon="5.47297">
        <ele>471.60000610352</ele>
        <time>2021-04-05T13:15:25.000Z</time>
      </trkpt>
      <trkpt lat="46.53173" lon="5.47296">
        <ele>471.79998779297</ele>
        <time>2021-04-05T13:15:26.000Z</time>
      </trkpt>
      <trkpt lat="46.53164" lon="5.47295">
        <ele>472.20001220703</ele>
        <time>2021-04-05T13:15:28.000Z</time>
      </trkpt>
      <trkpt lat="46.53156" lon="5.47292">
        <ele>472.79998779297</ele>
        <time>2021-04-05T13:15:30.000Z</time>
      </trkpt>
      <trkpt lat="46.53148" lon="5.47287">
        <ele>473</ele>
        <time>2021-04-05T13:15:32.000Z</time>
      </trkpt>
      <trkpt lat="46.53141" lon="5.47282">
        <ele>473</ele>
        <time>2021-04-05T13:15:34.000Z</time>
      </trkpt>
      <trkpt lat="46.53137" lon="5.4728">
        <ele>473.20001220703</ele>
        <time>2021-04-05T13:15:35.000Z</time>
      </trkpt>
      <trkpt lat="46.53133" lon="5.47277">
        <ele>473.20001220703</ele>
        <time>2021-04-05T13:15:36.000Z</time>
      </trkpt>
      <trkpt lat="46.5313" lon="5.47274">
        <ele>473.20001220703</ele>
        <time>2021-04-05T13:15:37.000Z</time>
      </trkpt>
      <trkpt lat="46.53121" lon="5.47265">
        <ele>473.60000610352</ele>
        <time>2021-04-05T13:15:40.000Z</time>
      </trkpt>
      <trkpt lat="46.53118" lon="5.47262">
        <ele>473.79998779297</ele>
        <time>2021-04-05T13:15:41.000Z</time>
      </trkpt>
      <trkpt lat="46.53115" lon="5.47259">
        <ele>474</ele>
        <time>2021-04-05T13:15:42.000Z</time>
      </trkpt>
      <trkpt lat="46.53111" lon="5.47256">
        <ele>474.20001220703</ele>
        <time>2021-04-05T13:15:43.000Z</time>
      </trkpt>
      <trkpt lat="46.53108" lon="5.47253">
        <ele>474.39999389648</ele>
        <time>2021-04-05T13:15:44.000Z</time>
      </trkpt>
      <trkpt lat="46.53101" lon="5.47248">
        <ele>474.60000610352</ele>
        <time>2021-04-05T13:15:46.000Z</time>
      </trkpt>
      <trkpt lat="46.53094" lon="5.47243">
        <ele>474.79998779297</ele>
        <time>2021-04-05T13:15:48.000Z</time>
      </trkpt>
      <trkpt lat="46.53087" lon="5.47239">
        <ele>475.39999389648</ele>
        <time>2021-04-05T13:15:50.000Z</time>
      </trkpt>
      <trkpt lat="46.53083" lon="5.47237">
        <ele>475.60000610352</ele>
        <time>2021-04-05T13:15:51.000Z</time>
      </trkpt>
      <trkpt lat="46.53079" lon="5.47236">
        <ele>475.79998779297</ele>
        <time>2021-04-05T13:15:52.000Z</time>
      </trkpt>
      <trkpt lat="46.53076" lon="5.47234">
        <ele>476</ele>
        <time>2021-04-05T13:15:53.000Z</time>
      </trkpt>
      <trkpt lat="46.53072" lon="5.47233">
        <ele>476.20001220703</ele>
        <time>2021-04-05T13:15:54.000Z</time>
      </trkpt>
      <trkpt lat="46.53065" lon="5.4723">
        <ele>476.79998779297</ele>
        <time>2021-04-05T13:15:56.000Z</time>
      </trkpt>
      <trkpt lat="46.53058" lon="5.47227">
        <ele>477.20001220703</ele>
        <time>2021-04-05T13:15:58.000Z</time>
      </trkpt>
      <trkpt lat="46.53055" lon="5.47226">
        <ele>477.20001220703</ele>
        <time>2021-04-05T13:15:59.000Z</time>
      </trkpt>
      <trkpt lat="46.53052" lon="5.47224">
        <ele>477.20001220703</ele>
        <time>2021-04-05T13:16:00.000Z</time>
      </trkpt>
      <trkpt lat="46.53046" lon="5.47221">
        <ele>477.60000610352</ele>
        <time>2021-04-05T13:16:02.000Z</time>
      </trkpt>
      <trkpt lat="46.53039" lon="5.47217">
        <ele>478.20001220703</ele>
        <time>2021-04-05T13:16:04.000Z</time>
      </trkpt>
      <trkpt lat="46.53032" lon="5.47215">
        <ele>478.79998779297</ele>
        <time>2021-04-05T13:16:06.000Z</time>
      </trkpt>
      <trkpt lat="46.53025" lon="5.47212">
        <ele>479.39999389648</ele>
        <time>2021-04-05T13:16:08.000Z</time>
      </trkpt>
      <trkpt lat="46.53018" lon="5.4721">
        <ele>479.79998779297</ele>
        <time>2021-04-05T13:16:10.000Z</time>
      </trkpt>
      <trkpt lat="46.53011" lon="5.47208">
        <ele>479.79998779297</ele>
        <time>2021-04-05T13:16:12.000Z</time>
      </trkpt>
      <trkpt lat="46.53004" lon="5.47206">
        <ele>480</ele>
        <time>2021-04-05T13:16:14.000Z</time>
      </trkpt>
      <trkpt lat="46.52997" lon="5.47203">
        <ele>480.20001220703</ele>
        <time>2021-04-05T13:16:16.000Z</time>
      </trkpt>
      <trkpt lat="46.52989" lon="5.472">
        <ele>480.39999389648</ele>
        <time>2021-04-05T13:16:18.000Z</time>
      </trkpt>
      <trkpt lat="46.52986" lon="5.47198">
        <ele>480.60000610352</ele>
        <time>2021-04-05T13:16:19.000Z</time>
      </trkpt>
      <trkpt lat="46.52982" lon="5.47196">
        <ele>480.79998779297</ele>
        <time>2021-04-05T13:16:20.000Z</time>
      </trkpt>
      <trkpt lat="46.52976" lon="5.47189">
        <ele>481.39999389648</ele>
        <time>2021-04-05T13:16:22.000Z</time>
      </trkpt>
      <trkpt lat="46.52973" lon="5.47185">
        <ele>481.39999389648</ele>
        <time>2021-04-05T13:16:23.000Z</time>
      </trkpt>
      <trkpt lat="46.52971" lon="5.47181">
        <ele>482</ele>
        <time>2021-04-05T13:16:24.000Z</time>
      </trkpt>
      <trkpt lat="46.52969" lon="5.47171">
        <ele>482.79998779297</ele>
        <time>2021-04-05T13:16:26.000Z</time>
      </trkpt>
      <trkpt lat="46.52968" lon="5.47166">
        <ele>483.20001220703</ele>
        <time>2021-04-05T13:16:27.000Z</time>
      </trkpt>
      <trkpt lat="46.52968" lon="5.4716">
        <ele>483.60000610352</ele>
        <time>2021-04-05T13:16:28.000Z</time>
      </trkpt>
      <trkpt lat="46.5297" lon="5.4715">
        <ele>484.20001220703</ele>
        <time>2021-04-05T13:16:30.000Z</time>
      </trkpt>
      <trkpt lat="46.52972" lon="5.4714">
        <ele>484.79998779297</ele>
        <time>2021-04-05T13:16:32.000Z</time>
      </trkpt>
      <trkpt lat="46.52974" lon="5.4713">
        <ele>485.20001220703</ele>
        <time>2021-04-05T13:16:34.000Z</time>
      </trkpt>
      <trkpt lat="46.52975" lon="5.47125">
        <ele>485.39999389648</ele>
        <time>2021-04-05T13:16:35.000Z</time>
      </trkpt>
      <trkpt lat="46.52976" lon="5.4712">
        <ele>485.39999389648</ele>
        <time>2021-04-05T13:16:36.000Z</time>
      </trkpt>
      <trkpt lat="46.52978" lon="5.47111">
        <ele>485.60000610352</ele>
        <time>2021-04-05T13:16:38.000Z</time>
      </trkpt>
      <trkpt lat="46.52979" lon="5.47106">
        <ele>485.79998779297</ele>
        <time>2021-04-05T13:16:39.000Z</time>
      </trkpt>
      <trkpt lat="46.5298" lon="5.47101">
        <ele>485.79998779297</ele>
        <time>2021-04-05T13:16:40.000Z</time>
      </trkpt>
      <trkpt lat="46.52983" lon="5.47091">
        <ele>486.20001220703</ele>
        <time>2021-04-05T13:16:42.000Z</time>
      </trkpt>
      <trkpt lat="46.52984" lon="5.47087">
        <ele>486.60000610352</ele>
        <time>2021-04-05T13:16:43.000Z</time>
      </trkpt>
      <trkpt lat="46.52985" lon="5.47082">
        <ele>486.79998779297</ele>
        <time>2021-04-05T13:16:44.000Z</time>
      </trkpt>
      <trkpt lat="46.52987" lon="5.47072">
        <ele>487.39999389648</ele>
        <time>2021-04-05T13:16:46.000Z</time>
      </trkpt>
      <trkpt lat="46.52989" lon="5.4706">
        <ele>487.79998779297</ele>
        <time>2021-04-05T13:16:48.000Z</time>
      </trkpt>
      <trkpt lat="46.52991" lon="5.47049">
        <ele>488.60000610352</ele>
        <time>2021-04-05T13:16:50.000Z</time>
      </trkpt>
      <trkpt lat="46.52992" lon="5.47044">
        <ele>488.79998779297</ele>
        <time>2021-04-05T13:16:51.000Z</time>
      </trkpt>
      <trkpt lat="46.52993" lon="5.47039">
        <ele>489.20001220703</ele>
        <time>2021-04-05T13:16:52.000Z</time>
      </trkpt>
      <trkpt lat="46.52995" lon="5.47028">
        <ele>489.60000610352</ele>
        <time>2021-04-05T13:16:54.000Z</time>
      </trkpt>
      <trkpt lat="46.52997" lon="5.47017">
        <ele>490</ele>
        <time>2021-04-05T13:16:56.000Z</time>
      </trkpt>
      <trkpt lat="46.52999" lon="5.47007">
        <ele>490.20001220703</ele>
        <time>2021-04-05T13:16:58.000Z</time>
      </trkpt>
      <trkpt lat="46.53001" lon="5.46997">
        <ele>490.79998779297</ele>
        <time>2021-04-05T13:17:00.000Z</time>
      </trkpt>
      <trkpt lat="46.53003" lon="5.46987">
        <ele>491.39999389648</ele>
        <time>2021-04-05T13:17:02.000Z</time>
      </trkpt>
      <trkpt lat="46.53004" lon="5.46977">
        <ele>492</ele>
        <time>2021-04-05T13:17:04.000Z</time>
      </trkpt>
      <trkpt lat="46.53005" lon="5.46971">
        <ele>492.20001220703</ele>
        <time>2021-04-05T13:17:05.000Z</time>
      </trkpt>
      <trkpt lat="46.53006" lon="5.46966">
        <ele>492.60000610352</ele>
        <time>2021-04-05T13:17:06.000Z</time>
      </trkpt>
      <trkpt lat="46.53008" lon="5.46956">
        <ele>493.20001220703</ele>
        <time>2021-04-05T13:17:08.000Z</time>
      </trkpt>
      <trkpt lat="46.53011" lon="5.46945">
        <ele>493.60000610352</ele>
        <time>2021-04-05T13:17:10.000Z</time>
      </trkpt>
      <trkpt lat="46.53012" lon="5.46939">
        <ele>493.79998779297</ele>
        <time>2021-04-05T13:17:11.000Z</time>
      </trkpt>
      <trkpt lat="46.53013" lon="5.46934">
        <ele>494</ele>
        <time>2021-04-05T13:17:12.000Z</time>
      </trkpt>
      <trkpt lat="46.53015" lon="5.46923">
        <ele>494.39999389648</ele>
        <time>2021-04-05T13:17:14.000Z</time>
      </trkpt>
      <trkpt lat="46.53018" lon="5.46911">
        <ele>494.79998779297</ele>
        <time>2021-04-05T13:17:16.000Z</time>
      </trkpt>
      <trkpt lat="46.53019" lon="5.469">
        <ele>495.20001220703</ele>
        <time>2021-04-05T13:17:18.000Z</time>
      </trkpt>
      <trkpt lat="46.53021" lon="5.46888">
        <ele>495.60000610352</ele>
        <time>2021-04-05T13:17:20.000Z</time>
      </trkpt>
      <trkpt lat="46.53021" lon="5.46877">
        <ele>496</ele>
        <time>2021-04-05T13:17:22.000Z</time>
      </trkpt>
      <trkpt lat="46.5302" lon="5.46871">
        <ele>496</ele>
        <time>2021-04-05T13:17:23.000Z</time>
      </trkpt>
      <trkpt lat="46.53018" lon="5.46865">
        <ele>496</ele>
        <time>2021-04-05T13:17:24.000Z</time>
      </trkpt>
      <trkpt lat="46.53013" lon="5.46853">
        <ele>496.20001220703</ele>
        <time>2021-04-05T13:17:26.000Z</time>
      </trkpt>
      <trkpt lat="46.53009" lon="5.46848">
        <ele>496.20001220703</ele>
        <time>2021-04-05T13:17:27.000Z</time>
      </trkpt>
      <trkpt lat="46.53004" lon="5.46843">
        <ele>496.20001220703</ele>
        <time>2021-04-05T13:17:28.000Z</time>
      </trkpt>
      <trkpt lat="46.52993" lon="5.46832">
        <ele>496.20001220703</ele>
        <time>2021-04-05T13:17:30.000Z</time>
      </trkpt>
      <trkpt lat="46.52988" lon="5.46826">
        <ele>496</ele>
        <time>2021-04-05T13:17:31.000Z</time>
      </trkpt>
      <trkpt lat="46.52981" lon="5.4682">
        <ele>495.79998779297</ele>
        <time>2021-04-05T13:17:32.000Z</time>
      </trkpt>
      <trkpt lat="46.52968" lon="5.46807">
        <ele>495.39999389648</ele>
        <time>2021-04-05T13:17:34.000Z</time>
      </trkpt>
      <trkpt lat="46.52954" lon="5.46793">
        <ele>494.60000610352</ele>
        <time>2021-04-05T13:17:36.000Z</time>
      </trkpt>
      <trkpt lat="46.5294" lon="5.46777">
        <ele>492.79998779297</ele>
        <time>2021-04-05T13:17:38.000Z</time>
      </trkpt>
      <trkpt lat="46.52925" lon="5.46759">
        <ele>491.39999389648</ele>
        <time>2021-04-05T13:17:40.000Z</time>
      </trkpt>
      <trkpt lat="46.5291" lon="5.46741">
        <ele>489.79998779297</ele>
        <time>2021-04-05T13:17:42.000Z</time>
      </trkpt>
      <trkpt lat="46.52893" lon="5.46725">
        <ele>488.60000610352</ele>
        <time>2021-04-05T13:17:44.000Z</time>
      </trkpt>
      <trkpt lat="46.52874" lon="5.46712">
        <ele>487</ele>
        <time>2021-04-05T13:17:46.000Z</time>
      </trkpt>
      <trkpt lat="46.52855" lon="5.467">
        <ele>485.39999389648</ele>
        <time>2021-04-05T13:17:48.000Z</time>
      </trkpt>
      <trkpt lat="46.52845" lon="5.46693">
        <ele>484.39999389648</ele>
        <time>2021-04-05T13:17:49.000Z</time>
      </trkpt>
      <trkpt lat="46.52834" lon="5.46687">
        <ele>483.60000610352</ele>
        <time>2021-04-05T13:17:50.000Z</time>
      </trkpt>
      <trkpt lat="46.52813" lon="5.46675">
        <ele>482.60000610352</ele>
        <time>2021-04-05T13:17:52.000Z</time>
      </trkpt>
      <trkpt lat="46.52794" lon="5.46667">
        <ele>481.79998779297</ele>
        <time>2021-04-05T13:17:54.000Z</time>
      </trkpt>
      <trkpt lat="46.52787" lon="5.46663">
        <ele>481.39999389648</ele>
        <time>2021-04-05T13:17:55.000Z</time>
      </trkpt>
      <trkpt lat="46.52782" lon="5.46656">
        <ele>480.79998779297</ele>
        <time>2021-04-05T13:17:56.000Z</time>
      </trkpt>
      <trkpt lat="46.52783" lon="5.46639">
        <ele>479.60000610352</ele>
        <time>2021-04-05T13:17:58.000Z</time>
      </trkpt>
      <trkpt lat="46.5279" lon="5.46633">
        <ele>478.39999389648</ele>
        <time>2021-04-05T13:17:59.000Z</time>
      </trkpt>
      <trkpt lat="46.52798" lon="5.46631">
        <ele>477.20001220703</ele>
        <time>2021-04-05T13:18:00.000Z</time>
      </trkpt>
      <trkpt lat="46.52807" lon="5.46629">
        <ele>476.60000610352</ele>
        <time>2021-04-05T13:18:01.000Z</time>
      </trkpt>
      <trkpt lat="46.52818" lon="5.46627">
        <ele>476</ele>
        <time>2021-04-05T13:18:02.000Z</time>
      </trkpt>
      <trkpt lat="46.52828" lon="5.46624">
        <ele>475.60000610352</ele>
        <time>2021-04-05T13:18:03.000Z</time>
      </trkpt>
      <trkpt lat="46.52838" lon="5.4662">
        <ele>475.39999389648</ele>
        <time>2021-04-05T13:18:04.000Z</time>
      </trkpt>
      <trkpt lat="46.52858" lon="5.46607">
        <ele>474.79998779297</ele>
        <time>2021-04-05T13:18:06.000Z</time>
      </trkpt>
      <trkpt lat="46.52868" lon="5.46597">
        <ele>474</ele>
        <time>2021-04-05T13:18:07.000Z</time>
      </trkpt>
      <trkpt lat="46.52875" lon="5.46583">
        <ele>473.20001220703</ele>
        <time>2021-04-05T13:18:08.000Z</time>
      </trkpt>
      <trkpt lat="46.5288" lon="5.46567">
        <ele>472.20001220703</ele>
        <time>2021-04-05T13:18:09.000Z</time>
      </trkpt>
      <trkpt lat="46.52883" lon="5.46551">
        <ele>470.79998779297</ele>
        <time>2021-04-05T13:18:10.000Z</time>
      </trkpt>
      <trkpt lat="46.52885" lon="5.46533">
        <ele>469.60000610352</ele>
        <time>2021-04-05T13:18:11.000Z</time>
      </trkpt>
      <trkpt lat="46.52886" lon="5.46516">
        <ele>469</ele>
        <time>2021-04-05T13:18:12.000Z</time>
      </trkpt>
      <trkpt lat="46.52887" lon="5.46499">
        <ele>468.20001220703</ele>
        <time>2021-04-05T13:18:13.000Z</time>
      </trkpt>
      <trkpt lat="46.52887" lon="5.46482">
        <ele>467.20001220703</ele>
        <time>2021-04-05T13:18:14.000Z</time>
      </trkpt>
      <trkpt lat="46.52888" lon="5.46466">
        <ele>466</ele>
        <time>2021-04-05T13:18:15.000Z</time>
      </trkpt>
      <trkpt lat="46.52888" lon="5.46451">
        <ele>465</ele>
        <time>2021-04-05T13:18:16.000Z</time>
      </trkpt>
      <trkpt lat="46.52889" lon="5.46437">
        <ele>464.39999389648</ele>
        <time>2021-04-05T13:18:17.000Z</time>
      </trkpt>
      <trkpt lat="46.5289" lon="5.46425">
        <ele>464.20001220703</ele>
        <time>2021-04-05T13:18:18.000Z</time>
      </trkpt>
      <trkpt lat="46.52892" lon="5.46414">
        <ele>464</ele>
        <time>2021-04-05T13:18:19.000Z</time>
      </trkpt>
      <trkpt lat="46.52895" lon="5.46405">
        <ele>464</ele>
        <time>2021-04-05T13:18:20.000Z</time>
      </trkpt>
      <trkpt lat="46.529" lon="5.46399">
        <ele>464</ele>
        <time>2021-04-05T13:18:21.000Z</time>
      </trkpt>
      <trkpt lat="46.5291" lon="5.46394">
        <ele>464</ele>
        <time>2021-04-05T13:18:23.000Z</time>
      </trkpt>
      <trkpt lat="46.52921" lon="5.46394">
        <ele>464</ele>
        <time>2021-04-05T13:18:25.000Z</time>
      </trkpt>
      <trkpt lat="46.52931" lon="5.46395">
        <ele>464.39999389648</ele>
        <time>2021-04-05T13:18:27.000Z</time>
      </trkpt>
      <trkpt lat="46.52935" lon="5.46396">
        <ele>465.79998779297</ele>
        <time>2021-04-05T13:18:28.000Z</time>
      </trkpt>
      <trkpt lat="46.5294" lon="5.46396">
        <ele>466.39999389648</ele>
        <time>2021-04-05T13:18:29.000Z</time>
      </trkpt>
      <trkpt lat="46.52944" lon="5.46397">
        <ele>467.39999389648</ele>
        <time>2021-04-05T13:18:30.000Z</time>
      </trkpt>
      <trkpt lat="46.52949" lon="5.46398">
        <ele>468</ele>
        <time>2021-04-05T13:18:31.000Z</time>
      </trkpt>
      <trkpt lat="46.52953" lon="5.46398">
        <ele>468.60000610352</ele>
        <time>2021-04-05T13:18:32.000Z</time>
      </trkpt>
      <trkpt lat="46.52957" lon="5.46399">
        <ele>469</ele>
        <time>2021-04-05T13:18:33.000Z</time>
      </trkpt>
      <trkpt lat="46.52966" lon="5.46401">
        <ele>470</ele>
        <time>2021-04-05T13:18:35.000Z</time>
      </trkpt>
      <trkpt lat="46.52974" lon="5.46402">
        <ele>470.60000610352</ele>
        <time>2021-04-05T13:18:37.000Z</time>
      </trkpt>
      <trkpt lat="46.52981" lon="5.46403">
        <ele>471.20001220703</ele>
        <time>2021-04-05T13:18:39.000Z</time>
      </trkpt>
      <trkpt lat="46.52989" lon="5.46403">
        <ele>471.60000610352</ele>
        <time>2021-04-05T13:18:41.000Z</time>
      </trkpt>
      <trkpt lat="46.52997" lon="5.46403">
        <ele>472.20001220703</ele>
        <time>2021-04-05T13:18:43.000Z</time>
      </trkpt>
      <trkpt lat="46.53005" lon="5.46402">
        <ele>473</ele>
        <time>2021-04-05T13:18:45.000Z</time>
      </trkpt>
      <trkpt lat="46.53009" lon="5.46401">
        <ele>473.20001220703</ele>
        <time>2021-04-05T13:18:46.000Z</time>
      </trkpt>
      <trkpt lat="46.53013" lon="5.46401">
        <ele>473.60000610352</ele>
        <time>2021-04-05T13:18:47.000Z</time>
      </trkpt>
      <trkpt lat="46.53021" lon="5.464">
        <ele>474.39999389648</ele>
        <time>2021-04-05T13:18:49.000Z</time>
      </trkpt>
      <trkpt lat="46.53029" lon="5.46399">
        <ele>475.20001220703</ele>
        <time>2021-04-05T13:18:51.000Z</time>
      </trkpt>
      <trkpt lat="46.53033" lon="5.46398">
        <ele>475.39999389648</ele>
        <time>2021-04-05T13:18:52.000Z</time>
      </trkpt>
      <trkpt lat="46.53036" lon="5.46397">
        <ele>475.60000610352</ele>
        <time>2021-04-05T13:18:53.000Z</time>
      </trkpt>
      <trkpt lat="46.53044" lon="5.46396">
        <ele>476.20001220703</ele>
        <time>2021-04-05T13:18:55.000Z</time>
      </trkpt>
      <trkpt lat="46.53048" lon="5.46395">
        <ele>476.79998779297</ele>
        <time>2021-04-05T13:18:56.000Z</time>
      </trkpt>
      <trkpt lat="46.53052" lon="5.46395">
        <ele>477.20001220703</ele>
        <time>2021-04-05T13:18:57.000Z</time>
      </trkpt>
      <trkpt lat="46.53059" lon="5.46394">
        <ele>478</ele>
        <time>2021-04-05T13:18:59.000Z</time>
      </trkpt>
      <trkpt lat="46.53067" lon="5.46393">
        <ele>478.79998779297</ele>
        <time>2021-04-05T13:19:01.000Z</time>
      </trkpt>
      <trkpt lat="46.53071" lon="5.46393">
        <ele>479.20001220703</ele>
        <time>2021-04-05T13:19:02.000Z</time>
      </trkpt>
      <trkpt lat="46.53074" lon="5.46392">
        <ele>479.39999389648</ele>
        <time>2021-04-05T13:19:03.000Z</time>
      </trkpt>
      <trkpt lat="46.53082" lon="5.46391">
        <ele>480</ele>
        <time>2021-04-05T13:19:05.000Z</time>
      </trkpt>
      <trkpt lat="46.53086" lon="5.46391">
        <ele>480.20001220703</ele>
        <time>2021-04-05T13:19:06.000Z</time>
      </trkpt>
      <trkpt lat="46.5309" lon="5.4639">
        <ele>480.60000610352</ele>
        <time>2021-04-05T13:19:07.000Z</time>
      </trkpt>
      <trkpt lat="46.53098" lon="5.46389">
        <ele>481</ele>
        <time>2021-04-05T13:19:09.000Z</time>
      </trkpt>
      <trkpt lat="46.53102" lon="5.46389">
        <ele>481.20001220703</ele>
        <time>2021-04-05T13:19:10.000Z</time>
      </trkpt>
      <trkpt lat="46.53106" lon="5.46389">
        <ele>481.60000610352</ele>
        <time>2021-04-05T13:19:11.000Z</time>
      </trkpt>
      <trkpt lat="46.53117" lon="5.46387">
        <ele>482.60000610352</ele>
        <time>2021-04-05T13:19:14.000Z</time>
      </trkpt>
      <trkpt lat="46.53128" lon="5.46387">
        <ele>483.60000610352</ele>
        <time>2021-04-05T13:19:17.000Z</time>
      </trkpt>
      <trkpt lat="46.53134" lon="5.46386">
        <ele>484.20001220703</ele>
        <time>2021-04-05T13:19:19.000Z</time>
      </trkpt>
      <trkpt lat="46.53141" lon="5.46385">
        <ele>485</ele>
        <time>2021-04-05T13:19:21.000Z</time>
      </trkpt>
      <trkpt lat="46.53148" lon="5.46384">
        <ele>485.39999389648</ele>
        <time>2021-04-05T13:19:23.000Z</time>
      </trkpt>
      <trkpt lat="46.53155" lon="5.46383">
        <ele>485.79998779297</ele>
        <time>2021-04-05T13:19:25.000Z</time>
      </trkpt>
      <trkpt lat="46.53158" lon="5.46383">
        <ele>486.20001220703</ele>
        <time>2021-04-05T13:19:26.000Z</time>
      </trkpt>
      <trkpt lat="46.53162" lon="5.46382">
        <ele>486.39999389648</ele>
        <time>2021-04-05T13:19:27.000Z</time>
      </trkpt>
      <trkpt lat="46.53169" lon="5.46381">
        <ele>486.79998779297</ele>
        <time>2021-04-05T13:19:29.000Z</time>
      </trkpt>
      <trkpt lat="46.53172" lon="5.46381">
        <ele>487.20001220703</ele>
        <time>2021-04-05T13:19:30.000Z</time>
      </trkpt>
      <trkpt lat="46.53175" lon="5.4638">
        <ele>487.39999389648</ele>
        <time>2021-04-05T13:19:31.000Z</time>
      </trkpt>
      <trkpt lat="46.53182" lon="5.46379">
        <ele>487.60000610352</ele>
        <time>2021-04-05T13:19:33.000Z</time>
      </trkpt>
      <trkpt lat="46.53189" lon="5.46378">
        <ele>487.79998779297</ele>
        <time>2021-04-05T13:19:35.000Z</time>
      </trkpt>
      <trkpt lat="46.53193" lon="5.46377">
        <ele>488.20001220703</ele>
        <time>2021-04-05T13:19:36.000Z</time>
      </trkpt>
      <trkpt lat="46.53196" lon="5.46376">
        <ele>488.39999389648</ele>
        <time>2021-04-05T13:19:37.000Z</time>
      </trkpt>
      <trkpt lat="46.53204" lon="5.46375">
        <ele>488.60000610352</ele>
        <time>2021-04-05T13:19:39.000Z</time>
      </trkpt>
      <trkpt lat="46.53211" lon="5.46373">
        <ele>489</ele>
        <time>2021-04-05T13:19:41.000Z</time>
      </trkpt>
      <trkpt lat="46.53214" lon="5.46373">
        <ele>489.39999389648</ele>
        <time>2021-04-05T13:19:42.000Z</time>
      </trkpt>
      <trkpt lat="46.53218" lon="5.46372">
        <ele>489.79998779297</ele>
        <time>2021-04-05T13:19:43.000Z</time>
      </trkpt>
      <trkpt lat="46.53225" lon="5.46371">
        <ele>490.39999389648</ele>
        <time>2021-04-05T13:19:45.000Z</time>
      </trkpt>
      <trkpt lat="46.53228" lon="5.4637">
        <ele>491</ele>
        <time>2021-04-05T13:19:46.000Z</time>
      </trkpt>
      <trkpt lat="46.53235" lon="5.46369">
        <ele>491.60000610352</ele>
        <time>2021-04-05T13:19:48.000Z</time>
      </trkpt>
      <trkpt lat="46.53238" lon="5.46368">
        <ele>491.79998779297</ele>
        <time>2021-04-05T13:19:49.000Z</time>
      </trkpt>
      <trkpt lat="46.53242" lon="5.46367">
        <ele>492</ele>
        <time>2021-04-05T13:19:50.000Z</time>
      </trkpt>
      <trkpt lat="46.53248" lon="5.46366">
        <ele>492.60000610352</ele>
        <time>2021-04-05T13:19:52.000Z</time>
      </trkpt>
      <trkpt lat="46.53252" lon="5.46366">
        <ele>492.79998779297</ele>
        <time>2021-04-05T13:19:53.000Z</time>
      </trkpt>
      <trkpt lat="46.53255" lon="5.46365">
        <ele>493.20001220703</ele>
        <time>2021-04-05T13:19:54.000Z</time>
      </trkpt>
      <trkpt lat="46.53262" lon="5.46364">
        <ele>493.39999389648</ele>
        <time>2021-04-05T13:19:56.000Z</time>
      </trkpt>
      <trkpt lat="46.53268" lon="5.46363">
        <ele>494</ele>
        <time>2021-04-05T13:19:58.000Z</time>
      </trkpt>
      <trkpt lat="46.53272" lon="5.46362">
        <ele>494</ele>
        <time>2021-04-05T13:19:59.000Z</time>
      </trkpt>
      <trkpt lat="46.53275" lon="5.46361">
        <ele>494.20001220703</ele>
        <time>2021-04-05T13:20:00.000Z</time>
      </trkpt>
      <trkpt lat="46.53282" lon="5.4636">
        <ele>494.79998779297</ele>
        <time>2021-04-05T13:20:02.000Z</time>
      </trkpt>
      <trkpt lat="46.53289" lon="5.46358">
        <ele>495</ele>
        <time>2021-04-05T13:20:04.000Z</time>
      </trkpt>
      <trkpt lat="46.53296" lon="5.46356">
        <ele>495.20001220703</ele>
        <time>2021-04-05T13:20:06.000Z</time>
      </trkpt>
      <trkpt lat="46.53303" lon="5.46355">
        <ele>495.79998779297</ele>
        <time>2021-04-05T13:20:08.000Z</time>
      </trkpt>
      <trkpt lat="46.5331" lon="5.46355">
        <ele>496.20001220703</ele>
        <time>2021-04-05T13:20:10.000Z</time>
      </trkpt>
      <trkpt lat="46.53318" lon="5.46357">
        <ele>496.60000610352</ele>
        <time>2021-04-05T13:20:12.000Z</time>
      </trkpt>
      <trkpt lat="46.53325" lon="5.4636">
        <ele>497</ele>
        <time>2021-04-05T13:20:14.000Z</time>
      </trkpt>
      <trkpt lat="46.53332" lon="5.46364">
        <ele>497.20001220703</ele>
        <time>2021-04-05T13:20:16.000Z</time>
      </trkpt>
      <trkpt lat="46.53339" lon="5.46369">
        <ele>497.60000610352</ele>
        <time>2021-04-05T13:20:18.000Z</time>
      </trkpt>
      <trkpt lat="46.53346" lon="5.46374">
        <ele>498</ele>
        <time>2021-04-05T13:20:20.000Z</time>
      </trkpt>
      <trkpt lat="46.5335" lon="5.46375">
        <ele>498.20001220703</ele>
        <time>2021-04-05T13:20:21.000Z</time>
      </trkpt>
      <trkpt lat="46.53353" lon="5.46375">
        <ele>498.60000610352</ele>
        <time>2021-04-05T13:20:22.000Z</time>
      </trkpt>
      <trkpt lat="46.53358" lon="5.46371">
        <ele>499.20001220703</ele>
        <time>2021-04-05T13:20:24.000Z</time>
      </trkpt>
      <trkpt lat="46.53359" lon="5.46364">
        <ele>499.39999389648</ele>
        <time>2021-04-05T13:20:26.000Z</time>
      </trkpt>
      <trkpt lat="46.53359" lon="5.46361">
        <ele>499.60000610352</ele>
        <time>2021-04-05T13:20:27.000Z</time>
      </trkpt>
      <trkpt lat="46.53357" lon="5.46358">
        <ele>499.60000610352</ele>
        <time>2021-04-05T13:20:28.000Z</time>
      </trkpt>
      <trkpt lat="46.53353" lon="5.46353">
        <ele>499.79998779297</ele>
        <time>2021-04-05T13:20:30.000Z</time>
      </trkpt>
      <trkpt lat="46.53347" lon="5.46349">
        <ele>500.20001220703</ele>
        <time>2021-04-05T13:20:32.000Z</time>
      </trkpt>
      <trkpt lat="46.53341" lon="5.46343">
        <ele>500.79998779297</ele>
        <time>2021-04-05T13:20:34.000Z</time>
      </trkpt>
      <trkpt lat="46.53336" lon="5.46338">
        <ele>501.20001220703</ele>
        <time>2021-04-05T13:20:36.000Z</time>
      </trkpt>
      <trkpt lat="46.5333" lon="5.46334">
        <ele>501.39999389648</ele>
        <time>2021-04-05T13:20:38.000Z</time>
      </trkpt>
      <trkpt lat="46.53325" lon="5.46329">
        <ele>501.79998779297</ele>
        <time>2021-04-05T13:20:40.000Z</time>
      </trkpt>
      <trkpt lat="46.53322" lon="5.46326">
        <ele>502</ele>
        <time>2021-04-05T13:20:41.000Z</time>
      </trkpt>
      <trkpt lat="46.5332" lon="5.46323">
        <ele>502.20001220703</ele>
        <time>2021-04-05T13:20:42.000Z</time>
      </trkpt>
      <trkpt lat="46.53314" lon="5.46319">
        <ele>502.79998779297</ele>
        <time>2021-04-05T13:20:44.000Z</time>
      </trkpt>
      <trkpt lat="46.53312" lon="5.46316">
        <ele>503.20001220703</ele>
        <time>2021-04-05T13:20:45.000Z</time>
      </trkpt>
      <trkpt lat="46.53309" lon="5.46314">
        <ele>503.60000610352</ele>
        <time>2021-04-05T13:20:46.000Z</time>
      </trkpt>
      <trkpt lat="46.53304" lon="5.4631">
        <ele>504.39999389648</ele>
        <time>2021-04-05T13:20:48.000Z</time>
      </trkpt>
      <trkpt lat="46.53301" lon="5.46307">
        <ele>504.79998779297</ele>
        <time>2021-04-05T13:20:49.000Z</time>
      </trkpt>
      <trkpt lat="46.53298" lon="5.46304">
        <ele>505</ele>
        <time>2021-04-05T13:20:50.000Z</time>
      </trkpt>
      <trkpt lat="46.53293" lon="5.463">
        <ele>505.39999389648</ele>
        <time>2021-04-05T13:20:52.000Z</time>
      </trkpt>
      <trkpt lat="46.53288" lon="5.46296">
        <ele>505.60000610352</ele>
        <time>2021-04-05T13:20:54.000Z</time>
      </trkpt>
      <trkpt lat="46.53282" lon="5.46292">
        <ele>506</ele>
        <time>2021-04-05T13:20:56.000Z</time>
      </trkpt>
      <trkpt lat="46.53276" lon="5.46286">
        <ele>506.20001220703</ele>
        <time>2021-04-05T13:20:58.000Z</time>
      </trkpt>
      <trkpt lat="46.53273" lon="5.46284">
        <ele>506.39999389648</ele>
        <time>2021-04-05T13:20:59.000Z</time>
      </trkpt>
      <trkpt lat="46.5327" lon="5.46281">
        <ele>506.79998779297</ele>
        <time>2021-04-05T13:21:00.000Z</time>
      </trkpt>
      <trkpt lat="46.53265" lon="5.46276">
        <ele>507.20001220703</ele>
        <time>2021-04-05T13:21:02.000Z</time>
      </trkpt>
      <trkpt lat="46.5326" lon="5.46272">
        <ele>507.60000610352</ele>
        <time>2021-04-05T13:21:04.000Z</time>
      </trkpt>
      <trkpt lat="46.53257" lon="5.46269">
        <ele>508</ele>
        <time>2021-04-05T13:21:05.000Z</time>
      </trkpt>
      <trkpt lat="46.53255" lon="5.46266">
        <ele>508.20001220703</ele>
        <time>2021-04-05T13:21:06.000Z</time>
      </trkpt>
      <trkpt lat="46.53251" lon="5.46261">
        <ele>508.39999389648</ele>
        <time>2021-04-05T13:21:08.000Z</time>
      </trkpt>
      <trkpt lat="46.53246" lon="5.46256">
        <ele>508.79998779297</ele>
        <time>2021-04-05T13:21:10.000Z</time>
      </trkpt>
      <trkpt lat="46.5324" lon="5.46251">
        <ele>509.39999389648</ele>
        <time>2021-04-05T13:21:12.000Z</time>
      </trkpt>
      <trkpt lat="46.53236" lon="5.46248">
        <ele>509.60000610352</ele>
        <time>2021-04-05T13:21:13.000Z</time>
      </trkpt>
      <trkpt lat="46.53233" lon="5.46245">
        <ele>510</ele>
        <time>2021-04-05T13:21:14.000Z</time>
      </trkpt>
      <trkpt lat="46.53228" lon="5.46239">
        <ele>510.60000610352</ele>
        <time>2021-04-05T13:21:16.000Z</time>
      </trkpt>
      <trkpt lat="46.53225" lon="5.46237">
        <ele>510.79998779297</ele>
        <time>2021-04-05T13:21:17.000Z</time>
      </trkpt>
      <trkpt lat="46.53222" lon="5.46234">
        <ele>511.20001220703</ele>
        <time>2021-04-05T13:21:18.000Z</time>
      </trkpt>
      <trkpt lat="46.53217" lon="5.46229">
        <ele>511.79998779297</ele>
        <time>2021-04-05T13:21:20.000Z</time>
      </trkpt>
      <trkpt lat="46.53214" lon="5.46226">
        <ele>512.20001220703</ele>
        <time>2021-04-05T13:21:21.000Z</time>
      </trkpt>
      <trkpt lat="46.53211" lon="5.46223">
        <ele>512.40002441406</ele>
        <time>2021-04-05T13:21:22.000Z</time>
      </trkpt>
      <trkpt lat="46.53206" lon="5.46217">
        <ele>512.79998779297</ele>
        <time>2021-04-05T13:21:24.000Z</time>
      </trkpt>
      <trkpt lat="46.532" lon="5.46212">
        <ele>513.40002441406</ele>
        <time>2021-04-05T13:21:26.000Z</time>
      </trkpt>
      <trkpt lat="46.53194" lon="5.46207">
        <ele>513.79998779297</ele>
        <time>2021-04-05T13:21:28.000Z</time>
      </trkpt>
      <trkpt lat="46.53189" lon="5.46201">
        <ele>514.20001220703</ele>
        <time>2021-04-05T13:21:30.000Z</time>
      </trkpt>
      <trkpt lat="46.53186" lon="5.46199">
        <ele>514.40002441406</ele>
        <time>2021-04-05T13:21:31.000Z</time>
      </trkpt>
      <trkpt lat="46.53182" lon="5.46196">
        <ele>514.59997558594</ele>
        <time>2021-04-05T13:21:32.000Z</time>
      </trkpt>
      <trkpt lat="46.53176" lon="5.46191">
        <ele>515</ele>
        <time>2021-04-05T13:21:34.000Z</time>
      </trkpt>
      <trkpt lat="46.5317" lon="5.46187">
        <ele>515.40002441406</ele>
        <time>2021-04-05T13:21:36.000Z</time>
      </trkpt>
      <trkpt lat="46.53163" lon="5.46184">
        <ele>516.20001220703</ele>
        <time>2021-04-05T13:21:38.000Z</time>
      </trkpt>
      <trkpt lat="46.53157" lon="5.4618">
        <ele>516.79998779297</ele>
        <time>2021-04-05T13:21:40.000Z</time>
      </trkpt>
      <trkpt lat="46.53151" lon="5.46177">
        <ele>517.40002441406</ele>
        <time>2021-04-05T13:21:42.000Z</time>
      </trkpt>
      <trkpt lat="46.53145" lon="5.46173">
        <ele>518</ele>
        <time>2021-04-05T13:21:44.000Z</time>
      </trkpt>
      <trkpt lat="46.53142" lon="5.46172">
        <ele>518.20001220703</ele>
        <time>2021-04-05T13:21:45.000Z</time>
      </trkpt>
      <trkpt lat="46.53139" lon="5.4617">
        <ele>518.59997558594</ele>
        <time>2021-04-05T13:21:46.000Z</time>
      </trkpt>
      <trkpt lat="46.53133" lon="5.46167">
        <ele>519</ele>
        <time>2021-04-05T13:21:48.000Z</time>
      </trkpt>
      <trkpt lat="46.53126" lon="5.46164">
        <ele>519.59997558594</ele>
        <time>2021-04-05T13:21:50.000Z</time>
      </trkpt>
      <trkpt lat="46.53119" lon="5.46161">
        <ele>520.40002441406</ele>
        <time>2021-04-05T13:21:52.000Z</time>
      </trkpt>
      <trkpt lat="46.53113" lon="5.46158">
        <ele>521.20001220703</ele>
        <time>2021-04-05T13:21:54.000Z</time>
      </trkpt>
      <trkpt lat="46.53109" lon="5.46157">
        <ele>521.59997558594</ele>
        <time>2021-04-05T13:21:55.000Z</time>
      </trkpt>
      <trkpt lat="46.53106" lon="5.46155">
        <ele>521.79998779297</ele>
        <time>2021-04-05T13:21:56.000Z</time>
      </trkpt>
      <trkpt lat="46.531" lon="5.46152">
        <ele>522.20001220703</ele>
        <time>2021-04-05T13:21:58.000Z</time>
      </trkpt>
      <trkpt lat="46.53093" lon="5.4615">
        <ele>522.20001220703</ele>
        <time>2021-04-05T13:22:00.000Z</time>
      </trkpt>
      <trkpt lat="46.53086" lon="5.46147">
        <ele>522.40002441406</ele>
        <time>2021-04-05T13:22:02.000Z</time>
      </trkpt>
      <trkpt lat="46.5308" lon="5.46144">
        <ele>522.59997558594</ele>
        <time>2021-04-05T13:22:04.000Z</time>
      </trkpt>
      <trkpt lat="46.53077" lon="5.46143">
        <ele>522.59997558594</ele>
        <time>2021-04-05T13:22:05.000Z</time>
      </trkpt>
      <trkpt lat="46.53073" lon="5.46141">
        <ele>522.59997558594</ele>
        <time>2021-04-05T13:22:06.000Z</time>
      </trkpt>
      <trkpt lat="46.53067" lon="5.46138">
        <ele>522.79998779297</ele>
        <time>2021-04-05T13:22:08.000Z</time>
      </trkpt>
      <trkpt lat="46.53061" lon="5.46135">
        <ele>522.79998779297</ele>
        <time>2021-04-05T13:22:10.000Z</time>
      </trkpt>
      <trkpt lat="46.53055" lon="5.46131">
        <ele>523</ele>
        <time>2021-04-05T13:22:12.000Z</time>
      </trkpt>
      <trkpt lat="46.53048" lon="5.46128">
        <ele>523.40002441406</ele>
        <time>2021-04-05T13:22:14.000Z</time>
      </trkpt>
      <trkpt lat="46.53042" lon="5.46123">
        <ele>523.79998779297</ele>
        <time>2021-04-05T13:22:16.000Z</time>
      </trkpt>
      <trkpt lat="46.53036" lon="5.46118">
        <ele>524.59997558594</ele>
        <time>2021-04-05T13:22:18.000Z</time>
      </trkpt>
      <trkpt lat="46.53033" lon="5.46116">
        <ele>524.79998779297</ele>
        <time>2021-04-05T13:22:19.000Z</time>
      </trkpt>
      <trkpt lat="46.5303" lon="5.46114">
        <ele>525</ele>
        <time>2021-04-05T13:22:20.000Z</time>
      </trkpt>
      <trkpt lat="46.53024" lon="5.46108">
        <ele>525.59997558594</ele>
        <time>2021-04-05T13:22:22.000Z</time>
      </trkpt>
      <trkpt lat="46.53021" lon="5.46106">
        <ele>526</ele>
        <time>2021-04-05T13:22:23.000Z</time>
      </trkpt>
      <trkpt lat="46.53018" lon="5.46103">
        <ele>526.20001220703</ele>
        <time>2021-04-05T13:22:24.000Z</time>
      </trkpt>
      <trkpt lat="46.53012" lon="5.46099">
        <ele>526.40002441406</ele>
        <time>2021-04-05T13:22:26.000Z</time>
      </trkpt>
      <trkpt lat="46.53006" lon="5.46094">
        <ele>526.59997558594</ele>
        <time>2021-04-05T13:22:28.000Z</time>
      </trkpt>
      <trkpt lat="46.53003" lon="5.46092">
        <ele>527</ele>
        <time>2021-04-05T13:22:29.000Z</time>
      </trkpt>
      <trkpt lat="46.53" lon="5.4609">
        <ele>527.20001220703</ele>
        <time>2021-04-05T13:22:30.000Z</time>
      </trkpt>
      <trkpt lat="46.52994" lon="5.46085">
        <ele>527.59997558594</ele>
        <time>2021-04-05T13:22:32.000Z</time>
      </trkpt>
      <trkpt lat="46.5299" lon="5.46083">
        <ele>527.79998779297</ele>
        <time>2021-04-05T13:22:33.000Z</time>
      </trkpt>
      <trkpt lat="46.52987" lon="5.4608">
        <ele>528</ele>
        <time>2021-04-05T13:22:34.000Z</time>
      </trkpt>
      <trkpt lat="46.52984" lon="5.46078">
        <ele>528</ele>
        <time>2021-04-05T13:22:35.000Z</time>
      </trkpt>
      <trkpt lat="46.52981" lon="5.46075">
        <ele>528.20001220703</ele>
        <time>2021-04-05T13:22:36.000Z</time>
      </trkpt>
      <trkpt lat="46.52975" lon="5.4607">
        <ele>528.79998779297</ele>
        <time>2021-04-05T13:22:38.000Z</time>
      </trkpt>
      <trkpt lat="46.52972" lon="5.46068">
        <ele>529.20001220703</ele>
        <time>2021-04-05T13:22:39.000Z</time>
      </trkpt>
      <trkpt lat="46.52969" lon="5.46066">
        <ele>529.40002441406</ele>
        <time>2021-04-05T13:22:40.000Z</time>
      </trkpt>
      <trkpt lat="46.52963" lon="5.46061">
        <ele>529.79998779297</ele>
        <time>2021-04-05T13:22:42.000Z</time>
      </trkpt>
      <trkpt lat="46.5296" lon="5.46059">
        <ele>530</ele>
        <time>2021-04-05T13:22:43.000Z</time>
      </trkpt>
      <trkpt lat="46.52957" lon="5.46056">
        <ele>530.40002441406</ele>
        <time>2021-04-05T13:22:44.000Z</time>
      </trkpt>
      <trkpt lat="46.52951" lon="5.46052">
        <ele>531</ele>
        <time>2021-04-05T13:22:46.000Z</time>
      </trkpt>
      <trkpt lat="46.52948" lon="5.46049">
        <ele>531.40002441406</ele>
        <time>2021-04-05T13:22:47.000Z</time>
      </trkpt>
      <trkpt lat="46.52945" lon="5.46047">
        <ele>531.79998779297</ele>
        <time>2021-04-05T13:22:48.000Z</time>
      </trkpt>
      <trkpt lat="46.52939" lon="5.46043">
        <ele>532.40002441406</ele>
        <time>2021-04-05T13:22:50.000Z</time>
      </trkpt>
      <trkpt lat="46.52936" lon="5.46041">
        <ele>532.79998779297</ele>
        <time>2021-04-05T13:22:51.000Z</time>
      </trkpt>
      <trkpt lat="46.52934" lon="5.46039">
        <ele>533</ele>
        <time>2021-04-05T13:22:52.000Z</time>
      </trkpt>
      <trkpt lat="46.52931" lon="5.46037">
        <ele>533.20001220703</ele>
        <time>2021-04-05T13:22:53.000Z</time>
      </trkpt>
      <trkpt lat="46.52928" lon="5.46035">
        <ele>533.40002441406</ele>
        <time>2021-04-05T13:22:54.000Z</time>
      </trkpt>
      <trkpt lat="46.52922" lon="5.46031">
        <ele>533.79998779297</ele>
        <time>2021-04-05T13:22:56.000Z</time>
      </trkpt>
      <trkpt lat="46.52917" lon="5.46027">
        <ele>534.40002441406</ele>
        <time>2021-04-05T13:22:58.000Z</time>
      </trkpt>
      <trkpt lat="46.52911" lon="5.46023">
        <ele>535</ele>
        <time>2021-04-05T13:23:00.000Z</time>
      </trkpt>
      <trkpt lat="46.52905" lon="5.4602">
        <ele>535.20001220703</ele>
        <time>2021-04-05T13:23:02.000Z</time>
      </trkpt>
      <trkpt lat="46.52898" lon="5.46017">
        <ele>535.79998779297</ele>
        <time>2021-04-05T13:23:04.000Z</time>
      </trkpt>
      <trkpt lat="46.52895" lon="5.46015">
        <ele>536</ele>
        <time>2021-04-05T13:23:05.000Z</time>
      </trkpt>
      <trkpt lat="46.52891" lon="5.46013">
        <ele>536.20001220703</ele>
        <time>2021-04-05T13:23:06.000Z</time>
      </trkpt>
      <trkpt lat="46.52885" lon="5.4601">
        <ele>536.40002441406</ele>
        <time>2021-04-05T13:23:08.000Z</time>
      </trkpt>
      <trkpt lat="46.52879" lon="5.46006">
        <ele>536.59997558594</ele>
        <time>2021-04-05T13:23:10.000Z</time>
      </trkpt>
      <trkpt lat="46.52872" lon="5.46003">
        <ele>537</ele>
        <time>2021-04-05T13:23:12.000Z</time>
      </trkpt>
      <trkpt lat="46.52869" lon="5.46002">
        <ele>537.20001220703</ele>
        <time>2021-04-05T13:23:13.000Z</time>
      </trkpt>
      <trkpt lat="46.52866" lon="5.46">
        <ele>537.40002441406</ele>
        <time>2021-04-05T13:23:14.000Z</time>
      </trkpt>
      <trkpt lat="46.52863" lon="5.45998">
        <ele>538</ele>
        <time>2021-04-05T13:23:15.000Z</time>
      </trkpt>
      <trkpt lat="46.5286" lon="5.45996">
        <ele>538.20001220703</ele>
        <time>2021-04-05T13:23:16.000Z</time>
      </trkpt>
      <trkpt lat="46.52858" lon="5.45994">
        <ele>538.20001220703</ele>
        <time>2021-04-05T13:23:17.000Z</time>
      </trkpt>
      <trkpt lat="46.52855" lon="5.45992">
        <ele>538.40002441406</ele>
        <time>2021-04-05T13:23:18.000Z</time>
      </trkpt>
      <trkpt lat="46.5285" lon="5.45988">
        <ele>539</ele>
        <time>2021-04-05T13:23:20.000Z</time>
      </trkpt>
      <trkpt lat="46.52848" lon="5.45985">
        <ele>539.79998779297</ele>
        <time>2021-04-05T13:23:21.000Z</time>
      </trkpt>
      <trkpt lat="46.52845" lon="5.45982">
        <ele>540.40002441406</ele>
        <time>2021-04-05T13:23:22.000Z</time>
      </trkpt>
      <trkpt lat="46.52843" lon="5.45979">
        <ele>541</ele>
        <time>2021-04-05T13:23:23.000Z</time>
      </trkpt>
      <trkpt lat="46.52841" lon="5.45976">
        <ele>541.20001220703</ele>
        <time>2021-04-05T13:23:24.000Z</time>
      </trkpt>
      <trkpt lat="46.52837" lon="5.4597">
        <ele>541.59997558594</ele>
        <time>2021-04-05T13:23:26.000Z</time>
      </trkpt>
      <trkpt lat="46.52832" lon="5.45964">
        <ele>541.79998779297</ele>
        <time>2021-04-05T13:23:28.000Z</time>
      </trkpt>
      <trkpt lat="46.52826" lon="5.45957">
        <ele>542.40002441406</ele>
        <time>2021-04-05T13:23:30.000Z</time>
      </trkpt>
      <trkpt lat="46.52824" lon="5.45954">
        <ele>542.59997558594</ele>
        <time>2021-04-05T13:23:31.000Z</time>
      </trkpt>
      <trkpt lat="46.52822" lon="5.45951">
        <ele>542.79998779297</ele>
        <time>2021-04-05T13:23:32.000Z</time>
      </trkpt>
      <trkpt lat="46.52817" lon="5.45944">
        <ele>543.59997558594</ele>
        <time>2021-04-05T13:23:34.000Z</time>
      </trkpt>
      <trkpt lat="46.52813" lon="5.45937">
        <ele>544</ele>
        <time>2021-04-05T13:23:36.000Z</time>
      </trkpt>
      <trkpt lat="46.52809" lon="5.4593">
        <ele>544.40002441406</ele>
        <time>2021-04-05T13:23:38.000Z</time>
      </trkpt>
      <trkpt lat="46.52807" lon="5.45927">
        <ele>544.59997558594</ele>
        <time>2021-04-05T13:23:39.000Z</time>
      </trkpt>
      <trkpt lat="46.52805" lon="5.45923">
        <ele>544.79998779297</ele>
        <time>2021-04-05T13:23:40.000Z</time>
      </trkpt>
      <trkpt lat="46.52803" lon="5.45915">
        <ele>545.40002441406</ele>
        <time>2021-04-05T13:23:42.000Z</time>
      </trkpt>
      <trkpt lat="46.52802" lon="5.45911">
        <ele>545.79998779297</ele>
        <time>2021-04-05T13:23:43.000Z</time>
      </trkpt>
      <trkpt lat="46.528" lon="5.45907">
        <ele>546.20001220703</ele>
        <time>2021-04-05T13:23:44.000Z</time>
      </trkpt>
      <trkpt lat="46.52799" lon="5.45903">
        <ele>546.40002441406</ele>
        <time>2021-04-05T13:23:45.000Z</time>
      </trkpt>
      <trkpt lat="46.52799" lon="5.45899">
        <ele>546.79998779297</ele>
        <time>2021-04-05T13:23:46.000Z</time>
      </trkpt>
      <trkpt lat="46.52798" lon="5.45896">
        <ele>547</ele>
        <time>2021-04-05T13:23:47.000Z</time>
      </trkpt>
      <trkpt lat="46.52798" lon="5.45892">
        <ele>547.20001220703</ele>
        <time>2021-04-05T13:23:48.000Z</time>
      </trkpt>
      <trkpt lat="46.52796" lon="5.45885">
        <ele>547.79998779297</ele>
        <time>2021-04-05T13:23:50.000Z</time>
      </trkpt>
      <trkpt lat="46.52796" lon="5.45881">
        <ele>548</ele>
        <time>2021-04-05T13:23:51.000Z</time>
      </trkpt>
      <trkpt lat="46.52795" lon="5.45877">
        <ele>548.40002441406</ele>
        <time>2021-04-05T13:23:52.000Z</time>
      </trkpt>
      <trkpt lat="46.52793" lon="5.45869">
        <ele>548.79998779297</ele>
        <time>2021-04-05T13:23:54.000Z</time>
      </trkpt>
      <trkpt lat="46.52792" lon="5.45862">
        <ele>549.20001220703</ele>
        <time>2021-04-05T13:23:56.000Z</time>
      </trkpt>
      <trkpt lat="46.52791" lon="5.45853">
        <ele>549.59997558594</ele>
        <time>2021-04-05T13:23:58.000Z</time>
      </trkpt>
      <trkpt lat="46.52791" lon="5.45849">
        <ele>550</ele>
        <time>2021-04-05T13:23:59.000Z</time>
      </trkpt>
      <trkpt lat="46.52791" lon="5.45845">
        <ele>550.40002441406</ele>
        <time>2021-04-05T13:24:00.000Z</time>
      </trkpt>
      <trkpt lat="46.52792" lon="5.45838">
        <ele>551</ele>
        <time>2021-04-05T13:24:02.000Z</time>
      </trkpt>
      <trkpt lat="46.52794" lon="5.45832">
        <ele>551.59997558594</ele>
        <time>2021-04-05T13:24:04.000Z</time>
      </trkpt>
      <trkpt lat="46.52795" lon="5.45829">
        <ele>551.79998779297</ele>
        <time>2021-04-05T13:24:05.000Z</time>
      </trkpt>
      <trkpt lat="46.52796" lon="5.45827">
        <ele>552</ele>
        <time>2021-04-05T13:24:06.000Z</time>
      </trkpt>
      <trkpt lat="46.52797" lon="5.45822">
        <ele>552.40002441406</ele>
        <time>2021-04-05T13:24:08.000Z</time>
      </trkpt>
      <trkpt lat="46.52799" lon="5.45819">
        <ele>552.59997558594</ele>
        <time>2021-04-05T13:24:09.000Z</time>
      </trkpt>
      <trkpt lat="46.528" lon="5.45817">
        <ele>553</ele>
        <time>2021-04-05T13:24:10.000Z</time>
      </trkpt>
      <trkpt lat="46.52801" lon="5.4581">
        <ele>553.79998779297</ele>
        <time>2021-04-05T13:24:12.000Z</time>
      </trkpt>
      <trkpt lat="46.52803" lon="5.45803">
        <ele>554</ele>
        <time>2021-04-05T13:24:14.000Z</time>
      </trkpt>
      <trkpt lat="46.52804" lon="5.458">
        <ele>554.20001220703</ele>
        <time>2021-04-05T13:24:15.000Z</time>
      </trkpt>
      <trkpt lat="46.52805" lon="5.45797">
        <ele>554.40002441406</ele>
        <time>2021-04-05T13:24:16.000Z</time>
      </trkpt>
      <trkpt lat="46.52807" lon="5.45793">
        <ele>554.79998779297</ele>
        <time>2021-04-05T13:24:17.000Z</time>
      </trkpt>
      <trkpt lat="46.52808" lon="5.45789">
        <ele>555</ele>
        <time>2021-04-05T13:24:18.000Z</time>
      </trkpt>
      <trkpt lat="46.5281" lon="5.45782">
        <ele>555.59997558594</ele>
        <time>2021-04-05T13:24:20.000Z</time>
      </trkpt>
      <trkpt lat="46.52811" lon="5.4578">
        <ele>555.79998779297</ele>
        <time>2021-04-05T13:24:21.000Z</time>
      </trkpt>
      <trkpt lat="46.52813" lon="5.45777">
        <ele>556</ele>
        <time>2021-04-05T13:24:22.000Z</time>
      </trkpt>
      <trkpt lat="46.52817" lon="5.45771">
        <ele>556</ele>
        <time>2021-04-05T13:24:24.000Z</time>
      </trkpt>
      <trkpt lat="46.52822" lon="5.45766">
        <ele>556</ele>
        <time>2021-04-05T13:24:26.000Z</time>
      </trkpt>
      <trkpt lat="46.52828" lon="5.45762">
        <ele>556</ele>
        <time>2021-04-05T13:24:28.000Z</time>
      </trkpt>
      <trkpt lat="46.52836" lon="5.45761">
        <ele>556</ele>
        <time>2021-04-05T13:24:30.000Z</time>
      </trkpt>
      <trkpt lat="46.52845" lon="5.4576">
        <ele>556</ele>
        <time>2021-04-05T13:24:32.000Z</time>
      </trkpt>
      <trkpt lat="46.52857" lon="5.45759">
        <ele>555.79998779297</ele>
        <time>2021-04-05T13:24:34.000Z</time>
      </trkpt>
      <trkpt lat="46.52864" lon="5.45759">
        <ele>555.59997558594</ele>
        <time>2021-04-05T13:24:35.000Z</time>
      </trkpt>
      <trkpt lat="46.52871" lon="5.4576">
        <ele>555.59997558594</ele>
        <time>2021-04-05T13:24:36.000Z</time>
      </trkpt>
      <trkpt lat="46.52886" lon="5.4576">
        <ele>555.20001220703</ele>
        <time>2021-04-05T13:24:38.000Z</time>
      </trkpt>
      <trkpt lat="46.529" lon="5.45761">
        <ele>554.79998779297</ele>
        <time>2021-04-05T13:24:40.000Z</time>
      </trkpt>
      <trkpt lat="46.52906" lon="5.45761">
        <ele>554.40002441406</ele>
        <time>2021-04-05T13:24:41.000Z</time>
      </trkpt>
      <trkpt lat="46.52914" lon="5.45762">
        <ele>553.79998779297</ele>
        <time>2021-04-05T13:24:42.000Z</time>
      </trkpt>
      <trkpt lat="46.52923" lon="5.45762">
        <ele>553.40002441406</ele>
        <time>2021-04-05T13:24:43.000Z</time>
      </trkpt>
      <trkpt lat="46.52932" lon="5.45762">
        <ele>553</ele>
        <time>2021-04-05T13:24:44.000Z</time>
      </trkpt>
      <trkpt lat="46.52949" lon="5.45763">
        <ele>552</ele>
        <time>2021-04-05T13:24:46.000Z</time>
      </trkpt>
      <trkpt lat="46.52958" lon="5.45764">
        <ele>551.59997558594</ele>
        <time>2021-04-05T13:24:47.000Z</time>
      </trkpt>
      <trkpt lat="46.52967" lon="5.45765">
        <ele>551</ele>
        <time>2021-04-05T13:24:48.000Z</time>
      </trkpt>
      <trkpt lat="46.52977" lon="5.45766">
        <ele>550.40002441406</ele>
        <time>2021-04-05T13:24:49.000Z</time>
      </trkpt>
      <trkpt lat="46.52986" lon="5.45767">
        <ele>549.79998779297</ele>
        <time>2021-04-05T13:24:50.000Z</time>
      </trkpt>
      <trkpt lat="46.52996" lon="5.45767">
        <ele>549.20001220703</ele>
        <time>2021-04-05T13:24:51.000Z</time>
      </trkpt>
      <trkpt lat="46.53015" lon="5.45767">
        <ele>548.20001220703</ele>
        <time>2021-04-05T13:24:53.000Z</time>
      </trkpt>
      <trkpt lat="46.53034" lon="5.45766">
        <ele>546.59997558594</ele>
        <time>2021-04-05T13:24:55.000Z</time>
      </trkpt>
      <trkpt lat="46.53053" lon="5.45763">
        <ele>545.20001220703</ele>
        <time>2021-04-05T13:24:57.000Z</time>
      </trkpt>
      <trkpt lat="46.53063" lon="5.45762">
        <ele>544.59997558594</ele>
        <time>2021-04-05T13:24:58.000Z</time>
      </trkpt>
      <trkpt lat="46.53073" lon="5.45762">
        <ele>544</ele>
        <time>2021-04-05T13:24:59.000Z</time>
      </trkpt>
      <trkpt lat="46.53094" lon="5.45761">
        <ele>542.59997558594</ele>
        <time>2021-04-05T13:25:01.000Z</time>
      </trkpt>
      <trkpt lat="46.53114" lon="5.45761">
        <ele>541.59997558594</ele>
        <time>2021-04-05T13:25:03.000Z</time>
      </trkpt>
      <trkpt lat="46.53125" lon="5.45761">
        <ele>541</ele>
        <time>2021-04-05T13:25:04.000Z</time>
      </trkpt>
      <trkpt lat="46.53135" lon="5.45761">
        <ele>540</ele>
        <time>2021-04-05T13:25:05.000Z</time>
      </trkpt>
      <trkpt lat="46.53146" lon="5.4576">
        <ele>539.40002441406</ele>
        <time>2021-04-05T13:25:06.000Z</time>
      </trkpt>
      <trkpt lat="46.53156" lon="5.4576">
        <ele>538.59997558594</ele>
        <time>2021-04-05T13:25:07.000Z</time>
      </trkpt>
      <trkpt lat="46.53176" lon="5.45759">
        <ele>537.79998779297</ele>
        <time>2021-04-05T13:25:09.000Z</time>
      </trkpt>
      <trkpt lat="46.53198" lon="5.45755">
        <ele>536.79998779297</ele>
        <time>2021-04-05T13:25:11.000Z</time>
      </trkpt>
      <trkpt lat="46.53218" lon="5.4575">
        <ele>535.59997558594</ele>
        <time>2021-04-05T13:25:13.000Z</time>
      </trkpt>
      <trkpt lat="46.53239" lon="5.45744">
        <ele>534.40002441406</ele>
        <time>2021-04-05T13:25:15.000Z</time>
      </trkpt>
      <trkpt lat="46.53261" lon="5.45737">
        <ele>532.79998779297</ele>
        <time>2021-04-05T13:25:17.000Z</time>
      </trkpt>
      <trkpt lat="46.53273" lon="5.45733">
        <ele>532.20001220703</ele>
        <time>2021-04-05T13:25:18.000Z</time>
      </trkpt>
      <trkpt lat="46.53285" lon="5.45729">
        <ele>531.59997558594</ele>
        <time>2021-04-05T13:25:19.000Z</time>
      </trkpt>
      <trkpt lat="46.53297" lon="5.45726">
        <ele>531</ele>
        <time>2021-04-05T13:25:20.000Z</time>
      </trkpt>
      <trkpt lat="46.53309" lon="5.45722">
        <ele>530.40002441406</ele>
        <time>2021-04-05T13:25:21.000Z</time>
      </trkpt>
      <trkpt lat="46.53321" lon="5.4572">
        <ele>529.79998779297</ele>
        <time>2021-04-05T13:25:22.000Z</time>
      </trkpt>
      <trkpt lat="46.53343" lon="5.45716">
        <ele>528.79998779297</ele>
        <time>2021-04-05T13:25:24.000Z</time>
      </trkpt>
      <trkpt lat="46.53364" lon="5.45715">
        <ele>527.20001220703</ele>
        <time>2021-04-05T13:25:26.000Z</time>
      </trkpt>
      <trkpt lat="46.53386" lon="5.45715">
        <ele>525.79998779297</ele>
        <time>2021-04-05T13:25:28.000Z</time>
      </trkpt>
      <trkpt lat="46.53396" lon="5.45715">
        <ele>525</ele>
        <time>2021-04-05T13:25:29.000Z</time>
      </trkpt>
      <trkpt lat="46.53407" lon="5.45715">
        <ele>524.59997558594</ele>
        <time>2021-04-05T13:25:30.000Z</time>
      </trkpt>
      <trkpt lat="46.53429" lon="5.45717">
        <ele>524</ele>
        <time>2021-04-05T13:25:32.000Z</time>
      </trkpt>
      <trkpt lat="46.5344" lon="5.45717">
        <ele>523.40002441406</ele>
        <time>2021-04-05T13:25:33.000Z</time>
      </trkpt>
      <trkpt lat="46.53451" lon="5.45719">
        <ele>522.79998779297</ele>
        <time>2021-04-05T13:25:34.000Z</time>
      </trkpt>
      <trkpt lat="46.53462" lon="5.45722">
        <ele>522.20001220703</ele>
        <time>2021-04-05T13:25:35.000Z</time>
      </trkpt>
      <trkpt lat="46.53473" lon="5.45727">
        <ele>521.59997558594</ele>
        <time>2021-04-05T13:25:36.000Z</time>
      </trkpt>
      <trkpt lat="46.53494" lon="5.45739">
        <ele>520.59997558594</ele>
        <time>2021-04-05T13:25:38.000Z</time>
      </trkpt>
      <trkpt lat="46.53514" lon="5.45751">
        <ele>519.20001220703</ele>
        <time>2021-04-05T13:25:40.000Z</time>
      </trkpt>
      <trkpt lat="46.53532" lon="5.45763">
        <ele>518.59997558594</ele>
        <time>2021-04-05T13:25:42.000Z</time>
      </trkpt>
      <trkpt lat="46.53541" lon="5.45769">
        <ele>518</ele>
        <time>2021-04-05T13:25:43.000Z</time>
      </trkpt>
      <trkpt lat="46.5355" lon="5.45774">
        <ele>517.79998779297</ele>
        <time>2021-04-05T13:25:44.000Z</time>
      </trkpt>
      <trkpt lat="46.53558" lon="5.45778">
        <ele>517</ele>
        <time>2021-04-05T13:25:45.000Z</time>
      </trkpt>
      <trkpt lat="46.53567" lon="5.45779">
        <ele>516.20001220703</ele>
        <time>2021-04-05T13:25:46.000Z</time>
      </trkpt>
      <trkpt lat="46.53574" lon="5.45775">
        <ele>515.79998779297</ele>
        <time>2021-04-05T13:25:47.000Z</time>
      </trkpt>
      <trkpt lat="46.53578" lon="5.45765">
        <ele>515.59997558594</ele>
        <time>2021-04-05T13:25:48.000Z</time>
      </trkpt>
      <trkpt lat="46.53579" lon="5.45753">
        <ele>515.40002441406</ele>
        <time>2021-04-05T13:25:49.000Z</time>
      </trkpt>
      <trkpt lat="46.53577" lon="5.45741">
        <ele>515.20001220703</ele>
        <time>2021-04-05T13:25:50.000Z</time>
      </trkpt>
      <trkpt lat="46.53563" lon="5.45723">
        <ele>515</ele>
        <time>2021-04-05T13:25:52.000Z</time>
      </trkpt>
      <trkpt lat="46.53554" lon="5.45714">
        <ele>514.59997558594</ele>
        <time>2021-04-05T13:25:53.000Z</time>
      </trkpt>
      <trkpt lat="46.53545" lon="5.45707">
        <ele>514.20001220703</ele>
        <time>2021-04-05T13:25:54.000Z</time>
      </trkpt>
      <trkpt lat="46.53528" lon="5.45691">
        <ele>513.59997558594</ele>
        <time>2021-04-05T13:25:56.000Z</time>
      </trkpt>
      <trkpt lat="46.5352" lon="5.45684">
        <ele>512.79998779297</ele>
        <time>2021-04-05T13:25:57.000Z</time>
      </trkpt>
      <trkpt lat="46.53511" lon="5.45676">
        <ele>511.79998779297</ele>
        <time>2021-04-05T13:25:58.000Z</time>
      </trkpt>
      <trkpt lat="46.53503" lon="5.45668">
        <ele>510.60000610352</ele>
        <time>2021-04-05T13:25:59.000Z</time>
      </trkpt>
      <trkpt lat="46.53495" lon="5.4566">
        <ele>509.39999389648</ele>
        <time>2021-04-05T13:26:00.000Z</time>
      </trkpt>
      <trkpt lat="46.53477" lon="5.45644">
        <ele>507.79998779297</ele>
        <time>2021-04-05T13:26:02.000Z</time>
      </trkpt>
      <trkpt lat="46.5346" lon="5.45628">
        <ele>506.79998779297</ele>
        <time>2021-04-05T13:26:04.000Z</time>
      </trkpt>
      <trkpt lat="46.53451" lon="5.4562">
        <ele>506.60000610352</ele>
        <time>2021-04-05T13:26:05.000Z</time>
      </trkpt>
      <trkpt lat="46.53442" lon="5.45612">
        <ele>506.60000610352</ele>
        <time>2021-04-05T13:26:06.000Z</time>
      </trkpt>
      <trkpt lat="46.53424" lon="5.45596">
        <ele>505.60000610352</ele>
        <time>2021-04-05T13:26:08.000Z</time>
      </trkpt>
      <trkpt lat="46.53405" lon="5.45581">
        <ele>505</ele>
        <time>2021-04-05T13:26:10.000Z</time>
      </trkpt>
      <trkpt lat="46.53396" lon="5.45573">
        <ele>504.79998779297</ele>
        <time>2021-04-05T13:26:11.000Z</time>
      </trkpt>
      <trkpt lat="46.53386" lon="5.45566">
        <ele>504.60000610352</ele>
        <time>2021-04-05T13:26:12.000Z</time>
      </trkpt>
      <trkpt lat="46.53366" lon="5.45551">
        <ele>503.39999389648</ele>
        <time>2021-04-05T13:26:14.000Z</time>
      </trkpt>
      <trkpt lat="46.53346" lon="5.45536">
        <ele>502</ele>
        <time>2021-04-05T13:26:16.000Z</time>
      </trkpt>
      <trkpt lat="46.53325" lon="5.45521">
        <ele>501</ele>
        <time>2021-04-05T13:26:18.000Z</time>
      </trkpt>
      <trkpt lat="46.53314" lon="5.45513">
        <ele>500.39999389648</ele>
        <time>2021-04-05T13:26:19.000Z</time>
      </trkpt>
      <trkpt lat="46.53303" lon="5.45507">
        <ele>499.60000610352</ele>
        <time>2021-04-05T13:26:20.000Z</time>
      </trkpt>
      <trkpt lat="46.53292" lon="5.45503">
        <ele>499</ele>
        <time>2021-04-05T13:26:21.000Z</time>
      </trkpt>
      <trkpt lat="46.53279" lon="5.45501">
        <ele>498.60000610352</ele>
        <time>2021-04-05T13:26:22.000Z</time>
      </trkpt>
      <trkpt lat="46.53267" lon="5.45502">
        <ele>498</ele>
        <time>2021-04-05T13:26:23.000Z</time>
      </trkpt>
      <trkpt lat="46.53255" lon="5.45504">
        <ele>497.20001220703</ele>
        <time>2021-04-05T13:26:24.000Z</time>
      </trkpt>
      <trkpt lat="46.53243" lon="5.45506">
        <ele>496.79998779297</ele>
        <time>2021-04-05T13:26:25.000Z</time>
      </trkpt>
      <trkpt lat="46.5323" lon="5.45509">
        <ele>496.20001220703</ele>
        <time>2021-04-05T13:26:26.000Z</time>
      </trkpt>
      <trkpt lat="46.53218" lon="5.45512">
        <ele>495.60000610352</ele>
        <time>2021-04-05T13:26:27.000Z</time>
      </trkpt>
      <trkpt lat="46.53194" lon="5.45517">
        <ele>494</ele>
        <time>2021-04-05T13:26:29.000Z</time>
      </trkpt>
      <trkpt lat="46.53169" lon="5.45524">
        <ele>492.39999389648</ele>
        <time>2021-04-05T13:26:31.000Z</time>
      </trkpt>
      <trkpt lat="46.53146" lon="5.45534">
        <ele>491</ele>
        <time>2021-04-05T13:26:33.000Z</time>
      </trkpt>
      <trkpt lat="46.53123" lon="5.45542">
        <ele>489</ele>
        <time>2021-04-05T13:26:35.000Z</time>
      </trkpt>
      <trkpt lat="46.5311" lon="5.45542">
        <ele>488</ele>
        <time>2021-04-05T13:26:36.000Z</time>
      </trkpt>
      <trkpt lat="46.53098" lon="5.45539">
        <ele>487</ele>
        <time>2021-04-05T13:26:37.000Z</time>
      </trkpt>
      <trkpt lat="46.53086" lon="5.45533">
        <ele>486.39999389648</ele>
        <time>2021-04-05T13:26:38.000Z</time>
      </trkpt>
      <trkpt lat="46.53075" lon="5.45526">
        <ele>485.60000610352</ele>
        <time>2021-04-05T13:26:39.000Z</time>
      </trkpt>
      <trkpt lat="46.53064" lon="5.45519">
        <ele>485</ele>
        <time>2021-04-05T13:26:40.000Z</time>
      </trkpt>
      <trkpt lat="46.53053" lon="5.45512">
        <ele>484.79998779297</ele>
        <time>2021-04-05T13:26:41.000Z</time>
      </trkpt>
      <trkpt lat="46.53043" lon="5.45505">
        <ele>484.39999389648</ele>
        <time>2021-04-05T13:26:42.000Z</time>
      </trkpt>
      <trkpt lat="46.5302" lon="5.45492">
        <ele>483.20001220703</ele>
        <time>2021-04-05T13:26:44.000Z</time>
      </trkpt>
      <trkpt lat="46.52998" lon="5.45478">
        <ele>481.60000610352</ele>
        <time>2021-04-05T13:26:46.000Z</time>
      </trkpt>
      <trkpt lat="46.52977" lon="5.45461">
        <ele>480</ele>
        <time>2021-04-05T13:26:48.000Z</time>
      </trkpt>
      <trkpt lat="46.52969" lon="5.45449">
        <ele>479.20001220703</ele>
        <time>2021-04-05T13:26:49.000Z</time>
      </trkpt>
      <trkpt lat="46.52965" lon="5.45433">
        <ele>478.39999389648</ele>
        <time>2021-04-05T13:26:50.000Z</time>
      </trkpt>
      <trkpt lat="46.52962" lon="5.45416">
        <ele>477.60000610352</ele>
        <time>2021-04-05T13:26:51.000Z</time>
      </trkpt>
      <trkpt lat="46.52961" lon="5.45399">
        <ele>477</ele>
        <time>2021-04-05T13:26:52.000Z</time>
      </trkpt>
      <trkpt lat="46.5296" lon="5.45382">
        <ele>476.39999389648</ele>
        <time>2021-04-05T13:26:53.000Z</time>
      </trkpt>
      <trkpt lat="46.5296" lon="5.45365">
        <ele>475.39999389648</ele>
        <time>2021-04-05T13:26:54.000Z</time>
      </trkpt>
      <trkpt lat="46.52961" lon="5.45348">
        <ele>474.39999389648</ele>
        <time>2021-04-05T13:26:55.000Z</time>
      </trkpt>
      <trkpt lat="46.52966" lon="5.45314">
        <ele>473.20001220703</ele>
        <time>2021-04-05T13:26:57.000Z</time>
      </trkpt>
      <trkpt lat="46.52968" lon="5.45282">
        <ele>472.39999389648</ele>
        <time>2021-04-05T13:26:59.000Z</time>
      </trkpt>
      <trkpt lat="46.52964" lon="5.45266">
        <ele>472</ele>
        <time>2021-04-05T13:27:00.000Z</time>
      </trkpt>
      <trkpt lat="46.52957" lon="5.45252">
        <ele>471.60000610352</ele>
        <time>2021-04-05T13:27:01.000Z</time>
      </trkpt>
      <trkpt lat="46.52948" lon="5.45242">
        <ele>470.79998779297</ele>
        <time>2021-04-05T13:27:02.000Z</time>
      </trkpt>
      <trkpt lat="46.52938" lon="5.45233">
        <ele>470</ele>
        <time>2021-04-05T13:27:03.000Z</time>
      </trkpt>
      <trkpt lat="46.52927" lon="5.45226">
        <ele>468.79998779297</ele>
        <time>2021-04-05T13:27:04.000Z</time>
      </trkpt>
      <trkpt lat="46.52916" lon="5.45218">
        <ele>467.79998779297</ele>
        <time>2021-04-05T13:27:05.000Z</time>
      </trkpt>
      <trkpt lat="46.52905" lon="5.4521">
        <ele>467</ele>
        <time>2021-04-05T13:27:06.000Z</time>
      </trkpt>
      <trkpt lat="46.52883" lon="5.45194">
        <ele>466.60000610352</ele>
        <time>2021-04-05T13:27:08.000Z</time>
      </trkpt>
      <trkpt lat="46.52861" lon="5.45179">
        <ele>465.39999389648</ele>
        <time>2021-04-05T13:27:10.000Z</time>
      </trkpt>
      <trkpt lat="46.52851" lon="5.45171">
        <ele>464.60000610352</ele>
        <time>2021-04-05T13:27:11.000Z</time>
      </trkpt>
      <trkpt lat="46.5284" lon="5.45163">
        <ele>463.79998779297</ele>
        <time>2021-04-05T13:27:12.000Z</time>
      </trkpt>
      <trkpt lat="46.52829" lon="5.45155">
        <ele>463.20001220703</ele>
        <time>2021-04-05T13:27:13.000Z</time>
      </trkpt>
      <trkpt lat="46.52819" lon="5.45147">
        <ele>462.79998779297</ele>
        <time>2021-04-05T13:27:14.000Z</time>
      </trkpt>
      <trkpt lat="46.52809" lon="5.4514">
        <ele>462.39999389648</ele>
        <time>2021-04-05T13:27:15.000Z</time>
      </trkpt>
      <trkpt lat="46.528" lon="5.45132">
        <ele>461.79998779297</ele>
        <time>2021-04-05T13:27:16.000Z</time>
      </trkpt>
      <trkpt lat="46.52792" lon="5.45122">
        <ele>461</ele>
        <time>2021-04-05T13:27:17.000Z</time>
      </trkpt>
      <trkpt lat="46.52787" lon="5.4511">
        <ele>460.20001220703</ele>
        <time>2021-04-05T13:27:18.000Z</time>
      </trkpt>
      <trkpt lat="46.52787" lon="5.45097">
        <ele>459.60000610352</ele>
        <time>2021-04-05T13:27:19.000Z</time>
      </trkpt>
      <trkpt lat="46.52791" lon="5.45084">
        <ele>458.79998779297</ele>
        <time>2021-04-05T13:27:20.000Z</time>
      </trkpt>
      <trkpt lat="46.52798" lon="5.45074">
        <ele>458.20001220703</ele>
        <time>2021-04-05T13:27:21.000Z</time>
      </trkpt>
      <trkpt lat="46.52816" lon="5.45061">
        <ele>457.60000610352</ele>
        <time>2021-04-05T13:27:23.000Z</time>
      </trkpt>
      <trkpt lat="46.52836" lon="5.45049">
        <ele>457.20001220703</ele>
        <time>2021-04-05T13:27:25.000Z</time>
      </trkpt>
      <trkpt lat="46.52847" lon="5.45043">
        <ele>456.60000610352</ele>
        <time>2021-04-05T13:27:26.000Z</time>
      </trkpt>
      <trkpt lat="46.52858" lon="5.45037">
        <ele>455.60000610352</ele>
        <time>2021-04-05T13:27:27.000Z</time>
      </trkpt>
      <trkpt lat="46.52868" lon="5.4503">
        <ele>454.79998779297</ele>
        <time>2021-04-05T13:27:28.000Z</time>
      </trkpt>
      <trkpt lat="46.52879" lon="5.45022">
        <ele>454.39999389648</ele>
        <time>2021-04-05T13:27:29.000Z</time>
      </trkpt>
      <trkpt lat="46.5289" lon="5.45015">
        <ele>453.60000610352</ele>
        <time>2021-04-05T13:27:30.000Z</time>
      </trkpt>
      <trkpt lat="46.52901" lon="5.45008">
        <ele>452.60000610352</ele>
        <time>2021-04-05T13:27:31.000Z</time>
      </trkpt>
      <trkpt lat="46.52922" lon="5.44995">
        <ele>451.20001220703</ele>
        <time>2021-04-05T13:27:33.000Z</time>
      </trkpt>
      <trkpt lat="46.52932" lon="5.44988">
        <ele>449.79998779297</ele>
        <time>2021-04-05T13:27:34.000Z</time>
      </trkpt>
      <trkpt lat="46.52942" lon="5.44981">
        <ele>448.79998779297</ele>
        <time>2021-04-05T13:27:35.000Z</time>
      </trkpt>
      <trkpt lat="46.52963" lon="5.44967">
        <ele>446.79998779297</ele>
        <time>2021-04-05T13:27:37.000Z</time>
      </trkpt>
      <trkpt lat="46.52973" lon="5.4496">
        <ele>445.79998779297</ele>
        <time>2021-04-05T13:27:38.000Z</time>
      </trkpt>
      <trkpt lat="46.52982" lon="5.44951">
        <ele>444.79998779297</ele>
        <time>2021-04-05T13:27:39.000Z</time>
      </trkpt>
      <trkpt lat="46.5299" lon="5.44939">
        <ele>444</ele>
        <time>2021-04-05T13:27:40.000Z</time>
      </trkpt>
      <trkpt lat="46.52998" lon="5.44926">
        <ele>443.20001220703</ele>
        <time>2021-04-05T13:27:41.000Z</time>
      </trkpt>
      <trkpt lat="46.53004" lon="5.44912">
        <ele>442.60000610352</ele>
        <time>2021-04-05T13:27:42.000Z</time>
      </trkpt>
      <trkpt lat="46.53008" lon="5.44896">
        <ele>442.20001220703</ele>
        <time>2021-04-05T13:27:43.000Z</time>
      </trkpt>
      <trkpt lat="46.53011" lon="5.44879">
        <ele>441.60000610352</ele>
        <time>2021-04-05T13:27:44.000Z</time>
      </trkpt>
      <trkpt lat="46.53012" lon="5.44861">
        <ele>441.20001220703</ele>
        <time>2021-04-05T13:27:45.000Z</time>
      </trkpt>
      <trkpt lat="46.5301" lon="5.44825">
        <ele>440.39999389648</ele>
        <time>2021-04-05T13:27:47.000Z</time>
      </trkpt>
      <trkpt lat="46.53008" lon="5.44808">
        <ele>440</ele>
        <time>2021-04-05T13:27:48.000Z</time>
      </trkpt>
      <trkpt lat="46.53005" lon="5.4479">
        <ele>439.39999389648</ele>
        <time>2021-04-05T13:27:49.000Z</time>
      </trkpt>
      <trkpt lat="46.53002" lon="5.44773">
        <ele>438.60000610352</ele>
        <time>2021-04-05T13:27:50.000Z</time>
      </trkpt>
      <trkpt lat="46.53" lon="5.44755">
        <ele>437.79998779297</ele>
        <time>2021-04-05T13:27:51.000Z</time>
      </trkpt>
      <trkpt lat="46.52997" lon="5.44737">
        <ele>436.60000610352</ele>
        <time>2021-04-05T13:27:52.000Z</time>
      </trkpt>
      <trkpt lat="46.52995" lon="5.44719">
        <ele>435.20001220703</ele>
        <time>2021-04-05T13:27:53.000Z</time>
      </trkpt>
      <trkpt lat="46.52993" lon="5.44702">
        <ele>433.39999389648</ele>
        <time>2021-04-05T13:27:54.000Z</time>
      </trkpt>
      <trkpt lat="46.52991" lon="5.44684">
        <ele>432.20001220703</ele>
        <time>2021-04-05T13:27:55.000Z</time>
      </trkpt>
      <trkpt lat="46.52987" lon="5.44649">
        <ele>430.60000610352</ele>
        <time>2021-04-05T13:27:57.000Z</time>
      </trkpt>
      <trkpt lat="46.52984" lon="5.44614">
        <ele>429.39999389648</ele>
        <time>2021-04-05T13:27:59.000Z</time>
      </trkpt>
      <trkpt lat="46.5298" lon="5.4458">
        <ele>427.79998779297</ele>
        <time>2021-04-05T13:28:01.000Z</time>
      </trkpt>
      <trkpt lat="46.52976" lon="5.44546">
        <ele>425.60000610352</ele>
        <time>2021-04-05T13:28:03.000Z</time>
      </trkpt>
      <trkpt lat="46.52973" lon="5.44512">
        <ele>424.60000610352</ele>
        <time>2021-04-05T13:28:05.000Z</time>
      </trkpt>
      <trkpt lat="46.5297" lon="5.44479">
        <ele>423.79998779297</ele>
        <time>2021-04-05T13:28:07.000Z</time>
      </trkpt>
      <trkpt lat="46.5297" lon="5.44462">
        <ele>423</ele>
        <time>2021-04-05T13:28:08.000Z</time>
      </trkpt>
      <trkpt lat="46.5297" lon="5.44446">
        <ele>422</ele>
        <time>2021-04-05T13:28:09.000Z</time>
      </trkpt>
      <trkpt lat="46.52972" lon="5.4443">
        <ele>421.20001220703</ele>
        <time>2021-04-05T13:28:10.000Z</time>
      </trkpt>
      <trkpt lat="46.52975" lon="5.44414">
        <ele>420.60000610352</ele>
        <time>2021-04-05T13:28:11.000Z</time>
      </trkpt>
      <trkpt lat="46.52979" lon="5.44399">
        <ele>420.39999389648</ele>
        <time>2021-04-05T13:28:12.000Z</time>
      </trkpt>
      <trkpt lat="46.52983" lon="5.44383">
        <ele>420</ele>
        <time>2021-04-05T13:28:13.000Z</time>
      </trkpt>
      <trkpt lat="46.52991" lon="5.44354">
        <ele>419.39999389648</ele>
        <time>2021-04-05T13:28:15.000Z</time>
      </trkpt>
      <trkpt lat="46.52995" lon="5.44339">
        <ele>418.79998779297</ele>
        <time>2021-04-05T13:28:16.000Z</time>
      </trkpt>
      <trkpt lat="46.52998" lon="5.44324">
        <ele>418.39999389648</ele>
        <time>2021-04-05T13:28:17.000Z</time>
      </trkpt>
      <trkpt lat="46.53007" lon="5.44294">
        <ele>417</ele>
        <time>2021-04-05T13:28:19.000Z</time>
      </trkpt>
      <trkpt lat="46.53012" lon="5.44279">
        <ele>416.20001220703</ele>
        <time>2021-04-05T13:28:20.000Z</time>
      </trkpt>
      <trkpt lat="46.53018" lon="5.44266">
        <ele>415.79998779297</ele>
        <time>2021-04-05T13:28:21.000Z</time>
      </trkpt>
      <trkpt lat="46.53035" lon="5.44244">
        <ele>415</ele>
        <time>2021-04-05T13:28:23.000Z</time>
      </trkpt>
      <trkpt lat="46.53045" lon="5.44235">
        <ele>414.60000610352</ele>
        <time>2021-04-05T13:28:24.000Z</time>
      </trkpt>
      <trkpt lat="46.53055" lon="5.44229">
        <ele>414.39999389648</ele>
        <time>2021-04-05T13:28:25.000Z</time>
      </trkpt>
      <trkpt lat="46.53066" lon="5.44222">
        <ele>414.20001220703</ele>
        <time>2021-04-05T13:28:26.000Z</time>
      </trkpt>
      <trkpt lat="46.53076" lon="5.44215">
        <ele>414</ele>
        <time>2021-04-05T13:28:27.000Z</time>
      </trkpt>
      <trkpt lat="46.53086" lon="5.44207">
        <ele>413.60000610352</ele>
        <time>2021-04-05T13:28:28.000Z</time>
      </trkpt>
      <trkpt lat="46.53095" lon="5.44198">
        <ele>413.60000610352</ele>
        <time>2021-04-05T13:28:29.000Z</time>
      </trkpt>
      <trkpt lat="46.53103" lon="5.44186">
        <ele>413.39999389648</ele>
        <time>2021-04-05T13:28:30.000Z</time>
      </trkpt>
      <trkpt lat="46.5311" lon="5.44173">
        <ele>413.20001220703</ele>
        <time>2021-04-05T13:28:31.000Z</time>
      </trkpt>
      <trkpt lat="46.53115" lon="5.44159">
        <ele>412.39999389648</ele>
        <time>2021-04-05T13:28:32.000Z</time>
      </trkpt>
      <trkpt lat="46.53118" lon="5.44144">
        <ele>411.79998779297</ele>
        <time>2021-04-05T13:28:33.000Z</time>
      </trkpt>
      <trkpt lat="46.53119" lon="5.44128">
        <ele>411</ele>
        <time>2021-04-05T13:28:34.000Z</time>
      </trkpt>
      <trkpt lat="46.53118" lon="5.44112">
        <ele>410.39999389648</ele>
        <time>2021-04-05T13:28:35.000Z</time>
      </trkpt>
      <trkpt lat="46.53116" lon="5.44096">
        <ele>409.60000610352</ele>
        <time>2021-04-05T13:28:36.000Z</time>
      </trkpt>
      <trkpt lat="46.5311" lon="5.44081">
        <ele>409</ele>
        <time>2021-04-05T13:28:37.000Z</time>
      </trkpt>
      <trkpt lat="46.53103" lon="5.44066">
        <ele>408.60000610352</ele>
        <time>2021-04-05T13:28:38.000Z</time>
      </trkpt>
      <trkpt lat="46.53096" lon="5.44051">
        <ele>408.39999389648</ele>
        <time>2021-04-05T13:28:39.000Z</time>
      </trkpt>
      <trkpt lat="46.53088" lon="5.44037">
        <ele>408</ele>
        <time>2021-04-05T13:28:40.000Z</time>
      </trkpt>
      <trkpt lat="46.53081" lon="5.44023">
        <ele>407.20001220703</ele>
        <time>2021-04-05T13:28:41.000Z</time>
      </trkpt>
      <trkpt lat="46.53066" lon="5.43994">
        <ele>405.79998779297</ele>
        <time>2021-04-05T13:28:43.000Z</time>
      </trkpt>
      <trkpt lat="46.53059" lon="5.43981">
        <ele>405.60000610352</ele>
        <time>2021-04-05T13:28:44.000Z</time>
      </trkpt>
      <trkpt lat="46.53044" lon="5.43952">
        <ele>404.79998779297</ele>
        <time>2021-04-05T13:28:46.000Z</time>
      </trkpt>
      <trkpt lat="46.5303" lon="5.43924">
        <ele>402.79998779297</ele>
        <time>2021-04-05T13:28:48.000Z</time>
      </trkpt>
      <trkpt lat="46.53023" lon="5.4391">
        <ele>401.79998779297</ele>
        <time>2021-04-05T13:28:49.000Z</time>
      </trkpt>
      <trkpt lat="46.53009" lon="5.43882">
        <ele>400</ele>
        <time>2021-04-05T13:28:51.000Z</time>
      </trkpt>
      <trkpt lat="46.52996" lon="5.43853">
        <ele>398.39999389648</ele>
        <time>2021-04-05T13:28:53.000Z</time>
      </trkpt>
      <trkpt lat="46.5299" lon="5.43837">
        <ele>398</ele>
        <time>2021-04-05T13:28:54.000Z</time>
      </trkpt>
      <trkpt lat="46.52987" lon="5.4382">
        <ele>397.20001220703</ele>
        <time>2021-04-05T13:28:55.000Z</time>
      </trkpt>
      <trkpt lat="46.52987" lon="5.43802">
        <ele>396.20001220703</ele>
        <time>2021-04-05T13:28:56.000Z</time>
      </trkpt>
      <trkpt lat="46.5299" lon="5.43785">
        <ele>395.39999389648</ele>
        <time>2021-04-05T13:28:57.000Z</time>
      </trkpt>
      <trkpt lat="46.52995" lon="5.43767">
        <ele>395</ele>
        <time>2021-04-05T13:28:58.000Z</time>
      </trkpt>
      <trkpt lat="46.53" lon="5.43751">
        <ele>394.60000610352</ele>
        <time>2021-04-05T13:28:59.000Z</time>
      </trkpt>
      <trkpt lat="46.53011" lon="5.43717">
        <ele>394</ele>
        <time>2021-04-05T13:29:01.000Z</time>
      </trkpt>
      <trkpt lat="46.53016" lon="5.437">
        <ele>393.39999389648</ele>
        <time>2021-04-05T13:29:02.000Z</time>
      </trkpt>
      <trkpt lat="46.5302" lon="5.43682">
        <ele>392.20001220703</ele>
        <time>2021-04-05T13:29:03.000Z</time>
      </trkpt>
      <trkpt lat="46.53023" lon="5.43664">
        <ele>390.60000610352</ele>
        <time>2021-04-05T13:29:04.000Z</time>
      </trkpt>
      <trkpt lat="46.53025" lon="5.43644">
        <ele>389.60000610352</ele>
        <time>2021-04-05T13:29:05.000Z</time>
      </trkpt>
      <trkpt lat="46.53027" lon="5.43606">
        <ele>387.79998779297</ele>
        <time>2021-04-05T13:29:07.000Z</time>
      </trkpt>
      <trkpt lat="46.53028" lon="5.43569">
        <ele>386.20001220703</ele>
        <time>2021-04-05T13:29:09.000Z</time>
      </trkpt>
      <trkpt lat="46.53029" lon="5.43551">
        <ele>385.60000610352</ele>
        <time>2021-04-05T13:29:10.000Z</time>
      </trkpt>
      <trkpt lat="46.5303" lon="5.43534">
        <ele>385.20001220703</ele>
        <time>2021-04-05T13:29:11.000Z</time>
      </trkpt>
      <trkpt lat="46.53031" lon="5.43503">
        <ele>384.20001220703</ele>
        <time>2021-04-05T13:29:13.000Z</time>
      </trkpt>
      <trkpt lat="46.53032" lon="5.43488">
        <ele>383.39999389648</ele>
        <time>2021-04-05T13:29:14.000Z</time>
      </trkpt>
      <trkpt lat="46.53033" lon="5.43474">
        <ele>382.39999389648</ele>
        <time>2021-04-05T13:29:15.000Z</time>
      </trkpt>
      <trkpt lat="46.53034" lon="5.43448">
        <ele>381.60000610352</ele>
        <time>2021-04-05T13:29:17.000Z</time>
      </trkpt>
      <trkpt lat="46.53035" lon="5.43423">
        <ele>381.39999389648</ele>
        <time>2021-04-05T13:29:19.000Z</time>
      </trkpt>
      <trkpt lat="46.53035" lon="5.4341">
        <ele>381.20001220703</ele>
        <time>2021-04-05T13:29:20.000Z</time>
      </trkpt>
      <trkpt lat="46.53036" lon="5.43398">
        <ele>381.20001220703</ele>
        <time>2021-04-05T13:29:21.000Z</time>
      </trkpt>
      <trkpt lat="46.53036" lon="5.43374">
        <ele>381.20001220703</ele>
        <time>2021-04-05T13:29:23.000Z</time>
      </trkpt>
      <trkpt lat="46.53037" lon="5.43351">
        <ele>381.60000610352</ele>
        <time>2021-04-05T13:29:25.000Z</time>
      </trkpt>
      <trkpt lat="46.53039" lon="5.43329">
        <ele>382.20001220703</ele>
        <time>2021-04-05T13:29:27.000Z</time>
      </trkpt>
      <trkpt lat="46.53039" lon="5.43318">
        <ele>382.60000610352</ele>
        <time>2021-04-05T13:29:28.000Z</time>
      </trkpt>
      <trkpt lat="46.5304" lon="5.43308">
        <ele>382.79998779297</ele>
        <time>2021-04-05T13:29:29.000Z</time>
      </trkpt>
      <trkpt lat="46.53042" lon="5.43298">
        <ele>383</ele>
        <time>2021-04-05T13:29:30.000Z</time>
      </trkpt>
      <trkpt lat="46.53044" lon="5.43289">
        <ele>383.20001220703</ele>
        <time>2021-04-05T13:29:31.000Z</time>
      </trkpt>
      <trkpt lat="46.53051" lon="5.43274">
        <ele>383.39999389648</ele>
        <time>2021-04-05T13:29:33.000Z</time>
      </trkpt>
      <trkpt lat="46.53056" lon="5.43269">
        <ele>383.60000610352</ele>
        <time>2021-04-05T13:29:34.000Z</time>
      </trkpt>
      <trkpt lat="46.53061" lon="5.43265">
        <ele>383.60000610352</ele>
        <time>2021-04-05T13:29:35.000Z</time>
      </trkpt>
      <trkpt lat="46.53066" lon="5.43262">
        <ele>383.79998779297</ele>
        <time>2021-04-05T13:29:36.000Z</time>
      </trkpt>
      <trkpt lat="46.53071" lon="5.43262">
        <ele>383.79998779297</ele>
        <time>2021-04-05T13:29:37.000Z</time>
      </trkpt>
      <trkpt lat="46.53081" lon="5.43262">
        <ele>384.39999389648</ele>
        <time>2021-04-05T13:29:39.000Z</time>
      </trkpt>
      <trkpt lat="46.53086" lon="5.43263">
        <ele>384.79998779297</ele>
        <time>2021-04-05T13:29:40.000Z</time>
      </trkpt>
      <trkpt lat="46.53091" lon="5.43264">
        <ele>385.39999389648</ele>
        <time>2021-04-05T13:29:41.000Z</time>
      </trkpt>
      <trkpt lat="46.53102" lon="5.43267">
        <ele>386.20001220703</ele>
        <time>2021-04-05T13:29:43.000Z</time>
      </trkpt>
      <trkpt lat="46.53112" lon="5.4327">
        <ele>387.39999389648</ele>
        <time>2021-04-05T13:29:45.000Z</time>
      </trkpt>
      <trkpt lat="46.53123" lon="5.43273">
        <ele>388.39999389648</ele>
        <time>2021-04-05T13:29:47.000Z</time>
      </trkpt>
      <trkpt lat="46.53133" lon="5.43276">
        <ele>389</ele>
        <time>2021-04-05T13:29:49.000Z</time>
      </trkpt>
      <trkpt lat="46.53143" lon="5.43279">
        <ele>389.79998779297</ele>
        <time>2021-04-05T13:29:51.000Z</time>
      </trkpt>
      <trkpt lat="46.53152" lon="5.43282">
        <ele>390.39999389648</ele>
        <time>2021-04-05T13:29:53.000Z</time>
      </trkpt>
      <trkpt lat="46.53162" lon="5.43285">
        <ele>390.79998779297</ele>
        <time>2021-04-05T13:29:55.000Z</time>
      </trkpt>
      <trkpt lat="46.53167" lon="5.43286">
        <ele>391</ele>
        <time>2021-04-05T13:29:56.000Z</time>
      </trkpt>
      <trkpt lat="46.53172" lon="5.43287">
        <ele>391</ele>
        <time>2021-04-05T13:29:57.000Z</time>
      </trkpt>
      <trkpt lat="46.53182" lon="5.43289">
        <ele>391.60000610352</ele>
        <time>2021-04-05T13:29:59.000Z</time>
      </trkpt>
      <trkpt lat="46.53187" lon="5.43289">
        <ele>392</ele>
        <time>2021-04-05T13:30:00.000Z</time>
      </trkpt>
      <trkpt lat="46.53193" lon="5.4329">
        <ele>392.39999389648</ele>
        <time>2021-04-05T13:30:01.000Z</time>
      </trkpt>
      <trkpt lat="46.53203" lon="5.43291">
        <ele>393.20001220703</ele>
        <time>2021-04-05T13:30:03.000Z</time>
      </trkpt>
      <trkpt lat="46.53214" lon="5.43295">
        <ele>394</ele>
        <time>2021-04-05T13:30:05.000Z</time>
      </trkpt>
      <trkpt lat="46.53219" lon="5.43297">
        <ele>394.39999389648</ele>
        <time>2021-04-05T13:30:06.000Z</time>
      </trkpt>
      <trkpt lat="46.53224" lon="5.433">
        <ele>394.60000610352</ele>
        <time>2021-04-05T13:30:07.000Z</time>
      </trkpt>
      <trkpt lat="46.53234" lon="5.43305">
        <ele>395.20001220703</ele>
        <time>2021-04-05T13:30:09.000Z</time>
      </trkpt>
      <trkpt lat="46.53244" lon="5.43312">
        <ele>395.60000610352</ele>
        <time>2021-04-05T13:30:11.000Z</time>
      </trkpt>
      <trkpt lat="46.53253" lon="5.43317">
        <ele>396</ele>
        <time>2021-04-05T13:30:13.000Z</time>
      </trkpt>
      <trkpt lat="46.53263" lon="5.43322">
        <ele>396.79998779297</ele>
        <time>2021-04-05T13:30:15.000Z</time>
      </trkpt>
      <trkpt lat="46.53272" lon="5.43327">
        <ele>397.39999389648</ele>
        <time>2021-04-05T13:30:17.000Z</time>
      </trkpt>
      <trkpt lat="46.53277" lon="5.43329">
        <ele>397.79998779297</ele>
        <time>2021-04-05T13:30:18.000Z</time>
      </trkpt>
      <trkpt lat="46.53281" lon="5.43331">
        <ele>398.20001220703</ele>
        <time>2021-04-05T13:30:19.000Z</time>
      </trkpt>
      <trkpt lat="46.53291" lon="5.43335">
        <ele>399</ele>
        <time>2021-04-05T13:30:21.000Z</time>
      </trkpt>
      <trkpt lat="46.53295" lon="5.43337">
        <ele>399.39999389648</ele>
        <time>2021-04-05T13:30:22.000Z</time>
      </trkpt>
      <trkpt lat="46.533" lon="5.43339">
        <ele>399.79998779297</ele>
        <time>2021-04-05T13:30:23.000Z</time>
      </trkpt>
      <trkpt lat="46.53308" lon="5.43342">
        <ele>400.39999389648</ele>
        <time>2021-04-05T13:30:25.000Z</time>
      </trkpt>
      <trkpt lat="46.53312" lon="5.43343">
        <ele>400.79998779297</ele>
        <time>2021-04-05T13:30:26.000Z</time>
      </trkpt>
      <trkpt lat="46.53317" lon="5.43345">
        <ele>401</ele>
        <time>2021-04-05T13:30:27.000Z</time>
      </trkpt>
      <trkpt lat="46.53324" lon="5.43347">
        <ele>402</ele>
        <time>2021-04-05T13:30:29.000Z</time>
      </trkpt>
      <trkpt lat="46.53332" lon="5.43349">
        <ele>402.79998779297</ele>
        <time>2021-04-05T13:30:31.000Z</time>
      </trkpt>
      <trkpt lat="46.53336" lon="5.4335">
        <ele>403.39999389648</ele>
        <time>2021-04-05T13:30:32.000Z</time>
      </trkpt>
      <trkpt lat="46.5334" lon="5.43351">
        <ele>403.79998779297</ele>
        <time>2021-04-05T13:30:33.000Z</time>
      </trkpt>
      <trkpt lat="46.53349" lon="5.43353">
        <ele>404.39999389648</ele>
        <time>2021-04-05T13:30:35.000Z</time>
      </trkpt>
      <trkpt lat="46.53357" lon="5.43354">
        <ele>405</ele>
        <time>2021-04-05T13:30:37.000Z</time>
      </trkpt>
      <trkpt lat="46.53365" lon="5.43355">
        <ele>405.39999389648</ele>
        <time>2021-04-05T13:30:39.000Z</time>
      </trkpt>
      <trkpt lat="46.53369" lon="5.43356">
        <ele>405.79998779297</ele>
        <time>2021-04-05T13:30:40.000Z</time>
      </trkpt>
      <trkpt lat="46.53373" lon="5.43357">
        <ele>406</ele>
        <time>2021-04-05T13:30:41.000Z</time>
      </trkpt>
      <trkpt lat="46.53377" lon="5.43358">
        <ele>406</ele>
        <time>2021-04-05T13:30:42.000Z</time>
      </trkpt>
      <trkpt lat="46.53381" lon="5.43359">
        <ele>406.20001220703</ele>
        <time>2021-04-05T13:30:43.000Z</time>
      </trkpt>
      <trkpt lat="46.53389" lon="5.43361">
        <ele>406.79998779297</ele>
        <time>2021-04-05T13:30:45.000Z</time>
      </trkpt>
      <trkpt lat="46.53397" lon="5.43362">
        <ele>407.20001220703</ele>
        <time>2021-04-05T13:30:47.000Z</time>
      </trkpt>
      <trkpt lat="46.53405" lon="5.43363">
        <ele>407.79998779297</ele>
        <time>2021-04-05T13:30:49.000Z</time>
      </trkpt>
      <trkpt lat="46.53409" lon="5.43363">
        <ele>408</ele>
        <time>2021-04-05T13:30:50.000Z</time>
      </trkpt>
      <trkpt lat="46.53413" lon="5.43363">
        <ele>408.20001220703</ele>
        <time>2021-04-05T13:30:51.000Z</time>
      </trkpt>
      <trkpt lat="46.53421" lon="5.43359">
        <ele>408.60000610352</ele>
        <time>2021-04-05T13:30:53.000Z</time>
      </trkpt>
      <trkpt lat="46.53424" lon="5.43356">
        <ele>409.20001220703</ele>
        <time>2021-04-05T13:30:54.000Z</time>
      </trkpt>
      <trkpt lat="46.53427" lon="5.43352">
        <ele>409.39999389648</ele>
        <time>2021-04-05T13:30:55.000Z</time>
      </trkpt>
      <trkpt lat="46.53431" lon="5.43343">
        <ele>410.20001220703</ele>
        <time>2021-04-05T13:30:57.000Z</time>
      </trkpt>
      <trkpt lat="46.53432" lon="5.43338">
        <ele>410.39999389648</ele>
        <time>2021-04-05T13:30:58.000Z</time>
      </trkpt>
      <trkpt lat="46.53432" lon="5.43333">
        <ele>410.60000610352</ele>
        <time>2021-04-05T13:30:59.000Z</time>
      </trkpt>
      <trkpt lat="46.53431" lon="5.43325">
        <ele>411.20001220703</ele>
        <time>2021-04-05T13:31:01.000Z</time>
      </trkpt>
      <trkpt lat="46.53429" lon="5.43318">
        <ele>411.60000610352</ele>
        <time>2021-04-05T13:31:03.000Z</time>
      </trkpt>
      <trkpt lat="46.53428" lon="5.43314">
        <ele>412</ele>
        <time>2021-04-05T13:31:04.000Z</time>
      </trkpt>
      <trkpt lat="46.53427" lon="5.43311">
        <ele>412.20001220703</ele>
        <time>2021-04-05T13:31:05.000Z</time>
      </trkpt>
      <trkpt lat="46.53424" lon="5.43304">
        <ele>412.60000610352</ele>
        <time>2021-04-05T13:31:07.000Z</time>
      </trkpt>
      <trkpt lat="46.53422" lon="5.43297">
        <ele>412.79998779297</ele>
        <time>2021-04-05T13:31:09.000Z</time>
      </trkpt>
      <trkpt lat="46.53421" lon="5.43293">
        <ele>412.79998779297</ele>
        <time>2021-04-05T13:31:10.000Z</time>
      </trkpt>
      <trkpt lat="46.5342" lon="5.4329">
        <ele>413</ele>
        <time>2021-04-05T13:31:11.000Z</time>
      </trkpt>
      <trkpt lat="46.53419" lon="5.43282">
        <ele>413.20001220703</ele>
        <time>2021-04-05T13:31:13.000Z</time>
      </trkpt>
      <trkpt lat="46.53419" lon="5.43275">
        <ele>413.39999389648</ele>
        <time>2021-04-05T13:31:15.000Z</time>
      </trkpt>
      <trkpt lat="46.53419" lon="5.43267">
        <ele>413.60000610352</ele>
        <time>2021-04-05T13:31:17.000Z</time>
      </trkpt>
      <trkpt lat="46.53419" lon="5.43263">
        <ele>413.60000610352</ele>
        <time>2021-04-05T13:31:18.000Z</time>
      </trkpt>
      <trkpt lat="46.53419" lon="5.43259">
        <ele>413.79998779297</ele>
        <time>2021-04-05T13:31:19.000Z</time>
      </trkpt>
      <trkpt lat="46.5342" lon="5.4325">
        <ele>414.20001220703</ele>
        <time>2021-04-05T13:31:21.000Z</time>
      </trkpt>
      <trkpt lat="46.53421" lon="5.43242">
        <ele>414.79998779297</ele>
        <time>2021-04-05T13:31:23.000Z</time>
      </trkpt>
      <trkpt lat="46.53422" lon="5.43234">
        <ele>415.39999389648</ele>
        <time>2021-04-05T13:31:25.000Z</time>
      </trkpt>
      <trkpt lat="46.53423" lon="5.4323">
        <ele>415.60000610352</ele>
        <time>2021-04-05T13:31:26.000Z</time>
      </trkpt>
      <trkpt lat="46.53423" lon="5.43226">
        <ele>415.60000610352</ele>
        <time>2021-04-05T13:31:27.000Z</time>
      </trkpt>
      <trkpt lat="46.53424" lon="5.43218">
        <ele>415.79998779297</ele>
        <time>2021-04-05T13:31:29.000Z</time>
      </trkpt>
      <trkpt lat="46.53424" lon="5.43209">
        <ele>416.20001220703</ele>
        <time>2021-04-05T13:31:31.000Z</time>
      </trkpt>
      <trkpt lat="46.53425" lon="5.43199">
        <ele>416.60000610352</ele>
        <time>2021-04-05T13:31:33.000Z</time>
      </trkpt>
      <trkpt lat="46.53425" lon="5.43195">
        <ele>416.79998779297</ele>
        <time>2021-04-05T13:31:34.000Z</time>
      </trkpt>
      <trkpt lat="46.53425" lon="5.4319">
        <ele>416.79998779297</ele>
        <time>2021-04-05T13:31:35.000Z</time>
      </trkpt>
      <trkpt lat="46.53426" lon="5.4318">
        <ele>417.20001220703</ele>
        <time>2021-04-05T13:31:37.000Z</time>
      </trkpt>
      <trkpt lat="46.53427" lon="5.4317">
        <ele>417.60000610352</ele>
        <time>2021-04-05T13:31:39.000Z</time>
      </trkpt>
      <trkpt lat="46.53428" lon="5.43164">
        <ele>417.60000610352</ele>
        <time>2021-04-05T13:31:40.000Z</time>
      </trkpt>
      <trkpt lat="46.53428" lon="5.43159">
        <ele>417.60000610352</ele>
        <time>2021-04-05T13:31:41.000Z</time>
      </trkpt>
      <trkpt lat="46.53429" lon="5.43148">
        <ele>417.79998779297</ele>
        <time>2021-04-05T13:31:43.000Z</time>
      </trkpt>
      <trkpt lat="46.5343" lon="5.43137">
        <ele>418.20001220703</ele>
        <time>2021-04-05T13:31:45.000Z</time>
      </trkpt>
      <trkpt lat="46.53431" lon="5.43125">
        <ele>418.20001220703</ele>
        <time>2021-04-05T13:31:47.000Z</time>
      </trkpt>
      <trkpt lat="46.53432" lon="5.43113">
        <ele>418.20001220703</ele>
        <time>2021-04-05T13:31:49.000Z</time>
      </trkpt>
      <trkpt lat="46.53432" lon="5.43102">
        <ele>418.39999389648</ele>
        <time>2021-04-05T13:31:51.000Z</time>
      </trkpt>
      <trkpt lat="46.53434" lon="5.4309">
        <ele>418.39999389648</ele>
        <time>2021-04-05T13:31:53.000Z</time>
      </trkpt>
      <trkpt lat="46.53435" lon="5.43079">
        <ele>418.60000610352</ele>
        <time>2021-04-05T13:31:55.000Z</time>
      </trkpt>
      <trkpt lat="46.53435" lon="5.43067">
        <ele>418.60000610352</ele>
        <time>2021-04-05T13:31:57.000Z</time>
      </trkpt>
      <trkpt lat="46.53436" lon="5.43056">
        <ele>418.79998779297</ele>
        <time>2021-04-05T13:31:59.000Z</time>
      </trkpt>
      <trkpt lat="46.53437" lon="5.4305">
        <ele>418.79998779297</ele>
        <time>2021-04-05T13:32:00.000Z</time>
      </trkpt>
      <trkpt lat="46.53437" lon="5.43044">
        <ele>419</ele>
        <time>2021-04-05T13:32:01.000Z</time>
      </trkpt>
      <trkpt lat="46.53438" lon="5.43032">
        <ele>419.39999389648</ele>
        <time>2021-04-05T13:32:03.000Z</time>
      </trkpt>
      <trkpt lat="46.53439" lon="5.43021">
        <ele>419.39999389648</ele>
        <time>2021-04-05T13:32:05.000Z</time>
      </trkpt>
      <trkpt lat="46.5344" lon="5.4301">
        <ele>419.60000610352</ele>
        <time>2021-04-05T13:32:07.000Z</time>
      </trkpt>
      <trkpt lat="46.5344" lon="5.42998">
        <ele>419.60000610352</ele>
        <time>2021-04-05T13:32:09.000Z</time>
      </trkpt>
      <trkpt lat="46.53441" lon="5.42987">
        <ele>419.79998779297</ele>
        <time>2021-04-05T13:32:11.000Z</time>
      </trkpt>
      <trkpt lat="46.53442" lon="5.42981">
        <ele>420</ele>
        <time>2021-04-05T13:32:12.000Z</time>
      </trkpt>
      <trkpt lat="46.53442" lon="5.42976">
        <ele>420.20001220703</ele>
        <time>2021-04-05T13:32:13.000Z</time>
      </trkpt>
      <trkpt lat="46.53443" lon="5.42964">
        <ele>420.60000610352</ele>
        <time>2021-04-05T13:32:15.000Z</time>
      </trkpt>
      <trkpt lat="46.53444" lon="5.42953">
        <ele>420.79998779297</ele>
        <time>2021-04-05T13:32:17.000Z</time>
      </trkpt>
      <trkpt lat="46.53445" lon="5.42947">
        <ele>421</ele>
        <time>2021-04-05T13:32:18.000Z</time>
      </trkpt>
      <trkpt lat="46.53445" lon="5.42942">
        <ele>421.20001220703</ele>
        <time>2021-04-05T13:32:19.000Z</time>
      </trkpt>
      <trkpt lat="46.53445" lon="5.42936">
        <ele>421.39999389648</ele>
        <time>2021-04-05T13:32:20.000Z</time>
      </trkpt>
      <trkpt lat="46.53446" lon="5.42931">
        <ele>421.79998779297</ele>
        <time>2021-04-05T13:32:21.000Z</time>
      </trkpt>
      <trkpt lat="46.53447" lon="5.4292">
        <ele>422.39999389648</ele>
        <time>2021-04-05T13:32:23.000Z</time>
      </trkpt>
      <trkpt lat="46.53447" lon="5.42909">
        <ele>422.60000610352</ele>
        <time>2021-04-05T13:32:25.000Z</time>
      </trkpt>
      <trkpt lat="46.53448" lon="5.42898">
        <ele>423</ele>
        <time>2021-04-05T13:32:27.000Z</time>
      </trkpt>
      <trkpt lat="46.53448" lon="5.42888">
        <ele>423.20001220703</ele>
        <time>2021-04-05T13:32:29.000Z</time>
      </trkpt>
      <trkpt lat="46.53447" lon="5.42877">
        <ele>423.20001220703</ele>
        <time>2021-04-05T13:32:31.000Z</time>
      </trkpt>
      <trkpt lat="46.53447" lon="5.42872">
        <ele>423.60000610352</ele>
        <time>2021-04-05T13:32:32.000Z</time>
      </trkpt>
      <trkpt lat="46.53447" lon="5.42866">
        <ele>423.79998779297</ele>
        <time>2021-04-05T13:32:33.000Z</time>
      </trkpt>
      <trkpt lat="46.53447" lon="5.42856">
        <ele>424</ele>
        <time>2021-04-05T13:32:35.000Z</time>
      </trkpt>
      <trkpt lat="46.53447" lon="5.42846">
        <ele>424.39999389648</ele>
        <time>2021-04-05T13:32:37.000Z</time>
      </trkpt>
      <trkpt lat="46.53446" lon="5.42835">
        <ele>424.39999389648</ele>
        <time>2021-04-05T13:32:39.000Z</time>
      </trkpt>
      <trkpt lat="46.53446" lon="5.4283">
        <ele>424.79998779297</ele>
        <time>2021-04-05T13:32:40.000Z</time>
      </trkpt>
      <trkpt lat="46.53446" lon="5.42824">
        <ele>425.20001220703</ele>
        <time>2021-04-05T13:32:41.000Z</time>
      </trkpt>
      <trkpt lat="46.53445" lon="5.42814">
        <ele>426</ele>
        <time>2021-04-05T13:32:43.000Z</time>
      </trkpt>
      <trkpt lat="46.53445" lon="5.42804">
        <ele>426.39999389648</ele>
        <time>2021-04-05T13:32:45.000Z</time>
      </trkpt>
      <trkpt lat="46.53444" lon="5.42799">
        <ele>426.79998779297</ele>
        <time>2021-04-05T13:32:46.000Z</time>
      </trkpt>
      <trkpt lat="46.53444" lon="5.42793">
        <ele>427.20001220703</ele>
        <time>2021-04-05T13:32:47.000Z</time>
      </trkpt>
      <trkpt lat="46.53444" lon="5.42784">
        <ele>427.79998779297</ele>
        <time>2021-04-05T13:32:49.000Z</time>
      </trkpt>
      <trkpt lat="46.53443" lon="5.42774">
        <ele>428</ele>
        <time>2021-04-05T13:32:51.000Z</time>
      </trkpt>
      <trkpt lat="46.53443" lon="5.4277">
        <ele>428.20001220703</ele>
        <time>2021-04-05T13:32:52.000Z</time>
      </trkpt>
      <trkpt lat="46.53443" lon="5.42767">
        <ele>428.39999389648</ele>
        <time>2021-04-05T13:32:53.000Z</time>
      </trkpt>
      <trkpt lat="46.53443" lon="5.42763">
        <ele>428.79998779297</ele>
        <time>2021-04-05T13:32:55.000Z</time>
      </trkpt>
      <trkpt lat="46.53444" lon="5.42759">
        <ele>429</ele>
        <time>2021-04-05T13:32:57.000Z</time>
      </trkpt>
      <trkpt lat="46.53444" lon="5.42756">
        <ele>429.20001220703</ele>
        <time>2021-04-05T13:32:58.000Z</time>
      </trkpt>
      <trkpt lat="46.53446" lon="5.42753">
        <ele>429.20001220703</ele>
        <time>2021-04-05T13:32:59.000Z</time>
      </trkpt>
      <trkpt lat="46.53448" lon="5.42752">
        <ele>429.39999389648</ele>
        <time>2021-04-05T13:33:00.000Z</time>
      </trkpt>
      <trkpt lat="46.5345" lon="5.42751">
        <ele>429.60000610352</ele>
        <time>2021-04-05T13:33:01.000Z</time>
      </trkpt>
      <trkpt lat="46.53452" lon="5.42752">
        <ele>429.79998779297</ele>
        <time>2021-04-05T13:33:02.000Z</time>
      </trkpt>
      <trkpt lat="46.53454" lon="5.42754">
        <ele>430</ele>
        <time>2021-04-05T13:33:03.000Z</time>
      </trkpt>
      <trkpt lat="46.53459" lon="5.42756">
        <ele>430.20001220703</ele>
        <time>2021-04-05T13:33:05.000Z</time>
      </trkpt>
      <trkpt lat="46.53461" lon="5.42756">
        <ele>430.39999389648</ele>
        <time>2021-04-05T13:33:06.000Z</time>
      </trkpt>
      <trkpt lat="46.53464" lon="5.42755">
        <ele>430.60000610352</ele>
        <time>2021-04-05T13:33:07.000Z</time>
      </trkpt>
      <trkpt lat="46.53468" lon="5.42751">
        <ele>431</ele>
        <time>2021-04-05T13:33:09.000Z</time>
      </trkpt>
      <trkpt lat="46.53472" lon="5.42746">
        <ele>431.79998779297</ele>
        <time>2021-04-05T13:33:11.000Z</time>
      </trkpt>
      <trkpt lat="46.53476" lon="5.42739">
        <ele>432.60000610352</ele>
        <time>2021-04-05T13:33:13.000Z</time>
      </trkpt>
      <trkpt lat="46.53478" lon="5.42736">
        <ele>433</ele>
        <time>2021-04-05T13:33:14.000Z</time>
      </trkpt>
      <trkpt lat="46.5348" lon="5.42732">
        <ele>433.20001220703</ele>
        <time>2021-04-05T13:33:15.000Z</time>
      </trkpt>
      <trkpt lat="46.53484" lon="5.42725">
        <ele>433.60000610352</ele>
        <time>2021-04-05T13:33:17.000Z</time>
      </trkpt>
      <trkpt lat="46.53487" lon="5.42722">
        <ele>434</ele>
        <time>2021-04-05T13:33:18.000Z</time>
      </trkpt>
      <trkpt lat="46.53489" lon="5.42719">
        <ele>434.39999389648</ele>
        <time>2021-04-05T13:33:19.000Z</time>
      </trkpt>
      <trkpt lat="46.53491" lon="5.42716">
        <ele>434.60000610352</ele>
        <time>2021-04-05T13:33:20.000Z</time>
      </trkpt>
      <trkpt lat="46.53494" lon="5.42712">
        <ele>435.39999389648</ele>
        <time>2021-04-05T13:33:21.000Z</time>
      </trkpt>
      <trkpt lat="46.53498" lon="5.42705">
        <ele>436</ele>
        <time>2021-04-05T13:33:23.000Z</time>
      </trkpt>
      <trkpt lat="46.535" lon="5.42701">
        <ele>436.39999389648</ele>
        <time>2021-04-05T13:33:24.000Z</time>
      </trkpt>
      <trkpt lat="46.53502" lon="5.42698">
        <ele>436.60000610352</ele>
        <time>2021-04-05T13:33:25.000Z</time>
      </trkpt>
      <trkpt lat="46.53506" lon="5.42691">
        <ele>436.79998779297</ele>
        <time>2021-04-05T13:33:27.000Z</time>
      </trkpt>
      <trkpt lat="46.53509" lon="5.42684">
        <ele>437.20001220703</ele>
        <time>2021-04-05T13:33:29.000Z</time>
      </trkpt>
      <trkpt lat="46.53511" lon="5.42677">
        <ele>437.39999389648</ele>
        <time>2021-04-05T13:33:31.000Z</time>
      </trkpt>
      <trkpt lat="46.53514" lon="5.4267">
        <ele>438</ele>
        <time>2021-04-05T13:33:33.000Z</time>
      </trkpt>
      <trkpt lat="46.53516" lon="5.42663">
        <ele>438.60000610352</ele>
        <time>2021-04-05T13:33:35.000Z</time>
      </trkpt>
      <trkpt lat="46.53517" lon="5.4266">
        <ele>438.79998779297</ele>
        <time>2021-04-05T13:33:36.000Z</time>
      </trkpt>
      <trkpt lat="46.53518" lon="5.42656">
        <ele>439</ele>
        <time>2021-04-05T13:33:37.000Z</time>
      </trkpt>
      <trkpt lat="46.5352" lon="5.42649">
        <ele>439.20001220703</ele>
        <time>2021-04-05T13:33:39.000Z</time>
      </trkpt>
      <trkpt lat="46.53522" lon="5.42642">
        <ele>440</ele>
        <time>2021-04-05T13:33:41.000Z</time>
      </trkpt>
      <trkpt lat="46.53524" lon="5.42636">
        <ele>440.60000610352</ele>
        <time>2021-04-05T13:33:43.000Z</time>
      </trkpt>
      <trkpt lat="46.53526" lon="5.42629">
        <ele>441.20001220703</ele>
        <time>2021-04-05T13:33:45.000Z</time>
      </trkpt>
      <trkpt lat="46.53528" lon="5.42622">
        <ele>441.39999389648</ele>
        <time>2021-04-05T13:33:47.000Z</time>
      </trkpt>
      <trkpt lat="46.5353" lon="5.42616">
        <ele>442</ele>
        <time>2021-04-05T13:33:49.000Z</time>
      </trkpt>
      <trkpt lat="46.5353" lon="5.42613">
        <ele>442.39999389648</ele>
        <time>2021-04-05T13:33:50.000Z</time>
      </trkpt>
      <trkpt lat="46.53531" lon="5.42609">
        <ele>442.79998779297</ele>
        <time>2021-04-05T13:33:51.000Z</time>
      </trkpt>
      <trkpt lat="46.53532" lon="5.42606">
        <ele>443</ele>
        <time>2021-04-05T13:33:52.000Z</time>
      </trkpt>
      <trkpt lat="46.53534" lon="5.42599">
        <ele>443.60000610352</ele>
        <time>2021-04-05T13:33:54.000Z</time>
      </trkpt>
      <trkpt lat="46.53536" lon="5.42589">
        <ele>444.20001220703</ele>
        <time>2021-04-05T13:33:57.000Z</time>
      </trkpt>
      <trkpt lat="46.53537" lon="5.42582">
        <ele>444.39999389648</ele>
        <time>2021-04-05T13:33:59.000Z</time>
      </trkpt>
      <trkpt lat="46.53537" lon="5.42579">
        <ele>444.79998779297</ele>
        <time>2021-04-05T13:34:00.000Z</time>
      </trkpt>
      <trkpt lat="46.53538" lon="5.42576">
        <ele>445</ele>
        <time>2021-04-05T13:34:01.000Z</time>
      </trkpt>
      <trkpt lat="46.53538" lon="5.42565">
        <ele>446.20001220703</ele>
        <time>2021-04-05T13:34:04.000Z</time>
      </trkpt>
      <trkpt lat="46.53538" lon="5.42558">
        <ele>446.79998779297</ele>
        <time>2021-04-05T13:34:06.000Z</time>
      </trkpt>
      <trkpt lat="46.53538" lon="5.42554">
        <ele>447</ele>
        <time>2021-04-05T13:34:07.000Z</time>
      </trkpt>
      <trkpt lat="46.53537" lon="5.42546">
        <ele>447.39999389648</ele>
        <time>2021-04-05T13:34:09.000Z</time>
      </trkpt>
      <trkpt lat="46.53536" lon="5.42542">
        <ele>447.60000610352</ele>
        <time>2021-04-05T13:34:10.000Z</time>
      </trkpt>
      <trkpt lat="46.53535" lon="5.42534">
        <ele>448</ele>
        <time>2021-04-05T13:34:12.000Z</time>
      </trkpt>
      <trkpt lat="46.53533" lon="5.42527">
        <ele>448.20001220703</ele>
        <time>2021-04-05T13:34:14.000Z</time>
      </trkpt>
      <trkpt lat="46.53531" lon="5.42519">
        <ele>448.20001220703</ele>
        <time>2021-04-05T13:34:16.000Z</time>
      </trkpt>
      <trkpt lat="46.5353" lon="5.42516">
        <ele>448.39999389648</ele>
        <time>2021-04-05T13:34:17.000Z</time>
      </trkpt>
      <trkpt lat="46.53529" lon="5.42512">
        <ele>448.39999389648</ele>
        <time>2021-04-05T13:34:18.000Z</time>
      </trkpt>
      <trkpt lat="46.53525" lon="5.425">
        <ele>448.79998779297</ele>
        <time>2021-04-05T13:34:21.000Z</time>
      </trkpt>
      <trkpt lat="46.53522" lon="5.42492">
        <ele>449</ele>
        <time>2021-04-05T13:34:23.000Z</time>
      </trkpt>
      <trkpt lat="46.53519" lon="5.42485">
        <ele>449.39999389648</ele>
        <time>2021-04-05T13:34:25.000Z</time>
      </trkpt>
      <trkpt lat="46.53518" lon="5.42481">
        <ele>449.79998779297</ele>
        <time>2021-04-05T13:34:26.000Z</time>
      </trkpt>
      <trkpt lat="46.53514" lon="5.42474">
        <ele>450</ele>
        <time>2021-04-05T13:34:28.000Z</time>
      </trkpt>
      <trkpt lat="46.5351" lon="5.42466">
        <ele>450.39999389648</ele>
        <time>2021-04-05T13:34:30.000Z</time>
      </trkpt>
      <trkpt lat="46.53506" lon="5.42459">
        <ele>450.79998779297</ele>
        <time>2021-04-05T13:34:32.000Z</time>
      </trkpt>
      <trkpt lat="46.53501" lon="5.42453">
        <ele>451.20001220703</ele>
        <time>2021-04-05T13:34:34.000Z</time>
      </trkpt>
      <trkpt lat="46.53499" lon="5.4245">
        <ele>451.60000610352</ele>
        <time>2021-04-05T13:34:35.000Z</time>
      </trkpt>
      <trkpt lat="46.53496" lon="5.42447">
        <ele>451.79998779297</ele>
        <time>2021-04-05T13:34:36.000Z</time>
      </trkpt>
      <trkpt lat="46.53494" lon="5.42444">
        <ele>451.79998779297</ele>
        <time>2021-04-05T13:34:37.000Z</time>
      </trkpt>
      <trkpt lat="46.53492" lon="5.42441">
        <ele>452</ele>
        <time>2021-04-05T13:34:38.000Z</time>
      </trkpt>
      <trkpt lat="46.53486" lon="5.42431">
        <ele>452.20001220703</ele>
        <time>2021-04-05T13:34:41.000Z</time>
      </trkpt>
      <trkpt lat="46.53481" lon="5.42424">
        <ele>452.39999389648</ele>
        <time>2021-04-05T13:34:43.000Z</time>
      </trkpt>
      <trkpt lat="46.53479" lon="5.42421">
        <ele>452.79998779297</ele>
        <time>2021-04-05T13:34:44.000Z</time>
      </trkpt>
      <trkpt lat="46.53477" lon="5.42417">
        <ele>453.20001220703</ele>
        <time>2021-04-05T13:34:45.000Z</time>
      </trkpt>
      <trkpt lat="46.53475" lon="5.42413">
        <ele>453.39999389648</ele>
        <time>2021-04-05T13:34:46.000Z</time>
      </trkpt>
      <trkpt lat="46.53473" lon="5.42409">
        <ele>454</ele>
        <time>2021-04-05T13:34:47.000Z</time>
      </trkpt>
      <trkpt lat="46.53471" lon="5.42406">
        <ele>454.20001220703</ele>
        <time>2021-04-05T13:34:48.000Z</time>
      </trkpt>
      <trkpt lat="46.53467" lon="5.42398">
        <ele>454.39999389648</ele>
        <time>2021-04-05T13:34:50.000Z</time>
      </trkpt>
      <trkpt lat="46.53463" lon="5.4239">
        <ele>454.60000610352</ele>
        <time>2021-04-05T13:34:52.000Z</time>
      </trkpt>
      <trkpt lat="46.53457" lon="5.42378">
        <ele>455</ele>
        <time>2021-04-05T13:34:55.000Z</time>
      </trkpt>
      <trkpt lat="46.53455" lon="5.42374">
        <ele>455.20001220703</ele>
        <time>2021-04-05T13:34:56.000Z</time>
      </trkpt>
      <trkpt lat="46.53453" lon="5.4237">
        <ele>455.39999389648</ele>
        <time>2021-04-05T13:34:57.000Z</time>
      </trkpt>
      <trkpt lat="46.53449" lon="5.42362">
        <ele>456</ele>
        <time>2021-04-05T13:34:59.000Z</time>
      </trkpt>
      <trkpt lat="46.53447" lon="5.42358">
        <ele>456.39999389648</ele>
        <time>2021-04-05T13:35:00.000Z</time>
      </trkpt>
      <trkpt lat="46.53445" lon="5.42354">
        <ele>456.39999389648</ele>
        <time>2021-04-05T13:35:01.000Z</time>
      </trkpt>
      <trkpt lat="46.53441" lon="5.42346">
        <ele>456.79998779297</ele>
        <time>2021-04-05T13:35:03.000Z</time>
      </trkpt>
      <trkpt lat="46.53437" lon="5.42338">
        <ele>457.20001220703</ele>
        <time>2021-04-05T13:35:05.000Z</time>
      </trkpt>
      <trkpt lat="46.53435" lon="5.42334">
        <ele>457.39999389648</ele>
        <time>2021-04-05T13:35:06.000Z</time>
      </trkpt>
      <trkpt lat="46.53433" lon="5.4233">
        <ele>457.60000610352</ele>
        <time>2021-04-05T13:35:07.000Z</time>
      </trkpt>
      <trkpt lat="46.53429" lon="5.42322">
        <ele>457.79998779297</ele>
        <time>2021-04-05T13:35:09.000Z</time>
      </trkpt>
      <trkpt lat="46.53425" lon="5.42314">
        <ele>458.20001220703</ele>
        <time>2021-04-05T13:35:11.000Z</time>
      </trkpt>
      <trkpt lat="46.53423" lon="5.4231">
        <ele>458.39999389648</ele>
        <time>2021-04-05T13:35:12.000Z</time>
      </trkpt>
      <trkpt lat="46.53421" lon="5.42305">
        <ele>458.60000610352</ele>
        <time>2021-04-05T13:35:13.000Z</time>
      </trkpt>
      <trkpt lat="46.53417" lon="5.42297">
        <ele>458.79998779297</ele>
        <time>2021-04-05T13:35:15.000Z</time>
      </trkpt>
      <trkpt lat="46.53413" lon="5.42289">
        <ele>459.60000610352</ele>
        <time>2021-04-05T13:35:17.000Z</time>
      </trkpt>
      <trkpt lat="46.53409" lon="5.4228">
        <ele>460.20001220703</ele>
        <time>2021-04-05T13:35:19.000Z</time>
      </trkpt>
      <trkpt lat="46.53406" lon="5.42271">
        <ele>460.60000610352</ele>
        <time>2021-04-05T13:35:21.000Z</time>
      </trkpt>
      <trkpt lat="46.53404" lon="5.42267">
        <ele>460.79998779297</ele>
        <time>2021-04-05T13:35:22.000Z</time>
      </trkpt>
      <trkpt lat="46.53402" lon="5.42263">
        <ele>461.20001220703</ele>
        <time>2021-04-05T13:35:23.000Z</time>
      </trkpt>
      <trkpt lat="46.53401" lon="5.42258">
        <ele>461.39999389648</ele>
        <time>2021-04-05T13:35:24.000Z</time>
      </trkpt>
      <trkpt lat="46.53399" lon="5.42253">
        <ele>461.60000610352</ele>
        <time>2021-04-05T13:35:25.000Z</time>
      </trkpt>
      <trkpt lat="46.53398" lon="5.42244">
        <ele>461.79998779297</ele>
        <time>2021-04-05T13:35:27.000Z</time>
      </trkpt>
      <trkpt lat="46.53399" lon="5.42234">
        <ele>462.20001220703</ele>
        <time>2021-04-05T13:35:29.000Z</time>
      </trkpt>
      <trkpt lat="46.53403" lon="5.42228">
        <ele>462.60000610352</ele>
        <time>2021-04-05T13:35:31.000Z</time>
      </trkpt>
      <trkpt lat="46.53406" lon="5.42226">
        <ele>462.79998779297</ele>
        <time>2021-04-05T13:35:32.000Z</time>
      </trkpt>
      <trkpt lat="46.53409" lon="5.42226">
        <ele>462.79998779297</ele>
        <time>2021-04-05T13:35:33.000Z</time>
      </trkpt>
      <trkpt lat="46.53415" lon="5.42228">
        <ele>463.20001220703</ele>
        <time>2021-04-05T13:35:35.000Z</time>
      </trkpt>
      <trkpt lat="46.53418" lon="5.4223">
        <ele>463.39999389648</ele>
        <time>2021-04-05T13:35:36.000Z</time>
      </trkpt>
      <trkpt lat="46.53421" lon="5.42232">
        <ele>463.79998779297</ele>
        <time>2021-04-05T13:35:37.000Z</time>
      </trkpt>
      <trkpt lat="46.53424" lon="5.42235">
        <ele>464.20001220703</ele>
        <time>2021-04-05T13:35:38.000Z</time>
      </trkpt>
      <trkpt lat="46.53426" lon="5.42238">
        <ele>464.60000610352</ele>
        <time>2021-04-05T13:35:39.000Z</time>
      </trkpt>
      <trkpt lat="46.53432" lon="5.42245">
        <ele>465</ele>
        <time>2021-04-05T13:35:41.000Z</time>
      </trkpt>
      <trkpt lat="46.53434" lon="5.42247">
        <ele>465.60000610352</ele>
        <time>2021-04-05T13:35:42.000Z</time>
      </trkpt>
      <trkpt lat="46.53437" lon="5.4225">
        <ele>466</ele>
        <time>2021-04-05T13:35:43.000Z</time>
      </trkpt>
      <trkpt lat="46.5344" lon="5.42252">
        <ele>466.60000610352</ele>
        <time>2021-04-05T13:35:44.000Z</time>
      </trkpt>
      <trkpt lat="46.53443" lon="5.42255">
        <ele>466.79998779297</ele>
        <time>2021-04-05T13:35:45.000Z</time>
      </trkpt>
      <trkpt lat="46.53452" lon="5.42262">
        <ele>467.39999389648</ele>
        <time>2021-04-05T13:35:48.000Z</time>
      </trkpt>
      <trkpt lat="46.53454" lon="5.42264">
        <ele>467.60000610352</ele>
        <time>2021-04-05T13:35:49.000Z</time>
      </trkpt>
      <trkpt lat="46.53457" lon="5.42266">
        <ele>467.79998779297</ele>
        <time>2021-04-05T13:35:50.000Z</time>
      </trkpt>
      <trkpt lat="46.53463" lon="5.42271">
        <ele>468.39999389648</ele>
        <time>2021-04-05T13:35:52.000Z</time>
      </trkpt>
      <trkpt lat="46.5347" lon="5.42275">
        <ele>468.79998779297</ele>
        <time>2021-04-05T13:35:54.000Z</time>
      </trkpt>
      <trkpt lat="46.53476" lon="5.42279">
        <ele>469.20001220703</ele>
        <time>2021-04-05T13:35:56.000Z</time>
      </trkpt>
      <trkpt lat="46.53483" lon="5.42284">
        <ele>469.60000610352</ele>
        <time>2021-04-05T13:35:58.000Z</time>
      </trkpt>
      <trkpt lat="46.53489" lon="5.42288">
        <ele>470</ele>
        <time>2021-04-05T13:36:00.000Z</time>
      </trkpt>
      <trkpt lat="46.53496" lon="5.42292">
        <ele>470.39999389648</ele>
        <time>2021-04-05T13:36:02.000Z</time>
      </trkpt>
      <trkpt lat="46.53502" lon="5.42296">
        <ele>470.79998779297</ele>
        <time>2021-04-05T13:36:04.000Z</time>
      </trkpt>
      <trkpt lat="46.53509" lon="5.42301">
        <ele>471.20001220703</ele>
        <time>2021-04-05T13:36:06.000Z</time>
      </trkpt>
      <trkpt lat="46.53515" lon="5.42305">
        <ele>471.60000610352</ele>
        <time>2021-04-05T13:36:08.000Z</time>
      </trkpt>
      <trkpt lat="46.53518" lon="5.42307">
        <ele>471.79998779297</ele>
        <time>2021-04-05T13:36:09.000Z</time>
      </trkpt>
      <trkpt lat="46.53522" lon="5.42309">
        <ele>472</ele>
        <time>2021-04-05T13:36:10.000Z</time>
      </trkpt>
      <trkpt lat="46.53528" lon="5.42313">
        <ele>472.20001220703</ele>
        <time>2021-04-05T13:36:12.000Z</time>
      </trkpt>
      <trkpt lat="46.53535" lon="5.42317">
        <ele>473</ele>
        <time>2021-04-05T13:36:14.000Z</time>
      </trkpt>
      <trkpt lat="46.53538" lon="5.42319">
        <ele>473.20001220703</ele>
        <time>2021-04-05T13:36:15.000Z</time>
      </trkpt>
      <trkpt lat="46.53541" lon="5.42321">
        <ele>473.60000610352</ele>
        <time>2021-04-05T13:36:16.000Z</time>
      </trkpt>
      <trkpt lat="46.53547" lon="5.42325">
        <ele>474.20001220703</ele>
        <time>2021-04-05T13:36:18.000Z</time>
      </trkpt>
      <trkpt lat="46.5355" lon="5.42327">
        <ele>474.39999389648</ele>
        <time>2021-04-05T13:36:19.000Z</time>
      </trkpt>
      <trkpt lat="46.53553" lon="5.42329">
        <ele>474.60000610352</ele>
        <time>2021-04-05T13:36:20.000Z</time>
      </trkpt>
      <trkpt lat="46.53556" lon="5.42331">
        <ele>475</ele>
        <time>2021-04-05T13:36:21.000Z</time>
      </trkpt>
      <trkpt lat="46.5356" lon="5.42333">
        <ele>475.20001220703</ele>
        <time>2021-04-05T13:36:22.000Z</time>
      </trkpt>
      <trkpt lat="46.53566" lon="5.42337">
        <ele>475.60000610352</ele>
        <time>2021-04-05T13:36:24.000Z</time>
      </trkpt>
      <trkpt lat="46.53572" lon="5.42341">
        <ele>476</ele>
        <time>2021-04-05T13:36:26.000Z</time>
      </trkpt>
      <trkpt lat="46.53578" lon="5.42346">
        <ele>476.39999389648</ele>
        <time>2021-04-05T13:36:28.000Z</time>
      </trkpt>
      <trkpt lat="46.53585" lon="5.4235">
        <ele>476.79998779297</ele>
        <time>2021-04-05T13:36:30.000Z</time>
      </trkpt>
      <trkpt lat="46.53591" lon="5.42354">
        <ele>477.20001220703</ele>
        <time>2021-04-05T13:36:32.000Z</time>
      </trkpt>
      <trkpt lat="46.53597" lon="5.42359">
        <ele>477.79998779297</ele>
        <time>2021-04-05T13:36:34.000Z</time>
      </trkpt>
      <trkpt lat="46.536" lon="5.42361">
        <ele>478</ele>
        <time>2021-04-05T13:36:35.000Z</time>
      </trkpt>
      <trkpt lat="46.53603" lon="5.42363">
        <ele>478.20001220703</ele>
        <time>2021-04-05T13:36:36.000Z</time>
      </trkpt>
      <trkpt lat="46.53609" lon="5.42368">
        <ele>478.60000610352</ele>
        <time>2021-04-05T13:36:38.000Z</time>
      </trkpt>
      <trkpt lat="46.53615" lon="5.42372">
        <ele>479</ele>
        <time>2021-04-05T13:36:40.000Z</time>
      </trkpt>
      <trkpt lat="46.53618" lon="5.42375">
        <ele>479.20001220703</ele>
        <time>2021-04-05T13:36:41.000Z</time>
      </trkpt>
      <trkpt lat="46.53621" lon="5.42377">
        <ele>479.79998779297</ele>
        <time>2021-04-05T13:36:42.000Z</time>
      </trkpt>
      <trkpt lat="46.53627" lon="5.42381">
        <ele>480.20001220703</ele>
        <time>2021-04-05T13:36:44.000Z</time>
      </trkpt>
      <trkpt lat="46.5363" lon="5.42384">
        <ele>480.39999389648</ele>
        <time>2021-04-05T13:36:45.000Z</time>
      </trkpt>
      <trkpt lat="46.53633" lon="5.42386">
        <ele>480.79998779297</ele>
        <time>2021-04-05T13:36:46.000Z</time>
      </trkpt>
      <trkpt lat="46.53639" lon="5.42391">
        <ele>481</ele>
        <time>2021-04-05T13:36:48.000Z</time>
      </trkpt>
      <trkpt lat="46.53645" lon="5.42395">
        <ele>481.39999389648</ele>
        <time>2021-04-05T13:36:50.000Z</time>
      </trkpt>
      <trkpt lat="46.53648" lon="5.42398">
        <ele>481.60000610352</ele>
        <time>2021-04-05T13:36:51.000Z</time>
      </trkpt>
      <trkpt lat="46.53651" lon="5.424">
        <ele>482</ele>
        <time>2021-04-05T13:36:52.000Z</time>
      </trkpt>
      <trkpt lat="46.53657" lon="5.42405">
        <ele>482.60000610352</ele>
        <time>2021-04-05T13:36:54.000Z</time>
      </trkpt>
      <trkpt lat="46.5366" lon="5.42408">
        <ele>482.79998779297</ele>
        <time>2021-04-05T13:36:55.000Z</time>
      </trkpt>
      <trkpt lat="46.53663" lon="5.42411">
        <ele>482.79998779297</ele>
        <time>2021-04-05T13:36:56.000Z</time>
      </trkpt>
      <trkpt lat="46.53669" lon="5.42416">
        <ele>483.39999389648</ele>
        <time>2021-04-05T13:36:58.000Z</time>
      </trkpt>
      <trkpt lat="46.53675" lon="5.42422">
        <ele>483.79998779297</ele>
        <time>2021-04-05T13:37:00.000Z</time>
      </trkpt>
      <trkpt lat="46.53681" lon="5.42428">
        <ele>484.39999389648</ele>
        <time>2021-04-05T13:37:02.000Z</time>
      </trkpt>
      <trkpt lat="46.53687" lon="5.42435">
        <ele>484.79998779297</ele>
        <time>2021-04-05T13:37:04.000Z</time>
      </trkpt>
      <trkpt lat="46.53689" lon="5.42438">
        <ele>485</ele>
        <time>2021-04-05T13:37:05.000Z</time>
      </trkpt>
      <trkpt lat="46.53692" lon="5.42441">
        <ele>485.20001220703</ele>
        <time>2021-04-05T13:37:06.000Z</time>
      </trkpt>
      <trkpt lat="46.53698" lon="5.42447">
        <ele>485.39999389648</ele>
        <time>2021-04-05T13:37:08.000Z</time>
      </trkpt>
      <trkpt lat="46.53703" lon="5.42454">
        <ele>485.79998779297</ele>
        <time>2021-04-05T13:37:10.000Z</time>
      </trkpt>
      <trkpt lat="46.53706" lon="5.42458">
        <ele>486.39999389648</ele>
        <time>2021-04-05T13:37:11.000Z</time>
      </trkpt>
      <trkpt lat="46.53708" lon="5.42461">
        <ele>486.60000610352</ele>
        <time>2021-04-05T13:37:12.000Z</time>
      </trkpt>
      <trkpt lat="46.53714" lon="5.42469">
        <ele>487.20001220703</ele>
        <time>2021-04-05T13:37:14.000Z</time>
      </trkpt>
      <trkpt lat="46.53717" lon="5.42473">
        <ele>487.60000610352</ele>
        <time>2021-04-05T13:37:15.000Z</time>
      </trkpt>
      <trkpt lat="46.53719" lon="5.42477">
        <ele>487.79998779297</ele>
        <time>2021-04-05T13:37:16.000Z</time>
      </trkpt>
      <trkpt lat="46.53724" lon="5.42486">
        <ele>488.39999389648</ele>
        <time>2021-04-05T13:37:18.000Z</time>
      </trkpt>
      <trkpt lat="46.53728" lon="5.42494">
        <ele>488.79998779297</ele>
        <time>2021-04-05T13:37:20.000Z</time>
      </trkpt>
      <trkpt lat="46.53731" lon="5.42498">
        <ele>489</ele>
        <time>2021-04-05T13:37:21.000Z</time>
      </trkpt>
      <trkpt lat="46.53734" lon="5.42501">
        <ele>489.20001220703</ele>
        <time>2021-04-05T13:37:22.000Z</time>
      </trkpt>
      <trkpt lat="46.5374" lon="5.42502">
        <ele>489.79998779297</ele>
        <time>2021-04-05T13:37:24.000Z</time>
      </trkpt>
      <trkpt lat="46.53742" lon="5.42499">
        <ele>490</ele>
        <time>2021-04-05T13:37:25.000Z</time>
      </trkpt>
      <trkpt lat="46.53744" lon="5.42496">
        <ele>490</ele>
        <time>2021-04-05T13:37:26.000Z</time>
      </trkpt>
      <trkpt lat="46.53744" lon="5.42492">
        <ele>490.20001220703</ele>
        <time>2021-04-05T13:37:27.000Z</time>
      </trkpt>
      <trkpt lat="46.53744" lon="5.42488">
        <ele>490.60000610352</ele>
        <time>2021-04-05T13:37:28.000Z</time>
      </trkpt>
      <trkpt lat="46.53742" lon="5.42481">
        <ele>491.20001220703</ele>
        <time>2021-04-05T13:37:30.000Z</time>
      </trkpt>
      <trkpt lat="46.5374" lon="5.42473">
        <ele>491.60000610352</ele>
        <time>2021-04-05T13:37:32.000Z</time>
      </trkpt>
      <trkpt lat="46.53738" lon="5.42464">
        <ele>491.79998779297</ele>
        <time>2021-04-05T13:37:34.000Z</time>
      </trkpt>
      <trkpt lat="46.53736" lon="5.42459">
        <ele>492.20001220703</ele>
        <time>2021-04-05T13:37:35.000Z</time>
      </trkpt>
      <trkpt lat="46.53735" lon="5.42455">
        <ele>492.60000610352</ele>
        <time>2021-04-05T13:37:36.000Z</time>
      </trkpt>
      <trkpt lat="46.53732" lon="5.42445">
        <ele>493.39999389648</ele>
        <time>2021-04-05T13:37:38.000Z</time>
      </trkpt>
      <trkpt lat="46.53729" lon="5.42436">
        <ele>494.39999389648</ele>
        <time>2021-04-05T13:37:40.000Z</time>
      </trkpt>
      <trkpt lat="46.53726" lon="5.42427">
        <ele>495.20001220703</ele>
        <time>2021-04-05T13:37:42.000Z</time>
      </trkpt>
      <trkpt lat="46.53725" lon="5.42422">
        <ele>495.60000610352</ele>
        <time>2021-04-05T13:37:43.000Z</time>
      </trkpt>
      <trkpt lat="46.53725" lon="5.42418">
        <ele>495.79998779297</ele>
        <time>2021-04-05T13:37:44.000Z</time>
      </trkpt>
      <trkpt lat="46.53725" lon="5.42409">
        <ele>496.39999389648</ele>
        <time>2021-04-05T13:37:46.000Z</time>
      </trkpt>
      <trkpt lat="46.53727" lon="5.42401">
        <ele>496.60000610352</ele>
        <time>2021-04-05T13:37:48.000Z</time>
      </trkpt>
      <trkpt lat="46.53731" lon="5.42395">
        <ele>497.20001220703</ele>
        <time>2021-04-05T13:37:50.000Z</time>
      </trkpt>
      <trkpt lat="46.53732" lon="5.42392">
        <ele>497.39999389648</ele>
        <time>2021-04-05T13:37:51.000Z</time>
      </trkpt>
      <trkpt lat="46.53734" lon="5.42389">
        <ele>497.60000610352</ele>
        <time>2021-04-05T13:37:52.000Z</time>
      </trkpt>
      <trkpt lat="46.53738" lon="5.42384">
        <ele>498</ele>
        <time>2021-04-05T13:37:54.000Z</time>
      </trkpt>
      <trkpt lat="46.53743" lon="5.4238">
        <ele>498.60000610352</ele>
        <time>2021-04-05T13:37:56.000Z</time>
      </trkpt>
      <trkpt lat="46.53745" lon="5.42378">
        <ele>499</ele>
        <time>2021-04-05T13:37:57.000Z</time>
      </trkpt>
      <trkpt lat="46.53747" lon="5.42377">
        <ele>499.39999389648</ele>
        <time>2021-04-05T13:37:58.000Z</time>
      </trkpt>
      <trkpt lat="46.53752" lon="5.42375">
        <ele>500</ele>
        <time>2021-04-05T13:38:00.000Z</time>
      </trkpt>
      <trkpt lat="46.53755" lon="5.42375">
        <ele>500.39999389648</ele>
        <time>2021-04-05T13:38:01.000Z</time>
      </trkpt>
      <trkpt lat="46.53758" lon="5.42374">
        <ele>500.60000610352</ele>
        <time>2021-04-05T13:38:02.000Z</time>
      </trkpt>
      <trkpt lat="46.53763" lon="5.42372">
        <ele>501.39999389648</ele>
        <time>2021-04-05T13:38:04.000Z</time>
      </trkpt>
      <trkpt lat="46.53769" lon="5.42372">
        <ele>502.20001220703</ele>
        <time>2021-04-05T13:38:06.000Z</time>
      </trkpt>
      <trkpt lat="46.53775" lon="5.42372">
        <ele>502.79998779297</ele>
        <time>2021-04-05T13:38:08.000Z</time>
      </trkpt>
      <trkpt lat="46.5378" lon="5.42374">
        <ele>503.60000610352</ele>
        <time>2021-04-05T13:38:10.000Z</time>
      </trkpt>
      <trkpt lat="46.53782" lon="5.42376">
        <ele>503.79998779297</ele>
        <time>2021-04-05T13:38:11.000Z</time>
      </trkpt>
      <trkpt lat="46.53785" lon="5.42378">
        <ele>504</ele>
        <time>2021-04-05T13:38:12.000Z</time>
      </trkpt>
      <trkpt lat="46.53791" lon="5.42383">
        <ele>504.60000610352</ele>
        <time>2021-04-05T13:38:14.000Z</time>
      </trkpt>
      <trkpt lat="46.53796" lon="5.42388">
        <ele>504.79998779297</ele>
        <time>2021-04-05T13:38:16.000Z</time>
      </trkpt>
      <trkpt lat="46.53799" lon="5.42391">
        <ele>505.20001220703</ele>
        <time>2021-04-05T13:38:17.000Z</time>
      </trkpt>
      <trkpt lat="46.53802" lon="5.42394">
        <ele>505.39999389648</ele>
        <time>2021-04-05T13:38:18.000Z</time>
      </trkpt>
      <trkpt lat="46.53807" lon="5.42399">
        <ele>505.79998779297</ele>
        <time>2021-04-05T13:38:20.000Z</time>
      </trkpt>
      <trkpt lat="46.53812" lon="5.42404">
        <ele>506.20001220703</ele>
        <time>2021-04-05T13:38:22.000Z</time>
      </trkpt>
      <trkpt lat="46.53818" lon="5.42408">
        <ele>506.39999389648</ele>
        <time>2021-04-05T13:38:24.000Z</time>
      </trkpt>
      <trkpt lat="46.53824" lon="5.42412">
        <ele>506.60000610352</ele>
        <time>2021-04-05T13:38:26.000Z</time>
      </trkpt>
      <trkpt lat="46.5383" lon="5.42412">
        <ele>506.79998779297</ele>
        <time>2021-04-05T13:38:28.000Z</time>
      </trkpt>
      <trkpt lat="46.53837" lon="5.42406">
        <ele>507.20001220703</ele>
        <time>2021-04-05T13:38:30.000Z</time>
      </trkpt>
      <trkpt lat="46.53842" lon="5.42394">
        <ele>507.20001220703</ele>
        <time>2021-04-05T13:38:32.000Z</time>
      </trkpt>
      <trkpt lat="46.53843" lon="5.42386">
        <ele>507.20001220703</ele>
        <time>2021-04-05T13:38:33.000Z</time>
      </trkpt>
      <trkpt lat="46.53842" lon="5.42377">
        <ele>507.20001220703</ele>
        <time>2021-04-05T13:38:34.000Z</time>
      </trkpt>
      <trkpt lat="46.53836" lon="5.42357">
        <ele>507.20001220703</ele>
        <time>2021-04-05T13:38:36.000Z</time>
      </trkpt>
      <trkpt lat="46.53827" lon="5.42337">
        <ele>507.20001220703</ele>
        <time>2021-04-05T13:38:38.000Z</time>
      </trkpt>
      <trkpt lat="46.53816" lon="5.42317">
        <ele>506.20001220703</ele>
        <time>2021-04-05T13:38:40.000Z</time>
      </trkpt>
      <trkpt lat="46.53811" lon="5.42307">
        <ele>505.39999389648</ele>
        <time>2021-04-05T13:38:41.000Z</time>
      </trkpt>
      <trkpt lat="46.53806" lon="5.42297">
        <ele>504.39999389648</ele>
        <time>2021-04-05T13:38:42.000Z</time>
      </trkpt>
      <trkpt lat="46.53801" lon="5.42287">
        <ele>503.20001220703</ele>
        <time>2021-04-05T13:38:43.000Z</time>
      </trkpt>
      <trkpt lat="46.53796" lon="5.42276">
        <ele>502</ele>
        <time>2021-04-05T13:38:44.000Z</time>
      </trkpt>
      <trkpt lat="46.53791" lon="5.42266">
        <ele>501</ele>
        <time>2021-04-05T13:38:45.000Z</time>
      </trkpt>
      <trkpt lat="46.53785" lon="5.42255">
        <ele>500.39999389648</ele>
        <time>2021-04-05T13:38:46.000Z</time>
      </trkpt>
      <trkpt lat="46.5378" lon="5.42244">
        <ele>499.79998779297</ele>
        <time>2021-04-05T13:38:47.000Z</time>
      </trkpt>
      <trkpt lat="46.53774" lon="5.42233">
        <ele>499.20001220703</ele>
        <time>2021-04-05T13:38:48.000Z</time>
      </trkpt>
      <trkpt lat="46.53769" lon="5.42223">
        <ele>498.60000610352</ele>
        <time>2021-04-05T13:38:49.000Z</time>
      </trkpt>
      <trkpt lat="46.53763" lon="5.42212">
        <ele>498</ele>
        <time>2021-04-05T13:38:50.000Z</time>
      </trkpt>
      <trkpt lat="46.53758" lon="5.42202">
        <ele>497.39999389648</ele>
        <time>2021-04-05T13:38:51.000Z</time>
      </trkpt>
      <trkpt lat="46.53752" lon="5.42192">
        <ele>497.20001220703</ele>
        <time>2021-04-05T13:38:52.000Z</time>
      </trkpt>
      <trkpt lat="46.53741" lon="5.42172">
        <ele>496.20001220703</ele>
        <time>2021-04-05T13:38:54.000Z</time>
      </trkpt>
      <trkpt lat="46.53729" lon="5.42153">
        <ele>495</ele>
        <time>2021-04-05T13:38:56.000Z</time>
      </trkpt>
      <trkpt lat="46.5372" lon="5.42137">
        <ele>493.20001220703</ele>
        <time>2021-04-05T13:38:58.000Z</time>
      </trkpt>
      <trkpt lat="46.53719" lon="5.42129">
        <ele>493</ele>
        <time>2021-04-05T13:38:59.000Z</time>
      </trkpt>
      <trkpt lat="46.53722" lon="5.42123">
        <ele>492.60000610352</ele>
        <time>2021-04-05T13:39:00.000Z</time>
      </trkpt>
      <trkpt lat="46.53728" lon="5.42119">
        <ele>492.39999389648</ele>
        <time>2021-04-05T13:39:01.000Z</time>
      </trkpt>
      <trkpt lat="46.53735" lon="5.42121">
        <ele>492.20001220703</ele>
        <time>2021-04-05T13:39:02.000Z</time>
      </trkpt>
      <trkpt lat="46.5375" lon="5.42129">
        <ele>492</ele>
        <time>2021-04-05T13:39:04.000Z</time>
      </trkpt>
      <trkpt lat="46.53758" lon="5.42134">
        <ele>491.79998779297</ele>
        <time>2021-04-05T13:39:05.000Z</time>
      </trkpt>
      <trkpt lat="46.53766" lon="5.42139">
        <ele>491.79998779297</ele>
        <time>2021-04-05T13:39:06.000Z</time>
      </trkpt>
      <trkpt lat="46.53784" lon="5.4215">
        <ele>491.39999389648</ele>
        <time>2021-04-05T13:39:08.000Z</time>
      </trkpt>
      <trkpt lat="46.53793" lon="5.42154">
        <ele>491.20001220703</ele>
        <time>2021-04-05T13:39:09.000Z</time>
      </trkpt>
      <trkpt lat="46.53802" lon="5.42158">
        <ele>490.60000610352</ele>
        <time>2021-04-05T13:39:10.000Z</time>
      </trkpt>
      <trkpt lat="46.53812" lon="5.4216">
        <ele>490.20001220703</ele>
        <time>2021-04-05T13:39:11.000Z</time>
      </trkpt>
      <trkpt lat="46.53822" lon="5.42162">
        <ele>490</ele>
        <time>2021-04-05T13:39:12.000Z</time>
      </trkpt>
      <trkpt lat="46.53831" lon="5.42161">
        <ele>489.39999389648</ele>
        <time>2021-04-05T13:39:13.000Z</time>
      </trkpt>
      <trkpt lat="46.5384" lon="5.42157">
        <ele>488.79998779297</ele>
        <time>2021-04-05T13:39:14.000Z</time>
      </trkpt>
      <trkpt lat="46.53846" lon="5.4215">
        <ele>488.20001220703</ele>
        <time>2021-04-05T13:39:15.000Z</time>
      </trkpt>
      <trkpt lat="46.5385" lon="5.4214">
        <ele>487.60000610352</ele>
        <time>2021-04-05T13:39:16.000Z</time>
      </trkpt>
      <trkpt lat="46.53852" lon="5.42127">
        <ele>487</ele>
        <time>2021-04-05T13:39:17.000Z</time>
      </trkpt>
      <trkpt lat="46.53852" lon="5.42114">
        <ele>486.39999389648</ele>
        <time>2021-04-05T13:39:18.000Z</time>
      </trkpt>
      <trkpt lat="46.53852" lon="5.421">
        <ele>485.60000610352</ele>
        <time>2021-04-05T13:39:19.000Z</time>
      </trkpt>
      <trkpt lat="46.53852" lon="5.42086">
        <ele>484.79998779297</ele>
        <time>2021-04-05T13:39:20.000Z</time>
      </trkpt>
      <trkpt lat="46.53853" lon="5.42062">
        <ele>484</ele>
        <time>2021-04-05T13:39:22.000Z</time>
      </trkpt>
      <trkpt lat="46.53856" lon="5.42053">
        <ele>483.60000610352</ele>
        <time>2021-04-05T13:39:23.000Z</time>
      </trkpt>
      <trkpt lat="46.5386" lon="5.42046">
        <ele>483</ele>
        <time>2021-04-05T13:39:24.000Z</time>
      </trkpt>
      <trkpt lat="46.53867" lon="5.42042">
        <ele>482.20001220703</ele>
        <time>2021-04-05T13:39:25.000Z</time>
      </trkpt>
      <trkpt lat="46.53874" lon="5.42041">
        <ele>481</ele>
        <time>2021-04-05T13:39:26.000Z</time>
      </trkpt>
      <trkpt lat="46.53882" lon="5.42042">
        <ele>479.60000610352</ele>
        <time>2021-04-05T13:39:27.000Z</time>
      </trkpt>
      <trkpt lat="46.5389" lon="5.42043">
        <ele>478.39999389648</ele>
        <time>2021-04-05T13:39:28.000Z</time>
      </trkpt>
      <trkpt lat="46.53906" lon="5.42046">
        <ele>477.39999389648</ele>
        <time>2021-04-05T13:39:30.000Z</time>
      </trkpt>
      <trkpt lat="46.53915" lon="5.42047">
        <ele>477.20001220703</ele>
        <time>2021-04-05T13:39:31.000Z</time>
      </trkpt>
      <trkpt lat="46.53924" lon="5.42047">
        <ele>477</ele>
        <time>2021-04-05T13:39:32.000Z</time>
      </trkpt>
      <trkpt lat="46.53942" lon="5.42044">
        <ele>476.20001220703</ele>
        <time>2021-04-05T13:39:34.000Z</time>
      </trkpt>
      <trkpt lat="46.5395" lon="5.4204">
        <ele>475</ele>
        <time>2021-04-05T13:39:35.000Z</time>
      </trkpt>
      <trkpt lat="46.53958" lon="5.42035">
        <ele>474.39999389648</ele>
        <time>2021-04-05T13:39:36.000Z</time>
      </trkpt>
      <trkpt lat="46.53967" lon="5.4203">
        <ele>473.60000610352</ele>
        <time>2021-04-05T13:39:37.000Z</time>
      </trkpt>
      <trkpt lat="46.53976" lon="5.42026">
        <ele>473</ele>
        <time>2021-04-05T13:39:38.000Z</time>
      </trkpt>
      <trkpt lat="46.53986" lon="5.42027">
        <ele>472.20001220703</ele>
        <time>2021-04-05T13:39:39.000Z</time>
      </trkpt>
      <trkpt lat="46.53995" lon="5.42031">
        <ele>471.60000610352</ele>
        <time>2021-04-05T13:39:40.000Z</time>
      </trkpt>
      <trkpt lat="46.54005" lon="5.42036">
        <ele>470.79998779297</ele>
        <time>2021-04-05T13:39:41.000Z</time>
      </trkpt>
      <trkpt lat="46.54014" lon="5.42042">
        <ele>470</ele>
        <time>2021-04-05T13:39:42.000Z</time>
      </trkpt>
      <trkpt lat="46.54023" lon="5.42048">
        <ele>469.39999389648</ele>
        <time>2021-04-05T13:39:43.000Z</time>
      </trkpt>
      <trkpt lat="46.54033" lon="5.42055">
        <ele>469.20001220703</ele>
        <time>2021-04-05T13:39:44.000Z</time>
      </trkpt>
      <trkpt lat="46.54052" lon="5.42068">
        <ele>468.20001220703</ele>
        <time>2021-04-05T13:39:46.000Z</time>
      </trkpt>
      <trkpt lat="46.54062" lon="5.42075">
        <ele>467.60000610352</ele>
        <time>2021-04-05T13:39:47.000Z</time>
      </trkpt>
      <trkpt lat="46.54072" lon="5.42082">
        <ele>467</ele>
        <time>2021-04-05T13:39:48.000Z</time>
      </trkpt>
      <trkpt lat="46.54091" lon="5.42096">
        <ele>465.60000610352</ele>
        <time>2021-04-05T13:39:50.000Z</time>
      </trkpt>
      <trkpt lat="46.54108" lon="5.42111">
        <ele>464.39999389648</ele>
        <time>2021-04-05T13:39:52.000Z</time>
      </trkpt>
      <trkpt lat="46.54116" lon="5.42118">
        <ele>464.20001220703</ele>
        <time>2021-04-05T13:39:53.000Z</time>
      </trkpt>
      <trkpt lat="46.54123" lon="5.42127">
        <ele>463.79998779297</ele>
        <time>2021-04-05T13:39:54.000Z</time>
      </trkpt>
      <trkpt lat="46.54129" lon="5.42136">
        <ele>463.20001220703</ele>
        <time>2021-04-05T13:39:55.000Z</time>
      </trkpt>
      <trkpt lat="46.54135" lon="5.42146">
        <ele>462.60000610352</ele>
        <time>2021-04-05T13:39:56.000Z</time>
      </trkpt>
      <trkpt lat="46.54145" lon="5.42166">
        <ele>462</ele>
        <time>2021-04-05T13:39:58.000Z</time>
      </trkpt>
      <trkpt lat="46.54155" lon="5.42186">
        <ele>461</ele>
        <time>2021-04-05T13:40:00.000Z</time>
      </trkpt>
      <trkpt lat="46.54161" lon="5.42196">
        <ele>460.79998779297</ele>
        <time>2021-04-05T13:40:01.000Z</time>
      </trkpt>
      <trkpt lat="46.54166" lon="5.42207">
        <ele>460.60000610352</ele>
        <time>2021-04-05T13:40:02.000Z</time>
      </trkpt>
      <trkpt lat="46.54177" lon="5.42228">
        <ele>459.60000610352</ele>
        <time>2021-04-05T13:40:04.000Z</time>
      </trkpt>
      <trkpt lat="46.5419" lon="5.42248">
        <ele>458.60000610352</ele>
        <time>2021-04-05T13:40:06.000Z</time>
      </trkpt>
      <trkpt lat="46.54197" lon="5.42256">
        <ele>458</ele>
        <time>2021-04-05T13:40:07.000Z</time>
      </trkpt>
      <trkpt lat="46.54204" lon="5.42264">
        <ele>457.39999389648</ele>
        <time>2021-04-05T13:40:08.000Z</time>
      </trkpt>
      <trkpt lat="46.54221" lon="5.42274">
        <ele>456.20001220703</ele>
        <time>2021-04-05T13:40:10.000Z</time>
      </trkpt>
      <trkpt lat="46.54241" lon="5.42279">
        <ele>455</ele>
        <time>2021-04-05T13:40:12.000Z</time>
      </trkpt>
      <trkpt lat="46.54262" lon="5.42283">
        <ele>453.60000610352</ele>
        <time>2021-04-05T13:40:14.000Z</time>
      </trkpt>
      <trkpt lat="46.54273" lon="5.42285">
        <ele>452.79998779297</ele>
        <time>2021-04-05T13:40:15.000Z</time>
      </trkpt>
      <trkpt lat="46.54283" lon="5.42287">
        <ele>452.20001220703</ele>
        <time>2021-04-05T13:40:16.000Z</time>
      </trkpt>
      <trkpt lat="46.54304" lon="5.42292">
        <ele>451</ele>
        <time>2021-04-05T13:40:18.000Z</time>
      </trkpt>
      <trkpt lat="46.54315" lon="5.42296">
        <ele>450.20001220703</ele>
        <time>2021-04-05T13:40:19.000Z</time>
      </trkpt>
      <trkpt lat="46.54325" lon="5.42301">
        <ele>449.60000610352</ele>
        <time>2021-04-05T13:40:20.000Z</time>
      </trkpt>
      <trkpt lat="46.54335" lon="5.42308">
        <ele>448.79998779297</ele>
        <time>2021-04-05T13:40:21.000Z</time>
      </trkpt>
      <trkpt lat="46.54344" lon="5.42316">
        <ele>448</ele>
        <time>2021-04-05T13:40:22.000Z</time>
      </trkpt>
      <trkpt lat="46.54363" lon="5.42335">
        <ele>446.39999389648</ele>
        <time>2021-04-05T13:40:24.000Z</time>
      </trkpt>
      <trkpt lat="46.54373" lon="5.42343">
        <ele>445.60000610352</ele>
        <time>2021-04-05T13:40:25.000Z</time>
      </trkpt>
      <trkpt lat="46.54382" lon="5.42353">
        <ele>445</ele>
        <time>2021-04-05T13:40:26.000Z</time>
      </trkpt>
      <trkpt lat="46.54404" lon="5.42373">
        <ele>443.20001220703</ele>
        <time>2021-04-05T13:40:28.000Z</time>
      </trkpt>
      <trkpt lat="46.54425" lon="5.42392">
        <ele>442</ele>
        <time>2021-04-05T13:40:30.000Z</time>
      </trkpt>
      <trkpt lat="46.54435" lon="5.42399">
        <ele>441.39999389648</ele>
        <time>2021-04-05T13:40:31.000Z</time>
      </trkpt>
      <trkpt lat="46.54446" lon="5.42405">
        <ele>440.79998779297</ele>
        <time>2021-04-05T13:40:32.000Z</time>
      </trkpt>
      <trkpt lat="46.54457" lon="5.42407">
        <ele>439.79998779297</ele>
        <time>2021-04-05T13:40:33.000Z</time>
      </trkpt>
      <trkpt lat="46.54469" lon="5.42406">
        <ele>439</ele>
        <time>2021-04-05T13:40:34.000Z</time>
      </trkpt>
      <trkpt lat="46.54481" lon="5.42403">
        <ele>438</ele>
        <time>2021-04-05T13:40:35.000Z</time>
      </trkpt>
      <trkpt lat="46.54491" lon="5.42397">
        <ele>437.39999389648</ele>
        <time>2021-04-05T13:40:36.000Z</time>
      </trkpt>
      <trkpt lat="46.54502" lon="5.4239">
        <ele>437</ele>
        <time>2021-04-05T13:40:37.000Z</time>
      </trkpt>
      <trkpt lat="46.54512" lon="5.42382">
        <ele>436.39999389648</ele>
        <time>2021-04-05T13:40:38.000Z</time>
      </trkpt>
      <trkpt lat="46.54533" lon="5.42369">
        <ele>436</ele>
        <time>2021-04-05T13:40:40.000Z</time>
      </trkpt>
      <trkpt lat="46.54543" lon="5.42367">
        <ele>435.79998779297</ele>
        <time>2021-04-05T13:40:41.000Z</time>
      </trkpt>
      <trkpt lat="46.54553" lon="5.42368">
        <ele>435</ele>
        <time>2021-04-05T13:40:42.000Z</time>
      </trkpt>
      <trkpt lat="46.54562" lon="5.42372">
        <ele>434.20001220703</ele>
        <time>2021-04-05T13:40:43.000Z</time>
      </trkpt>
      <trkpt lat="46.5457" lon="5.42377">
        <ele>433.20001220703</ele>
        <time>2021-04-05T13:40:44.000Z</time>
      </trkpt>
      <trkpt lat="46.54577" lon="5.42383">
        <ele>432.20001220703</ele>
        <time>2021-04-05T13:40:45.000Z</time>
      </trkpt>
      <trkpt lat="46.54583" lon="5.42388">
        <ele>431</ele>
        <time>2021-04-05T13:40:46.000Z</time>
      </trkpt>
      <trkpt lat="46.5459" lon="5.42394">
        <ele>430</ele>
        <time>2021-04-05T13:40:47.000Z</time>
      </trkpt>
      <trkpt lat="46.54597" lon="5.42399">
        <ele>429.39999389648</ele>
        <time>2021-04-05T13:40:48.000Z</time>
      </trkpt>
      <trkpt lat="46.54604" lon="5.42404">
        <ele>429</ele>
        <time>2021-04-05T13:40:49.000Z</time>
      </trkpt>
      <trkpt lat="46.54611" lon="5.4241">
        <ele>428.60000610352</ele>
        <time>2021-04-05T13:40:50.000Z</time>
      </trkpt>
      <trkpt lat="46.54627" lon="5.4242">
        <ele>428</ele>
        <time>2021-04-05T13:40:52.000Z</time>
      </trkpt>
      <trkpt lat="46.54635" lon="5.42422">
        <ele>427.79998779297</ele>
        <time>2021-04-05T13:40:53.000Z</time>
      </trkpt>
      <trkpt lat="46.54643" lon="5.4242">
        <ele>427.79998779297</ele>
        <time>2021-04-05T13:40:54.000Z</time>
      </trkpt>
      <trkpt lat="46.54656" lon="5.42413">
        <ele>427.39999389648</ele>
        <time>2021-04-05T13:40:56.000Z</time>
      </trkpt>
      <trkpt lat="46.54663" lon="5.42409">
        <ele>427.39999389648</ele>
        <time>2021-04-05T13:40:57.000Z</time>
      </trkpt>
      <trkpt lat="46.54671" lon="5.42406">
        <ele>427.20001220703</ele>
        <time>2021-04-05T13:40:58.000Z</time>
      </trkpt>
      <trkpt lat="46.54685" lon="5.42405">
        <ele>426.79998779297</ele>
        <time>2021-04-05T13:41:00.000Z</time>
      </trkpt>
      <trkpt lat="46.54699" lon="5.42405">
        <ele>426.20001220703</ele>
        <time>2021-04-05T13:41:02.000Z</time>
      </trkpt>
      <trkpt lat="46.54714" lon="5.42402">
        <ele>426</ele>
        <time>2021-04-05T13:41:04.000Z</time>
      </trkpt>
      <trkpt lat="46.54722" lon="5.42399">
        <ele>425.79998779297</ele>
        <time>2021-04-05T13:41:05.000Z</time>
      </trkpt>
      <trkpt lat="46.54728" lon="5.42396">
        <ele>425.79998779297</ele>
        <time>2021-04-05T13:41:06.000Z</time>
      </trkpt>
      <trkpt lat="46.54735" lon="5.42391">
        <ele>425.79998779297</ele>
        <time>2021-04-05T13:41:07.000Z</time>
      </trkpt>
      <trkpt lat="46.54742" lon="5.42383">
        <ele>425.60000610352</ele>
        <time>2021-04-05T13:41:08.000Z</time>
      </trkpt>
      <trkpt lat="46.54752" lon="5.42363">
        <ele>425.60000610352</ele>
        <time>2021-04-05T13:41:10.000Z</time>
      </trkpt>
      <trkpt lat="46.54756" lon="5.4235">
        <ele>425.60000610352</ele>
        <time>2021-04-05T13:41:11.000Z</time>
      </trkpt>
      <trkpt lat="46.54761" lon="5.42338">
        <ele>425.60000610352</ele>
        <time>2021-04-05T13:41:12.000Z</time>
      </trkpt>
      <trkpt lat="46.54772" lon="5.42314">
        <ele>425.39999389648</ele>
        <time>2021-04-05T13:41:14.000Z</time>
      </trkpt>
      <trkpt lat="46.54779" lon="5.42303">
        <ele>425</ele>
        <time>2021-04-05T13:41:15.000Z</time>
      </trkpt>
      <trkpt lat="46.54787" lon="5.42293">
        <ele>424.39999389648</ele>
        <time>2021-04-05T13:41:16.000Z</time>
      </trkpt>
      <trkpt lat="46.54802" lon="5.42272">
        <ele>423.20001220703</ele>
        <time>2021-04-05T13:41:18.000Z</time>
      </trkpt>
      <trkpt lat="46.54815" lon="5.4225">
        <ele>421</ele>
        <time>2021-04-05T13:41:20.000Z</time>
      </trkpt>
      <trkpt lat="46.54821" lon="5.42239">
        <ele>419.60000610352</ele>
        <time>2021-04-05T13:41:21.000Z</time>
      </trkpt>
      <trkpt lat="46.54829" lon="5.42229">
        <ele>418.39999389648</ele>
        <time>2021-04-05T13:41:22.000Z</time>
      </trkpt>
      <trkpt lat="46.54844" lon="5.42211">
        <ele>416.79998779297</ele>
        <time>2021-04-05T13:41:24.000Z</time>
      </trkpt>
      <trkpt lat="46.54852" lon="5.42203">
        <ele>415.60000610352</ele>
        <time>2021-04-05T13:41:25.000Z</time>
      </trkpt>
      <trkpt lat="46.5486" lon="5.42196">
        <ele>415</ele>
        <time>2021-04-05T13:41:26.000Z</time>
      </trkpt>
      <trkpt lat="46.54868" lon="5.42189">
        <ele>414.60000610352</ele>
        <time>2021-04-05T13:41:27.000Z</time>
      </trkpt>
      <trkpt lat="46.54876" lon="5.42182">
        <ele>414.39999389648</ele>
        <time>2021-04-05T13:41:28.000Z</time>
      </trkpt>
      <trkpt lat="46.54892" lon="5.42169">
        <ele>414</ele>
        <time>2021-04-05T13:41:30.000Z</time>
      </trkpt>
      <trkpt lat="46.54909" lon="5.42158">
        <ele>413.79998779297</ele>
        <time>2021-04-05T13:41:32.000Z</time>
      </trkpt>
      <trkpt lat="46.54917" lon="5.42153">
        <ele>413.39999389648</ele>
        <time>2021-04-05T13:41:33.000Z</time>
      </trkpt>
      <trkpt lat="46.54926" lon="5.42148">
        <ele>413.20001220703</ele>
        <time>2021-04-05T13:41:34.000Z</time>
      </trkpt>
      <trkpt lat="46.54944" lon="5.42138">
        <ele>413</ele>
        <time>2021-04-05T13:41:36.000Z</time>
      </trkpt>
      <trkpt lat="46.54962" lon="5.42129">
        <ele>412.79998779297</ele>
        <time>2021-04-05T13:41:38.000Z</time>
      </trkpt>
      <trkpt lat="46.54972" lon="5.42125">
        <ele>412.60000610352</ele>
        <time>2021-04-05T13:41:39.000Z</time>
      </trkpt>
      <trkpt lat="46.54983" lon="5.42122">
        <ele>411.79998779297</ele>
        <time>2021-04-05T13:41:40.000Z</time>
      </trkpt>
      <trkpt lat="46.54994" lon="5.42118">
        <ele>411.39999389648</ele>
        <time>2021-04-05T13:41:41.000Z</time>
      </trkpt>
      <trkpt lat="46.55016" lon="5.42113">
        <ele>410.39999389648</ele>
        <time>2021-04-05T13:41:43.000Z</time>
      </trkpt>
      <trkpt lat="46.5504" lon="5.42109">
        <ele>408.79998779297</ele>
        <time>2021-04-05T13:41:45.000Z</time>
      </trkpt>
      <trkpt lat="46.55061" lon="5.42109">
        <ele>406.79998779297</ele>
        <time>2021-04-05T13:41:47.000Z</time>
      </trkpt>
      <trkpt lat="46.55071" lon="5.42111">
        <ele>405.60000610352</ele>
        <time>2021-04-05T13:41:48.000Z</time>
      </trkpt>
      <trkpt lat="46.55081" lon="5.42116">
        <ele>404.60000610352</ele>
        <time>2021-04-05T13:41:49.000Z</time>
      </trkpt>
      <trkpt lat="46.55098" lon="5.4213">
        <ele>402.60000610352</ele>
        <time>2021-04-05T13:41:51.000Z</time>
      </trkpt>
      <trkpt lat="46.55103" lon="5.42138">
        <ele>401.60000610352</ele>
        <time>2021-04-05T13:41:52.000Z</time>
      </trkpt>
      <trkpt lat="46.55107" lon="5.42148">
        <ele>400.39999389648</ele>
        <time>2021-04-05T13:41:53.000Z</time>
      </trkpt>
      <trkpt lat="46.55109" lon="5.42159">
        <ele>399.60000610352</ele>
        <time>2021-04-05T13:41:54.000Z</time>
      </trkpt>
      <trkpt lat="46.5511" lon="5.42171">
        <ele>399</ele>
        <time>2021-04-05T13:41:55.000Z</time>
      </trkpt>
      <trkpt lat="46.5511" lon="5.42184">
        <ele>398.60000610352</ele>
        <time>2021-04-05T13:41:56.000Z</time>
      </trkpt>
      <trkpt lat="46.5511" lon="5.42199">
        <ele>398</ele>
        <time>2021-04-05T13:41:57.000Z</time>
      </trkpt>
      <trkpt lat="46.55112" lon="5.42214">
        <ele>397.39999389648</ele>
        <time>2021-04-05T13:41:58.000Z</time>
      </trkpt>
      <trkpt lat="46.55115" lon="5.42228">
        <ele>396.79998779297</ele>
        <time>2021-04-05T13:41:59.000Z</time>
      </trkpt>
      <trkpt lat="46.55119" lon="5.42243">
        <ele>396</ele>
        <time>2021-04-05T13:42:00.000Z</time>
      </trkpt>
      <trkpt lat="46.55123" lon="5.42257">
        <ele>395.79998779297</ele>
        <time>2021-04-05T13:42:01.000Z</time>
      </trkpt>
      <trkpt lat="46.5513" lon="5.42285">
        <ele>394.39999389648</ele>
        <time>2021-04-05T13:42:03.000Z</time>
      </trkpt>
      <trkpt lat="46.55131" lon="5.423">
        <ele>393.60000610352</ele>
        <time>2021-04-05T13:42:04.000Z</time>
      </trkpt>
      <trkpt lat="46.55132" lon="5.42314">
        <ele>392.79998779297</ele>
        <time>2021-04-05T13:42:05.000Z</time>
      </trkpt>
      <trkpt lat="46.55134" lon="5.42345">
        <ele>391.39999389648</ele>
        <time>2021-04-05T13:42:07.000Z</time>
      </trkpt>
      <trkpt lat="46.55136" lon="5.42374">
        <ele>390.20001220703</ele>
        <time>2021-04-05T13:42:09.000Z</time>
      </trkpt>
      <trkpt lat="46.55137" lon="5.42389">
        <ele>389.60000610352</ele>
        <time>2021-04-05T13:42:10.000Z</time>
      </trkpt>
      <trkpt lat="46.55139" lon="5.42405">
        <ele>388.79998779297</ele>
        <time>2021-04-05T13:42:11.000Z</time>
      </trkpt>
      <trkpt lat="46.55144" lon="5.42435">
        <ele>387.60000610352</ele>
        <time>2021-04-05T13:42:13.000Z</time>
      </trkpt>
      <trkpt lat="46.55151" lon="5.42465">
        <ele>386.79998779297</ele>
        <time>2021-04-05T13:42:15.000Z</time>
      </trkpt>
      <trkpt lat="46.55155" lon="5.42479">
        <ele>386.39999389648</ele>
        <time>2021-04-05T13:42:16.000Z</time>
      </trkpt>
      <trkpt lat="46.55158" lon="5.42492">
        <ele>386.20001220703</ele>
        <time>2021-04-05T13:42:17.000Z</time>
      </trkpt>
      <trkpt lat="46.55165" lon="5.42515">
        <ele>385.39999389648</ele>
        <time>2021-04-05T13:42:19.000Z</time>
      </trkpt>
      <trkpt lat="46.55169" lon="5.42524">
        <ele>385</ele>
        <time>2021-04-05T13:42:20.000Z</time>
      </trkpt>
      <trkpt lat="46.55174" lon="5.42532">
        <ele>384.39999389648</ele>
        <time>2021-04-05T13:42:21.000Z</time>
      </trkpt>
      <trkpt lat="46.55179" lon="5.42538">
        <ele>383.79998779297</ele>
        <time>2021-04-05T13:42:22.000Z</time>
      </trkpt>
      <trkpt lat="46.55184" lon="5.42545">
        <ele>383.39999389648</ele>
        <time>2021-04-05T13:42:23.000Z</time>
      </trkpt>
      <trkpt lat="46.5519" lon="5.42553">
        <ele>382.79998779297</ele>
        <time>2021-04-05T13:42:24.000Z</time>
      </trkpt>
      <trkpt lat="46.552" lon="5.42569">
        <ele>381.60000610352</ele>
        <time>2021-04-05T13:42:26.000Z</time>
      </trkpt>
      <trkpt lat="46.55212" lon="5.42582">
        <ele>380.39999389648</ele>
        <time>2021-04-05T13:42:28.000Z</time>
      </trkpt>
      <trkpt lat="46.55218" lon="5.42588">
        <ele>380.20001220703</ele>
        <time>2021-04-05T13:42:29.000Z</time>
      </trkpt>
      <trkpt lat="46.55223" lon="5.42595">
        <ele>380.20001220703</ele>
        <time>2021-04-05T13:42:30.000Z</time>
      </trkpt>
      <trkpt lat="46.55234" lon="5.42608">
        <ele>379.60000610352</ele>
        <time>2021-04-05T13:42:32.000Z</time>
      </trkpt>
      <trkpt lat="46.5524" lon="5.42613">
        <ele>379.20001220703</ele>
        <time>2021-04-05T13:42:33.000Z</time>
      </trkpt>
      <trkpt lat="46.55245" lon="5.42613">
        <ele>378.39999389648</ele>
        <time>2021-04-05T13:42:34.000Z</time>
      </trkpt>
      <trkpt lat="46.55252" lon="5.4261">
        <ele>377.79998779297</ele>
        <time>2021-04-05T13:42:35.000Z</time>
      </trkpt>
      <trkpt lat="46.5526" lon="5.42604">
        <ele>377.20001220703</ele>
        <time>2021-04-05T13:42:36.000Z</time>
      </trkpt>
      <trkpt lat="46.55265" lon="5.42595">
        <ele>376.79998779297</ele>
        <time>2021-04-05T13:42:37.000Z</time>
      </trkpt>
      <trkpt lat="46.55267" lon="5.42587">
        <ele>376.39999389648</ele>
        <time>2021-04-05T13:42:38.000Z</time>
      </trkpt>
      <trkpt lat="46.55269" lon="5.42564">
        <ele>376</ele>
        <time>2021-04-05T13:42:40.000Z</time>
      </trkpt>
      <trkpt lat="46.55268" lon="5.42551">
        <ele>375.79998779297</ele>
        <time>2021-04-05T13:42:41.000Z</time>
      </trkpt>
      <trkpt lat="46.55268" lon="5.42537">
        <ele>375.79998779297</ele>
        <time>2021-04-05T13:42:42.000Z</time>
      </trkpt>
      <trkpt lat="46.55269" lon="5.42523">
        <ele>375.60000610352</ele>
        <time>2021-04-05T13:42:43.000Z</time>
      </trkpt>
      <trkpt lat="46.5527" lon="5.42508">
        <ele>375.39999389648</ele>
        <time>2021-04-05T13:42:44.000Z</time>
      </trkpt>
      <trkpt lat="46.55272" lon="5.42492">
        <ele>374.39999389648</ele>
        <time>2021-04-05T13:42:45.000Z</time>
      </trkpt>
      <trkpt lat="46.55274" lon="5.42477">
        <ele>373.60000610352</ele>
        <time>2021-04-05T13:42:46.000Z</time>
      </trkpt>
      <trkpt lat="46.55283" lon="5.42448">
        <ele>371.79998779297</ele>
        <time>2021-04-05T13:42:48.000Z</time>
      </trkpt>
      <trkpt lat="46.55295" lon="5.4242">
        <ele>370.39999389648</ele>
        <time>2021-04-05T13:42:50.000Z</time>
      </trkpt>
      <trkpt lat="46.5531" lon="5.42395">
        <ele>368.20001220703</ele>
        <time>2021-04-05T13:42:52.000Z</time>
      </trkpt>
      <trkpt lat="46.55318" lon="5.42384">
        <ele>366.60000610352</ele>
        <time>2021-04-05T13:42:53.000Z</time>
      </trkpt>
      <trkpt lat="46.55327" lon="5.42372">
        <ele>365</ele>
        <time>2021-04-05T13:42:54.000Z</time>
      </trkpt>
      <trkpt lat="46.55335" lon="5.42361">
        <ele>364</ele>
        <time>2021-04-05T13:42:55.000Z</time>
      </trkpt>
      <trkpt lat="46.55343" lon="5.42349">
        <ele>362</ele>
        <time>2021-04-05T13:42:56.000Z</time>
      </trkpt>
      <trkpt lat="46.55351" lon="5.42338">
        <ele>361</ele>
        <time>2021-04-05T13:42:57.000Z</time>
      </trkpt>
      <trkpt lat="46.55359" lon="5.42326">
        <ele>360</ele>
        <time>2021-04-05T13:42:58.000Z</time>
      </trkpt>
      <trkpt lat="46.55367" lon="5.42314">
        <ele>359.39999389648</ele>
        <time>2021-04-05T13:42:59.000Z</time>
      </trkpt>
      <trkpt lat="46.55375" lon="5.42303">
        <ele>358.39999389648</ele>
        <time>2021-04-05T13:43:00.000Z</time>
      </trkpt>
      <trkpt lat="46.55383" lon="5.42292">
        <ele>357</ele>
        <time>2021-04-05T13:43:01.000Z</time>
      </trkpt>
      <trkpt lat="46.55391" lon="5.42281">
        <ele>355.39999389648</ele>
        <time>2021-04-05T13:43:02.000Z</time>
      </trkpt>
      <trkpt lat="46.554" lon="5.42272">
        <ele>354.39999389648</ele>
        <time>2021-04-05T13:43:03.000Z</time>
      </trkpt>
      <trkpt lat="46.55408" lon="5.42262">
        <ele>353.20001220703</ele>
        <time>2021-04-05T13:43:04.000Z</time>
      </trkpt>
      <trkpt lat="46.55427" lon="5.42244">
        <ele>351.60000610352</ele>
        <time>2021-04-05T13:43:06.000Z</time>
      </trkpt>
      <trkpt lat="46.55448" lon="5.42227">
        <ele>350</ele>
        <time>2021-04-05T13:43:08.000Z</time>
      </trkpt>
      <trkpt lat="46.55458" lon="5.42218">
        <ele>349.39999389648</ele>
        <time>2021-04-05T13:43:09.000Z</time>
      </trkpt>
      <trkpt lat="46.55469" lon="5.4221">
        <ele>348.79998779297</ele>
        <time>2021-04-05T13:43:10.000Z</time>
      </trkpt>
      <trkpt lat="46.55491" lon="5.42195">
        <ele>348.20001220703</ele>
        <time>2021-04-05T13:43:12.000Z</time>
      </trkpt>
      <trkpt lat="46.55503" lon="5.42189">
        <ele>347.79998779297</ele>
        <time>2021-04-05T13:43:13.000Z</time>
      </trkpt>
      <trkpt lat="46.55515" lon="5.42184">
        <ele>347.39999389648</ele>
        <time>2021-04-05T13:43:14.000Z</time>
      </trkpt>
      <trkpt lat="46.55541" lon="5.42176">
        <ele>346.60000610352</ele>
        <time>2021-04-05T13:43:16.000Z</time>
      </trkpt>
      <trkpt lat="46.55554" lon="5.42173">
        <ele>345.79998779297</ele>
        <time>2021-04-05T13:43:17.000Z</time>
      </trkpt>
      <trkpt lat="46.55567" lon="5.42169">
        <ele>345</ele>
        <time>2021-04-05T13:43:18.000Z</time>
      </trkpt>
      <trkpt lat="46.5558" lon="5.42166">
        <ele>344.39999389648</ele>
        <time>2021-04-05T13:43:19.000Z</time>
      </trkpt>
      <trkpt lat="46.55591" lon="5.42163">
        <ele>344</ele>
        <time>2021-04-05T13:43:20.000Z</time>
      </trkpt>
      <trkpt lat="46.55602" lon="5.42164">
        <ele>343.79998779297</ele>
        <time>2021-04-05T13:43:21.000Z</time>
      </trkpt>
      <trkpt lat="46.55622" lon="5.42169">
        <ele>343</ele>
        <time>2021-04-05T13:43:23.000Z</time>
      </trkpt>
      <trkpt lat="46.55633" lon="5.42174">
        <ele>342.60000610352</ele>
        <time>2021-04-05T13:43:24.000Z</time>
      </trkpt>
      <trkpt lat="46.55643" lon="5.4218">
        <ele>340.79998779297</ele>
        <time>2021-04-05T13:43:25.000Z</time>
      </trkpt>
      <trkpt lat="46.55654" lon="5.42186">
        <ele>339.20001220703</ele>
        <time>2021-04-05T13:43:26.000Z</time>
      </trkpt>
      <trkpt lat="46.55664" lon="5.42192">
        <ele>337.79998779297</ele>
        <time>2021-04-05T13:43:27.000Z</time>
      </trkpt>
      <trkpt lat="46.55675" lon="5.42198">
        <ele>336.79998779297</ele>
        <time>2021-04-05T13:43:28.000Z</time>
      </trkpt>
      <trkpt lat="46.55686" lon="5.42201">
        <ele>336.20001220703</ele>
        <time>2021-04-05T13:43:29.000Z</time>
      </trkpt>
      <trkpt lat="46.55698" lon="5.42204">
        <ele>335.60000610352</ele>
        <time>2021-04-05T13:43:30.000Z</time>
      </trkpt>
      <trkpt lat="46.55709" lon="5.42206">
        <ele>335.20001220703</ele>
        <time>2021-04-05T13:43:31.000Z</time>
      </trkpt>
      <trkpt lat="46.55731" lon="5.4221">
        <ele>334.39999389648</ele>
        <time>2021-04-05T13:43:33.000Z</time>
      </trkpt>
      <trkpt lat="46.55741" lon="5.42213">
        <ele>333.39999389648</ele>
        <time>2021-04-05T13:43:34.000Z</time>
      </trkpt>
      <trkpt lat="46.55752" lon="5.42216">
        <ele>333</ele>
        <time>2021-04-05T13:43:35.000Z</time>
      </trkpt>
      <trkpt lat="46.55771" lon="5.42225">
        <ele>331.39999389648</ele>
        <time>2021-04-05T13:43:37.000Z</time>
      </trkpt>
      <trkpt lat="46.5578" lon="5.4223">
        <ele>331</ele>
        <time>2021-04-05T13:43:38.000Z</time>
      </trkpt>
      <trkpt lat="46.55789" lon="5.42234">
        <ele>330.60000610352</ele>
        <time>2021-04-05T13:43:39.000Z</time>
      </trkpt>
      <trkpt lat="46.55797" lon="5.42238">
        <ele>330</ele>
        <time>2021-04-05T13:43:40.000Z</time>
      </trkpt>
      <trkpt lat="46.55804" lon="5.42242">
        <ele>329.39999389648</ele>
        <time>2021-04-05T13:43:41.000Z</time>
      </trkpt>
      <trkpt lat="46.55812" lon="5.42244">
        <ele>328.60000610352</ele>
        <time>2021-04-05T13:43:42.000Z</time>
      </trkpt>
      <trkpt lat="46.5582" lon="5.42245">
        <ele>327.79998779297</ele>
        <time>2021-04-05T13:43:43.000Z</time>
      </trkpt>
      <trkpt lat="46.55828" lon="5.42245">
        <ele>327.39999389648</ele>
        <time>2021-04-05T13:43:44.000Z</time>
      </trkpt>
      <trkpt lat="46.55837" lon="5.42245">
        <ele>327</ele>
        <time>2021-04-05T13:43:45.000Z</time>
      </trkpt>
      <trkpt lat="46.55844" lon="5.42245">
        <ele>326.79998779297</ele>
        <time>2021-04-05T13:43:46.000Z</time>
      </trkpt>
      <trkpt lat="46.55851" lon="5.42246">
        <ele>326.60000610352</ele>
        <time>2021-04-05T13:43:47.000Z</time>
      </trkpt>
      <trkpt lat="46.55858" lon="5.42247">
        <ele>326.39999389648</ele>
        <time>2021-04-05T13:43:48.000Z</time>
      </trkpt>
      <trkpt lat="46.55862" lon="5.42252">
        <ele>326</ele>
        <time>2021-04-05T13:43:49.000Z</time>
      </trkpt>
      <trkpt lat="46.5587" lon="5.42266">
        <ele>325.39999389648</ele>
        <time>2021-04-05T13:43:51.000Z</time>
      </trkpt>
      <trkpt lat="46.55874" lon="5.42274">
        <ele>325.20001220703</ele>
        <time>2021-04-05T13:43:52.000Z</time>
      </trkpt>
      <trkpt lat="46.5588" lon="5.4228">
        <ele>325</ele>
        <time>2021-04-05T13:43:53.000Z</time>
      </trkpt>
      <trkpt lat="46.55887" lon="5.42283">
        <ele>323.20001220703</ele>
        <time>2021-04-05T13:43:54.000Z</time>
      </trkpt>
      <trkpt lat="46.55894" lon="5.42282">
        <ele>323</ele>
        <time>2021-04-05T13:43:55.000Z</time>
      </trkpt>
      <trkpt lat="46.559" lon="5.42277">
        <ele>322.60000610352</ele>
        <time>2021-04-05T13:43:56.000Z</time>
      </trkpt>
      <trkpt lat="46.55906" lon="5.42269">
        <ele>322</ele>
        <time>2021-04-05T13:43:57.000Z</time>
      </trkpt>
      <trkpt lat="46.55915" lon="5.4225">
        <ele>321.39999389648</ele>
        <time>2021-04-05T13:43:59.000Z</time>
      </trkpt>
      <trkpt lat="46.55917" lon="5.4224">
        <ele>320.79998779297</ele>
        <time>2021-04-05T13:44:00.000Z</time>
      </trkpt>
      <trkpt lat="46.55917" lon="5.4223">
        <ele>320</ele>
        <time>2021-04-05T13:44:01.000Z</time>
      </trkpt>
      <trkpt lat="46.55914" lon="5.4222">
        <ele>319.60000610352</ele>
        <time>2021-04-05T13:44:02.000Z</time>
      </trkpt>
      <trkpt lat="46.55911" lon="5.42211">
        <ele>319</ele>
        <time>2021-04-05T13:44:03.000Z</time>
      </trkpt>
      <trkpt lat="46.55906" lon="5.42202">
        <ele>318.39999389648</ele>
        <time>2021-04-05T13:44:04.000Z</time>
      </trkpt>
      <trkpt lat="46.559" lon="5.42193">
        <ele>317.79998779297</ele>
        <time>2021-04-05T13:44:05.000Z</time>
      </trkpt>
      <trkpt lat="46.55895" lon="5.42184">
        <ele>317.20001220703</ele>
        <time>2021-04-05T13:44:06.000Z</time>
      </trkpt>
      <trkpt lat="46.55889" lon="5.42176">
        <ele>316.60000610352</ele>
        <time>2021-04-05T13:44:07.000Z</time>
      </trkpt>
      <trkpt lat="46.55883" lon="5.42168">
        <ele>315.79998779297</ele>
        <time>2021-04-05T13:44:08.000Z</time>
      </trkpt>
      <trkpt lat="46.55877" lon="5.4216">
        <ele>315.20001220703</ele>
        <time>2021-04-05T13:44:09.000Z</time>
      </trkpt>
      <trkpt lat="46.5587" lon="5.42153">
        <ele>314</ele>
        <time>2021-04-05T13:44:10.000Z</time>
      </trkpt>
      <trkpt lat="46.55863" lon="5.42147">
        <ele>313.60000610352</ele>
        <time>2021-04-05T13:44:11.000Z</time>
      </trkpt>
      <trkpt lat="46.55848" lon="5.42138">
        <ele>313.20001220703</ele>
        <time>2021-04-05T13:44:13.000Z</time>
      </trkpt>
      <trkpt lat="46.5584" lon="5.42134">
        <ele>312.60000610352</ele>
        <time>2021-04-05T13:44:14.000Z</time>
      </trkpt>
      <trkpt lat="46.55831" lon="5.4213">
        <ele>312</ele>
        <time>2021-04-05T13:44:15.000Z</time>
      </trkpt>
      <trkpt lat="46.55823" lon="5.42126">
        <ele>311.39999389648</ele>
        <time>2021-04-05T13:44:16.000Z</time>
      </trkpt>
      <trkpt lat="46.55815" lon="5.42122">
        <ele>311</ele>
        <time>2021-04-05T13:44:17.000Z</time>
      </trkpt>
      <trkpt lat="46.55808" lon="5.42116">
        <ele>310.39999389648</ele>
        <time>2021-04-05T13:44:18.000Z</time>
      </trkpt>
      <trkpt lat="46.55803" lon="5.4211">
        <ele>309.79998779297</ele>
        <time>2021-04-05T13:44:19.000Z</time>
      </trkpt>
      <trkpt lat="46.55803" lon="5.42094">
        <ele>308.79998779297</ele>
        <time>2021-04-05T13:44:21.000Z</time>
      </trkpt>
      <trkpt lat="46.55807" lon="5.42088">
        <ele>308</ele>
        <time>2021-04-05T13:44:22.000Z</time>
      </trkpt>
      <trkpt lat="46.55814" lon="5.42086">
        <ele>307.60000610352</ele>
        <time>2021-04-05T13:44:23.000Z</time>
      </trkpt>
      <trkpt lat="46.55821" lon="5.42087">
        <ele>306.79998779297</ele>
        <time>2021-04-05T13:44:24.000Z</time>
      </trkpt>
      <trkpt lat="46.55828" lon="5.42089">
        <ele>306.39999389648</ele>
        <time>2021-04-05T13:44:25.000Z</time>
      </trkpt>
      <trkpt lat="46.55843" lon="5.42093">
        <ele>306</ele>
        <time>2021-04-05T13:44:27.000Z</time>
      </trkpt>
      <trkpt lat="46.55859" lon="5.42097">
        <ele>305.79998779297</ele>
        <time>2021-04-05T13:44:29.000Z</time>
      </trkpt>
      <trkpt lat="46.55875" lon="5.421">
        <ele>305.39999389648</ele>
        <time>2021-04-05T13:44:31.000Z</time>
      </trkpt>
      <trkpt lat="46.55893" lon="5.42101">
        <ele>304.79998779297</ele>
        <time>2021-04-05T13:44:33.000Z</time>
      </trkpt>
      <trkpt lat="46.5591" lon="5.42103">
        <ele>304</ele>
        <time>2021-04-05T13:44:35.000Z</time>
      </trkpt>
      <trkpt lat="46.55919" lon="5.42106">
        <ele>303.60000610352</ele>
        <time>2021-04-05T13:44:36.000Z</time>
      </trkpt>
      <trkpt lat="46.55928" lon="5.42109">
        <ele>303.39999389648</ele>
        <time>2021-04-05T13:44:37.000Z</time>
      </trkpt>
      <trkpt lat="46.55936" lon="5.42112">
        <ele>303.20001220703</ele>
        <time>2021-04-05T13:44:38.000Z</time>
      </trkpt>
      <trkpt lat="46.55945" lon="5.42115">
        <ele>302.79998779297</ele>
        <time>2021-04-05T13:44:39.000Z</time>
      </trkpt>
      <trkpt lat="46.55953" lon="5.42118">
        <ele>302.60000610352</ele>
        <time>2021-04-05T13:44:40.000Z</time>
      </trkpt>
      <trkpt lat="46.55962" lon="5.42121">
        <ele>302</ele>
        <time>2021-04-05T13:44:41.000Z</time>
      </trkpt>
      <trkpt lat="46.5597" lon="5.42123">
        <ele>301.20001220703</ele>
        <time>2021-04-05T13:44:42.000Z</time>
      </trkpt>
      <trkpt lat="46.55978" lon="5.42124">
        <ele>300.79998779297</ele>
        <time>2021-04-05T13:44:43.000Z</time>
      </trkpt>
      <trkpt lat="46.55986" lon="5.42125">
        <ele>300.20001220703</ele>
        <time>2021-04-05T13:44:44.000Z</time>
      </trkpt>
      <trkpt lat="46.55993" lon="5.42126">
        <ele>299.79998779297</ele>
        <time>2021-04-05T13:44:45.000Z</time>
      </trkpt>
      <trkpt lat="46.56" lon="5.42128">
        <ele>299.39999389648</ele>
        <time>2021-04-05T13:44:46.000Z</time>
      </trkpt>
      <trkpt lat="46.56006" lon="5.42132">
        <ele>299.20001220703</ele>
        <time>2021-04-05T13:44:47.000Z</time>
      </trkpt>
      <trkpt lat="46.56012" lon="5.42137">
        <ele>299</ele>
        <time>2021-04-05T13:44:48.000Z</time>
      </trkpt>
      <trkpt lat="46.56018" lon="5.42144">
        <ele>298.79998779297</ele>
        <time>2021-04-05T13:44:49.000Z</time>
      </trkpt>
      <trkpt lat="46.56024" lon="5.4215">
        <ele>298.60000610352</ele>
        <time>2021-04-05T13:44:50.000Z</time>
      </trkpt>
      <trkpt lat="46.5603" lon="5.42157">
        <ele>298.60000610352</ele>
        <time>2021-04-05T13:44:51.000Z</time>
      </trkpt>
      <trkpt lat="46.56036" lon="5.42163">
        <ele>298.39999389648</ele>
        <time>2021-04-05T13:44:52.000Z</time>
      </trkpt>
      <trkpt lat="46.56042" lon="5.42169">
        <ele>298.20001220703</ele>
        <time>2021-04-05T13:44:53.000Z</time>
      </trkpt>
      <trkpt lat="46.56052" lon="5.42181">
        <ele>298</ele>
        <time>2021-04-05T13:44:55.000Z</time>
      </trkpt>
      <trkpt lat="46.56056" lon="5.42187">
        <ele>297.79998779297</ele>
        <time>2021-04-05T13:44:56.000Z</time>
      </trkpt>
      <trkpt lat="46.56059" lon="5.42192">
        <ele>297.60000610352</ele>
        <time>2021-04-05T13:44:57.000Z</time>
      </trkpt>
      <trkpt lat="46.56069" lon="5.42201">
        <ele>297.20001220703</ele>
        <time>2021-04-05T13:45:00.000Z</time>
      </trkpt>
      <trkpt lat="46.56074" lon="5.42199">
        <ele>297</ele>
        <time>2021-04-05T13:45:01.000Z</time>
      </trkpt>
      <trkpt lat="46.56079" lon="5.42197">
        <ele>296.79998779297</ele>
        <time>2021-04-05T13:45:02.000Z</time>
      </trkpt>
      <trkpt lat="46.5609" lon="5.42188">
        <ele>296.60000610352</ele>
        <time>2021-04-05T13:45:04.000Z</time>
      </trkpt>
      <trkpt lat="46.56102" lon="5.42177">
        <ele>296.60000610352</ele>
        <time>2021-04-05T13:45:06.000Z</time>
      </trkpt>
      <trkpt lat="46.56113" lon="5.42164">
        <ele>296.39999389648</ele>
        <time>2021-04-05T13:45:08.000Z</time>
      </trkpt>
      <trkpt lat="46.56119" lon="5.42157">
        <ele>296.39999389648</ele>
        <time>2021-04-05T13:45:09.000Z</time>
      </trkpt>
      <trkpt lat="46.56124" lon="5.42149">
        <ele>296.20001220703</ele>
        <time>2021-04-05T13:45:10.000Z</time>
      </trkpt>
      <trkpt lat="46.56143" lon="5.42128">
        <ele>295.79998779297</ele>
        <time>2021-04-05T13:45:13.000Z</time>
      </trkpt>
      <trkpt lat="46.5615" lon="5.42122">
        <ele>295.20001220703</ele>
        <time>2021-04-05T13:45:14.000Z</time>
      </trkpt>
      <trkpt lat="46.56157" lon="5.42116">
        <ele>294.39999389648</ele>
        <time>2021-04-05T13:45:15.000Z</time>
      </trkpt>
      <trkpt lat="46.56163" lon="5.42109">
        <ele>294.20001220703</ele>
        <time>2021-04-05T13:45:16.000Z</time>
      </trkpt>
      <trkpt lat="46.56168" lon="5.42099">
        <ele>293.79998779297</ele>
        <time>2021-04-05T13:45:17.000Z</time>
      </trkpt>
      <trkpt lat="46.56173" lon="5.4209">
        <ele>293.39999389648</ele>
        <time>2021-04-05T13:45:18.000Z</time>
      </trkpt>
      <trkpt lat="46.56178" lon="5.4208">
        <ele>293.20001220703</ele>
        <time>2021-04-05T13:45:19.000Z</time>
      </trkpt>
      <trkpt lat="46.5619" lon="5.4206">
        <ele>292.79998779297</ele>
        <time>2021-04-05T13:45:21.000Z</time>
      </trkpt>
      <trkpt lat="46.56202" lon="5.42038">
        <ele>292.39999389648</ele>
        <time>2021-04-05T13:45:23.000Z</time>
      </trkpt>
      <trkpt lat="46.56208" lon="5.42027">
        <ele>292</ele>
        <time>2021-04-05T13:45:24.000Z</time>
      </trkpt>
      <trkpt lat="46.56214" lon="5.42016">
        <ele>291.20001220703</ele>
        <time>2021-04-05T13:45:25.000Z</time>
      </trkpt>
      <trkpt lat="46.5622" lon="5.42004">
        <ele>290.39999389648</ele>
        <time>2021-04-05T13:45:26.000Z</time>
      </trkpt>
      <trkpt lat="46.56226" lon="5.41991">
        <ele>289.60000610352</ele>
        <time>2021-04-05T13:45:27.000Z</time>
      </trkpt>
      <trkpt lat="46.56231" lon="5.41979">
        <ele>289</ele>
        <time>2021-04-05T13:45:28.000Z</time>
      </trkpt>
      <trkpt lat="46.56237" lon="5.41966">
        <ele>288.79998779297</ele>
        <time>2021-04-05T13:45:29.000Z</time>
      </trkpt>
      <trkpt lat="46.56242" lon="5.41953">
        <ele>287.60000610352</ele>
        <time>2021-04-05T13:45:30.000Z</time>
      </trkpt>
      <trkpt lat="46.56248" lon="5.4194">
        <ele>286.39999389648</ele>
        <time>2021-04-05T13:45:31.000Z</time>
      </trkpt>
      <trkpt lat="46.56255" lon="5.41928">
        <ele>285.39999389648</ele>
        <time>2021-04-05T13:45:32.000Z</time>
      </trkpt>
      <trkpt lat="46.56261" lon="5.41916">
        <ele>284.60000610352</ele>
        <time>2021-04-05T13:45:33.000Z</time>
      </trkpt>
      <trkpt lat="46.56268" lon="5.41904">
        <ele>284.20001220703</ele>
        <time>2021-04-05T13:45:34.000Z</time>
      </trkpt>
      <trkpt lat="46.56276" lon="5.41893">
        <ele>283.79998779297</ele>
        <time>2021-04-05T13:45:35.000Z</time>
      </trkpt>
      <trkpt lat="46.56292" lon="5.41873">
        <ele>282.79998779297</ele>
        <time>2021-04-05T13:45:37.000Z</time>
      </trkpt>
      <trkpt lat="46.563" lon="5.41863">
        <ele>282</ele>
        <time>2021-04-05T13:45:38.000Z</time>
      </trkpt>
      <trkpt lat="46.56309" lon="5.41855">
        <ele>281.39999389648</ele>
        <time>2021-04-05T13:45:39.000Z</time>
      </trkpt>
      <trkpt lat="46.56328" lon="5.4184">
        <ele>280.79998779297</ele>
        <time>2021-04-05T13:45:41.000Z</time>
      </trkpt>
      <trkpt lat="46.56338" lon="5.41834">
        <ele>280.39999389648</ele>
        <time>2021-04-05T13:45:42.000Z</time>
      </trkpt>
      <trkpt lat="46.56348" lon="5.41829">
        <ele>280</ele>
        <time>2021-04-05T13:45:43.000Z</time>
      </trkpt>
      <trkpt lat="46.56369" lon="5.41818">
        <ele>279.39999389648</ele>
        <time>2021-04-05T13:45:45.000Z</time>
      </trkpt>
      <trkpt lat="46.56379" lon="5.41812">
        <ele>279.20001220703</ele>
        <time>2021-04-05T13:45:46.000Z</time>
      </trkpt>
      <trkpt lat="46.5639" lon="5.41806">
        <ele>279</ele>
        <time>2021-04-05T13:45:47.000Z</time>
      </trkpt>
      <trkpt lat="46.56401" lon="5.41801">
        <ele>278.20001220703</ele>
        <time>2021-04-05T13:45:48.000Z</time>
      </trkpt>
      <trkpt lat="46.56412" lon="5.41797">
        <ele>277.20001220703</ele>
        <time>2021-04-05T13:45:49.000Z</time>
      </trkpt>
      <trkpt lat="46.56433" lon="5.41789">
        <ele>276</ele>
        <time>2021-04-05T13:45:51.000Z</time>
      </trkpt>
      <trkpt lat="46.56442" lon="5.41782">
        <ele>275.20001220703</ele>
        <time>2021-04-05T13:45:52.000Z</time>
      </trkpt>
      <trkpt lat="46.56451" lon="5.41773">
        <ele>274.39999389648</ele>
        <time>2021-04-05T13:45:53.000Z</time>
      </trkpt>
      <trkpt lat="46.56467" lon="5.4175">
        <ele>272.79998779297</ele>
        <time>2021-04-05T13:45:55.000Z</time>
      </trkpt>
      <trkpt lat="46.56484" lon="5.41727">
        <ele>271.60000610352</ele>
        <time>2021-04-05T13:45:57.000Z</time>
      </trkpt>
      <trkpt lat="46.56499" lon="5.41704">
        <ele>270.39999389648</ele>
        <time>2021-04-05T13:45:59.000Z</time>
      </trkpt>
      <trkpt lat="46.56506" lon="5.41693">
        <ele>270.20001220703</ele>
        <time>2021-04-05T13:46:00.000Z</time>
      </trkpt>
      <trkpt lat="46.56512" lon="5.41682">
        <ele>269.79998779297</ele>
        <time>2021-04-05T13:46:01.000Z</time>
      </trkpt>
      <trkpt lat="46.56518" lon="5.41672">
        <ele>269.39999389648</ele>
        <time>2021-04-05T13:46:02.000Z</time>
      </trkpt>
      <trkpt lat="46.56524" lon="5.41663">
        <ele>268.39999389648</ele>
        <time>2021-04-05T13:46:03.000Z</time>
      </trkpt>
      <trkpt lat="46.56529" lon="5.41655">
        <ele>267</ele>
        <time>2021-04-05T13:46:04.000Z</time>
      </trkpt>
      <trkpt lat="46.56535" lon="5.41647">
        <ele>265.39999389648</ele>
        <time>2021-04-05T13:46:05.000Z</time>
      </trkpt>
      <trkpt lat="46.56539" lon="5.41641">
        <ele>264.39999389648</ele>
        <time>2021-04-05T13:46:06.000Z</time>
      </trkpt>
      <trkpt lat="46.56544" lon="5.41636">
        <ele>263.79998779297</ele>
        <time>2021-04-05T13:46:07.000Z</time>
      </trkpt>
      <trkpt lat="46.56548" lon="5.41631">
        <ele>263.20001220703</ele>
        <time>2021-04-05T13:46:08.000Z</time>
      </trkpt>
      <trkpt lat="46.56552" lon="5.41627">
        <ele>262.39999389648</ele>
        <time>2021-04-05T13:46:09.000Z</time>
      </trkpt>
      <trkpt lat="46.56557" lon="5.41622">
        <ele>262</ele>
        <time>2021-04-05T13:46:10.000Z</time>
      </trkpt>
      <trkpt lat="46.56563" lon="5.41616">
        <ele>261.60000610352</ele>
        <time>2021-04-05T13:46:11.000Z</time>
      </trkpt>
      <trkpt lat="46.56568" lon="5.41609">
        <ele>261.39999389648</ele>
        <time>2021-04-05T13:46:12.000Z</time>
      </trkpt>
      <trkpt lat="46.56573" lon="5.41602">
        <ele>261</ele>
        <time>2021-04-05T13:46:13.000Z</time>
      </trkpt>
      <trkpt lat="46.56578" lon="5.41595">
        <ele>260.60000610352</ele>
        <time>2021-04-05T13:46:14.000Z</time>
      </trkpt>
      <trkpt lat="46.56584" lon="5.41588">
        <ele>260.39999389648</ele>
        <time>2021-04-05T13:46:15.000Z</time>
      </trkpt>
      <trkpt lat="46.56591" lon="5.41582">
        <ele>259.79998779297</ele>
        <time>2021-04-05T13:46:16.000Z</time>
      </trkpt>
      <trkpt lat="46.56599" lon="5.41579">
        <ele>259.60000610352</ele>
        <time>2021-04-05T13:46:17.000Z</time>
      </trkpt>
      <trkpt lat="46.56615" lon="5.41578">
        <ele>258.60000610352</ele>
        <time>2021-04-05T13:46:19.000Z</time>
      </trkpt>
      <trkpt lat="46.56623" lon="5.4158">
        <ele>258.39999389648</ele>
        <time>2021-04-05T13:46:20.000Z</time>
      </trkpt>
      <trkpt lat="46.5663" lon="5.41582">
        <ele>257.79998779297</ele>
        <time>2021-04-05T13:46:21.000Z</time>
      </trkpt>
      <trkpt lat="46.56638" lon="5.41585">
        <ele>257.60000610352</ele>
        <time>2021-04-05T13:46:22.000Z</time>
      </trkpt>
      <trkpt lat="46.56645" lon="5.41588">
        <ele>257.20001220703</ele>
        <time>2021-04-05T13:46:23.000Z</time>
      </trkpt>
      <trkpt lat="46.56653" lon="5.4159">
        <ele>257.20001220703</ele>
        <time>2021-04-05T13:46:24.000Z</time>
      </trkpt>
      <trkpt lat="46.56661" lon="5.41591">
        <ele>257.20001220703</ele>
        <time>2021-04-05T13:46:25.000Z</time>
      </trkpt>
      <trkpt lat="46.56676" lon="5.41588">
        <ele>257.20001220703</ele>
        <time>2021-04-05T13:46:27.000Z</time>
      </trkpt>
      <trkpt lat="46.5669" lon="5.41576">
        <ele>257</ele>
        <time>2021-04-05T13:46:29.000Z</time>
      </trkpt>
      <trkpt lat="46.56696" lon="5.41568">
        <ele>257</ele>
        <time>2021-04-05T13:46:30.000Z</time>
      </trkpt>
      <trkpt lat="46.56701" lon="5.4156">
        <ele>257</ele>
        <time>2021-04-05T13:46:31.000Z</time>
      </trkpt>
      <trkpt lat="46.56713" lon="5.41542">
        <ele>256.79998779297</ele>
        <time>2021-04-05T13:46:33.000Z</time>
      </trkpt>
      <trkpt lat="46.56725" lon="5.41525">
        <ele>256.60000610352</ele>
        <time>2021-04-05T13:46:35.000Z</time>
      </trkpt>
      <trkpt lat="46.56738" lon="5.4151">
        <ele>256.60000610352</ele>
        <time>2021-04-05T13:46:37.000Z</time>
      </trkpt>
      <trkpt lat="46.56744" lon="5.41504">
        <ele>256.20001220703</ele>
        <time>2021-04-05T13:46:38.000Z</time>
      </trkpt>
      <trkpt lat="46.56751" lon="5.41498">
        <ele>256</ele>
        <time>2021-04-05T13:46:39.000Z</time>
      </trkpt>
      <trkpt lat="46.56764" lon="5.41487">
        <ele>255.60000610352</ele>
        <time>2021-04-05T13:46:41.000Z</time>
      </trkpt>
      <trkpt lat="46.56778" lon="5.41477">
        <ele>255.19999694824</ele>
        <time>2021-04-05T13:46:43.000Z</time>
      </trkpt>
      <trkpt lat="46.5679" lon="5.41465">
        <ele>254.80000305176</ele>
        <time>2021-04-05T13:46:45.000Z</time>
      </trkpt>
      <trkpt lat="46.568" lon="5.41456">
        <ele>254.80000305176</ele>
        <time>2021-04-05T13:46:47.000Z</time>
      </trkpt>
      <trkpt lat="46.56805" lon="5.41443">
        <ele>254.60000610352</ele>
        <time>2021-04-05T13:46:49.000Z</time>
      </trkpt>
      <trkpt lat="46.56805" lon="5.41434">
        <ele>254.60000610352</ele>
        <time>2021-04-05T13:46:50.000Z</time>
      </trkpt>
      <trkpt lat="46.56803" lon="5.41425">
        <ele>254.39999389648</ele>
        <time>2021-04-05T13:46:51.000Z</time>
      </trkpt>
      <trkpt lat="46.56795" lon="5.41409">
        <ele>254.19999694824</ele>
        <time>2021-04-05T13:46:53.000Z</time>
      </trkpt>
      <trkpt lat="46.56791" lon="5.41401">
        <ele>254.19999694824</ele>
        <time>2021-04-05T13:46:54.000Z</time>
      </trkpt>
      <trkpt lat="46.56786" lon="5.41393">
        <ele>254.19999694824</ele>
        <time>2021-04-05T13:46:55.000Z</time>
      </trkpt>
      <trkpt lat="46.56781" lon="5.41385">
        <ele>254</ele>
        <time>2021-04-05T13:46:56.000Z</time>
      </trkpt>
      <trkpt lat="46.56777" lon="5.41377">
        <ele>254.19999694824</ele>
        <time>2021-04-05T13:46:57.000Z</time>
      </trkpt>
      <trkpt lat="46.56767" lon="5.41361">
        <ele>253.80000305176</ele>
        <time>2021-04-05T13:46:59.000Z</time>
      </trkpt>
      <trkpt lat="46.56763" lon="5.41353">
        <ele>253.19999694824</ele>
        <time>2021-04-05T13:47:00.000Z</time>
      </trkpt>
      <trkpt lat="46.56758" lon="5.41345">
        <ele>252.60000610352</ele>
        <time>2021-04-05T13:47:01.000Z</time>
      </trkpt>
      <trkpt lat="46.56754" lon="5.41337">
        <ele>251.80000305176</ele>
        <time>2021-04-05T13:47:02.000Z</time>
      </trkpt>
      <trkpt lat="46.56749" lon="5.41329">
        <ele>251.60000610352</ele>
        <time>2021-04-05T13:47:03.000Z</time>
      </trkpt>
      <trkpt lat="46.5674" lon="5.41312">
        <ele>251</ele>
        <time>2021-04-05T13:47:05.000Z</time>
      </trkpt>
      <trkpt lat="46.56736" lon="5.41303">
        <ele>250.80000305176</ele>
        <time>2021-04-05T13:47:06.000Z</time>
      </trkpt>
      <trkpt lat="46.56733" lon="5.41293">
        <ele>250.80000305176</ele>
        <time>2021-04-05T13:47:07.000Z</time>
      </trkpt>
      <trkpt lat="46.5673" lon="5.41283">
        <ele>250.60000610352</ele>
        <time>2021-04-05T13:47:08.000Z</time>
      </trkpt>
      <trkpt lat="46.56729" lon="5.41272">
        <ele>250.39999389648</ele>
        <time>2021-04-05T13:47:09.000Z</time>
      </trkpt>
      <trkpt lat="46.56732" lon="5.4125">
        <ele>250.19999694824</ele>
        <time>2021-04-05T13:47:11.000Z</time>
      </trkpt>
      <trkpt lat="46.56738" lon="5.41229">
        <ele>250.19999694824</ele>
        <time>2021-04-05T13:47:13.000Z</time>
      </trkpt>
      <trkpt lat="46.56745" lon="5.41209">
        <ele>250.19999694824</ele>
        <time>2021-04-05T13:47:15.000Z</time>
      </trkpt>
      <trkpt lat="46.56752" lon="5.41189">
        <ele>250</ele>
        <time>2021-04-05T13:47:17.000Z</time>
      </trkpt>
      <trkpt lat="46.56758" lon="5.41169">
        <ele>250</ele>
        <time>2021-04-05T13:47:19.000Z</time>
      </trkpt>
      <trkpt lat="46.56764" lon="5.4115">
        <ele>250</ele>
        <time>2021-04-05T13:47:21.000Z</time>
      </trkpt>
      <trkpt lat="46.56768" lon="5.41129">
        <ele>250</ele>
        <time>2021-04-05T13:47:23.000Z</time>
      </trkpt>
      <trkpt lat="46.56771" lon="5.41107">
        <ele>250</ele>
        <time>2021-04-05T13:47:25.000Z</time>
      </trkpt>
      <trkpt lat="46.56776" lon="5.41086">
        <ele>250</ele>
        <time>2021-04-05T13:47:27.000Z</time>
      </trkpt>
      <trkpt lat="46.56779" lon="5.41075">
        <ele>250</ele>
        <time>2021-04-05T13:47:28.000Z</time>
      </trkpt>
      <trkpt lat="46.56783" lon="5.41065">
        <ele>250</ele>
        <time>2021-04-05T13:47:29.000Z</time>
      </trkpt>
      <trkpt lat="46.5679" lon="5.41045">
        <ele>249.80000305176</ele>
        <time>2021-04-05T13:47:31.000Z</time>
      </trkpt>
      <trkpt lat="46.56798" lon="5.41025">
        <ele>249.39999389648</ele>
        <time>2021-04-05T13:47:33.000Z</time>
      </trkpt>
      <trkpt lat="46.56806" lon="5.41005">
        <ele>249</ele>
        <time>2021-04-05T13:47:35.000Z</time>
      </trkpt>
      <trkpt lat="46.5681" lon="5.40995">
        <ele>248.80000305176</ele>
        <time>2021-04-05T13:47:36.000Z</time>
      </trkpt>
      <trkpt lat="46.56814" lon="5.40985">
        <ele>248.80000305176</ele>
        <time>2021-04-05T13:47:37.000Z</time>
      </trkpt>
      <trkpt lat="46.56818" lon="5.40975">
        <ele>248.80000305176</ele>
        <time>2021-04-05T13:47:38.000Z</time>
      </trkpt>
      <trkpt lat="46.56822" lon="5.40964">
        <ele>248.80000305176</ele>
        <time>2021-04-05T13:47:39.000Z</time>
      </trkpt>
      <trkpt lat="46.56829" lon="5.40944">
        <ele>248.60000610352</ele>
        <time>2021-04-05T13:47:41.000Z</time>
      </trkpt>
      <trkpt lat="46.56837" lon="5.40923">
        <ele>248.39999389648</ele>
        <time>2021-04-05T13:47:43.000Z</time>
      </trkpt>
      <trkpt lat="46.56841" lon="5.40913">
        <ele>248.39999389648</ele>
        <time>2021-04-05T13:47:44.000Z</time>
      </trkpt>
      <trkpt lat="46.56845" lon="5.40902">
        <ele>248.19999694824</ele>
        <time>2021-04-05T13:47:45.000Z</time>
      </trkpt>
      <trkpt lat="46.56854" lon="5.40881">
        <ele>248</ele>
        <time>2021-04-05T13:47:47.000Z</time>
      </trkpt>
      <trkpt lat="46.56863" lon="5.4086">
        <ele>248</ele>
        <time>2021-04-05T13:47:49.000Z</time>
      </trkpt>
      <trkpt lat="46.56868" lon="5.4085">
        <ele>247.60000610352</ele>
        <time>2021-04-05T13:47:50.000Z</time>
      </trkpt>
      <trkpt lat="46.56873" lon="5.4084">
        <ele>247.60000610352</ele>
        <time>2021-04-05T13:47:51.000Z</time>
      </trkpt>
      <trkpt lat="46.56878" lon="5.4083">
        <ele>247.19999694824</ele>
        <time>2021-04-05T13:47:52.000Z</time>
      </trkpt>
      <trkpt lat="46.56882" lon="5.40821">
        <ele>247</ele>
        <time>2021-04-05T13:47:53.000Z</time>
      </trkpt>
      <trkpt lat="46.56887" lon="5.40811">
        <ele>246.80000305176</ele>
        <time>2021-04-05T13:47:54.000Z</time>
      </trkpt>
      <trkpt lat="46.56892" lon="5.40802">
        <ele>246.60000610352</ele>
        <time>2021-04-05T13:47:55.000Z</time>
      </trkpt>
      <trkpt lat="46.56901" lon="5.40783">
        <ele>246.19999694824</ele>
        <time>2021-04-05T13:47:57.000Z</time>
      </trkpt>
      <trkpt lat="46.56909" lon="5.40764">
        <ele>246</ele>
        <time>2021-04-05T13:47:59.000Z</time>
      </trkpt>
      <trkpt lat="46.56916" lon="5.40743">
        <ele>245.80000305176</ele>
        <time>2021-04-05T13:48:01.000Z</time>
      </trkpt>
      <trkpt lat="46.56923" lon="5.40721">
        <ele>245.80000305176</ele>
        <time>2021-04-05T13:48:03.000Z</time>
      </trkpt>
      <trkpt lat="46.56929" lon="5.40699">
        <ele>245.39999389648</ele>
        <time>2021-04-05T13:48:05.000Z</time>
      </trkpt>
      <trkpt lat="46.56931" lon="5.40688">
        <ele>245.39999389648</ele>
        <time>2021-04-05T13:48:06.000Z</time>
      </trkpt>
      <trkpt lat="46.56933" lon="5.40677">
        <ele>245.19999694824</ele>
        <time>2021-04-05T13:48:07.000Z</time>
      </trkpt>
      <trkpt lat="46.56939" lon="5.40655">
        <ele>245</ele>
        <time>2021-04-05T13:48:09.000Z</time>
      </trkpt>
      <trkpt lat="46.56944" lon="5.40633">
        <ele>244.80000305176</ele>
        <time>2021-04-05T13:48:11.000Z</time>
      </trkpt>
      <trkpt lat="46.56947" lon="5.40623">
        <ele>244.60000610352</ele>
        <time>2021-04-05T13:48:12.000Z</time>
      </trkpt>
      <trkpt lat="46.5695" lon="5.40612">
        <ele>244.39999389648</ele>
        <time>2021-04-05T13:48:13.000Z</time>
      </trkpt>
      <trkpt lat="46.56957" lon="5.40591">
        <ele>244.19999694824</ele>
        <time>2021-04-05T13:48:15.000Z</time>
      </trkpt>
      <trkpt lat="46.56963" lon="5.40571">
        <ele>244</ele>
        <time>2021-04-05T13:48:17.000Z</time>
      </trkpt>
      <trkpt lat="46.5697" lon="5.4055">
        <ele>243.80000305176</ele>
        <time>2021-04-05T13:48:19.000Z</time>
      </trkpt>
      <trkpt lat="46.56976" lon="5.40529">
        <ele>243.80000305176</ele>
        <time>2021-04-05T13:48:21.000Z</time>
      </trkpt>
      <trkpt lat="46.5698" lon="5.40508">
        <ele>243.60000610352</ele>
        <time>2021-04-05T13:48:23.000Z</time>
      </trkpt>
      <trkpt lat="46.56983" lon="5.40486">
        <ele>243.60000610352</ele>
        <time>2021-04-05T13:48:25.000Z</time>
      </trkpt>
      <trkpt lat="46.56986" lon="5.40464">
        <ele>243.80000305176</ele>
        <time>2021-04-05T13:48:27.000Z</time>
      </trkpt>
      <trkpt lat="46.56989" lon="5.40443">
        <ele>243.80000305176</ele>
        <time>2021-04-05T13:48:29.000Z</time>
      </trkpt>
      <trkpt lat="46.56992" lon="5.40422">
        <ele>243.80000305176</ele>
        <time>2021-04-05T13:48:31.000Z</time>
      </trkpt>
      <trkpt lat="46.56994" lon="5.40411">
        <ele>243.60000610352</ele>
        <time>2021-04-05T13:48:32.000Z</time>
      </trkpt>
      <trkpt lat="46.56995" lon="5.40401">
        <ele>243.60000610352</ele>
        <time>2021-04-05T13:48:33.000Z</time>
      </trkpt>
      <trkpt lat="46.56998" lon="5.4038">
        <ele>243.39999389648</ele>
        <time>2021-04-05T13:48:35.000Z</time>
      </trkpt>
      <trkpt lat="46.57002" lon="5.40359">
        <ele>243.39999389648</ele>
        <time>2021-04-05T13:48:37.000Z</time>
      </trkpt>
      <trkpt lat="46.57007" lon="5.40338">
        <ele>243.39999389648</ele>
        <time>2021-04-05T13:48:39.000Z</time>
      </trkpt>
      <trkpt lat="46.57014" lon="5.40318">
        <ele>243.19999694824</ele>
        <time>2021-04-05T13:48:41.000Z</time>
      </trkpt>
      <trkpt lat="46.57022" lon="5.40299">
        <ele>242.80000305176</ele>
        <time>2021-04-05T13:48:43.000Z</time>
      </trkpt>
      <trkpt lat="46.57026" lon="5.40289">
        <ele>242.80000305176</ele>
        <time>2021-04-05T13:48:44.000Z</time>
      </trkpt>
      <trkpt lat="46.5703" lon="5.40279">
        <ele>242.80000305176</ele>
        <time>2021-04-05T13:48:45.000Z</time>
      </trkpt>
      <trkpt lat="46.57037" lon="5.4026">
        <ele>242.60000610352</ele>
        <time>2021-04-05T13:48:47.000Z</time>
      </trkpt>
      <trkpt lat="46.57045" lon="5.40241">
        <ele>242.60000610352</ele>
        <time>2021-04-05T13:48:49.000Z</time>
      </trkpt>
      <trkpt lat="46.57052" lon="5.40221">
        <ele>242.60000610352</ele>
        <time>2021-04-05T13:48:51.000Z</time>
      </trkpt>
      <trkpt lat="46.5706" lon="5.40202">
        <ele>242.39999389648</ele>
        <time>2021-04-05T13:48:53.000Z</time>
      </trkpt>
      <trkpt lat="46.5707" lon="5.40183">
        <ele>242.39999389648</ele>
        <time>2021-04-05T13:48:55.000Z</time>
      </trkpt>
      <trkpt lat="46.57081" lon="5.40166">
        <ele>242</ele>
        <time>2021-04-05T13:48:57.000Z</time>
      </trkpt>
      <trkpt lat="46.57092" lon="5.4015">
        <ele>241.80000305176</ele>
        <time>2021-04-05T13:48:59.000Z</time>
      </trkpt>
      <trkpt lat="46.57097" lon="5.40142">
        <ele>241.60000610352</ele>
        <time>2021-04-05T13:49:00.000Z</time>
      </trkpt>
      <trkpt lat="46.57103" lon="5.40133">
        <ele>241.60000610352</ele>
        <time>2021-04-05T13:49:01.000Z</time>
      </trkpt>
      <trkpt lat="46.57112" lon="5.40115">
        <ele>241.19999694824</ele>
        <time>2021-04-05T13:49:03.000Z</time>
      </trkpt>
      <trkpt lat="46.57119" lon="5.40095">
        <ele>241</ele>
        <time>2021-04-05T13:49:05.000Z</time>
      </trkpt>
      <trkpt lat="46.57125" lon="5.40074">
        <ele>240.60000610352</ele>
        <time>2021-04-05T13:49:07.000Z</time>
      </trkpt>
      <trkpt lat="46.57129" lon="5.40054">
        <ele>240.39999389648</ele>
        <time>2021-04-05T13:49:09.000Z</time>
      </trkpt>
      <trkpt lat="46.57133" lon="5.40034">
        <ele>240.19999694824</ele>
        <time>2021-04-05T13:49:11.000Z</time>
      </trkpt>
      <trkpt lat="46.57137" lon="5.40014">
        <ele>240.39999389648</ele>
        <time>2021-04-05T13:49:13.000Z</time>
      </trkpt>
      <trkpt lat="46.57141" lon="5.39995">
        <ele>240.39999389648</ele>
        <time>2021-04-05T13:49:15.000Z</time>
      </trkpt>
      <trkpt lat="46.57147" lon="5.39976">
        <ele>240.39999389648</ele>
        <time>2021-04-05T13:49:17.000Z</time>
      </trkpt>
      <trkpt lat="46.5715" lon="5.39966">
        <ele>240.39999389648</ele>
        <time>2021-04-05T13:49:18.000Z</time>
      </trkpt>
      <trkpt lat="46.57153" lon="5.39957">
        <ele>240.39999389648</ele>
        <time>2021-04-05T13:49:19.000Z</time>
      </trkpt>
      <trkpt lat="46.5716" lon="5.39939">
        <ele>240.39999389648</ele>
        <time>2021-04-05T13:49:21.000Z</time>
      </trkpt>
      <trkpt lat="46.57168" lon="5.3992">
        <ele>240.39999389648</ele>
        <time>2021-04-05T13:49:23.000Z</time>
      </trkpt>
      <trkpt lat="46.57175" lon="5.39901">
        <ele>240.60000610352</ele>
        <time>2021-04-05T13:49:25.000Z</time>
      </trkpt>
      <trkpt lat="46.57179" lon="5.39891">
        <ele>240.60000610352</ele>
        <time>2021-04-05T13:49:26.000Z</time>
      </trkpt>
      <trkpt lat="46.57182" lon="5.39881">
        <ele>240.60000610352</ele>
        <time>2021-04-05T13:49:27.000Z</time>
      </trkpt>
      <trkpt lat="46.57189" lon="5.39862">
        <ele>240.60000610352</ele>
        <time>2021-04-05T13:49:29.000Z</time>
      </trkpt>
      <trkpt lat="46.57195" lon="5.39842">
        <ele>240.60000610352</ele>
        <time>2021-04-05T13:49:31.000Z</time>
      </trkpt>
      <trkpt lat="46.57203" lon="5.39823">
        <ele>240.60000610352</ele>
        <time>2021-04-05T13:49:33.000Z</time>
      </trkpt>
      <trkpt lat="46.57206" lon="5.39813">
        <ele>240.39999389648</ele>
        <time>2021-04-05T13:49:34.000Z</time>
      </trkpt>
      <trkpt lat="46.5721" lon="5.39803">
        <ele>240.19999694824</ele>
        <time>2021-04-05T13:49:35.000Z</time>
      </trkpt>
      <trkpt lat="46.57218" lon="5.39783">
        <ele>240</ele>
        <time>2021-04-05T13:49:37.000Z</time>
      </trkpt>
      <trkpt lat="46.57226" lon="5.39764">
        <ele>239.80000305176</ele>
        <time>2021-04-05T13:49:39.000Z</time>
      </trkpt>
      <trkpt lat="46.57236" lon="5.39745">
        <ele>239</ele>
        <time>2021-04-05T13:49:41.000Z</time>
      </trkpt>
      <trkpt lat="46.5724" lon="5.39736">
        <ele>238.80000305176</ele>
        <time>2021-04-05T13:49:42.000Z</time>
      </trkpt>
      <trkpt lat="46.57245" lon="5.39727">
        <ele>238.39999389648</ele>
        <time>2021-04-05T13:49:43.000Z</time>
      </trkpt>
      <trkpt lat="46.57255" lon="5.39708">
        <ele>237.80000305176</ele>
        <time>2021-04-05T13:49:45.000Z</time>
      </trkpt>
      <trkpt lat="46.57265" lon="5.3969">
        <ele>237.60000610352</ele>
        <time>2021-04-05T13:49:47.000Z</time>
      </trkpt>
      <trkpt lat="46.57274" lon="5.39671">
        <ele>237.39999389648</ele>
        <time>2021-04-05T13:49:49.000Z</time>
      </trkpt>
      <trkpt lat="46.57282" lon="5.39651">
        <ele>237.39999389648</ele>
        <time>2021-04-05T13:49:51.000Z</time>
      </trkpt>
      <trkpt lat="46.5729" lon="5.3963">
        <ele>237.19999694824</ele>
        <time>2021-04-05T13:49:53.000Z</time>
      </trkpt>
      <trkpt lat="46.57297" lon="5.39608">
        <ele>237</ele>
        <time>2021-04-05T13:49:55.000Z</time>
      </trkpt>
      <trkpt lat="46.57305" lon="5.39586">
        <ele>237</ele>
        <time>2021-04-05T13:49:57.000Z</time>
      </trkpt>
      <trkpt lat="46.57313" lon="5.39564">
        <ele>237</ele>
        <time>2021-04-05T13:49:59.000Z</time>
      </trkpt>
      <trkpt lat="46.57322" lon="5.39542">
        <ele>236.80000305176</ele>
        <time>2021-04-05T13:50:01.000Z</time>
      </trkpt>
      <trkpt lat="46.5733" lon="5.3952">
        <ele>236.60000610352</ele>
        <time>2021-04-05T13:50:03.000Z</time>
      </trkpt>
      <trkpt lat="46.57339" lon="5.39497">
        <ele>236.19999694824</ele>
        <time>2021-04-05T13:50:05.000Z</time>
      </trkpt>
      <trkpt lat="46.57347" lon="5.39475">
        <ele>235.39999389648</ele>
        <time>2021-04-05T13:50:07.000Z</time>
      </trkpt>
      <trkpt lat="46.57351" lon="5.39464">
        <ele>234.80000305176</ele>
        <time>2021-04-05T13:50:08.000Z</time>
      </trkpt>
      <trkpt lat="46.57355" lon="5.39453">
        <ele>234.80000305176</ele>
        <time>2021-04-05T13:50:09.000Z</time>
      </trkpt>
      <trkpt lat="46.57358" lon="5.39442">
        <ele>234.60000610352</ele>
        <time>2021-04-05T13:50:10.000Z</time>
      </trkpt>
      <trkpt lat="46.57361" lon="5.39431">
        <ele>234.39999389648</ele>
        <time>2021-04-05T13:50:11.000Z</time>
      </trkpt>
      <trkpt lat="46.57365" lon="5.39409">
        <ele>234.19999694824</ele>
        <time>2021-04-05T13:50:13.000Z</time>
      </trkpt>
      <trkpt lat="46.5737" lon="5.39387">
        <ele>234.19999694824</ele>
        <time>2021-04-05T13:50:15.000Z</time>
      </trkpt>
      <trkpt lat="46.57372" lon="5.39376">
        <ele>234</ele>
        <time>2021-04-05T13:50:16.000Z</time>
      </trkpt>
      <trkpt lat="46.57374" lon="5.39365">
        <ele>234</ele>
        <time>2021-04-05T13:50:17.000Z</time>
      </trkpt>
      <trkpt lat="46.57378" lon="5.39344">
        <ele>234</ele>
        <time>2021-04-05T13:50:19.000Z</time>
      </trkpt>
      <trkpt lat="46.57382" lon="5.39323">
        <ele>233.80000305176</ele>
        <time>2021-04-05T13:50:21.000Z</time>
      </trkpt>
      <trkpt lat="46.57386" lon="5.39302">
        <ele>234</ele>
        <time>2021-04-05T13:50:23.000Z</time>
      </trkpt>
      <trkpt lat="46.57388" lon="5.39292">
        <ele>233.80000305176</ele>
        <time>2021-04-05T13:50:24.000Z</time>
      </trkpt>
      <trkpt lat="46.5739" lon="5.39281">
        <ele>233.80000305176</ele>
        <time>2021-04-05T13:50:25.000Z</time>
      </trkpt>
      <trkpt lat="46.57394" lon="5.39258">
        <ele>233.80000305176</ele>
        <time>2021-04-05T13:50:27.000Z</time>
      </trkpt>
      <trkpt lat="46.574" lon="5.39233">
        <ele>233.80000305176</ele>
        <time>2021-04-05T13:50:29.000Z</time>
      </trkpt>
      <trkpt lat="46.57402" lon="5.39221">
        <ele>233.80000305176</ele>
        <time>2021-04-05T13:50:30.000Z</time>
      </trkpt>
      <trkpt lat="46.57405" lon="5.39208">
        <ele>233.39999389648</ele>
        <time>2021-04-05T13:50:31.000Z</time>
      </trkpt>
      <trkpt lat="46.57412" lon="5.39181">
        <ele>233.19999694824</ele>
        <time>2021-04-05T13:50:33.000Z</time>
      </trkpt>
      <trkpt lat="46.57415" lon="5.39168">
        <ele>233</ele>
        <time>2021-04-05T13:50:34.000Z</time>
      </trkpt>
      <trkpt lat="46.57419" lon="5.39154">
        <ele>232.80000305176</ele>
        <time>2021-04-05T13:50:35.000Z</time>
      </trkpt>
      <trkpt lat="46.57421" lon="5.39139">
        <ele>232.39999389648</ele>
        <time>2021-04-05T13:50:36.000Z</time>
      </trkpt>
      <trkpt lat="46.57423" lon="5.39124">
        <ele>230.19999694824</ele>
        <time>2021-04-05T13:50:37.000Z</time>
      </trkpt>
      <trkpt lat="46.57425" lon="5.39109">
        <ele>228.80000305176</ele>
        <time>2021-04-05T13:50:38.000Z</time>
      </trkpt>
      <trkpt lat="46.57426" lon="5.39094">
        <ele>228</ele>
        <time>2021-04-05T13:50:39.000Z</time>
      </trkpt>
      <trkpt lat="46.57428" lon="5.39079">
        <ele>227.39999389648</ele>
        <time>2021-04-05T13:50:40.000Z</time>
      </trkpt>
      <trkpt lat="46.57429" lon="5.39065">
        <ele>226.60000610352</ele>
        <time>2021-04-05T13:50:41.000Z</time>
      </trkpt>
      <trkpt lat="46.5743" lon="5.3905">
        <ele>226.19999694824</ele>
        <time>2021-04-05T13:50:42.000Z</time>
      </trkpt>
      <trkpt lat="46.5743" lon="5.39035">
        <ele>225.80000305176</ele>
        <time>2021-04-05T13:50:43.000Z</time>
      </trkpt>
      <trkpt lat="46.57431" lon="5.39021">
        <ele>225</ele>
        <time>2021-04-05T13:50:44.000Z</time>
      </trkpt>
      <trkpt lat="46.5743" lon="5.39006">
        <ele>224.60000610352</ele>
        <time>2021-04-05T13:50:45.000Z</time>
      </trkpt>
      <trkpt lat="46.5743" lon="5.38992">
        <ele>224</ele>
        <time>2021-04-05T13:50:46.000Z</time>
      </trkpt>
      <trkpt lat="46.5743" lon="5.38978">
        <ele>223.60000610352</ele>
        <time>2021-04-05T13:50:47.000Z</time>
      </trkpt>
      <trkpt lat="46.5743" lon="5.38965">
        <ele>223.39999389648</ele>
        <time>2021-04-05T13:50:48.000Z</time>
      </trkpt>
      <trkpt lat="46.5743" lon="5.38951">
        <ele>223.19999694824</ele>
        <time>2021-04-05T13:50:49.000Z</time>
      </trkpt>
      <trkpt lat="46.57432" lon="5.38924">
        <ele>223</ele>
        <time>2021-04-05T13:50:51.000Z</time>
      </trkpt>
      <trkpt lat="46.57435" lon="5.38898">
        <ele>222.80000305176</ele>
        <time>2021-04-05T13:50:53.000Z</time>
      </trkpt>
      <trkpt lat="46.5744" lon="5.38873">
        <ele>222.60000610352</ele>
        <time>2021-04-05T13:50:55.000Z</time>
      </trkpt>
      <trkpt lat="46.57449" lon="5.38852">
        <ele>222.39999389648</ele>
        <time>2021-04-05T13:50:57.000Z</time>
      </trkpt>
      <trkpt lat="46.57462" lon="5.38836">
        <ele>222.39999389648</ele>
        <time>2021-04-05T13:50:59.000Z</time>
      </trkpt>
      <trkpt lat="46.57469" lon="5.3883">
        <ele>222.39999389648</ele>
        <time>2021-04-05T13:51:00.000Z</time>
      </trkpt>
      <trkpt lat="46.57477" lon="5.38826">
        <ele>222.39999389648</ele>
        <time>2021-04-05T13:51:01.000Z</time>
      </trkpt>
      <trkpt lat="46.57485" lon="5.38823">
        <ele>222.39999389648</ele>
        <time>2021-04-05T13:51:02.000Z</time>
      </trkpt>
      <trkpt lat="46.57493" lon="5.3882">
        <ele>222.39999389648</ele>
        <time>2021-04-05T13:51:03.000Z</time>
      </trkpt>
      <trkpt lat="46.57501" lon="5.38817">
        <ele>222.39999389648</ele>
        <time>2021-04-05T13:51:04.000Z</time>
      </trkpt>
      <trkpt lat="46.57508" lon="5.38815">
        <ele>222.39999389648</ele>
        <time>2021-04-05T13:51:05.000Z</time>
      </trkpt>
      <trkpt lat="46.57523" lon="5.38811">
        <ele>222.39999389648</ele>
        <time>2021-04-05T13:51:07.000Z</time>
      </trkpt>
      <trkpt lat="46.57538" lon="5.38805">
        <ele>222.60000610352</ele>
        <time>2021-04-05T13:51:09.000Z</time>
      </trkpt>
      <trkpt lat="46.57545" lon="5.38801">
        <ele>222.80000305176</ele>
        <time>2021-04-05T13:51:10.000Z</time>
      </trkpt>
      <trkpt lat="46.57551" lon="5.38796">
        <ele>223</ele>
        <time>2021-04-05T13:51:11.000Z</time>
      </trkpt>
      <trkpt lat="46.57561" lon="5.38781">
        <ele>223.80000305176</ele>
        <time>2021-04-05T13:51:13.000Z</time>
      </trkpt>
      <trkpt lat="46.57565" lon="5.38772">
        <ele>224</ele>
        <time>2021-04-05T13:51:14.000Z</time>
      </trkpt>
      <trkpt lat="46.57567" lon="5.38763">
        <ele>224</ele>
        <time>2021-04-05T13:51:15.000Z</time>
      </trkpt>
      <trkpt lat="46.57569" lon="5.38744">
        <ele>224.60000610352</ele>
        <time>2021-04-05T13:51:17.000Z</time>
      </trkpt>
      <trkpt lat="46.5757" lon="5.38734">
        <ele>224.80000305176</ele>
        <time>2021-04-05T13:51:18.000Z</time>
      </trkpt>
      <trkpt lat="46.57571" lon="5.38725">
        <ele>225</ele>
        <time>2021-04-05T13:51:19.000Z</time>
      </trkpt>
      <trkpt lat="46.57573" lon="5.38707">
        <ele>225.19999694824</ele>
        <time>2021-04-05T13:51:21.000Z</time>
      </trkpt>
      <trkpt lat="46.57579" lon="5.38688">
        <ele>225.39999389648</ele>
        <time>2021-04-05T13:51:23.000Z</time>
      </trkpt>
      <trkpt lat="46.57587" lon="5.38671">
        <ele>225.39999389648</ele>
        <time>2021-04-05T13:51:25.000Z</time>
      </trkpt>
      <trkpt lat="46.57592" lon="5.38662">
        <ele>225.60000610352</ele>
        <time>2021-04-05T13:51:26.000Z</time>
      </trkpt>
      <trkpt lat="46.57596" lon="5.38654">
        <ele>225.60000610352</ele>
        <time>2021-04-05T13:51:27.000Z</time>
      </trkpt>
      <trkpt lat="46.57603" lon="5.38633">
        <ele>225.60000610352</ele>
        <time>2021-04-05T13:51:29.000Z</time>
      </trkpt>
      <trkpt lat="46.57605" lon="5.38621">
        <ele>225.60000610352</ele>
        <time>2021-04-05T13:51:30.000Z</time>
      </trkpt>
      <trkpt lat="46.57606" lon="5.3861">
        <ele>225.60000610352</ele>
        <time>2021-04-05T13:51:31.000Z</time>
      </trkpt>
      <trkpt lat="46.57604" lon="5.38586">
        <ele>225.60000610352</ele>
        <time>2021-04-05T13:51:33.000Z</time>
      </trkpt>
      <trkpt lat="46.57602" lon="5.38575">
        <ele>225.60000610352</ele>
        <time>2021-04-05T13:51:34.000Z</time>
      </trkpt>
      <trkpt lat="46.57599" lon="5.38564">
        <ele>225.19999694824</ele>
        <time>2021-04-05T13:51:35.000Z</time>
      </trkpt>
      <trkpt lat="46.57595" lon="5.38542">
        <ele>224.80000305176</ele>
        <time>2021-04-05T13:51:37.000Z</time>
      </trkpt>
      <trkpt lat="46.57592" lon="5.38519">
        <ele>224.19999694824</ele>
        <time>2021-04-05T13:51:39.000Z</time>
      </trkpt>
      <trkpt lat="46.5759" lon="5.38495">
        <ele>223.39999389648</ele>
        <time>2021-04-05T13:51:41.000Z</time>
      </trkpt>
      <trkpt lat="46.57591" lon="5.38483">
        <ele>223.19999694824</ele>
        <time>2021-04-05T13:51:42.000Z</time>
      </trkpt>
      <trkpt lat="46.57592" lon="5.38471">
        <ele>223.19999694824</ele>
        <time>2021-04-05T13:51:43.000Z</time>
      </trkpt>
      <trkpt lat="46.57597" lon="5.38448">
        <ele>222.60000610352</ele>
        <time>2021-04-05T13:51:45.000Z</time>
      </trkpt>
      <trkpt lat="46.57601" lon="5.38437">
        <ele>222.60000610352</ele>
        <time>2021-04-05T13:51:46.000Z</time>
      </trkpt>
      <trkpt lat="46.57604" lon="5.38427">
        <ele>222.39999389648</ele>
        <time>2021-04-05T13:51:47.000Z</time>
      </trkpt>
      <trkpt lat="46.57609" lon="5.38405">
        <ele>222.19999694824</ele>
        <time>2021-04-05T13:51:49.000Z</time>
      </trkpt>
      <trkpt lat="46.57611" lon="5.38395">
        <ele>222</ele>
        <time>2021-04-05T13:51:50.000Z</time>
      </trkpt>
      <trkpt lat="46.57613" lon="5.38384">
        <ele>221.39999389648</ele>
        <time>2021-04-05T13:51:51.000Z</time>
      </trkpt>
      <trkpt lat="46.57614" lon="5.38374">
        <ele>221</ele>
        <time>2021-04-05T13:51:52.000Z</time>
      </trkpt>
      <trkpt lat="46.57616" lon="5.38365">
        <ele>220.80000305176</ele>
        <time>2021-04-05T13:51:53.000Z</time>
      </trkpt>
      <trkpt lat="46.57618" lon="5.38345">
        <ele>220.60000610352</ele>
        <time>2021-04-05T13:51:55.000Z</time>
      </trkpt>
      <trkpt lat="46.57619" lon="5.38326">
        <ele>220.60000610352</ele>
        <time>2021-04-05T13:51:57.000Z</time>
      </trkpt>
      <trkpt lat="46.57618" lon="5.38316">
        <ele>220.60000610352</ele>
        <time>2021-04-05T13:51:58.000Z</time>
      </trkpt>
      <trkpt lat="46.57616" lon="5.38306">
        <ele>220.60000610352</ele>
        <time>2021-04-05T13:51:59.000Z</time>
      </trkpt>
      <trkpt lat="46.5761" lon="5.38286">
        <ele>220.60000610352</ele>
        <time>2021-04-05T13:52:01.000Z</time>
      </trkpt>
      <trkpt lat="46.57606" lon="5.38277">
        <ele>220.60000610352</ele>
        <time>2021-04-05T13:52:02.000Z</time>
      </trkpt>
      <trkpt lat="46.57601" lon="5.38268">
        <ele>220.60000610352</ele>
        <time>2021-04-05T13:52:03.000Z</time>
      </trkpt>
      <trkpt lat="46.57596" lon="5.38259">
        <ele>220.60000610352</ele>
        <time>2021-04-05T13:52:04.000Z</time>
      </trkpt>
      <trkpt lat="46.57591" lon="5.38249">
        <ele>220.60000610352</ele>
        <time>2021-04-05T13:52:05.000Z</time>
      </trkpt>
      <trkpt lat="46.57578" lon="5.38232">
        <ele>220.60000610352</ele>
        <time>2021-04-05T13:52:07.000Z</time>
      </trkpt>
      <trkpt lat="46.57565" lon="5.38218">
        <ele>220.60000610352</ele>
        <time>2021-04-05T13:52:09.000Z</time>
      </trkpt>
      <trkpt lat="46.57552" lon="5.38208">
        <ele>219.60000610352</ele>
        <time>2021-04-05T13:52:11.000Z</time>
      </trkpt>
      <trkpt lat="46.57545" lon="5.38203">
        <ele>219.19999694824</ele>
        <time>2021-04-05T13:52:12.000Z</time>
      </trkpt>
      <trkpt lat="46.57538" lon="5.38198">
        <ele>218.80000305176</ele>
        <time>2021-04-05T13:52:13.000Z</time>
      </trkpt>
      <trkpt lat="46.57531" lon="5.38192">
        <ele>218.60000610352</ele>
        <time>2021-04-05T13:52:14.000Z</time>
      </trkpt>
      <trkpt lat="46.57524" lon="5.38187">
        <ele>218.60000610352</ele>
        <time>2021-04-05T13:52:15.000Z</time>
      </trkpt>
      <trkpt lat="46.57511" lon="5.38177">
        <ele>218.39999389648</ele>
        <time>2021-04-05T13:52:17.000Z</time>
      </trkpt>
      <trkpt lat="46.57497" lon="5.38166">
        <ele>218.19999694824</ele>
        <time>2021-04-05T13:52:19.000Z</time>
      </trkpt>
      <trkpt lat="46.57484" lon="5.38156">
        <ele>218.19999694824</ele>
        <time>2021-04-05T13:52:21.000Z</time>
      </trkpt>
      <trkpt lat="46.57471" lon="5.38146">
        <ele>218.19999694824</ele>
        <time>2021-04-05T13:52:23.000Z</time>
      </trkpt>
      <trkpt lat="46.57459" lon="5.38136">
        <ele>218.19999694824</ele>
        <time>2021-04-05T13:52:25.000Z</time>
      </trkpt>
      <trkpt lat="46.57446" lon="5.38127">
        <ele>218.19999694824</ele>
        <time>2021-04-05T13:52:27.000Z</time>
      </trkpt>
      <trkpt lat="46.57434" lon="5.38117">
        <ele>218.19999694824</ele>
        <time>2021-04-05T13:52:29.000Z</time>
      </trkpt>
      <trkpt lat="46.57422" lon="5.38108">
        <ele>218.39999389648</ele>
        <time>2021-04-05T13:52:31.000Z</time>
      </trkpt>
      <trkpt lat="46.5741" lon="5.38098">
        <ele>218.60000610352</ele>
        <time>2021-04-05T13:52:33.000Z</time>
      </trkpt>
      <trkpt lat="46.57404" lon="5.38094">
        <ele>218.80000305176</ele>
        <time>2021-04-05T13:52:34.000Z</time>
      </trkpt>
      <trkpt lat="46.57398" lon="5.38089">
        <ele>219</ele>
        <time>2021-04-05T13:52:35.000Z</time>
      </trkpt>
      <trkpt lat="46.57387" lon="5.38077">
        <ele>219.39999389648</ele>
        <time>2021-04-05T13:52:37.000Z</time>
      </trkpt>
      <trkpt lat="46.57378" lon="5.38064">
        <ele>219.60000610352</ele>
        <time>2021-04-05T13:52:39.000Z</time>
      </trkpt>
      <trkpt lat="46.57371" lon="5.3805">
        <ele>219.60000610352</ele>
        <time>2021-04-05T13:52:41.000Z</time>
      </trkpt>
      <trkpt lat="46.57368" lon="5.38043">
        <ele>219.80000305176</ele>
        <time>2021-04-05T13:52:42.000Z</time>
      </trkpt>
      <trkpt lat="46.57364" lon="5.38037">
        <ele>219.80000305176</ele>
        <time>2021-04-05T13:52:43.000Z</time>
      </trkpt>
      <trkpt lat="46.57359" lon="5.38024">
        <ele>220</ele>
        <time>2021-04-05T13:52:45.000Z</time>
      </trkpt>
      <trkpt lat="46.57354" lon="5.38011">
        <ele>220</ele>
        <time>2021-04-05T13:52:47.000Z</time>
      </trkpt>
      <trkpt lat="46.57349" lon="5.37999">
        <ele>220.39999389648</ele>
        <time>2021-04-05T13:52:49.000Z</time>
      </trkpt>
      <trkpt lat="46.57344" lon="5.37988">
        <ele>221</ele>
        <time>2021-04-05T13:52:51.000Z</time>
      </trkpt>
      <trkpt lat="46.57339" lon="5.37977">
        <ele>222.39999389648</ele>
        <time>2021-04-05T13:52:53.000Z</time>
      </trkpt>
      <trkpt lat="46.57333" lon="5.37966">
        <ele>223.19999694824</ele>
        <time>2021-04-05T13:52:55.000Z</time>
      </trkpt>
      <trkpt lat="46.5733" lon="5.37961">
        <ele>223.60000610352</ele>
        <time>2021-04-05T13:52:56.000Z</time>
      </trkpt>
      <trkpt lat="46.57327" lon="5.37955">
        <ele>224</ele>
        <time>2021-04-05T13:52:57.000Z</time>
      </trkpt>
      <trkpt lat="46.57325" lon="5.37949">
        <ele>224.19999694824</ele>
        <time>2021-04-05T13:52:58.000Z</time>
      </trkpt>
      <trkpt lat="46.57322" lon="5.37943">
        <ele>224.39999389648</ele>
        <time>2021-04-05T13:52:59.000Z</time>
      </trkpt>
      <trkpt lat="46.57317" lon="5.37932">
        <ele>224.80000305176</ele>
        <time>2021-04-05T13:53:01.000Z</time>
      </trkpt>
      <trkpt lat="46.57311" lon="5.37921">
        <ele>225.19999694824</ele>
        <time>2021-04-05T13:53:03.000Z</time>
      </trkpt>
      <trkpt lat="46.57304" lon="5.3791">
        <ele>225.39999389648</ele>
        <time>2021-04-05T13:53:05.000Z</time>
      </trkpt>
      <trkpt lat="46.57298" lon="5.37899">
        <ele>225.80000305176</ele>
        <time>2021-04-05T13:53:07.000Z</time>
      </trkpt>
      <trkpt lat="46.57291" lon="5.37888">
        <ele>226.19999694824</ele>
        <time>2021-04-05T13:53:09.000Z</time>
      </trkpt>
      <trkpt lat="46.57286" lon="5.37877">
        <ele>226.19999694824</ele>
        <time>2021-04-05T13:53:11.000Z</time>
      </trkpt>
      <trkpt lat="46.5728" lon="5.37867">
        <ele>226.60000610352</ele>
        <time>2021-04-05T13:53:13.000Z</time>
      </trkpt>
      <trkpt lat="46.57275" lon="5.37856">
        <ele>227</ele>
        <time>2021-04-05T13:53:15.000Z</time>
      </trkpt>
      <trkpt lat="46.57269" lon="5.37846">
        <ele>227.39999389648</ele>
        <time>2021-04-05T13:53:17.000Z</time>
      </trkpt>
      <trkpt lat="46.57264" lon="5.37837">
        <ele>227.80000305176</ele>
        <time>2021-04-05T13:53:19.000Z</time>
      </trkpt>
      <trkpt lat="46.57262" lon="5.37832">
        <ele>228</ele>
        <time>2021-04-05T13:53:20.000Z</time>
      </trkpt>
      <trkpt lat="46.5726" lon="5.37827">
        <ele>228.19999694824</ele>
        <time>2021-04-05T13:53:21.000Z</time>
      </trkpt>
      <trkpt lat="46.57255" lon="5.37818">
        <ele>229</ele>
        <time>2021-04-05T13:53:23.000Z</time>
      </trkpt>
      <trkpt lat="46.57252" lon="5.37813">
        <ele>229.39999389648</ele>
        <time>2021-04-05T13:53:24.000Z</time>
      </trkpt>
      <trkpt lat="46.5725" lon="5.37808">
        <ele>229.60000610352</ele>
        <time>2021-04-05T13:53:25.000Z</time>
      </trkpt>
      <trkpt lat="46.57245" lon="5.37798">
        <ele>229.80000305176</ele>
        <time>2021-04-05T13:53:27.000Z</time>
      </trkpt>
      <trkpt lat="46.5724" lon="5.37788">
        <ele>230.39999389648</ele>
        <time>2021-04-05T13:53:29.000Z</time>
      </trkpt>
      <trkpt lat="46.57237" lon="5.37783">
        <ele>230.80000305176</ele>
        <time>2021-04-05T13:53:30.000Z</time>
      </trkpt>
      <trkpt lat="46.57235" lon="5.37778">
        <ele>230.80000305176</ele>
        <time>2021-04-05T13:53:31.000Z</time>
      </trkpt>
      <trkpt lat="46.5723" lon="5.37768">
        <ele>231</ele>
        <time>2021-04-05T13:53:33.000Z</time>
      </trkpt>
      <trkpt lat="46.57228" lon="5.37763">
        <ele>231</ele>
        <time>2021-04-05T13:53:34.000Z</time>
      </trkpt>
      <trkpt lat="46.57227" lon="5.37757">
        <ele>231</ele>
        <time>2021-04-05T13:53:35.000Z</time>
      </trkpt>
      <trkpt lat="46.57226" lon="5.37746">
        <ele>231.19999694824</ele>
        <time>2021-04-05T13:53:37.000Z</time>
      </trkpt>
      <trkpt lat="46.57229" lon="5.37735">
        <ele>231.19999694824</ele>
        <time>2021-04-05T13:53:39.000Z</time>
      </trkpt>
      <trkpt lat="46.57235" lon="5.37727">
        <ele>231.39999389648</ele>
        <time>2021-04-05T13:53:41.000Z</time>
      </trkpt>
      <trkpt lat="46.57238" lon="5.37723">
        <ele>231.80000305176</ele>
        <time>2021-04-05T13:53:42.000Z</time>
      </trkpt>
      <trkpt lat="46.57242" lon="5.37719">
        <ele>232.19999694824</ele>
        <time>2021-04-05T13:53:43.000Z</time>
      </trkpt>
      <trkpt lat="46.57249" lon="5.3771">
        <ele>233</ele>
        <time>2021-04-05T13:53:45.000Z</time>
      </trkpt>
      <trkpt lat="46.57258" lon="5.37702">
        <ele>233.80000305176</ele>
        <time>2021-04-05T13:53:47.000Z</time>
      </trkpt>
      <trkpt lat="46.57262" lon="5.37698">
        <ele>234.19999694824</ele>
        <time>2021-04-05T13:53:48.000Z</time>
      </trkpt>
      <trkpt lat="46.57266" lon="5.37694">
        <ele>234.39999389648</ele>
        <time>2021-04-05T13:53:49.000Z</time>
      </trkpt>
      <trkpt lat="46.57274" lon="5.37685">
        <ele>234.60000610352</ele>
        <time>2021-04-05T13:53:51.000Z</time>
      </trkpt>
      <trkpt lat="46.57282" lon="5.37677">
        <ele>234.80000305176</ele>
        <time>2021-04-05T13:53:53.000Z</time>
      </trkpt>
      <trkpt lat="46.5729" lon="5.37669">
        <ele>235</ele>
        <time>2021-04-05T13:53:55.000Z</time>
      </trkpt>
      <trkpt lat="46.57294" lon="5.37665">
        <ele>235</ele>
        <time>2021-04-05T13:53:56.000Z</time>
      </trkpt>
      <trkpt lat="46.57297" lon="5.3766">
        <ele>235</ele>
        <time>2021-04-05T13:53:57.000Z</time>
      </trkpt>
      <trkpt lat="46.57305" lon="5.37652">
        <ele>235.19999694824</ele>
        <time>2021-04-05T13:53:59.000Z</time>
      </trkpt>
      <trkpt lat="46.57314" lon="5.37643">
        <ele>235.39999389648</ele>
        <time>2021-04-05T13:54:01.000Z</time>
      </trkpt>
      <trkpt lat="46.57322" lon="5.37634">
        <ele>235.80000305176</ele>
        <time>2021-04-05T13:54:03.000Z</time>
      </trkpt>
      <trkpt lat="46.5733" lon="5.37625">
        <ele>236.19999694824</ele>
        <time>2021-04-05T13:54:05.000Z</time>
      </trkpt>
      <trkpt lat="46.57339" lon="5.37616">
        <ele>236.60000610352</ele>
        <time>2021-04-05T13:54:07.000Z</time>
      </trkpt>
      <trkpt lat="46.57348" lon="5.37607">
        <ele>237</ele>
        <time>2021-04-05T13:54:09.000Z</time>
      </trkpt>
      <trkpt lat="46.57357" lon="5.37597">
        <ele>237</ele>
        <time>2021-04-05T13:54:11.000Z</time>
      </trkpt>
      <trkpt lat="46.57366" lon="5.37585">
        <ele>237</ele>
        <time>2021-04-05T13:54:13.000Z</time>
      </trkpt>
      <trkpt lat="46.57374" lon="5.37572">
        <ele>237.19999694824</ele>
        <time>2021-04-05T13:54:15.000Z</time>
      </trkpt>
      <trkpt lat="46.57384" lon="5.37558">
        <ele>237.19999694824</ele>
        <time>2021-04-05T13:54:17.000Z</time>
      </trkpt>
      <trkpt lat="46.57393" lon="5.37543">
        <ele>237</ele>
        <time>2021-04-05T13:54:19.000Z</time>
      </trkpt>
      <trkpt lat="46.57402" lon="5.37526">
        <ele>237</ele>
        <time>2021-04-05T13:54:21.000Z</time>
      </trkpt>
      <trkpt lat="46.57411" lon="5.37508">
        <ele>236.80000305176</ele>
        <time>2021-04-05T13:54:23.000Z</time>
      </trkpt>
      <trkpt lat="46.57419" lon="5.37489">
        <ele>236.60000610352</ele>
        <time>2021-04-05T13:54:25.000Z</time>
      </trkpt>
      <trkpt lat="46.57427" lon="5.37468">
        <ele>236.19999694824</ele>
        <time>2021-04-05T13:54:27.000Z</time>
      </trkpt>
      <trkpt lat="46.57433" lon="5.37446">
        <ele>235.80000305176</ele>
        <time>2021-04-05T13:54:29.000Z</time>
      </trkpt>
      <trkpt lat="46.57438" lon="5.37424">
        <ele>235.39999389648</ele>
        <time>2021-04-05T13:54:31.000Z</time>
      </trkpt>
      <trkpt lat="46.57443" lon="5.37403">
        <ele>234.60000610352</ele>
        <time>2021-04-05T13:54:33.000Z</time>
      </trkpt>
      <trkpt lat="46.57446" lon="5.37393">
        <ele>234.19999694824</ele>
        <time>2021-04-05T13:54:34.000Z</time>
      </trkpt>
      <trkpt lat="46.57449" lon="5.37384">
        <ele>234.19999694824</ele>
        <time>2021-04-05T13:54:35.000Z</time>
      </trkpt>
      <trkpt lat="46.57459" lon="5.37368">
        <ele>234</ele>
        <time>2021-04-05T13:54:37.000Z</time>
      </trkpt>
      <trkpt lat="46.57465" lon="5.37359">
        <ele>234</ele>
        <time>2021-04-05T13:54:38.000Z</time>
      </trkpt>
      <trkpt lat="46.57469" lon="5.37349">
        <ele>233.80000305176</ele>
        <time>2021-04-05T13:54:39.000Z</time>
      </trkpt>
      <trkpt lat="46.57471" lon="5.37326">
        <ele>233.80000305176</ele>
        <time>2021-04-05T13:54:41.000Z</time>
      </trkpt>
      <trkpt lat="46.5747" lon="5.37314">
        <ele>233.60000610352</ele>
        <time>2021-04-05T13:54:42.000Z</time>
      </trkpt>
      <trkpt lat="46.5747" lon="5.37301">
        <ele>233.60000610352</ele>
        <time>2021-04-05T13:54:43.000Z</time>
      </trkpt>
      <trkpt lat="46.57468" lon="5.37275">
        <ele>233.39999389648</ele>
        <time>2021-04-05T13:54:45.000Z</time>
      </trkpt>
      <trkpt lat="46.57467" lon="5.37248">
        <ele>233.39999389648</ele>
        <time>2021-04-05T13:54:47.000Z</time>
      </trkpt>
      <trkpt lat="46.57467" lon="5.37235">
        <ele>233.19999694824</ele>
        <time>2021-04-05T13:54:48.000Z</time>
      </trkpt>
      <trkpt lat="46.57467" lon="5.37222">
        <ele>233.19999694824</ele>
        <time>2021-04-05T13:54:49.000Z</time>
      </trkpt>
      <trkpt lat="46.57468" lon="5.37196">
        <ele>232.39999389648</ele>
        <time>2021-04-05T13:54:51.000Z</time>
      </trkpt>
      <trkpt lat="46.57469" lon="5.37183">
        <ele>231.60000610352</ele>
        <time>2021-04-05T13:54:52.000Z</time>
      </trkpt>
      <trkpt lat="46.5747" lon="5.37171">
        <ele>231</ele>
        <time>2021-04-05T13:54:53.000Z</time>
      </trkpt>
      <trkpt lat="46.57471" lon="5.37159">
        <ele>230.19999694824</ele>
        <time>2021-04-05T13:54:54.000Z</time>
      </trkpt>
      <trkpt lat="46.57472" lon="5.37147">
        <ele>228.39999389648</ele>
        <time>2021-04-05T13:54:55.000Z</time>
      </trkpt>
      <trkpt lat="46.57476" lon="5.37124">
        <ele>227.80000305176</ele>
        <time>2021-04-05T13:54:57.000Z</time>
      </trkpt>
      <trkpt lat="46.5748" lon="5.37102">
        <ele>227.60000610352</ele>
        <time>2021-04-05T13:54:59.000Z</time>
      </trkpt>
      <trkpt lat="46.57483" lon="5.37092">
        <ele>227.60000610352</ele>
        <time>2021-04-05T13:55:00.000Z</time>
      </trkpt>
      <trkpt lat="46.57485" lon="5.37081">
        <ele>227.60000610352</ele>
        <time>2021-04-05T13:55:01.000Z</time>
      </trkpt>
      <trkpt lat="46.57492" lon="5.3706">
        <ele>227.39999389648</ele>
        <time>2021-04-05T13:55:03.000Z</time>
      </trkpt>
      <trkpt lat="46.57496" lon="5.37048">
        <ele>227.39999389648</ele>
        <time>2021-04-05T13:55:04.000Z</time>
      </trkpt>
      <trkpt lat="46.57499" lon="5.37037">
        <ele>227.19999694824</ele>
        <time>2021-04-05T13:55:05.000Z</time>
      </trkpt>
      <trkpt lat="46.57503" lon="5.37025">
        <ele>227.19999694824</ele>
        <time>2021-04-05T13:55:06.000Z</time>
      </trkpt>
      <trkpt lat="46.57506" lon="5.37013">
        <ele>227.19999694824</ele>
        <time>2021-04-05T13:55:07.000Z</time>
      </trkpt>
      <trkpt lat="46.57514" lon="5.3699">
        <ele>227</ele>
        <time>2021-04-05T13:55:09.000Z</time>
      </trkpt>
      <trkpt lat="46.57521" lon="5.36966">
        <ele>227</ele>
        <time>2021-04-05T13:55:11.000Z</time>
      </trkpt>
      <trkpt lat="46.57526" lon="5.36942">
        <ele>226.80000305176</ele>
        <time>2021-04-05T13:55:13.000Z</time>
      </trkpt>
      <trkpt lat="46.57528" lon="5.36931">
        <ele>226.60000610352</ele>
        <time>2021-04-05T13:55:14.000Z</time>
      </trkpt>
      <trkpt lat="46.57529" lon="5.36919">
        <ele>226.39999389648</ele>
        <time>2021-04-05T13:55:15.000Z</time>
      </trkpt>
      <trkpt lat="46.57527" lon="5.36909">
        <ele>226.19999694824</ele>
        <time>2021-04-05T13:55:16.000Z</time>
      </trkpt>
      <trkpt lat="46.57525" lon="5.36899">
        <ele>226</ele>
        <time>2021-04-05T13:55:17.000Z</time>
      </trkpt>
      <trkpt lat="46.57522" lon="5.3689">
        <ele>226</ele>
        <time>2021-04-05T13:55:18.000Z</time>
      </trkpt>
      <trkpt lat="46.57519" lon="5.3688">
        <ele>225.80000305176</ele>
        <time>2021-04-05T13:55:19.000Z</time>
      </trkpt>
      <trkpt lat="46.57517" lon="5.36859">
        <ele>225.60000610352</ele>
        <time>2021-04-05T13:55:21.000Z</time>
      </trkpt>
      <trkpt lat="46.57516" lon="5.36847">
        <ele>225.60000610352</ele>
        <time>2021-04-05T13:55:22.000Z</time>
      </trkpt>
      <trkpt lat="46.57517" lon="5.36836">
        <ele>225.39999389648</ele>
        <time>2021-04-05T13:55:23.000Z</time>
      </trkpt>
      <trkpt lat="46.57519" lon="5.36825">
        <ele>225.39999389648</ele>
        <time>2021-04-05T13:55:24.000Z</time>
      </trkpt>
      <trkpt lat="46.5752" lon="5.36814">
        <ele>225</ele>
        <time>2021-04-05T13:55:25.000Z</time>
      </trkpt>
      <trkpt lat="46.57521" lon="5.36802">
        <ele>224.80000305176</ele>
        <time>2021-04-05T13:55:26.000Z</time>
      </trkpt>
      <trkpt lat="46.57522" lon="5.36789">
        <ele>224.80000305176</ele>
        <time>2021-04-05T13:55:27.000Z</time>
      </trkpt>
      <trkpt lat="46.57522" lon="5.36764">
        <ele>224.19999694824</ele>
        <time>2021-04-05T13:55:29.000Z</time>
      </trkpt>
      <trkpt lat="46.57522" lon="5.36751">
        <ele>224</ele>
        <time>2021-04-05T13:55:30.000Z</time>
      </trkpt>
      <trkpt lat="46.5752" lon="5.36738">
        <ele>223.60000610352</ele>
        <time>2021-04-05T13:55:31.000Z</time>
      </trkpt>
      <trkpt lat="46.57517" lon="5.36712">
        <ele>223</ele>
        <time>2021-04-05T13:55:33.000Z</time>
      </trkpt>
      <trkpt lat="46.57517" lon="5.36699">
        <ele>222.80000305176</ele>
        <time>2021-04-05T13:55:34.000Z</time>
      </trkpt>
      <trkpt lat="46.57518" lon="5.36685">
        <ele>222.60000610352</ele>
        <time>2021-04-05T13:55:35.000Z</time>
      </trkpt>
      <trkpt lat="46.57526" lon="5.36661">
        <ele>221.60000610352</ele>
        <time>2021-04-05T13:55:37.000Z</time>
      </trkpt>
      <trkpt lat="46.57537" lon="5.36638">
        <ele>220.19999694824</ele>
        <time>2021-04-05T13:55:39.000Z</time>
      </trkpt>
      <trkpt lat="46.5754" lon="5.36626">
        <ele>219.80000305176</ele>
        <time>2021-04-05T13:55:40.000Z</time>
      </trkpt>
      <trkpt lat="46.57541" lon="5.36613">
        <ele>219.60000610352</ele>
        <time>2021-04-05T13:55:41.000Z</time>
      </trkpt>
      <trkpt lat="46.57538" lon="5.36591">
        <ele>219.39999389648</ele>
        <time>2021-04-05T13:55:43.000Z</time>
      </trkpt>
      <trkpt lat="46.5753" lon="5.36571">
        <ele>217.80000305176</ele>
        <time>2021-04-05T13:55:45.000Z</time>
      </trkpt>
      <trkpt lat="46.5752" lon="5.36552">
        <ele>217</ele>
        <time>2021-04-05T13:55:47.000Z</time>
      </trkpt>
      <trkpt lat="46.57514" lon="5.36543">
        <ele>216.80000305176</ele>
        <time>2021-04-05T13:55:48.000Z</time>
      </trkpt>
      <trkpt lat="46.57509" lon="5.36535">
        <ele>216.60000610352</ele>
        <time>2021-04-05T13:55:49.000Z</time>
      </trkpt>
      <trkpt lat="46.57498" lon="5.36517">
        <ele>216.60000610352</ele>
        <time>2021-04-05T13:55:51.000Z</time>
      </trkpt>
      <trkpt lat="46.57487" lon="5.36499">
        <ele>216.60000610352</ele>
        <time>2021-04-05T13:55:53.000Z</time>
      </trkpt>
      <trkpt lat="46.57476" lon="5.36481">
        <ele>216.60000610352</ele>
        <time>2021-04-05T13:55:55.000Z</time>
      </trkpt>
      <trkpt lat="46.57466" lon="5.36462">
        <ele>216.80000305176</ele>
        <time>2021-04-05T13:55:57.000Z</time>
      </trkpt>
      <trkpt lat="46.57457" lon="5.36445">
        <ele>217</ele>
        <time>2021-04-05T13:55:59.000Z</time>
      </trkpt>
      <trkpt lat="46.57448" lon="5.36427">
        <ele>217.19999694824</ele>
        <time>2021-04-05T13:56:01.000Z</time>
      </trkpt>
      <trkpt lat="46.57444" lon="5.36418">
        <ele>217.19999694824</ele>
        <time>2021-04-05T13:56:02.000Z</time>
      </trkpt>
      <trkpt lat="46.5744" lon="5.3641">
        <ele>217.39999389648</ele>
        <time>2021-04-05T13:56:03.000Z</time>
      </trkpt>
      <trkpt lat="46.57433" lon="5.36393">
        <ele>217.60000610352</ele>
        <time>2021-04-05T13:56:05.000Z</time>
      </trkpt>
      <trkpt lat="46.57431" lon="5.36384">
        <ele>217.60000610352</ele>
        <time>2021-04-05T13:56:06.000Z</time>
      </trkpt>
      <trkpt lat="46.57429" lon="5.36376">
        <ele>217.60000610352</ele>
        <time>2021-04-05T13:56:07.000Z</time>
      </trkpt>
      <trkpt lat="46.57427" lon="5.36367">
        <ele>217.80000305176</ele>
        <time>2021-04-05T13:56:08.000Z</time>
      </trkpt>
      <trkpt lat="46.57425" lon="5.36359">
        <ele>218</ele>
        <time>2021-04-05T13:56:09.000Z</time>
      </trkpt>
      <trkpt lat="46.57422" lon="5.36342">
        <ele>218.60000610352</ele>
        <time>2021-04-05T13:56:11.000Z</time>
      </trkpt>
      <trkpt lat="46.57419" lon="5.36325">
        <ele>218.80000305176</ele>
        <time>2021-04-05T13:56:13.000Z</time>
      </trkpt>
      <trkpt lat="46.57417" lon="5.36308">
        <ele>219.39999389648</ele>
        <time>2021-04-05T13:56:15.000Z</time>
      </trkpt>
      <trkpt lat="46.57414" lon="5.36293">
        <ele>220</ele>
        <time>2021-04-05T13:56:17.000Z</time>
      </trkpt>
      <trkpt lat="46.57412" lon="5.36278">
        <ele>220.60000610352</ele>
        <time>2021-04-05T13:56:19.000Z</time>
      </trkpt>
      <trkpt lat="46.5741" lon="5.36263">
        <ele>221.60000610352</ele>
        <time>2021-04-05T13:56:21.000Z</time>
      </trkpt>
      <trkpt lat="46.57407" lon="5.36249">
        <ele>222.80000305176</ele>
        <time>2021-04-05T13:56:23.000Z</time>
      </trkpt>
      <trkpt lat="46.57405" lon="5.36235">
        <ele>223.19999694824</ele>
        <time>2021-04-05T13:56:25.000Z</time>
      </trkpt>
      <trkpt lat="46.57403" lon="5.36221">
        <ele>223.39999389648</ele>
        <time>2021-04-05T13:56:27.000Z</time>
      </trkpt>
      <trkpt lat="46.57401" lon="5.36208">
        <ele>223.80000305176</ele>
        <time>2021-04-05T13:56:29.000Z</time>
      </trkpt>
      <trkpt lat="46.57399" lon="5.36194">
        <ele>224.39999389648</ele>
        <time>2021-04-05T13:56:31.000Z</time>
      </trkpt>
      <trkpt lat="46.57397" lon="5.3618">
        <ele>224.60000610352</ele>
        <time>2021-04-05T13:56:33.000Z</time>
      </trkpt>
      <trkpt lat="46.57395" lon="5.36166">
        <ele>225</ele>
        <time>2021-04-05T13:56:35.000Z</time>
      </trkpt>
      <trkpt lat="46.57394" lon="5.36152">
        <ele>225.60000610352</ele>
        <time>2021-04-05T13:56:37.000Z</time>
      </trkpt>
      <trkpt lat="46.57393" lon="5.36138">
        <ele>225.80000305176</ele>
        <time>2021-04-05T13:56:39.000Z</time>
      </trkpt>
      <trkpt lat="46.57393" lon="5.36124">
        <ele>225.80000305176</ele>
        <time>2021-04-05T13:56:41.000Z</time>
      </trkpt>
      <trkpt lat="46.57395" lon="5.3611">
        <ele>226.19999694824</ele>
        <time>2021-04-05T13:56:43.000Z</time>
      </trkpt>
      <trkpt lat="46.57396" lon="5.36103">
        <ele>226.39999389648</ele>
        <time>2021-04-05T13:56:44.000Z</time>
      </trkpt>
      <trkpt lat="46.57397" lon="5.36096">
        <ele>226.39999389648</ele>
        <time>2021-04-05T13:56:45.000Z</time>
      </trkpt>
      <trkpt lat="46.574" lon="5.36083">
        <ele>226.60000610352</ele>
        <time>2021-04-05T13:56:47.000Z</time>
      </trkpt>
      <trkpt lat="46.57403" lon="5.3607">
        <ele>227.19999694824</ele>
        <time>2021-04-05T13:56:49.000Z</time>
      </trkpt>
      <trkpt lat="46.57404" lon="5.36064">
        <ele>227.39999389648</ele>
        <time>2021-04-05T13:56:50.000Z</time>
      </trkpt>
      <trkpt lat="46.57405" lon="5.36057">
        <ele>227.60000610352</ele>
        <time>2021-04-05T13:56:51.000Z</time>
      </trkpt>
      <trkpt lat="46.57407" lon="5.36042">
        <ele>228</ele>
        <time>2021-04-05T13:56:53.000Z</time>
      </trkpt>
      <trkpt lat="46.57408" lon="5.36027">
        <ele>228.60000610352</ele>
        <time>2021-04-05T13:56:55.000Z</time>
      </trkpt>
      <trkpt lat="46.57407" lon="5.36011">
        <ele>229</ele>
        <time>2021-04-05T13:56:57.000Z</time>
      </trkpt>
      <trkpt lat="46.57406" lon="5.35995">
        <ele>229</ele>
        <time>2021-04-05T13:56:59.000Z</time>
      </trkpt>
      <trkpt lat="46.57404" lon="5.35978">
        <ele>229.19999694824</ele>
        <time>2021-04-05T13:57:01.000Z</time>
      </trkpt>
      <trkpt lat="46.57403" lon="5.35969">
        <ele>229.19999694824</ele>
        <time>2021-04-05T13:57:02.000Z</time>
      </trkpt>
      <trkpt lat="46.57402" lon="5.3596">
        <ele>229.19999694824</ele>
        <time>2021-04-05T13:57:03.000Z</time>
      </trkpt>
      <trkpt lat="46.574" lon="5.35941">
        <ele>229.19999694824</ele>
        <time>2021-04-05T13:57:05.000Z</time>
      </trkpt>
      <trkpt lat="46.57396" lon="5.3592">
        <ele>228.80000305176</ele>
        <time>2021-04-05T13:57:07.000Z</time>
      </trkpt>
      <trkpt lat="46.57394" lon="5.3591">
        <ele>228.60000610352</ele>
        <time>2021-04-05T13:57:08.000Z</time>
      </trkpt>
      <trkpt lat="46.57392" lon="5.35901">
        <ele>228.60000610352</ele>
        <time>2021-04-05T13:57:09.000Z</time>
      </trkpt>
      <trkpt lat="46.57386" lon="5.35881">
        <ele>228</ele>
        <time>2021-04-05T13:57:11.000Z</time>
      </trkpt>
      <trkpt lat="46.57382" lon="5.35872">
        <ele>227.19999694824</ele>
        <time>2021-04-05T13:57:12.000Z</time>
      </trkpt>
      <trkpt lat="46.57377" lon="5.35864">
        <ele>226.80000305176</ele>
        <time>2021-04-05T13:57:13.000Z</time>
      </trkpt>
      <trkpt lat="46.57365" lon="5.3585">
        <ele>225.19999694824</ele>
        <time>2021-04-05T13:57:15.000Z</time>
      </trkpt>
      <trkpt lat="46.57359" lon="5.35845">
        <ele>224</ele>
        <time>2021-04-05T13:57:16.000Z</time>
      </trkpt>
      <trkpt lat="46.57352" lon="5.35842">
        <ele>223.19999694824</ele>
        <time>2021-04-05T13:57:17.000Z</time>
      </trkpt>
      <trkpt lat="46.57345" lon="5.3584">
        <ele>222.80000305176</ele>
        <time>2021-04-05T13:57:18.000Z</time>
      </trkpt>
      <trkpt lat="46.57338" lon="5.35838">
        <ele>222.19999694824</ele>
        <time>2021-04-05T13:57:19.000Z</time>
      </trkpt>
      <trkpt lat="46.57323" lon="5.35835">
        <ele>221.60000610352</ele>
        <time>2021-04-05T13:57:21.000Z</time>
      </trkpt>
      <trkpt lat="46.57307" lon="5.35832">
        <ele>221.60000610352</ele>
        <time>2021-04-05T13:57:23.000Z</time>
      </trkpt>
      <trkpt lat="46.573" lon="5.35833">
        <ele>221.39999389648</ele>
        <time>2021-04-05T13:57:24.000Z</time>
      </trkpt>
      <trkpt lat="46.57293" lon="5.35836">
        <ele>221.39999389648</ele>
        <time>2021-04-05T13:57:25.000Z</time>
      </trkpt>
      <trkpt lat="46.57286" lon="5.3584">
        <ele>221.39999389648</ele>
        <time>2021-04-05T13:57:26.000Z</time>
      </trkpt>
      <trkpt lat="46.5728" lon="5.35845">
        <ele>221.39999389648</ele>
        <time>2021-04-05T13:57:27.000Z</time>
      </trkpt>
      <trkpt lat="46.57267" lon="5.35854">
        <ele>221.39999389648</ele>
        <time>2021-04-05T13:57:29.000Z</time>
      </trkpt>
      <trkpt lat="46.57255" lon="5.35864">
        <ele>221.39999389648</ele>
        <time>2021-04-05T13:57:31.000Z</time>
      </trkpt>
      <trkpt lat="46.57243" lon="5.35872">
        <ele>221.39999389648</ele>
        <time>2021-04-05T13:57:33.000Z</time>
      </trkpt>
      <trkpt lat="46.57237" lon="5.35876">
        <ele>221.39999389648</ele>
        <time>2021-04-05T13:57:34.000Z</time>
      </trkpt>
      <trkpt lat="46.57232" lon="5.3588">
        <ele>221.60000610352</ele>
        <time>2021-04-05T13:57:35.000Z</time>
      </trkpt>
      <trkpt lat="46.57221" lon="5.35889">
        <ele>221.60000610352</ele>
        <time>2021-04-05T13:57:37.000Z</time>
      </trkpt>
      <trkpt lat="46.57209" lon="5.35898">
        <ele>222</ele>
        <time>2021-04-05T13:57:39.000Z</time>
      </trkpt>
      <trkpt lat="46.57198" lon="5.35908">
        <ele>222.80000305176</ele>
        <time>2021-04-05T13:57:41.000Z</time>
      </trkpt>
      <trkpt lat="46.57192" lon="5.35913">
        <ele>223</ele>
        <time>2021-04-05T13:57:42.000Z</time>
      </trkpt>
      <trkpt lat="46.57187" lon="5.35918">
        <ele>223.19999694824</ele>
        <time>2021-04-05T13:57:43.000Z</time>
      </trkpt>
      <trkpt lat="46.57181" lon="5.35923">
        <ele>223.60000610352</ele>
        <time>2021-04-05T13:57:44.000Z</time>
      </trkpt>
      <trkpt lat="46.57175" lon="5.35928">
        <ele>224</ele>
        <time>2021-04-05T13:57:45.000Z</time>
      </trkpt>
      <trkpt lat="46.57169" lon="5.35934">
        <ele>224.19999694824</ele>
        <time>2021-04-05T13:57:46.000Z</time>
      </trkpt>
      <trkpt lat="46.57164" lon="5.35939">
        <ele>224.60000610352</ele>
        <time>2021-04-05T13:57:47.000Z</time>
      </trkpt>
      <trkpt lat="46.57153" lon="5.35948">
        <ele>225</ele>
        <time>2021-04-05T13:57:49.000Z</time>
      </trkpt>
      <trkpt lat="46.57148" lon="5.35953">
        <ele>225.19999694824</ele>
        <time>2021-04-05T13:57:50.000Z</time>
      </trkpt>
      <trkpt lat="46.57143" lon="5.35958">
        <ele>225.39999389648</ele>
        <time>2021-04-05T13:57:51.000Z</time>
      </trkpt>
      <trkpt lat="46.57134" lon="5.35966">
        <ele>225.39999389648</ele>
        <time>2021-04-05T13:57:53.000Z</time>
      </trkpt>
      <trkpt lat="46.57124" lon="5.35975">
        <ele>225.60000610352</ele>
        <time>2021-04-05T13:57:55.000Z</time>
      </trkpt>
      <trkpt lat="46.57113" lon="5.35983">
        <ele>225.60000610352</ele>
        <time>2021-04-05T13:57:57.000Z</time>
      </trkpt>
      <trkpt lat="46.57102" lon="5.35989">
        <ele>225.80000305176</ele>
        <time>2021-04-05T13:57:59.000Z</time>
      </trkpt>
      <trkpt lat="46.5709" lon="5.35993">
        <ele>226</ele>
        <time>2021-04-05T13:58:01.000Z</time>
      </trkpt>
      <trkpt lat="46.57084" lon="5.35994">
        <ele>226.39999389648</ele>
        <time>2021-04-05T13:58:02.000Z</time>
      </trkpt>
      <trkpt lat="46.57078" lon="5.35995">
        <ele>226.80000305176</ele>
        <time>2021-04-05T13:58:03.000Z</time>
      </trkpt>
      <trkpt lat="46.57072" lon="5.35995">
        <ele>226.80000305176</ele>
        <time>2021-04-05T13:58:04.000Z</time>
      </trkpt>
      <trkpt lat="46.57066" lon="5.35995">
        <ele>227</ele>
        <time>2021-04-05T13:58:05.000Z</time>
      </trkpt>
      <trkpt lat="46.57055" lon="5.35996">
        <ele>227.19999694824</ele>
        <time>2021-04-05T13:58:07.000Z</time>
      </trkpt>
      <trkpt lat="46.57044" lon="5.35998">
        <ele>227.19999694824</ele>
        <time>2021-04-05T13:58:09.000Z</time>
      </trkpt>
      <trkpt lat="46.57033" lon="5.36002">
        <ele>227.39999389648</ele>
        <time>2021-04-05T13:58:11.000Z</time>
      </trkpt>
      <trkpt lat="46.57028" lon="5.36005">
        <ele>227.39999389648</ele>
        <time>2021-04-05T13:58:12.000Z</time>
      </trkpt>
      <trkpt lat="46.57023" lon="5.36008">
        <ele>227.60000610352</ele>
        <time>2021-04-05T13:58:13.000Z</time>
      </trkpt>
      <trkpt lat="46.57013" lon="5.36015">
        <ele>227.80000305176</ele>
        <time>2021-04-05T13:58:15.000Z</time>
      </trkpt>
      <trkpt lat="46.57004" lon="5.36023">
        <ele>227.80000305176</ele>
        <time>2021-04-05T13:58:17.000Z</time>
      </trkpt>
      <trkpt lat="46.56995" lon="5.36031">
        <ele>228</ele>
        <time>2021-04-05T13:58:19.000Z</time>
      </trkpt>
      <trkpt lat="46.56986" lon="5.3604">
        <ele>228</ele>
        <time>2021-04-05T13:58:21.000Z</time>
      </trkpt>
      <trkpt lat="46.56978" lon="5.36051">
        <ele>228.39999389648</ele>
        <time>2021-04-05T13:58:23.000Z</time>
      </trkpt>
      <trkpt lat="46.56974" lon="5.36056">
        <ele>228.60000610352</ele>
        <time>2021-04-05T13:58:24.000Z</time>
      </trkpt>
      <trkpt lat="46.5697" lon="5.36062">
        <ele>228.60000610352</ele>
        <time>2021-04-05T13:58:25.000Z</time>
      </trkpt>
      <trkpt lat="46.56963" lon="5.36075">
        <ele>229</ele>
        <time>2021-04-05T13:58:27.000Z</time>
      </trkpt>
      <trkpt lat="46.56956" lon="5.36088">
        <ele>229.19999694824</ele>
        <time>2021-04-05T13:58:29.000Z</time>
      </trkpt>
      <trkpt lat="46.5695" lon="5.36103">
        <ele>229.19999694824</ele>
        <time>2021-04-05T13:58:31.000Z</time>
      </trkpt>
      <trkpt lat="46.56944" lon="5.36117">
        <ele>229.39999389648</ele>
        <time>2021-04-05T13:58:33.000Z</time>
      </trkpt>
      <trkpt lat="46.56937" lon="5.36132">
        <ele>229.80000305176</ele>
        <time>2021-04-05T13:58:35.000Z</time>
      </trkpt>
      <trkpt lat="46.56933" lon="5.36138">
        <ele>229.80000305176</ele>
        <time>2021-04-05T13:58:36.000Z</time>
      </trkpt>
      <trkpt lat="46.56925" lon="5.3615">
        <ele>230</ele>
        <time>2021-04-05T13:58:38.000Z</time>
      </trkpt>
      <trkpt lat="46.56916" lon="5.3616">
        <ele>230</ele>
        <time>2021-04-05T13:58:40.000Z</time>
      </trkpt>
      <trkpt lat="46.56907" lon="5.36169">
        <ele>230.19999694824</ele>
        <time>2021-04-05T13:58:42.000Z</time>
      </trkpt>
      <trkpt lat="46.56901" lon="5.36172">
        <ele>230.39999389648</ele>
        <time>2021-04-05T13:58:43.000Z</time>
      </trkpt>
      <trkpt lat="46.56896" lon="5.36175">
        <ele>230.60000610352</ele>
        <time>2021-04-05T13:58:44.000Z</time>
      </trkpt>
      <trkpt lat="46.56886" lon="5.36182">
        <ele>230.80000305176</ele>
        <time>2021-04-05T13:58:46.000Z</time>
      </trkpt>
      <trkpt lat="46.5688" lon="5.36185">
        <ele>231</ele>
        <time>2021-04-05T13:58:47.000Z</time>
      </trkpt>
      <trkpt lat="46.56874" lon="5.36188">
        <ele>231</ele>
        <time>2021-04-05T13:58:48.000Z</time>
      </trkpt>
      <trkpt lat="46.56863" lon="5.36194">
        <ele>231</ele>
        <time>2021-04-05T13:58:50.000Z</time>
      </trkpt>
      <trkpt lat="46.56857" lon="5.36197">
        <ele>231</ele>
        <time>2021-04-05T13:58:51.000Z</time>
      </trkpt>
      <trkpt lat="46.5685" lon="5.362">
        <ele>231</ele>
        <time>2021-04-05T13:58:52.000Z</time>
      </trkpt>
      <trkpt lat="46.56838" lon="5.36206">
        <ele>231</ele>
        <time>2021-04-05T13:58:54.000Z</time>
      </trkpt>
      <trkpt lat="46.56825" lon="5.3621">
        <ele>231</ele>
        <time>2021-04-05T13:58:56.000Z</time>
      </trkpt>
      <trkpt lat="46.56812" lon="5.36214">
        <ele>231</ele>
        <time>2021-04-05T13:58:58.000Z</time>
      </trkpt>
      <trkpt lat="46.56805" lon="5.36215">
        <ele>231.19999694824</ele>
        <time>2021-04-05T13:58:59.000Z</time>
      </trkpt>
      <trkpt lat="46.56799" lon="5.36216">
        <ele>231.19999694824</ele>
        <time>2021-04-05T13:59:00.000Z</time>
      </trkpt>
      <trkpt lat="46.56786" lon="5.36218">
        <ele>231.19999694824</ele>
        <time>2021-04-05T13:59:02.000Z</time>
      </trkpt>
      <trkpt lat="46.56772" lon="5.36219">
        <ele>231.19999694824</ele>
        <time>2021-04-05T13:59:04.000Z</time>
      </trkpt>
      <trkpt lat="46.5676" lon="5.3622">
        <ele>231.19999694824</ele>
        <time>2021-04-05T13:59:06.000Z</time>
      </trkpt>
      <trkpt lat="46.56753" lon="5.36221">
        <ele>231.19999694824</ele>
        <time>2021-04-05T13:59:07.000Z</time>
      </trkpt>
      <trkpt lat="46.56747" lon="5.36222">
        <ele>231.19999694824</ele>
        <time>2021-04-05T13:59:08.000Z</time>
      </trkpt>
      <trkpt lat="46.56735" lon="5.36224">
        <ele>231.39999389648</ele>
        <time>2021-04-05T13:59:10.000Z</time>
      </trkpt>
      <trkpt lat="46.56722" lon="5.36225">
        <ele>231.39999389648</ele>
        <time>2021-04-05T13:59:12.000Z</time>
      </trkpt>
      <trkpt lat="46.5671" lon="5.36227">
        <ele>231.60000610352</ele>
        <time>2021-04-05T13:59:14.000Z</time>
      </trkpt>
      <trkpt lat="46.56698" lon="5.36227">
        <ele>231.80000305176</ele>
        <time>2021-04-05T13:59:16.000Z</time>
      </trkpt>
      <trkpt lat="46.56687" lon="5.36227">
        <ele>232</ele>
        <time>2021-04-05T13:59:18.000Z</time>
      </trkpt>
      <trkpt lat="46.56675" lon="5.36227">
        <ele>232.19999694824</ele>
        <time>2021-04-05T13:59:20.000Z</time>
      </trkpt>
      <trkpt lat="46.56665" lon="5.36225">
        <ele>232.39999389648</ele>
        <time>2021-04-05T13:59:22.000Z</time>
      </trkpt>
      <trkpt lat="46.56654" lon="5.36224">
        <ele>233</ele>
        <time>2021-04-05T13:59:24.000Z</time>
      </trkpt>
      <trkpt lat="46.56648" lon="5.36223">
        <ele>233.19999694824</ele>
        <time>2021-04-05T13:59:25.000Z</time>
      </trkpt>
      <trkpt lat="46.56643" lon="5.36222">
        <ele>233.60000610352</ele>
        <time>2021-04-05T13:59:26.000Z</time>
      </trkpt>
      <trkpt lat="46.56631" lon="5.36219">
        <ele>234.19999694824</ele>
        <time>2021-04-05T13:59:28.000Z</time>
      </trkpt>
      <trkpt lat="46.56625" lon="5.36218">
        <ele>234.60000610352</ele>
        <time>2021-04-05T13:59:29.000Z</time>
      </trkpt>
      <trkpt lat="46.5662" lon="5.36217">
        <ele>234.80000305176</ele>
        <time>2021-04-05T13:59:30.000Z</time>
      </trkpt>
      <trkpt lat="46.56608" lon="5.36216">
        <ele>235.19999694824</ele>
        <time>2021-04-05T13:59:32.000Z</time>
      </trkpt>
      <trkpt lat="46.56596" lon="5.36214">
        <ele>235.19999694824</ele>
        <time>2021-04-05T13:59:34.000Z</time>
      </trkpt>
      <trkpt lat="46.56583" lon="5.36214">
        <ele>235.39999389648</ele>
        <time>2021-04-05T13:59:36.000Z</time>
      </trkpt>
      <trkpt lat="46.5657" lon="5.36214">
        <ele>235.39999389648</ele>
        <time>2021-04-05T13:59:38.000Z</time>
      </trkpt>
      <trkpt lat="46.56564" lon="5.36214">
        <ele>235.39999389648</ele>
        <time>2021-04-05T13:59:39.000Z</time>
      </trkpt>
      <trkpt lat="46.56557" lon="5.36214">
        <ele>235.39999389648</ele>
        <time>2021-04-05T13:59:40.000Z</time>
      </trkpt>
      <trkpt lat="46.56544" lon="5.36214">
        <ele>235.39999389648</ele>
        <time>2021-04-05T13:59:42.000Z</time>
      </trkpt>
      <trkpt lat="46.56531" lon="5.36213">
        <ele>235.19999694824</ele>
        <time>2021-04-05T13:59:44.000Z</time>
      </trkpt>
      <trkpt lat="46.56518" lon="5.36213">
        <ele>235.39999389648</ele>
        <time>2021-04-05T13:59:46.000Z</time>
      </trkpt>
      <trkpt lat="46.56505" lon="5.36215">
        <ele>235.39999389648</ele>
        <time>2021-04-05T13:59:48.000Z</time>
      </trkpt>
      <trkpt lat="46.56499" lon="5.36215">
        <ele>235.39999389648</ele>
        <time>2021-04-05T13:59:49.000Z</time>
      </trkpt>
      <trkpt lat="46.56492" lon="5.36216">
        <ele>235.39999389648</ele>
        <time>2021-04-05T13:59:50.000Z</time>
      </trkpt>
      <trkpt lat="46.5648" lon="5.36217">
        <ele>235.39999389648</ele>
        <time>2021-04-05T13:59:52.000Z</time>
      </trkpt>
      <trkpt lat="46.56467" lon="5.36217">
        <ele>235.39999389648</ele>
        <time>2021-04-05T13:59:54.000Z</time>
      </trkpt>
      <trkpt lat="46.56454" lon="5.36218">
        <ele>235.39999389648</ele>
        <time>2021-04-05T13:59:56.000Z</time>
      </trkpt>
      <trkpt lat="46.56442" lon="5.36219">
        <ele>235.60000610352</ele>
        <time>2021-04-05T13:59:58.000Z</time>
      </trkpt>
      <trkpt lat="46.56436" lon="5.36219">
        <ele>235.60000610352</ele>
        <time>2021-04-05T13:59:59.000Z</time>
      </trkpt>
      <trkpt lat="46.56429" lon="5.36219">
        <ele>235.80000305176</ele>
        <time>2021-04-05T14:00:00.000Z</time>
      </trkpt>
      <trkpt lat="46.56417" lon="5.36219">
        <ele>236</ele>
        <time>2021-04-05T14:00:02.000Z</time>
      </trkpt>
      <trkpt lat="46.56404" lon="5.36219">
        <ele>236.19999694824</ele>
        <time>2021-04-05T14:00:04.000Z</time>
      </trkpt>
      <trkpt lat="46.5639" lon="5.36219">
        <ele>236.19999694824</ele>
        <time>2021-04-05T14:00:06.000Z</time>
      </trkpt>
      <trkpt lat="46.56378" lon="5.36219">
        <ele>236.19999694824</ele>
        <time>2021-04-05T14:00:08.000Z</time>
      </trkpt>
      <trkpt lat="46.56371" lon="5.36219">
        <ele>236.39999389648</ele>
        <time>2021-04-05T14:00:09.000Z</time>
      </trkpt>
      <trkpt lat="46.56365" lon="5.36219">
        <ele>236.39999389648</ele>
        <time>2021-04-05T14:00:10.000Z</time>
      </trkpt>
      <trkpt lat="46.56352" lon="5.36219">
        <ele>236.39999389648</ele>
        <time>2021-04-05T14:00:12.000Z</time>
      </trkpt>
      <trkpt lat="46.5634" lon="5.36218">
        <ele>236.39999389648</ele>
        <time>2021-04-05T14:00:14.000Z</time>
      </trkpt>
      <trkpt lat="46.56327" lon="5.36218">
        <ele>236.39999389648</ele>
        <time>2021-04-05T14:00:16.000Z</time>
      </trkpt>
      <trkpt lat="46.56314" lon="5.36217">
        <ele>236.39999389648</ele>
        <time>2021-04-05T14:00:18.000Z</time>
      </trkpt>
      <trkpt lat="46.56301" lon="5.36217">
        <ele>236.39999389648</ele>
        <time>2021-04-05T14:00:20.000Z</time>
      </trkpt>
      <trkpt lat="46.56288" lon="5.36217">
        <ele>236.60000610352</ele>
        <time>2021-04-05T14:00:22.000Z</time>
      </trkpt>
      <trkpt lat="46.56274" lon="5.36217">
        <ele>236.60000610352</ele>
        <time>2021-04-05T14:00:24.000Z</time>
      </trkpt>
      <trkpt lat="46.56266" lon="5.36219">
        <ele>236.60000610352</ele>
        <time>2021-04-05T14:00:25.000Z</time>
      </trkpt>
      <trkpt lat="46.56259" lon="5.36222">
        <ele>236.60000610352</ele>
        <time>2021-04-05T14:00:26.000Z</time>
      </trkpt>
      <trkpt lat="46.56245" lon="5.36232">
        <ele>236.39999389648</ele>
        <time>2021-04-05T14:00:28.000Z</time>
      </trkpt>
      <trkpt lat="46.56239" lon="5.36239">
        <ele>236.39999389648</ele>
        <time>2021-04-05T14:00:29.000Z</time>
      </trkpt>
      <trkpt lat="46.56233" lon="5.36248">
        <ele>236.39999389648</ele>
        <time>2021-04-05T14:00:30.000Z</time>
      </trkpt>
      <trkpt lat="46.56228" lon="5.36258">
        <ele>236.39999389648</ele>
        <time>2021-04-05T14:00:31.000Z</time>
      </trkpt>
      <trkpt lat="46.56222" lon="5.36267">
        <ele>236.39999389648</ele>
        <time>2021-04-05T14:00:32.000Z</time>
      </trkpt>
      <trkpt lat="46.56212" lon="5.36287">
        <ele>236</ele>
        <time>2021-04-05T14:00:34.000Z</time>
      </trkpt>
      <trkpt lat="46.562" lon="5.36306">
        <ele>235.60000610352</ele>
        <time>2021-04-05T14:00:36.000Z</time>
      </trkpt>
      <trkpt lat="46.56188" lon="5.36324">
        <ele>234.80000305176</ele>
        <time>2021-04-05T14:00:38.000Z</time>
      </trkpt>
      <trkpt lat="46.56177" lon="5.36343">
        <ele>234.39999389648</ele>
        <time>2021-04-05T14:00:40.000Z</time>
      </trkpt>
      <trkpt lat="46.56166" lon="5.36362">
        <ele>233.80000305176</ele>
        <time>2021-04-05T14:00:42.000Z</time>
      </trkpt>
      <trkpt lat="46.56156" lon="5.36381">
        <ele>233.39999389648</ele>
        <time>2021-04-05T14:00:44.000Z</time>
      </trkpt>
      <trkpt lat="46.56146" lon="5.36401">
        <ele>233.39999389648</ele>
        <time>2021-04-05T14:00:46.000Z</time>
      </trkpt>
      <trkpt lat="46.56137" lon="5.36421">
        <ele>233.39999389648</ele>
        <time>2021-04-05T14:00:48.000Z</time>
      </trkpt>
      <trkpt lat="46.56128" lon="5.3644">
        <ele>233.39999389648</ele>
        <time>2021-04-05T14:00:50.000Z</time>
      </trkpt>
      <trkpt lat="46.56118" lon="5.36457">
        <ele>233.39999389648</ele>
        <time>2021-04-05T14:00:52.000Z</time>
      </trkpt>
      <trkpt lat="46.56107" lon="5.36471">
        <ele>233.39999389648</ele>
        <time>2021-04-05T14:00:54.000Z</time>
      </trkpt>
      <trkpt lat="46.56094" lon="5.36482">
        <ele>233.39999389648</ele>
        <time>2021-04-05T14:00:56.000Z</time>
      </trkpt>
      <trkpt lat="46.5608" lon="5.36487">
        <ele>233.60000610352</ele>
        <time>2021-04-05T14:00:58.000Z</time>
      </trkpt>
      <trkpt lat="46.56066" lon="5.36483">
        <ele>233.80000305176</ele>
        <time>2021-04-05T14:01:00.000Z</time>
      </trkpt>
      <trkpt lat="46.56059" lon="5.36479">
        <ele>234</ele>
        <time>2021-04-05T14:01:01.000Z</time>
      </trkpt>
      <trkpt lat="46.56053" lon="5.36476">
        <ele>234</ele>
        <time>2021-04-05T14:01:02.000Z</time>
      </trkpt>
      <trkpt lat="46.5604" lon="5.36468">
        <ele>234.60000610352</ele>
        <time>2021-04-05T14:01:04.000Z</time>
      </trkpt>
      <trkpt lat="46.56027" lon="5.3646">
        <ele>234.80000305176</ele>
        <time>2021-04-05T14:01:06.000Z</time>
      </trkpt>
      <trkpt lat="46.56013" lon="5.36452">
        <ele>235</ele>
        <time>2021-04-05T14:01:08.000Z</time>
      </trkpt>
      <trkpt lat="46.55999" lon="5.36443">
        <ele>235.19999694824</ele>
        <time>2021-04-05T14:01:10.000Z</time>
      </trkpt>
      <trkpt lat="46.55985" lon="5.36433">
        <ele>235.19999694824</ele>
        <time>2021-04-05T14:01:12.000Z</time>
      </trkpt>
      <trkpt lat="46.55971" lon="5.36423">
        <ele>235.19999694824</ele>
        <time>2021-04-05T14:01:14.000Z</time>
      </trkpt>
      <trkpt lat="46.55958" lon="5.36413">
        <ele>235.19999694824</ele>
        <time>2021-04-05T14:01:16.000Z</time>
      </trkpt>
      <trkpt lat="46.55945" lon="5.36402">
        <ele>234.80000305176</ele>
        <time>2021-04-05T14:01:18.000Z</time>
      </trkpt>
      <trkpt lat="46.55938" lon="5.36397">
        <ele>234.60000610352</ele>
        <time>2021-04-05T14:01:19.000Z</time>
      </trkpt>
      <trkpt lat="46.55931" lon="5.36392">
        <ele>234.39999389648</ele>
        <time>2021-04-05T14:01:20.000Z</time>
      </trkpt>
      <trkpt lat="46.55918" lon="5.36382">
        <ele>234.19999694824</ele>
        <time>2021-04-05T14:01:22.000Z</time>
      </trkpt>
      <trkpt lat="46.55904" lon="5.36372">
        <ele>234</ele>
        <time>2021-04-05T14:01:24.000Z</time>
      </trkpt>
      <trkpt lat="46.55891" lon="5.36364">
        <ele>234</ele>
        <time>2021-04-05T14:01:26.000Z</time>
      </trkpt>
      <trkpt lat="46.55877" lon="5.36358">
        <ele>233.80000305176</ele>
        <time>2021-04-05T14:01:28.000Z</time>
      </trkpt>
      <trkpt lat="46.5587" lon="5.36354">
        <ele>233.80000305176</ele>
        <time>2021-04-05T14:01:29.000Z</time>
      </trkpt>
      <trkpt lat="46.55864" lon="5.3635">
        <ele>233.80000305176</ele>
        <time>2021-04-05T14:01:30.000Z</time>
      </trkpt>
      <trkpt lat="46.55858" lon="5.36344">
        <ele>234</ele>
        <time>2021-04-05T14:01:31.000Z</time>
      </trkpt>
      <trkpt lat="46.55852" lon="5.36339">
        <ele>234</ele>
        <time>2021-04-05T14:01:32.000Z</time>
      </trkpt>
      <trkpt lat="46.55845" lon="5.36333">
        <ele>234</ele>
        <time>2021-04-05T14:01:33.000Z</time>
      </trkpt>
      <trkpt lat="46.55838" lon="5.3633">
        <ele>234</ele>
        <time>2021-04-05T14:01:34.000Z</time>
      </trkpt>
      <trkpt lat="46.5583" lon="5.36329">
        <ele>234</ele>
        <time>2021-04-05T14:01:35.000Z</time>
      </trkpt>
      <trkpt lat="46.55821" lon="5.3633">
        <ele>234</ele>
        <time>2021-04-05T14:01:36.000Z</time>
      </trkpt>
      <trkpt lat="46.55804" lon="5.36338">
        <ele>233.80000305176</ele>
        <time>2021-04-05T14:01:38.000Z</time>
      </trkpt>
      <trkpt lat="46.55786" lon="5.36344">
        <ele>233.80000305176</ele>
        <time>2021-04-05T14:01:40.000Z</time>
      </trkpt>
      <trkpt lat="46.55766" lon="5.36343">
        <ele>233.60000610352</ele>
        <time>2021-04-05T14:01:42.000Z</time>
      </trkpt>
      <trkpt lat="46.55756" lon="5.36339">
        <ele>233</ele>
        <time>2021-04-05T14:01:43.000Z</time>
      </trkpt>
      <trkpt lat="46.55747" lon="5.36332">
        <ele>232.19999694824</ele>
        <time>2021-04-05T14:01:44.000Z</time>
      </trkpt>
      <trkpt lat="46.55737" lon="5.36326">
        <ele>231.80000305176</ele>
        <time>2021-04-05T14:01:45.000Z</time>
      </trkpt>
      <trkpt lat="46.55727" lon="5.36319">
        <ele>231.19999694824</ele>
        <time>2021-04-05T14:01:46.000Z</time>
      </trkpt>
      <trkpt lat="46.55708" lon="5.36306">
        <ele>230.39999389648</ele>
        <time>2021-04-05T14:01:48.000Z</time>
      </trkpt>
      <trkpt lat="46.55687" lon="5.36293">
        <ele>229.39999389648</ele>
        <time>2021-04-05T14:01:50.000Z</time>
      </trkpt>
      <trkpt lat="46.55677" lon="5.36287">
        <ele>228.60000610352</ele>
        <time>2021-04-05T14:01:51.000Z</time>
      </trkpt>
      <trkpt lat="46.55666" lon="5.36283">
        <ele>228</ele>
        <time>2021-04-05T14:01:52.000Z</time>
      </trkpt>
      <trkpt lat="46.55644" lon="5.3628">
        <ele>226.19999694824</ele>
        <time>2021-04-05T14:01:54.000Z</time>
      </trkpt>
      <trkpt lat="46.55623" lon="5.36282">
        <ele>224.39999389648</ele>
        <time>2021-04-05T14:01:56.000Z</time>
      </trkpt>
      <trkpt lat="46.55613" lon="5.36283">
        <ele>223.60000610352</ele>
        <time>2021-04-05T14:01:57.000Z</time>
      </trkpt>
      <trkpt lat="46.55604" lon="5.36286">
        <ele>222.60000610352</ele>
        <time>2021-04-05T14:01:58.000Z</time>
      </trkpt>
      <trkpt lat="46.55594" lon="5.36289">
        <ele>222</ele>
        <time>2021-04-05T14:01:59.000Z</time>
      </trkpt>
      <trkpt lat="46.55585" lon="5.36294">
        <ele>221.39999389648</ele>
        <time>2021-04-05T14:02:00.000Z</time>
      </trkpt>
      <trkpt lat="46.55568" lon="5.36304">
        <ele>220.60000610352</ele>
        <time>2021-04-05T14:02:02.000Z</time>
      </trkpt>
      <trkpt lat="46.5556" lon="5.36309">
        <ele>220.60000610352</ele>
        <time>2021-04-05T14:02:03.000Z</time>
      </trkpt>
      <trkpt lat="46.55552" lon="5.36315">
        <ele>220.60000610352</ele>
        <time>2021-04-05T14:02:04.000Z</time>
      </trkpt>
      <trkpt lat="46.55545" lon="5.36322">
        <ele>220.39999389648</ele>
        <time>2021-04-05T14:02:05.000Z</time>
      </trkpt>
      <trkpt lat="46.55539" lon="5.36331">
        <ele>220.39999389648</ele>
        <time>2021-04-05T14:02:06.000Z</time>
      </trkpt>
      <trkpt lat="46.55534" lon="5.3634">
        <ele>220.39999389648</ele>
        <time>2021-04-05T14:02:07.000Z</time>
      </trkpt>
      <trkpt lat="46.55528" lon="5.36349">
        <ele>220.39999389648</ele>
        <time>2021-04-05T14:02:08.000Z</time>
      </trkpt>
      <trkpt lat="46.55521" lon="5.36354">
        <ele>220.39999389648</ele>
        <time>2021-04-05T14:02:09.000Z</time>
      </trkpt>
      <trkpt lat="46.55513" lon="5.36357">
        <ele>220.60000610352</ele>
        <time>2021-04-05T14:02:10.000Z</time>
      </trkpt>
      <trkpt lat="46.55506" lon="5.36356">
        <ele>220.80000305176</ele>
        <time>2021-04-05T14:02:11.000Z</time>
      </trkpt>
      <trkpt lat="46.55492" lon="5.36352">
        <ele>221</ele>
        <time>2021-04-05T14:02:13.000Z</time>
      </trkpt>
      <trkpt lat="46.5548" lon="5.36348">
        <ele>221.19999694824</ele>
        <time>2021-04-05T14:02:15.000Z</time>
      </trkpt>
      <trkpt lat="46.55467" lon="5.36345">
        <ele>221.60000610352</ele>
        <time>2021-04-05T14:02:17.000Z</time>
      </trkpt>
      <trkpt lat="46.55461" lon="5.36345">
        <ele>221.60000610352</ele>
        <time>2021-04-05T14:02:18.000Z</time>
      </trkpt>
      <trkpt lat="46.55454" lon="5.36345">
        <ele>221.80000305176</ele>
        <time>2021-04-05T14:02:19.000Z</time>
      </trkpt>
      <trkpt lat="46.55442" lon="5.36345">
        <ele>222.60000610352</ele>
        <time>2021-04-05T14:02:21.000Z</time>
      </trkpt>
      <trkpt lat="46.55429" lon="5.36346">
        <ele>223.19999694824</ele>
        <time>2021-04-05T14:02:23.000Z</time>
      </trkpt>
      <trkpt lat="46.55416" lon="5.36347">
        <ele>223.19999694824</ele>
        <time>2021-04-05T14:02:25.000Z</time>
      </trkpt>
      <trkpt lat="46.55409" lon="5.36347">
        <ele>223.19999694824</ele>
        <time>2021-04-05T14:02:26.000Z</time>
      </trkpt>
      <trkpt lat="46.55401" lon="5.36347">
        <ele>223.39999389648</ele>
        <time>2021-04-05T14:02:27.000Z</time>
      </trkpt>
      <trkpt lat="46.55387" lon="5.36347">
        <ele>223.39999389648</ele>
        <time>2021-04-05T14:02:29.000Z</time>
      </trkpt>
      <trkpt lat="46.55373" lon="5.36346">
        <ele>223.39999389648</ele>
        <time>2021-04-05T14:02:31.000Z</time>
      </trkpt>
      <trkpt lat="46.55367" lon="5.36347">
        <ele>223.39999389648</ele>
        <time>2021-04-05T14:02:32.000Z</time>
      </trkpt>
      <trkpt lat="46.5536" lon="5.36349">
        <ele>223.19999694824</ele>
        <time>2021-04-05T14:02:33.000Z</time>
      </trkpt>
      <trkpt lat="46.55348" lon="5.36354">
        <ele>223.19999694824</ele>
        <time>2021-04-05T14:02:35.000Z</time>
      </trkpt>
      <trkpt lat="46.55336" lon="5.36359">
        <ele>223.39999389648</ele>
        <time>2021-04-05T14:02:37.000Z</time>
      </trkpt>
      <trkpt lat="46.55324" lon="5.36365">
        <ele>223.39999389648</ele>
        <time>2021-04-05T14:02:39.000Z</time>
      </trkpt>
      <trkpt lat="46.55318" lon="5.36366">
        <ele>223.39999389648</ele>
        <time>2021-04-05T14:02:40.000Z</time>
      </trkpt>
      <trkpt lat="46.55313" lon="5.36366">
        <ele>223.39999389648</ele>
        <time>2021-04-05T14:02:41.000Z</time>
      </trkpt>
      <trkpt lat="46.55307" lon="5.36366">
        <ele>223.39999389648</ele>
        <time>2021-04-05T14:02:42.000Z</time>
      </trkpt>
      <trkpt lat="46.55301" lon="5.36365">
        <ele>223.39999389648</ele>
        <time>2021-04-05T14:02:43.000Z</time>
      </trkpt>
      <trkpt lat="46.55288" lon="5.36363">
        <ele>223.60000610352</ele>
        <time>2021-04-05T14:02:45.000Z</time>
      </trkpt>
      <trkpt lat="46.55276" lon="5.36365">
        <ele>223.60000610352</ele>
        <time>2021-04-05T14:02:47.000Z</time>
      </trkpt>
      <trkpt lat="46.55265" lon="5.36376">
        <ele>223.60000610352</ele>
        <time>2021-04-05T14:02:49.000Z</time>
      </trkpt>
      <trkpt lat="46.55261" lon="5.36382">
        <ele>223.80000305176</ele>
        <time>2021-04-05T14:02:50.000Z</time>
      </trkpt>
      <trkpt lat="46.55257" lon="5.3639">
        <ele>223.80000305176</ele>
        <time>2021-04-05T14:02:51.000Z</time>
      </trkpt>
      <trkpt lat="46.55249" lon="5.36404">
        <ele>224</ele>
        <time>2021-04-05T14:02:53.000Z</time>
      </trkpt>
      <trkpt lat="46.55241" lon="5.36418">
        <ele>224</ele>
        <time>2021-04-05T14:02:55.000Z</time>
      </trkpt>
      <trkpt lat="46.55237" lon="5.36424">
        <ele>223.80000305176</ele>
        <time>2021-04-05T14:02:56.000Z</time>
      </trkpt>
      <trkpt lat="46.55232" lon="5.36429">
        <ele>223.80000305176</ele>
        <time>2021-04-05T14:02:57.000Z</time>
      </trkpt>
      <trkpt lat="46.55221" lon="5.36435">
        <ele>223.60000610352</ele>
        <time>2021-04-05T14:02:59.000Z</time>
      </trkpt>
      <trkpt lat="46.55215" lon="5.36436">
        <ele>223.60000610352</ele>
        <time>2021-04-05T14:03:00.000Z</time>
      </trkpt>
      <trkpt lat="46.5521" lon="5.36437">
        <ele>223.60000610352</ele>
        <time>2021-04-05T14:03:01.000Z</time>
      </trkpt>
      <trkpt lat="46.55198" lon="5.36438">
        <ele>223.60000610352</ele>
        <time>2021-04-05T14:03:03.000Z</time>
      </trkpt>
      <trkpt lat="46.55191" lon="5.36439">
        <ele>223.39999389648</ele>
        <time>2021-04-05T14:03:04.000Z</time>
      </trkpt>
      <trkpt lat="46.55185" lon="5.36442">
        <ele>223.39999389648</ele>
        <time>2021-04-05T14:03:05.000Z</time>
      </trkpt>
      <trkpt lat="46.55172" lon="5.3645">
        <ele>223.19999694824</ele>
        <time>2021-04-05T14:03:07.000Z</time>
      </trkpt>
      <trkpt lat="46.55161" lon="5.36461">
        <ele>223</ele>
        <time>2021-04-05T14:03:09.000Z</time>
      </trkpt>
      <trkpt lat="46.55149" lon="5.36473">
        <ele>222.80000305176</ele>
        <time>2021-04-05T14:03:11.000Z</time>
      </trkpt>
      <trkpt lat="46.55139" lon="5.36487">
        <ele>222.60000610352</ele>
        <time>2021-04-05T14:03:13.000Z</time>
      </trkpt>
      <trkpt lat="46.55129" lon="5.365">
        <ele>222.19999694824</ele>
        <time>2021-04-05T14:03:15.000Z</time>
      </trkpt>
      <trkpt lat="46.55125" lon="5.36508">
        <ele>222</ele>
        <time>2021-04-05T14:03:16.000Z</time>
      </trkpt>
      <trkpt lat="46.5512" lon="5.36515">
        <ele>222</ele>
        <time>2021-04-05T14:03:17.000Z</time>
      </trkpt>
      <trkpt lat="46.55112" lon="5.3653">
        <ele>222</ele>
        <time>2021-04-05T14:03:19.000Z</time>
      </trkpt>
      <trkpt lat="46.55105" lon="5.36545">
        <ele>222</ele>
        <time>2021-04-05T14:03:21.000Z</time>
      </trkpt>
      <trkpt lat="46.55098" lon="5.36561">
        <ele>222</ele>
        <time>2021-04-05T14:03:23.000Z</time>
      </trkpt>
      <trkpt lat="46.55092" lon="5.36578">
        <ele>222</ele>
        <time>2021-04-05T14:03:25.000Z</time>
      </trkpt>
      <trkpt lat="46.55085" lon="5.36595">
        <ele>222.19999694824</ele>
        <time>2021-04-05T14:03:27.000Z</time>
      </trkpt>
      <trkpt lat="46.55078" lon="5.36612">
        <ele>222.39999389648</ele>
        <time>2021-04-05T14:03:29.000Z</time>
      </trkpt>
      <trkpt lat="46.55072" lon="5.3663">
        <ele>222.39999389648</ele>
        <time>2021-04-05T14:03:31.000Z</time>
      </trkpt>
      <trkpt lat="46.55068" lon="5.36638">
        <ele>222.39999389648</ele>
        <time>2021-04-05T14:03:32.000Z</time>
      </trkpt>
      <trkpt lat="46.55065" lon="5.36647">
        <ele>222.39999389648</ele>
        <time>2021-04-05T14:03:33.000Z</time>
      </trkpt>
      <trkpt lat="46.55058" lon="5.36664">
        <ele>222.39999389648</ele>
        <time>2021-04-05T14:03:35.000Z</time>
      </trkpt>
      <trkpt lat="46.55052" lon="5.3668">
        <ele>222.39999389648</ele>
        <time>2021-04-05T14:03:37.000Z</time>
      </trkpt>
      <trkpt lat="46.55045" lon="5.36696">
        <ele>222.39999389648</ele>
        <time>2021-04-05T14:03:39.000Z</time>
      </trkpt>
      <trkpt lat="46.55041" lon="5.36704">
        <ele>222.39999389648</ele>
        <time>2021-04-05T14:03:40.000Z</time>
      </trkpt>
      <trkpt lat="46.55036" lon="5.36712">
        <ele>222.39999389648</ele>
        <time>2021-04-05T14:03:41.000Z</time>
      </trkpt>
      <trkpt lat="46.55028" lon="5.36727">
        <ele>222.39999389648</ele>
        <time>2021-04-05T14:03:43.000Z</time>
      </trkpt>
      <trkpt lat="46.55019" lon="5.3674">
        <ele>222.19999694824</ele>
        <time>2021-04-05T14:03:45.000Z</time>
      </trkpt>
      <trkpt lat="46.5501" lon="5.3675">
        <ele>222.19999694824</ele>
        <time>2021-04-05T14:03:47.000Z</time>
      </trkpt>
      <trkpt lat="46.55001" lon="5.36761">
        <ele>222.19999694824</ele>
        <time>2021-04-05T14:03:49.000Z</time>
      </trkpt>
      <trkpt lat="46.54992" lon="5.3677">
        <ele>222.39999389648</ele>
        <time>2021-04-05T14:03:51.000Z</time>
      </trkpt>
      <trkpt lat="46.54988" lon="5.36775">
        <ele>222.60000610352</ele>
        <time>2021-04-05T14:03:52.000Z</time>
      </trkpt>
      <trkpt lat="46.54983" lon="5.3678">
        <ele>222.60000610352</ele>
        <time>2021-04-05T14:03:53.000Z</time>
      </trkpt>
      <trkpt lat="46.54974" lon="5.36789">
        <ele>222.60000610352</ele>
        <time>2021-04-05T14:03:55.000Z</time>
      </trkpt>
      <trkpt lat="46.54964" lon="5.36797">
        <ele>223</ele>
        <time>2021-04-05T14:03:57.000Z</time>
      </trkpt>
      <trkpt lat="46.54955" lon="5.36805">
        <ele>223.80000305176</ele>
        <time>2021-04-05T14:03:59.000Z</time>
      </trkpt>
      <trkpt lat="46.54951" lon="5.36809">
        <ele>224.19999694824</ele>
        <time>2021-04-05T14:04:00.000Z</time>
      </trkpt>
      <trkpt lat="46.54946" lon="5.36813">
        <ele>224.39999389648</ele>
        <time>2021-04-05T14:04:01.000Z</time>
      </trkpt>
      <trkpt lat="46.54936" lon="5.36824">
        <ele>224.80000305176</ele>
        <time>2021-04-05T14:04:03.000Z</time>
      </trkpt>
      <trkpt lat="46.54925" lon="5.36836">
        <ele>224.80000305176</ele>
        <time>2021-04-05T14:04:05.000Z</time>
      </trkpt>
      <trkpt lat="46.54914" lon="5.3685">
        <ele>225</ele>
        <time>2021-04-05T14:04:07.000Z</time>
      </trkpt>
      <trkpt lat="46.54904" lon="5.36865">
        <ele>225</ele>
        <time>2021-04-05T14:04:09.000Z</time>
      </trkpt>
      <trkpt lat="46.54893" lon="5.36878">
        <ele>225</ele>
        <time>2021-04-05T14:04:11.000Z</time>
      </trkpt>
      <trkpt lat="46.54887" lon="5.36885">
        <ele>225</ele>
        <time>2021-04-05T14:04:12.000Z</time>
      </trkpt>
      <trkpt lat="46.54882" lon="5.36892">
        <ele>225</ele>
        <time>2021-04-05T14:04:13.000Z</time>
      </trkpt>
      <trkpt lat="46.54871" lon="5.36906">
        <ele>225</ele>
        <time>2021-04-05T14:04:15.000Z</time>
      </trkpt>
      <trkpt lat="46.54861" lon="5.36919">
        <ele>225.19999694824</ele>
        <time>2021-04-05T14:04:17.000Z</time>
      </trkpt>
      <trkpt lat="46.54851" lon="5.36931">
        <ele>225.19999694824</ele>
        <time>2021-04-05T14:04:19.000Z</time>
      </trkpt>
      <trkpt lat="46.54846" lon="5.36937">
        <ele>225.19999694824</ele>
        <time>2021-04-05T14:04:20.000Z</time>
      </trkpt>
      <trkpt lat="46.54841" lon="5.36944">
        <ele>225.19999694824</ele>
        <time>2021-04-05T14:04:21.000Z</time>
      </trkpt>
      <trkpt lat="46.54831" lon="5.36955">
        <ele>225.39999389648</ele>
        <time>2021-04-05T14:04:23.000Z</time>
      </trkpt>
      <trkpt lat="46.54822" lon="5.36968">
        <ele>225.39999389648</ele>
        <time>2021-04-05T14:04:25.000Z</time>
      </trkpt>
      <trkpt lat="46.54812" lon="5.3698">
        <ele>225.60000610352</ele>
        <time>2021-04-05T14:04:27.000Z</time>
      </trkpt>
      <trkpt lat="46.54808" lon="5.36986">
        <ele>225.80000305176</ele>
        <time>2021-04-05T14:04:28.000Z</time>
      </trkpt>
      <trkpt lat="46.54804" lon="5.36992">
        <ele>226</ele>
        <time>2021-04-05T14:04:29.000Z</time>
      </trkpt>
      <trkpt lat="46.54795" lon="5.37003">
        <ele>226.39999389648</ele>
        <time>2021-04-05T14:04:31.000Z</time>
      </trkpt>
      <trkpt lat="46.54787" lon="5.37015">
        <ele>226.39999389648</ele>
        <time>2021-04-05T14:04:33.000Z</time>
      </trkpt>
      <trkpt lat="46.54779" lon="5.37027">
        <ele>226.60000610352</ele>
        <time>2021-04-05T14:04:35.000Z</time>
      </trkpt>
      <trkpt lat="46.54775" lon="5.37034">
        <ele>226.60000610352</ele>
        <time>2021-04-05T14:04:36.000Z</time>
      </trkpt>
      <trkpt lat="46.54771" lon="5.37041">
        <ele>226.80000305176</ele>
        <time>2021-04-05T14:04:37.000Z</time>
      </trkpt>
      <trkpt lat="46.54762" lon="5.37056">
        <ele>227.19999694824</ele>
        <time>2021-04-05T14:04:39.000Z</time>
      </trkpt>
      <trkpt lat="46.54757" lon="5.37064">
        <ele>227.39999389648</ele>
        <time>2021-04-05T14:04:40.000Z</time>
      </trkpt>
      <trkpt lat="46.54752" lon="5.37071">
        <ele>227.39999389648</ele>
        <time>2021-04-05T14:04:41.000Z</time>
      </trkpt>
      <trkpt lat="46.54746" lon="5.37078">
        <ele>227.39999389648</ele>
        <time>2021-04-05T14:04:42.000Z</time>
      </trkpt>
      <trkpt lat="46.5474" lon="5.37084">
        <ele>227.39999389648</ele>
        <time>2021-04-05T14:04:43.000Z</time>
      </trkpt>
      <trkpt lat="46.54728" lon="5.37095">
        <ele>227.39999389648</ele>
        <time>2021-04-05T14:04:45.000Z</time>
      </trkpt>
      <trkpt lat="46.54715" lon="5.37106">
        <ele>227.39999389648</ele>
        <time>2021-04-05T14:04:47.000Z</time>
      </trkpt>
      <trkpt lat="46.54709" lon="5.37111">
        <ele>227.39999389648</ele>
        <time>2021-04-05T14:04:48.000Z</time>
      </trkpt>
      <trkpt lat="46.54703" lon="5.37117">
        <ele>227.19999694824</ele>
        <time>2021-04-05T14:04:49.000Z</time>
      </trkpt>
      <trkpt lat="46.54691" lon="5.37127">
        <ele>226.60000610352</ele>
        <time>2021-04-05T14:04:51.000Z</time>
      </trkpt>
      <trkpt lat="46.54679" lon="5.37137">
        <ele>226.39999389648</ele>
        <time>2021-04-05T14:04:53.000Z</time>
      </trkpt>
      <trkpt lat="46.54673" lon="5.37142">
        <ele>226.39999389648</ele>
        <time>2021-04-05T14:04:54.000Z</time>
      </trkpt>
      <trkpt lat="46.54668" lon="5.37147">
        <ele>226.19999694824</ele>
        <time>2021-04-05T14:04:55.000Z</time>
      </trkpt>
      <trkpt lat="46.54656" lon="5.37157">
        <ele>226.19999694824</ele>
        <time>2021-04-05T14:04:57.000Z</time>
      </trkpt>
      <trkpt lat="46.54644" lon="5.37167">
        <ele>226.19999694824</ele>
        <time>2021-04-05T14:04:59.000Z</time>
      </trkpt>
      <trkpt lat="46.54637" lon="5.37173">
        <ele>226.19999694824</ele>
        <time>2021-04-05T14:05:00.000Z</time>
      </trkpt>
      <trkpt lat="46.54631" lon="5.3718">
        <ele>226.19999694824</ele>
        <time>2021-04-05T14:05:01.000Z</time>
      </trkpt>
      <trkpt lat="46.54619" lon="5.37192">
        <ele>226</ele>
        <time>2021-04-05T14:05:03.000Z</time>
      </trkpt>
      <trkpt lat="46.54606" lon="5.37204">
        <ele>226</ele>
        <time>2021-04-05T14:05:05.000Z</time>
      </trkpt>
      <trkpt lat="46.54592" lon="5.37213">
        <ele>225.80000305176</ele>
        <time>2021-04-05T14:05:07.000Z</time>
      </trkpt>
      <trkpt lat="46.54585" lon="5.37216">
        <ele>225.80000305176</ele>
        <time>2021-04-05T14:05:08.000Z</time>
      </trkpt>
      <trkpt lat="46.54579" lon="5.37219">
        <ele>225.80000305176</ele>
        <time>2021-04-05T14:05:09.000Z</time>
      </trkpt>
      <trkpt lat="46.54565" lon="5.37223">
        <ele>225.80000305176</ele>
        <time>2021-04-05T14:05:11.000Z</time>
      </trkpt>
      <trkpt lat="46.54551" lon="5.37229">
        <ele>225.80000305176</ele>
        <time>2021-04-05T14:05:13.000Z</time>
      </trkpt>
      <trkpt lat="46.54538" lon="5.37234">
        <ele>225.80000305176</ele>
        <time>2021-04-05T14:05:15.000Z</time>
      </trkpt>
      <trkpt lat="46.54525" lon="5.37238">
        <ele>225.60000610352</ele>
        <time>2021-04-05T14:05:17.000Z</time>
      </trkpt>
      <trkpt lat="46.54511" lon="5.37243">
        <ele>225.80000305176</ele>
        <time>2021-04-05T14:05:19.000Z</time>
      </trkpt>
      <trkpt lat="46.54498" lon="5.37248">
        <ele>226</ele>
        <time>2021-04-05T14:05:21.000Z</time>
      </trkpt>
      <trkpt lat="46.54485" lon="5.37252">
        <ele>226.19999694824</ele>
        <time>2021-04-05T14:05:23.000Z</time>
      </trkpt>
      <trkpt lat="46.54479" lon="5.37254">
        <ele>226.19999694824</ele>
        <time>2021-04-05T14:05:24.000Z</time>
      </trkpt>
      <trkpt lat="46.54473" lon="5.37256">
        <ele>226.39999389648</ele>
        <time>2021-04-05T14:05:25.000Z</time>
      </trkpt>
      <trkpt lat="46.54461" lon="5.37262">
        <ele>226.60000610352</ele>
        <time>2021-04-05T14:05:27.000Z</time>
      </trkpt>
      <trkpt lat="46.5445" lon="5.37269">
        <ele>227</ele>
        <time>2021-04-05T14:05:29.000Z</time>
      </trkpt>
      <trkpt lat="46.54445" lon="5.37273">
        <ele>227.19999694824</ele>
        <time>2021-04-05T14:05:30.000Z</time>
      </trkpt>
      <trkpt lat="46.5444" lon="5.37278">
        <ele>227.19999694824</ele>
        <time>2021-04-05T14:05:31.000Z</time>
      </trkpt>
      <trkpt lat="46.54429" lon="5.37287">
        <ele>227.39999389648</ele>
        <time>2021-04-05T14:05:33.000Z</time>
      </trkpt>
      <trkpt lat="46.54418" lon="5.37296">
        <ele>227.39999389648</ele>
        <time>2021-04-05T14:05:35.000Z</time>
      </trkpt>
      <trkpt lat="46.54406" lon="5.37306">
        <ele>227.60000610352</ele>
        <time>2021-04-05T14:05:37.000Z</time>
      </trkpt>
      <trkpt lat="46.54395" lon="5.37315">
        <ele>227.60000610352</ele>
        <time>2021-04-05T14:05:39.000Z</time>
      </trkpt>
      <trkpt lat="46.54382" lon="5.37325">
        <ele>228</ele>
        <time>2021-04-05T14:05:41.000Z</time>
      </trkpt>
      <trkpt lat="46.5437" lon="5.37333">
        <ele>228</ele>
        <time>2021-04-05T14:05:43.000Z</time>
      </trkpt>
      <trkpt lat="46.54358" lon="5.37341">
        <ele>228.19999694824</ele>
        <time>2021-04-05T14:05:45.000Z</time>
      </trkpt>
      <trkpt lat="46.54347" lon="5.37349">
        <ele>228.19999694824</ele>
        <time>2021-04-05T14:05:47.000Z</time>
      </trkpt>
      <trkpt lat="46.54335" lon="5.37357">
        <ele>228.19999694824</ele>
        <time>2021-04-05T14:05:49.000Z</time>
      </trkpt>
      <trkpt lat="46.54325" lon="5.37364">
        <ele>228.39999389648</ele>
        <time>2021-04-05T14:05:51.000Z</time>
      </trkpt>
      <trkpt lat="46.54319" lon="5.37368">
        <ele>228.39999389648</ele>
        <time>2021-04-05T14:05:52.000Z</time>
      </trkpt>
      <trkpt lat="46.54314" lon="5.37371">
        <ele>228.60000610352</ele>
        <time>2021-04-05T14:05:53.000Z</time>
      </trkpt>
      <trkpt lat="46.54304" lon="5.37379">
        <ele>228.80000305176</ele>
        <time>2021-04-05T14:05:55.000Z</time>
      </trkpt>
      <trkpt lat="46.54299" lon="5.37384">
        <ele>228.80000305176</ele>
        <time>2021-04-05T14:05:56.000Z</time>
      </trkpt>
      <trkpt lat="46.54294" lon="5.37387">
        <ele>229</ele>
        <time>2021-04-05T14:05:57.000Z</time>
      </trkpt>
      <trkpt lat="46.54285" lon="5.37395">
        <ele>229.80000305176</ele>
        <time>2021-04-05T14:05:59.000Z</time>
      </trkpt>
      <trkpt lat="46.54276" lon="5.37404">
        <ele>230.39999389648</ele>
        <time>2021-04-05T14:06:01.000Z</time>
      </trkpt>
      <trkpt lat="46.54268" lon="5.37411">
        <ele>230.39999389648</ele>
        <time>2021-04-05T14:06:03.000Z</time>
      </trkpt>
      <trkpt lat="46.54259" lon="5.37419">
        <ele>230.80000305176</ele>
        <time>2021-04-05T14:06:05.000Z</time>
      </trkpt>
      <trkpt lat="46.54254" lon="5.37424">
        <ele>231</ele>
        <time>2021-04-05T14:06:06.000Z</time>
      </trkpt>
      <trkpt lat="46.5425" lon="5.37429">
        <ele>231.39999389648</ele>
        <time>2021-04-05T14:06:07.000Z</time>
      </trkpt>
      <trkpt lat="46.54241" lon="5.37438">
        <ele>231.60000610352</ele>
        <time>2021-04-05T14:06:09.000Z</time>
      </trkpt>
      <trkpt lat="46.54237" lon="5.37444">
        <ele>231.80000305176</ele>
        <time>2021-04-05T14:06:10.000Z</time>
      </trkpt>
      <trkpt lat="46.54232" lon="5.37451">
        <ele>231.80000305176</ele>
        <time>2021-04-05T14:06:11.000Z</time>
      </trkpt>
      <trkpt lat="46.54225" lon="5.37467">
        <ele>231.80000305176</ele>
        <time>2021-04-05T14:06:13.000Z</time>
      </trkpt>
      <trkpt lat="46.54222" lon="5.37477">
        <ele>231.80000305176</ele>
        <time>2021-04-05T14:06:14.000Z</time>
      </trkpt>
      <trkpt lat="46.5422" lon="5.37488">
        <ele>231.80000305176</ele>
        <time>2021-04-05T14:06:15.000Z</time>
      </trkpt>
      <trkpt lat="46.54217" lon="5.37512">
        <ele>231.80000305176</ele>
        <time>2021-04-05T14:06:17.000Z</time>
      </trkpt>
      <trkpt lat="46.54216" lon="5.37523">
        <ele>231.80000305176</ele>
        <time>2021-04-05T14:06:18.000Z</time>
      </trkpt>
      <trkpt lat="46.54215" lon="5.37535">
        <ele>231.80000305176</ele>
        <time>2021-04-05T14:06:19.000Z</time>
      </trkpt>
      <trkpt lat="46.54207" lon="5.37559">
        <ele>231.19999694824</ele>
        <time>2021-04-05T14:06:21.000Z</time>
      </trkpt>
      <trkpt lat="46.54196" lon="5.3758">
        <ele>230.39999389648</ele>
        <time>2021-04-05T14:06:23.000Z</time>
      </trkpt>
      <trkpt lat="46.54189" lon="5.37588">
        <ele>230</ele>
        <time>2021-04-05T14:06:24.000Z</time>
      </trkpt>
      <trkpt lat="46.54182" lon="5.37595">
        <ele>229.60000610352</ele>
        <time>2021-04-05T14:06:25.000Z</time>
      </trkpt>
      <trkpt lat="46.54175" lon="5.37601">
        <ele>229.39999389648</ele>
        <time>2021-04-05T14:06:26.000Z</time>
      </trkpt>
      <trkpt lat="46.54168" lon="5.37607">
        <ele>229</ele>
        <time>2021-04-05T14:06:27.000Z</time>
      </trkpt>
      <trkpt lat="46.54161" lon="5.37613">
        <ele>229</ele>
        <time>2021-04-05T14:06:28.000Z</time>
      </trkpt>
      <trkpt lat="46.54154" lon="5.37618">
        <ele>228.80000305176</ele>
        <time>2021-04-05T14:06:29.000Z</time>
      </trkpt>
      <trkpt lat="46.54141" lon="5.37629">
        <ele>228.80000305176</ele>
        <time>2021-04-05T14:06:31.000Z</time>
      </trkpt>
      <trkpt lat="46.54129" lon="5.37639">
        <ele>228.80000305176</ele>
        <time>2021-04-05T14:06:33.000Z</time>
      </trkpt>
      <trkpt lat="46.54117" lon="5.37648">
        <ele>228.80000305176</ele>
        <time>2021-04-05T14:06:35.000Z</time>
      </trkpt>
      <trkpt lat="46.54112" lon="5.37653">
        <ele>228.80000305176</ele>
        <time>2021-04-05T14:06:36.000Z</time>
      </trkpt>
      <trkpt lat="46.54107" lon="5.37657">
        <ele>228.80000305176</ele>
        <time>2021-04-05T14:06:37.000Z</time>
      </trkpt>
      <trkpt lat="46.54097" lon="5.37665">
        <ele>229</ele>
        <time>2021-04-05T14:06:39.000Z</time>
      </trkpt>
      <trkpt lat="46.54086" lon="5.37674">
        <ele>229.39999389648</ele>
        <time>2021-04-05T14:06:41.000Z</time>
      </trkpt>
      <trkpt lat="46.54076" lon="5.37682">
        <ele>229.80000305176</ele>
        <time>2021-04-05T14:06:43.000Z</time>
      </trkpt>
      <trkpt lat="46.54071" lon="5.37687">
        <ele>230</ele>
        <time>2021-04-05T14:06:44.000Z</time>
      </trkpt>
      <trkpt lat="46.54065" lon="5.37692">
        <ele>230.60000610352</ele>
        <time>2021-04-05T14:06:45.000Z</time>
      </trkpt>
      <trkpt lat="46.54055" lon="5.37701">
        <ele>231.39999389648</ele>
        <time>2021-04-05T14:06:47.000Z</time>
      </trkpt>
      <trkpt lat="46.54044" lon="5.37711">
        <ele>232.19999694824</ele>
        <time>2021-04-05T14:06:49.000Z</time>
      </trkpt>
      <trkpt lat="46.54033" lon="5.37722">
        <ele>232.39999389648</ele>
        <time>2021-04-05T14:06:51.000Z</time>
      </trkpt>
      <trkpt lat="46.54027" lon="5.37727">
        <ele>232.60000610352</ele>
        <time>2021-04-05T14:06:52.000Z</time>
      </trkpt>
      <trkpt lat="46.54022" lon="5.37733">
        <ele>232.60000610352</ele>
        <time>2021-04-05T14:06:53.000Z</time>
      </trkpt>
      <trkpt lat="46.54011" lon="5.37744">
        <ele>232.80000305176</ele>
        <time>2021-04-05T14:06:55.000Z</time>
      </trkpt>
      <trkpt lat="46.53999" lon="5.37754">
        <ele>232.80000305176</ele>
        <time>2021-04-05T14:06:57.000Z</time>
      </trkpt>
      <trkpt lat="46.53986" lon="5.37764">
        <ele>232.80000305176</ele>
        <time>2021-04-05T14:06:59.000Z</time>
      </trkpt>
      <trkpt lat="46.53973" lon="5.37771">
        <ele>232.80000305176</ele>
        <time>2021-04-05T14:07:01.000Z</time>
      </trkpt>
      <trkpt lat="46.5396" lon="5.37778">
        <ele>232.80000305176</ele>
        <time>2021-04-05T14:07:03.000Z</time>
      </trkpt>
      <trkpt lat="46.53947" lon="5.37784">
        <ele>233</ele>
        <time>2021-04-05T14:07:05.000Z</time>
      </trkpt>
      <trkpt lat="46.53935" lon="5.3779">
        <ele>233</ele>
        <time>2021-04-05T14:07:07.000Z</time>
      </trkpt>
      <trkpt lat="46.53922" lon="5.37797">
        <ele>233</ele>
        <time>2021-04-05T14:07:09.000Z</time>
      </trkpt>
      <trkpt lat="46.53916" lon="5.37801">
        <ele>233</ele>
        <time>2021-04-05T14:07:10.000Z</time>
      </trkpt>
      <trkpt lat="46.5391" lon="5.37805">
        <ele>233</ele>
        <time>2021-04-05T14:07:11.000Z</time>
      </trkpt>
      <trkpt lat="46.53899" lon="5.37815">
        <ele>233.19999694824</ele>
        <time>2021-04-05T14:07:13.000Z</time>
      </trkpt>
      <trkpt lat="46.53889" lon="5.37828">
        <ele>233.60000610352</ele>
        <time>2021-04-05T14:07:15.000Z</time>
      </trkpt>
      <trkpt lat="46.53881" lon="5.37841">
        <ele>234</ele>
        <time>2021-04-05T14:07:17.000Z</time>
      </trkpt>
      <trkpt lat="46.53873" lon="5.37854">
        <ele>234</ele>
        <time>2021-04-05T14:07:19.000Z</time>
      </trkpt>
      <trkpt lat="46.53869" lon="5.3786">
        <ele>234.19999694824</ele>
        <time>2021-04-05T14:07:20.000Z</time>
      </trkpt>
      <trkpt lat="46.53865" lon="5.37866">
        <ele>234.19999694824</ele>
        <time>2021-04-05T14:07:21.000Z</time>
      </trkpt>
      <trkpt lat="46.53858" lon="5.37879">
        <ele>234.39999389648</ele>
        <time>2021-04-05T14:07:23.000Z</time>
      </trkpt>
      <trkpt lat="46.53851" lon="5.37891">
        <ele>234.80000305176</ele>
        <time>2021-04-05T14:07:25.000Z</time>
      </trkpt>
      <trkpt lat="46.53843" lon="5.37902">
        <ele>235.60000610352</ele>
        <time>2021-04-05T14:07:27.000Z</time>
      </trkpt>
      <trkpt lat="46.53839" lon="5.37907">
        <ele>236</ele>
        <time>2021-04-05T14:07:28.000Z</time>
      </trkpt>
      <trkpt lat="46.53835" lon="5.37912">
        <ele>236.19999694824</ele>
        <time>2021-04-05T14:07:29.000Z</time>
      </trkpt>
      <trkpt lat="46.53827" lon="5.37921">
        <ele>236.60000610352</ele>
        <time>2021-04-05T14:07:31.000Z</time>
      </trkpt>
      <trkpt lat="46.53822" lon="5.37925">
        <ele>236.80000305176</ele>
        <time>2021-04-05T14:07:32.000Z</time>
      </trkpt>
      <trkpt lat="46.53817" lon="5.37928">
        <ele>236.80000305176</ele>
        <time>2021-04-05T14:07:33.000Z</time>
      </trkpt>
      <trkpt lat="46.53812" lon="5.37931">
        <ele>237</ele>
        <time>2021-04-05T14:07:34.000Z</time>
      </trkpt>
      <trkpt lat="46.53807" lon="5.37934">
        <ele>237.19999694824</ele>
        <time>2021-04-05T14:07:35.000Z</time>
      </trkpt>
      <trkpt lat="46.53801" lon="5.37936">
        <ele>237.39999389648</ele>
        <time>2021-04-05T14:07:36.000Z</time>
      </trkpt>
      <trkpt lat="46.5379" lon="5.3794">
        <ele>237.80000305176</ele>
        <time>2021-04-05T14:07:38.000Z</time>
      </trkpt>
      <trkpt lat="46.5378" lon="5.37945">
        <ele>237.80000305176</ele>
        <time>2021-04-05T14:07:40.000Z</time>
      </trkpt>
      <trkpt lat="46.53769" lon="5.37951">
        <ele>238</ele>
        <time>2021-04-05T14:07:42.000Z</time>
      </trkpt>
      <trkpt lat="46.53764" lon="5.37954">
        <ele>238.19999694824</ele>
        <time>2021-04-05T14:07:43.000Z</time>
      </trkpt>
      <trkpt lat="46.53759" lon="5.37956">
        <ele>238.19999694824</ele>
        <time>2021-04-05T14:07:44.000Z</time>
      </trkpt>
      <trkpt lat="46.53749" lon="5.37961">
        <ele>238.39999389648</ele>
        <time>2021-04-05T14:07:46.000Z</time>
      </trkpt>
      <trkpt lat="46.5374" lon="5.37967">
        <ele>238.60000610352</ele>
        <time>2021-04-05T14:07:48.000Z</time>
      </trkpt>
      <trkpt lat="46.53731" lon="5.37972">
        <ele>238.80000305176</ele>
        <time>2021-04-05T14:07:50.000Z</time>
      </trkpt>
      <trkpt lat="46.53727" lon="5.37974">
        <ele>238.80000305176</ele>
        <time>2021-04-05T14:07:51.000Z</time>
      </trkpt>
      <trkpt lat="46.53722" lon="5.37977">
        <ele>239.19999694824</ele>
        <time>2021-04-05T14:07:52.000Z</time>
      </trkpt>
      <trkpt lat="46.53714" lon="5.37982">
        <ele>239.60000610352</ele>
        <time>2021-04-05T14:07:54.000Z</time>
      </trkpt>
      <trkpt lat="46.53705" lon="5.37987">
        <ele>240</ele>
        <time>2021-04-05T14:07:56.000Z</time>
      </trkpt>
      <trkpt lat="46.53701" lon="5.37989">
        <ele>240.19999694824</ele>
        <time>2021-04-05T14:07:57.000Z</time>
      </trkpt>
      <trkpt lat="46.53698" lon="5.37992">
        <ele>240.60000610352</ele>
        <time>2021-04-05T14:07:58.000Z</time>
      </trkpt>
      <trkpt lat="46.5369" lon="5.37998">
        <ele>241</ele>
        <time>2021-04-05T14:08:00.000Z</time>
      </trkpt>
      <trkpt lat="46.53687" lon="5.38002">
        <ele>241.19999694824</ele>
        <time>2021-04-05T14:08:01.000Z</time>
      </trkpt>
      <trkpt lat="46.53684" lon="5.38006">
        <ele>241.39999389648</ele>
        <time>2021-04-05T14:08:02.000Z</time>
      </trkpt>
      <trkpt lat="46.53678" lon="5.38014">
        <ele>242.39999389648</ele>
        <time>2021-04-05T14:08:04.000Z</time>
      </trkpt>
      <trkpt lat="46.53672" lon="5.38023">
        <ele>243.19999694824</ele>
        <time>2021-04-05T14:08:06.000Z</time>
      </trkpt>
      <trkpt lat="46.5367" lon="5.38028">
        <ele>243.39999389648</ele>
        <time>2021-04-05T14:08:07.000Z</time>
      </trkpt>
      <trkpt lat="46.53668" lon="5.38033">
        <ele>243.80000305176</ele>
        <time>2021-04-05T14:08:08.000Z</time>
      </trkpt>
      <trkpt lat="46.53664" lon="5.38042">
        <ele>244.80000305176</ele>
        <time>2021-04-05T14:08:10.000Z</time>
      </trkpt>
      <trkpt lat="46.53663" lon="5.38047">
        <ele>245</ele>
        <time>2021-04-05T14:08:11.000Z</time>
      </trkpt>
      <trkpt lat="46.53661" lon="5.38052">
        <ele>245.39999389648</ele>
        <time>2021-04-05T14:08:12.000Z</time>
      </trkpt>
      <trkpt lat="46.53659" lon="5.38062">
        <ele>245.80000305176</ele>
        <time>2021-04-05T14:08:14.000Z</time>
      </trkpt>
      <trkpt lat="46.53658" lon="5.38067">
        <ele>246</ele>
        <time>2021-04-05T14:08:15.000Z</time>
      </trkpt>
      <trkpt lat="46.53657" lon="5.38073">
        <ele>246.39999389648</ele>
        <time>2021-04-05T14:08:16.000Z</time>
      </trkpt>
      <trkpt lat="46.53656" lon="5.38084">
        <ele>247.19999694824</ele>
        <time>2021-04-05T14:08:18.000Z</time>
      </trkpt>
      <trkpt lat="46.53654" lon="5.38095">
        <ele>247.80000305176</ele>
        <time>2021-04-05T14:08:20.000Z</time>
      </trkpt>
      <trkpt lat="46.53653" lon="5.38101">
        <ele>248.60000610352</ele>
        <time>2021-04-05T14:08:21.000Z</time>
      </trkpt>
      <trkpt lat="46.53652" lon="5.38106">
        <ele>248.80000305176</ele>
        <time>2021-04-05T14:08:22.000Z</time>
      </trkpt>
      <trkpt lat="46.53649" lon="5.38117">
        <ele>249.19999694824</ele>
        <time>2021-04-05T14:08:24.000Z</time>
      </trkpt>
      <trkpt lat="46.53648" lon="5.38123">
        <ele>249.60000610352</ele>
        <time>2021-04-05T14:08:25.000Z</time>
      </trkpt>
      <trkpt lat="46.53646" lon="5.38129">
        <ele>250</ele>
        <time>2021-04-05T14:08:26.000Z</time>
      </trkpt>
      <trkpt lat="46.53645" lon="5.38134">
        <ele>250.19999694824</ele>
        <time>2021-04-05T14:08:27.000Z</time>
      </trkpt>
      <trkpt lat="46.53642" lon="5.38139">
        <ele>250.39999389648</ele>
        <time>2021-04-05T14:08:28.000Z</time>
      </trkpt>
      <trkpt lat="46.5364" lon="5.38144">
        <ele>250.60000610352</ele>
        <time>2021-04-05T14:08:29.000Z</time>
      </trkpt>
      <trkpt lat="46.53638" lon="5.3815">
        <ele>250.80000305176</ele>
        <time>2021-04-05T14:08:30.000Z</time>
      </trkpt>
      <trkpt lat="46.53632" lon="5.38161">
        <ele>251</ele>
        <time>2021-04-05T14:08:32.000Z</time>
      </trkpt>
      <trkpt lat="46.53627" lon="5.38172">
        <ele>251.39999389648</ele>
        <time>2021-04-05T14:08:34.000Z</time>
      </trkpt>
      <trkpt lat="46.53621" lon="5.38184">
        <ele>251.60000610352</ele>
        <time>2021-04-05T14:08:36.000Z</time>
      </trkpt>
      <trkpt lat="46.53618" lon="5.3819">
        <ele>252</ele>
        <time>2021-04-05T14:08:37.000Z</time>
      </trkpt>
      <trkpt lat="46.53616" lon="5.38196">
        <ele>252</ele>
        <time>2021-04-05T14:08:38.000Z</time>
      </trkpt>
      <trkpt lat="46.5361" lon="5.38209">
        <ele>252</ele>
        <time>2021-04-05T14:08:40.000Z</time>
      </trkpt>
      <trkpt lat="46.53605" lon="5.38222">
        <ele>252.19999694824</ele>
        <time>2021-04-05T14:08:42.000Z</time>
      </trkpt>
      <trkpt lat="46.53598" lon="5.38235">
        <ele>252.39999389648</ele>
        <time>2021-04-05T14:08:44.000Z</time>
      </trkpt>
      <trkpt lat="46.53595" lon="5.38242">
        <ele>252.39999389648</ele>
        <time>2021-04-05T14:08:45.000Z</time>
      </trkpt>
      <trkpt lat="46.53591" lon="5.38249">
        <ele>252.60000610352</ele>
        <time>2021-04-05T14:08:46.000Z</time>
      </trkpt>
      <trkpt lat="46.53584" lon="5.38263">
        <ele>252.60000610352</ele>
        <time>2021-04-05T14:08:48.000Z</time>
      </trkpt>
      <trkpt lat="46.53577" lon="5.38278">
        <ele>252.60000610352</ele>
        <time>2021-04-05T14:08:50.000Z</time>
      </trkpt>
      <trkpt lat="46.53569" lon="5.38293">
        <ele>252.60000610352</ele>
        <time>2021-04-05T14:08:52.000Z</time>
      </trkpt>
      <trkpt lat="46.53562" lon="5.38309">
        <ele>252.80000305176</ele>
        <time>2021-04-05T14:08:54.000Z</time>
      </trkpt>
      <trkpt lat="46.53554" lon="5.38326">
        <ele>252.80000305176</ele>
        <time>2021-04-05T14:08:56.000Z</time>
      </trkpt>
      <trkpt lat="46.53545" lon="5.38342">
        <ele>252.80000305176</ele>
        <time>2021-04-05T14:08:58.000Z</time>
      </trkpt>
      <trkpt lat="46.53536" lon="5.38357">
        <ele>252.80000305176</ele>
        <time>2021-04-05T14:09:00.000Z</time>
      </trkpt>
      <trkpt lat="46.53526" lon="5.38369">
        <ele>252.80000305176</ele>
        <time>2021-04-05T14:09:02.000Z</time>
      </trkpt>
      <trkpt lat="46.53514" lon="5.38381">
        <ele>252.60000610352</ele>
        <time>2021-04-05T14:09:04.000Z</time>
      </trkpt>
      <trkpt lat="46.53503" lon="5.38391">
        <ele>252.60000610352</ele>
        <time>2021-04-05T14:09:06.000Z</time>
      </trkpt>
      <trkpt lat="46.5349" lon="5.38402">
        <ele>252.39999389648</ele>
        <time>2021-04-05T14:09:08.000Z</time>
      </trkpt>
      <trkpt lat="46.53479" lon="5.38413">
        <ele>252.19999694824</ele>
        <time>2021-04-05T14:09:10.000Z</time>
      </trkpt>
      <trkpt lat="46.53468" lon="5.38425">
        <ele>252</ele>
        <time>2021-04-05T14:09:12.000Z</time>
      </trkpt>
      <trkpt lat="46.53463" lon="5.3843">
        <ele>252</ele>
        <time>2021-04-05T14:09:13.000Z</time>
      </trkpt>
      <trkpt lat="46.53459" lon="5.38434">
        <ele>252</ele>
        <time>2021-04-05T14:09:14.000Z</time>
      </trkpt>
      <trkpt lat="46.53453" lon="5.38436">
        <ele>252</ele>
        <time>2021-04-05T14:09:16.000Z</time>
      </trkpt>
      <trkpt lat="46.53449" lon="5.38432">
        <ele>252</ele>
        <time>2021-04-05T14:09:18.000Z</time>
      </trkpt>
      <trkpt lat="46.53447" lon="5.38426">
        <ele>252</ele>
        <time>2021-04-05T14:09:20.000Z</time>
      </trkpt>
      <trkpt lat="46.53445" lon="5.38415">
        <ele>252</ele>
        <time>2021-04-05T14:09:22.000Z</time>
      </trkpt>
      <trkpt lat="46.53442" lon="5.38401">
        <ele>252</ele>
        <time>2021-04-05T14:09:24.000Z</time>
      </trkpt>
      <trkpt lat="46.53438" lon="5.38386">
        <ele>252</ele>
        <time>2021-04-05T14:09:26.000Z</time>
      </trkpt>
      <trkpt lat="46.53435" lon="5.38369">
        <ele>252</ele>
        <time>2021-04-05T14:09:28.000Z</time>
      </trkpt>
      <trkpt lat="46.53432" lon="5.38353">
        <ele>252</ele>
        <time>2021-04-05T14:09:30.000Z</time>
      </trkpt>
      <trkpt lat="46.53429" lon="5.38335">
        <ele>252</ele>
        <time>2021-04-05T14:09:32.000Z</time>
      </trkpt>
      <trkpt lat="46.53425" lon="5.38317">
        <ele>251.80000305176</ele>
        <time>2021-04-05T14:09:34.000Z</time>
      </trkpt>
      <trkpt lat="46.53422" lon="5.38298">
        <ele>251.39999389648</ele>
        <time>2021-04-05T14:09:36.000Z</time>
      </trkpt>
      <trkpt lat="46.5342" lon="5.38288">
        <ele>251.39999389648</ele>
        <time>2021-04-05T14:09:37.000Z</time>
      </trkpt>
      <trkpt lat="46.53418" lon="5.38278">
        <ele>251.19999694824</ele>
        <time>2021-04-05T14:09:38.000Z</time>
      </trkpt>
      <trkpt lat="46.53414" lon="5.38258">
        <ele>251.19999694824</ele>
        <time>2021-04-05T14:09:40.000Z</time>
      </trkpt>
      <trkpt lat="46.53409" lon="5.38237">
        <ele>251</ele>
        <time>2021-04-05T14:09:42.000Z</time>
      </trkpt>
      <trkpt lat="46.53405" lon="5.38216">
        <ele>250.60000610352</ele>
        <time>2021-04-05T14:09:44.000Z</time>
      </trkpt>
      <trkpt lat="46.53402" lon="5.38194">
        <ele>250.60000610352</ele>
        <time>2021-04-05T14:09:46.000Z</time>
      </trkpt>
      <trkpt lat="46.53399" lon="5.38173">
        <ele>250</ele>
        <time>2021-04-05T14:09:48.000Z</time>
      </trkpt>
      <trkpt lat="46.53396" lon="5.38152">
        <ele>249.60000610352</ele>
        <time>2021-04-05T14:09:50.000Z</time>
      </trkpt>
      <trkpt lat="46.53394" lon="5.38142">
        <ele>249.60000610352</ele>
        <time>2021-04-05T14:09:51.000Z</time>
      </trkpt>
      <trkpt lat="46.53392" lon="5.38132">
        <ele>249.39999389648</ele>
        <time>2021-04-05T14:09:52.000Z</time>
      </trkpt>
      <trkpt lat="46.53389" lon="5.38111">
        <ele>249.19999694824</ele>
        <time>2021-04-05T14:09:54.000Z</time>
      </trkpt>
      <trkpt lat="46.53386" lon="5.38091">
        <ele>249</ele>
        <time>2021-04-05T14:09:56.000Z</time>
      </trkpt>
      <trkpt lat="46.53382" lon="5.38072">
        <ele>248.39999389648</ele>
        <time>2021-04-05T14:09:58.000Z</time>
      </trkpt>
      <trkpt lat="46.53381" lon="5.38062">
        <ele>248.19999694824</ele>
        <time>2021-04-05T14:09:59.000Z</time>
      </trkpt>
      <trkpt lat="46.53379" lon="5.38053">
        <ele>248.19999694824</ele>
        <time>2021-04-05T14:10:00.000Z</time>
      </trkpt>
      <trkpt lat="46.53376" lon="5.38036">
        <ele>248</ele>
        <time>2021-04-05T14:10:02.000Z</time>
      </trkpt>
      <trkpt lat="46.53374" lon="5.38029">
        <ele>247.80000305176</ele>
        <time>2021-04-05T14:10:03.000Z</time>
      </trkpt>
      <trkpt lat="46.5337" lon="5.38025">
        <ele>247.80000305176</ele>
        <time>2021-04-05T14:10:04.000Z</time>
      </trkpt>
      <trkpt lat="46.53362" lon="5.38028">
        <ele>247.80000305176</ele>
        <time>2021-04-05T14:10:06.000Z</time>
      </trkpt>
      <trkpt lat="46.53357" lon="5.38033">
        <ele>247.60000610352</ele>
        <time>2021-04-05T14:10:07.000Z</time>
      </trkpt>
      <trkpt lat="46.53353" lon="5.3804">
        <ele>247.60000610352</ele>
        <time>2021-04-05T14:10:08.000Z</time>
      </trkpt>
      <trkpt lat="46.53344" lon="5.38057">
        <ele>247.60000610352</ele>
        <time>2021-04-05T14:10:10.000Z</time>
      </trkpt>
      <trkpt lat="46.5334" lon="5.38065">
        <ele>247.60000610352</ele>
        <time>2021-04-05T14:10:11.000Z</time>
      </trkpt>
      <trkpt lat="46.53335" lon="5.38073">
        <ele>247.39999389648</ele>
        <time>2021-04-05T14:10:12.000Z</time>
      </trkpt>
      <trkpt lat="46.53326" lon="5.3809">
        <ele>247.19999694824</ele>
        <time>2021-04-05T14:10:14.000Z</time>
      </trkpt>
      <trkpt lat="46.53317" lon="5.38109">
        <ele>246.80000305176</ele>
        <time>2021-04-05T14:10:16.000Z</time>
      </trkpt>
      <trkpt lat="46.53309" lon="5.38128">
        <ele>246.39999389648</ele>
        <time>2021-04-05T14:10:18.000Z</time>
      </trkpt>
      <trkpt lat="46.533" lon="5.38149">
        <ele>246</ele>
        <time>2021-04-05T14:10:20.000Z</time>
      </trkpt>
      <trkpt lat="46.53292" lon="5.38172">
        <ele>245.60000610352</ele>
        <time>2021-04-05T14:10:22.000Z</time>
      </trkpt>
      <trkpt lat="46.53284" lon="5.38195">
        <ele>245.39999389648</ele>
        <time>2021-04-05T14:10:24.000Z</time>
      </trkpt>
      <trkpt lat="46.53276" lon="5.38219">
        <ele>245</ele>
        <time>2021-04-05T14:10:26.000Z</time>
      </trkpt>
      <trkpt lat="46.53267" lon="5.38241">
        <ele>244.19999694824</ele>
        <time>2021-04-05T14:10:28.000Z</time>
      </trkpt>
      <trkpt lat="46.53262" lon="5.38251">
        <ele>243.80000305176</ele>
        <time>2021-04-05T14:10:29.000Z</time>
      </trkpt>
      <trkpt lat="46.53256" lon="5.38261">
        <ele>243.39999389648</ele>
        <time>2021-04-05T14:10:30.000Z</time>
      </trkpt>
      <trkpt lat="46.53249" lon="5.3827">
        <ele>243.19999694824</ele>
        <time>2021-04-05T14:10:31.000Z</time>
      </trkpt>
      <trkpt lat="46.53243" lon="5.38278">
        <ele>243</ele>
        <time>2021-04-05T14:10:32.000Z</time>
      </trkpt>
      <trkpt lat="46.53236" lon="5.38286">
        <ele>242.80000305176</ele>
        <time>2021-04-05T14:10:33.000Z</time>
      </trkpt>
      <trkpt lat="46.53229" lon="5.38294">
        <ele>242.80000305176</ele>
        <time>2021-04-05T14:10:34.000Z</time>
      </trkpt>
      <trkpt lat="46.53223" lon="5.38303">
        <ele>242.80000305176</ele>
        <time>2021-04-05T14:10:35.000Z</time>
      </trkpt>
      <trkpt lat="46.53216" lon="5.38311">
        <ele>242.60000610352</ele>
        <time>2021-04-05T14:10:36.000Z</time>
      </trkpt>
      <trkpt lat="46.53205" lon="5.38329">
        <ele>242.60000610352</ele>
        <time>2021-04-05T14:10:38.000Z</time>
      </trkpt>
      <trkpt lat="46.53196" lon="5.38349">
        <ele>242.60000610352</ele>
        <time>2021-04-05T14:10:40.000Z</time>
      </trkpt>
      <trkpt lat="46.53188" lon="5.3837">
        <ele>242.60000610352</ele>
        <time>2021-04-05T14:10:42.000Z</time>
      </trkpt>
      <trkpt lat="46.53181" lon="5.38391">
        <ele>242.60000610352</ele>
        <time>2021-04-05T14:10:44.000Z</time>
      </trkpt>
      <trkpt lat="46.53174" lon="5.38412">
        <ele>242.60000610352</ele>
        <time>2021-04-05T14:10:46.000Z</time>
      </trkpt>
      <trkpt lat="46.53168" lon="5.38433">
        <ele>243.19999694824</ele>
        <time>2021-04-05T14:10:48.000Z</time>
      </trkpt>
      <trkpt lat="46.53162" lon="5.38454">
        <ele>243.39999389648</ele>
        <time>2021-04-05T14:10:50.000Z</time>
      </trkpt>
      <trkpt lat="46.53157" lon="5.38474">
        <ele>243.60000610352</ele>
        <time>2021-04-05T14:10:52.000Z</time>
      </trkpt>
      <trkpt lat="46.53152" lon="5.38494">
        <ele>244</ele>
        <time>2021-04-05T14:10:54.000Z</time>
      </trkpt>
      <trkpt lat="46.53146" lon="5.38512">
        <ele>244.19999694824</ele>
        <time>2021-04-05T14:10:56.000Z</time>
      </trkpt>
      <trkpt lat="46.5314" lon="5.3853">
        <ele>244.19999694824</ele>
        <time>2021-04-05T14:10:58.000Z</time>
      </trkpt>
      <trkpt lat="46.53133" lon="5.38547">
        <ele>244.39999389648</ele>
        <time>2021-04-05T14:11:00.000Z</time>
      </trkpt>
      <trkpt lat="46.53126" lon="5.38563">
        <ele>244.80000305176</ele>
        <time>2021-04-05T14:11:02.000Z</time>
      </trkpt>
      <trkpt lat="46.53123" lon="5.3857">
        <ele>244.80000305176</ele>
        <time>2021-04-05T14:11:03.000Z</time>
      </trkpt>
      <trkpt lat="46.53119" lon="5.38576">
        <ele>245</ele>
        <time>2021-04-05T14:11:04.000Z</time>
      </trkpt>
      <trkpt lat="46.53109" lon="5.38584">
        <ele>245.19999694824</ele>
        <time>2021-04-05T14:11:06.000Z</time>
      </trkpt>
      <trkpt lat="46.53096" lon="5.38587">
        <ele>245.39999389648</ele>
        <time>2021-04-05T14:11:08.000Z</time>
      </trkpt>
      <trkpt lat="46.53082" lon="5.38591">
        <ele>245.60000610352</ele>
        <time>2021-04-05T14:11:10.000Z</time>
      </trkpt>
      <trkpt lat="46.53075" lon="5.38594">
        <ele>245.80000305176</ele>
        <time>2021-04-05T14:11:11.000Z</time>
      </trkpt>
      <trkpt lat="46.53068" lon="5.38596">
        <ele>245.80000305176</ele>
        <time>2021-04-05T14:11:12.000Z</time>
      </trkpt>
      <trkpt lat="46.53053" lon="5.38599">
        <ele>245.60000610352</ele>
        <time>2021-04-05T14:11:14.000Z</time>
      </trkpt>
      <trkpt lat="46.53039" lon="5.38603">
        <ele>245.60000610352</ele>
        <time>2021-04-05T14:11:16.000Z</time>
      </trkpt>
      <trkpt lat="46.53024" lon="5.38606">
        <ele>245.60000610352</ele>
        <time>2021-04-05T14:11:18.000Z</time>
      </trkpt>
      <trkpt lat="46.53001" lon="5.38609">
        <ele>244.60000610352</ele>
        <time>2021-04-05T14:11:21.000Z</time>
      </trkpt>
      <trkpt lat="46.52994" lon="5.38608">
        <ele>244.39999389648</ele>
        <time>2021-04-05T14:11:22.000Z</time>
      </trkpt>
      <trkpt lat="46.52986" lon="5.38607">
        <ele>244.19999694824</ele>
        <time>2021-04-05T14:11:23.000Z</time>
      </trkpt>
      <trkpt lat="46.52978" lon="5.38606">
        <ele>244</ele>
        <time>2021-04-05T14:11:24.000Z</time>
      </trkpt>
      <trkpt lat="46.5297" lon="5.38604">
        <ele>244</ele>
        <time>2021-04-05T14:11:25.000Z</time>
      </trkpt>
      <trkpt lat="46.52955" lon="5.38602">
        <ele>243.80000305176</ele>
        <time>2021-04-05T14:11:27.000Z</time>
      </trkpt>
      <trkpt lat="46.52947" lon="5.38603">
        <ele>243.80000305176</ele>
        <time>2021-04-05T14:11:28.000Z</time>
      </trkpt>
      <trkpt lat="46.52939" lon="5.38604">
        <ele>243.60000610352</ele>
        <time>2021-04-05T14:11:29.000Z</time>
      </trkpt>
      <trkpt lat="46.52931" lon="5.38605">
        <ele>243.39999389648</ele>
        <time>2021-04-05T14:11:30.000Z</time>
      </trkpt>
      <trkpt lat="46.52924" lon="5.38603">
        <ele>243</ele>
        <time>2021-04-05T14:11:31.000Z</time>
      </trkpt>
      <trkpt lat="46.52916" lon="5.38604">
        <ele>242.39999389648</ele>
        <time>2021-04-05T14:11:32.000Z</time>
      </trkpt>
      <trkpt lat="46.52909" lon="5.38606">
        <ele>242.19999694824</ele>
        <time>2021-04-05T14:11:33.000Z</time>
      </trkpt>
      <trkpt lat="46.52894" lon="5.38609">
        <ele>241.19999694824</ele>
        <time>2021-04-05T14:11:35.000Z</time>
      </trkpt>
      <trkpt lat="46.52886" lon="5.38609">
        <ele>240.60000610352</ele>
        <time>2021-04-05T14:11:36.000Z</time>
      </trkpt>
      <trkpt lat="46.52878" lon="5.38607">
        <ele>240.39999389648</ele>
        <time>2021-04-05T14:11:37.000Z</time>
      </trkpt>
      <trkpt lat="46.52861" lon="5.38604">
        <ele>239.80000305176</ele>
        <time>2021-04-05T14:11:39.000Z</time>
      </trkpt>
      <trkpt lat="46.52852" lon="5.38603">
        <ele>239.39999389648</ele>
        <time>2021-04-05T14:11:40.000Z</time>
      </trkpt>
      <trkpt lat="46.52844" lon="5.38601">
        <ele>238.19999694824</ele>
        <time>2021-04-05T14:11:41.000Z</time>
      </trkpt>
      <trkpt lat="46.52827" lon="5.38596">
        <ele>237.60000610352</ele>
        <time>2021-04-05T14:11:43.000Z</time>
      </trkpt>
      <trkpt lat="46.52819" lon="5.38592">
        <ele>237.39999389648</ele>
        <time>2021-04-05T14:11:44.000Z</time>
      </trkpt>
      <trkpt lat="46.52812" lon="5.38588">
        <ele>236.80000305176</ele>
        <time>2021-04-05T14:11:45.000Z</time>
      </trkpt>
      <trkpt lat="46.52805" lon="5.38582">
        <ele>236.39999389648</ele>
        <time>2021-04-05T14:11:46.000Z</time>
      </trkpt>
      <trkpt lat="46.52799" lon="5.38574">
        <ele>236</ele>
        <time>2021-04-05T14:11:47.000Z</time>
      </trkpt>
      <trkpt lat="46.52794" lon="5.38566">
        <ele>235.80000305176</ele>
        <time>2021-04-05T14:11:48.000Z</time>
      </trkpt>
      <trkpt lat="46.52789" lon="5.38556">
        <ele>235.60000610352</ele>
        <time>2021-04-05T14:11:49.000Z</time>
      </trkpt>
      <trkpt lat="46.52782" lon="5.38539">
        <ele>235.60000610352</ele>
        <time>2021-04-05T14:11:51.000Z</time>
      </trkpt>
      <trkpt lat="46.5277" lon="5.38528">
        <ele>235.60000610352</ele>
        <time>2021-04-05T14:11:53.000Z</time>
      </trkpt>
      <trkpt lat="46.52757" lon="5.38529">
        <ele>235.60000610352</ele>
        <time>2021-04-05T14:11:55.000Z</time>
      </trkpt>
      <trkpt lat="46.52751" lon="5.3853">
        <ele>235.60000610352</ele>
        <time>2021-04-05T14:11:56.000Z</time>
      </trkpt>
      <trkpt lat="46.52744" lon="5.38532">
        <ele>235.60000610352</ele>
        <time>2021-04-05T14:11:57.000Z</time>
      </trkpt>
      <trkpt lat="46.52739" lon="5.38534">
        <ele>235.80000305176</ele>
        <time>2021-04-05T14:11:58.000Z</time>
      </trkpt>
      <trkpt lat="46.52733" lon="5.38534">
        <ele>235.80000305176</ele>
        <time>2021-04-05T14:11:59.000Z</time>
      </trkpt>
      <trkpt lat="46.52727" lon="5.38531">
        <ele>235.80000305176</ele>
        <time>2021-04-05T14:12:00.000Z</time>
      </trkpt>
      <trkpt lat="46.52721" lon="5.38528">
        <ele>235.80000305176</ele>
        <time>2021-04-05T14:12:01.000Z</time>
      </trkpt>
      <trkpt lat="46.52708" lon="5.38522">
        <ele>236</ele>
        <time>2021-04-05T14:12:03.000Z</time>
      </trkpt>
      <trkpt lat="46.52696" lon="5.38516">
        <ele>236.39999389648</ele>
        <time>2021-04-05T14:12:05.000Z</time>
      </trkpt>
      <trkpt lat="46.52683" lon="5.38512">
        <ele>236.60000610352</ele>
        <time>2021-04-05T14:12:07.000Z</time>
      </trkpt>
      <trkpt lat="46.5267" lon="5.3851">
        <ele>236.80000305176</ele>
        <time>2021-04-05T14:12:09.000Z</time>
      </trkpt>
      <trkpt lat="46.52658" lon="5.38509">
        <ele>237.19999694824</ele>
        <time>2021-04-05T14:12:11.000Z</time>
      </trkpt>
      <trkpt lat="46.52646" lon="5.38507">
        <ele>237.39999389648</ele>
        <time>2021-04-05T14:12:13.000Z</time>
      </trkpt>
      <trkpt lat="46.5264" lon="5.38505">
        <ele>237.60000610352</ele>
        <time>2021-04-05T14:12:14.000Z</time>
      </trkpt>
      <trkpt lat="46.52634" lon="5.38504">
        <ele>237.80000305176</ele>
        <time>2021-04-05T14:12:15.000Z</time>
      </trkpt>
      <trkpt lat="46.52622" lon="5.38503">
        <ele>237.80000305176</ele>
        <time>2021-04-05T14:12:17.000Z</time>
      </trkpt>
      <trkpt lat="46.5261" lon="5.38501">
        <ele>238</ele>
        <time>2021-04-05T14:12:19.000Z</time>
      </trkpt>
      <trkpt lat="46.52604" lon="5.385">
        <ele>238.19999694824</ele>
        <time>2021-04-05T14:12:20.000Z</time>
      </trkpt>
      <trkpt lat="46.52598" lon="5.38499">
        <ele>238.19999694824</ele>
        <time>2021-04-05T14:12:21.000Z</time>
      </trkpt>
      <trkpt lat="46.52587" lon="5.38496">
        <ele>238.60000610352</ele>
        <time>2021-04-05T14:12:23.000Z</time>
      </trkpt>
      <trkpt lat="46.52581" lon="5.38494">
        <ele>238.80000305176</ele>
        <time>2021-04-05T14:12:24.000Z</time>
      </trkpt>
      <trkpt lat="46.52575" lon="5.38492">
        <ele>239</ele>
        <time>2021-04-05T14:12:25.000Z</time>
      </trkpt>
      <trkpt lat="46.52565" lon="5.38487">
        <ele>239.19999694824</ele>
        <time>2021-04-05T14:12:27.000Z</time>
      </trkpt>
      <trkpt lat="46.52554" lon="5.3848">
        <ele>239.60000610352</ele>
        <time>2021-04-05T14:12:29.000Z</time>
      </trkpt>
      <trkpt lat="46.52545" lon="5.38472">
        <ele>240</ele>
        <time>2021-04-05T14:12:31.000Z</time>
      </trkpt>
      <trkpt lat="46.52536" lon="5.38461">
        <ele>240.39999389648</ele>
        <time>2021-04-05T14:12:33.000Z</time>
      </trkpt>
      <trkpt lat="46.52529" lon="5.38447">
        <ele>240.80000305176</ele>
        <time>2021-04-05T14:12:35.000Z</time>
      </trkpt>
      <trkpt lat="46.52525" lon="5.38432">
        <ele>240.80000305176</ele>
        <time>2021-04-05T14:12:37.000Z</time>
      </trkpt>
      <trkpt lat="46.52524" lon="5.38424">
        <ele>241</ele>
        <time>2021-04-05T14:12:38.000Z</time>
      </trkpt>
      <trkpt lat="46.52524" lon="5.38416">
        <ele>241</ele>
        <time>2021-04-05T14:12:39.000Z</time>
      </trkpt>
      <trkpt lat="46.52524" lon="5.384">
        <ele>241</ele>
        <time>2021-04-05T14:12:41.000Z</time>
      </trkpt>
      <trkpt lat="46.52525" lon="5.38384">
        <ele>241</ele>
        <time>2021-04-05T14:12:43.000Z</time>
      </trkpt>
      <trkpt lat="46.52524" lon="5.38376">
        <ele>241</ele>
        <time>2021-04-05T14:12:44.000Z</time>
      </trkpt>
      <trkpt lat="46.52523" lon="5.38366">
        <ele>241</ele>
        <time>2021-04-05T14:12:45.000Z</time>
      </trkpt>
      <trkpt lat="46.5252" lon="5.38346">
        <ele>241</ele>
        <time>2021-04-05T14:12:47.000Z</time>
      </trkpt>
      <trkpt lat="46.52519" lon="5.38335">
        <ele>241</ele>
        <time>2021-04-05T14:12:48.000Z</time>
      </trkpt>
      <trkpt lat="46.52517" lon="5.38324">
        <ele>241</ele>
        <time>2021-04-05T14:12:49.000Z</time>
      </trkpt>
      <trkpt lat="46.52514" lon="5.38302">
        <ele>240.80000305176</ele>
        <time>2021-04-05T14:12:51.000Z</time>
      </trkpt>
      <trkpt lat="46.52513" lon="5.3828">
        <ele>240.39999389648</ele>
        <time>2021-04-05T14:12:53.000Z</time>
      </trkpt>
      <trkpt lat="46.52513" lon="5.38268">
        <ele>240.19999694824</ele>
        <time>2021-04-05T14:12:54.000Z</time>
      </trkpt>
      <trkpt lat="46.52514" lon="5.38256">
        <ele>240</ele>
        <time>2021-04-05T14:12:55.000Z</time>
      </trkpt>
      <trkpt lat="46.52517" lon="5.38233">
        <ele>239.19999694824</ele>
        <time>2021-04-05T14:12:57.000Z</time>
      </trkpt>
      <trkpt lat="46.52519" lon="5.38221">
        <ele>238.80000305176</ele>
        <time>2021-04-05T14:12:58.000Z</time>
      </trkpt>
      <trkpt lat="46.52522" lon="5.38209">
        <ele>238.19999694824</ele>
        <time>2021-04-05T14:12:59.000Z</time>
      </trkpt>
      <trkpt lat="46.52525" lon="5.38198">
        <ele>237.80000305176</ele>
        <time>2021-04-05T14:13:00.000Z</time>
      </trkpt>
      <trkpt lat="46.52529" lon="5.38186">
        <ele>237.60000610352</ele>
        <time>2021-04-05T14:13:01.000Z</time>
      </trkpt>
      <trkpt lat="46.52535" lon="5.38162">
        <ele>236.80000305176</ele>
        <time>2021-04-05T14:13:03.000Z</time>
      </trkpt>
      <trkpt lat="46.52538" lon="5.3815">
        <ele>236.60000610352</ele>
        <time>2021-04-05T14:13:04.000Z</time>
      </trkpt>
      <trkpt lat="46.5254" lon="5.38137">
        <ele>236.60000610352</ele>
        <time>2021-04-05T14:13:05.000Z</time>
      </trkpt>
      <trkpt lat="46.52544" lon="5.38112">
        <ele>235.60000610352</ele>
        <time>2021-04-05T14:13:07.000Z</time>
      </trkpt>
      <trkpt lat="46.52545" lon="5.38086">
        <ele>235</ele>
        <time>2021-04-05T14:13:09.000Z</time>
      </trkpt>
      <trkpt lat="46.52544" lon="5.38061">
        <ele>234.39999389648</ele>
        <time>2021-04-05T14:13:11.000Z</time>
      </trkpt>
      <trkpt lat="46.52541" lon="5.38036">
        <ele>234</ele>
        <time>2021-04-05T14:13:13.000Z</time>
      </trkpt>
      <trkpt lat="46.52539" lon="5.38024">
        <ele>234</ele>
        <time>2021-04-05T14:13:14.000Z</time>
      </trkpt>
      <trkpt lat="46.52536" lon="5.38012">
        <ele>233.80000305176</ele>
        <time>2021-04-05T14:13:15.000Z</time>
      </trkpt>
      <trkpt lat="46.5253" lon="5.37989">
        <ele>233.39999389648</ele>
        <time>2021-04-05T14:13:17.000Z</time>
      </trkpt>
      <trkpt lat="46.52524" lon="5.37966">
        <ele>233.39999389648</ele>
        <time>2021-04-05T14:13:19.000Z</time>
      </trkpt>
      <trkpt lat="46.52519" lon="5.37943">
        <ele>233.19999694824</ele>
        <time>2021-04-05T14:13:21.000Z</time>
      </trkpt>
      <trkpt lat="46.52519" lon="5.37918">
        <ele>232.80000305176</ele>
        <time>2021-04-05T14:13:23.000Z</time>
      </trkpt>
      <trkpt lat="46.5252" lon="5.37893">
        <ele>232.60000610352</ele>
        <time>2021-04-05T14:13:25.000Z</time>
      </trkpt>
      <trkpt lat="46.52521" lon="5.37881">
        <ele>232.60000610352</ele>
        <time>2021-04-05T14:13:26.000Z</time>
      </trkpt>
      <trkpt lat="46.52522" lon="5.37869">
        <ele>232.60000610352</ele>
        <time>2021-04-05T14:13:27.000Z</time>
      </trkpt>
      <trkpt lat="46.52523" lon="5.37844">
        <ele>232.19999694824</ele>
        <time>2021-04-05T14:13:29.000Z</time>
      </trkpt>
      <trkpt lat="46.52525" lon="5.3782">
        <ele>232.19999694824</ele>
        <time>2021-04-05T14:13:31.000Z</time>
      </trkpt>
      <trkpt lat="46.52526" lon="5.37795">
        <ele>232.19999694824</ele>
        <time>2021-04-05T14:13:33.000Z</time>
      </trkpt>
      <trkpt lat="46.52528" lon="5.37771">
        <ele>232.39999389648</ele>
        <time>2021-04-05T14:13:35.000Z</time>
      </trkpt>
      <trkpt lat="46.52529" lon="5.37759">
        <ele>232.39999389648</ele>
        <time>2021-04-05T14:13:36.000Z</time>
      </trkpt>
      <trkpt lat="46.52529" lon="5.37748">
        <ele>232.39999389648</ele>
        <time>2021-04-05T14:13:37.000Z</time>
      </trkpt>
      <trkpt lat="46.52531" lon="5.37724">
        <ele>232.19999694824</ele>
        <time>2021-04-05T14:13:39.000Z</time>
      </trkpt>
      <trkpt lat="46.52532" lon="5.377">
        <ele>232.19999694824</ele>
        <time>2021-04-05T14:13:41.000Z</time>
      </trkpt>
      <trkpt lat="46.52534" lon="5.37677">
        <ele>231.80000305176</ele>
        <time>2021-04-05T14:13:43.000Z</time>
      </trkpt>
      <trkpt lat="46.52536" lon="5.37654">
        <ele>231.60000610352</ele>
        <time>2021-04-05T14:13:45.000Z</time>
      </trkpt>
      <trkpt lat="46.52537" lon="5.37631">
        <ele>231.60000610352</ele>
        <time>2021-04-05T14:13:47.000Z</time>
      </trkpt>
      <trkpt lat="46.5254" lon="5.37608">
        <ele>231.19999694824</ele>
        <time>2021-04-05T14:13:49.000Z</time>
      </trkpt>
      <trkpt lat="46.52542" lon="5.37585">
        <ele>231</ele>
        <time>2021-04-05T14:13:51.000Z</time>
      </trkpt>
      <trkpt lat="46.52544" lon="5.37563">
        <ele>230.80000305176</ele>
        <time>2021-04-05T14:13:53.000Z</time>
      </trkpt>
      <trkpt lat="46.52546" lon="5.37541">
        <ele>230.60000610352</ele>
        <time>2021-04-05T14:13:55.000Z</time>
      </trkpt>
      <trkpt lat="46.52547" lon="5.37531">
        <ele>230.60000610352</ele>
        <time>2021-04-05T14:13:56.000Z</time>
      </trkpt>
      <trkpt lat="46.52548" lon="5.3752">
        <ele>230.60000610352</ele>
        <time>2021-04-05T14:13:57.000Z</time>
      </trkpt>
      <trkpt lat="46.52549" lon="5.37509">
        <ele>230.60000610352</ele>
        <time>2021-04-05T14:13:58.000Z</time>
      </trkpt>
      <trkpt lat="46.52551" lon="5.37499">
        <ele>230.60000610352</ele>
        <time>2021-04-05T14:13:59.000Z</time>
      </trkpt>
      <trkpt lat="46.52553" lon="5.37478">
        <ele>230.39999389648</ele>
        <time>2021-04-05T14:14:01.000Z</time>
      </trkpt>
      <trkpt lat="46.52555" lon="5.37457">
        <ele>230.39999389648</ele>
        <time>2021-04-05T14:14:03.000Z</time>
      </trkpt>
      <trkpt lat="46.52556" lon="5.37437">
        <ele>230.39999389648</ele>
        <time>2021-04-05T14:14:05.000Z</time>
      </trkpt>
      <trkpt lat="46.52557" lon="5.37416">
        <ele>230.19999694824</ele>
        <time>2021-04-05T14:14:07.000Z</time>
      </trkpt>
      <trkpt lat="46.52559" lon="5.37396">
        <ele>230.19999694824</ele>
        <time>2021-04-05T14:14:09.000Z</time>
      </trkpt>
      <trkpt lat="46.5256" lon="5.37376">
        <ele>230</ele>
        <time>2021-04-05T14:14:11.000Z</time>
      </trkpt>
      <trkpt lat="46.52562" lon="5.37355">
        <ele>230</ele>
        <time>2021-04-05T14:14:13.000Z</time>
      </trkpt>
      <trkpt lat="46.52563" lon="5.37335">
        <ele>230</ele>
        <time>2021-04-05T14:14:15.000Z</time>
      </trkpt>
      <trkpt lat="46.52563" lon="5.37314">
        <ele>230</ele>
        <time>2021-04-05T14:14:17.000Z</time>
      </trkpt>
      <trkpt lat="46.52562" lon="5.37294">
        <ele>229.80000305176</ele>
        <time>2021-04-05T14:14:19.000Z</time>
      </trkpt>
      <trkpt lat="46.5256" lon="5.37274">
        <ele>229.80000305176</ele>
        <time>2021-04-05T14:14:21.000Z</time>
      </trkpt>
      <trkpt lat="46.52556" lon="5.37255">
        <ele>229.80000305176</ele>
        <time>2021-04-05T14:14:23.000Z</time>
      </trkpt>
      <trkpt lat="46.52551" lon="5.37237">
        <ele>229.80000305176</ele>
        <time>2021-04-05T14:14:25.000Z</time>
      </trkpt>
      <trkpt lat="46.52544" lon="5.3722">
        <ele>229.60000610352</ele>
        <time>2021-04-05T14:14:27.000Z</time>
      </trkpt>
      <trkpt lat="46.5254" lon="5.37212">
        <ele>229.39999389648</ele>
        <time>2021-04-05T14:14:28.000Z</time>
      </trkpt>
      <trkpt lat="46.52536" lon="5.37205">
        <ele>229.19999694824</ele>
        <time>2021-04-05T14:14:29.000Z</time>
      </trkpt>
      <trkpt lat="46.52526" lon="5.37191">
        <ele>229</ele>
        <time>2021-04-05T14:14:31.000Z</time>
      </trkpt>
      <trkpt lat="46.52521" lon="5.37185">
        <ele>229</ele>
        <time>2021-04-05T14:14:32.000Z</time>
      </trkpt>
      <trkpt lat="46.52517" lon="5.37178">
        <ele>229</ele>
        <time>2021-04-05T14:14:33.000Z</time>
      </trkpt>
      <trkpt lat="46.52507" lon="5.37166">
        <ele>229</ele>
        <time>2021-04-05T14:14:35.000Z</time>
      </trkpt>
      <trkpt lat="46.52497" lon="5.37154">
        <ele>228.80000305176</ele>
        <time>2021-04-05T14:14:37.000Z</time>
      </trkpt>
      <trkpt lat="46.52491" lon="5.37148">
        <ele>228.80000305176</ele>
        <time>2021-04-05T14:14:38.000Z</time>
      </trkpt>
      <trkpt lat="46.52486" lon="5.37143">
        <ele>228.80000305176</ele>
        <time>2021-04-05T14:14:39.000Z</time>
      </trkpt>
      <trkpt lat="46.52476" lon="5.3713">
        <ele>228.80000305176</ele>
        <time>2021-04-05T14:14:41.000Z</time>
      </trkpt>
      <trkpt lat="46.52467" lon="5.37117">
        <ele>228.80000305176</ele>
        <time>2021-04-05T14:14:43.000Z</time>
      </trkpt>
      <trkpt lat="46.52459" lon="5.37102">
        <ele>228.60000610352</ele>
        <time>2021-04-05T14:14:45.000Z</time>
      </trkpt>
      <trkpt lat="46.52452" lon="5.37086">
        <ele>228.60000610352</ele>
        <time>2021-04-05T14:14:47.000Z</time>
      </trkpt>
      <trkpt lat="46.52446" lon="5.3707">
        <ele>228.60000610352</ele>
        <time>2021-04-05T14:14:49.000Z</time>
      </trkpt>
      <trkpt lat="46.52441" lon="5.37053">
        <ele>228.60000610352</ele>
        <time>2021-04-05T14:14:51.000Z</time>
      </trkpt>
      <trkpt lat="46.52438" lon="5.37037">
        <ele>228.39999389648</ele>
        <time>2021-04-05T14:14:53.000Z</time>
      </trkpt>
      <trkpt lat="46.52436" lon="5.37029">
        <ele>228.39999389648</ele>
        <time>2021-04-05T14:14:54.000Z</time>
      </trkpt>
      <trkpt lat="46.52433" lon="5.37023">
        <ele>228.39999389648</ele>
        <time>2021-04-05T14:14:55.000Z</time>
      </trkpt>
      <trkpt lat="46.5243" lon="5.37017">
        <ele>228.39999389648</ele>
        <time>2021-04-05T14:14:56.000Z</time>
      </trkpt>
      <trkpt lat="46.52425" lon="5.37015">
        <ele>228.39999389648</ele>
        <time>2021-04-05T14:14:57.000Z</time>
      </trkpt>
      <trkpt lat="46.5242" lon="5.37017">
        <ele>228.39999389648</ele>
        <time>2021-04-05T14:14:58.000Z</time>
      </trkpt>
      <trkpt lat="46.52416" lon="5.37022">
        <ele>228.39999389648</ele>
        <time>2021-04-05T14:14:59.000Z</time>
      </trkpt>
      <trkpt lat="46.52409" lon="5.37035">
        <ele>228.60000610352</ele>
        <time>2021-04-05T14:15:01.000Z</time>
      </trkpt>
      <trkpt lat="46.52402" lon="5.37048">
        <ele>228.80000305176</ele>
        <time>2021-04-05T14:15:03.000Z</time>
      </trkpt>
      <trkpt lat="46.52394" lon="5.37061">
        <ele>228.80000305176</ele>
        <time>2021-04-05T14:15:05.000Z</time>
      </trkpt>
      <trkpt lat="46.52385" lon="5.37073">
        <ele>229</ele>
        <time>2021-04-05T14:15:07.000Z</time>
      </trkpt>
      <trkpt lat="46.52381" lon="5.37079">
        <ele>229.19999694824</ele>
        <time>2021-04-05T14:15:08.000Z</time>
      </trkpt>
      <trkpt lat="46.52376" lon="5.37084">
        <ele>229.19999694824</ele>
        <time>2021-04-05T14:15:09.000Z</time>
      </trkpt>
      <trkpt lat="46.52366" lon="5.37095">
        <ele>229.39999389648</ele>
        <time>2021-04-05T14:15:11.000Z</time>
      </trkpt>
      <trkpt lat="46.52356" lon="5.37105">
        <ele>229.39999389648</ele>
        <time>2021-04-05T14:15:13.000Z</time>
      </trkpt>
      <trkpt lat="46.52352" lon="5.3711">
        <ele>229.60000610352</ele>
        <time>2021-04-05T14:15:14.000Z</time>
      </trkpt>
      <trkpt lat="46.52347" lon="5.37115">
        <ele>229.60000610352</ele>
        <time>2021-04-05T14:15:15.000Z</time>
      </trkpt>
      <trkpt lat="46.52338" lon="5.37125">
        <ele>230</ele>
        <time>2021-04-05T14:15:17.000Z</time>
      </trkpt>
      <trkpt lat="46.52333" lon="5.37129">
        <ele>230</ele>
        <time>2021-04-05T14:15:18.000Z</time>
      </trkpt>
      <trkpt lat="46.52329" lon="5.37134">
        <ele>230.19999694824</ele>
        <time>2021-04-05T14:15:19.000Z</time>
      </trkpt>
      <trkpt lat="46.52321" lon="5.37143">
        <ele>230.39999389648</ele>
        <time>2021-04-05T14:15:21.000Z</time>
      </trkpt>
      <trkpt lat="46.52317" lon="5.37147">
        <ele>230.60000610352</ele>
        <time>2021-04-05T14:15:22.000Z</time>
      </trkpt>
      <trkpt lat="46.52313" lon="5.37151">
        <ele>230.80000305176</ele>
        <time>2021-04-05T14:15:23.000Z</time>
      </trkpt>
      <trkpt lat="46.52306" lon="5.37159">
        <ele>231.39999389648</ele>
        <time>2021-04-05T14:15:25.000Z</time>
      </trkpt>
      <trkpt lat="46.52299" lon="5.37166">
        <ele>231.60000610352</ele>
        <time>2021-04-05T14:15:27.000Z</time>
      </trkpt>
      <trkpt lat="46.52292" lon="5.37174">
        <ele>232</ele>
        <time>2021-04-05T14:15:29.000Z</time>
      </trkpt>
      <trkpt lat="46.52289" lon="5.37178">
        <ele>232.80000305176</ele>
        <time>2021-04-05T14:15:30.000Z</time>
      </trkpt>
      <trkpt lat="46.52286" lon="5.37181">
        <ele>233.19999694824</ele>
        <time>2021-04-05T14:15:31.000Z</time>
      </trkpt>
      <trkpt lat="46.52279" lon="5.37189">
        <ele>233.80000305176</ele>
        <time>2021-04-05T14:15:33.000Z</time>
      </trkpt>
      <trkpt lat="46.52275" lon="5.37192">
        <ele>234</ele>
        <time>2021-04-05T14:15:34.000Z</time>
      </trkpt>
      <trkpt lat="46.52272" lon="5.37196">
        <ele>234.19999694824</ele>
        <time>2021-04-05T14:15:35.000Z</time>
      </trkpt>
      <trkpt lat="46.52265" lon="5.37203">
        <ele>234.39999389648</ele>
        <time>2021-04-05T14:15:37.000Z</time>
      </trkpt>
      <trkpt lat="46.52258" lon="5.3721">
        <ele>234.80000305176</ele>
        <time>2021-04-05T14:15:39.000Z</time>
      </trkpt>
      <trkpt lat="46.52255" lon="5.37214">
        <ele>234.80000305176</ele>
        <time>2021-04-05T14:15:40.000Z</time>
      </trkpt>
      <trkpt lat="46.52252" lon="5.37217">
        <ele>235</ele>
        <time>2021-04-05T14:15:41.000Z</time>
      </trkpt>
      <trkpt lat="46.52249" lon="5.37221">
        <ele>235</ele>
        <time>2021-04-05T14:15:42.000Z</time>
      </trkpt>
      <trkpt lat="46.52245" lon="5.37224">
        <ele>235.39999389648</ele>
        <time>2021-04-05T14:15:43.000Z</time>
      </trkpt>
      <trkpt lat="46.52239" lon="5.37231">
        <ele>235.80000305176</ele>
        <time>2021-04-05T14:15:45.000Z</time>
      </trkpt>
      <trkpt lat="46.52232" lon="5.37237">
        <ele>236.19999694824</ele>
        <time>2021-04-05T14:15:47.000Z</time>
      </trkpt>
      <trkpt lat="46.52224" lon="5.37244">
        <ele>237</ele>
        <time>2021-04-05T14:15:49.000Z</time>
      </trkpt>
      <trkpt lat="46.52217" lon="5.3725">
        <ele>237.60000610352</ele>
        <time>2021-04-05T14:15:51.000Z</time>
      </trkpt>
      <trkpt lat="46.52214" lon="5.37253">
        <ele>237.60000610352</ele>
        <time>2021-04-05T14:15:52.000Z</time>
      </trkpt>
      <trkpt lat="46.5221" lon="5.37255">
        <ele>237.80000305176</ele>
        <time>2021-04-05T14:15:53.000Z</time>
      </trkpt>
      <trkpt lat="46.52203" lon="5.37261">
        <ele>238</ele>
        <time>2021-04-05T14:15:55.000Z</time>
      </trkpt>
      <trkpt lat="46.52195" lon="5.37267">
        <ele>238</ele>
        <time>2021-04-05T14:15:57.000Z</time>
      </trkpt>
      <trkpt lat="46.52192" lon="5.3727">
        <ele>238.19999694824</ele>
        <time>2021-04-05T14:15:58.000Z</time>
      </trkpt>
      <trkpt lat="46.52188" lon="5.37272">
        <ele>238.39999389648</ele>
        <time>2021-04-05T14:15:59.000Z</time>
      </trkpt>
      <trkpt lat="46.52181" lon="5.37278">
        <ele>238.80000305176</ele>
        <time>2021-04-05T14:16:01.000Z</time>
      </trkpt>
      <trkpt lat="46.52177" lon="5.3728">
        <ele>239</ele>
        <time>2021-04-05T14:16:02.000Z</time>
      </trkpt>
      <trkpt lat="46.52173" lon="5.37283">
        <ele>239.19999694824</ele>
        <time>2021-04-05T14:16:03.000Z</time>
      </trkpt>
      <trkpt lat="46.5217" lon="5.37286">
        <ele>239.39999389648</ele>
        <time>2021-04-05T14:16:04.000Z</time>
      </trkpt>
      <trkpt lat="46.52166" lon="5.37288">
        <ele>239.60000610352</ele>
        <time>2021-04-05T14:16:05.000Z</time>
      </trkpt>
      <trkpt lat="46.52159" lon="5.37293">
        <ele>240</ele>
        <time>2021-04-05T14:16:07.000Z</time>
      </trkpt>
      <trkpt lat="46.52152" lon="5.37299">
        <ele>240.19999694824</ele>
        <time>2021-04-05T14:16:09.000Z</time>
      </trkpt>
      <trkpt lat="46.52145" lon="5.37303">
        <ele>240.60000610352</ele>
        <time>2021-04-05T14:16:11.000Z</time>
      </trkpt>
      <trkpt lat="46.52138" lon="5.37308">
        <ele>241</ele>
        <time>2021-04-05T14:16:13.000Z</time>
      </trkpt>
      <trkpt lat="46.52131" lon="5.37313">
        <ele>241.39999389648</ele>
        <time>2021-04-05T14:16:15.000Z</time>
      </trkpt>
      <trkpt lat="46.52127" lon="5.37315">
        <ele>241.60000610352</ele>
        <time>2021-04-05T14:16:16.000Z</time>
      </trkpt>
      <trkpt lat="46.52124" lon="5.37318">
        <ele>241.80000305176</ele>
        <time>2021-04-05T14:16:17.000Z</time>
      </trkpt>
      <trkpt lat="46.52117" lon="5.37323">
        <ele>242.19999694824</ele>
        <time>2021-04-05T14:16:19.000Z</time>
      </trkpt>
      <trkpt lat="46.52111" lon="5.37328">
        <ele>242.60000610352</ele>
        <time>2021-04-05T14:16:21.000Z</time>
      </trkpt>
      <trkpt lat="46.52107" lon="5.3733">
        <ele>242.60000610352</ele>
        <time>2021-04-05T14:16:22.000Z</time>
      </trkpt>
      <trkpt lat="46.52104" lon="5.37332">
        <ele>243</ele>
        <time>2021-04-05T14:16:23.000Z</time>
      </trkpt>
      <trkpt lat="46.52098" lon="5.37337">
        <ele>243.19999694824</ele>
        <time>2021-04-05T14:16:25.000Z</time>
      </trkpt>
      <trkpt lat="46.52092" lon="5.37343">
        <ele>243.60000610352</ele>
        <time>2021-04-05T14:16:27.000Z</time>
      </trkpt>
      <trkpt lat="46.52089" lon="5.37346">
        <ele>243.80000305176</ele>
        <time>2021-04-05T14:16:28.000Z</time>
      </trkpt>
      <trkpt lat="46.52086" lon="5.3735">
        <ele>244</ele>
        <time>2021-04-05T14:16:29.000Z</time>
      </trkpt>
      <trkpt lat="46.52082" lon="5.37359">
        <ele>244.60000610352</ele>
        <time>2021-04-05T14:16:31.000Z</time>
      </trkpt>
      <trkpt lat="46.5208" lon="5.37364">
        <ele>245</ele>
        <time>2021-04-05T14:16:32.000Z</time>
      </trkpt>
      <trkpt lat="46.52079" lon="5.3737">
        <ele>245.39999389648</ele>
        <time>2021-04-05T14:16:33.000Z</time>
      </trkpt>
      <trkpt lat="46.52078" lon="5.37376">
        <ele>245.80000305176</ele>
        <time>2021-04-05T14:16:34.000Z</time>
      </trkpt>
      <trkpt lat="46.52076" lon="5.37382">
        <ele>246</ele>
        <time>2021-04-05T14:16:35.000Z</time>
      </trkpt>
      <trkpt lat="46.52075" lon="5.37388">
        <ele>246.19999694824</ele>
        <time>2021-04-05T14:16:36.000Z</time>
      </trkpt>
      <trkpt lat="46.52074" lon="5.37394">
        <ele>246.39999389648</ele>
        <time>2021-04-05T14:16:37.000Z</time>
      </trkpt>
      <trkpt lat="46.52071" lon="5.37407">
        <ele>246.80000305176</ele>
        <time>2021-04-05T14:16:39.000Z</time>
      </trkpt>
      <trkpt lat="46.52068" lon="5.3742">
        <ele>247</ele>
        <time>2021-04-05T14:16:41.000Z</time>
      </trkpt>
      <trkpt lat="46.52065" lon="5.37434">
        <ele>247.39999389648</ele>
        <time>2021-04-05T14:16:43.000Z</time>
      </trkpt>
      <trkpt lat="46.52061" lon="5.37448">
        <ele>247.60000610352</ele>
        <time>2021-04-05T14:16:45.000Z</time>
      </trkpt>
      <trkpt lat="46.52058" lon="5.37463">
        <ele>247.60000610352</ele>
        <time>2021-04-05T14:16:47.000Z</time>
      </trkpt>
      <trkpt lat="46.52055" lon="5.37479">
        <ele>247.60000610352</ele>
        <time>2021-04-05T14:16:49.000Z</time>
      </trkpt>
      <trkpt lat="46.52053" lon="5.37487">
        <ele>247.60000610352</ele>
        <time>2021-04-05T14:16:50.000Z</time>
      </trkpt>
      <trkpt lat="46.52051" lon="5.37494">
        <ele>247.60000610352</ele>
        <time>2021-04-05T14:16:51.000Z</time>
      </trkpt>
      <trkpt lat="46.52048" lon="5.3751">
        <ele>247.80000305176</ele>
        <time>2021-04-05T14:16:53.000Z</time>
      </trkpt>
      <trkpt lat="46.52044" lon="5.37525">
        <ele>247.80000305176</ele>
        <time>2021-04-05T14:16:55.000Z</time>
      </trkpt>
      <trkpt lat="46.52041" lon="5.37541">
        <ele>247.60000610352</ele>
        <time>2021-04-05T14:16:57.000Z</time>
      </trkpt>
      <trkpt lat="46.52037" lon="5.37558">
        <ele>247.39999389648</ele>
        <time>2021-04-05T14:16:59.000Z</time>
      </trkpt>
      <trkpt lat="46.52033" lon="5.37576">
        <ele>247.39999389648</ele>
        <time>2021-04-05T14:17:01.000Z</time>
      </trkpt>
      <trkpt lat="46.52029" lon="5.37595">
        <ele>247.39999389648</ele>
        <time>2021-04-05T14:17:03.000Z</time>
      </trkpt>
      <trkpt lat="46.52024" lon="5.37613">
        <ele>247.39999389648</ele>
        <time>2021-04-05T14:17:05.000Z</time>
      </trkpt>
      <trkpt lat="46.5202" lon="5.37621">
        <ele>247.39999389648</ele>
        <time>2021-04-05T14:17:06.000Z</time>
      </trkpt>
      <trkpt lat="46.52015" lon="5.37626">
        <ele>247.39999389648</ele>
        <time>2021-04-05T14:17:07.000Z</time>
      </trkpt>
      <trkpt lat="46.52001" lon="5.3763">
        <ele>247.39999389648</ele>
        <time>2021-04-05T14:17:09.000Z</time>
      </trkpt>
      <trkpt lat="46.51995" lon="5.37631">
        <ele>247.39999389648</ele>
        <time>2021-04-05T14:17:10.000Z</time>
      </trkpt>
      <trkpt lat="46.51988" lon="5.37632">
        <ele>247.19999694824</ele>
        <time>2021-04-05T14:17:11.000Z</time>
      </trkpt>
      <trkpt lat="46.51974" lon="5.37634">
        <ele>247.19999694824</ele>
        <time>2021-04-05T14:17:13.000Z</time>
      </trkpt>
      <trkpt lat="46.5196" lon="5.37636">
        <ele>247</ele>
        <time>2021-04-05T14:17:15.000Z</time>
      </trkpt>
      <trkpt lat="46.51953" lon="5.37638">
        <ele>247</ele>
        <time>2021-04-05T14:17:16.000Z</time>
      </trkpt>
      <trkpt lat="46.51946" lon="5.37639">
        <ele>247.19999694824</ele>
        <time>2021-04-05T14:17:17.000Z</time>
      </trkpt>
      <trkpt lat="46.51932" lon="5.37642">
        <ele>247.39999389648</ele>
        <time>2021-04-05T14:17:19.000Z</time>
      </trkpt>
      <trkpt lat="46.51918" lon="5.37644">
        <ele>247.39999389648</ele>
        <time>2021-04-05T14:17:21.000Z</time>
      </trkpt>
      <trkpt lat="46.51905" lon="5.37646">
        <ele>247.39999389648</ele>
        <time>2021-04-05T14:17:23.000Z</time>
      </trkpt>
      <trkpt lat="46.51892" lon="5.37647">
        <ele>247.39999389648</ele>
        <time>2021-04-05T14:17:25.000Z</time>
      </trkpt>
      <trkpt lat="46.51886" lon="5.37647">
        <ele>247.39999389648</ele>
        <time>2021-04-05T14:17:26.000Z</time>
      </trkpt>
      <trkpt lat="46.51879" lon="5.37647">
        <ele>247.60000610352</ele>
        <time>2021-04-05T14:17:27.000Z</time>
      </trkpt>
      <trkpt lat="46.51866" lon="5.37647">
        <ele>247.60000610352</ele>
        <time>2021-04-05T14:17:29.000Z</time>
      </trkpt>
      <trkpt lat="46.51853" lon="5.37647">
        <ele>247.80000305176</ele>
        <time>2021-04-05T14:17:31.000Z</time>
      </trkpt>
      <trkpt lat="46.5184" lon="5.37648">
        <ele>248</ele>
        <time>2021-04-05T14:17:33.000Z</time>
      </trkpt>
      <trkpt lat="46.51826" lon="5.37649">
        <ele>248.19999694824</ele>
        <time>2021-04-05T14:17:35.000Z</time>
      </trkpt>
      <trkpt lat="46.51819" lon="5.37649">
        <ele>248.19999694824</ele>
        <time>2021-04-05T14:17:36.000Z</time>
      </trkpt>
      <trkpt lat="46.51811" lon="5.3765">
        <ele>248.19999694824</ele>
        <time>2021-04-05T14:17:37.000Z</time>
      </trkpt>
      <trkpt lat="46.51796" lon="5.3765">
        <ele>248.19999694824</ele>
        <time>2021-04-05T14:17:39.000Z</time>
      </trkpt>
      <trkpt lat="46.5178" lon="5.37648">
        <ele>248.19999694824</ele>
        <time>2021-04-05T14:17:41.000Z</time>
      </trkpt>
      <trkpt lat="46.51772" lon="5.37646">
        <ele>248.19999694824</ele>
        <time>2021-04-05T14:17:42.000Z</time>
      </trkpt>
      <trkpt lat="46.51757" lon="5.37642">
        <ele>247.80000305176</ele>
        <time>2021-04-05T14:17:44.000Z</time>
      </trkpt>
      <trkpt lat="46.51741" lon="5.37637">
        <ele>247.39999389648</ele>
        <time>2021-04-05T14:17:46.000Z</time>
      </trkpt>
      <trkpt lat="46.51724" lon="5.37633">
        <ele>246.60000610352</ele>
        <time>2021-04-05T14:17:48.000Z</time>
      </trkpt>
      <trkpt lat="46.51716" lon="5.3763">
        <ele>246.39999389648</ele>
        <time>2021-04-05T14:17:49.000Z</time>
      </trkpt>
      <trkpt lat="46.51708" lon="5.37629">
        <ele>246.19999694824</ele>
        <time>2021-04-05T14:17:50.000Z</time>
      </trkpt>
      <trkpt lat="46.51699" lon="5.3763">
        <ele>245.80000305176</ele>
        <time>2021-04-05T14:17:51.000Z</time>
      </trkpt>
      <trkpt lat="46.51691" lon="5.37632">
        <ele>245.19999694824</ele>
        <time>2021-04-05T14:17:52.000Z</time>
      </trkpt>
      <trkpt lat="46.51684" lon="5.37637">
        <ele>244.60000610352</ele>
        <time>2021-04-05T14:17:53.000Z</time>
      </trkpt>
      <trkpt lat="46.51676" lon="5.37643">
        <ele>244.19999694824</ele>
        <time>2021-04-05T14:17:54.000Z</time>
      </trkpt>
      <trkpt lat="46.51669" lon="5.37648">
        <ele>244</ele>
        <time>2021-04-05T14:17:55.000Z</time>
      </trkpt>
      <trkpt lat="46.51655" lon="5.37657">
        <ele>243.60000610352</ele>
        <time>2021-04-05T14:17:57.000Z</time>
      </trkpt>
      <trkpt lat="46.51647" lon="5.3766">
        <ele>243.19999694824</ele>
        <time>2021-04-05T14:17:58.000Z</time>
      </trkpt>
      <trkpt lat="46.5164" lon="5.37663">
        <ele>243</ele>
        <time>2021-04-05T14:17:59.000Z</time>
      </trkpt>
      <trkpt lat="46.51633" lon="5.37667">
        <ele>243</ele>
        <time>2021-04-05T14:18:00.000Z</time>
      </trkpt>
      <trkpt lat="46.51618" lon="5.37672">
        <ele>243</ele>
        <time>2021-04-05T14:18:02.000Z</time>
      </trkpt>
      <trkpt lat="46.51604" lon="5.37676">
        <ele>242.80000305176</ele>
        <time>2021-04-05T14:18:04.000Z</time>
      </trkpt>
      <trkpt lat="46.51597" lon="5.37677">
        <ele>242.80000305176</ele>
        <time>2021-04-05T14:18:05.000Z</time>
      </trkpt>
      <trkpt lat="46.51591" lon="5.37678">
        <ele>242.80000305176</ele>
        <time>2021-04-05T14:18:06.000Z</time>
      </trkpt>
      <trkpt lat="46.51579" lon="5.37679">
        <ele>242.80000305176</ele>
        <time>2021-04-05T14:18:08.000Z</time>
      </trkpt>
      <trkpt lat="46.51567" lon="5.37681">
        <ele>242.80000305176</ele>
        <time>2021-04-05T14:18:10.000Z</time>
      </trkpt>
      <trkpt lat="46.51561" lon="5.37681">
        <ele>243</ele>
        <time>2021-04-05T14:18:11.000Z</time>
      </trkpt>
      <trkpt lat="46.5155" lon="5.37684">
        <ele>243</ele>
        <time>2021-04-05T14:18:13.000Z</time>
      </trkpt>
      <trkpt lat="46.51539" lon="5.37687">
        <ele>243.19999694824</ele>
        <time>2021-04-05T14:18:15.000Z</time>
      </trkpt>
      <trkpt lat="46.51528" lon="5.37689">
        <ele>243.39999389648</ele>
        <time>2021-04-05T14:18:17.000Z</time>
      </trkpt>
      <trkpt lat="46.51523" lon="5.3769">
        <ele>243.80000305176</ele>
        <time>2021-04-05T14:18:18.000Z</time>
      </trkpt>
      <trkpt lat="46.51517" lon="5.37692">
        <ele>244</ele>
        <time>2021-04-05T14:18:19.000Z</time>
      </trkpt>
      <trkpt lat="46.51507" lon="5.37694">
        <ele>245.19999694824</ele>
        <time>2021-04-05T14:18:21.000Z</time>
      </trkpt>
      <trkpt lat="46.51502" lon="5.37696">
        <ele>245.60000610352</ele>
        <time>2021-04-05T14:18:22.000Z</time>
      </trkpt>
      <trkpt lat="46.51496" lon="5.37697">
        <ele>245.60000610352</ele>
        <time>2021-04-05T14:18:23.000Z</time>
      </trkpt>
      <trkpt lat="46.51486" lon="5.37699">
        <ele>246</ele>
        <time>2021-04-05T14:18:25.000Z</time>
      </trkpt>
      <trkpt lat="46.51475" lon="5.37702">
        <ele>246.39999389648</ele>
        <time>2021-04-05T14:18:27.000Z</time>
      </trkpt>
      <trkpt lat="46.5147" lon="5.37703">
        <ele>246.80000305176</ele>
        <time>2021-04-05T14:18:28.000Z</time>
      </trkpt>
      <trkpt lat="46.51464" lon="5.37704">
        <ele>247</ele>
        <time>2021-04-05T14:18:29.000Z</time>
      </trkpt>
      <trkpt lat="46.51453" lon="5.37706">
        <ele>247.60000610352</ele>
        <time>2021-04-05T14:18:31.000Z</time>
      </trkpt>
      <trkpt lat="46.51442" lon="5.37709">
        <ele>247.80000305176</ele>
        <time>2021-04-05T14:18:33.000Z</time>
      </trkpt>
      <trkpt lat="46.51431" lon="5.37712">
        <ele>248</ele>
        <time>2021-04-05T14:18:35.000Z</time>
      </trkpt>
      <trkpt lat="46.5142" lon="5.37715">
        <ele>248.19999694824</ele>
        <time>2021-04-05T14:18:37.000Z</time>
      </trkpt>
      <trkpt lat="46.5141" lon="5.37719">
        <ele>248.19999694824</ele>
        <time>2021-04-05T14:18:39.000Z</time>
      </trkpt>
      <trkpt lat="46.51399" lon="5.37723">
        <ele>248.19999694824</ele>
        <time>2021-04-05T14:18:41.000Z</time>
      </trkpt>
      <trkpt lat="46.51388" lon="5.37727">
        <ele>248.60000610352</ele>
        <time>2021-04-05T14:18:43.000Z</time>
      </trkpt>
      <trkpt lat="46.51377" lon="5.37732">
        <ele>248.80000305176</ele>
        <time>2021-04-05T14:18:45.000Z</time>
      </trkpt>
      <trkpt lat="46.51372" lon="5.37735">
        <ele>249</ele>
        <time>2021-04-05T14:18:46.000Z</time>
      </trkpt>
      <trkpt lat="46.51367" lon="5.37737">
        <ele>249</ele>
        <time>2021-04-05T14:18:47.000Z</time>
      </trkpt>
      <trkpt lat="46.51361" lon="5.3774">
        <ele>249.19999694824</ele>
        <time>2021-04-05T14:18:48.000Z</time>
      </trkpt>
      <trkpt lat="46.51356" lon="5.37743">
        <ele>249.19999694824</ele>
        <time>2021-04-05T14:18:49.000Z</time>
      </trkpt>
      <trkpt lat="46.51346" lon="5.37748">
        <ele>249.39999389648</ele>
        <time>2021-04-05T14:18:51.000Z</time>
      </trkpt>
      <trkpt lat="46.51336" lon="5.37754">
        <ele>249.60000610352</ele>
        <time>2021-04-05T14:18:53.000Z</time>
      </trkpt>
      <trkpt lat="46.51326" lon="5.37759">
        <ele>249.80000305176</ele>
        <time>2021-04-05T14:18:55.000Z</time>
      </trkpt>
      <trkpt lat="46.51316" lon="5.37764">
        <ele>250.19999694824</ele>
        <time>2021-04-05T14:18:57.000Z</time>
      </trkpt>
      <trkpt lat="46.51311" lon="5.37767">
        <ele>250.39999389648</ele>
        <time>2021-04-05T14:18:58.000Z</time>
      </trkpt>
      <trkpt lat="46.51306" lon="5.37769">
        <ele>250.60000610352</ele>
        <time>2021-04-05T14:18:59.000Z</time>
      </trkpt>
      <trkpt lat="46.51296" lon="5.37775">
        <ele>251.19999694824</ele>
        <time>2021-04-05T14:19:01.000Z</time>
      </trkpt>
      <trkpt lat="46.51291" lon="5.37778">
        <ele>251.39999389648</ele>
        <time>2021-04-05T14:19:02.000Z</time>
      </trkpt>
      <trkpt lat="46.51286" lon="5.3778">
        <ele>251.60000610352</ele>
        <time>2021-04-05T14:19:03.000Z</time>
      </trkpt>
      <trkpt lat="46.51275" lon="5.37785">
        <ele>251.80000305176</ele>
        <time>2021-04-05T14:19:05.000Z</time>
      </trkpt>
      <trkpt lat="46.51265" lon="5.3779">
        <ele>252.19999694824</ele>
        <time>2021-04-05T14:19:07.000Z</time>
      </trkpt>
      <trkpt lat="46.5126" lon="5.37792">
        <ele>252.39999389648</ele>
        <time>2021-04-05T14:19:08.000Z</time>
      </trkpt>
      <trkpt lat="46.51254" lon="5.37795">
        <ele>252.60000610352</ele>
        <time>2021-04-05T14:19:09.000Z</time>
      </trkpt>
      <trkpt lat="46.51243" lon="5.37799">
        <ele>252.80000305176</ele>
        <time>2021-04-05T14:19:11.000Z</time>
      </trkpt>
      <trkpt lat="46.51232" lon="5.37801">
        <ele>252.80000305176</ele>
        <time>2021-04-05T14:19:13.000Z</time>
      </trkpt>
      <trkpt lat="46.51221" lon="5.37802">
        <ele>253</ele>
        <time>2021-04-05T14:19:15.000Z</time>
      </trkpt>
      <trkpt lat="46.51209" lon="5.37804">
        <ele>253.19999694824</ele>
        <time>2021-04-05T14:19:17.000Z</time>
      </trkpt>
      <trkpt lat="46.51198" lon="5.37806">
        <ele>253.39999389648</ele>
        <time>2021-04-05T14:19:19.000Z</time>
      </trkpt>
      <trkpt lat="46.51193" lon="5.37807">
        <ele>253.39999389648</ele>
        <time>2021-04-05T14:19:20.000Z</time>
      </trkpt>
      <trkpt lat="46.51188" lon="5.37808">
        <ele>253.39999389648</ele>
        <time>2021-04-05T14:19:21.000Z</time>
      </trkpt>
      <trkpt lat="46.51183" lon="5.37809">
        <ele>253.60000610352</ele>
        <time>2021-04-05T14:19:22.000Z</time>
      </trkpt>
      <trkpt lat="46.51178" lon="5.3781">
        <ele>253.60000610352</ele>
        <time>2021-04-05T14:19:23.000Z</time>
      </trkpt>
      <trkpt lat="46.51168" lon="5.37815">
        <ele>253.80000305176</ele>
        <time>2021-04-05T14:19:25.000Z</time>
      </trkpt>
      <trkpt lat="46.51158" lon="5.37822">
        <ele>254</ele>
        <time>2021-04-05T14:19:27.000Z</time>
      </trkpt>
      <trkpt lat="46.51153" lon="5.37825">
        <ele>254.19999694824</ele>
        <time>2021-04-05T14:19:28.000Z</time>
      </trkpt>
      <trkpt lat="46.51148" lon="5.37829">
        <ele>254.39999389648</ele>
        <time>2021-04-05T14:19:29.000Z</time>
      </trkpt>
      <trkpt lat="46.51143" lon="5.37833">
        <ele>254.60000610352</ele>
        <time>2021-04-05T14:19:30.000Z</time>
      </trkpt>
      <trkpt lat="46.51138" lon="5.37837">
        <ele>255</ele>
        <time>2021-04-05T14:19:31.000Z</time>
      </trkpt>
      <trkpt lat="46.51129" lon="5.37845">
        <ele>255.60000610352</ele>
        <time>2021-04-05T14:19:33.000Z</time>
      </trkpt>
      <trkpt lat="46.51123" lon="5.37848">
        <ele>255.80000305176</ele>
        <time>2021-04-05T14:19:34.000Z</time>
      </trkpt>
      <trkpt lat="46.51118" lon="5.37851">
        <ele>256</ele>
        <time>2021-04-05T14:19:35.000Z</time>
      </trkpt>
      <trkpt lat="46.51113" lon="5.37854">
        <ele>256</ele>
        <time>2021-04-05T14:19:36.000Z</time>
      </trkpt>
      <trkpt lat="46.51108" lon="5.37857">
        <ele>256.39999389648</ele>
        <time>2021-04-05T14:19:37.000Z</time>
      </trkpt>
      <trkpt lat="46.51098" lon="5.37862">
        <ele>256.39999389648</ele>
        <time>2021-04-05T14:19:39.000Z</time>
      </trkpt>
      <trkpt lat="46.51088" lon="5.37865">
        <ele>256.60000610352</ele>
        <time>2021-04-05T14:19:41.000Z</time>
      </trkpt>
      <trkpt lat="46.51077" lon="5.37868">
        <ele>256.79998779297</ele>
        <time>2021-04-05T14:19:43.000Z</time>
      </trkpt>
      <trkpt lat="46.51066" lon="5.37869">
        <ele>257</ele>
        <time>2021-04-05T14:19:45.000Z</time>
      </trkpt>
      <trkpt lat="46.51061" lon="5.3787">
        <ele>257.20001220703</ele>
        <time>2021-04-05T14:19:46.000Z</time>
      </trkpt>
      <trkpt lat="46.51055" lon="5.3787">
        <ele>257.60000610352</ele>
        <time>2021-04-05T14:19:47.000Z</time>
      </trkpt>
      <trkpt lat="46.51045" lon="5.37871">
        <ele>258.20001220703</ele>
        <time>2021-04-05T14:19:49.000Z</time>
      </trkpt>
      <trkpt lat="46.51035" lon="5.37872">
        <ele>258.39999389648</ele>
        <time>2021-04-05T14:19:51.000Z</time>
      </trkpt>
      <trkpt lat="46.51025" lon="5.37873">
        <ele>258.60000610352</ele>
        <time>2021-04-05T14:19:53.000Z</time>
      </trkpt>
      <trkpt lat="46.51016" lon="5.37875">
        <ele>258.79998779297</ele>
        <time>2021-04-05T14:19:55.000Z</time>
      </trkpt>
      <trkpt lat="46.51006" lon="5.37877">
        <ele>259</ele>
        <time>2021-04-05T14:19:57.000Z</time>
      </trkpt>
      <trkpt lat="46.51001" lon="5.37877">
        <ele>259.39999389648</ele>
        <time>2021-04-05T14:19:58.000Z</time>
      </trkpt>
      <trkpt lat="46.50997" lon="5.37878">
        <ele>259.79998779297</ele>
        <time>2021-04-05T14:19:59.000Z</time>
      </trkpt>
      <trkpt lat="46.50988" lon="5.3788">
        <ele>260.39999389648</ele>
        <time>2021-04-05T14:20:01.000Z</time>
      </trkpt>
      <trkpt lat="46.50983" lon="5.37881">
        <ele>260.60000610352</ele>
        <time>2021-04-05T14:20:02.000Z</time>
      </trkpt>
      <trkpt lat="46.50979" lon="5.37882">
        <ele>260.79998779297</ele>
        <time>2021-04-05T14:20:03.000Z</time>
      </trkpt>
      <trkpt lat="46.50969" lon="5.37884">
        <ele>261</ele>
        <time>2021-04-05T14:20:05.000Z</time>
      </trkpt>
      <trkpt lat="46.5096" lon="5.37886">
        <ele>261.20001220703</ele>
        <time>2021-04-05T14:20:07.000Z</time>
      </trkpt>
      <trkpt lat="46.5095" lon="5.37889">
        <ele>261.39999389648</ele>
        <time>2021-04-05T14:20:09.000Z</time>
      </trkpt>
      <trkpt lat="46.50946" lon="5.37891">
        <ele>261.60000610352</ele>
        <time>2021-04-05T14:20:10.000Z</time>
      </trkpt>
      <trkpt lat="46.50941" lon="5.37892">
        <ele>261.60000610352</ele>
        <time>2021-04-05T14:20:11.000Z</time>
      </trkpt>
      <trkpt lat="46.5093" lon="5.37896">
        <ele>261.79998779297</ele>
        <time>2021-04-05T14:20:13.000Z</time>
      </trkpt>
      <trkpt lat="46.50919" lon="5.37899">
        <ele>261.79998779297</ele>
        <time>2021-04-05T14:20:15.000Z</time>
      </trkpt>
      <trkpt lat="46.50908" lon="5.37901">
        <ele>261.79998779297</ele>
        <time>2021-04-05T14:20:17.000Z</time>
      </trkpt>
      <trkpt lat="46.50896" lon="5.37902">
        <ele>261.79998779297</ele>
        <time>2021-04-05T14:20:19.000Z</time>
      </trkpt>
      <trkpt lat="46.50884" lon="5.37902">
        <ele>261.79998779297</ele>
        <time>2021-04-05T14:20:21.000Z</time>
      </trkpt>
      <trkpt lat="46.50878" lon="5.37902">
        <ele>261.79998779297</ele>
        <time>2021-04-05T14:20:22.000Z</time>
      </trkpt>
      <trkpt lat="46.50872" lon="5.37901">
        <ele>261.79998779297</ele>
        <time>2021-04-05T14:20:23.000Z</time>
      </trkpt>
      <trkpt lat="46.5086" lon="5.379">
        <ele>262</ele>
        <time>2021-04-05T14:20:25.000Z</time>
      </trkpt>
      <trkpt lat="46.50848" lon="5.379">
        <ele>261.60000610352</ele>
        <time>2021-04-05T14:20:27.000Z</time>
      </trkpt>
      <trkpt lat="46.50837" lon="5.37898">
        <ele>261.39999389648</ele>
        <time>2021-04-05T14:20:29.000Z</time>
      </trkpt>
      <trkpt lat="46.50825" lon="5.37896">
        <ele>261.20001220703</ele>
        <time>2021-04-05T14:20:31.000Z</time>
      </trkpt>
      <trkpt lat="46.50819" lon="5.37893">
        <ele>261.20001220703</ele>
        <time>2021-04-05T14:20:32.000Z</time>
      </trkpt>
      <trkpt lat="46.50814" lon="5.3789">
        <ele>261.20001220703</ele>
        <time>2021-04-05T14:20:33.000Z</time>
      </trkpt>
      <trkpt lat="46.50808" lon="5.37886">
        <ele>261.20001220703</ele>
        <time>2021-04-05T14:20:34.000Z</time>
      </trkpt>
      <trkpt lat="46.50803" lon="5.37881">
        <ele>261.20001220703</ele>
        <time>2021-04-05T14:20:35.000Z</time>
      </trkpt>
      <trkpt lat="46.50793" lon="5.37869">
        <ele>261.20001220703</ele>
        <time>2021-04-05T14:20:37.000Z</time>
      </trkpt>
      <trkpt lat="46.50783" lon="5.37857">
        <ele>261.20001220703</ele>
        <time>2021-04-05T14:20:39.000Z</time>
      </trkpt>
      <trkpt lat="46.50774" lon="5.37843">
        <ele>261.20001220703</ele>
        <time>2021-04-05T14:20:41.000Z</time>
      </trkpt>
      <trkpt lat="46.50766" lon="5.37828">
        <ele>261.20001220703</ele>
        <time>2021-04-05T14:20:43.000Z</time>
      </trkpt>
      <trkpt lat="46.50759" lon="5.37812">
        <ele>260.79998779297</ele>
        <time>2021-04-05T14:20:45.000Z</time>
      </trkpt>
      <trkpt lat="46.50756" lon="5.37803">
        <ele>260.79998779297</ele>
        <time>2021-04-05T14:20:46.000Z</time>
      </trkpt>
      <trkpt lat="46.50753" lon="5.37794">
        <ele>260.79998779297</ele>
        <time>2021-04-05T14:20:47.000Z</time>
      </trkpt>
      <trkpt lat="46.50749" lon="5.37776">
        <ele>260.39999389648</ele>
        <time>2021-04-05T14:20:49.000Z</time>
      </trkpt>
      <trkpt lat="46.50747" lon="5.37767">
        <ele>260</ele>
        <time>2021-04-05T14:20:50.000Z</time>
      </trkpt>
      <trkpt lat="46.50746" lon="5.37758">
        <ele>259.79998779297</ele>
        <time>2021-04-05T14:20:51.000Z</time>
      </trkpt>
      <trkpt lat="46.50745" lon="5.37749">
        <ele>259.60000610352</ele>
        <time>2021-04-05T14:20:52.000Z</time>
      </trkpt>
      <trkpt lat="46.50744" lon="5.3774">
        <ele>259.39999389648</ele>
        <time>2021-04-05T14:20:53.000Z</time>
      </trkpt>
      <trkpt lat="46.50742" lon="5.37722">
        <ele>258.79998779297</ele>
        <time>2021-04-05T14:20:55.000Z</time>
      </trkpt>
      <trkpt lat="46.50741" lon="5.37714">
        <ele>258.60000610352</ele>
        <time>2021-04-05T14:20:56.000Z</time>
      </trkpt>
      <trkpt lat="46.5074" lon="5.37705">
        <ele>258.39999389648</ele>
        <time>2021-04-05T14:20:57.000Z</time>
      </trkpt>
      <trkpt lat="46.5074" lon="5.37697">
        <ele>258.20001220703</ele>
        <time>2021-04-05T14:20:58.000Z</time>
      </trkpt>
      <trkpt lat="46.50739" lon="5.37688">
        <ele>258</ele>
        <time>2021-04-05T14:20:59.000Z</time>
      </trkpt>
      <trkpt lat="46.50738" lon="5.3767">
        <ele>258</ele>
        <time>2021-04-05T14:21:01.000Z</time>
      </trkpt>
      <trkpt lat="46.50737" lon="5.37651">
        <ele>257.79998779297</ele>
        <time>2021-04-05T14:21:03.000Z</time>
      </trkpt>
      <trkpt lat="46.50735" lon="5.37631">
        <ele>257.60000610352</ele>
        <time>2021-04-05T14:21:05.000Z</time>
      </trkpt>
      <trkpt lat="46.50734" lon="5.37621">
        <ele>257.39999389648</ele>
        <time>2021-04-05T14:21:06.000Z</time>
      </trkpt>
      <trkpt lat="46.50731" lon="5.37611">
        <ele>257.39999389648</ele>
        <time>2021-04-05T14:21:07.000Z</time>
      </trkpt>
      <trkpt lat="46.50728" lon="5.37602">
        <ele>257.39999389648</ele>
        <time>2021-04-05T14:21:08.000Z</time>
      </trkpt>
      <trkpt lat="46.50723" lon="5.37594">
        <ele>257</ele>
        <time>2021-04-05T14:21:09.000Z</time>
      </trkpt>
      <trkpt lat="46.50718" lon="5.37586">
        <ele>256.60000610352</ele>
        <time>2021-04-05T14:21:10.000Z</time>
      </trkpt>
      <trkpt lat="46.50712" lon="5.37579">
        <ele>256.20001220703</ele>
        <time>2021-04-05T14:21:11.000Z</time>
      </trkpt>
      <trkpt lat="46.50707" lon="5.37573">
        <ele>255.60000610352</ele>
        <time>2021-04-05T14:21:12.000Z</time>
      </trkpt>
      <trkpt lat="46.50702" lon="5.37567">
        <ele>255</ele>
        <time>2021-04-05T14:21:13.000Z</time>
      </trkpt>
      <trkpt lat="46.50697" lon="5.37563">
        <ele>254</ele>
        <time>2021-04-05T14:21:14.000Z</time>
      </trkpt>
      <trkpt lat="46.50692" lon="5.37562">
        <ele>253.80000305176</ele>
        <time>2021-04-05T14:21:15.000Z</time>
      </trkpt>
      <trkpt lat="46.50683" lon="5.37567">
        <ele>253.80000305176</ele>
        <time>2021-04-05T14:21:17.000Z</time>
      </trkpt>
      <trkpt lat="46.50679" lon="5.37573">
        <ele>253.80000305176</ele>
        <time>2021-04-05T14:21:18.000Z</time>
      </trkpt>
      <trkpt lat="46.50674" lon="5.37579">
        <ele>253.60000610352</ele>
        <time>2021-04-05T14:21:19.000Z</time>
      </trkpt>
      <trkpt lat="46.50666" lon="5.37592">
        <ele>253.60000610352</ele>
        <time>2021-04-05T14:21:21.000Z</time>
      </trkpt>
      <trkpt lat="46.50657" lon="5.37606">
        <ele>253.60000610352</ele>
        <time>2021-04-05T14:21:23.000Z</time>
      </trkpt>
      <trkpt lat="46.50652" lon="5.37613">
        <ele>254</ele>
        <time>2021-04-05T14:21:24.000Z</time>
      </trkpt>
      <trkpt lat="46.50648" lon="5.3762">
        <ele>254.39999389648</ele>
        <time>2021-04-05T14:21:25.000Z</time>
      </trkpt>
      <trkpt lat="46.50638" lon="5.37635">
        <ele>255.19999694824</ele>
        <time>2021-04-05T14:21:27.000Z</time>
      </trkpt>
      <trkpt lat="46.50628" lon="5.3765">
        <ele>255.60000610352</ele>
        <time>2021-04-05T14:21:29.000Z</time>
      </trkpt>
      <trkpt lat="46.50619" lon="5.37665">
        <ele>255.80000305176</ele>
        <time>2021-04-05T14:21:31.000Z</time>
      </trkpt>
      <trkpt lat="46.50609" lon="5.3768">
        <ele>256</ele>
        <time>2021-04-05T14:21:33.000Z</time>
      </trkpt>
      <trkpt lat="46.50605" lon="5.37687">
        <ele>256</ele>
        <time>2021-04-05T14:21:34.000Z</time>
      </trkpt>
      <trkpt lat="46.506" lon="5.37694">
        <ele>256</ele>
        <time>2021-04-05T14:21:35.000Z</time>
      </trkpt>
      <trkpt lat="46.50591" lon="5.37708">
        <ele>256</ele>
        <time>2021-04-05T14:21:37.000Z</time>
      </trkpt>
      <trkpt lat="46.50583" lon="5.37721">
        <ele>256</ele>
        <time>2021-04-05T14:21:39.000Z</time>
      </trkpt>
      <trkpt lat="46.50575" lon="5.37734">
        <ele>256.20001220703</ele>
        <time>2021-04-05T14:21:41.000Z</time>
      </trkpt>
      <trkpt lat="46.50571" lon="5.3774">
        <ele>256.39999389648</ele>
        <time>2021-04-05T14:21:42.000Z</time>
      </trkpt>
      <trkpt lat="46.50567" lon="5.37746">
        <ele>256.79998779297</ele>
        <time>2021-04-05T14:21:43.000Z</time>
      </trkpt>
      <trkpt lat="46.50559" lon="5.37758">
        <ele>257.39999389648</ele>
        <time>2021-04-05T14:21:45.000Z</time>
      </trkpt>
      <trkpt lat="46.50551" lon="5.3777">
        <ele>258.39999389648</ele>
        <time>2021-04-05T14:21:47.000Z</time>
      </trkpt>
      <trkpt lat="46.50547" lon="5.37776">
        <ele>258.60000610352</ele>
        <time>2021-04-05T14:21:48.000Z</time>
      </trkpt>
      <trkpt lat="46.50544" lon="5.37781">
        <ele>259</ele>
        <time>2021-04-05T14:21:49.000Z</time>
      </trkpt>
      <trkpt lat="46.50536" lon="5.37792">
        <ele>259.60000610352</ele>
        <time>2021-04-05T14:21:51.000Z</time>
      </trkpt>
      <trkpt lat="46.50533" lon="5.37797">
        <ele>259.79998779297</ele>
        <time>2021-04-05T14:21:52.000Z</time>
      </trkpt>
      <trkpt lat="46.5053" lon="5.37802">
        <ele>260.20001220703</ele>
        <time>2021-04-05T14:21:53.000Z</time>
      </trkpt>
      <trkpt lat="46.50523" lon="5.37812">
        <ele>260.39999389648</ele>
        <time>2021-04-05T14:21:55.000Z</time>
      </trkpt>
      <trkpt lat="46.50517" lon="5.37823">
        <ele>260.60000610352</ele>
        <time>2021-04-05T14:21:57.000Z</time>
      </trkpt>
      <trkpt lat="46.5051" lon="5.37833">
        <ele>260.79998779297</ele>
        <time>2021-04-05T14:21:59.000Z</time>
      </trkpt>
      <trkpt lat="46.50507" lon="5.37837">
        <ele>261</ele>
        <time>2021-04-05T14:22:00.000Z</time>
      </trkpt>
      <trkpt lat="46.50504" lon="5.37842">
        <ele>261.20001220703</ele>
        <time>2021-04-05T14:22:01.000Z</time>
      </trkpt>
      <trkpt lat="46.50498" lon="5.37851">
        <ele>261.60000610352</ele>
        <time>2021-04-05T14:22:03.000Z</time>
      </trkpt>
      <trkpt lat="46.50495" lon="5.37856">
        <ele>262</ele>
        <time>2021-04-05T14:22:04.000Z</time>
      </trkpt>
      <trkpt lat="46.50491" lon="5.37861">
        <ele>262.39999389648</ele>
        <time>2021-04-05T14:22:05.000Z</time>
      </trkpt>
      <trkpt lat="46.50485" lon="5.3787">
        <ele>263</ele>
        <time>2021-04-05T14:22:07.000Z</time>
      </trkpt>
      <trkpt lat="46.50479" lon="5.37879">
        <ele>263.39999389648</ele>
        <time>2021-04-05T14:22:09.000Z</time>
      </trkpt>
      <trkpt lat="46.50476" lon="5.37884">
        <ele>263.60000610352</ele>
        <time>2021-04-05T14:22:10.000Z</time>
      </trkpt>
      <trkpt lat="46.50473" lon="5.37888">
        <ele>263.60000610352</ele>
        <time>2021-04-05T14:22:11.000Z</time>
      </trkpt>
      <trkpt lat="46.50467" lon="5.37898">
        <ele>264.20001220703</ele>
        <time>2021-04-05T14:22:13.000Z</time>
      </trkpt>
      <trkpt lat="46.50461" lon="5.37908">
        <ele>264.60000610352</ele>
        <time>2021-04-05T14:22:15.000Z</time>
      </trkpt>
      <trkpt lat="46.50455" lon="5.37917">
        <ele>265</ele>
        <time>2021-04-05T14:22:17.000Z</time>
      </trkpt>
      <trkpt lat="46.50451" lon="5.37922">
        <ele>265.20001220703</ele>
        <time>2021-04-05T14:22:18.000Z</time>
      </trkpt>
      <trkpt lat="46.50448" lon="5.37927">
        <ele>265.20001220703</ele>
        <time>2021-04-05T14:22:19.000Z</time>
      </trkpt>
      <trkpt lat="46.50445" lon="5.37931">
        <ele>265.20001220703</ele>
        <time>2021-04-05T14:22:20.000Z</time>
      </trkpt>
      <trkpt lat="46.50442" lon="5.37935">
        <ele>265.39999389648</ele>
        <time>2021-04-05T14:22:21.000Z</time>
      </trkpt>
      <trkpt lat="46.50439" lon="5.3794">
        <ele>265.39999389648</ele>
        <time>2021-04-05T14:22:22.000Z</time>
      </trkpt>
      <trkpt lat="46.50436" lon="5.37944">
        <ele>265.60000610352</ele>
        <time>2021-04-05T14:22:23.000Z</time>
      </trkpt>
      <trkpt lat="46.50431" lon="5.37952">
        <ele>266</ele>
        <time>2021-04-05T14:22:25.000Z</time>
      </trkpt>
      <trkpt lat="46.50428" lon="5.37956">
        <ele>266.20001220703</ele>
        <time>2021-04-05T14:22:26.000Z</time>
      </trkpt>
      <trkpt lat="46.50425" lon="5.3796">
        <ele>266.60000610352</ele>
        <time>2021-04-05T14:22:27.000Z</time>
      </trkpt>
      <trkpt lat="46.5042" lon="5.37968">
        <ele>267.20001220703</ele>
        <time>2021-04-05T14:22:29.000Z</time>
      </trkpt>
      <trkpt lat="46.50417" lon="5.37973">
        <ele>267.39999389648</ele>
        <time>2021-04-05T14:22:30.000Z</time>
      </trkpt>
      <trkpt lat="46.50415" lon="5.37977">
        <ele>267.60000610352</ele>
        <time>2021-04-05T14:22:31.000Z</time>
      </trkpt>
      <trkpt lat="46.50409" lon="5.37985">
        <ele>268</ele>
        <time>2021-04-05T14:22:33.000Z</time>
      </trkpt>
      <trkpt lat="46.50406" lon="5.37989">
        <ele>268.60000610352</ele>
        <time>2021-04-05T14:22:34.000Z</time>
      </trkpt>
      <trkpt lat="46.50403" lon="5.37993">
        <ele>269</ele>
        <time>2021-04-05T14:22:35.000Z</time>
      </trkpt>
      <trkpt lat="46.50398" lon="5.38002">
        <ele>269.60000610352</ele>
        <time>2021-04-05T14:22:37.000Z</time>
      </trkpt>
      <trkpt lat="46.50392" lon="5.38012">
        <ele>269.79998779297</ele>
        <time>2021-04-05T14:22:39.000Z</time>
      </trkpt>
      <trkpt lat="46.50389" lon="5.38016">
        <ele>270</ele>
        <time>2021-04-05T14:22:40.000Z</time>
      </trkpt>
      <trkpt lat="46.50386" lon="5.3802">
        <ele>270.20001220703</ele>
        <time>2021-04-05T14:22:41.000Z</time>
      </trkpt>
      <trkpt lat="46.5038" lon="5.38027">
        <ele>270.60000610352</ele>
        <time>2021-04-05T14:22:43.000Z</time>
      </trkpt>
      <trkpt lat="46.50372" lon="5.38025">
        <ele>270.79998779297</ele>
        <time>2021-04-05T14:22:45.000Z</time>
      </trkpt>
      <trkpt lat="46.50369" lon="5.38022">
        <ele>270.79998779297</ele>
        <time>2021-04-05T14:22:46.000Z</time>
      </trkpt>
      <trkpt lat="46.50366" lon="5.38017">
        <ele>270.79998779297</ele>
        <time>2021-04-05T14:22:47.000Z</time>
      </trkpt>
      <trkpt lat="46.50364" lon="5.38006">
        <ele>271.39999389648</ele>
        <time>2021-04-05T14:22:49.000Z</time>
      </trkpt>
      <trkpt lat="46.50364" lon="5.37994">
        <ele>272</ele>
        <time>2021-04-05T14:22:51.000Z</time>
      </trkpt>
      <trkpt lat="46.50364" lon="5.37988">
        <ele>272.20001220703</ele>
        <time>2021-04-05T14:22:52.000Z</time>
      </trkpt>
      <trkpt lat="46.50364" lon="5.37983">
        <ele>272.20001220703</ele>
        <time>2021-04-05T14:22:53.000Z</time>
      </trkpt>
      <trkpt lat="46.50365" lon="5.3797">
        <ele>272.39999389648</ele>
        <time>2021-04-05T14:22:55.000Z</time>
      </trkpt>
      <trkpt lat="46.50365" lon="5.37964">
        <ele>272.60000610352</ele>
        <time>2021-04-05T14:22:56.000Z</time>
      </trkpt>
      <trkpt lat="46.50364" lon="5.37957">
        <ele>272.79998779297</ele>
        <time>2021-04-05T14:22:57.000Z</time>
      </trkpt>
      <trkpt lat="46.50363" lon="5.37944">
        <ele>273</ele>
        <time>2021-04-05T14:22:59.000Z</time>
      </trkpt>
      <trkpt lat="46.50363" lon="5.37937">
        <ele>273</ele>
        <time>2021-04-05T14:23:00.000Z</time>
      </trkpt>
      <trkpt lat="46.50361" lon="5.37929">
        <ele>273</ele>
        <time>2021-04-05T14:23:01.000Z</time>
      </trkpt>
      <trkpt lat="46.50357" lon="5.37914">
        <ele>273</ele>
        <time>2021-04-05T14:23:03.000Z</time>
      </trkpt>
      <trkpt lat="46.5035" lon="5.37899">
        <ele>273</ele>
        <time>2021-04-05T14:23:05.000Z</time>
      </trkpt>
      <trkpt lat="46.50346" lon="5.37892">
        <ele>273</ele>
        <time>2021-04-05T14:23:06.000Z</time>
      </trkpt>
      <trkpt lat="46.50341" lon="5.37885">
        <ele>273</ele>
        <time>2021-04-05T14:23:07.000Z</time>
      </trkpt>
      <trkpt lat="46.50331" lon="5.37874">
        <ele>273</ele>
        <time>2021-04-05T14:23:09.000Z</time>
      </trkpt>
      <trkpt lat="46.50321" lon="5.37864">
        <ele>272.20001220703</ele>
        <time>2021-04-05T14:23:11.000Z</time>
      </trkpt>
      <trkpt lat="46.5031" lon="5.37853">
        <ele>271.79998779297</ele>
        <time>2021-04-05T14:23:13.000Z</time>
      </trkpt>
      <trkpt lat="46.50299" lon="5.37843">
        <ele>271.60000610352</ele>
        <time>2021-04-05T14:23:15.000Z</time>
      </trkpt>
      <trkpt lat="46.50288" lon="5.37832">
        <ele>271.60000610352</ele>
        <time>2021-04-05T14:23:17.000Z</time>
      </trkpt>
      <trkpt lat="46.50277" lon="5.37821">
        <ele>271.60000610352</ele>
        <time>2021-04-05T14:23:19.000Z</time>
      </trkpt>
      <trkpt lat="46.50266" lon="5.37811">
        <ele>271.60000610352</ele>
        <time>2021-04-05T14:23:21.000Z</time>
      </trkpt>
      <trkpt lat="46.50254" lon="5.378">
        <ele>271.60000610352</ele>
        <time>2021-04-05T14:23:23.000Z</time>
      </trkpt>
      <trkpt lat="46.50242" lon="5.3779">
        <ele>271.60000610352</ele>
        <time>2021-04-05T14:23:25.000Z</time>
      </trkpt>
      <trkpt lat="46.5023" lon="5.37779">
        <ele>271.79998779297</ele>
        <time>2021-04-05T14:23:27.000Z</time>
      </trkpt>
      <trkpt lat="46.50217" lon="5.3777">
        <ele>271.79998779297</ele>
        <time>2021-04-05T14:23:29.000Z</time>
      </trkpt>
      <trkpt lat="46.5021" lon="5.37765">
        <ele>271.79998779297</ele>
        <time>2021-04-05T14:23:30.000Z</time>
      </trkpt>
      <trkpt lat="46.50203" lon="5.37761">
        <ele>271.60000610352</ele>
        <time>2021-04-05T14:23:31.000Z</time>
      </trkpt>
      <trkpt lat="46.50189" lon="5.37755">
        <ele>271.60000610352</ele>
        <time>2021-04-05T14:23:33.000Z</time>
      </trkpt>
      <trkpt lat="46.50182" lon="5.37753">
        <ele>271.39999389648</ele>
        <time>2021-04-05T14:23:34.000Z</time>
      </trkpt>
      <trkpt lat="46.50174" lon="5.37751">
        <ele>271.39999389648</ele>
        <time>2021-04-05T14:23:35.000Z</time>
      </trkpt>
      <trkpt lat="46.50167" lon="5.37749">
        <ele>271.20001220703</ele>
        <time>2021-04-05T14:23:36.000Z</time>
      </trkpt>
      <trkpt lat="46.5016" lon="5.37747">
        <ele>271.20001220703</ele>
        <time>2021-04-05T14:23:37.000Z</time>
      </trkpt>
      <trkpt lat="46.50147" lon="5.37745">
        <ele>271.20001220703</ele>
        <time>2021-04-05T14:23:39.000Z</time>
      </trkpt>
      <trkpt lat="46.50134" lon="5.37742">
        <ele>271.20001220703</ele>
        <time>2021-04-05T14:23:41.000Z</time>
      </trkpt>
      <trkpt lat="46.50122" lon="5.37738">
        <ele>271.20001220703</ele>
        <time>2021-04-05T14:23:43.000Z</time>
      </trkpt>
      <trkpt lat="46.5011" lon="5.37735">
        <ele>271.39999389648</ele>
        <time>2021-04-05T14:23:45.000Z</time>
      </trkpt>
      <trkpt lat="46.50098" lon="5.37732">
        <ele>271.79998779297</ele>
        <time>2021-04-05T14:23:47.000Z</time>
      </trkpt>
      <trkpt lat="46.50086" lon="5.37728">
        <ele>272.20001220703</ele>
        <time>2021-04-05T14:23:49.000Z</time>
      </trkpt>
      <trkpt lat="46.50074" lon="5.37723">
        <ele>272.39999389648</ele>
        <time>2021-04-05T14:23:51.000Z</time>
      </trkpt>
      <trkpt lat="46.50068" lon="5.3772">
        <ele>272.60000610352</ele>
        <time>2021-04-05T14:23:52.000Z</time>
      </trkpt>
      <trkpt lat="46.50062" lon="5.37718">
        <ele>272.79998779297</ele>
        <time>2021-04-05T14:23:53.000Z</time>
      </trkpt>
      <trkpt lat="46.50043" lon="5.37709">
        <ele>273.60000610352</ele>
        <time>2021-04-05T14:23:56.000Z</time>
      </trkpt>
      <trkpt lat="46.5003" lon="5.37703">
        <ele>273.60000610352</ele>
        <time>2021-04-05T14:23:58.000Z</time>
      </trkpt>
      <trkpt lat="46.50017" lon="5.37696">
        <ele>273.60000610352</ele>
        <time>2021-04-05T14:24:00.000Z</time>
      </trkpt>
      <trkpt lat="46.50004" lon="5.3769">
        <ele>273.60000610352</ele>
        <time>2021-04-05T14:24:02.000Z</time>
      </trkpt>
      <trkpt lat="46.49991" lon="5.37683">
        <ele>273.60000610352</ele>
        <time>2021-04-05T14:24:04.000Z</time>
      </trkpt>
      <trkpt lat="46.49978" lon="5.37677">
        <ele>273.60000610352</ele>
        <time>2021-04-05T14:24:06.000Z</time>
      </trkpt>
      <trkpt lat="46.49964" lon="5.3767">
        <ele>273.20001220703</ele>
        <time>2021-04-05T14:24:08.000Z</time>
      </trkpt>
      <trkpt lat="46.4995" lon="5.37664">
        <ele>272.79998779297</ele>
        <time>2021-04-05T14:24:10.000Z</time>
      </trkpt>
      <trkpt lat="46.49935" lon="5.37659">
        <ele>272.60000610352</ele>
        <time>2021-04-05T14:24:12.000Z</time>
      </trkpt>
      <trkpt lat="46.49921" lon="5.37654">
        <ele>272.39999389648</ele>
        <time>2021-04-05T14:24:14.000Z</time>
      </trkpt>
      <trkpt lat="46.49906" lon="5.37649">
        <ele>272.39999389648</ele>
        <time>2021-04-05T14:24:16.000Z</time>
      </trkpt>
      <trkpt lat="46.49892" lon="5.37644">
        <ele>272.39999389648</ele>
        <time>2021-04-05T14:24:18.000Z</time>
      </trkpt>
      <trkpt lat="46.49877" lon="5.37639">
        <ele>272</ele>
        <time>2021-04-05T14:24:20.000Z</time>
      </trkpt>
      <trkpt lat="46.49862" lon="5.37633">
        <ele>272</ele>
        <time>2021-04-05T14:24:22.000Z</time>
      </trkpt>
      <trkpt lat="46.49847" lon="5.37626">
        <ele>271.79998779297</ele>
        <time>2021-04-05T14:24:24.000Z</time>
      </trkpt>
      <trkpt lat="46.49832" lon="5.3762">
        <ele>271.79998779297</ele>
        <time>2021-04-05T14:24:26.000Z</time>
      </trkpt>
      <trkpt lat="46.49818" lon="5.37613">
        <ele>271.39999389648</ele>
        <time>2021-04-05T14:24:28.000Z</time>
      </trkpt>
      <trkpt lat="46.49805" lon="5.37605">
        <ele>271</ele>
        <time>2021-04-05T14:24:30.000Z</time>
      </trkpt>
      <trkpt lat="46.49792" lon="5.37597">
        <ele>270.79998779297</ele>
        <time>2021-04-05T14:24:32.000Z</time>
      </trkpt>
      <trkpt lat="46.49779" lon="5.37589">
        <ele>270.79998779297</ele>
        <time>2021-04-05T14:24:34.000Z</time>
      </trkpt>
      <trkpt lat="46.49765" lon="5.3758">
        <ele>270.79998779297</ele>
        <time>2021-04-05T14:24:36.000Z</time>
      </trkpt>
      <trkpt lat="46.49759" lon="5.37576">
        <ele>270.79998779297</ele>
        <time>2021-04-05T14:24:37.000Z</time>
      </trkpt>
      <trkpt lat="46.49752" lon="5.37571">
        <ele>270.79998779297</ele>
        <time>2021-04-05T14:24:38.000Z</time>
      </trkpt>
      <trkpt lat="46.49738" lon="5.37563">
        <ele>270.60000610352</ele>
        <time>2021-04-05T14:24:40.000Z</time>
      </trkpt>
      <trkpt lat="46.49725" lon="5.37554">
        <ele>270.60000610352</ele>
        <time>2021-04-05T14:24:42.000Z</time>
      </trkpt>
      <trkpt lat="46.49711" lon="5.37546">
        <ele>270.60000610352</ele>
        <time>2021-04-05T14:24:44.000Z</time>
      </trkpt>
      <trkpt lat="46.49697" lon="5.37539">
        <ele>270.60000610352</ele>
        <time>2021-04-05T14:24:46.000Z</time>
      </trkpt>
      <trkpt lat="46.4969" lon="5.37536">
        <ele>270.60000610352</ele>
        <time>2021-04-05T14:24:47.000Z</time>
      </trkpt>
      <trkpt lat="46.49683" lon="5.37533">
        <ele>270.60000610352</ele>
        <time>2021-04-05T14:24:48.000Z</time>
      </trkpt>
      <trkpt lat="46.4967" lon="5.37528">
        <ele>270.39999389648</ele>
        <time>2021-04-05T14:24:50.000Z</time>
      </trkpt>
      <trkpt lat="46.49657" lon="5.37522">
        <ele>270.39999389648</ele>
        <time>2021-04-05T14:24:52.000Z</time>
      </trkpt>
      <trkpt lat="46.49651" lon="5.37519">
        <ele>270.20001220703</ele>
        <time>2021-04-05T14:24:53.000Z</time>
      </trkpt>
      <trkpt lat="46.49646" lon="5.37516">
        <ele>270.20001220703</ele>
        <time>2021-04-05T14:24:54.000Z</time>
      </trkpt>
      <trkpt lat="46.49635" lon="5.3751">
        <ele>270.20001220703</ele>
        <time>2021-04-05T14:24:56.000Z</time>
      </trkpt>
      <trkpt lat="46.49625" lon="5.37505">
        <ele>270.20001220703</ele>
        <time>2021-04-05T14:24:58.000Z</time>
      </trkpt>
      <trkpt lat="46.4962" lon="5.37504">
        <ele>270.20001220703</ele>
        <time>2021-04-05T14:24:59.000Z</time>
      </trkpt>
      <trkpt lat="46.49614" lon="5.37505">
        <ele>270.20001220703</ele>
        <time>2021-04-05T14:25:00.000Z</time>
      </trkpt>
      <trkpt lat="46.49604" lon="5.3751">
        <ele>270.39999389648</ele>
        <time>2021-04-05T14:25:02.000Z</time>
      </trkpt>
      <trkpt lat="46.49599" lon="5.37514">
        <ele>270.60000610352</ele>
        <time>2021-04-05T14:25:03.000Z</time>
      </trkpt>
      <trkpt lat="46.49595" lon="5.37518">
        <ele>270.79998779297</ele>
        <time>2021-04-05T14:25:04.000Z</time>
      </trkpt>
      <trkpt lat="46.49586" lon="5.37525">
        <ele>270.79998779297</ele>
        <time>2021-04-05T14:25:06.000Z</time>
      </trkpt>
      <trkpt lat="46.49577" lon="5.37533">
        <ele>271</ele>
        <time>2021-04-05T14:25:08.000Z</time>
      </trkpt>
      <trkpt lat="46.49568" lon="5.37541">
        <ele>271.39999389648</ele>
        <time>2021-04-05T14:25:10.000Z</time>
      </trkpt>
      <trkpt lat="46.49563" lon="5.37545">
        <ele>271.79998779297</ele>
        <time>2021-04-05T14:25:11.000Z</time>
      </trkpt>
      <trkpt lat="46.49559" lon="5.37549">
        <ele>272</ele>
        <time>2021-04-05T14:25:12.000Z</time>
      </trkpt>
      <trkpt lat="46.4955" lon="5.37557">
        <ele>272.79998779297</ele>
        <time>2021-04-05T14:25:14.000Z</time>
      </trkpt>
      <trkpt lat="46.49541" lon="5.37564">
        <ele>273.20001220703</ele>
        <time>2021-04-05T14:25:16.000Z</time>
      </trkpt>
      <trkpt lat="46.49532" lon="5.37572">
        <ele>273.79998779297</ele>
        <time>2021-04-05T14:25:18.000Z</time>
      </trkpt>
      <trkpt lat="46.49523" lon="5.3758">
        <ele>274.20001220703</ele>
        <time>2021-04-05T14:25:20.000Z</time>
      </trkpt>
      <trkpt lat="46.49518" lon="5.37584">
        <ele>274.39999389648</ele>
        <time>2021-04-05T14:25:21.000Z</time>
      </trkpt>
      <trkpt lat="46.49514" lon="5.37588">
        <ele>274.79998779297</ele>
        <time>2021-04-05T14:25:22.000Z</time>
      </trkpt>
      <trkpt lat="46.49505" lon="5.37595">
        <ele>275</ele>
        <time>2021-04-05T14:25:24.000Z</time>
      </trkpt>
      <trkpt lat="46.49495" lon="5.37603">
        <ele>275.20001220703</ele>
        <time>2021-04-05T14:25:26.000Z</time>
      </trkpt>
      <trkpt lat="46.49487" lon="5.37611">
        <ele>275.20001220703</ele>
        <time>2021-04-05T14:25:28.000Z</time>
      </trkpt>
      <trkpt lat="46.49478" lon="5.37618">
        <ele>275.39999389648</ele>
        <time>2021-04-05T14:25:30.000Z</time>
      </trkpt>
      <trkpt lat="46.49474" lon="5.37621">
        <ele>275.60000610352</ele>
        <time>2021-04-05T14:25:31.000Z</time>
      </trkpt>
      <trkpt lat="46.49469" lon="5.37625">
        <ele>275.60000610352</ele>
        <time>2021-04-05T14:25:32.000Z</time>
      </trkpt>
      <trkpt lat="46.49461" lon="5.37632">
        <ele>276</ele>
        <time>2021-04-05T14:25:34.000Z</time>
      </trkpt>
      <trkpt lat="46.49453" lon="5.37639">
        <ele>276.60000610352</ele>
        <time>2021-04-05T14:25:36.000Z</time>
      </trkpt>
      <trkpt lat="46.49445" lon="5.37646">
        <ele>277.39999389648</ele>
        <time>2021-04-05T14:25:38.000Z</time>
      </trkpt>
      <trkpt lat="46.49441" lon="5.37649">
        <ele>277.60000610352</ele>
        <time>2021-04-05T14:25:39.000Z</time>
      </trkpt>
      <trkpt lat="46.49437" lon="5.37653">
        <ele>277.79998779297</ele>
        <time>2021-04-05T14:25:40.000Z</time>
      </trkpt>
      <trkpt lat="46.4943" lon="5.3766">
        <ele>278.39999389648</ele>
        <time>2021-04-05T14:25:42.000Z</time>
      </trkpt>
      <trkpt lat="46.49423" lon="5.37668">
        <ele>278.79998779297</ele>
        <time>2021-04-05T14:25:44.000Z</time>
      </trkpt>
      <trkpt lat="46.49417" lon="5.37677">
        <ele>279.39999389648</ele>
        <time>2021-04-05T14:25:46.000Z</time>
      </trkpt>
      <trkpt lat="46.49411" lon="5.37686">
        <ele>280</ele>
        <time>2021-04-05T14:25:48.000Z</time>
      </trkpt>
      <trkpt lat="46.49406" lon="5.37695">
        <ele>280.60000610352</ele>
        <time>2021-04-05T14:25:50.000Z</time>
      </trkpt>
      <trkpt lat="46.49401" lon="5.37706">
        <ele>281.39999389648</ele>
        <time>2021-04-05T14:25:52.000Z</time>
      </trkpt>
      <trkpt lat="46.49398" lon="5.37711">
        <ele>281.60000610352</ele>
        <time>2021-04-05T14:25:53.000Z</time>
      </trkpt>
      <trkpt lat="46.49396" lon="5.37716">
        <ele>281.79998779297</ele>
        <time>2021-04-05T14:25:54.000Z</time>
      </trkpt>
      <trkpt lat="46.49392" lon="5.37728">
        <ele>282.20001220703</ele>
        <time>2021-04-05T14:25:56.000Z</time>
      </trkpt>
      <trkpt lat="46.49388" lon="5.37739">
        <ele>282.60000610352</ele>
        <time>2021-04-05T14:25:58.000Z</time>
      </trkpt>
      <trkpt lat="46.49384" lon="5.37751">
        <ele>283</ele>
        <time>2021-04-05T14:26:00.000Z</time>
      </trkpt>
      <trkpt lat="46.4938" lon="5.37763">
        <ele>283.79998779297</ele>
        <time>2021-04-05T14:26:02.000Z</time>
      </trkpt>
      <trkpt lat="46.49376" lon="5.37775">
        <ele>284.20001220703</ele>
        <time>2021-04-05T14:26:04.000Z</time>
      </trkpt>
      <trkpt lat="46.49372" lon="5.37787">
        <ele>284.39999389648</ele>
        <time>2021-04-05T14:26:06.000Z</time>
      </trkpt>
      <trkpt lat="46.49368" lon="5.378">
        <ele>284.79998779297</ele>
        <time>2021-04-05T14:26:08.000Z</time>
      </trkpt>
      <trkpt lat="46.49366" lon="5.37807">
        <ele>285</ele>
        <time>2021-04-05T14:26:09.000Z</time>
      </trkpt>
      <trkpt lat="46.49364" lon="5.37813">
        <ele>285.39999389648</ele>
        <time>2021-04-05T14:26:10.000Z</time>
      </trkpt>
      <trkpt lat="46.49362" lon="5.3782">
        <ele>285.39999389648</ele>
        <time>2021-04-05T14:26:11.000Z</time>
      </trkpt>
      <trkpt lat="46.4936" lon="5.37827">
        <ele>285.60000610352</ele>
        <time>2021-04-05T14:26:12.000Z</time>
      </trkpt>
      <trkpt lat="46.49354" lon="5.37842">
        <ele>286</ele>
        <time>2021-04-05T14:26:14.000Z</time>
      </trkpt>
      <trkpt lat="46.49349" lon="5.37858">
        <ele>286</ele>
        <time>2021-04-05T14:26:16.000Z</time>
      </trkpt>
      <trkpt lat="46.49347" lon="5.37866">
        <ele>286</ele>
        <time>2021-04-05T14:26:17.000Z</time>
      </trkpt>
      <trkpt lat="46.49344" lon="5.37875">
        <ele>286</ele>
        <time>2021-04-05T14:26:18.000Z</time>
      </trkpt>
      <trkpt lat="46.49339" lon="5.37893">
        <ele>286</ele>
        <time>2021-04-05T14:26:20.000Z</time>
      </trkpt>
      <trkpt lat="46.49335" lon="5.37914">
        <ele>286</ele>
        <time>2021-04-05T14:26:22.000Z</time>
      </trkpt>
      <trkpt lat="46.49333" lon="5.37924">
        <ele>286</ele>
        <time>2021-04-05T14:26:23.000Z</time>
      </trkpt>
      <trkpt lat="46.49331" lon="5.37935">
        <ele>286</ele>
        <time>2021-04-05T14:26:24.000Z</time>
      </trkpt>
      <trkpt lat="46.49327" lon="5.37958">
        <ele>285.39999389648</ele>
        <time>2021-04-05T14:26:26.000Z</time>
      </trkpt>
      <trkpt lat="46.49323" lon="5.37981">
        <ele>285</ele>
        <time>2021-04-05T14:26:28.000Z</time>
      </trkpt>
      <trkpt lat="46.49318" lon="5.38004">
        <ele>284</ele>
        <time>2021-04-05T14:26:30.000Z</time>
      </trkpt>
      <trkpt lat="46.49316" lon="5.38015">
        <ele>284</ele>
        <time>2021-04-05T14:26:31.000Z</time>
      </trkpt>
      <trkpt lat="46.49314" lon="5.38025">
        <ele>283.60000610352</ele>
        <time>2021-04-05T14:26:32.000Z</time>
      </trkpt>
      <trkpt lat="46.49309" lon="5.38046">
        <ele>283.39999389648</ele>
        <time>2021-04-05T14:26:34.000Z</time>
      </trkpt>
      <trkpt lat="46.49305" lon="5.38067">
        <ele>283.39999389648</ele>
        <time>2021-04-05T14:26:36.000Z</time>
      </trkpt>
      <trkpt lat="46.49302" lon="5.38088">
        <ele>283.39999389648</ele>
        <time>2021-04-05T14:26:38.000Z</time>
      </trkpt>
      <trkpt lat="46.49299" lon="5.38108">
        <ele>283.39999389648</ele>
        <time>2021-04-05T14:26:40.000Z</time>
      </trkpt>
      <trkpt lat="46.49295" lon="5.38128">
        <ele>283.39999389648</ele>
        <time>2021-04-05T14:26:42.000Z</time>
      </trkpt>
      <trkpt lat="46.49291" lon="5.38148">
        <ele>283.79998779297</ele>
        <time>2021-04-05T14:26:44.000Z</time>
      </trkpt>
      <trkpt lat="46.49288" lon="5.38166">
        <ele>284.39999389648</ele>
        <time>2021-04-05T14:26:46.000Z</time>
      </trkpt>
      <trkpt lat="46.49284" lon="5.38185">
        <ele>284.79998779297</ele>
        <time>2021-04-05T14:26:48.000Z</time>
      </trkpt>
      <trkpt lat="46.49283" lon="5.38194">
        <ele>285</ele>
        <time>2021-04-05T14:26:49.000Z</time>
      </trkpt>
      <trkpt lat="46.49281" lon="5.38204">
        <ele>285</ele>
        <time>2021-04-05T14:26:50.000Z</time>
      </trkpt>
      <trkpt lat="46.49279" lon="5.38213">
        <ele>285.20001220703</ele>
        <time>2021-04-05T14:26:51.000Z</time>
      </trkpt>
      <trkpt lat="46.49277" lon="5.38222">
        <ele>285.39999389648</ele>
        <time>2021-04-05T14:26:52.000Z</time>
      </trkpt>
      <trkpt lat="46.49274" lon="5.3824">
        <ele>285.79998779297</ele>
        <time>2021-04-05T14:26:54.000Z</time>
      </trkpt>
      <trkpt lat="46.4927" lon="5.38258">
        <ele>286.20001220703</ele>
        <time>2021-04-05T14:26:56.000Z</time>
      </trkpt>
      <trkpt lat="46.49269" lon="5.38267">
        <ele>286.39999389648</ele>
        <time>2021-04-05T14:26:57.000Z</time>
      </trkpt>
      <trkpt lat="46.49267" lon="5.38275">
        <ele>286.60000610352</ele>
        <time>2021-04-05T14:26:58.000Z</time>
      </trkpt>
      <trkpt lat="46.49264" lon="5.38293">
        <ele>287</ele>
        <time>2021-04-05T14:27:00.000Z</time>
      </trkpt>
      <trkpt lat="46.49261" lon="5.3831">
        <ele>287.39999389648</ele>
        <time>2021-04-05T14:27:02.000Z</time>
      </trkpt>
      <trkpt lat="46.49256" lon="5.38326">
        <ele>288</ele>
        <time>2021-04-05T14:27:04.000Z</time>
      </trkpt>
      <trkpt lat="46.49253" lon="5.38333">
        <ele>288.20001220703</ele>
        <time>2021-04-05T14:27:05.000Z</time>
      </trkpt>
      <trkpt lat="46.49249" lon="5.38338">
        <ele>288.20001220703</ele>
        <time>2021-04-05T14:27:06.000Z</time>
      </trkpt>
      <trkpt lat="46.49244" lon="5.38341">
        <ele>288.60000610352</ele>
        <time>2021-04-05T14:27:07.000Z</time>
      </trkpt>
      <trkpt lat="46.49239" lon="5.38341">
        <ele>288.79998779297</ele>
        <time>2021-04-05T14:27:08.000Z</time>
      </trkpt>
      <trkpt lat="46.49229" lon="5.38336">
        <ele>289.20001220703</ele>
        <time>2021-04-05T14:27:10.000Z</time>
      </trkpt>
      <trkpt lat="46.49218" lon="5.3833">
        <ele>289.60000610352</ele>
        <time>2021-04-05T14:27:12.000Z</time>
      </trkpt>
      <trkpt lat="46.49206" lon="5.38323">
        <ele>289.79998779297</ele>
        <time>2021-04-05T14:27:14.000Z</time>
      </trkpt>
      <trkpt lat="46.49194" lon="5.38317">
        <ele>289.79998779297</ele>
        <time>2021-04-05T14:27:16.000Z</time>
      </trkpt>
      <trkpt lat="46.4918" lon="5.38311">
        <ele>289.79998779297</ele>
        <time>2021-04-05T14:27:18.000Z</time>
      </trkpt>
      <trkpt lat="46.49174" lon="5.38308">
        <ele>289.79998779297</ele>
        <time>2021-04-05T14:27:19.000Z</time>
      </trkpt>
      <trkpt lat="46.49167" lon="5.38305">
        <ele>289.79998779297</ele>
        <time>2021-04-05T14:27:20.000Z</time>
      </trkpt>
      <trkpt lat="46.49152" lon="5.38301">
        <ele>289.60000610352</ele>
        <time>2021-04-05T14:27:22.000Z</time>
      </trkpt>
      <trkpt lat="46.49138" lon="5.38296">
        <ele>289.20001220703</ele>
        <time>2021-04-05T14:27:24.000Z</time>
      </trkpt>
      <trkpt lat="46.49124" lon="5.38292">
        <ele>288.60000610352</ele>
        <time>2021-04-05T14:27:26.000Z</time>
      </trkpt>
      <trkpt lat="46.49117" lon="5.3829">
        <ele>288.20001220703</ele>
        <time>2021-04-05T14:27:27.000Z</time>
      </trkpt>
      <trkpt lat="46.49111" lon="5.38288">
        <ele>288</ele>
        <time>2021-04-05T14:27:28.000Z</time>
      </trkpt>
      <trkpt lat="46.49104" lon="5.38285">
        <ele>287.60000610352</ele>
        <time>2021-04-05T14:27:29.000Z</time>
      </trkpt>
      <trkpt lat="46.49098" lon="5.3828">
        <ele>287.39999389648</ele>
        <time>2021-04-05T14:27:30.000Z</time>
      </trkpt>
      <trkpt lat="46.49093" lon="5.38273">
        <ele>287.39999389648</ele>
        <time>2021-04-05T14:27:31.000Z</time>
      </trkpt>
      <trkpt lat="46.49089" lon="5.38264">
        <ele>287.20001220703</ele>
        <time>2021-04-05T14:27:32.000Z</time>
      </trkpt>
      <trkpt lat="46.49086" lon="5.38254">
        <ele>287</ele>
        <time>2021-04-05T14:27:33.000Z</time>
      </trkpt>
      <trkpt lat="46.49083" lon="5.38244">
        <ele>286.79998779297</ele>
        <time>2021-04-05T14:27:34.000Z</time>
      </trkpt>
      <trkpt lat="46.49079" lon="5.38233">
        <ele>286.60000610352</ele>
        <time>2021-04-05T14:27:35.000Z</time>
      </trkpt>
      <trkpt lat="46.49076" lon="5.38222">
        <ele>286.39999389648</ele>
        <time>2021-04-05T14:27:36.000Z</time>
      </trkpt>
      <trkpt lat="46.49069" lon="5.382">
        <ele>286.20001220703</ele>
        <time>2021-04-05T14:27:38.000Z</time>
      </trkpt>
      <trkpt lat="46.49062" lon="5.38177">
        <ele>285.79998779297</ele>
        <time>2021-04-05T14:27:40.000Z</time>
      </trkpt>
      <trkpt lat="46.49054" lon="5.38154">
        <ele>284.60000610352</ele>
        <time>2021-04-05T14:27:42.000Z</time>
      </trkpt>
      <trkpt lat="46.49051" lon="5.38142">
        <ele>284.20001220703</ele>
        <time>2021-04-05T14:27:43.000Z</time>
      </trkpt>
      <trkpt lat="46.49047" lon="5.3813">
        <ele>283.79998779297</ele>
        <time>2021-04-05T14:27:44.000Z</time>
      </trkpt>
      <trkpt lat="46.49043" lon="5.38117">
        <ele>283.60000610352</ele>
        <time>2021-04-05T14:27:45.000Z</time>
      </trkpt>
      <trkpt lat="46.49039" lon="5.38105">
        <ele>283.39999389648</ele>
        <time>2021-04-05T14:27:46.000Z</time>
      </trkpt>
      <trkpt lat="46.49032" lon="5.38081">
        <ele>282.60000610352</ele>
        <time>2021-04-05T14:27:48.000Z</time>
      </trkpt>
      <trkpt lat="46.49028" lon="5.38069">
        <ele>282</ele>
        <time>2021-04-05T14:27:49.000Z</time>
      </trkpt>
      <trkpt lat="46.49024" lon="5.38056">
        <ele>281.60000610352</ele>
        <time>2021-04-05T14:27:50.000Z</time>
      </trkpt>
      <trkpt lat="46.49016" lon="5.38031">
        <ele>281</ele>
        <time>2021-04-05T14:27:52.000Z</time>
      </trkpt>
      <trkpt lat="46.49009" lon="5.38005">
        <ele>279.79998779297</ele>
        <time>2021-04-05T14:27:54.000Z</time>
      </trkpt>
      <trkpt lat="46.49001" lon="5.3798">
        <ele>278.60000610352</ele>
        <time>2021-04-05T14:27:56.000Z</time>
      </trkpt>
      <trkpt lat="46.48994" lon="5.37955">
        <ele>278.20001220703</ele>
        <time>2021-04-05T14:27:58.000Z</time>
      </trkpt>
      <trkpt lat="46.48987" lon="5.3793">
        <ele>277.39999389648</ele>
        <time>2021-04-05T14:28:00.000Z</time>
      </trkpt>
      <trkpt lat="46.4898" lon="5.37905">
        <ele>276.39999389648</ele>
        <time>2021-04-05T14:28:02.000Z</time>
      </trkpt>
      <trkpt lat="46.48972" lon="5.37881">
        <ele>275.79998779297</ele>
        <time>2021-04-05T14:28:04.000Z</time>
      </trkpt>
      <trkpt lat="46.48965" lon="5.37857">
        <ele>275.60000610352</ele>
        <time>2021-04-05T14:28:06.000Z</time>
      </trkpt>
      <trkpt lat="46.48961" lon="5.37845">
        <ele>275.20001220703</ele>
        <time>2021-04-05T14:28:07.000Z</time>
      </trkpt>
      <trkpt lat="46.48958" lon="5.37834">
        <ele>274.79998779297</ele>
        <time>2021-04-05T14:28:08.000Z</time>
      </trkpt>
      <trkpt lat="46.48951" lon="5.3781">
        <ele>274.20001220703</ele>
        <time>2021-04-05T14:28:10.000Z</time>
      </trkpt>
      <trkpt lat="46.48947" lon="5.37798">
        <ele>274.20001220703</ele>
        <time>2021-04-05T14:28:11.000Z</time>
      </trkpt>
      <trkpt lat="46.48944" lon="5.37787">
        <ele>274</ele>
        <time>2021-04-05T14:28:12.000Z</time>
      </trkpt>
      <trkpt lat="46.48936" lon="5.37764">
        <ele>274</ele>
        <time>2021-04-05T14:28:14.000Z</time>
      </trkpt>
      <trkpt lat="46.48929" lon="5.37742">
        <ele>273.79998779297</ele>
        <time>2021-04-05T14:28:16.000Z</time>
      </trkpt>
      <trkpt lat="46.48921" lon="5.3772">
        <ele>273.79998779297</ele>
        <time>2021-04-05T14:28:18.000Z</time>
      </trkpt>
      <trkpt lat="46.48918" lon="5.3771">
        <ele>273.79998779297</ele>
        <time>2021-04-05T14:28:19.000Z</time>
      </trkpt>
      <trkpt lat="46.48915" lon="5.37699">
        <ele>273.79998779297</ele>
        <time>2021-04-05T14:28:20.000Z</time>
      </trkpt>
      <trkpt lat="46.48909" lon="5.3768">
        <ele>273.79998779297</ele>
        <time>2021-04-05T14:28:22.000Z</time>
      </trkpt>
      <trkpt lat="46.48903" lon="5.37661">
        <ele>273.79998779297</ele>
        <time>2021-04-05T14:28:24.000Z</time>
      </trkpt>
      <trkpt lat="46.48901" lon="5.37652">
        <ele>273.79998779297</ele>
        <time>2021-04-05T14:28:25.000Z</time>
      </trkpt>
      <trkpt lat="46.48899" lon="5.37643">
        <ele>273.79998779297</ele>
        <time>2021-04-05T14:28:26.000Z</time>
      </trkpt>
      <trkpt lat="46.4889" lon="5.37628">
        <ele>274</ele>
        <time>2021-04-05T14:28:28.000Z</time>
      </trkpt>
      <trkpt lat="46.48879" lon="5.37626">
        <ele>274.39999389648</ele>
        <time>2021-04-05T14:28:30.000Z</time>
      </trkpt>
      <trkpt lat="46.48869" lon="5.37625">
        <ele>275</ele>
        <time>2021-04-05T14:28:32.000Z</time>
      </trkpt>
      <trkpt lat="46.48865" lon="5.37622">
        <ele>275.20001220703</ele>
        <time>2021-04-05T14:28:33.000Z</time>
      </trkpt>
      <trkpt lat="46.48862" lon="5.37616">
        <ele>275.39999389648</ele>
        <time>2021-04-05T14:28:34.000Z</time>
      </trkpt>
      <trkpt lat="46.48859" lon="5.37602">
        <ele>275.79998779297</ele>
        <time>2021-04-05T14:28:36.000Z</time>
      </trkpt>
      <trkpt lat="46.48856" lon="5.37588">
        <ele>276.20001220703</ele>
        <time>2021-04-05T14:28:38.000Z</time>
      </trkpt>
      <trkpt lat="46.48855" lon="5.37581">
        <ele>276.60000610352</ele>
        <time>2021-04-05T14:28:39.000Z</time>
      </trkpt>
      <trkpt lat="46.48853" lon="5.37574">
        <ele>277.20001220703</ele>
        <time>2021-04-05T14:28:40.000Z</time>
      </trkpt>
      <trkpt lat="46.4885" lon="5.37567">
        <ele>277.60000610352</ele>
        <time>2021-04-05T14:28:41.000Z</time>
      </trkpt>
      <trkpt lat="46.48848" lon="5.3756">
        <ele>278</ele>
        <time>2021-04-05T14:28:42.000Z</time>
      </trkpt>
      <trkpt lat="46.48842" lon="5.37545">
        <ele>278.60000610352</ele>
        <time>2021-04-05T14:28:44.000Z</time>
      </trkpt>
      <trkpt lat="46.48839" lon="5.37538">
        <ele>278.79998779297</ele>
        <time>2021-04-05T14:28:45.000Z</time>
      </trkpt>
      <trkpt lat="46.48835" lon="5.37531">
        <ele>279</ele>
        <time>2021-04-05T14:28:46.000Z</time>
      </trkpt>
      <trkpt lat="46.48831" lon="5.37525">
        <ele>279.20001220703</ele>
        <time>2021-04-05T14:28:47.000Z</time>
      </trkpt>
      <trkpt lat="46.48827" lon="5.37519">
        <ele>279.39999389648</ele>
        <time>2021-04-05T14:28:48.000Z</time>
      </trkpt>
      <trkpt lat="46.4882" lon="5.37507">
        <ele>279.60000610352</ele>
        <time>2021-04-05T14:28:50.000Z</time>
      </trkpt>
      <trkpt lat="46.48813" lon="5.37497">
        <ele>279.79998779297</ele>
        <time>2021-04-05T14:28:52.000Z</time>
      </trkpt>
      <trkpt lat="46.48805" lon="5.37486">
        <ele>280.20001220703</ele>
        <time>2021-04-05T14:28:54.000Z</time>
      </trkpt>
      <trkpt lat="46.48801" lon="5.37481">
        <ele>280.39999389648</ele>
        <time>2021-04-05T14:28:55.000Z</time>
      </trkpt>
      <trkpt lat="46.48798" lon="5.37476">
        <ele>280.60000610352</ele>
        <time>2021-04-05T14:28:56.000Z</time>
      </trkpt>
      <trkpt lat="46.48794" lon="5.3747">
        <ele>281</ele>
        <time>2021-04-05T14:28:57.000Z</time>
      </trkpt>
      <trkpt lat="46.4879" lon="5.37465">
        <ele>281.39999389648</ele>
        <time>2021-04-05T14:28:58.000Z</time>
      </trkpt>
      <trkpt lat="46.48782" lon="5.37453">
        <ele>281.60000610352</ele>
        <time>2021-04-05T14:29:00.000Z</time>
      </trkpt>
      <trkpt lat="46.48778" lon="5.37447">
        <ele>281.60000610352</ele>
        <time>2021-04-05T14:29:01.000Z</time>
      </trkpt>
      <trkpt lat="46.48773" lon="5.37441">
        <ele>281.60000610352</ele>
        <time>2021-04-05T14:29:02.000Z</time>
      </trkpt>
      <trkpt lat="46.48764" lon="5.37427">
        <ele>281.60000610352</ele>
        <time>2021-04-05T14:29:04.000Z</time>
      </trkpt>
      <trkpt lat="46.48754" lon="5.37413">
        <ele>281.60000610352</ele>
        <time>2021-04-05T14:29:06.000Z</time>
      </trkpt>
      <trkpt lat="46.48749" lon="5.37405">
        <ele>281.60000610352</ele>
        <time>2021-04-05T14:29:07.000Z</time>
      </trkpt>
      <trkpt lat="46.48744" lon="5.37398">
        <ele>281.60000610352</ele>
        <time>2021-04-05T14:29:08.000Z</time>
      </trkpt>
      <trkpt lat="46.48733" lon="5.37382">
        <ele>281.39999389648</ele>
        <time>2021-04-05T14:29:10.000Z</time>
      </trkpt>
      <trkpt lat="46.48723" lon="5.37367">
        <ele>280.79998779297</ele>
        <time>2021-04-05T14:29:12.000Z</time>
      </trkpt>
      <trkpt lat="46.48711" lon="5.37351">
        <ele>280</ele>
        <time>2021-04-05T14:29:14.000Z</time>
      </trkpt>
      <trkpt lat="46.48706" lon="5.37344">
        <ele>279.79998779297</ele>
        <time>2021-04-05T14:29:15.000Z</time>
      </trkpt>
      <trkpt lat="46.487" lon="5.37336">
        <ele>279.39999389648</ele>
        <time>2021-04-05T14:29:16.000Z</time>
      </trkpt>
      <trkpt lat="46.48689" lon="5.3732">
        <ele>279</ele>
        <time>2021-04-05T14:29:18.000Z</time>
      </trkpt>
      <trkpt lat="46.48683" lon="5.37313">
        <ele>278.60000610352</ele>
        <time>2021-04-05T14:29:19.000Z</time>
      </trkpt>
      <trkpt lat="46.48678" lon="5.37305">
        <ele>278.39999389648</ele>
        <time>2021-04-05T14:29:20.000Z</time>
      </trkpt>
      <trkpt lat="46.48667" lon="5.37291">
        <ele>278</ele>
        <time>2021-04-05T14:29:22.000Z</time>
      </trkpt>
      <trkpt lat="46.48656" lon="5.37277">
        <ele>277.79998779297</ele>
        <time>2021-04-05T14:29:24.000Z</time>
      </trkpt>
      <trkpt lat="46.48646" lon="5.37264">
        <ele>277.79998779297</ele>
        <time>2021-04-05T14:29:26.000Z</time>
      </trkpt>
    </trkseg>
  </trk>
</gpx>